<?xml version='1.0' encoding='UTF-8'?><gpx version="1.1" creator="JPX - https://github.com/jenetics/jpx" xmlns="http://www.topografix.com/GPX/1/1"><trk><trkseg><trkpt lat="40.7208696" lon="14.8737541"><ele>351.0</ele><time>2026-04-12T06:28:39.371Z</time></trkpt><trkpt lat="40.7208052" lon="14.8737716"><ele>351.0</ele><time>2026-04-12T06:29:02.623Z</time></trkpt><trkpt lat="40.7207125" lon="14.8737569"><ele>351.0</ele><time>2026-04-12T06:29:05.738Z</time></trkpt><trkpt lat="40.7206892" lon="14.8736724"><ele>351.0</ele><time>2026-04-12T06:29:27.014Z</time></trkpt><trkpt lat="40.720607" lon="14.8737225"><ele>351.0</ele><time>2026-04-12T06:30:12.999Z</time></trkpt><trkpt lat="40.7205426" lon="14.8737667"><ele>351.0</ele><time>2026-04-12T06:31:10.031Z</time></trkpt><trkpt lat="40.720596" lon="14.8737189"><ele>351.0</ele><time>2026-04-12T06:32:10.039Z</time></trkpt><trkpt lat="40.720663" lon="14.8737007"><ele>351.0</ele><time>2026-04-12T06:32:46.978Z</time></trkpt><trkpt lat="40.7207348" lon="14.8736867"><ele>351.0</ele><time>2026-04-12T06:33:27.015Z</time></trkpt><trkpt lat="40.7206863" lon="14.8736241"><ele>351.0</ele><time>2026-04-12T06:34:32.914Z</time></trkpt><trkpt lat="40.7206501" lon="14.8735228"><ele>351.0</ele><time>2026-04-12T06:36:39.983Z</time></trkpt><trkpt lat="40.7206318" lon="14.873437"><ele>351.0</ele><time>2026-04-12T06:36:41.96Z</time></trkpt><trkpt lat="40.7206251" lon="14.8735807"><ele>351.0</ele><time>2026-04-12T06:36:44.999Z</time></trkpt><trkpt lat="40.7206534" lon="14.8736906"><ele>351.0</ele><time>2026-04-12T06:36:45.955Z</time></trkpt><trkpt lat="40.7206814" lon="14.8737867"><ele>351.0</ele><time>2026-04-12T06:36:46.99Z</time></trkpt><trkpt lat="40.7206711" lon="14.873915"><ele>351.0</ele><time>2026-04-12T06:36:48.972Z</time></trkpt><trkpt lat="40.7206902" lon="14.8740152"><ele>351.0</ele><time>2026-04-12T06:36:50.973Z</time></trkpt><trkpt lat="40.7208128" lon="14.8740094"><ele>351.0</ele><time>2026-04-12T06:36:52.971Z</time></trkpt><trkpt lat="40.7208832" lon="14.8740008"><ele>351.0</ele><time>2026-04-12T06:36:53.967Z</time></trkpt><trkpt lat="40.7209592" lon="14.873986"><ele>351.0</ele><time>2026-04-12T06:36:54.963Z</time></trkpt><trkpt lat="40.7210492" lon="14.8739609"><ele>351.0</ele><time>2026-04-12T06:36:55.96Z</time></trkpt><trkpt lat="40.721146" lon="14.8739365"><ele>351.0</ele><time>2026-04-12T06:36:56.957Z</time></trkpt><trkpt lat="40.7212424" lon="14.8738982"><ele>351.0</ele><time>2026-04-12T06:36:57.978Z</time></trkpt><trkpt lat="40.7213356" lon="14.8738619"><ele>353.1666666666667</ele><time>2026-04-12T06:36:58.961Z</time></trkpt><trkpt lat="40.7214186" lon="14.8738449"><ele>355.3333333333333</ele><time>2026-04-12T06:36:59.956Z</time></trkpt><trkpt lat="40.7214911" lon="14.8738223"><ele>357.5</ele><time>2026-04-12T06:37:00.957Z</time></trkpt><trkpt lat="40.7215545" lon="14.8738073"><ele>359.66666666666663</ele><time>2026-04-12T06:37:01.955Z</time></trkpt><trkpt lat="40.7215688" lon="14.8736981"><ele>361.8333333333333</ele><time>2026-04-12T06:37:03.971Z</time></trkpt><trkpt lat="40.7215372" lon="14.8735871"><ele>364.0</ele><time>2026-04-12T06:37:04.961Z</time></trkpt><trkpt lat="40.7214965" lon="14.8734567"><ele>366.0</ele><time>2026-04-12T06:37:05.973Z</time></trkpt><trkpt lat="40.7214712" lon="14.8733158"><ele>368.0</ele><time>2026-04-12T06:37:06.976Z</time></trkpt><trkpt lat="40.7214704" lon="14.8731519"><ele>370.0</ele><time>2026-04-12T06:37:07.978Z</time></trkpt><trkpt lat="40.7214796" lon="14.8729915"><ele>372.0</ele><time>2026-04-12T06:37:08.976Z</time></trkpt><trkpt lat="40.721471" lon="14.8728207"><ele>372.0</ele><time>2026-04-12T06:37:09.971Z</time></trkpt><trkpt lat="40.7214575" lon="14.8726456"><ele>372.0</ele><time>2026-04-12T06:37:10.967Z</time></trkpt><trkpt lat="40.721423" lon="14.8724717"><ele>372.0</ele><time>2026-04-12T06:37:11.982Z</time></trkpt><trkpt lat="40.7213929" lon="14.8723304"><ele>372.0</ele><time>2026-04-12T06:37:12.962Z</time></trkpt><trkpt lat="40.7213522" lon="14.8722234"><ele>374.0</ele><time>2026-04-12T06:37:13.968Z</time></trkpt><trkpt lat="40.7212836" lon="14.8721338"><ele>376.0</ele><time>2026-04-12T06:37:14.965Z</time></trkpt><trkpt lat="40.7212175" lon="14.8720238"><ele>378.0</ele><time>2026-04-12T06:37:15.966Z</time></trkpt><trkpt lat="40.7211642" lon="14.8719023"><ele>380.0</ele><time>2026-04-12T06:37:16.981Z</time></trkpt><trkpt lat="40.7211228" lon="14.8717583"><ele>382.0</ele><time>2026-04-12T06:37:17.961Z</time></trkpt><trkpt lat="40.7210812" lon="14.8716075"><ele>381.40000000000003</ele><time>2026-04-12T06:37:18.973Z</time></trkpt><trkpt lat="40.721055" lon="14.8714541"><ele>380.8</ele><time>2026-04-12T06:37:19.969Z</time></trkpt><trkpt lat="40.7210319" lon="14.8713086"><ele>380.2</ele><time>2026-04-12T06:37:20.968Z</time></trkpt><trkpt lat="40.7210123" lon="14.8711803"><ele>379.6</ele><time>2026-04-12T06:37:21.966Z</time></trkpt><trkpt lat="40.7210009" lon="14.8710848"><ele>379.0</ele><time>2026-04-12T06:37:22.972Z</time></trkpt><trkpt lat="40.7210196" lon="14.8710021"><ele>381.0</ele><time>2026-04-12T06:37:24.963Z</time></trkpt><trkpt lat="40.7210875" lon="14.8709825"><ele>383.0</ele><time>2026-04-12T06:37:26.977Z</time></trkpt><trkpt lat="40.7211643" lon="14.8710248"><ele>385.0</ele><time>2026-04-12T06:37:27.961Z</time></trkpt><trkpt lat="40.7212461" lon="14.8710968"><ele>387.0</ele><time>2026-04-12T06:37:28.963Z</time></trkpt><trkpt lat="40.7213333" lon="14.871186"><ele>389.0</ele><time>2026-04-12T06:37:29.981Z</time></trkpt><trkpt lat="40.7214351" lon="14.871229"><ele>389.0</ele><time>2026-04-12T06:37:30.973Z</time></trkpt><trkpt lat="40.721551" lon="14.8712338"><ele>389.0</ele><time>2026-04-12T06:37:31.963Z</time></trkpt><trkpt lat="40.7216715" lon="14.871217"><ele>389.0</ele><time>2026-04-12T06:37:32.973Z</time></trkpt><trkpt lat="40.7217958" lon="14.8711873"><ele>389.0</ele><time>2026-04-12T06:37:33.969Z</time></trkpt><trkpt lat="40.7219217" lon="14.8711916"><ele>392.0</ele><time>2026-04-12T06:37:34.966Z</time></trkpt><trkpt lat="40.7220378" lon="14.8712418"><ele>395.0</ele><time>2026-04-12T06:37:35.968Z</time></trkpt><trkpt lat="40.7221531" lon="14.8712805"><ele>398.0</ele><time>2026-04-12T06:37:36.962Z</time></trkpt><trkpt lat="40.7222694" lon="14.8713188"><ele>401.0</ele><time>2026-04-12T06:37:38.103Z</time></trkpt><trkpt lat="40.722451" lon="14.8713597"><ele>401.0</ele><time>2026-04-12T06:37:40.04Z</time></trkpt><trkpt lat="40.7225257" lon="14.8713668"><ele>401.0</ele><time>2026-04-12T06:37:40.971Z</time></trkpt><trkpt lat="40.7226561" lon="14.8713559"><ele>401.0</ele><time>2026-04-12T06:37:42.971Z</time></trkpt><trkpt lat="40.7227279" lon="14.8713095"><ele>401.0</ele><time>2026-04-12T06:37:43.965Z</time></trkpt><trkpt lat="40.7228058" lon="14.8712277"><ele>401.0</ele><time>2026-04-12T06:37:44.975Z</time></trkpt><trkpt lat="40.7228729" lon="14.871147"><ele>401.99999999999994</ele><time>2026-04-12T06:37:45.953Z</time></trkpt><trkpt lat="40.7229377" lon="14.871065"><ele>403.0</ele><time>2026-04-12T06:37:46.968Z</time></trkpt><trkpt lat="40.723003" lon="14.8709686"><ele>404.0</ele><time>2026-04-12T06:37:47.97Z</time></trkpt><trkpt lat="40.7230615" lon="14.8708747"><ele>405.0</ele><time>2026-04-12T06:37:48.973Z</time></trkpt><trkpt lat="40.7230923" lon="14.8707854"><ele>405.99999999999994</ele><time>2026-04-12T06:37:49.968Z</time></trkpt><trkpt lat="40.7230695" lon="14.870673"><ele>407.0</ele><time>2026-04-12T06:37:50.965Z</time></trkpt><trkpt lat="40.7230125" lon="14.8705455"><ele>407.6</ele><time>2026-04-12T06:37:51.952Z</time></trkpt><trkpt lat="40.7229511" lon="14.8704194"><ele>408.20000000000005</ele><time>2026-04-12T06:37:52.964Z</time></trkpt><trkpt lat="40.7228749" lon="14.870311"><ele>408.8</ele><time>2026-04-12T06:37:53.968Z</time></trkpt><trkpt lat="40.7227978" lon="14.8702141"><ele>409.4</ele><time>2026-04-12T06:37:54.967Z</time></trkpt><trkpt lat="40.7227248" lon="14.8701225"><ele>410.0</ele><time>2026-04-12T06:37:55.978Z</time></trkpt><trkpt lat="40.7226579" lon="14.8700257"><ele>411.2</ele><time>2026-04-12T06:37:56.971Z</time></trkpt><trkpt lat="40.7225944" lon="14.8699331"><ele>412.4</ele><time>2026-04-12T06:37:57.972Z</time></trkpt><trkpt lat="40.7225411" lon="14.8698599"><ele>413.6</ele><time>2026-04-12T06:37:58.973Z</time></trkpt><trkpt lat="40.7224669" lon="14.8697535"><ele>414.8</ele><time>2026-04-12T06:38:00.972Z</time></trkpt><trkpt lat="40.7224133" lon="14.8696746"><ele>416.0</ele><time>2026-04-12T06:38:03.951Z</time></trkpt><trkpt lat="40.7224739" lon="14.8697757"><ele>416.0</ele><time>2026-04-12T06:39:15.98Z</time></trkpt><trkpt lat="40.7225153" lon="14.8698437"><ele>416.0</ele><time>2026-04-12T06:39:16.977Z</time></trkpt><trkpt lat="40.7225538" lon="14.8699323"><ele>416.0</ele><time>2026-04-12T06:39:17.975Z</time></trkpt><trkpt lat="40.7225952" lon="14.8699977"><ele>416.0</ele><time>2026-04-12T06:39:18.971Z</time></trkpt><trkpt lat="40.722642" lon="14.8700669"><ele>416.0</ele><time>2026-04-12T06:39:19.976Z</time></trkpt><trkpt lat="40.7226951" lon="14.8701452"><ele>416.0</ele><time>2026-04-12T06:39:20.972Z</time></trkpt><trkpt lat="40.7227491" lon="14.8702316"><ele>416.0</ele><time>2026-04-12T06:39:22.046Z</time></trkpt><trkpt lat="40.7228073" lon="14.870315"><ele>416.3333333333333</ele><time>2026-04-12T06:39:22.967Z</time></trkpt><trkpt lat="40.7228657" lon="14.8703987"><ele>416.66666666666663</ele><time>2026-04-12T06:39:23.969Z</time></trkpt><trkpt lat="40.7229208" lon="14.8704706"><ele>417.0</ele><time>2026-04-12T06:39:24.966Z</time></trkpt><trkpt lat="40.7229693" lon="14.8705363"><ele>417.33333333333337</ele><time>2026-04-12T06:39:25.961Z</time></trkpt><trkpt lat="40.7230254" lon="14.8705975"><ele>417.6666666666667</ele><time>2026-04-12T06:39:26.963Z</time></trkpt><trkpt lat="40.7230972" lon="14.8706958"><ele>418.0</ele><time>2026-04-12T06:39:29.015Z</time></trkpt><trkpt lat="40.7231688" lon="14.870759"><ele>418.0</ele><time>2026-04-12T06:39:31.961Z</time></trkpt><trkpt lat="40.7232567" lon="14.8706873"><ele>418.0</ele><time>2026-04-12T06:39:34.036Z</time></trkpt><trkpt lat="40.7233201" lon="14.8705732"><ele>418.0</ele><time>2026-04-12T06:39:35.962Z</time></trkpt><trkpt lat="40.723416" lon="14.870547"><ele>418.0</ele><time>2026-04-12T06:39:37.973Z</time></trkpt><trkpt lat="40.723492" lon="14.8705859"><ele>418.0</ele><time>2026-04-12T06:39:38.97Z</time></trkpt><trkpt lat="40.7235851" lon="14.8706408"><ele>420.79999999999995</ele><time>2026-04-12T06:39:39.968Z</time></trkpt><trkpt lat="40.7236848" lon="14.8706963"><ele>423.6</ele><time>2026-04-12T06:39:40.976Z</time></trkpt><trkpt lat="40.7237963" lon="14.8707651"><ele>426.40000000000003</ele><time>2026-04-12T06:39:42.03Z</time></trkpt><trkpt lat="40.7238977" lon="14.8708228"><ele>429.20000000000005</ele><time>2026-04-12T06:39:42.985Z</time></trkpt><trkpt lat="40.7239664" lon="14.8708449"><ele>432.0</ele><time>2026-04-12T06:39:43.967Z</time></trkpt><trkpt lat="40.7240446" lon="14.8708678"><ele>432.0</ele><time>2026-04-12T06:39:44.967Z</time></trkpt><trkpt lat="40.7241404" lon="14.8708795"><ele>432.00000000000006</ele><time>2026-04-12T06:39:45.982Z</time></trkpt><trkpt lat="40.7242272" lon="14.8708845"><ele>432.00000000000006</ele><time>2026-04-12T06:39:46.975Z</time></trkpt><trkpt lat="40.7243381" lon="14.8708564"><ele>432.0</ele><time>2026-04-12T06:39:48.975Z</time></trkpt><trkpt lat="40.7244188" lon="14.8708565"><ele>432.0</ele><time>2026-04-12T06:39:49.958Z</time></trkpt><trkpt lat="40.7245236" lon="14.870871"><ele>432.25</ele><time>2026-04-12T06:39:50.976Z</time></trkpt><trkpt lat="40.7246342" lon="14.8709062"><ele>432.5</ele><time>2026-04-12T06:39:51.975Z</time></trkpt><trkpt lat="40.724746" lon="14.8709515"><ele>432.75</ele><time>2026-04-12T06:39:52.974Z</time></trkpt><trkpt lat="40.7248608" lon="14.8709896"><ele>433.0</ele><time>2026-04-12T06:39:53.983Z</time></trkpt><trkpt lat="40.7249758" lon="14.8710207"><ele>433.0</ele><time>2026-04-12T06:39:54.973Z</time></trkpt><trkpt lat="40.7250815" lon="14.8710383"><ele>432.99999999999994</ele><time>2026-04-12T06:39:55.974Z</time></trkpt><trkpt lat="40.7251803" lon="14.8710617"><ele>432.99999999999994</ele><time>2026-04-12T06:39:56.972Z</time></trkpt><trkpt lat="40.7252456" lon="14.8711002"><ele>433.0</ele><time>2026-04-12T06:39:57.97Z</time></trkpt><trkpt lat="40.7253021" lon="14.8711801"><ele>433.0</ele><time>2026-04-12T06:39:58.962Z</time></trkpt><trkpt lat="40.7253378" lon="14.8712884"><ele>438.2</ele><time>2026-04-12T06:39:59.971Z</time></trkpt><trkpt lat="40.7253786" lon="14.8714034"><ele>443.4</ele><time>2026-04-12T06:40:00.964Z</time></trkpt><trkpt lat="40.7254194" lon="14.8715181"><ele>448.59999999999997</ele><time>2026-04-12T06:40:01.972Z</time></trkpt><trkpt lat="40.7254638" lon="14.8716292"><ele>453.79999999999995</ele><time>2026-04-12T06:40:02.967Z</time></trkpt><trkpt lat="40.725517" lon="14.8717456"><ele>459.0</ele><time>2026-04-12T06:40:03.965Z</time></trkpt><trkpt lat="40.725576" lon="14.87187"><ele>460.0</ele><time>2026-04-12T06:40:04.977Z</time></trkpt><trkpt lat="40.7256185" lon="14.8719721"><ele>461.0</ele><time>2026-04-12T06:40:05.976Z</time></trkpt><trkpt lat="40.7256578" lon="14.8720655"><ele>462.0</ele><time>2026-04-12T06:40:06.973Z</time></trkpt><trkpt lat="40.7256789" lon="14.8721677"><ele>463.0</ele><time>2026-04-12T06:40:07.966Z</time></trkpt><trkpt lat="40.7256822" lon="14.8722796"><ele>464.0</ele><time>2026-04-12T06:40:08.968Z</time></trkpt><trkpt lat="40.7256973" lon="14.8724101"><ele>465.0</ele><time>2026-04-12T06:40:09.982Z</time></trkpt><trkpt lat="40.7257035" lon="14.8725389"><ele>465.75</ele><time>2026-04-12T06:40:10.976Z</time></trkpt><trkpt lat="40.725708" lon="14.8726828"><ele>466.5</ele><time>2026-04-12T06:40:11.969Z</time></trkpt><trkpt lat="40.7257125" lon="14.8728273"><ele>467.25</ele><time>2026-04-12T06:40:12.961Z</time></trkpt><trkpt lat="40.7257291" lon="14.8729826"><ele>468.0</ele><time>2026-04-12T06:40:13.974Z</time></trkpt><trkpt lat="40.7257553" lon="14.8731363"><ele>468.0</ele><time>2026-04-12T06:40:14.966Z</time></trkpt><trkpt lat="40.7257864" lon="14.8733006"><ele>468.0</ele><time>2026-04-12T06:40:15.972Z</time></trkpt><trkpt lat="40.7258093" lon="14.873477"><ele>468.0</ele><time>2026-04-12T06:40:16.975Z</time></trkpt><trkpt lat="40.7258296" lon="14.8736588"><ele>468.0</ele><time>2026-04-12T06:40:17.963Z</time></trkpt><trkpt lat="40.7258597" lon="14.8738438"><ele>466.75</ele><time>2026-04-12T06:40:18.969Z</time></trkpt><trkpt lat="40.7259013" lon="14.8740118"><ele>465.5</ele><time>2026-04-12T06:40:19.972Z</time></trkpt><trkpt lat="40.7259416" lon="14.8741618"><ele>464.25</ele><time>2026-04-12T06:40:20.974Z</time></trkpt><trkpt lat="40.7259916" lon="14.8743055"><ele>463.0</ele><time>2026-04-12T06:40:21.964Z</time></trkpt><trkpt lat="40.7260477" lon="14.8744384"><ele>465.59999999999997</ele><time>2026-04-12T06:40:22.964Z</time></trkpt><trkpt lat="40.7261151" lon="14.8745582"><ele>468.19999999999993</ele><time>2026-04-12T06:40:23.967Z</time></trkpt><trkpt lat="40.7261863" lon="14.8746525"><ele>470.8</ele><time>2026-04-12T06:40:24.954Z</time></trkpt><trkpt lat="40.7262642" lon="14.8747013"><ele>473.4</ele><time>2026-04-12T06:40:25.963Z</time></trkpt><trkpt lat="40.7263514" lon="14.8747097"><ele>476.0</ele><time>2026-04-12T06:40:26.966Z</time></trkpt><trkpt lat="40.7264395" lon="14.874708"><ele>475.99999999999994</ele><time>2026-04-12T06:40:27.966Z</time></trkpt><trkpt lat="40.7265246" lon="14.8746949"><ele>476.0</ele><time>2026-04-12T06:40:28.966Z</time></trkpt><trkpt lat="40.726616" lon="14.8746548"><ele>476.0</ele><time>2026-04-12T06:40:29.964Z</time></trkpt><trkpt lat="40.7266951" lon="14.8746012"><ele>476.0</ele><time>2026-04-12T06:40:30.964Z</time></trkpt><trkpt lat="40.7267775" lon="14.8745512"><ele>475.99999999999994</ele><time>2026-04-12T06:40:31.967Z</time></trkpt><trkpt lat="40.7268428" lon="14.8745089"><ele>476.0</ele><time>2026-04-12T06:40:32.974Z</time></trkpt><trkpt lat="40.7268026" lon="14.8744436"><ele>475.99999999999994</ele><time>2026-04-12T06:40:38.97Z</time></trkpt><trkpt lat="40.7267085" lon="14.874401"><ele>476.0</ele><time>2026-04-12T06:40:39.984Z</time></trkpt><trkpt lat="40.7266404" lon="14.8743344"><ele>476.0</ele><time>2026-04-12T06:40:40.967Z</time></trkpt><trkpt lat="40.726595" lon="14.8742566"><ele>476.0</ele><time>2026-04-12T06:40:41.969Z</time></trkpt><trkpt lat="40.7265572" lon="14.8741784"><ele>475.99999999999994</ele><time>2026-04-12T06:40:42.975Z</time></trkpt><trkpt lat="40.7265366" lon="14.8740586"><ele>476.0</ele><time>2026-04-12T06:40:44.978Z</time></trkpt><trkpt lat="40.7266043" lon="14.8740037"><ele>480.16666666666663</ele><time>2026-04-12T06:40:47.972Z</time></trkpt><trkpt lat="40.7266616" lon="14.8740395"><ele>484.3333333333333</ele><time>2026-04-12T06:40:49.95Z</time></trkpt><trkpt lat="40.726799" lon="14.8740727"><ele>488.5</ele><time>2026-04-12T06:40:51.983Z</time></trkpt><trkpt lat="40.7268745" lon="14.8740494"><ele>492.66666666666663</ele><time>2026-04-12T06:40:52.973Z</time></trkpt><trkpt lat="40.7269534" lon="14.8740282"><ele>496.8333333333333</ele><time>2026-04-12T06:40:53.985Z</time></trkpt><trkpt lat="40.7270263" lon="14.873988"><ele>501.0</ele><time>2026-04-12T06:40:54.977Z</time></trkpt><trkpt lat="40.7270998" lon="14.8739249"><ele>501.5</ele><time>2026-04-12T06:40:55.969Z</time></trkpt><trkpt lat="40.7271697" lon="14.8738518"><ele>502.0</ele><time>2026-04-12T06:40:56.974Z</time></trkpt><trkpt lat="40.7272542" lon="14.8737623"><ele>502.5</ele><time>2026-04-12T06:40:57.977Z</time></trkpt><trkpt lat="40.7273577" lon="14.8736507"><ele>503.0</ele><time>2026-04-12T06:40:58.976Z</time></trkpt><trkpt lat="40.7274679" lon="14.8735337"><ele>509.5</ele><time>2026-04-12T06:40:59.979Z</time></trkpt><trkpt lat="40.7275705" lon="14.8734079"><ele>516.0</ele><time>2026-04-12T06:41:00.98Z</time></trkpt><trkpt lat="40.7276814" lon="14.8732701"><ele>522.5</ele><time>2026-04-12T06:41:01.981Z</time></trkpt><trkpt lat="40.7277711" lon="14.8731455"><ele>529.0</ele><time>2026-04-12T06:41:02.966Z</time></trkpt><trkpt lat="40.7278646" lon="14.8730133"><ele>529.0</ele><time>2026-04-12T06:41:03.976Z</time></trkpt><trkpt lat="40.7279609" lon="14.8728824"><ele>529.0</ele><time>2026-04-12T06:41:04.979Z</time></trkpt><trkpt lat="40.7280509" lon="14.8727537"><ele>529.0</ele><time>2026-04-12T06:41:05.976Z</time></trkpt><trkpt lat="40.7281496" lon="14.8726198"><ele>529.0</ele><time>2026-04-12T06:41:06.985Z</time></trkpt><trkpt lat="40.7282428" lon="14.8725219"><ele>534.25</ele><time>2026-04-12T06:41:07.972Z</time></trkpt><trkpt lat="40.7283422" lon="14.8724075"><ele>539.5</ele><time>2026-04-12T06:41:08.977Z</time></trkpt><trkpt lat="40.7284394" lon="14.8722959"><ele>544.75</ele><time>2026-04-12T06:41:09.976Z</time></trkpt><trkpt lat="40.7285507" lon="14.8721791"><ele>550.0</ele><time>2026-04-12T06:41:10.98Z</time></trkpt><trkpt lat="40.7286666" lon="14.8720597"><ele>550.0</ele><time>2026-04-12T06:41:11.981Z</time></trkpt><trkpt lat="40.7287847" lon="14.8719399"><ele>550.0</ele><time>2026-04-12T06:41:12.979Z</time></trkpt><trkpt lat="40.7288946" lon="14.8718147"><ele>550.0</ele><time>2026-04-12T06:41:13.974Z</time></trkpt><trkpt lat="40.7290054" lon="14.8716971"><ele>550.0</ele><time>2026-04-12T06:41:14.982Z</time></trkpt><trkpt lat="40.7291058" lon="14.871591"><ele>553.5</ele><time>2026-04-12T06:41:15.981Z</time></trkpt><trkpt lat="40.7292053" lon="14.8714722"><ele>557.0</ele><time>2026-04-12T06:41:16.97Z</time></trkpt><trkpt lat="40.7293138" lon="14.8713455"><ele>560.5</ele><time>2026-04-12T06:41:17.975Z</time></trkpt><trkpt lat="40.7294289" lon="14.8712278"><ele>564.0</ele><time>2026-04-12T06:41:18.978Z</time></trkpt><trkpt lat="40.7295513" lon="14.8711252"><ele>566.0</ele><time>2026-04-12T06:41:19.971Z</time></trkpt><trkpt lat="40.7296795" lon="14.8710211"><ele>568.0</ele><time>2026-04-12T06:41:20.977Z</time></trkpt><trkpt lat="40.7298151" lon="14.8709363"><ele>570.0</ele><time>2026-04-12T06:41:21.975Z</time></trkpt><trkpt lat="40.729958" lon="14.8708614"><ele>575.25</ele><time>2026-04-12T06:41:22.969Z</time></trkpt><trkpt lat="40.7300908" lon="14.8707764"><ele>580.5</ele><time>2026-04-12T06:41:23.976Z</time></trkpt><trkpt lat="40.7302095" lon="14.8707036"><ele>585.75</ele><time>2026-04-12T06:41:24.975Z</time></trkpt><trkpt lat="40.7303176" lon="14.8706368"><ele>591.0</ele><time>2026-04-12T06:41:25.979Z</time></trkpt><trkpt lat="40.7304263" lon="14.8705714"><ele>591.8</ele><time>2026-04-12T06:41:26.979Z</time></trkpt><trkpt lat="40.7305383" lon="14.870519"><ele>592.6</ele><time>2026-04-12T06:41:27.988Z</time></trkpt><trkpt lat="40.7306331" lon="14.8704618"><ele>593.4</ele><time>2026-04-12T06:41:28.964Z</time></trkpt><trkpt lat="40.7307238" lon="14.8704071"><ele>594.2</ele><time>2026-04-12T06:41:29.979Z</time></trkpt><trkpt lat="40.7308178" lon="14.8703634"><ele>595.0</ele><time>2026-04-12T06:41:30.972Z</time></trkpt><trkpt lat="40.7309238" lon="14.8703109"><ele>595.0</ele><time>2026-04-12T06:41:32.045Z</time></trkpt><trkpt lat="40.7310248" lon="14.8702907"><ele>595.0</ele><time>2026-04-12T06:41:32.961Z</time></trkpt><trkpt lat="40.7311131" lon="14.8702819"><ele>595.0</ele><time>2026-04-12T06:41:33.965Z</time></trkpt><trkpt lat="40.7311863" lon="14.8702938"><ele>595.0</ele><time>2026-04-12T06:41:34.967Z</time></trkpt><trkpt lat="40.7312567" lon="14.8703194"><ele>595.0</ele><time>2026-04-12T06:41:36.965Z</time></trkpt><trkpt lat="40.7312514" lon="14.8704461"><ele>595.0</ele><time>2026-04-12T06:41:46.972Z</time></trkpt><trkpt lat="40.7312219" lon="14.8705563"><ele>600.8</ele><time>2026-04-12T06:41:48.964Z</time></trkpt><trkpt lat="40.731189" lon="14.8707414"><ele>606.6</ele><time>2026-04-12T06:41:50.971Z</time></trkpt><trkpt lat="40.7311616" lon="14.8708189"><ele>612.4</ele><time>2026-04-12T06:41:51.963Z</time></trkpt><trkpt lat="40.7311252" lon="14.8709205"><ele>618.2</ele><time>2026-04-12T06:41:52.969Z</time></trkpt><trkpt lat="40.7310837" lon="14.8710677"><ele>624.0</ele><time>2026-04-12T06:41:54.963Z</time></trkpt><trkpt lat="40.7310703" lon="14.8711567"><ele>625.0</ele><time>2026-04-12T06:41:55.974Z</time></trkpt><trkpt lat="40.731104" lon="14.8713133"><ele>626.0</ele><time>2026-04-12T06:41:57.966Z</time></trkpt><trkpt lat="40.7311644" lon="14.8717917"><ele>628.0</ele><time>2026-04-12T06:41:59.965Z</time></trkpt><trkpt lat="40.7312657" lon="14.8720827"><ele>630.0</ele><time>2026-04-12T06:42:00.974Z</time></trkpt><trkpt lat="40.7313296" lon="14.871963"><ele>632.0</ele><time>2026-04-12T06:42:01.972Z</time></trkpt><trkpt lat="40.7314068" lon="14.8717759"><ele>630.5</ele><time>2026-04-12T06:42:02.974Z</time></trkpt><trkpt lat="40.7314745" lon="14.8715941"><ele>629.0</ele><time>2026-04-12T06:42:03.967Z</time></trkpt><trkpt lat="40.7315324" lon="14.871448"><ele>627.5</ele><time>2026-04-12T06:42:04.967Z</time></trkpt><trkpt lat="40.731572" lon="14.8713515"><ele>626.0</ele><time>2026-04-12T06:42:05.969Z</time></trkpt><trkpt lat="40.7316794" lon="14.8712669"><ele>626.0</ele><time>2026-04-12T06:42:07.961Z</time></trkpt><trkpt lat="40.7317882" lon="14.8712667"><ele>626.0</ele><time>2026-04-12T06:42:08.961Z</time></trkpt><trkpt lat="40.7319001" lon="14.8712566"><ele>626.0</ele><time>2026-04-12T06:42:09.961Z</time></trkpt><trkpt lat="40.7320329" lon="14.8712332"><ele>626.0</ele><time>2026-04-12T06:42:10.96Z</time></trkpt><trkpt lat="40.7321658" lon="14.8712014"><ele>627.2</ele><time>2026-04-12T06:42:11.968Z</time></trkpt><trkpt lat="40.7322981" lon="14.871171"><ele>628.4000000000001</ele><time>2026-04-12T06:42:12.977Z</time></trkpt><trkpt lat="40.7323874" lon="14.8711432"><ele>629.6</ele><time>2026-04-12T06:42:13.969Z</time></trkpt><trkpt lat="40.732471" lon="14.8710884"><ele>630.8000000000001</ele><time>2026-04-12T06:42:14.974Z</time></trkpt><trkpt lat="40.7325614" lon="14.8710431"><ele>632.0</ele><time>2026-04-12T06:42:15.968Z</time></trkpt><trkpt lat="40.7326375" lon="14.8709952"><ele>632.0</ele><time>2026-04-12T06:42:16.971Z</time></trkpt><trkpt lat="40.7327027" lon="14.8709476"><ele>632.0</ele><time>2026-04-12T06:42:17.983Z</time></trkpt><trkpt lat="40.7327524" lon="14.8708632"><ele>632.0</ele><time>2026-04-12T06:42:18.973Z</time></trkpt><trkpt lat="40.7327969" lon="14.8707369"><ele>632.0</ele><time>2026-04-12T06:42:19.971Z</time></trkpt><trkpt lat="40.7328422" lon="14.8706159"><ele>632.0</ele><time>2026-04-12T06:42:20.98Z</time></trkpt><trkpt lat="40.732877" lon="14.8705311"><ele>632.0</ele><time>2026-04-12T06:42:21.979Z</time></trkpt><trkpt lat="40.732961" lon="14.8704273"><ele>631.0</ele><time>2026-04-12T06:42:24.962Z</time></trkpt><trkpt lat="40.7330274" lon="14.8703455"><ele>630.0</ele><time>2026-04-12T06:42:25.957Z</time></trkpt><trkpt lat="40.7330841" lon="14.8702498"><ele>629.0</ele><time>2026-04-12T06:42:26.967Z</time></trkpt><trkpt lat="40.7331692" lon="14.8701628"><ele>628.0</ele><time>2026-04-12T06:42:28.971Z</time></trkpt><trkpt lat="40.7332515" lon="14.8701654"><ele>627.0</ele><time>2026-04-12T06:42:30.957Z</time></trkpt><trkpt lat="40.7333856" lon="14.8701683"><ele>627.0</ele><time>2026-04-12T06:42:32.975Z</time></trkpt><trkpt lat="40.7334573" lon="14.8701351"><ele>627.0</ele><time>2026-04-12T06:42:33.972Z</time></trkpt><trkpt lat="40.7335532" lon="14.8700757"><ele>627.0</ele><time>2026-04-12T06:42:35.965Z</time></trkpt><trkpt lat="40.7336293" lon="14.8700707"><ele>627.0</ele><time>2026-04-12T06:42:36.965Z</time></trkpt><trkpt lat="40.7337367" lon="14.8700698"><ele>627.0</ele><time>2026-04-12T06:42:37.964Z</time></trkpt><trkpt lat="40.7338119" lon="14.8700774"><ele>627.0</ele><time>2026-04-12T06:42:38.966Z</time></trkpt><trkpt lat="40.7339126" lon="14.8701131"><ele>629.0</ele><time>2026-04-12T06:42:40.968Z</time></trkpt><trkpt lat="40.7339642" lon="14.8702182"><ele>631.0</ele><time>2026-04-12T06:42:42.97Z</time></trkpt><trkpt lat="40.7340277" lon="14.870374"><ele>633.0</ele><time>2026-04-12T06:42:44.995Z</time></trkpt><trkpt lat="40.7340542" lon="14.8704799"><ele>635.0</ele><time>2026-04-12T06:42:45.97Z</time></trkpt><trkpt lat="40.7341027" lon="14.8705622"><ele>637.0</ele><time>2026-04-12T06:42:46.969Z</time></trkpt><trkpt lat="40.7341569" lon="14.8706303"><ele>637.0</ele><time>2026-04-12T06:42:47.968Z</time></trkpt><trkpt lat="40.7342269" lon="14.8706927"><ele>637.0</ele><time>2026-04-12T06:42:48.971Z</time></trkpt><trkpt lat="40.7342917" lon="14.8707668"><ele>637.0</ele><time>2026-04-12T06:42:49.97Z</time></trkpt><trkpt lat="40.7343664" lon="14.8708507"><ele>637.0</ele><time>2026-04-12T06:42:50.971Z</time></trkpt><trkpt lat="40.7344479" lon="14.8708965"><ele>637.0</ele><time>2026-04-12T06:42:51.971Z</time></trkpt><trkpt lat="40.7345352" lon="14.8709201"><ele>637.0</ele><time>2026-04-12T06:42:52.969Z</time></trkpt><trkpt lat="40.7346262" lon="14.8709123"><ele>636.5</ele><time>2026-04-12T06:42:53.973Z</time></trkpt><trkpt lat="40.7347142" lon="14.8708865"><ele>636.0</ele><time>2026-04-12T06:42:54.971Z</time></trkpt><trkpt lat="40.7347949" lon="14.8708378"><ele>635.5</ele><time>2026-04-12T06:42:55.97Z</time></trkpt><trkpt lat="40.7348576" lon="14.8707718"><ele>635.0</ele><time>2026-04-12T06:42:56.97Z</time></trkpt><trkpt lat="40.734918" lon="14.8706823"><ele>634.5</ele><time>2026-04-12T06:42:57.979Z</time></trkpt><trkpt lat="40.734964" lon="14.8705775"><ele>634.0</ele><time>2026-04-12T06:42:58.977Z</time></trkpt><trkpt lat="40.7349944" lon="14.8704628"><ele>634.0</ele><time>2026-04-12T06:42:59.97Z</time></trkpt><trkpt lat="40.7350104" lon="14.8703541"><ele>634.0</ele><time>2026-04-12T06:43:00.969Z</time></trkpt><trkpt lat="40.7350427" lon="14.8702572"><ele>634.0</ele><time>2026-04-12T06:43:01.962Z</time></trkpt><trkpt lat="40.7350928" lon="14.8701735"><ele>634.0</ele><time>2026-04-12T06:43:02.971Z</time></trkpt><trkpt lat="40.7351273" lon="14.8700742"><ele>634.0</ele><time>2026-04-12T06:43:03.981Z</time></trkpt><trkpt lat="40.7351391" lon="14.8699443"><ele>634.0</ele><time>2026-04-12T06:43:04.96Z</time></trkpt><trkpt lat="40.7351456" lon="14.8698105"><ele>635.6</ele><time>2026-04-12T06:43:05.965Z</time></trkpt><trkpt lat="40.7351451" lon="14.8696913"><ele>637.2</ele><time>2026-04-12T06:43:06.967Z</time></trkpt><trkpt lat="40.735162" lon="14.8695977"><ele>638.8000000000001</ele><time>2026-04-12T06:43:07.966Z</time></trkpt><trkpt lat="40.7352367" lon="14.8694527"><ele>640.4</ele><time>2026-04-12T06:43:09.966Z</time></trkpt><trkpt lat="40.735309" lon="14.8693563"><ele>642.0</ele><time>2026-04-12T06:43:11.956Z</time></trkpt><trkpt lat="40.7354016" lon="14.8692756"><ele>642.0</ele><time>2026-04-12T06:43:13.961Z</time></trkpt><trkpt lat="40.735462" lon="14.869201"><ele>642.0</ele><time>2026-04-12T06:43:14.967Z</time></trkpt><trkpt lat="40.7355361" lon="14.8691017"><ele>642.0</ele><time>2026-04-12T06:43:15.966Z</time></trkpt><trkpt lat="40.7356101" lon="14.8690102"><ele>642.0</ele><time>2026-04-12T06:43:16.964Z</time></trkpt><trkpt lat="40.7356649" lon="14.8689672"><ele>642.0</ele><time>2026-04-12T06:43:18.968Z</time></trkpt><trkpt lat="40.7357359" lon="14.8690073"><ele>642.0</ele><time>2026-04-12T06:43:20.972Z</time></trkpt><trkpt lat="40.735808" lon="14.869025"><ele>642.0</ele><time>2026-04-12T06:43:21.976Z</time></trkpt><trkpt lat="40.7359403" lon="14.8690517"><ele>642.0</ele><time>2026-04-12T06:43:22.972Z</time></trkpt><trkpt lat="40.7360611" lon="14.8690554"><ele>642.0</ele><time>2026-04-12T06:43:23.968Z</time></trkpt><trkpt lat="40.7361844" lon="14.8690532"><ele>642.0</ele><time>2026-04-12T06:43:24.967Z</time></trkpt><trkpt lat="40.736274" lon="14.8690244"><ele>635.75</ele><time>2026-04-12T06:43:25.963Z</time></trkpt><trkpt lat="40.7363429" lon="14.8689361"><ele>629.5</ele><time>2026-04-12T06:43:26.97Z</time></trkpt><trkpt lat="40.7363872" lon="14.8687857"><ele>623.25</ele><time>2026-04-12T06:43:27.959Z</time></trkpt><trkpt lat="40.7364104" lon="14.8686183"><ele>617.0</ele><time>2026-04-12T06:43:28.969Z</time></trkpt><trkpt lat="40.7364198" lon="14.8684605"><ele>619.1666666666666</ele><time>2026-04-12T06:43:29.968Z</time></trkpt><trkpt lat="40.7364176" lon="14.8683384"><ele>621.3333333333333</ele><time>2026-04-12T06:43:30.96Z</time></trkpt><trkpt lat="40.7364041" lon="14.8682337"><ele>623.5</ele><time>2026-04-12T06:43:31.978Z</time></trkpt><trkpt lat="40.7363795" lon="14.8681327"><ele>625.6666666666666</ele><time>2026-04-12T06:43:32.97Z</time></trkpt><trkpt lat="40.7363606" lon="14.8680467"><ele>627.8333333333334</ele><time>2026-04-12T06:43:33.975Z</time></trkpt><trkpt lat="40.7363669" lon="14.8679324"><ele>630.0</ele><time>2026-04-12T06:43:35.966Z</time></trkpt><trkpt lat="40.7364535" lon="14.8678693"><ele>630.0</ele><time>2026-04-12T06:43:37.969Z</time></trkpt><trkpt lat="40.7365124" lon="14.8678038"><ele>630.0</ele><time>2026-04-12T06:43:38.962Z</time></trkpt><trkpt lat="40.7365951" lon="14.8676992"><ele>630.0</ele><time>2026-04-12T06:43:40.967Z</time></trkpt><trkpt lat="40.7366871" lon="14.8676201"><ele>630.0</ele><time>2026-04-12T06:43:42.965Z</time></trkpt><trkpt lat="40.7367628" lon="14.8675828"><ele>630.0</ele><time>2026-04-12T06:43:43.968Z</time></trkpt><trkpt lat="40.7368389" lon="14.8675392"><ele>633.4</ele><time>2026-04-12T06:43:44.971Z</time></trkpt><trkpt lat="40.7369065" lon="14.8674493"><ele>636.8</ele><time>2026-04-12T06:43:45.964Z</time></trkpt><trkpt lat="40.7369379" lon="14.8673252"><ele>640.2</ele><time>2026-04-12T06:43:46.957Z</time></trkpt><trkpt lat="40.7369279" lon="14.8671994"><ele>643.6</ele><time>2026-04-12T06:43:47.961Z</time></trkpt><trkpt lat="40.7369023" lon="14.8670919"><ele>647.0</ele><time>2026-04-12T06:43:48.959Z</time></trkpt><trkpt lat="40.736885" lon="14.8669916"><ele>643.4</ele><time>2026-04-12T06:43:49.965Z</time></trkpt><trkpt lat="40.7368967" lon="14.8668784"><ele>639.8000000000001</ele><time>2026-04-12T06:43:50.962Z</time></trkpt><trkpt lat="40.7369071" lon="14.866732"><ele>636.2</ele><time>2026-04-12T06:43:51.95Z</time></trkpt><trkpt lat="40.7369207" lon="14.8666245"><ele>632.6</ele><time>2026-04-12T06:43:52.973Z</time></trkpt><trkpt lat="40.7369837" lon="14.8665117"><ele>629.0</ele><time>2026-04-12T06:43:54.957Z</time></trkpt><trkpt lat="40.7371173" lon="14.8665175"><ele>629.0</ele><time>2026-04-12T06:43:56.967Z</time></trkpt><trkpt lat="40.7372186" lon="14.8665057"><ele>629.0</ele><time>2026-04-12T06:43:57.974Z</time></trkpt><trkpt lat="40.7373169" lon="14.8664905"><ele>629.0</ele><time>2026-04-12T06:43:58.969Z</time></trkpt><trkpt lat="40.7373953" lon="14.8664335"><ele>629.0</ele><time>2026-04-12T06:43:59.97Z</time></trkpt><trkpt lat="40.7374832" lon="14.8663299"><ele>629.0</ele><time>2026-04-12T06:44:00.97Z</time></trkpt><trkpt lat="40.7375834" lon="14.8662148"><ele>629.0</ele><time>2026-04-12T06:44:01.972Z</time></trkpt><trkpt lat="40.7376641" lon="14.8661222"><ele>629.0</ele><time>2026-04-12T06:44:02.963Z</time></trkpt><trkpt lat="40.737736" lon="14.8660343"><ele>629.0</ele><time>2026-04-12T06:44:03.96Z</time></trkpt><trkpt lat="40.7378299" lon="14.8659239"><ele>629.0</ele><time>2026-04-12T06:44:04.97Z</time></trkpt><trkpt lat="40.7379312" lon="14.8658325"><ele>629.4</ele><time>2026-04-12T06:44:05.974Z</time></trkpt><trkpt lat="40.7380167" lon="14.8657642"><ele>629.8</ele><time>2026-04-12T06:44:06.974Z</time></trkpt><trkpt lat="40.7380936" lon="14.8656756"><ele>630.2</ele><time>2026-04-12T06:44:07.962Z</time></trkpt><trkpt lat="40.7381607" lon="14.8655597"><ele>630.6</ele><time>2026-04-12T06:44:08.964Z</time></trkpt><trkpt lat="40.7381977" lon="14.8654483"><ele>631.0</ele><time>2026-04-12T06:44:09.966Z</time></trkpt><trkpt lat="40.7382319" lon="14.8653777"><ele>631.0</ele><time>2026-04-12T06:44:11.969Z</time></trkpt><trkpt lat="40.7383092" lon="14.8653616"><ele>631.0</ele><time>2026-04-12T06:44:13.959Z</time></trkpt><trkpt lat="40.7383989" lon="14.8653409"><ele>631.0</ele><time>2026-04-12T06:44:14.96Z</time></trkpt><trkpt lat="40.738467" lon="14.8652769"><ele>631.0</ele><time>2026-04-12T06:44:15.963Z</time></trkpt><trkpt lat="40.7385091" lon="14.8652009"><ele>631.0</ele><time>2026-04-12T06:44:16.96Z</time></trkpt><trkpt lat="40.7385177" lon="14.8650924"><ele>631.0</ele><time>2026-04-12T06:44:17.962Z</time></trkpt><trkpt lat="40.7385061" lon="14.864996"><ele>635.8333333333334</ele><time>2026-04-12T06:44:18.963Z</time></trkpt><trkpt lat="40.7385302" lon="14.8648707"><ele>640.6666666666667</ele><time>2026-04-12T06:44:20.969Z</time></trkpt><trkpt lat="40.7385558" lon="14.8647815"><ele>645.5</ele><time>2026-04-12T06:44:23.973Z</time></trkpt><trkpt lat="40.7386373" lon="14.8647698"><ele>650.3333333333334</ele><time>2026-04-12T06:44:25.967Z</time></trkpt><trkpt lat="40.7387164" lon="14.8647895"><ele>655.1666666666666</ele><time>2026-04-12T06:44:26.969Z</time></trkpt><trkpt lat="40.7387979" lon="14.8648148"><ele>660.0</ele><time>2026-04-12T06:44:27.968Z</time></trkpt><trkpt lat="40.7388965" lon="14.8648445"><ele>660.0</ele><time>2026-04-12T06:44:28.979Z</time></trkpt><trkpt lat="40.7390057" lon="14.8648939"><ele>660.0</ele><time>2026-04-12T06:44:29.961Z</time></trkpt><trkpt lat="40.7391274" lon="14.8649406"><ele>660.0</ele><time>2026-04-12T06:44:30.962Z</time></trkpt><trkpt lat="40.7392385" lon="14.8649532"><ele>660.0</ele><time>2026-04-12T06:44:31.969Z</time></trkpt><trkpt lat="40.7393364" lon="14.86493"><ele>666.0</ele><time>2026-04-12T06:44:32.953Z</time></trkpt><trkpt lat="40.7394085" lon="14.8649093"><ele>672.0</ele><time>2026-04-12T06:44:33.972Z</time></trkpt><trkpt lat="40.7394847" lon="14.8648846"><ele>678.0</ele><time>2026-04-12T06:44:34.961Z</time></trkpt><trkpt lat="40.7395314" lon="14.8648234"><ele>684.0</ele><time>2026-04-12T06:44:36.974Z</time></trkpt><trkpt lat="40.7394789" lon="14.8647329"><ele>690.0</ele><time>2026-04-12T06:44:39.965Z</time></trkpt><trkpt lat="40.7395643" lon="14.8647241"><ele>696.0</ele><time>2026-04-12T06:44:44.973Z</time></trkpt><trkpt lat="40.7396311" lon="14.8647475"><ele>696.0</ele><time>2026-04-12T06:44:45.96Z</time></trkpt><trkpt lat="40.7397275" lon="14.8647677"><ele>696.0</ele><time>2026-04-12T06:44:46.989Z</time></trkpt><trkpt lat="40.7398413" lon="14.8647717"><ele>696.0</ele><time>2026-04-12T06:44:47.962Z</time></trkpt><trkpt lat="40.7399374" lon="14.8647801"><ele>696.0</ele><time>2026-04-12T06:44:48.955Z</time></trkpt><trkpt lat="40.7400179" lon="14.8647598"><ele>696.0</ele><time>2026-04-12T06:44:49.972Z</time></trkpt><trkpt lat="40.7400887" lon="14.8647378"><ele>696.0</ele><time>2026-04-12T06:44:50.97Z</time></trkpt><trkpt lat="40.7401536" lon="14.8646968"><ele>696.0</ele><time>2026-04-12T06:44:51.969Z</time></trkpt><trkpt lat="40.7402196" lon="14.8646305"><ele>696.0</ele><time>2026-04-12T06:44:52.975Z</time></trkpt><trkpt lat="40.7402763" lon="14.8645486"><ele>696.0</ele><time>2026-04-12T06:44:53.953Z</time></trkpt><trkpt lat="40.740316" lon="14.8644574"><ele>696.0</ele><time>2026-04-12T06:44:54.974Z</time></trkpt><trkpt lat="40.7402989" lon="14.8643113"><ele>696.0</ele><time>2026-04-12T06:44:55.97Z</time></trkpt><trkpt lat="40.7402658" lon="14.8641829"><ele>695.5999999999999</ele><time>2026-04-12T06:44:56.968Z</time></trkpt><trkpt lat="40.7402501" lon="14.8640679"><ele>695.2</ele><time>2026-04-12T06:44:57.975Z</time></trkpt><trkpt lat="40.7402545" lon="14.8639819"><ele>694.8</ele><time>2026-04-12T06:44:58.97Z</time></trkpt><trkpt lat="40.74031" lon="14.8639018"><ele>694.4000000000001</ele><time>2026-04-12T06:45:00.963Z</time></trkpt><trkpt lat="40.7404431" lon="14.863884"><ele>694.0</ele><time>2026-04-12T06:45:02.96Z</time></trkpt><trkpt lat="40.7405396" lon="14.8638851"><ele>694.0</ele><time>2026-04-12T06:45:03.964Z</time></trkpt><trkpt lat="40.7406344" lon="14.8638775"><ele>694.0</ele><time>2026-04-12T06:45:04.97Z</time></trkpt><trkpt lat="40.740725" lon="14.8638668"><ele>694.0</ele><time>2026-04-12T06:45:05.977Z</time></trkpt><trkpt lat="40.7408287" lon="14.8638457"><ele>694.0</ele><time>2026-04-12T06:45:06.957Z</time></trkpt><trkpt lat="40.7409273" lon="14.8638141"><ele>694.0</ele><time>2026-04-12T06:45:07.975Z</time></trkpt><trkpt lat="40.7410189" lon="14.8637916"><ele>689.8000000000001</ele><time>2026-04-12T06:45:08.97Z</time></trkpt><trkpt lat="40.741105" lon="14.8637679"><ele>685.6</ele><time>2026-04-12T06:45:09.974Z</time></trkpt><trkpt lat="40.741181" lon="14.8637255"><ele>681.4</ele><time>2026-04-12T06:45:10.974Z</time></trkpt><trkpt lat="40.7412536" lon="14.8636431"><ele>677.2</ele><time>2026-04-12T06:45:11.972Z</time></trkpt><trkpt lat="40.7413342" lon="14.8635648"><ele>673.0</ele><time>2026-04-12T06:45:12.961Z</time></trkpt><trkpt lat="40.7414105" lon="14.8634628"><ele>673.6666666666667</ele><time>2026-04-12T06:45:13.974Z</time></trkpt><trkpt lat="40.741464" lon="14.8633603"><ele>674.3333333333334</ele><time>2026-04-12T06:45:14.967Z</time></trkpt><trkpt lat="40.7414886" lon="14.8632536"><ele>675.0</ele><time>2026-04-12T06:45:15.968Z</time></trkpt><trkpt lat="40.7414927" lon="14.8631547"><ele>675.6666666666666</ele><time>2026-04-12T06:45:16.97Z</time></trkpt><trkpt lat="40.7414811" lon="14.8630496"><ele>676.3333333333333</ele><time>2026-04-12T06:45:17.969Z</time></trkpt><trkpt lat="40.7414566" lon="14.8629569"><ele>677.0</ele><time>2026-04-12T06:45:18.967Z</time></trkpt><trkpt lat="40.7414332" lon="14.8628557"><ele>677.0</ele><time>2026-04-12T06:45:19.971Z</time></trkpt><trkpt lat="40.7414072" lon="14.8627787"><ele>677.0</ele><time>2026-04-12T06:45:20.959Z</time></trkpt><trkpt lat="40.7413562" lon="14.8627112"><ele>677.0</ele><time>2026-04-12T06:45:21.964Z</time></trkpt><trkpt lat="40.7412905" lon="14.862663"><ele>677.0</ele><time>2026-04-12T06:45:22.962Z</time></trkpt><trkpt lat="40.7412215" lon="14.8626309"><ele>677.0</ele><time>2026-04-12T06:45:23.966Z</time></trkpt><trkpt lat="40.7411352" lon="14.8625746"><ele>677.0</ele><time>2026-04-12T06:45:25.975Z</time></trkpt><trkpt lat="40.7412513" lon="14.8625766"><ele>676.5</ele><time>2026-04-12T06:45:29.963Z</time></trkpt><trkpt lat="40.7413875" lon="14.862539"><ele>676.0</ele><time>2026-04-12T06:45:30.971Z</time></trkpt><trkpt lat="40.7415134" lon="14.8624631"><ele>675.5</ele><time>2026-04-12T06:45:31.973Z</time></trkpt><trkpt lat="40.7416176" lon="14.8623986"><ele>675.0</ele><time>2026-04-12T06:45:32.962Z</time></trkpt><trkpt lat="40.7417062" lon="14.8622983"><ele>675.0</ele><time>2026-04-12T06:45:33.973Z</time></trkpt><trkpt lat="40.7417654" lon="14.8621717"><ele>675.0</ele><time>2026-04-12T06:45:34.969Z</time></trkpt><trkpt lat="40.7417926" lon="14.8620452"><ele>675.0</ele><time>2026-04-12T06:45:35.967Z</time></trkpt><trkpt lat="40.7418388" lon="14.8619316"><ele>675.0</ele><time>2026-04-12T06:45:36.974Z</time></trkpt><trkpt lat="40.741887" lon="14.8618277"><ele>675.0</ele><time>2026-04-12T06:45:37.964Z</time></trkpt><trkpt lat="40.7419174" lon="14.8617263"><ele>677.1666666666666</ele><time>2026-04-12T06:45:38.968Z</time></trkpt><trkpt lat="40.7419182" lon="14.8616265"><ele>679.3333333333334</ele><time>2026-04-12T06:45:39.959Z</time></trkpt><trkpt lat="40.741913" lon="14.8615064"><ele>681.5</ele><time>2026-04-12T06:45:40.963Z</time></trkpt><trkpt lat="40.7418959" lon="14.8614062"><ele>683.6666666666667</ele><time>2026-04-12T06:45:41.964Z</time></trkpt><trkpt lat="40.7418779" lon="14.8613038"><ele>685.8333333333334</ele><time>2026-04-12T06:45:42.962Z</time></trkpt><trkpt lat="40.7418596" lon="14.8612003"><ele>688.0</ele><time>2026-04-12T06:45:43.973Z</time></trkpt><trkpt lat="40.7418302" lon="14.8611006"><ele>688.0</ele><time>2026-04-12T06:45:44.972Z</time></trkpt><trkpt lat="40.7417865" lon="14.8609827"><ele>688.0</ele><time>2026-04-12T06:45:45.967Z</time></trkpt><trkpt lat="40.7417341" lon="14.8608581"><ele>688.0</ele><time>2026-04-12T06:45:46.965Z</time></trkpt><trkpt lat="40.7416943" lon="14.8607491"><ele>688.0</ele><time>2026-04-12T06:45:47.971Z</time></trkpt><trkpt lat="40.7416579" lon="14.8605996"><ele>688.0</ele><time>2026-04-12T06:45:49.972Z</time></trkpt><trkpt lat="40.7417047" lon="14.8605073"><ele>689.75</ele><time>2026-04-12T06:45:51.963Z</time></trkpt><trkpt lat="40.7418281" lon="14.8605233"><ele>691.5</ele><time>2026-04-12T06:45:53.967Z</time></trkpt><trkpt lat="40.7419091" lon="14.8605624"><ele>693.25</ele><time>2026-04-12T06:45:55.038Z</time></trkpt><trkpt lat="40.7420263" lon="14.8606063"><ele>695.0</ele><time>2026-04-12T06:45:55.965Z</time></trkpt><trkpt lat="40.7421418" lon="14.8606465"><ele>692.1666666666666</ele><time>2026-04-12T06:45:56.97Z</time></trkpt><trkpt lat="40.7422467" lon="14.860705"><ele>689.3333333333333</ele><time>2026-04-12T06:45:57.951Z</time></trkpt><trkpt lat="40.7423375" lon="14.8607643"><ele>686.5</ele><time>2026-04-12T06:45:58.973Z</time></trkpt><trkpt lat="40.7423997" lon="14.8608295"><ele>683.6666666666666</ele><time>2026-04-12T06:45:59.969Z</time></trkpt><trkpt lat="40.7424545" lon="14.8608899"><ele>680.8333333333334</ele><time>2026-04-12T06:46:00.974Z</time></trkpt><trkpt lat="40.742504" lon="14.860951"><ele>678.0</ele><time>2026-04-12T06:46:01.968Z</time></trkpt><trkpt lat="40.7425683" lon="14.8610093"><ele>674.0</ele><time>2026-04-12T06:46:02.964Z</time></trkpt><trkpt lat="40.7426549" lon="14.8610754"><ele>670.0</ele><time>2026-04-12T06:46:03.986Z</time></trkpt><trkpt lat="40.742736" lon="14.8611376"><ele>666.0</ele><time>2026-04-12T06:46:04.966Z</time></trkpt><trkpt lat="40.7428156" lon="14.8611811"><ele>662.0</ele><time>2026-04-12T06:46:05.965Z</time></trkpt><trkpt lat="40.7429112" lon="14.8611887"><ele>658.0</ele><time>2026-04-12T06:46:06.963Z</time></trkpt><trkpt lat="40.7430174" lon="14.8611303"><ele>657.3333333333334</ele><time>2026-04-12T06:46:08.975Z</time></trkpt><trkpt lat="40.7430423" lon="14.8610495"><ele>656.6666666666667</ele><time>2026-04-12T06:46:09.97Z</time></trkpt><trkpt lat="40.7430712" lon="14.8609681"><ele>656.0</ele><time>2026-04-12T06:46:10.971Z</time></trkpt><trkpt lat="40.7430999" lon="14.8608867"><ele>655.3333333333334</ele><time>2026-04-12T06:46:12.035Z</time></trkpt><trkpt lat="40.7431345" lon="14.8607948"><ele>654.6666666666666</ele><time>2026-04-12T06:46:13.026Z</time></trkpt><trkpt lat="40.7431654" lon="14.8606802"><ele>654.0</ele><time>2026-04-12T06:46:14.04Z</time></trkpt><trkpt lat="40.743191" lon="14.8605413"><ele>657.0</ele><time>2026-04-12T06:46:14.966Z</time></trkpt><trkpt lat="40.7432415" lon="14.8604247"><ele>660.0</ele><time>2026-04-12T06:46:15.963Z</time></trkpt><trkpt lat="40.743274" lon="14.8603225"><ele>663.0</ele><time>2026-04-12T06:46:16.965Z</time></trkpt><trkpt lat="40.7433054" lon="14.8602302"><ele>666.0</ele><time>2026-04-12T06:46:17.972Z</time></trkpt><trkpt lat="40.7433289" lon="14.8601442"><ele>669.0</ele><time>2026-04-12T06:46:18.965Z</time></trkpt><trkpt lat="40.7433286" lon="14.8600559"><ele>672.0</ele><time>2026-04-12T06:46:19.965Z</time></trkpt><trkpt lat="40.7432682" lon="14.8599141"><ele>673.0</ele><time>2026-04-12T06:46:21.973Z</time></trkpt><trkpt lat="40.743233" lon="14.8598409"><ele>674.0</ele><time>2026-04-12T06:46:22.995Z</time></trkpt><trkpt lat="40.743189" lon="14.8597548"><ele>675.0</ele><time>2026-04-12T06:46:23.953Z</time></trkpt><trkpt lat="40.7431479" lon="14.8596618"><ele>676.0</ele><time>2026-04-12T06:46:24.981Z</time></trkpt><trkpt lat="40.7431194" lon="14.8595827"><ele>677.0</ele><time>2026-04-12T06:46:25.968Z</time></trkpt><trkpt lat="40.743091" lon="14.8594944"><ele>678.0</ele><time>2026-04-12T06:46:27.97Z</time></trkpt><trkpt lat="40.7429805" lon="14.8593868"><ele>678.0</ele><time>2026-04-12T06:46:29.967Z</time></trkpt><trkpt lat="40.7429186" lon="14.859325"><ele>678.0</ele><time>2026-04-12T06:46:30.968Z</time></trkpt><trkpt lat="40.7428609" lon="14.8592645"><ele>678.0</ele><time>2026-04-12T06:46:31.966Z</time></trkpt><trkpt lat="40.7428155" lon="14.8591893"><ele>678.0</ele><time>2026-04-12T06:46:32.963Z</time></trkpt><trkpt lat="40.7427779" lon="14.8591079"><ele>678.0</ele><time>2026-04-12T06:46:33.95Z</time></trkpt><trkpt lat="40.742743" lon="14.8590333"><ele>678.0</ele><time>2026-04-12T06:46:34.958Z</time></trkpt><trkpt lat="40.7427036" lon="14.8589569"><ele>678.0</ele><time>2026-04-12T06:46:35.965Z</time></trkpt><trkpt lat="40.7426494" lon="14.8588956"><ele>683.5</ele><time>2026-04-12T06:46:36.955Z</time></trkpt><trkpt lat="40.7425875" lon="14.8588376"><ele>689.0</ele><time>2026-04-12T06:46:37.941Z</time></trkpt><trkpt lat="40.7425327" lon="14.8587716"><ele>694.5</ele><time>2026-04-12T06:46:38.942Z</time></trkpt><trkpt lat="40.742492" lon="14.8586821"><ele>700.0</ele><time>2026-04-12T06:46:39.961Z</time></trkpt><trkpt lat="40.7424482" lon="14.8585739"><ele>705.5</ele><time>2026-04-12T06:46:40.947Z</time></trkpt><trkpt lat="40.7423997" lon="14.8584682"><ele>711.0</ele><time>2026-04-12T06:46:41.961Z</time></trkpt><trkpt lat="40.7423701" lon="14.8583651"><ele>711.0</ele><time>2026-04-12T06:46:42.964Z</time></trkpt><trkpt lat="40.7423619" lon="14.8582752"><ele>711.0</ele><time>2026-04-12T06:46:43.973Z</time></trkpt><trkpt lat="40.7423449" lon="14.8581862"><ele>711.0</ele><time>2026-04-12T06:46:45.964Z</time></trkpt><trkpt lat="40.7424368" lon="14.8581393"><ele>711.0</ele><time>2026-04-12T06:46:47.968Z</time></trkpt><trkpt lat="40.7425017" lon="14.8581128"><ele>711.0</ele><time>2026-04-12T06:46:48.951Z</time></trkpt><trkpt lat="40.742587" lon="14.8581015"><ele>711.0</ele><time>2026-04-12T06:46:49.962Z</time></trkpt><trkpt lat="40.7426732" lon="14.8581053"><ele>704.4</ele><time>2026-04-12T06:46:50.967Z</time></trkpt><trkpt lat="40.7427652" lon="14.8581108"><ele>697.8</ele><time>2026-04-12T06:46:51.969Z</time></trkpt><trkpt lat="40.7428364" lon="14.8580882"><ele>691.1999999999999</ele><time>2026-04-12T06:46:52.968Z</time></trkpt><trkpt lat="40.7429351" lon="14.8579569"><ele>684.5999999999999</ele><time>2026-04-12T06:46:54.958Z</time></trkpt><trkpt lat="40.7429392" lon="14.8578118"><ele>678.0</ele><time>2026-04-12T06:46:56.96Z</time></trkpt><trkpt lat="40.7429217" lon="14.8576957"><ele>681.0</ele><time>2026-04-12T06:46:58.961Z</time></trkpt><trkpt lat="40.7429155" lon="14.8576104"><ele>684.0</ele><time>2026-04-12T06:47:02.968Z</time></trkpt><trkpt lat="40.7429679" lon="14.8575171"><ele>687.0</ele><time>2026-04-12T06:47:04.968Z</time></trkpt><trkpt lat="40.7430299" lon="14.8573516"><ele>690.0</ele><time>2026-04-12T06:47:06.961Z</time></trkpt><trkpt lat="40.7430709" lon="14.8572799"><ele>693.0</ele><time>2026-04-12T06:47:07.962Z</time></trkpt><trkpt lat="40.7431386" lon="14.8571761"><ele>693.0</ele><time>2026-04-12T06:47:09.96Z</time></trkpt><trkpt lat="40.743192" lon="14.8570332"><ele>693.0</ele><time>2026-04-12T06:47:11.95Z</time></trkpt><trkpt lat="40.7432112" lon="14.8569521"><ele>693.0</ele><time>2026-04-12T06:47:12.949Z</time></trkpt><trkpt lat="40.7432237" lon="14.8568706"><ele>693.0</ele><time>2026-04-12T06:47:13.946Z</time></trkpt><trkpt lat="40.7432873" lon="14.8567667"><ele>693.0</ele><time>2026-04-12T06:47:15.969Z</time></trkpt><trkpt lat="40.7433163" lon="14.8566667"><ele>693.0</ele><time>2026-04-12T06:47:16.951Z</time></trkpt><trkpt lat="40.7433433" lon="14.8565756"><ele>695.0</ele><time>2026-04-12T06:47:17.964Z</time></trkpt><trkpt lat="40.7433647" lon="14.8564685"><ele>697.0</ele><time>2026-04-12T06:47:18.956Z</time></trkpt><trkpt lat="40.7433787" lon="14.8563482"><ele>699.0</ele><time>2026-04-12T06:47:19.954Z</time></trkpt><trkpt lat="40.7433993" lon="14.8562199"><ele>701.0</ele><time>2026-04-12T06:47:20.952Z</time></trkpt><trkpt lat="40.7434226" lon="14.8561164"><ele>703.0</ele><time>2026-04-12T06:47:21.959Z</time></trkpt><trkpt lat="40.7434604" lon="14.8560439"><ele>705.0</ele><time>2026-04-12T06:47:22.958Z</time></trkpt><trkpt lat="40.7435769" lon="14.8560383"><ele>705.0</ele><time>2026-04-12T06:47:24.951Z</time></trkpt><trkpt lat="40.7436423" lon="14.8560837"><ele>705.0</ele><time>2026-04-12T06:47:25.96Z</time></trkpt><trkpt lat="40.7437088" lon="14.8561441"><ele>705.0</ele><time>2026-04-12T06:47:26.976Z</time></trkpt><trkpt lat="40.7437951" lon="14.8562385"><ele>705.0</ele><time>2026-04-12T06:47:27.976Z</time></trkpt><trkpt lat="40.7438724" lon="14.8563119"><ele>705.0</ele><time>2026-04-12T06:47:28.966Z</time></trkpt><trkpt lat="40.7439789" lon="14.8563593"><ele>705.0</ele><time>2026-04-12T06:47:30.966Z</time></trkpt><trkpt lat="40.744052" lon="14.8562974"><ele>705.0</ele><time>2026-04-12T06:47:32.974Z</time></trkpt><trkpt lat="40.7440939" lon="14.8562299"><ele>705.0</ele><time>2026-04-12T06:47:33.972Z</time></trkpt><trkpt lat="40.7441061" lon="14.8561405"><ele>705.0</ele><time>2026-04-12T06:47:34.977Z</time></trkpt><trkpt lat="40.7441071" lon="14.8560372"><ele>705.0</ele><time>2026-04-12T06:47:35.962Z</time></trkpt><trkpt lat="40.7440758" lon="14.855931"><ele>705.0</ele><time>2026-04-12T06:47:36.976Z</time></trkpt><trkpt lat="40.7440385" lon="14.8558279"><ele>707.1666666666666</ele><time>2026-04-12T06:47:37.974Z</time></trkpt><trkpt lat="40.7440092" lon="14.8557195"><ele>709.3333333333334</ele><time>2026-04-12T06:47:38.968Z</time></trkpt><trkpt lat="40.7439994" lon="14.8556041"><ele>711.5</ele><time>2026-04-12T06:47:39.967Z</time></trkpt><trkpt lat="40.7439958" lon="14.8554921"><ele>713.6666666666667</ele><time>2026-04-12T06:47:40.971Z</time></trkpt><trkpt lat="40.7439864" lon="14.8553814"><ele>715.8333333333334</ele><time>2026-04-12T06:47:41.97Z</time></trkpt><trkpt lat="40.7440101" lon="14.8552757"><ele>718.0</ele><time>2026-04-12T06:47:43.967Z</time></trkpt><trkpt lat="40.7440655" lon="14.8552335"><ele>718.0</ele><time>2026-04-12T06:47:44.97Z</time></trkpt><trkpt lat="40.7441631" lon="14.85516"><ele>718.0</ele><time>2026-04-12T06:47:45.974Z</time></trkpt><trkpt lat="40.7442616" lon="14.8550515"><ele>718.0</ele><time>2026-04-12T06:47:46.964Z</time></trkpt><trkpt lat="40.7443446" lon="14.8549163"><ele>718.0</ele><time>2026-04-12T06:47:47.963Z</time></trkpt><trkpt lat="40.7444265" lon="14.8548155"><ele>715.4</ele><time>2026-04-12T06:47:48.962Z</time></trkpt><trkpt lat="40.7445254" lon="14.8547544"><ele>712.8</ele><time>2026-04-12T06:47:49.965Z</time></trkpt><trkpt lat="40.7446245" lon="14.8546888"><ele>710.2</ele><time>2026-04-12T06:47:50.961Z</time></trkpt><trkpt lat="40.7447114" lon="14.8545877"><ele>707.6</ele><time>2026-04-12T06:47:52.025Z</time></trkpt><trkpt lat="40.7447556" lon="14.8545133"><ele>705.0</ele><time>2026-04-12T06:47:53.014Z</time></trkpt><trkpt lat="40.7448437" lon="14.8544913"><ele>705.0</ele><time>2026-04-12T06:47:55.033Z</time></trkpt><trkpt lat="40.7449733" lon="14.8545493"><ele>705.0</ele><time>2026-04-12T06:47:56.96Z</time></trkpt><trkpt lat="40.7450713" lon="14.8545641"><ele>705.0</ele><time>2026-04-12T06:47:57.957Z</time></trkpt><trkpt lat="40.7451475" lon="14.8545501"><ele>705.0</ele><time>2026-04-12T06:47:58.96Z</time></trkpt><trkpt lat="40.7452151" lon="14.8545103"><ele>705.0</ele><time>2026-04-12T06:47:59.963Z</time></trkpt><trkpt lat="40.7452681" lon="14.8544352"><ele>704.8</ele><time>2026-04-12T06:48:00.963Z</time></trkpt><trkpt lat="40.745307" lon="14.8543063"><ele>704.6</ele><time>2026-04-12T06:48:01.966Z</time></trkpt><trkpt lat="40.7453314" lon="14.8541834"><ele>704.4000000000001</ele><time>2026-04-12T06:48:02.965Z</time></trkpt><trkpt lat="40.7453891" lon="14.8540812"><ele>704.2</ele><time>2026-04-12T06:48:04.961Z</time></trkpt><trkpt lat="40.745526" lon="14.8540837"><ele>704.0</ele><time>2026-04-12T06:48:06.976Z</time></trkpt><trkpt lat="40.7456117" lon="14.8541"><ele>704.0</ele><time>2026-04-12T06:48:07.967Z</time></trkpt><trkpt lat="40.7456806" lon="14.8541689"><ele>704.0</ele><time>2026-04-12T06:48:08.994Z</time></trkpt><trkpt lat="40.7457673" lon="14.8542575"><ele>704.0</ele><time>2026-04-12T06:48:10.032Z</time></trkpt><trkpt lat="40.7458732" lon="14.854311"><ele>704.0</ele><time>2026-04-12T06:48:10.965Z</time></trkpt><trkpt lat="40.7459628" lon="14.854343"><ele>704.0</ele><time>2026-04-12T06:48:11.968Z</time></trkpt><trkpt lat="40.7460454" lon="14.8543843"><ele>705.8333333333333</ele><time>2026-04-12T06:48:12.953Z</time></trkpt><trkpt lat="40.7461361" lon="14.8543895"><ele>707.6666666666666</ele><time>2026-04-12T06:48:13.967Z</time></trkpt><trkpt lat="40.7462055" lon="14.8543661"><ele>709.5</ele><time>2026-04-12T06:48:14.964Z</time></trkpt><trkpt lat="40.746245" lon="14.8542898"><ele>711.3333333333334</ele><time>2026-04-12T06:48:15.972Z</time></trkpt><trkpt lat="40.7462711" lon="14.8541759"><ele>713.1666666666667</ele><time>2026-04-12T06:48:17.033Z</time></trkpt><trkpt lat="40.7462967" lon="14.8540652"><ele>715.0</ele><time>2026-04-12T06:48:17.946Z</time></trkpt><trkpt lat="40.7463457" lon="14.8539439"><ele>717.8</ele><time>2026-04-12T06:48:18.959Z</time></trkpt><trkpt lat="40.7464025" lon="14.8538166"><ele>720.6</ele><time>2026-04-12T06:48:20.028Z</time></trkpt><trkpt lat="40.7464575" lon="14.8536801"><ele>723.4000000000001</ele><time>2026-04-12T06:48:20.96Z</time></trkpt><trkpt lat="40.7464851" lon="14.8535609"><ele>726.2</ele><time>2026-04-12T06:48:21.963Z</time></trkpt><trkpt lat="40.7465425" lon="14.8534727"><ele>729.0</ele><time>2026-04-12T06:48:24.022Z</time></trkpt><trkpt lat="40.7466182" lon="14.8534944"><ele>729.0</ele><time>2026-04-12T06:48:25.021Z</time></trkpt><trkpt lat="40.7467259" lon="14.8534844"><ele>729.0</ele><time>2026-04-12T06:48:25.973Z</time></trkpt><trkpt lat="40.746845" lon="14.8534682"><ele>729.0</ele><time>2026-04-12T06:48:26.955Z</time></trkpt><trkpt lat="40.7469465" lon="14.8534426"><ele>729.0</ele><time>2026-04-12T06:48:27.96Z</time></trkpt><trkpt lat="40.7470076" lon="14.8533894"><ele>729.0</ele><time>2026-04-12T06:48:29.037Z</time></trkpt><trkpt lat="40.7470526" lon="14.853298"><ele>730.4000000000001</ele><time>2026-04-12T06:48:29.959Z</time></trkpt><trkpt lat="40.7470976" lon="14.8532335"><ele>731.8</ele><time>2026-04-12T06:48:30.96Z</time></trkpt><trkpt lat="40.7472047" lon="14.853252"><ele>733.2</ele><time>2026-04-12T06:48:32.954Z</time></trkpt><trkpt lat="40.7472918" lon="14.8532584"><ele>734.5999999999999</ele><time>2026-04-12T06:48:33.955Z</time></trkpt><trkpt lat="40.7474092" lon="14.8532853"><ele>736.0</ele><time>2026-04-12T06:48:34.955Z</time></trkpt><trkpt lat="40.7475258" lon="14.8532778"><ele>736.0</ele><time>2026-04-12T06:48:35.962Z</time></trkpt><trkpt lat="40.7476308" lon="14.8532746"><ele>736.0</ele><time>2026-04-12T06:48:36.949Z</time></trkpt><trkpt lat="40.7477361" lon="14.8532378"><ele>736.0</ele><time>2026-04-12T06:48:37.962Z</time></trkpt><trkpt lat="40.7478464" lon="14.8531726"><ele>736.0</ele><time>2026-04-12T06:48:38.947Z</time></trkpt><trkpt lat="40.7479388" lon="14.8530905"><ele>736.0</ele><time>2026-04-12T06:48:40.033Z</time></trkpt><trkpt lat="40.7480163" lon="14.8530272"><ele>734.1666666666667</ele><time>2026-04-12T06:48:40.979Z</time></trkpt><trkpt lat="40.7480822" lon="14.8529627"><ele>732.3333333333334</ele><time>2026-04-12T06:48:41.975Z</time></trkpt><trkpt lat="40.7481366" lon="14.8528851"><ele>730.5</ele><time>2026-04-12T06:48:42.972Z</time></trkpt><trkpt lat="40.7481518" lon="14.8527801"><ele>728.6666666666666</ele><time>2026-04-12T06:48:43.975Z</time></trkpt><trkpt lat="40.7481581" lon="14.8526644"><ele>726.8333333333333</ele><time>2026-04-12T06:48:44.98Z</time></trkpt><trkpt lat="40.7481628" lon="14.8525354"><ele>725.0</ele><time>2026-04-12T06:48:45.981Z</time></trkpt><trkpt lat="40.748159" lon="14.8524432"><ele>725.0</ele><time>2026-04-12T06:48:46.976Z</time></trkpt><trkpt lat="40.7481508" lon="14.8523504"><ele>725.0</ele><time>2026-04-12T06:48:48.985Z</time></trkpt><trkpt lat="40.7481683" lon="14.8524769"><ele>725.0</ele><time>2026-04-12T06:48:55.98Z</time></trkpt><trkpt lat="40.7481899" lon="14.8525732"><ele>725.0</ele><time>2026-04-12T06:48:56.979Z</time></trkpt><trkpt lat="40.7482272" lon="14.8526926"><ele>725.0</ele><time>2026-04-12T06:48:57.973Z</time></trkpt><trkpt lat="40.7482564" lon="14.8527874"><ele>725.0</ele><time>2026-04-12T06:48:59.025Z</time></trkpt><trkpt lat="40.7482874" lon="14.852892"><ele>723.1666666666666</ele><time>2026-04-12T06:49:00.046Z</time></trkpt><trkpt lat="40.7482971" lon="14.853007"><ele>721.3333333333333</ele><time>2026-04-12T06:49:00.984Z</time></trkpt><trkpt lat="40.7482825" lon="14.8531228"><ele>719.5</ele><time>2026-04-12T06:49:01.975Z</time></trkpt><trkpt lat="40.7482591" lon="14.8532468"><ele>717.6666666666666</ele><time>2026-04-12T06:49:02.984Z</time></trkpt><trkpt lat="40.7482269" lon="14.8533606"><ele>715.8333333333334</ele><time>2026-04-12T06:49:03.991Z</time></trkpt><trkpt lat="40.7481822" lon="14.8534513"><ele>714.0</ele><time>2026-04-12T06:49:04.986Z</time></trkpt><trkpt lat="40.7481214" lon="14.8535392"><ele>712.6666666666666</ele><time>2026-04-12T06:49:05.98Z</time></trkpt><trkpt lat="40.7480619" lon="14.8536202"><ele>711.3333333333334</ele><time>2026-04-12T06:49:06.974Z</time></trkpt><trkpt lat="40.7479961" lon="14.8537126"><ele>710.0</ele><time>2026-04-12T06:49:07.985Z</time></trkpt><trkpt lat="40.7479313" lon="14.8537969"><ele>708.6666666666667</ele><time>2026-04-12T06:49:09.05Z</time></trkpt><trkpt lat="40.7478777" lon="14.8538696"><ele>707.3333333333334</ele><time>2026-04-12T06:49:10.036Z</time></trkpt><trkpt lat="40.7477851" lon="14.8539142"><ele>706.0</ele><time>2026-04-12T06:49:12.058Z</time></trkpt><trkpt lat="40.7476718" lon="14.8539264"><ele>706.0</ele><time>2026-04-12T06:49:14.051Z</time></trkpt><trkpt lat="40.7476047" lon="14.8539241"><ele>706.0</ele><time>2026-04-12T06:49:15.03Z</time></trkpt><trkpt lat="40.7475324" lon="14.8539046"><ele>706.0</ele><time>2026-04-12T06:49:15.963Z</time></trkpt><trkpt lat="40.747465" lon="14.8538968"><ele>706.0</ele><time>2026-04-12T06:49:16.96Z</time></trkpt><trkpt lat="40.7473707" lon="14.8539526"><ele>706.0</ele><time>2026-04-12T06:49:19.048Z</time></trkpt><trkpt lat="40.7473283" lon="14.8540263"><ele>706.0</ele><time>2026-04-12T06:49:20.038Z</time></trkpt><trkpt lat="40.7472758" lon="14.8541055"><ele>706.0</ele><time>2026-04-12T06:49:20.945Z</time></trkpt><trkpt lat="40.7472385" lon="14.8541848"><ele>706.0</ele><time>2026-04-12T06:49:21.96Z</time></trkpt><trkpt lat="40.7472255" lon="14.854268"><ele>706.0</ele><time>2026-04-12T06:49:24.04Z</time></trkpt><trkpt lat="40.7472943" lon="14.85434"><ele>706.0</ele><time>2026-04-12T06:49:25.951Z</time></trkpt><trkpt lat="40.747361" lon="14.854412"><ele>706.0</ele><time>2026-04-12T06:49:26.948Z</time></trkpt><trkpt lat="40.7474358" lon="14.8544973"><ele>706.0</ele><time>2026-04-12T06:49:28.033Z</time></trkpt><trkpt lat="40.7474999" lon="14.8546045"><ele>704.5999999999999</ele><time>2026-04-12T06:49:29.042Z</time></trkpt><trkpt lat="40.7475517" lon="14.8547211"><ele>703.2</ele><time>2026-04-12T06:49:30.018Z</time></trkpt><trkpt lat="40.7475975" lon="14.8548354"><ele>701.8</ele><time>2026-04-12T06:49:30.959Z</time></trkpt><trkpt lat="40.7476445" lon="14.8549551"><ele>700.4000000000001</ele><time>2026-04-12T06:49:31.959Z</time></trkpt><trkpt lat="40.7476959" lon="14.855085"><ele>699.0</ele><time>2026-04-12T06:49:32.969Z</time></trkpt><trkpt lat="40.7477458" lon="14.8552073"><ele>694.4000000000001</ele><time>2026-04-12T06:49:33.959Z</time></trkpt><trkpt lat="40.7477795" lon="14.8553269"><ele>689.8</ele><time>2026-04-12T06:49:34.959Z</time></trkpt><trkpt lat="40.7477995" lon="14.8554267"><ele>685.2</ele><time>2026-04-12T06:49:35.955Z</time></trkpt><trkpt lat="40.7477972" lon="14.8555893"><ele>680.5999999999999</ele><time>2026-04-12T06:49:37.995Z</time></trkpt><trkpt lat="40.7477813" lon="14.8556702"><ele>676.0</ele><time>2026-04-12T06:49:38.967Z</time></trkpt><trkpt lat="40.7477269" lon="14.8558107"><ele>676.0</ele><time>2026-04-12T06:49:40.968Z</time></trkpt><trkpt lat="40.7477121" lon="14.8559036"><ele>676.0</ele><time>2026-04-12T06:49:41.964Z</time></trkpt><trkpt lat="40.7477023" lon="14.8560005"><ele>676.0</ele><time>2026-04-12T06:49:42.96Z</time></trkpt><trkpt lat="40.7476849" lon="14.8560958"><ele>676.0</ele><time>2026-04-12T06:49:43.969Z</time></trkpt><trkpt lat="40.7476728" lon="14.8561922"><ele>676.0</ele><time>2026-04-12T06:49:45.042Z</time></trkpt><trkpt lat="40.7476646" lon="14.8562932"><ele>676.0</ele><time>2026-04-12T06:49:45.955Z</time></trkpt><trkpt lat="40.7476598" lon="14.8563765"><ele>676.0</ele><time>2026-04-12T06:49:46.971Z</time></trkpt><trkpt lat="40.7476628" lon="14.8564625"><ele>676.1666666666667</ele><time>2026-04-12T06:49:47.97Z</time></trkpt><trkpt lat="40.7476603" lon="14.8565712"><ele>676.3333333333334</ele><time>2026-04-12T06:49:48.959Z</time></trkpt><trkpt lat="40.7476508" lon="14.8566865"><ele>676.5</ele><time>2026-04-12T06:49:49.959Z</time></trkpt><trkpt lat="40.7476433" lon="14.856783"><ele>676.6666666666666</ele><time>2026-04-12T06:49:50.949Z</time></trkpt><trkpt lat="40.7476485" lon="14.8568974"><ele>676.8333333333333</ele><time>2026-04-12T06:49:52.034Z</time></trkpt><trkpt lat="40.7476348" lon="14.8569993"><ele>677.0</ele><time>2026-04-12T06:49:53.028Z</time></trkpt><trkpt lat="40.747604" lon="14.8571146"><ele>672.4000000000001</ele><time>2026-04-12T06:49:54.957Z</time></trkpt><trkpt lat="40.747706" lon="14.8572151"><ele>667.8000000000001</ele><time>2026-04-12T06:49:57.96Z</time></trkpt><trkpt lat="40.7477828" lon="14.8572625"><ele>663.2</ele><time>2026-04-12T06:49:59.041Z</time></trkpt><trkpt lat="40.7478596" lon="14.857306"><ele>658.6</ele><time>2026-04-12T06:50:00.021Z</time></trkpt><trkpt lat="40.7479473" lon="14.8573547"><ele>654.0</ele><time>2026-04-12T06:50:00.956Z</time></trkpt><trkpt lat="40.7480408" lon="14.8574106"><ele>654.0</ele><time>2026-04-12T06:50:01.956Z</time></trkpt><trkpt lat="40.7481276" lon="14.8574966"><ele>654.0</ele><time>2026-04-12T06:50:02.97Z</time></trkpt><trkpt lat="40.7482259" lon="14.8575933"><ele>654.0</ele><time>2026-04-12T06:50:04.029Z</time></trkpt><trkpt lat="40.7483165" lon="14.8576887"><ele>654.0</ele><time>2026-04-12T06:50:05.02Z</time></trkpt><trkpt lat="40.7484074" lon="14.8577637"><ele>651.5</ele><time>2026-04-12T06:50:05.959Z</time></trkpt><trkpt lat="40.7484894" lon="14.8578269"><ele>649.0</ele><time>2026-04-12T06:50:06.965Z</time></trkpt><trkpt lat="40.7485662" lon="14.8578776"><ele>646.5</ele><time>2026-04-12T06:50:08.076Z</time></trkpt><trkpt lat="40.7486301" lon="14.8579177"><ele>644.0</ele><time>2026-04-12T06:50:09.025Z</time></trkpt><trkpt lat="40.7486904" lon="14.8579723"><ele>641.5</ele><time>2026-04-12T06:50:10.03Z</time></trkpt><trkpt lat="40.7487619" lon="14.8580426"><ele>639.0</ele><time>2026-04-12T06:50:10.958Z</time></trkpt><trkpt lat="40.7488292" lon="14.8581119"><ele>638.6666666666666</ele><time>2026-04-12T06:50:11.964Z</time></trkpt><trkpt lat="40.748886" lon="14.858166"><ele>638.3333333333334</ele><time>2026-04-12T06:50:13.057Z</time></trkpt><trkpt lat="40.7489467" lon="14.858219"><ele>638.0</ele><time>2026-04-12T06:50:14.02Z</time></trkpt><trkpt lat="40.7490062" lon="14.8582541"><ele>637.6666666666667</ele><time>2026-04-12T06:50:15.022Z</time></trkpt><trkpt lat="40.7490685" lon="14.8583333"><ele>637.3333333333334</ele><time>2026-04-12T06:50:16.963Z</time></trkpt><trkpt lat="40.7490746" lon="14.8584211"><ele>637.0</ele><time>2026-04-12T06:50:17.962Z</time></trkpt><trkpt lat="40.7490681" lon="14.8585666"><ele>634.8333333333334</ele><time>2026-04-12T06:50:19.971Z</time></trkpt><trkpt lat="40.7490847" lon="14.8586663"><ele>632.6666666666667</ele><time>2026-04-12T06:50:21.971Z</time></trkpt><trkpt lat="40.7491183" lon="14.8587397"><ele>630.5</ele><time>2026-04-12T06:50:23.973Z</time></trkpt><trkpt lat="40.7491388" lon="14.858846"><ele>628.3333333333334</ele><time>2026-04-12T06:50:26.967Z</time></trkpt><trkpt lat="40.7491964" lon="14.8589486"><ele>626.1666666666666</ele><time>2026-04-12T06:50:29.031Z</time></trkpt><trkpt lat="40.7492415" lon="14.8590354"><ele>624.0</ele><time>2026-04-12T06:50:30.966Z</time></trkpt><trkpt lat="40.7492449" lon="14.8591416"><ele>624.0</ele><time>2026-04-12T06:50:32.97Z</time></trkpt><trkpt lat="40.7492088" lon="14.8592694"><ele>624.0</ele><time>2026-04-12T06:50:34.964Z</time></trkpt><trkpt lat="40.7491515" lon="14.8593884"><ele>624.0</ele><time>2026-04-12T06:50:36.959Z</time></trkpt><trkpt lat="40.7490849" lon="14.8594424"><ele>624.0</ele><time>2026-04-12T06:50:38.963Z</time></trkpt><trkpt lat="40.7489958" lon="14.8594736"><ele>624.0</ele><time>2026-04-12T06:50:40.961Z</time></trkpt><trkpt lat="40.7489253" lon="14.8594804"><ele>620.5</ele><time>2026-04-12T06:50:42.948Z</time></trkpt><trkpt lat="40.7489044" lon="14.8595621"><ele>617.0</ele><time>2026-04-12T06:50:44.986Z</time></trkpt><trkpt lat="40.7489982" lon="14.8596556"><ele>613.5</ele><time>2026-04-12T06:50:46.961Z</time></trkpt><trkpt lat="40.749062" lon="14.8597053"><ele>610.0</ele><time>2026-04-12T06:50:48.968Z</time></trkpt><trkpt lat="40.7491437" lon="14.8597179"><ele>606.5</ele><time>2026-04-12T06:50:51.963Z</time></trkpt><trkpt lat="40.749234" lon="14.8597156"><ele>603.0</ele><time>2026-04-12T06:50:53.956Z</time></trkpt><trkpt lat="40.7493009" lon="14.8597317"><ele>603.0</ele><time>2026-04-12T06:50:54.965Z</time></trkpt><trkpt lat="40.7493683" lon="14.8597383"><ele>603.0</ele><time>2026-04-12T06:50:55.962Z</time></trkpt><trkpt lat="40.7494714" lon="14.859721"><ele>603.0</ele><time>2026-04-12T06:50:58.012Z</time></trkpt><trkpt lat="40.7494439" lon="14.8598284"><ele>603.0</ele><time>2026-04-12T06:51:03.057Z</time></trkpt><trkpt lat="40.7493849" lon="14.8599291"><ele>603.0</ele><time>2026-04-12T06:51:04.972Z</time></trkpt><trkpt lat="40.7493103" lon="14.8600454"><ele>598.6</ele><time>2026-04-12T06:51:06.963Z</time></trkpt><trkpt lat="40.74923" lon="14.86017"><ele>594.1999999999999</ele><time>2026-04-12T06:51:08.961Z</time></trkpt><trkpt lat="40.7491435" lon="14.8602797"><ele>589.8</ele><time>2026-04-12T06:51:10.956Z</time></trkpt><trkpt lat="40.7490824" lon="14.8603232"><ele>585.4</ele><time>2026-04-12T06:51:11.963Z</time></trkpt><trkpt lat="40.7489808" lon="14.86039"><ele>581.0</ele><time>2026-04-12T06:51:13.959Z</time></trkpt><trkpt lat="40.7489278" lon="14.8604586"><ele>581.0</ele><time>2026-04-12T06:51:15.965Z</time></trkpt><trkpt lat="40.7490167" lon="14.8605241"><ele>581.0</ele><time>2026-04-12T06:51:18.973Z</time></trkpt><trkpt lat="40.7490979" lon="14.860547"><ele>581.0</ele><time>2026-04-12T06:51:19.959Z</time></trkpt><trkpt lat="40.7491756" lon="14.8605794"><ele>581.0</ele><time>2026-04-12T06:51:20.958Z</time></trkpt><trkpt lat="40.7492414" lon="14.8605837"><ele>581.0</ele><time>2026-04-12T06:51:21.962Z</time></trkpt><trkpt lat="40.749342" lon="14.8605949"><ele>581.0</ele><time>2026-04-12T06:51:24.032Z</time></trkpt><trkpt lat="40.7493435" lon="14.8606853"><ele>581.0</ele><time>2026-04-12T06:51:26.961Z</time></trkpt><trkpt lat="40.7492772" lon="14.8607481"><ele>581.0</ele><time>2026-04-12T06:51:28.962Z</time></trkpt><trkpt lat="40.7492301" lon="14.8608215"><ele>581.0</ele><time>2026-04-12T06:51:30.96Z</time></trkpt><trkpt lat="40.749208" lon="14.8609296"><ele>581.0</ele><time>2026-04-12T06:51:33.017Z</time></trkpt><trkpt lat="40.7491847" lon="14.861032"><ele>581.0</ele><time>2026-04-12T06:51:34.967Z</time></trkpt><trkpt lat="40.7492061" lon="14.8611368"><ele>581.0</ele><time>2026-04-12T06:51:36.963Z</time></trkpt><trkpt lat="40.7492379" lon="14.8612406"><ele>578.6666666666666</ele><time>2026-04-12T06:51:39.007Z</time></trkpt><trkpt lat="40.7492831" lon="14.8613202"><ele>576.3333333333333</ele><time>2026-04-12T06:51:40.97Z</time></trkpt><trkpt lat="40.7493099" lon="14.8614394"><ele>574.0</ele><time>2026-04-12T06:51:42.968Z</time></trkpt><trkpt lat="40.7493129" lon="14.8615625"><ele>571.6666666666666</ele><time>2026-04-12T06:51:44.959Z</time></trkpt><trkpt lat="40.7493045" lon="14.8616557"><ele>569.3333333333334</ele><time>2026-04-12T06:51:45.968Z</time></trkpt><trkpt lat="40.7492876" lon="14.8617409"><ele>567.0</ele><time>2026-04-12T06:51:46.968Z</time></trkpt><trkpt lat="40.7492581" lon="14.8618299"><ele>564.2857142857143</ele><time>2026-04-12T06:51:47.961Z</time></trkpt><trkpt lat="40.7492305" lon="14.8619136"><ele>561.5714285714286</ele><time>2026-04-12T06:51:48.954Z</time></trkpt><trkpt lat="40.7491974" lon="14.862003"><ele>558.8571428571429</ele><time>2026-04-12T06:51:49.96Z</time></trkpt><trkpt lat="40.7491475" lon="14.8620987"><ele>556.1428571428571</ele><time>2026-04-12T06:51:50.967Z</time></trkpt><trkpt lat="40.7490999" lon="14.8621806"><ele>553.4285714285714</ele><time>2026-04-12T06:51:51.963Z</time></trkpt><trkpt lat="40.7490675" lon="14.8622576"><ele>550.7142857142858</ele><time>2026-04-12T06:51:52.96Z</time></trkpt><trkpt lat="40.7490388" lon="14.8623436"><ele>548.0</ele><time>2026-04-12T06:51:54.01Z</time></trkpt><trkpt lat="40.7490277" lon="14.8624342"><ele>548.0</ele><time>2026-04-12T06:51:54.963Z</time></trkpt><trkpt lat="40.7490404" lon="14.8625243"><ele>548.0</ele><time>2026-04-12T06:51:56.97Z</time></trkpt><trkpt lat="40.7490522" lon="14.8624049"><ele>548.0</ele><time>2026-04-12T06:52:01.964Z</time></trkpt><trkpt lat="40.749074" lon="14.8623245"><ele>548.0</ele><time>2026-04-12T06:52:02.964Z</time></trkpt><trkpt lat="40.749123" lon="14.8622589"><ele>548.0</ele><time>2026-04-12T06:52:04.968Z</time></trkpt><trkpt lat="40.7491617" lon="14.8623454"><ele>548.0</ele><time>2026-04-12T06:52:09.965Z</time></trkpt><trkpt lat="40.7491676" lon="14.8625371"><ele>545.3333333333333</ele><time>2026-04-12T06:52:11.998Z</time></trkpt><trkpt lat="40.7491835" lon="14.8626742"><ele>542.6666666666666</ele><time>2026-04-12T06:52:12.958Z</time></trkpt><trkpt lat="40.7491874" lon="14.8627909"><ele>540.0</ele><time>2026-04-12T06:52:13.97Z</time></trkpt><trkpt lat="40.7491734" lon="14.8628934"><ele>537.3333333333334</ele><time>2026-04-12T06:52:14.957Z</time></trkpt><trkpt lat="40.7491492" lon="14.8629811"><ele>534.6666666666667</ele><time>2026-04-12T06:52:15.958Z</time></trkpt><trkpt lat="40.7491047" lon="14.8630468"><ele>532.0</ele><time>2026-04-12T06:52:16.957Z</time></trkpt><trkpt lat="40.7490083" lon="14.863129"><ele>532.0</ele><time>2026-04-12T06:52:18.963Z</time></trkpt><trkpt lat="40.7489441" lon="14.8631921"><ele>532.0</ele><time>2026-04-12T06:52:20.977Z</time></trkpt><trkpt lat="40.7490379" lon="14.8633024"><ele>532.0</ele><time>2026-04-12T06:52:23.96Z</time></trkpt><trkpt lat="40.7490989" lon="14.8633935"><ele>532.0</ele><time>2026-04-12T06:52:25.964Z</time></trkpt><trkpt lat="40.7491141" lon="14.863506"><ele>532.0</ele><time>2026-04-12T06:52:29.037Z</time></trkpt><trkpt lat="40.749063" lon="14.8635945"><ele>528.6</ele><time>2026-04-12T06:52:30.967Z</time></trkpt><trkpt lat="40.7489853" lon="14.8637088"><ele>525.2</ele><time>2026-04-12T06:52:32.99Z</time></trkpt><trkpt lat="40.7489482" lon="14.8637862"><ele>521.8</ele><time>2026-04-12T06:52:34.005Z</time></trkpt><trkpt lat="40.7489334" lon="14.8638855"><ele>518.4</ele><time>2026-04-12T06:52:34.962Z</time></trkpt><trkpt lat="40.7489585" lon="14.8640272"><ele>515.0</ele><time>2026-04-12T06:52:36.958Z</time></trkpt><trkpt lat="40.7490183" lon="14.8641177"><ele>515.0</ele><time>2026-04-12T06:52:38.96Z</time></trkpt><trkpt lat="40.7490186" lon="14.8642233"><ele>515.0</ele><time>2026-04-12T06:52:45.047Z</time></trkpt><trkpt lat="40.7489753" lon="14.864287"><ele>515.0</ele><time>2026-04-12T06:52:46.967Z</time></trkpt><trkpt lat="40.748908" lon="14.8643214"><ele>515.0</ele><time>2026-04-12T06:52:48.962Z</time></trkpt><trkpt lat="40.7488256" lon="14.8643675"><ele>515.0</ele><time>2026-04-12T06:52:50.961Z</time></trkpt><trkpt lat="40.7488471" lon="14.8644716"><ele>515.0</ele><time>2026-04-12T06:52:52.979Z</time></trkpt><trkpt lat="40.7489003" lon="14.8645344"><ele>512.5</ele><time>2026-04-12T06:52:55.965Z</time></trkpt><trkpt lat="40.7489798" lon="14.8645685"><ele>510.0</ele><time>2026-04-12T06:52:57.994Z</time></trkpt><trkpt lat="40.7490606" lon="14.8646059"><ele>507.5</ele><time>2026-04-12T06:52:59.963Z</time></trkpt><trkpt lat="40.7491656" lon="14.8646076"><ele>505.0</ele><time>2026-04-12T06:53:02.035Z</time></trkpt><trkpt lat="40.7492466" lon="14.8645907"><ele>502.49999999999994</ele><time>2026-04-12T06:53:03.965Z</time></trkpt><trkpt lat="40.7492453" lon="14.8647002"><ele>500.0</ele><time>2026-04-12T06:53:07.029Z</time></trkpt><trkpt lat="40.7492291" lon="14.8647962"><ele>500.0</ele><time>2026-04-12T06:53:08.964Z</time></trkpt><trkpt lat="40.749228" lon="14.8649036"><ele>500.0</ele><time>2026-04-12T06:53:10.957Z</time></trkpt><trkpt lat="40.7492352" lon="14.8650459"><ele>500.0</ele><time>2026-04-12T06:53:12.967Z</time></trkpt><trkpt lat="40.7492747" lon="14.8651424"><ele>500.0</ele><time>2026-04-12T06:53:14.994Z</time></trkpt><trkpt lat="40.7492937" lon="14.8652852"><ele>500.0</ele><time>2026-04-12T06:53:16.966Z</time></trkpt><trkpt lat="40.7493059" lon="14.8653797"><ele>498.2857142857143</ele><time>2026-04-12T06:53:17.959Z</time></trkpt><trkpt lat="40.7493192" lon="14.8654704"><ele>496.57142857142856</ele><time>2026-04-12T06:53:18.979Z</time></trkpt><trkpt lat="40.7493188" lon="14.8655689"><ele>494.85714285714283</ele><time>2026-04-12T06:53:19.969Z</time></trkpt><trkpt lat="40.7493087" lon="14.8656639"><ele>493.1428571428571</ele><time>2026-04-12T06:53:20.967Z</time></trkpt><trkpt lat="40.7492914" lon="14.8657682"><ele>491.42857142857144</ele><time>2026-04-12T06:53:21.964Z</time></trkpt><trkpt lat="40.7492729" lon="14.8658566"><ele>489.71428571428567</ele><time>2026-04-12T06:53:22.966Z</time></trkpt><trkpt lat="40.749256" lon="14.8659586"><ele>487.99999999999994</ele><time>2026-04-12T06:53:23.962Z</time></trkpt><trkpt lat="40.7492436" lon="14.8660957"><ele>486.2</ele><time>2026-04-12T06:53:24.957Z</time></trkpt><trkpt lat="40.7492314" lon="14.8662616"><ele>484.4</ele><time>2026-04-12T06:53:25.966Z</time></trkpt><trkpt lat="40.7492268" lon="14.8664145"><ele>482.59999999999997</ele><time>2026-04-12T06:53:26.969Z</time></trkpt><trkpt lat="40.7492211" lon="14.8665562"><ele>480.79999999999995</ele><time>2026-04-12T06:53:27.96Z</time></trkpt><trkpt lat="40.749215" lon="14.8666819"><ele>479.0</ele><time>2026-04-12T06:53:28.97Z</time></trkpt><trkpt lat="40.7492141" lon="14.8668007"><ele>477.79999999999995</ele><time>2026-04-12T06:53:29.963Z</time></trkpt><trkpt lat="40.7492177" lon="14.8669298"><ele>476.59999999999997</ele><time>2026-04-12T06:53:30.964Z</time></trkpt><trkpt lat="40.7492232" lon="14.8670634"><ele>475.4</ele><time>2026-04-12T06:53:31.96Z</time></trkpt><trkpt lat="40.7492275" lon="14.8672007"><ele>474.2</ele><time>2026-04-12T06:53:32.962Z</time></trkpt><trkpt lat="40.7492411" lon="14.8673256"><ele>473.0</ele><time>2026-04-12T06:53:33.961Z</time></trkpt><trkpt lat="40.7492616" lon="14.8674282"><ele>472.99999999999994</ele><time>2026-04-12T06:53:34.964Z</time></trkpt><trkpt lat="40.7492976" lon="14.8675202"><ele>473.0</ele><time>2026-04-12T06:53:36.971Z</time></trkpt><trkpt lat="40.7493099" lon="14.8674353"><ele>473.0</ele><time>2026-04-12T06:53:40.945Z</time></trkpt><trkpt lat="40.7493003" lon="14.8673443"><ele>473.0</ele><time>2026-04-12T06:53:41.965Z</time></trkpt><trkpt lat="40.7493033" lon="14.8671924"><ele>472.99999999999994</ele><time>2026-04-12T06:53:43.96Z</time></trkpt><trkpt lat="40.7493116" lon="14.8670376"><ele>473.0</ele><time>2026-04-12T06:53:45.959Z</time></trkpt><trkpt lat="40.7493234" lon="14.8669503"><ele>473.0</ele><time>2026-04-12T06:53:46.965Z</time></trkpt><trkpt lat="40.7493305" lon="14.8668592"><ele>472.99999999999994</ele><time>2026-04-12T06:53:47.956Z</time></trkpt><trkpt lat="40.7493375" lon="14.8667469"><ele>472.99999999999994</ele><time>2026-04-12T06:53:49.001Z</time></trkpt><trkpt lat="40.7493463" lon="14.866654"><ele>473.0</ele><time>2026-04-12T06:53:49.961Z</time></trkpt><trkpt lat="40.7493866" lon="14.8664852"><ele>473.0</ele><time>2026-04-12T06:53:51.956Z</time></trkpt><trkpt lat="40.7493995" lon="14.8663647"><ele>470.49999999999994</ele><time>2026-04-12T06:53:52.957Z</time></trkpt><trkpt lat="40.7494156" lon="14.8662551"><ele>468.0</ele><time>2026-04-12T06:53:53.965Z</time></trkpt><trkpt lat="40.7494298" lon="14.8661517"><ele>465.5</ele><time>2026-04-12T06:53:54.961Z</time></trkpt><trkpt lat="40.749448" lon="14.8660545"><ele>463.0</ele><time>2026-04-12T06:53:55.965Z</time></trkpt><trkpt lat="40.7494784" lon="14.8659503"><ele>460.49999999999994</ele><time>2026-04-12T06:53:56.966Z</time></trkpt><trkpt lat="40.74951" lon="14.865845"><ele>458.0</ele><time>2026-04-12T06:53:57.963Z</time></trkpt><trkpt lat="40.749535" lon="14.8657427"><ele>457.99999999999994</ele><time>2026-04-12T06:53:58.962Z</time></trkpt><trkpt lat="40.7495615" lon="14.865646"><ele>458.0</ele><time>2026-04-12T06:53:59.958Z</time></trkpt><trkpt lat="40.7495812" lon="14.865543"><ele>458.0</ele><time>2026-04-12T06:54:00.964Z</time></trkpt><trkpt lat="40.7495904" lon="14.8654315"><ele>458.0</ele><time>2026-04-12T06:54:01.959Z</time></trkpt><trkpt lat="40.749581" lon="14.8653231"><ele>457.99999999999994</ele><time>2026-04-12T06:54:02.959Z</time></trkpt><trkpt lat="40.7495698" lon="14.8652129"><ele>458.0</ele><time>2026-04-12T06:54:03.959Z</time></trkpt><trkpt lat="40.7495654" lon="14.8651063"><ele>459.3333333333333</ele><time>2026-04-12T06:54:04.959Z</time></trkpt><trkpt lat="40.7495894" lon="14.8650029"><ele>460.66666666666663</ele><time>2026-04-12T06:54:05.959Z</time></trkpt><trkpt lat="40.7496256" lon="14.8648989"><ele>462.0</ele><time>2026-04-12T06:54:06.967Z</time></trkpt><trkpt lat="40.7496624" lon="14.8647908"><ele>463.33333333333337</ele><time>2026-04-12T06:54:07.96Z</time></trkpt><trkpt lat="40.7496865" lon="14.8647062"><ele>464.6666666666667</ele><time>2026-04-12T06:54:08.968Z</time></trkpt><trkpt lat="40.7497317" lon="14.8645662"><ele>466.0</ele><time>2026-04-12T06:54:10.963Z</time></trkpt><trkpt lat="40.7497465" lon="14.8644667"><ele>466.00000000000006</ele><time>2026-04-12T06:54:11.96Z</time></trkpt><trkpt lat="40.7497583" lon="14.8643684"><ele>466.0</ele><time>2026-04-12T06:54:12.96Z</time></trkpt><trkpt lat="40.7497705" lon="14.8642737"><ele>466.0</ele><time>2026-04-12T06:54:13.968Z</time></trkpt><trkpt lat="40.7497755" lon="14.8641576"><ele>466.0</ele><time>2026-04-12T06:54:15.959Z</time></trkpt><trkpt lat="40.7497975" lon="14.8640652"><ele>466.00000000000006</ele><time>2026-04-12T06:54:17.961Z</time></trkpt><trkpt lat="40.7498573" lon="14.8639103"><ele>466.0</ele><time>2026-04-12T06:54:20.042Z</time></trkpt><trkpt lat="40.7498915" lon="14.8638165"><ele>467.83333333333337</ele><time>2026-04-12T06:54:20.96Z</time></trkpt><trkpt lat="40.7499151" lon="14.8637329"><ele>469.6666666666667</ele><time>2026-04-12T06:54:21.966Z</time></trkpt><trkpt lat="40.749925" lon="14.8636379"><ele>471.5</ele><time>2026-04-12T06:54:22.984Z</time></trkpt><trkpt lat="40.7499591" lon="14.8635002"><ele>473.33333333333337</ele><time>2026-04-12T06:54:24.959Z</time></trkpt><trkpt lat="40.7499907" lon="14.8634227"><ele>475.1666666666667</ele><time>2026-04-12T06:54:25.97Z</time></trkpt><trkpt lat="40.7500243" lon="14.8633443"><ele>477.0</ele><time>2026-04-12T06:54:26.966Z</time></trkpt><trkpt lat="40.7500756" lon="14.8632601"><ele>478.2857142857143</ele><time>2026-04-12T06:54:27.951Z</time></trkpt><trkpt lat="40.7501176" lon="14.863184"><ele>479.57142857142856</ele><time>2026-04-12T06:54:29.087Z</time></trkpt><trkpt lat="40.7501647" lon="14.8631085"><ele>480.85714285714283</ele><time>2026-04-12T06:54:30.023Z</time></trkpt><trkpt lat="40.7501895" lon="14.8630141"><ele>482.1428571428571</ele><time>2026-04-12T06:54:30.954Z</time></trkpt><trkpt lat="40.7502186" lon="14.8629241"><ele>483.42857142857144</ele><time>2026-04-12T06:54:31.961Z</time></trkpt><trkpt lat="40.7502539" lon="14.8628283"><ele>484.71428571428567</ele><time>2026-04-12T06:54:32.957Z</time></trkpt><trkpt lat="40.750279" lon="14.862745"><ele>486.0</ele><time>2026-04-12T06:54:33.958Z</time></trkpt><trkpt lat="40.7503043" lon="14.8626258"><ele>486.8</ele><time>2026-04-12T06:54:35.956Z</time></trkpt><trkpt lat="40.7504348" lon="14.8625569"><ele>487.6</ele><time>2026-04-12T06:54:37.956Z</time></trkpt><trkpt lat="40.7505248" lon="14.8625284"><ele>488.4</ele><time>2026-04-12T06:54:39.043Z</time></trkpt><trkpt lat="40.7505955" lon="14.862476"><ele>489.2</ele><time>2026-04-12T06:54:40.011Z</time></trkpt><trkpt lat="40.7506778" lon="14.8624114"><ele>490.0</ele><time>2026-04-12T06:54:40.957Z</time></trkpt><trkpt lat="40.7507654" lon="14.862356"><ele>490.0</ele><time>2026-04-12T06:54:41.959Z</time></trkpt><trkpt lat="40.7508146" lon="14.8622936"><ele>490.0</ele><time>2026-04-12T06:54:43.036Z</time></trkpt><trkpt lat="40.7508355" lon="14.8621916"><ele>490.0</ele><time>2026-04-12T06:54:44.023Z</time></trkpt><trkpt lat="40.7508746" lon="14.8620805"><ele>490.0</ele><time>2026-04-12T06:54:45.022Z</time></trkpt><trkpt lat="40.7509221" lon="14.8619575"><ele>490.0</ele><time>2026-04-12T06:54:45.959Z</time></trkpt><trkpt lat="40.7509879" lon="14.8618402"><ele>492.2</ele><time>2026-04-12T06:54:46.965Z</time></trkpt><trkpt lat="40.7510698" lon="14.861723"><ele>494.4</ele><time>2026-04-12T06:54:48.038Z</time></trkpt><trkpt lat="40.7511661" lon="14.8616245"><ele>496.6</ele><time>2026-04-12T06:54:49.009Z</time></trkpt><trkpt lat="40.7512483" lon="14.8615436"><ele>498.8</ele><time>2026-04-12T06:54:50.029Z</time></trkpt><trkpt lat="40.7513314" lon="14.8614937"><ele>501.0</ele><time>2026-04-12T06:54:50.958Z</time></trkpt><trkpt lat="40.7514419" lon="14.8614636"><ele>501.0</ele><time>2026-04-12T06:54:51.957Z</time></trkpt><trkpt lat="40.7515606" lon="14.8614065"><ele>501.0</ele><time>2026-04-12T06:54:53.075Z</time></trkpt><trkpt lat="40.7516687" lon="14.8613506"><ele>501.0</ele><time>2026-04-12T06:54:54.02Z</time></trkpt><trkpt lat="40.7517333" lon="14.8613097"><ele>501.0</ele><time>2026-04-12T06:54:55.036Z</time></trkpt><trkpt lat="40.7518099" lon="14.8612627"><ele>501.0</ele><time>2026-04-12T06:54:56.956Z</time></trkpt><trkpt lat="40.7518721" lon="14.8612082"><ele>501.0</ele><time>2026-04-12T06:54:59.956Z</time></trkpt><trkpt lat="40.7518247" lon="14.8612629"><ele>501.0</ele><time>2026-04-12T06:55:05.951Z</time></trkpt><trkpt lat="40.7518804" lon="14.8612072"><ele>501.0</ele><time>2026-04-12T06:55:14.963Z</time></trkpt><trkpt lat="40.7519786" lon="14.8612056"><ele>501.0</ele><time>2026-04-12T06:55:16.976Z</time></trkpt><trkpt lat="40.7520671" lon="14.8612372"><ele>501.0</ele><time>2026-04-12T06:55:19.965Z</time></trkpt><trkpt lat="40.7520984" lon="14.8613152"><ele>501.0</ele><time>2026-04-12T06:55:22.95Z</time></trkpt><trkpt lat="40.7520371" lon="14.8614326"><ele>501.0</ele><time>2026-04-12T06:55:24.958Z</time></trkpt><trkpt lat="40.7519861" lon="14.8615201"><ele>501.0</ele><time>2026-04-12T06:55:25.961Z</time></trkpt><trkpt lat="40.751929" lon="14.86158"><ele>501.0</ele><time>2026-04-12T06:55:26.96Z</time></trkpt><trkpt lat="40.751789" lon="14.8616603"><ele>501.0</ele><time>2026-04-12T06:55:28.964Z</time></trkpt><trkpt lat="40.7517002" lon="14.8617135"><ele>501.0</ele><time>2026-04-12T06:55:29.953Z</time></trkpt><trkpt lat="40.7515915" lon="14.8617842"><ele>503.6666666666667</ele><time>2026-04-12T06:55:30.961Z</time></trkpt><trkpt lat="40.7515172" lon="14.8618315"><ele>506.33333333333337</ele><time>2026-04-12T06:55:31.959Z</time></trkpt><trkpt lat="40.7514622" lon="14.8618793"><ele>509.0</ele><time>2026-04-12T06:55:32.964Z</time></trkpt><trkpt lat="40.7514455" lon="14.8620112"><ele>511.6666666666667</ele><time>2026-04-12T06:55:34.956Z</time></trkpt><trkpt lat="40.7514086" lon="14.8621571"><ele>514.3333333333334</ele><time>2026-04-12T06:55:37.979Z</time></trkpt><trkpt lat="40.7513933" lon="14.8622425"><ele>517.0</ele><time>2026-04-12T06:55:38.956Z</time></trkpt><trkpt lat="40.7513658" lon="14.862346"><ele>517.0</ele><time>2026-04-12T06:55:39.959Z</time></trkpt><trkpt lat="40.7512883" lon="14.8624927"><ele>517.0</ele><time>2026-04-12T06:55:40.962Z</time></trkpt><trkpt lat="40.7512309" lon="14.862635"><ele>517.0</ele><time>2026-04-12T06:55:41.962Z</time></trkpt><trkpt lat="40.7512061" lon="14.8627542"><ele>517.0</ele><time>2026-04-12T06:55:42.96Z</time></trkpt><trkpt lat="40.7511835" lon="14.862858"><ele>517.0</ele><time>2026-04-12T06:55:43.96Z</time></trkpt><trkpt lat="40.7511891" lon="14.8629422"><ele>516.2</ele><time>2026-04-12T06:55:44.968Z</time></trkpt><trkpt lat="40.7513005" lon="14.8630272"><ele>515.4000000000001</ele><time>2026-04-12T06:55:46.935Z</time></trkpt><trkpt lat="40.7513798" lon="14.863056"><ele>514.5999999999999</ele><time>2026-04-12T06:55:47.957Z</time></trkpt><trkpt lat="40.7514646" lon="14.8630773"><ele>513.8</ele><time>2026-04-12T06:55:48.96Z</time></trkpt><trkpt lat="40.7515815" lon="14.8630888"><ele>513.0</ele><time>2026-04-12T06:55:50.954Z</time></trkpt><trkpt lat="40.7516723" lon="14.8629801"><ele>513.0</ele><time>2026-04-12T06:55:52.946Z</time></trkpt><trkpt lat="40.7517337" lon="14.8629205"><ele>513.0</ele><time>2026-04-12T06:55:53.963Z</time></trkpt><trkpt lat="40.7518029" lon="14.8628724"><ele>513.0</ele><time>2026-04-12T06:55:54.969Z</time></trkpt><trkpt lat="40.7518812" lon="14.8628098"><ele>513.0</ele><time>2026-04-12T06:55:55.954Z</time></trkpt><trkpt lat="40.7519297" lon="14.8627457"><ele>513.0</ele><time>2026-04-12T06:55:56.964Z</time></trkpt><trkpt lat="40.7519788" lon="14.8626709"><ele>513.0</ele><time>2026-04-12T06:55:57.962Z</time></trkpt><trkpt lat="40.7520382" lon="14.8625949"><ele>517.6</ele><time>2026-04-12T06:55:58.953Z</time></trkpt><trkpt lat="40.7521591" lon="14.8625135"><ele>522.1999999999999</ele><time>2026-04-12T06:56:00.965Z</time></trkpt><trkpt lat="40.7522428" lon="14.8624413"><ele>526.8</ele><time>2026-04-12T06:56:01.963Z</time></trkpt><trkpt lat="40.752308" lon="14.8623665"><ele>531.4</ele><time>2026-04-12T06:56:02.965Z</time></trkpt><trkpt lat="40.7523639" lon="14.862288"><ele>536.0</ele><time>2026-04-12T06:56:03.963Z</time></trkpt><trkpt lat="40.7524418" lon="14.8622085"><ele>536.0</ele><time>2026-04-12T06:56:04.962Z</time></trkpt><trkpt lat="40.7525269" lon="14.862124"><ele>536.0</ele><time>2026-04-12T06:56:05.962Z</time></trkpt><trkpt lat="40.7526025" lon="14.8620331"><ele>536.0</ele><time>2026-04-12T06:56:06.971Z</time></trkpt><trkpt lat="40.75267" lon="14.8619401"><ele>536.0</ele><time>2026-04-12T06:56:07.969Z</time></trkpt><trkpt lat="40.7527325" lon="14.8618613"><ele>536.0</ele><time>2026-04-12T06:56:08.974Z</time></trkpt><trkpt lat="40.752805" lon="14.861779"><ele>539.0</ele><time>2026-04-12T06:56:09.969Z</time></trkpt><trkpt lat="40.7528747" lon="14.8616926"><ele>542.0</ele><time>2026-04-12T06:56:10.964Z</time></trkpt><trkpt lat="40.752943" lon="14.8616099"><ele>545.0</ele><time>2026-04-12T06:56:11.975Z</time></trkpt><trkpt lat="40.7529968" lon="14.8615216"><ele>548.0</ele><time>2026-04-12T06:56:12.973Z</time></trkpt><trkpt lat="40.7530358" lon="14.8614177"><ele>551.0</ele><time>2026-04-12T06:56:13.972Z</time></trkpt><trkpt lat="40.7530671" lon="14.8613184"><ele>554.0</ele><time>2026-04-12T06:56:14.961Z</time></trkpt><trkpt lat="40.7531009" lon="14.8612323"><ele>554.0</ele><time>2026-04-12T06:56:15.955Z</time></trkpt><trkpt lat="40.7531396" lon="14.8611495"><ele>554.0</ele><time>2026-04-12T06:56:16.958Z</time></trkpt><trkpt lat="40.7531816" lon="14.8610629"><ele>554.0</ele><time>2026-04-12T06:56:18.031Z</time></trkpt><trkpt lat="40.7532314" lon="14.8609759"><ele>554.0</ele><time>2026-04-12T06:56:19.035Z</time></trkpt><trkpt lat="40.7532752" lon="14.8608853"><ele>554.0</ele><time>2026-04-12T06:56:20.031Z</time></trkpt><trkpt lat="40.753307" lon="14.8608001"><ele>554.0</ele><time>2026-04-12T06:56:20.949Z</time></trkpt><trkpt lat="40.753334" lon="14.8607152"><ele>555.3333333333333</ele><time>2026-04-12T06:56:21.962Z</time></trkpt><trkpt lat="40.7533656" lon="14.8606252"><ele>556.6666666666666</ele><time>2026-04-12T06:56:22.959Z</time></trkpt><trkpt lat="40.75341" lon="14.8605526"><ele>558.0</ele><time>2026-04-12T06:56:23.963Z</time></trkpt><trkpt lat="40.7534199" lon="14.8603908"><ele>559.3333333333334</ele><time>2026-04-12T06:56:25.969Z</time></trkpt><trkpt lat="40.7534136" lon="14.8602769"><ele>560.6666666666667</ele><time>2026-04-12T06:56:26.963Z</time></trkpt><trkpt lat="40.7534155" lon="14.8601698"><ele>562.0</ele><time>2026-04-12T06:56:27.961Z</time></trkpt><trkpt lat="40.7534345" lon="14.860084"><ele>562.1666666666667</ele><time>2026-04-12T06:56:28.967Z</time></trkpt><trkpt lat="40.7534864" lon="14.860027"><ele>562.3333333333334</ele><time>2026-04-12T06:56:29.968Z</time></trkpt><trkpt lat="40.7535471" lon="14.8599663"><ele>562.5</ele><time>2026-04-12T06:56:30.967Z</time></trkpt><trkpt lat="40.7536048" lon="14.8598959"><ele>562.6666666666666</ele><time>2026-04-12T06:56:31.966Z</time></trkpt><trkpt lat="40.7536581" lon="14.8598184"><ele>562.8333333333333</ele><time>2026-04-12T06:56:32.965Z</time></trkpt><trkpt lat="40.7537239" lon="14.85978"><ele>563.0</ele><time>2026-04-12T06:56:34.958Z</time></trkpt><trkpt lat="40.7538284" lon="14.8597897"><ele>566.3333333333333</ele><time>2026-04-12T06:56:36.959Z</time></trkpt><trkpt lat="40.7538994" lon="14.8597844"><ele>569.6666666666666</ele><time>2026-04-12T06:56:37.956Z</time></trkpt><trkpt lat="40.7539771" lon="14.8597808"><ele>573.0</ele><time>2026-04-12T06:56:38.959Z</time></trkpt><trkpt lat="40.7540482" lon="14.8597788"><ele>576.3333333333334</ele><time>2026-04-12T06:56:40.031Z</time></trkpt><trkpt lat="40.7540311" lon="14.8596792"><ele>579.6666666666667</ele><time>2026-04-12T06:56:42.965Z</time></trkpt><trkpt lat="40.7539289" lon="14.8596385"><ele>583.0</ele><time>2026-04-12T06:56:44.979Z</time></trkpt><trkpt lat="40.7539552" lon="14.8595383"><ele>583.0</ele><time>2026-04-12T06:56:46.95Z</time></trkpt><trkpt lat="40.7540319" lon="14.859534"><ele>583.0</ele><time>2026-04-12T06:56:48.963Z</time></trkpt><trkpt lat="40.7541025" lon="14.8595371"><ele>583.0</ele><time>2026-04-12T06:56:49.966Z</time></trkpt><trkpt lat="40.7541951" lon="14.8595315"><ele>583.0</ele><time>2026-04-12T06:56:50.961Z</time></trkpt><trkpt lat="40.7542772" lon="14.8595127"><ele>583.0</ele><time>2026-04-12T06:56:51.972Z</time></trkpt><trkpt lat="40.7543516" lon="14.8594827"><ele>583.0</ele><time>2026-04-12T06:56:52.957Z</time></trkpt><trkpt lat="40.7544065" lon="14.8593742"><ele>583.0</ele><time>2026-04-12T06:56:55.022Z</time></trkpt><trkpt lat="40.7543194" lon="14.859298"><ele>583.0</ele><time>2026-04-12T06:56:56.966Z</time></trkpt><trkpt lat="40.7542381" lon="14.8592585"><ele>583.0</ele><time>2026-04-12T06:56:58.969Z</time></trkpt><trkpt lat="40.7542832" lon="14.8591837"><ele>583.0</ele><time>2026-04-12T06:57:02.952Z</time></trkpt><trkpt lat="40.7543959" lon="14.8591505"><ele>583.0</ele><time>2026-04-12T06:57:03.954Z</time></trkpt><trkpt lat="40.7545099" lon="14.8590966"><ele>588.75</ele><time>2026-04-12T06:57:04.958Z</time></trkpt><trkpt lat="40.7546442" lon="14.859051"><ele>594.5</ele><time>2026-04-12T06:57:05.96Z</time></trkpt><trkpt lat="40.7547789" lon="14.858993"><ele>600.25</ele><time>2026-04-12T06:57:06.96Z</time></trkpt><trkpt lat="40.7548917" lon="14.8588949"><ele>606.0</ele><time>2026-04-12T06:57:07.954Z</time></trkpt><trkpt lat="40.754991" lon="14.8587783"><ele>606.0</ele><time>2026-04-12T06:57:08.961Z</time></trkpt><trkpt lat="40.7550877" lon="14.8586735"><ele>606.0</ele><time>2026-04-12T06:57:09.959Z</time></trkpt><trkpt lat="40.7551786" lon="14.858588"><ele>606.0</ele><time>2026-04-12T06:57:10.955Z</time></trkpt><trkpt lat="40.7552548" lon="14.8585215"><ele>606.0</ele><time>2026-04-12T06:57:11.959Z</time></trkpt><trkpt lat="40.7553337" lon="14.8584564"><ele>606.0</ele><time>2026-04-12T06:57:12.956Z</time></trkpt><trkpt lat="40.75541" lon="14.8584167"><ele>610.5</ele><time>2026-04-12T06:57:13.958Z</time></trkpt><trkpt lat="40.7554778" lon="14.8583865"><ele>615.0</ele><time>2026-04-12T06:57:14.959Z</time></trkpt><trkpt lat="40.755545" lon="14.8583672"><ele>619.5</ele><time>2026-04-12T06:57:15.961Z</time></trkpt><trkpt lat="40.7556105" lon="14.858358"><ele>624.0</ele><time>2026-04-12T06:57:16.953Z</time></trkpt><trkpt lat="40.7556953" lon="14.8582967"><ele>628.5</ele><time>2026-04-12T06:57:18.959Z</time></trkpt><trkpt lat="40.7556434" lon="14.8582278"><ele>633.0</ele><time>2026-04-12T06:57:20.961Z</time></trkpt><trkpt lat="40.7555814" lon="14.8581631"><ele>633.0</ele><time>2026-04-12T06:57:22.059Z</time></trkpt><trkpt lat="40.7555231" lon="14.8580896"><ele>633.0</ele><time>2026-04-12T06:57:23.953Z</time></trkpt><trkpt lat="40.7555978" lon="14.8580647"><ele>633.0</ele><time>2026-04-12T06:57:29.968Z</time></trkpt><trkpt lat="40.7556786" lon="14.858102"><ele>633.0</ele><time>2026-04-12T06:57:31.964Z</time></trkpt><trkpt lat="40.7557666" lon="14.8581202"><ele>633.0</ele><time>2026-04-12T06:57:33.968Z</time></trkpt><trkpt lat="40.7559168" lon="14.8580608"><ele>633.0</ele><time>2026-04-12T06:57:35.959Z</time></trkpt><trkpt lat="40.7559936" lon="14.8580235"><ele>633.0</ele><time>2026-04-12T06:57:37.024Z</time></trkpt><trkpt lat="40.7560556" lon="14.8579737"><ele>633.0</ele><time>2026-04-12T06:57:37.968Z</time></trkpt><trkpt lat="40.7561368" lon="14.8578915"><ele>633.0</ele><time>2026-04-12T06:57:38.953Z</time></trkpt><trkpt lat="40.7562411" lon="14.8578214"><ele>633.0</ele><time>2026-04-12T06:57:39.951Z</time></trkpt><trkpt lat="40.7563629" lon="14.8577553"><ele>629.25</ele><time>2026-04-12T06:57:40.964Z</time></trkpt><trkpt lat="40.7564864" lon="14.8576674"><ele>625.5</ele><time>2026-04-12T06:57:42.034Z</time></trkpt><trkpt lat="40.7565778" lon="14.8575732"><ele>621.75</ele><time>2026-04-12T06:57:43.036Z</time></trkpt><trkpt lat="40.7566723" lon="14.8574636"><ele>618.0</ele><time>2026-04-12T06:57:43.966Z</time></trkpt><trkpt lat="40.7567692" lon="14.8573365"><ele>623.75</ele><time>2026-04-12T06:57:44.962Z</time></trkpt><trkpt lat="40.7568716" lon="14.8572092"><ele>629.5</ele><time>2026-04-12T06:57:45.969Z</time></trkpt><trkpt lat="40.756982" lon="14.8571101"><ele>635.25</ele><time>2026-04-12T06:57:46.969Z</time></trkpt><trkpt lat="40.7571029" lon="14.8569976"><ele>641.0</ele><time>2026-04-12T06:57:47.966Z</time></trkpt><trkpt lat="40.7572169" lon="14.8569151"><ele>641.0</ele><time>2026-04-12T06:57:48.963Z</time></trkpt><trkpt lat="40.7573019" lon="14.8568653"><ele>641.0</ele><time>2026-04-12T06:57:50.031Z</time></trkpt><trkpt lat="40.7573591" lon="14.8567965"><ele>641.0</ele><time>2026-04-12T06:57:50.953Z</time></trkpt><trkpt lat="40.7574078" lon="14.856708"><ele>641.0</ele><time>2026-04-12T06:57:51.962Z</time></trkpt><trkpt lat="40.757456" lon="14.8565872"><ele>641.0</ele><time>2026-04-12T06:57:52.947Z</time></trkpt><trkpt lat="40.7575138" lon="14.8564752"><ele>644.5</ele><time>2026-04-12T06:57:53.958Z</time></trkpt><trkpt lat="40.7575891" lon="14.8563592"><ele>648.0</ele><time>2026-04-12T06:57:54.953Z</time></trkpt><trkpt lat="40.7576709" lon="14.856243"><ele>651.5</ele><time>2026-04-12T06:57:55.952Z</time></trkpt><trkpt lat="40.7577678" lon="14.8561335"><ele>655.0</ele><time>2026-04-12T06:57:56.972Z</time></trkpt><trkpt lat="40.7578607" lon="14.8560036"><ele>666.6666666666667</ele><time>2026-04-12T06:57:58.027Z</time></trkpt><trkpt lat="40.7579527" lon="14.8558999"><ele>678.3333333333334</ele><time>2026-04-12T06:57:58.963Z</time></trkpt><trkpt lat="40.7580589" lon="14.8557724"><ele>690.0</ele><time>2026-04-12T06:58:00.065Z</time></trkpt><trkpt lat="40.7582144" lon="14.8555676"><ele>690.0</ele><time>2026-04-12T06:58:01.954Z</time></trkpt><trkpt lat="40.7582796" lon="14.8554855"><ele>690.0</ele><time>2026-04-12T06:58:02.974Z</time></trkpt><trkpt lat="40.7583872" lon="14.8554054"><ele>690.0</ele><time>2026-04-12T06:58:04.053Z</time></trkpt><trkpt lat="40.7585097" lon="14.8553008"><ele>690.0</ele><time>2026-04-12T06:58:05.047Z</time></trkpt><trkpt lat="40.7586322" lon="14.8551927"><ele>694.25</ele><time>2026-04-12T06:58:05.974Z</time></trkpt><trkpt lat="40.758747" lon="14.8550994"><ele>698.5</ele><time>2026-04-12T06:58:06.976Z</time></trkpt><trkpt lat="40.7588555" lon="14.8550101"><ele>702.75</ele><time>2026-04-12T06:58:08Z</time></trkpt><trkpt lat="40.7589536" lon="14.8549147"><ele>707.0</ele><time>2026-04-12T06:58:09.028Z</time></trkpt><trkpt lat="40.7590547" lon="14.8548088"><ele>707.0</ele><time>2026-04-12T06:58:10.048Z</time></trkpt><trkpt lat="40.7591566" lon="14.8547235"><ele>707.0</ele><time>2026-04-12T06:58:10.96Z</time></trkpt><trkpt lat="40.759262" lon="14.8546723"><ele>707.0</ele><time>2026-04-12T06:58:11.964Z</time></trkpt><trkpt lat="40.7593486" lon="14.8546817"><ele>707.0</ele><time>2026-04-12T06:58:12.994Z</time></trkpt><trkpt lat="40.7594334" lon="14.8546857"><ele>707.0</ele><time>2026-04-12T06:58:15.035Z</time></trkpt><trkpt lat="40.7594531" lon="14.8545307"><ele>704.25</ele><time>2026-04-12T06:58:16.948Z</time></trkpt><trkpt lat="40.7594675" lon="14.854399"><ele>701.5</ele><time>2026-04-12T06:58:17.959Z</time></trkpt><trkpt lat="40.7594964" lon="14.8542362"><ele>698.75</ele><time>2026-04-12T06:58:19.038Z</time></trkpt><trkpt lat="40.7595435" lon="14.8540725"><ele>696.0</ele><time>2026-04-12T06:58:20.043Z</time></trkpt><trkpt lat="40.7596009" lon="14.8539182"><ele>702.25</ele><time>2026-04-12T06:58:20.97Z</time></trkpt><trkpt lat="40.7596538" lon="14.8537775"><ele>708.5</ele><time>2026-04-12T06:58:21.965Z</time></trkpt><trkpt lat="40.7596731" lon="14.8536327"><ele>714.75</ele><time>2026-04-12T06:58:22.962Z</time></trkpt><trkpt lat="40.7596759" lon="14.8534559"><ele>721.0</ele><time>2026-04-12T06:58:23.977Z</time></trkpt><trkpt lat="40.7596697" lon="14.8532949"><ele>722.1999999999999</ele><time>2026-04-12T06:58:24.975Z</time></trkpt><trkpt lat="40.7596483" lon="14.8531746"><ele>723.4</ele><time>2026-04-12T06:58:25.965Z</time></trkpt><trkpt lat="40.7596409" lon="14.8530673"><ele>724.6</ele><time>2026-04-12T06:58:26.978Z</time></trkpt><trkpt lat="40.7596489" lon="14.8529292"><ele>725.8</ele><time>2026-04-12T06:58:27.96Z</time></trkpt><trkpt lat="40.7596449" lon="14.8527752"><ele>727.0</ele><time>2026-04-12T06:58:28.952Z</time></trkpt><trkpt lat="40.7596185" lon="14.8526208"><ele>727.0</ele><time>2026-04-12T06:58:30.052Z</time></trkpt><trkpt lat="40.7595809" lon="14.8524794"><ele>727.0</ele><time>2026-04-12T06:58:30.966Z</time></trkpt><trkpt lat="40.7595467" lon="14.8523508"><ele>727.0</ele><time>2026-04-12T06:58:31.963Z</time></trkpt><trkpt lat="40.7595483" lon="14.8522487"><ele>727.0</ele><time>2026-04-12T06:58:32.969Z</time></trkpt><trkpt lat="40.7595896" lon="14.8521491"><ele>727.0</ele><time>2026-04-12T06:58:33.951Z</time></trkpt><trkpt lat="40.7596593" lon="14.8520053"><ele>727.0</ele><time>2026-04-12T06:58:34.972Z</time></trkpt><trkpt lat="40.7597289" lon="14.8518615"><ele>727.0</ele><time>2026-04-12T06:58:35.967Z</time></trkpt><trkpt lat="40.7597727" lon="14.8517471"><ele>727.0</ele><time>2026-04-12T06:58:36.967Z</time></trkpt><trkpt lat="40.7598011" lon="14.8516129"><ele>727.0</ele><time>2026-04-12T06:58:38.974Z</time></trkpt><trkpt lat="40.7597786" lon="14.85148"><ele>727.0</ele><time>2026-04-12T06:58:40.966Z</time></trkpt><trkpt lat="40.7597551" lon="14.8513954"><ele>726.6666666666667</ele><time>2026-04-12T06:58:41.967Z</time></trkpt><trkpt lat="40.7597285" lon="14.8512877"><ele>726.3333333333334</ele><time>2026-04-12T06:58:43.074Z</time></trkpt><trkpt lat="40.7597025" lon="14.8511768"><ele>726.0</ele><time>2026-04-12T06:58:44.056Z</time></trkpt><trkpt lat="40.7596704" lon="14.8510695"><ele>725.6666666666666</ele><time>2026-04-12T06:58:45.037Z</time></trkpt><trkpt lat="40.7596345" lon="14.850967"><ele>725.3333333333333</ele><time>2026-04-12T06:58:45.977Z</time></trkpt><trkpt lat="40.7596051" lon="14.850869"><ele>725.0</ele><time>2026-04-12T06:58:46.976Z</time></trkpt><trkpt lat="40.7595768" lon="14.8507699"><ele>725.0</ele><time>2026-04-12T06:58:49Z</time></trkpt><trkpt lat="40.7595468" lon="14.8506952"><ele>725.0</ele><time>2026-04-12T06:58:53.057Z</time></trkpt><trkpt lat="40.759525" lon="14.850601"><ele>725.0</ele><time>2026-04-12T06:58:56.975Z</time></trkpt><trkpt lat="40.7594942" lon="14.8505125"><ele>725.0</ele><time>2026-04-12T06:58:58.964Z</time></trkpt><trkpt lat="40.7594358" lon="14.8503867"><ele>725.0</ele><time>2026-04-12T06:59:00.971Z</time></trkpt><trkpt lat="40.7594076" lon="14.8502232"><ele>725.0</ele><time>2026-04-12T06:59:02.975Z</time></trkpt><trkpt lat="40.7594008" lon="14.8501367"><ele>725.0</ele><time>2026-04-12T06:59:04.031Z</time></trkpt><trkpt lat="40.7593795" lon="14.8499835"><ele>725.0</ele><time>2026-04-12T06:59:05.965Z</time></trkpt><trkpt lat="40.7593968" lon="14.8498681"><ele>725.0</ele><time>2026-04-12T06:59:08.972Z</time></trkpt><trkpt lat="40.7594669" lon="14.849733"><ele>725.0</ele><time>2026-04-12T06:59:11.973Z</time></trkpt><trkpt lat="40.7595697" lon="14.8496277"><ele>722.8333333333333</ele><time>2026-04-12T06:59:13.978Z</time></trkpt><trkpt lat="40.7596315" lon="14.8495773"><ele>720.6666666666666</ele><time>2026-04-12T06:59:14.977Z</time></trkpt><trkpt lat="40.7597111" lon="14.8495202"><ele>718.5</ele><time>2026-04-12T06:59:15.974Z</time></trkpt><trkpt lat="40.7597827" lon="14.8494766"><ele>716.3333333333334</ele><time>2026-04-12T06:59:16.971Z</time></trkpt><trkpt lat="40.7598384" lon="14.8494351"><ele>714.1666666666667</ele><time>2026-04-12T06:59:17.994Z</time></trkpt><trkpt lat="40.7599007" lon="14.8493905"><ele>712.0</ele><time>2026-04-12T06:59:18.965Z</time></trkpt><trkpt lat="40.7599626" lon="14.8493305"><ele>712.1428571428571</ele><time>2026-04-12T06:59:19.967Z</time></trkpt><trkpt lat="40.7600185" lon="14.849247"><ele>712.2857142857142</ele><time>2026-04-12T06:59:20.968Z</time></trkpt><trkpt lat="40.7600677" lon="14.8491712"><ele>712.4285714285713</ele><time>2026-04-12T06:59:21.976Z</time></trkpt><trkpt lat="40.76011" lon="14.8491003"><ele>712.5714285714286</ele><time>2026-04-12T06:59:22.974Z</time></trkpt><trkpt lat="40.7601583" lon="14.8490299"><ele>712.7142857142858</ele><time>2026-04-12T06:59:23.975Z</time></trkpt><trkpt lat="40.7602035" lon="14.8489636"><ele>712.8571428571428</ele><time>2026-04-12T06:59:24.973Z</time></trkpt><trkpt lat="40.7602483" lon="14.848902"><ele>713.0</ele><time>2026-04-12T06:59:25.971Z</time></trkpt><trkpt lat="40.7603175" lon="14.8487708"><ele>708.0</ele><time>2026-04-12T06:59:27.977Z</time></trkpt><trkpt lat="40.7603298" lon="14.8486112"><ele>703.0</ele><time>2026-04-12T06:59:29.962Z</time></trkpt><trkpt lat="40.7603094" lon="14.848447"><ele>698.0</ele><time>2026-04-12T06:59:31.971Z</time></trkpt><trkpt lat="40.7602984" lon="14.8483582"><ele>693.0</ele><time>2026-04-12T06:59:33.061Z</time></trkpt><trkpt lat="40.7602802" lon="14.8482043"><ele>688.0</ele><time>2026-04-12T06:59:34.968Z</time></trkpt><trkpt lat="40.7602862" lon="14.8480559"><ele>688.0</ele><time>2026-04-12T06:59:36.975Z</time></trkpt><trkpt lat="40.7602942" lon="14.8479184"><ele>688.0</ele><time>2026-04-12T06:59:38.978Z</time></trkpt><trkpt lat="40.7603177" lon="14.8478366"><ele>688.0</ele><time>2026-04-12T06:59:40.966Z</time></trkpt><trkpt lat="40.7603535" lon="14.8477482"><ele>688.0</ele><time>2026-04-12T06:59:42.987Z</time></trkpt><trkpt lat="40.7603687" lon="14.8476463"><ele>688.0</ele><time>2026-04-12T06:59:44.971Z</time></trkpt><trkpt lat="40.7603883" lon="14.8475093"><ele>688.0</ele><time>2026-04-12T06:59:47.083Z</time></trkpt><trkpt lat="40.7604159" lon="14.8473709"><ele>685.8333333333334</ele><time>2026-04-12T06:59:48.973Z</time></trkpt><trkpt lat="40.7604494" lon="14.8472809"><ele>683.6666666666667</ele><time>2026-04-12T06:59:51.038Z</time></trkpt><trkpt lat="40.7604706" lon="14.8471807"><ele>681.5</ele><time>2026-04-12T06:59:56.98Z</time></trkpt><trkpt lat="40.7604953" lon="14.8470785"><ele>679.3333333333334</ele><time>2026-04-12T06:59:58.962Z</time></trkpt><trkpt lat="40.7605269" lon="14.8469131"><ele>677.1666666666666</ele><time>2026-04-12T07:00:00.983Z</time></trkpt><trkpt lat="40.7605535" lon="14.8468145"><ele>675.0</ele><time>2026-04-12T07:00:02.028Z</time></trkpt><trkpt lat="40.7605879" lon="14.8467379"><ele>675.0</ele><time>2026-04-12T07:00:02.959Z</time></trkpt><trkpt lat="40.7606472" lon="14.8466696"><ele>675.0</ele><time>2026-04-12T07:00:04.966Z</time></trkpt><trkpt lat="40.7607092" lon="14.8466324"><ele>675.0</ele><time>2026-04-12T07:00:06.973Z</time></trkpt><trkpt lat="40.7607691" lon="14.8466951"><ele>675.0</ele><time>2026-04-12T07:00:09.046Z</time></trkpt><trkpt lat="40.7607905" lon="14.8467903"><ele>675.0</ele><time>2026-04-12T07:00:10.968Z</time></trkpt><trkpt lat="40.7608385" lon="14.8469268"><ele>675.0</ele><time>2026-04-12T07:00:12.945Z</time></trkpt><trkpt lat="40.7608917" lon="14.8470387"><ele>675.0</ele><time>2026-04-12T07:00:14.95Z</time></trkpt><trkpt lat="40.7609702" lon="14.8470995"><ele>675.0</ele><time>2026-04-12T07:00:17.97Z</time></trkpt><trkpt lat="40.7610558" lon="14.8470986"><ele>675.0</ele><time>2026-04-12T07:00:19.958Z</time></trkpt><trkpt lat="40.7611711" lon="14.8470847"><ele>675.0</ele><time>2026-04-12T07:00:21.967Z</time></trkpt><trkpt lat="40.7612999" lon="14.8470756"><ele>675.0</ele><time>2026-04-12T07:00:23.977Z</time></trkpt><trkpt lat="40.7613898" lon="14.8471151"><ele>670.5</ele><time>2026-04-12T07:00:25.968Z</time></trkpt><trkpt lat="40.7614518" lon="14.8471568"><ele>666.0</ele><time>2026-04-12T07:00:27.97Z</time></trkpt><trkpt lat="40.7614133" lon="14.8470714"><ele>661.5</ele><time>2026-04-12T07:00:31.963Z</time></trkpt><trkpt lat="40.761328" lon="14.8470082"><ele>657.0</ele><time>2026-04-12T07:00:34.979Z</time></trkpt><trkpt lat="40.7612599" lon="14.8469745"><ele>652.5</ele><time>2026-04-12T07:00:36.971Z</time></trkpt><trkpt lat="40.7612333" lon="14.8468608"><ele>648.0</ele><time>2026-04-12T07:00:39.032Z</time></trkpt><trkpt lat="40.7612625" lon="14.8467066"><ele>646.3333333333334</ele><time>2026-04-12T07:00:40.962Z</time></trkpt><trkpt lat="40.7612864" lon="14.8466272"><ele>644.6666666666666</ele><time>2026-04-12T07:00:41.962Z</time></trkpt><trkpt lat="40.7613007" lon="14.8465261"><ele>643.0</ele><time>2026-04-12T07:00:42.965Z</time></trkpt><trkpt lat="40.7613039" lon="14.8464104"><ele>641.3333333333333</ele><time>2026-04-12T07:00:43.967Z</time></trkpt><trkpt lat="40.7612953" lon="14.8462975"><ele>639.6666666666666</ele><time>2026-04-12T07:00:44.973Z</time></trkpt><trkpt lat="40.7612797" lon="14.8461871"><ele>638.0</ele><time>2026-04-12T07:00:45.962Z</time></trkpt><trkpt lat="40.7612742" lon="14.8460783"><ele>638.0</ele><time>2026-04-12T07:00:46.969Z</time></trkpt><trkpt lat="40.7612802" lon="14.845963"><ele>638.0</ele><time>2026-04-12T07:00:47.981Z</time></trkpt><trkpt lat="40.7612771" lon="14.8458406"><ele>638.0</ele><time>2026-04-12T07:00:48.962Z</time></trkpt><trkpt lat="40.7612673" lon="14.8457344"><ele>638.0</ele><time>2026-04-12T07:00:49.965Z</time></trkpt><trkpt lat="40.761255" lon="14.8456365"><ele>638.0</ele><time>2026-04-12T07:00:50.962Z</time></trkpt><trkpt lat="40.761247" lon="14.8455378"><ele>638.0</ele><time>2026-04-12T07:00:51.965Z</time></trkpt><trkpt lat="40.7612224" lon="14.8454463"><ele>635.3333333333333</ele><time>2026-04-12T07:00:52.965Z</time></trkpt><trkpt lat="40.7612204" lon="14.8453485"><ele>632.6666666666666</ele><time>2026-04-12T07:00:54.966Z</time></trkpt><trkpt lat="40.7612848" lon="14.8452667"><ele>630.0</ele><time>2026-04-12T07:00:57.973Z</time></trkpt><trkpt lat="40.7613258" lon="14.8451908"><ele>627.3333333333334</ele><time>2026-04-12T07:00:59.959Z</time></trkpt><trkpt lat="40.7613773" lon="14.8451338"><ele>624.6666666666667</ele><time>2026-04-12T07:01:01.982Z</time></trkpt><trkpt lat="40.7614568" lon="14.8450762"><ele>622.0</ele><time>2026-04-12T07:01:03.966Z</time></trkpt><trkpt lat="40.7615345" lon="14.8450056"><ele>621.0</ele><time>2026-04-12T07:01:07.054Z</time></trkpt><trkpt lat="40.7615721" lon="14.8449235"><ele>620.0</ele><time>2026-04-12T07:01:09.062Z</time></trkpt><trkpt lat="40.7616145" lon="14.8448001"><ele>619.0</ele><time>2026-04-12T07:01:10.977Z</time></trkpt><trkpt lat="40.761687" lon="14.8446923"><ele>618.0</ele><time>2026-04-12T07:01:12.979Z</time></trkpt><trkpt lat="40.7617448" lon="14.8446012"><ele>617.0</ele><time>2026-04-12T07:01:13.978Z</time></trkpt><trkpt lat="40.7617963" lon="14.8444965"><ele>617.0</ele><time>2026-04-12T07:01:14.978Z</time></trkpt><trkpt lat="40.7618463" lon="14.844405"><ele>617.0</ele><time>2026-04-12T07:01:15.97Z</time></trkpt><trkpt lat="40.7618943" lon="14.8443404"><ele>617.0</ele><time>2026-04-12T07:01:16.981Z</time></trkpt><trkpt lat="40.7619577" lon="14.8442756"><ele>617.0</ele><time>2026-04-12T07:01:18.977Z</time></trkpt><trkpt lat="40.7620459" lon="14.8441363"><ele>617.0</ele><time>2026-04-12T07:01:20.982Z</time></trkpt><trkpt lat="40.7621303" lon="14.8440591"><ele>612.5</ele><time>2026-04-12T07:01:23.04Z</time></trkpt><trkpt lat="40.762212" lon="14.8440483"><ele>608.0</ele><time>2026-04-12T07:01:24.97Z</time></trkpt><trkpt lat="40.7622889" lon="14.8440982"><ele>603.5</ele><time>2026-04-12T07:01:26.977Z</time></trkpt><trkpt lat="40.7622592" lon="14.8442094"><ele>599.0</ele><time>2026-04-12T07:01:28.976Z</time></trkpt><trkpt lat="40.7622124" lon="14.8443035"><ele>594.5</ele><time>2026-04-12T07:01:31.968Z</time></trkpt><trkpt lat="40.7621941" lon="14.8443961"><ele>590.0</ele><time>2026-04-12T07:01:35.973Z</time></trkpt><trkpt lat="40.762267" lon="14.8443446"><ele>590.0</ele><time>2026-04-12T07:01:58.967Z</time></trkpt><trkpt lat="40.7623421" lon="14.8442337"><ele>590.0</ele><time>2026-04-12T07:02:01.967Z</time></trkpt><trkpt lat="40.7624032" lon="14.8441655"><ele>590.0</ele><time>2026-04-12T07:02:02.96Z</time></trkpt><trkpt lat="40.7624565" lon="14.8441084"><ele>590.0</ele><time>2026-04-12T07:02:03.965Z</time></trkpt><trkpt lat="40.7625165" lon="14.8440412"><ele>590.0</ele><time>2026-04-12T07:02:04.961Z</time></trkpt><trkpt lat="40.7625781" lon="14.843972"><ele>590.0</ele><time>2026-04-12T07:02:05.956Z</time></trkpt><trkpt lat="40.7626322" lon="14.8438889"><ele>590.0000000000001</ele><time>2026-04-12T07:02:06.938Z</time></trkpt><trkpt lat="40.7626614" lon="14.843808"><ele>590.0</ele><time>2026-04-12T07:02:08.053Z</time></trkpt><trkpt lat="40.7627105" lon="14.8437192"><ele>590.0</ele><time>2026-04-12T07:02:09.018Z</time></trkpt><trkpt lat="40.7627542" lon="14.8436495"><ele>590.0</ele><time>2026-04-12T07:02:09.961Z</time></trkpt><trkpt lat="40.7627942" lon="14.8435712"><ele>590.0</ele><time>2026-04-12T07:02:10.967Z</time></trkpt><trkpt lat="40.7628232" lon="14.8434785"><ele>590.0000000000001</ele><time>2026-04-12T07:02:11.961Z</time></trkpt><trkpt lat="40.7628485" lon="14.843378"><ele>590.0</ele><time>2026-04-12T07:02:12.977Z</time></trkpt><trkpt lat="40.7628692" lon="14.8432739"><ele>586.1666666666666</ele><time>2026-04-12T07:02:14.036Z</time></trkpt><trkpt lat="40.7628928" lon="14.8431723"><ele>582.3333333333333</ele><time>2026-04-12T07:02:15.036Z</time></trkpt><trkpt lat="40.7629178" lon="14.8430727"><ele>578.5</ele><time>2026-04-12T07:02:15.943Z</time></trkpt><trkpt lat="40.762939" lon="14.8429875"><ele>574.6666666666666</ele><time>2026-04-12T07:02:16.97Z</time></trkpt><trkpt lat="40.7630193" lon="14.8428603"><ele>570.8333333333334</ele><time>2026-04-12T07:02:18.962Z</time></trkpt><trkpt lat="40.7630666" lon="14.842795"><ele>567.0</ele><time>2026-04-12T07:02:19.962Z</time></trkpt><trkpt lat="40.7631133" lon="14.8427181"><ele>567.0</ele><time>2026-04-12T07:02:20.96Z</time></trkpt><trkpt lat="40.7631642" lon="14.8426389"><ele>567.0</ele><time>2026-04-12T07:02:21.967Z</time></trkpt><trkpt lat="40.7632233" lon="14.8425561"><ele>567.0</ele><time>2026-04-12T07:02:22.972Z</time></trkpt><trkpt lat="40.7632801" lon="14.8424643"><ele>567.0</ele><time>2026-04-12T07:02:24.044Z</time></trkpt><trkpt lat="40.7633304" lon="14.8423679"><ele>567.0</ele><time>2026-04-12T07:02:24.973Z</time></trkpt><trkpt lat="40.7633876" lon="14.842275"><ele>567.0</ele><time>2026-04-12T07:02:25.982Z</time></trkpt><trkpt lat="40.76344" lon="14.8421673"><ele>566.6666666666666</ele><time>2026-04-12T07:02:26.979Z</time></trkpt><trkpt lat="40.7634843" lon="14.8420628"><ele>566.3333333333334</ele><time>2026-04-12T07:02:27.983Z</time></trkpt><trkpt lat="40.7635163" lon="14.8419457"><ele>566.0</ele><time>2026-04-12T07:02:28.969Z</time></trkpt><trkpt lat="40.7635414" lon="14.8418326"><ele>565.6666666666667</ele><time>2026-04-12T07:02:30.049Z</time></trkpt><trkpt lat="40.7635541" lon="14.8417209"><ele>565.3333333333334</ele><time>2026-04-12T07:02:30.956Z</time></trkpt><trkpt lat="40.7635684" lon="14.8416204"><ele>565.0</ele><time>2026-04-12T07:02:31.96Z</time></trkpt><trkpt lat="40.7635897" lon="14.8415132"><ele>563.1666666666667</ele><time>2026-04-12T07:02:32.983Z</time></trkpt><trkpt lat="40.7636087" lon="14.8414111"><ele>561.3333333333334</ele><time>2026-04-12T07:02:34.033Z</time></trkpt><trkpt lat="40.7636333" lon="14.8413022"><ele>559.5</ele><time>2026-04-12T07:02:34.95Z</time></trkpt><trkpt lat="40.7636695" lon="14.8412109"><ele>557.6666666666666</ele><time>2026-04-12T07:02:35.966Z</time></trkpt><trkpt lat="40.7637135" lon="14.8411511"><ele>555.8333333333333</ele><time>2026-04-12T07:02:37.043Z</time></trkpt><trkpt lat="40.7638203" lon="14.8410823"><ele>554.0</ele><time>2026-04-12T07:02:39.055Z</time></trkpt><trkpt lat="40.763883" lon="14.8410537"><ele>554.0</ele><time>2026-04-12T07:02:40.04Z</time></trkpt><trkpt lat="40.7639369" lon="14.8410009"><ele>554.0</ele><time>2026-04-12T07:02:40.968Z</time></trkpt><trkpt lat="40.7639908" lon="14.8409311"><ele>554.0</ele><time>2026-04-12T07:02:41.984Z</time></trkpt><trkpt lat="40.7640513" lon="14.8408883"><ele>554.0</ele><time>2026-04-12T07:02:43.009Z</time></trkpt><trkpt lat="40.7641252" lon="14.8408542"><ele>554.0</ele><time>2026-04-12T07:02:44.063Z</time></trkpt><trkpt lat="40.7642015" lon="14.8408153"><ele>554.0</ele><time>2026-04-12T07:02:45.041Z</time></trkpt><trkpt lat="40.7642711" lon="14.8407799"><ele>554.0</ele><time>2026-04-12T07:02:45.963Z</time></trkpt><trkpt lat="40.7643309" lon="14.8407444"><ele>555.5</ele><time>2026-04-12T07:02:46.967Z</time></trkpt><trkpt lat="40.7643917" lon="14.840716"><ele>557.0</ele><time>2026-04-12T07:02:48.082Z</time></trkpt><trkpt lat="40.7644512" lon="14.8406775"><ele>558.5</ele><time>2026-04-12T07:02:48.977Z</time></trkpt><trkpt lat="40.7645538" lon="14.8406169"><ele>560.0</ele><time>2026-04-12T07:02:50.949Z</time></trkpt><trkpt lat="40.7645409" lon="14.8407129"><ele>561.5</ele><time>2026-04-12T07:02:56.969Z</time></trkpt><trkpt lat="40.7646153" lon="14.8407442"><ele>563.0</ele><time>2026-04-12T07:03:00.955Z</time></trkpt><trkpt lat="40.7646632" lon="14.8406807"><ele>563.0</ele><time>2026-04-12T07:03:02.942Z</time></trkpt><trkpt lat="40.7647052" lon="14.8405512"><ele>563.0</ele><time>2026-04-12T07:03:04.955Z</time></trkpt><trkpt lat="40.7647428" lon="14.8404275"><ele>563.0</ele><time>2026-04-12T07:03:05.956Z</time></trkpt><trkpt lat="40.7647793" lon="14.8402918"><ele>563.0</ele><time>2026-04-12T07:03:06.957Z</time></trkpt><trkpt lat="40.7647862" lon="14.8401507"><ele>563.0</ele><time>2026-04-12T07:03:07.951Z</time></trkpt><trkpt lat="40.7647865" lon="14.8400352"><ele>561.3333333333333</ele><time>2026-04-12T07:03:08.958Z</time></trkpt><trkpt lat="40.7647895" lon="14.8399504"><ele>559.6666666666666</ele><time>2026-04-12T07:03:09.955Z</time></trkpt><trkpt lat="40.7648033" lon="14.8398575"><ele>558.0</ele><time>2026-04-12T07:03:10.953Z</time></trkpt><trkpt lat="40.764841" lon="14.8397495"><ele>556.3333333333334</ele><time>2026-04-12T07:03:11.958Z</time></trkpt><trkpt lat="40.7648861" lon="14.839642"><ele>554.6666666666667</ele><time>2026-04-12T07:03:12.948Z</time></trkpt><trkpt lat="40.7649346" lon="14.8395489"><ele>553.0</ele><time>2026-04-12T07:03:13.953Z</time></trkpt><trkpt lat="40.7649933" lon="14.8394686"><ele>553.0</ele><time>2026-04-12T07:03:15.041Z</time></trkpt><trkpt lat="40.7650656" lon="14.8394172"><ele>553.0</ele><time>2026-04-12T07:03:15.968Z</time></trkpt><trkpt lat="40.7651383" lon="14.839362"><ele>553.0</ele><time>2026-04-12T07:03:17.038Z</time></trkpt><trkpt lat="40.7652279" lon="14.8393"><ele>553.0</ele><time>2026-04-12T07:03:18.036Z</time></trkpt><trkpt lat="40.7653149" lon="14.8392436"><ele>553.0</ele><time>2026-04-12T07:03:18.951Z</time></trkpt><trkpt lat="40.7653753" lon="14.8391697"><ele>553.0</ele><time>2026-04-12T07:03:19.984Z</time></trkpt><trkpt lat="40.7654297" lon="14.8390926"><ele>552.1666666666667</ele><time>2026-04-12T07:03:20.962Z</time></trkpt><trkpt lat="40.7654843" lon="14.8390117"><ele>551.3333333333334</ele><time>2026-04-12T07:03:21.969Z</time></trkpt><trkpt lat="40.7655342" lon="14.8389302"><ele>550.5</ele><time>2026-04-12T07:03:23.045Z</time></trkpt><trkpt lat="40.7655781" lon="14.8388552"><ele>549.6666666666666</ele><time>2026-04-12T07:03:24.03Z</time></trkpt><trkpt lat="40.7656724" lon="14.8387709"><ele>548.8333333333333</ele><time>2026-04-12T07:03:25.96Z</time></trkpt><trkpt lat="40.7657433" lon="14.8387441"><ele>548.0</ele><time>2026-04-12T07:03:26.967Z</time></trkpt><trkpt lat="40.7658323" lon="14.8387209"><ele>548.0</ele><time>2026-04-12T07:03:27.975Z</time></trkpt><trkpt lat="40.7659172" lon="14.8386948"><ele>548.0</ele><time>2026-04-12T07:03:28.992Z</time></trkpt><trkpt lat="40.7659943" lon="14.8386346"><ele>548.0</ele><time>2026-04-12T07:03:30.958Z</time></trkpt><trkpt lat="40.7659621" lon="14.8385243"><ele>548.0</ele><time>2026-04-12T07:03:32.049Z</time></trkpt><trkpt lat="40.7659295" lon="14.8384326"><ele>548.0</ele><time>2026-04-12T07:03:33.037Z</time></trkpt><trkpt lat="40.7659679" lon="14.8383468"><ele>548.0</ele><time>2026-04-12T07:03:34.04Z</time></trkpt><trkpt lat="40.7660251" lon="14.8382805"><ele>547.5</ele><time>2026-04-12T07:03:35.041Z</time></trkpt><trkpt lat="40.7660967" lon="14.838199"><ele>547.0</ele><time>2026-04-12T07:03:35.959Z</time></trkpt><trkpt lat="40.766153" lon="14.8381366"><ele>546.5</ele><time>2026-04-12T07:03:36.962Z</time></trkpt><trkpt lat="40.7662584" lon="14.8380718"><ele>546.0</ele><time>2026-04-12T07:03:38.958Z</time></trkpt><trkpt lat="40.7663036" lon="14.8379985"><ele>545.5</ele><time>2026-04-12T07:03:40.952Z</time></trkpt><trkpt lat="40.7663666" lon="14.8379544"><ele>545.0</ele><time>2026-04-12T07:03:42.941Z</time></trkpt><trkpt lat="40.7664607" lon="14.838018"><ele>545.0</ele><time>2026-04-12T07:03:46.936Z</time></trkpt><trkpt lat="40.7663949" lon="14.8379871"><ele>545.0</ele><time>2026-04-12T07:03:50.937Z</time></trkpt><trkpt lat="40.7663135" lon="14.8379192"><ele>545.0</ele><time>2026-04-12T07:03:55.965Z</time></trkpt><trkpt lat="40.7662319" lon="14.8379154"><ele>545.0</ele><time>2026-04-12T07:04:18.959Z</time></trkpt><trkpt lat="40.7661468" lon="14.8379514"><ele>545.0</ele><time>2026-04-12T07:04:20.961Z</time></trkpt><trkpt lat="40.7660835" lon="14.837978"><ele>545.0</ele><time>2026-04-12T07:04:21.961Z</time></trkpt><trkpt lat="40.7659589" lon="14.8380436"><ele>545.6</ele><time>2026-04-12T07:04:23.941Z</time></trkpt><trkpt lat="40.7658993" lon="14.8381092"><ele>546.2</ele><time>2026-04-12T07:04:24.96Z</time></trkpt><trkpt lat="40.7658082" lon="14.838228"><ele>546.8</ele><time>2026-04-12T07:04:26.961Z</time></trkpt><trkpt lat="40.7657233" lon="14.8383287"><ele>547.4</ele><time>2026-04-12T07:04:28.956Z</time></trkpt><trkpt lat="40.765622" lon="14.8384215"><ele>548.0</ele><time>2026-04-12T07:04:30.959Z</time></trkpt><trkpt lat="40.7655737" lon="14.8384848"><ele>548.0</ele><time>2026-04-12T07:04:31.954Z</time></trkpt><trkpt lat="40.7655253" lon="14.8385401"><ele>548.0</ele><time>2026-04-12T07:04:32.963Z</time></trkpt><trkpt lat="40.7654197" lon="14.8386055"><ele>548.0</ele><time>2026-04-12T07:04:34.963Z</time></trkpt><trkpt lat="40.7653357" lon="14.8386464"><ele>548.0</ele><time>2026-04-12T07:04:36.95Z</time></trkpt><trkpt lat="40.7652143" lon="14.8387056"><ele>548.0</ele><time>2026-04-12T07:04:38.952Z</time></trkpt><trkpt lat="40.7651474" lon="14.8387215"><ele>544.4</ele><time>2026-04-12T07:04:39.956Z</time></trkpt><trkpt lat="40.7650791" lon="14.838701"><ele>540.8</ele><time>2026-04-12T07:04:40.955Z</time></trkpt><trkpt lat="40.7650129" lon="14.8386709"><ele>537.2</ele><time>2026-04-12T07:04:41.959Z</time></trkpt><trkpt lat="40.7649035" lon="14.8387133"><ele>533.6</ele><time>2026-04-12T07:04:43.962Z</time></trkpt><trkpt lat="40.7648324" lon="14.8387479"><ele>530.0</ele><time>2026-04-12T07:04:45.954Z</time></trkpt><trkpt lat="40.7647103" lon="14.8387128"><ele>530.0</ele><time>2026-04-12T07:04:47.958Z</time></trkpt><trkpt lat="40.7646474" lon="14.8386988"><ele>530.0</ele><time>2026-04-12T07:04:48.951Z</time></trkpt><trkpt lat="40.7645684" lon="14.8386678"><ele>530.0</ele><time>2026-04-12T07:04:49.95Z</time></trkpt><trkpt lat="40.7644929" lon="14.8385994"><ele>530.0</ele><time>2026-04-12T07:04:50.964Z</time></trkpt><trkpt lat="40.7644095" lon="14.8385476"><ele>530.0</ele><time>2026-04-12T07:04:51.947Z</time></trkpt><trkpt lat="40.7643223" lon="14.8384997"><ele>530.0</ele><time>2026-04-12T07:04:52.957Z</time></trkpt><trkpt lat="40.764254" lon="14.838456"><ele>528.6</ele><time>2026-04-12T07:04:53.959Z</time></trkpt><trkpt lat="40.7642029" lon="14.8383956"><ele>527.2</ele><time>2026-04-12T07:04:54.952Z</time></trkpt><trkpt lat="40.7641415" lon="14.8382815"><ele>525.8</ele><time>2026-04-12T07:04:56.952Z</time></trkpt><trkpt lat="40.76425" lon="14.8382171"><ele>524.4</ele><time>2026-04-12T07:05:01.953Z</time></trkpt><trkpt lat="40.764329" lon="14.8382396"><ele>523.0</ele><time>2026-04-12T07:05:02.96Z</time></trkpt><trkpt lat="40.7644042" lon="14.8382761"><ele>521.8</ele><time>2026-04-12T07:05:03.958Z</time></trkpt><trkpt lat="40.7644991" lon="14.838293"><ele>520.5999999999999</ele><time>2026-04-12T07:05:04.952Z</time></trkpt><trkpt lat="40.7646179" lon="14.8382848"><ele>519.4000000000001</ele><time>2026-04-12T07:05:05.959Z</time></trkpt><trkpt lat="40.7647248" lon="14.8382614"><ele>518.2</ele><time>2026-04-12T07:05:06.947Z</time></trkpt><trkpt lat="40.7648257" lon="14.8382031"><ele>517.0</ele><time>2026-04-12T07:05:07.939Z</time></trkpt><trkpt lat="40.7649224" lon="14.8381221"><ele>517.0</ele><time>2026-04-12T07:05:08.958Z</time></trkpt><trkpt lat="40.7649668" lon="14.8380001"><ele>517.0</ele><time>2026-04-12T07:05:09.952Z</time></trkpt><trkpt lat="40.7649756" lon="14.8378446"><ele>517.0</ele><time>2026-04-12T07:05:10.957Z</time></trkpt><trkpt lat="40.7649724" lon="14.8376864"><ele>517.0</ele><time>2026-04-12T07:05:11.954Z</time></trkpt><trkpt lat="40.7649462" lon="14.8375218"><ele>518.8000000000001</ele><time>2026-04-12T07:05:12.966Z</time></trkpt><trkpt lat="40.7649142" lon="14.8373682"><ele>520.6</ele><time>2026-04-12T07:05:13.959Z</time></trkpt><trkpt lat="40.7648689" lon="14.8372685"><ele>522.4000000000001</ele><time>2026-04-12T07:05:14.95Z</time></trkpt><trkpt lat="40.7647972" lon="14.8371428"><ele>524.2</ele><time>2026-04-12T07:05:16.951Z</time></trkpt><trkpt lat="40.7647982" lon="14.8369987"><ele>526.0</ele><time>2026-04-12T07:05:18.959Z</time></trkpt><trkpt lat="40.7648328" lon="14.8369125"><ele>526.0</ele><time>2026-04-12T07:05:19.959Z</time></trkpt><trkpt lat="40.7648722" lon="14.8368114"><ele>526.0</ele><time>2026-04-12T07:05:20.963Z</time></trkpt><trkpt lat="40.7649199" lon="14.8367164"><ele>526.0</ele><time>2026-04-12T07:05:21.956Z</time></trkpt><trkpt lat="40.7649602" lon="14.8366086"><ele>526.0</ele><time>2026-04-12T07:05:22.955Z</time></trkpt><trkpt lat="40.7649894" lon="14.8364962"><ele>526.0</ele><time>2026-04-12T07:05:23.951Z</time></trkpt><trkpt lat="40.7650037" lon="14.836369"><ele>528.8</ele><time>2026-04-12T07:05:24.961Z</time></trkpt><trkpt lat="40.765013" lon="14.8362287"><ele>531.6</ele><time>2026-04-12T07:05:25.964Z</time></trkpt><trkpt lat="40.7650384" lon="14.836087"><ele>534.4</ele><time>2026-04-12T07:05:26.965Z</time></trkpt><trkpt lat="40.7650697" lon="14.8359686"><ele>537.2</ele><time>2026-04-12T07:05:27.97Z</time></trkpt><trkpt lat="40.7650821" lon="14.8358446"><ele>540.0</ele><time>2026-04-12T07:05:28.956Z</time></trkpt><trkpt lat="40.7650592" lon="14.8357082"><ele>541.6</ele><time>2026-04-12T07:05:29.962Z</time></trkpt><trkpt lat="40.7650397" lon="14.8355447"><ele>543.2</ele><time>2026-04-12T07:05:30.969Z</time></trkpt><trkpt lat="40.7650061" lon="14.835385"><ele>544.8</ele><time>2026-04-12T07:05:31.958Z</time></trkpt><trkpt lat="40.7649723" lon="14.8352501"><ele>546.4</ele><time>2026-04-12T07:05:32.943Z</time></trkpt><trkpt lat="40.7649635" lon="14.8351337"><ele>548.0</ele><time>2026-04-12T07:05:33.956Z</time></trkpt><trkpt lat="40.7649587" lon="14.8350032"><ele>548.0</ele><time>2026-04-12T07:05:34.952Z</time></trkpt><trkpt lat="40.7649358" lon="14.8348696"><ele>548.0</ele><time>2026-04-12T07:05:35.944Z</time></trkpt><trkpt lat="40.7649388" lon="14.8347297"><ele>548.0</ele><time>2026-04-12T07:05:36.957Z</time></trkpt><trkpt lat="40.7649556" lon="14.8345864"><ele>548.0</ele><time>2026-04-12T07:05:37.961Z</time></trkpt><trkpt lat="40.76497" lon="14.8344401"><ele>548.0</ele><time>2026-04-12T07:05:38.958Z</time></trkpt><trkpt lat="40.7649776" lon="14.8343156"><ele>547.3333333333333</ele><time>2026-04-12T07:05:39.959Z</time></trkpt><trkpt lat="40.7649718" lon="14.834224"><ele>546.6666666666666</ele><time>2026-04-12T07:05:40.962Z</time></trkpt><trkpt lat="40.7649393" lon="14.8341201"><ele>546.0</ele><time>2026-04-12T07:05:41.959Z</time></trkpt><trkpt lat="40.7649095" lon="14.8340165"><ele>545.3333333333334</ele><time>2026-04-12T07:05:42.964Z</time></trkpt><trkpt lat="40.7648384" lon="14.8339021"><ele>544.6666666666667</ele><time>2026-04-12T07:05:44.963Z</time></trkpt><trkpt lat="40.7647659" lon="14.8338829"><ele>544.0</ele><time>2026-04-12T07:05:45.97Z</time></trkpt><trkpt lat="40.7646884" lon="14.8338346"><ele>544.0</ele><time>2026-04-12T07:05:46.962Z</time></trkpt><trkpt lat="40.7646134" lon="14.8337604"><ele>544.0</ele><time>2026-04-12T07:05:47.957Z</time></trkpt><trkpt lat="40.7645481" lon="14.8336776"><ele>544.0</ele><time>2026-04-12T07:05:48.963Z</time></trkpt><trkpt lat="40.7644969" lon="14.8336045"><ele>544.0</ele><time>2026-04-12T07:05:49.965Z</time></trkpt><trkpt lat="40.764456" lon="14.8335308"><ele>544.0</ele><time>2026-04-12T07:05:50.953Z</time></trkpt><trkpt lat="40.764421" lon="14.8334546"><ele>544.0</ele><time>2026-04-12T07:05:51.956Z</time></trkpt><trkpt lat="40.7644011" lon="14.8333118"><ele>542.8</ele><time>2026-04-12T07:05:53.96Z</time></trkpt><trkpt lat="40.764411" lon="14.8331624"><ele>541.5999999999999</ele><time>2026-04-12T07:05:55.958Z</time></trkpt><trkpt lat="40.7644091" lon="14.8330145"><ele>540.4</ele><time>2026-04-12T07:05:57.953Z</time></trkpt><trkpt lat="40.7643923" lon="14.8328858"><ele>539.1999999999999</ele><time>2026-04-12T07:05:59.961Z</time></trkpt><trkpt lat="40.7643851" lon="14.8327983"><ele>538.0</ele><time>2026-04-12T07:06:03.027Z</time></trkpt><trkpt lat="40.7643881" lon="14.8326923"><ele>538.1999999999999</ele><time>2026-04-12T07:06:14.964Z</time></trkpt><trkpt lat="40.7644073" lon="14.8325801"><ele>538.4</ele><time>2026-04-12T07:06:16.961Z</time></trkpt><trkpt lat="40.7644573" lon="14.8324879"><ele>538.5999999999999</ele><time>2026-04-12T07:06:18.954Z</time></trkpt><trkpt lat="40.7645232" lon="14.8323794"><ele>538.8</ele><time>2026-04-12T07:06:20.957Z</time></trkpt><trkpt lat="40.7645949" lon="14.8323133"><ele>539.0</ele><time>2026-04-12T07:06:21.964Z</time></trkpt><trkpt lat="40.7646775" lon="14.832229"><ele>539.0</ele><time>2026-04-12T07:06:22.955Z</time></trkpt><trkpt lat="40.7647729" lon="14.8321315"><ele>539.0</ele><time>2026-04-12T07:06:23.961Z</time></trkpt><trkpt lat="40.7648814" lon="14.8320426"><ele>539.0</ele><time>2026-04-12T07:06:24.965Z</time></trkpt><trkpt lat="40.764981" lon="14.8319848"><ele>539.0</ele><time>2026-04-12T07:06:25.959Z</time></trkpt><trkpt lat="40.7650531" lon="14.8319404"><ele>539.0</ele><time>2026-04-12T07:06:27.028Z</time></trkpt><trkpt lat="40.7651428" lon="14.8319073"><ele>541.6</ele><time>2026-04-12T07:06:28.974Z</time></trkpt><trkpt lat="40.7651467" lon="14.8317802"><ele>544.2</ele><time>2026-04-12T07:06:33.047Z</time></trkpt><trkpt lat="40.7650634" lon="14.8316557"><ele>546.8000000000001</ele><time>2026-04-12T07:06:34.96Z</time></trkpt><trkpt lat="40.7649857" lon="14.831584"><ele>549.4</ele><time>2026-04-12T07:06:35.955Z</time></trkpt><trkpt lat="40.7649132" lon="14.8315141"><ele>552.0</ele><time>2026-04-12T07:06:36.958Z</time></trkpt><trkpt lat="40.764853" lon="14.8314578"><ele>552.0</ele><time>2026-04-12T07:06:37.96Z</time></trkpt><trkpt lat="40.7647736" lon="14.831347"><ele>552.0</ele><time>2026-04-12T07:06:39.961Z</time></trkpt><trkpt lat="40.7647322" lon="14.8312579"><ele>552.0</ele><time>2026-04-12T07:06:41.976Z</time></trkpt><trkpt lat="40.7647491" lon="14.8311421"><ele>552.0</ele><time>2026-04-12T07:06:43.963Z</time></trkpt><trkpt lat="40.7648063" lon="14.8310356"><ele>552.0</ele><time>2026-04-12T07:06:45.966Z</time></trkpt><trkpt lat="40.7648679" lon="14.8309967"><ele>554.6666666666666</ele><time>2026-04-12T07:06:46.954Z</time></trkpt><trkpt lat="40.7649314" lon="14.8309486"><ele>557.3333333333334</ele><time>2026-04-12T07:06:47.955Z</time></trkpt><trkpt lat="40.7649899" lon="14.830895"><ele>560.0</ele><time>2026-04-12T07:06:48.953Z</time></trkpt><trkpt lat="40.7650306" lon="14.8307241"><ele>562.6666666666667</ele><time>2026-04-12T07:06:50.951Z</time></trkpt><trkpt lat="40.7650479" lon="14.8306114"><ele>565.3333333333334</ele><time>2026-04-12T07:06:51.951Z</time></trkpt><trkpt lat="40.7650776" lon="14.8305308"><ele>568.0</ele><time>2026-04-12T07:06:53.056Z</time></trkpt><trkpt lat="40.7651378" lon="14.8304837"><ele>566.4</ele><time>2026-04-12T07:06:55.959Z</time></trkpt><trkpt lat="40.7652329" lon="14.8305466"><ele>564.8</ele><time>2026-04-12T07:06:57.961Z</time></trkpt><trkpt lat="40.7653041" lon="14.8305841"><ele>563.2</ele><time>2026-04-12T07:06:58.976Z</time></trkpt><trkpt lat="40.7653839" lon="14.8306022"><ele>561.6</ele><time>2026-04-12T07:07:00.022Z</time></trkpt><trkpt lat="40.7654772" lon="14.8305939"><ele>560.0</ele><time>2026-04-12T07:07:00.952Z</time></trkpt><trkpt lat="40.7655827" lon="14.8305812"><ele>560.0</ele><time>2026-04-12T07:07:01.957Z</time></trkpt><trkpt lat="40.765693" lon="14.8305553"><ele>560.0</ele><time>2026-04-12T07:07:02.957Z</time></trkpt><trkpt lat="40.765797" lon="14.8305195"><ele>560.0</ele><time>2026-04-12T07:07:03.962Z</time></trkpt><trkpt lat="40.7659064" lon="14.830482"><ele>560.0</ele><time>2026-04-12T07:07:04.955Z</time></trkpt><trkpt lat="40.7660119" lon="14.8304482"><ele>560.0</ele><time>2026-04-12T07:07:05.957Z</time></trkpt><trkpt lat="40.7661327" lon="14.8304264"><ele>559.3333333333333</ele><time>2026-04-12T07:07:06.962Z</time></trkpt><trkpt lat="40.7662425" lon="14.8304084"><ele>558.6666666666666</ele><time>2026-04-12T07:07:07.967Z</time></trkpt><trkpt lat="40.7663333" lon="14.830394"><ele>558.0</ele><time>2026-04-12T07:07:09.043Z</time></trkpt><trkpt lat="40.7664056" lon="14.8303822"><ele>557.3333333333334</ele><time>2026-04-12T07:07:10.016Z</time></trkpt><trkpt lat="40.7664885" lon="14.8303528"><ele>556.6666666666667</ele><time>2026-04-12T07:07:10.948Z</time></trkpt><trkpt lat="40.7665647" lon="14.8303107"><ele>556.0</ele><time>2026-04-12T07:07:11.962Z</time></trkpt><trkpt lat="40.7666297" lon="14.8302406"><ele>556.0</ele><time>2026-04-12T07:07:12.956Z</time></trkpt><trkpt lat="40.7666604" lon="14.8301607"><ele>556.0</ele><time>2026-04-12T07:07:13.959Z</time></trkpt><trkpt lat="40.7665978" lon="14.8301071"><ele>556.0</ele><time>2026-04-12T07:07:16.961Z</time></trkpt><trkpt lat="40.7665356" lon="14.8301315"><ele>556.0</ele><time>2026-04-12T07:07:17.954Z</time></trkpt><trkpt lat="40.7664579" lon="14.8301659"><ele>556.0</ele><time>2026-04-12T07:07:18.951Z</time></trkpt><trkpt lat="40.7663779" lon="14.8301846"><ele>556.0</ele><time>2026-04-12T07:07:20.042Z</time></trkpt><trkpt lat="40.7662771" lon="14.8301514"><ele>560.4</ele><time>2026-04-12T07:07:20.958Z</time></trkpt><trkpt lat="40.7661597" lon="14.8301196"><ele>564.8</ele><time>2026-04-12T07:07:21.969Z</time></trkpt><trkpt lat="40.7660535" lon="14.8300662"><ele>569.1999999999999</ele><time>2026-04-12T07:07:22.981Z</time></trkpt><trkpt lat="40.765957" lon="14.8300292"><ele>573.6</ele><time>2026-04-12T07:07:23.965Z</time></trkpt><trkpt lat="40.7658594" lon="14.8299802"><ele>578.0</ele><time>2026-04-12T07:07:25.061Z</time></trkpt><trkpt lat="40.7656527" lon="14.8298923"><ele>579.4</ele><time>2026-04-12T07:07:26.96Z</time></trkpt><trkpt lat="40.7655621" lon="14.8298318"><ele>580.8</ele><time>2026-04-12T07:07:27.986Z</time></trkpt><trkpt lat="40.7654802" lon="14.8297707"><ele>582.2</ele><time>2026-04-12T07:07:29.049Z</time></trkpt><trkpt lat="40.7653931" lon="14.8297176"><ele>583.6</ele><time>2026-04-12T07:07:30.038Z</time></trkpt><trkpt lat="40.7653006" lon="14.829657"><ele>585.0</ele><time>2026-04-12T07:07:30.958Z</time></trkpt><trkpt lat="40.7652136" lon="14.829608"><ele>587.3333333333334</ele><time>2026-04-12T07:07:31.959Z</time></trkpt><trkpt lat="40.7651325" lon="14.8295851"><ele>589.6666666666666</ele><time>2026-04-12T07:07:33.105Z</time></trkpt><trkpt lat="40.7650574" lon="14.8295705"><ele>592.0</ele><time>2026-04-12T07:07:34.02Z</time></trkpt><trkpt lat="40.7649917" lon="14.8295817"><ele>594.3333333333333</ele><time>2026-04-12T07:07:35.019Z</time></trkpt><trkpt lat="40.7649203" lon="14.8295907"><ele>596.6666666666666</ele><time>2026-04-12T07:07:35.96Z</time></trkpt><trkpt lat="40.7648077" lon="14.8296524"><ele>599.0</ele><time>2026-04-12T07:07:37.995Z</time></trkpt><trkpt lat="40.7647077" lon="14.8297585"><ele>599.0</ele><time>2026-04-12T07:07:40.032Z</time></trkpt><trkpt lat="40.7646589" lon="14.829821"><ele>599.0</ele><time>2026-04-12T07:07:40.97Z</time></trkpt><trkpt lat="40.7646006" lon="14.8298857"><ele>599.0</ele><time>2026-04-12T07:07:41.966Z</time></trkpt><trkpt lat="40.7645328" lon="14.8299533"><ele>599.0</ele><time>2026-04-12T07:07:42.971Z</time></trkpt><trkpt lat="40.7644616" lon="14.830027"><ele>599.0</ele><time>2026-04-12T07:07:43.965Z</time></trkpt><trkpt lat="40.7644015" lon="14.8301052"><ele>599.0</ele><time>2026-04-12T07:07:44.972Z</time></trkpt><trkpt lat="40.7643393" lon="14.8301766"><ele>598.0</ele><time>2026-04-12T07:07:45.971Z</time></trkpt><trkpt lat="40.7642823" lon="14.830241"><ele>597.0</ele><time>2026-04-12T07:07:46.97Z</time></trkpt><trkpt lat="40.7642107" lon="14.8303032"><ele>596.0</ele><time>2026-04-12T07:07:47.973Z</time></trkpt><trkpt lat="40.7641435" lon="14.8303681"><ele>595.0</ele><time>2026-04-12T07:07:48.972Z</time></trkpt><trkpt lat="40.7640831" lon="14.8304159"><ele>594.0</ele><time>2026-04-12T07:07:50.024Z</time></trkpt><trkpt lat="40.7640135" lon="14.8304474"><ele>593.0</ele><time>2026-04-12T07:07:50.964Z</time></trkpt><trkpt lat="40.7639463" lon="14.8304755"><ele>593.0</ele><time>2026-04-12T07:07:51.969Z</time></trkpt><trkpt lat="40.7638817" lon="14.8304956"><ele>593.0</ele><time>2026-04-12T07:07:52.971Z</time></trkpt><trkpt lat="40.7638117" lon="14.8305742"><ele>593.0</ele><time>2026-04-12T07:07:54.982Z</time></trkpt><trkpt lat="40.7637508" lon="14.8306805"><ele>593.0</ele><time>2026-04-12T07:07:57.041Z</time></trkpt><trkpt lat="40.7636873" lon="14.8307794"><ele>593.0</ele><time>2026-04-12T07:07:59.04Z</time></trkpt><trkpt lat="40.7635669" lon="14.8307797"><ele>589.0</ele><time>2026-04-12T07:08:00.971Z</time></trkpt><trkpt lat="40.7634656" lon="14.8307368"><ele>585.0</ele><time>2026-04-12T07:08:01.974Z</time></trkpt><trkpt lat="40.7652136" lon="14.829608"><ele>587.3333333333334</ele><time>2026-04-12T07:07:31.959Z</time></trkpt><trkpt lat="40.7651325" lon="14.8295851"><ele>589.6666666666666</ele><time>2026-04-12T07:07:33.105Z</time></trkpt><trkpt lat="40.7650574" lon="14.8295705"><ele>592.0</ele><time>2026-04-12T07:07:34.02Z</time></trkpt><trkpt lat="40.7649917" lon="14.8295817"><ele>594.3333333333333</ele><time>2026-04-12T07:07:35.019Z</time></trkpt><trkpt lat="40.7649203" lon="14.8295907"><ele>596.6666666666666</ele><time>2026-04-12T07:07:35.96Z</time></trkpt><trkpt lat="40.7648077" lon="14.8296524"><ele>599.0</ele><time>2026-04-12T07:07:37.995Z</time></trkpt><trkpt lat="40.7647077" lon="14.8297585"><ele>599.0</ele><time>2026-04-12T07:07:40.032Z</time></trkpt><trkpt lat="40.7646589" lon="14.829821"><ele>599.0</ele><time>2026-04-12T07:07:40.97Z</time></trkpt><trkpt lat="40.7646006" lon="14.8298857"><ele>599.0</ele><time>2026-04-12T07:07:41.966Z</time></trkpt><trkpt lat="40.7645328" lon="14.8299533"><ele>599.0</ele><time>2026-04-12T07:07:42.971Z</time></trkpt><trkpt lat="40.7644616" lon="14.830027"><ele>599.0</ele><time>2026-04-12T07:07:43.965Z</time></trkpt><trkpt lat="40.7644015" lon="14.8301052"><ele>599.0</ele><time>2026-04-12T07:07:44.972Z</time></trkpt><trkpt lat="40.7643393" lon="14.8301766"><ele>598.0</ele><time>2026-04-12T07:07:45.971Z</time></trkpt><trkpt lat="40.7642823" lon="14.830241"><ele>597.0</ele><time>2026-04-12T07:07:46.97Z</time></trkpt><trkpt lat="40.7642107" lon="14.8303032"><ele>596.0</ele><time>2026-04-12T07:07:47.973Z</time></trkpt><trkpt lat="40.7641435" lon="14.8303681"><ele>595.0</ele><time>2026-04-12T07:07:48.972Z</time></trkpt><trkpt lat="40.7640831" lon="14.8304159"><ele>594.0</ele><time>2026-04-12T07:07:50.024Z</time></trkpt><trkpt lat="40.7640135" lon="14.8304474"><ele>593.0</ele><time>2026-04-12T07:07:50.964Z</time></trkpt><trkpt lat="40.7639463" lon="14.8304755"><ele>593.0</ele><time>2026-04-12T07:07:51.969Z</time></trkpt><trkpt lat="40.7638817" lon="14.8304956"><ele>593.0</ele><time>2026-04-12T07:07:52.971Z</time></trkpt><trkpt lat="40.7638117" lon="14.8305742"><ele>593.0</ele><time>2026-04-12T07:07:54.982Z</time></trkpt><trkpt lat="40.7637508" lon="14.8306805"><ele>593.0</ele><time>2026-04-12T07:07:57.041Z</time></trkpt><trkpt lat="40.7636873" lon="14.8307794"><ele>593.0</ele><time>2026-04-12T07:07:59.04Z</time></trkpt><trkpt lat="40.7635669" lon="14.8307797"><ele>596.4</ele><time>2026-04-12T07:08:00.971Z</time></trkpt><trkpt lat="40.7634656" lon="14.8307368"><ele>599.8</ele><time>2026-04-12T07:08:01.974Z</time></trkpt><trkpt lat="40.7633704" lon="14.8306954"><ele>603.2</ele><time>2026-04-12T07:08:02.973Z</time></trkpt><trkpt lat="40.7632636" lon="14.8306703"><ele>606.6</ele><time>2026-04-12T07:08:03.977Z</time></trkpt><trkpt lat="40.7631575" lon="14.8306451"><ele>610.0</ele><time>2026-04-12T07:08:04.972Z</time></trkpt><trkpt lat="40.7630545" lon="14.8306228"><ele>610.0</ele><time>2026-04-12T07:08:05.975Z</time></trkpt><trkpt lat="40.7629571" lon="14.8305968"><ele>610.0</ele><time>2026-04-12T07:08:06.969Z</time></trkpt><trkpt lat="40.7628555" lon="14.8305884"><ele>610.0</ele><time>2026-04-12T07:08:08.078Z</time></trkpt><trkpt lat="40.7627888" lon="14.8305871"><ele>610.0</ele><time>2026-04-12T07:08:09.03Z</time></trkpt><trkpt lat="40.7627283" lon="14.8305619"><ele>610.0</ele><time>2026-04-12T07:08:10.036Z</time></trkpt><trkpt lat="40.7626366" lon="14.8305122"><ele>610.0</ele><time>2026-04-12T07:08:11.965Z</time></trkpt><trkpt lat="40.7625274" lon="14.8304837"><ele>610.5</ele><time>2026-04-12T07:08:14.023Z</time></trkpt><trkpt lat="40.7624522" lon="14.8305174"><ele>611.0</ele><time>2026-04-12T07:08:16.987Z</time></trkpt><trkpt lat="40.7623947" lon="14.8305547"><ele>611.5</ele><time>2026-04-12T07:08:18.959Z</time></trkpt><trkpt lat="40.7623324" lon="14.8305366"><ele>612.0</ele><time>2026-04-12T07:09:06.959Z</time></trkpt><trkpt lat="40.7623118" lon="14.830416"><ele>612.5</ele><time>2026-04-12T07:09:09.964Z</time></trkpt><trkpt lat="40.7622948" lon="14.8302942"><ele>613.0</ele><time>2026-04-12T07:09:10.962Z</time></trkpt><trkpt lat="40.7622792" lon="14.8301489"><ele>614.4</ele><time>2026-04-12T07:09:12.033Z</time></trkpt><trkpt lat="40.7622725" lon="14.8300001"><ele>615.8</ele><time>2026-04-12T07:09:13.041Z</time></trkpt><trkpt lat="40.7622497" lon="14.8298621"><ele>617.2</ele><time>2026-04-12T07:09:13.99Z</time></trkpt><trkpt lat="40.7622471" lon="14.8297244"><ele>618.6</ele><time>2026-04-12T07:09:14.961Z</time></trkpt><trkpt lat="40.7622501" lon="14.8295809"><ele>620.0</ele><time>2026-04-12T07:09:15.959Z</time></trkpt><trkpt lat="40.7622592" lon="14.8294345"><ele>620.0</ele><time>2026-04-12T07:09:16.949Z</time></trkpt><trkpt lat="40.7622591" lon="14.8293122"><ele>620.0</ele><time>2026-04-12T07:09:18.03Z</time></trkpt><trkpt lat="40.7622584" lon="14.8292036"><ele>620.0</ele><time>2026-04-12T07:09:19.013Z</time></trkpt><trkpt lat="40.7622534" lon="14.8291097"><ele>620.0</ele><time>2026-04-12T07:09:20.038Z</time></trkpt><trkpt lat="40.7621889" lon="14.8290136"><ele>620.0</ele><time>2026-04-12T07:09:21.961Z</time></trkpt><trkpt lat="40.7621063" lon="14.8290394"><ele>620.0</ele><time>2026-04-12T07:09:24.96Z</time></trkpt><trkpt lat="40.7620827" lon="14.8291542"><ele>620.0</ele><time>2026-04-12T07:09:25.955Z</time></trkpt><trkpt lat="40.7620581" lon="14.8293003"><ele>620.0</ele><time>2026-04-12T07:09:27.017Z</time></trkpt><trkpt lat="40.7620231" lon="14.8294352"><ele>620.0</ele><time>2026-04-12T07:09:28.021Z</time></trkpt><trkpt lat="40.7619774" lon="14.8295631"><ele>620.0</ele><time>2026-04-12T07:09:29.02Z</time></trkpt><trkpt lat="40.7619205" lon="14.8296953"><ele>620.0</ele><time>2026-04-12T07:09:29.963Z</time></trkpt><trkpt lat="40.761852" lon="14.8298197"><ele>618.0</ele><time>2026-04-12T07:09:30.955Z</time></trkpt><trkpt lat="40.7617838" lon="14.8299374"><ele>616.0</ele><time>2026-04-12T07:09:31.967Z</time></trkpt><trkpt lat="40.7617174" lon="14.8300259"><ele>614.0</ele><time>2026-04-12T07:09:32.962Z</time></trkpt><trkpt lat="40.7616425" lon="14.8301028"><ele>612.0</ele><time>2026-04-12T07:09:33.962Z</time></trkpt><trkpt lat="40.7615606" lon="14.8301706"><ele>610.0</ele><time>2026-04-12T07:09:34.962Z</time></trkpt><trkpt lat="40.7614716" lon="14.8302448"><ele>610.0</ele><time>2026-04-12T07:09:35.957Z</time></trkpt><trkpt lat="40.7613982" lon="14.8303231"><ele>610.0</ele><time>2026-04-12T07:09:36.955Z</time></trkpt><trkpt lat="40.7613378" lon="14.8303949"><ele>610.0</ele><time>2026-04-12T07:09:37.963Z</time></trkpt><trkpt lat="40.7612805" lon="14.8304396"><ele>610.0</ele><time>2026-04-12T07:09:38.964Z</time></trkpt><trkpt lat="40.7612109" lon="14.8304392"><ele>610.0</ele><time>2026-04-12T07:09:39.958Z</time></trkpt><trkpt lat="40.7611317" lon="14.8304009"><ele>610.0</ele><time>2026-04-12T07:09:40.966Z</time></trkpt><trkpt lat="40.7610578" lon="14.8303808"><ele>607.8333333333334</ele><time>2026-04-12T07:09:41.967Z</time></trkpt><trkpt lat="40.7609748" lon="14.830371"><ele>605.6666666666667</ele><time>2026-04-12T07:09:42.963Z</time></trkpt><trkpt lat="40.7609062" lon="14.8303965"><ele>603.5</ele><time>2026-04-12T07:09:43.945Z</time></trkpt><trkpt lat="40.7608286" lon="14.8304274"><ele>601.3333333333334</ele><time>2026-04-12T07:09:44.966Z</time></trkpt><trkpt lat="40.760728" lon="14.8304463"><ele>599.1666666666666</ele><time>2026-04-12T07:09:46.969Z</time></trkpt><trkpt lat="40.7606642" lon="14.8304421"><ele>597.0</ele><time>2026-04-12T07:09:47.963Z</time></trkpt><trkpt lat="40.7605778" lon="14.8303513"><ele>597.0</ele><time>2026-04-12T07:09:49.96Z</time></trkpt><trkpt lat="40.7605174" lon="14.8302682"><ele>597.0</ele><time>2026-04-12T07:09:50.964Z</time></trkpt><trkpt lat="40.7604267" lon="14.830183"><ele>597.0</ele><time>2026-04-12T07:09:51.969Z</time></trkpt><trkpt lat="40.7603346" lon="14.8300999"><ele>597.0</ele><time>2026-04-12T07:09:52.968Z</time></trkpt><trkpt lat="40.760245" lon="14.8300144"><ele>597.0</ele><time>2026-04-12T07:09:53.97Z</time></trkpt><trkpt lat="40.7601506" lon="14.8299431"><ele>590.0</ele><time>2026-04-12T07:09:54.967Z</time></trkpt><trkpt lat="40.7600523" lon="14.8298701"><ele>583.0</ele><time>2026-04-12T07:09:55.963Z</time></trkpt><trkpt lat="40.7599619" lon="14.8297994"><ele>576.0</ele><time>2026-04-12T07:09:56.96Z</time></trkpt><trkpt lat="40.7598659" lon="14.829714"><ele>569.0</ele><time>2026-04-12T07:09:57.965Z</time></trkpt><trkpt lat="40.7597711" lon="14.8296203"><ele>569.0</ele><time>2026-04-12T07:09:58.971Z</time></trkpt><trkpt lat="40.7596857" lon="14.8295251"><ele>569.0</ele><time>2026-04-12T07:09:59.962Z</time></trkpt><trkpt lat="40.7596008" lon="14.8294259"><ele>569.0</ele><time>2026-04-12T07:10:00.954Z</time></trkpt><trkpt lat="40.759511" lon="14.8293348"><ele>569.0</ele><time>2026-04-12T07:10:01.957Z</time></trkpt><trkpt lat="40.7594257" lon="14.8292462"><ele>569.0</ele><time>2026-04-12T07:10:02.957Z</time></trkpt><trkpt lat="40.75934" lon="14.8291593"><ele>566.0</ele><time>2026-04-12T07:10:03.964Z</time></trkpt><trkpt lat="40.7592563" lon="14.8290773"><ele>563.0</ele><time>2026-04-12T07:10:04.968Z</time></trkpt><trkpt lat="40.7591767" lon="14.8289909"><ele>560.0</ele><time>2026-04-12T07:10:05.957Z</time></trkpt><trkpt lat="40.75911" lon="14.8288962"><ele>557.0</ele><time>2026-04-12T07:10:06.955Z</time></trkpt><trkpt lat="40.75905" lon="14.828786"><ele>554.0</ele><time>2026-04-12T07:10:07.965Z</time></trkpt><trkpt lat="40.759006" lon="14.8286971"><ele>554.0</ele><time>2026-04-12T07:10:08.97Z</time></trkpt><trkpt lat="40.7589541" lon="14.8286258"><ele>554.0</ele><time>2026-04-12T07:10:09.962Z</time></trkpt><trkpt lat="40.7588785" lon="14.8285751"><ele>554.0</ele><time>2026-04-12T07:10:10.964Z</time></trkpt><trkpt lat="40.7588015" lon="14.8285574"><ele>554.0</ele><time>2026-04-12T07:10:11.967Z</time></trkpt><trkpt lat="40.7586822" lon="14.8285675"><ele>554.0</ele><time>2026-04-12T07:10:12.968Z</time></trkpt><trkpt lat="40.7585654" lon="14.8286229"><ele>552.4</ele><time>2026-04-12T07:10:13.969Z</time></trkpt><trkpt lat="40.7584602" lon="14.8286871"><ele>550.8</ele><time>2026-04-12T07:10:14.967Z</time></trkpt><trkpt lat="40.758383" lon="14.8287821"><ele>549.2</ele><time>2026-04-12T07:10:15.962Z</time></trkpt><trkpt lat="40.7583139" lon="14.8288883"><ele>547.6</ele><time>2026-04-12T07:10:16.968Z</time></trkpt><trkpt lat="40.7582499" lon="14.8289945"><ele>546.0</ele><time>2026-04-12T07:10:17.959Z</time></trkpt><trkpt lat="40.7582053" lon="14.8291086"><ele>546.0</ele><time>2026-04-12T07:10:18.963Z</time></trkpt><trkpt lat="40.7581738" lon="14.829229"><ele>546.0</ele><time>2026-04-12T07:10:19.96Z</time></trkpt><trkpt lat="40.7581449" lon="14.8293466"><ele>546.0</ele><time>2026-04-12T07:10:20.969Z</time></trkpt><trkpt lat="40.7580983" lon="14.8294311"><ele>546.0</ele><time>2026-04-12T07:10:21.964Z</time></trkpt><trkpt lat="40.7580393" lon="14.8294804"><ele>546.0</ele><time>2026-04-12T07:10:22.958Z</time></trkpt><trkpt lat="40.7579748" lon="14.8294853"><ele>546.0</ele><time>2026-04-12T07:10:23.957Z</time></trkpt><trkpt lat="40.7579275" lon="14.8294265"><ele>546.0</ele><time>2026-04-12T07:10:24.966Z</time></trkpt><trkpt lat="40.7578914" lon="14.829357"><ele>546.0</ele><time>2026-04-12T07:10:25.973Z</time></trkpt><trkpt lat="40.7578673" lon="14.8292646"><ele>546.0</ele><time>2026-04-12T07:10:26.957Z</time></trkpt><trkpt lat="40.7578569" lon="14.8291566"><ele>546.0</ele><time>2026-04-12T07:10:27.959Z</time></trkpt><trkpt lat="40.7578464" lon="14.8290478"><ele>546.0</ele><time>2026-04-12T07:10:28.966Z</time></trkpt><trkpt lat="40.7578434" lon="14.8289261"><ele>546.0</ele><time>2026-04-12T07:10:29.958Z</time></trkpt><trkpt lat="40.7578541" lon="14.8288092"><ele>546.0</ele><time>2026-04-12T07:10:30.955Z</time></trkpt><trkpt lat="40.757873" lon="14.828689"><ele>546.0</ele><time>2026-04-12T07:10:31.962Z</time></trkpt><trkpt lat="40.7579015" lon="14.8285596"><ele>546.0</ele><time>2026-04-12T07:10:32.955Z</time></trkpt><trkpt lat="40.7579339" lon="14.8284237"><ele>546.0</ele><time>2026-04-12T07:10:33.958Z</time></trkpt><trkpt lat="40.7579483" lon="14.8282908"><ele>546.0</ele><time>2026-04-12T07:10:34.967Z</time></trkpt><trkpt lat="40.7579443" lon="14.8281521"><ele>543.0</ele><time>2026-04-12T07:10:35.954Z</time></trkpt><trkpt lat="40.7579497" lon="14.8280183"><ele>540.0</ele><time>2026-04-12T07:10:36.971Z</time></trkpt><trkpt lat="40.7579421" lon="14.8278858"><ele>537.0</ele><time>2026-04-12T07:10:38.033Z</time></trkpt><trkpt lat="40.7579373" lon="14.8277684"><ele>534.0</ele><time>2026-04-12T07:10:38.954Z</time></trkpt><trkpt lat="40.7579363" lon="14.8276631"><ele>531.0</ele><time>2026-04-12T07:10:39.965Z</time></trkpt><trkpt lat="40.7579359" lon="14.8275564"><ele>531.0</ele><time>2026-04-12T07:10:40.961Z</time></trkpt><trkpt lat="40.7579384" lon="14.8274579"><ele>531.0</ele><time>2026-04-12T07:10:41.97Z</time></trkpt><trkpt lat="40.7579411" lon="14.8273399"><ele>531.0</ele><time>2026-04-12T07:10:43.971Z</time></trkpt><trkpt lat="40.757876" lon="14.8273942"><ele>531.0</ele><time>2026-04-12T07:10:55.959Z</time></trkpt><trkpt lat="40.7578462" lon="14.827531"><ele>531.0</ele><time>2026-04-12T07:10:57.971Z</time></trkpt><trkpt lat="40.7578288" lon="14.8276226"><ele>531.0</ele><time>2026-04-12T07:10:58.953Z</time></trkpt><trkpt lat="40.7577941" lon="14.8277698"><ele>531.0</ele><time>2026-04-12T07:11:00.955Z</time></trkpt><trkpt lat="40.7577847" lon="14.8278576"><ele>531.0</ele><time>2026-04-12T07:11:01.969Z</time></trkpt><trkpt lat="40.7577423" lon="14.8279433"><ele>531.0</ele><time>2026-04-12T07:11:05.038Z</time></trkpt><trkpt lat="40.7576895" lon="14.8280269"><ele>531.0</ele><time>2026-04-12T07:11:08.009Z</time></trkpt><trkpt lat="40.7576448" lon="14.828088"><ele>531.0</ele><time>2026-04-12T07:11:09.975Z</time></trkpt><trkpt lat="40.7576274" lon="14.8281982"><ele>531.0</ele><time>2026-04-12T07:11:13.053Z</time></trkpt><trkpt lat="40.7576013" lon="14.8282995"><ele>531.5</ele><time>2026-04-12T07:11:14.965Z</time></trkpt><trkpt lat="40.7575493" lon="14.8284192"><ele>532.0</ele><time>2026-04-12T07:11:16.962Z</time></trkpt><trkpt lat="40.7575158" lon="14.828557"><ele>532.5</ele><time>2026-04-12T07:11:18.976Z</time></trkpt><trkpt lat="40.7574573" lon="14.8287671"><ele>533.0</ele><time>2026-04-12T07:11:21.968Z</time></trkpt><trkpt lat="40.7574142" lon="14.828909"><ele>536.0</ele><time>2026-04-12T07:11:23.967Z</time></trkpt><trkpt lat="40.757373" lon="14.8290411"><ele>539.0</ele><time>2026-04-12T07:11:25.971Z</time></trkpt><trkpt lat="40.7573726" lon="14.8291457"><ele>542.0</ele><time>2026-04-12T07:11:27.97Z</time></trkpt><trkpt lat="40.7573798" lon="14.8292704"><ele>545.0</ele><time>2026-04-12T07:11:29.951Z</time></trkpt><trkpt lat="40.7573854" lon="14.8293824"><ele>548.0</ele><time>2026-04-12T07:11:32.043Z</time></trkpt><trkpt lat="40.7573941" lon="14.8295433"><ele>550.6666666666666</ele><time>2026-04-12T07:11:35.96Z</time></trkpt><trkpt lat="40.7574107" lon="14.829684"><ele>553.3333333333333</ele><time>2026-04-12T07:11:41.985Z</time></trkpt><trkpt lat="40.7573972" lon="14.8297768"><ele>556.0</ele><time>2026-04-12T07:11:43.977Z</time></trkpt><trkpt lat="40.7573967" lon="14.829879"><ele>558.6666666666666</ele><time>2026-04-12T07:11:46.958Z</time></trkpt><trkpt lat="40.7574297" lon="14.830002"><ele>561.3333333333334</ele><time>2026-04-12T07:11:50.042Z</time></trkpt><trkpt lat="40.7574444" lon="14.8300847"><ele>564.0</ele><time>2026-04-12T07:11:51.971Z</time></trkpt><trkpt lat="40.7574686" lon="14.8301626"><ele>567.3333333333334</ele><time>2026-04-12T07:11:53.98Z</time></trkpt><trkpt lat="40.7575059" lon="14.8302537"><ele>570.6666666666666</ele><time>2026-04-12T07:11:56.972Z</time></trkpt><trkpt lat="40.7575298" lon="14.8303501"><ele>574.0</ele><time>2026-04-12T07:11:59.975Z</time></trkpt><trkpt lat="40.7575389" lon="14.8304362"><ele>577.3333333333333</ele><time>2026-04-12T07:12:01.971Z</time></trkpt><trkpt lat="40.7575522" lon="14.8305308"><ele>580.6666666666666</ele><time>2026-04-12T07:12:03.983Z</time></trkpt><trkpt lat="40.7575537" lon="14.8306618"><ele>584.0</ele><time>2026-04-12T07:12:06.974Z</time></trkpt><trkpt lat="40.7575464" lon="14.8307771"><ele>584.0</ele><time>2026-04-12T07:12:08.956Z</time></trkpt><trkpt lat="40.7575015" lon="14.8308799"><ele>584.0</ele><time>2026-04-12T07:12:10.977Z</time></trkpt><trkpt lat="40.7574727" lon="14.8309546"><ele>584.0</ele><time>2026-04-12T07:12:11.979Z</time></trkpt><trkpt lat="40.7574389" lon="14.8310557"><ele>584.0</ele><time>2026-04-12T07:12:14.057Z</time></trkpt><trkpt lat="40.7574003" lon="14.8311378"><ele>584.0</ele><time>2026-04-12T07:12:15.971Z</time></trkpt><trkpt lat="40.7573458" lon="14.8311934"><ele>584.0</ele><time>2026-04-12T07:12:18.971Z</time></trkpt><trkpt lat="40.7573347" lon="14.8312872"><ele>587.6666666666666</ele><time>2026-04-12T07:12:21.024Z</time></trkpt><trkpt lat="40.7572946" lon="14.831355"><ele>591.3333333333333</ele><time>2026-04-12T07:12:22.972Z</time></trkpt><trkpt lat="40.7572474" lon="14.8314195"><ele>595.0</ele><time>2026-04-12T07:12:24.981Z</time></trkpt><trkpt lat="40.7571889" lon="14.8314641"><ele>598.6666666666666</ele><time>2026-04-12T07:12:28.973Z</time></trkpt><trkpt lat="40.7571711" lon="14.8315565"><ele>602.3333333333334</ele><time>2026-04-12T07:12:30.98Z</time></trkpt><trkpt lat="40.7571295" lon="14.8317077"><ele>606.0</ele><time>2026-04-12T07:12:33.98Z</time></trkpt><trkpt lat="40.757113" lon="14.8318116"><ele>609.6666666666666</ele><time>2026-04-12T07:12:35.978Z</time></trkpt><trkpt lat="40.7571074" lon="14.8319119"><ele>613.3333333333334</ele><time>2026-04-12T07:12:37.978Z</time></trkpt><trkpt lat="40.7571254" lon="14.8320185"><ele>617.0</ele><time>2026-04-12T07:12:39.974Z</time></trkpt><trkpt lat="40.7571429" lon="14.8321216"><ele>620.6666666666667</ele><time>2026-04-12T07:12:42.048Z</time></trkpt><trkpt lat="40.7571422" lon="14.8322656"><ele>624.3333333333334</ele><time>2026-04-12T07:12:44.967Z</time></trkpt><trkpt lat="40.7571362" lon="14.8323703"><ele>628.0</ele><time>2026-04-12T07:12:46.967Z</time></trkpt><trkpt lat="40.7571121" lon="14.8324637"><ele>628.0</ele><time>2026-04-12T07:12:48.956Z</time></trkpt><trkpt lat="40.7570975" lon="14.8325648"><ele>628.0</ele><time>2026-04-12T07:12:51.962Z</time></trkpt><trkpt lat="40.7571177" lon="14.8326502"><ele>628.0</ele><time>2026-04-12T07:12:55.959Z</time></trkpt><trkpt lat="40.7571529" lon="14.8327944"><ele>628.0</ele><time>2026-04-12T07:13:25.971Z</time></trkpt><trkpt lat="40.7572004" lon="14.8328505"><ele>628.0</ele><time>2026-04-12T07:13:28.974Z</time></trkpt><trkpt lat="40.7572671" lon="14.8329108"><ele>628.0</ele><time>2026-04-12T07:13:31.972Z</time></trkpt><trkpt lat="40.7573639" lon="14.8329374"><ele>633.5999999999999</ele><time>2026-04-12T07:13:34.971Z</time></trkpt><trkpt lat="40.7574455" lon="14.8329429"><ele>639.1999999999999</ele><time>2026-04-12T07:13:36.973Z</time></trkpt><trkpt lat="40.757538" lon="14.8329576"><ele>644.8</ele><time>2026-04-12T07:13:39.965Z</time></trkpt><trkpt lat="40.757644" lon="14.8329834"><ele>650.4</ele><time>2026-04-12T07:13:43.965Z</time></trkpt><trkpt lat="40.7577295" lon="14.8329904"><ele>656.0</ele><time>2026-04-12T07:13:45.972Z</time></trkpt><trkpt lat="40.7578219" lon="14.8330049"><ele>656.0</ele><time>2026-04-12T07:13:47.971Z</time></trkpt><trkpt lat="40.7576863" lon="14.8329266"><ele>656.0</ele><time>2026-04-12T07:13:48.968Z</time></trkpt><trkpt lat="40.7578482" lon="14.8330095"><ele>656.0</ele><time>2026-04-12T07:13:49.981Z</time></trkpt><trkpt lat="40.7579621" lon="14.8330361"><ele>656.0</ele><time>2026-04-12T07:13:50.966Z</time></trkpt><trkpt lat="40.7580992" lon="14.8330377"><ele>660.1999999999999</ele><time>2026-04-12T07:13:51.971Z</time></trkpt><trkpt lat="40.7582541" lon="14.8330362"><ele>664.4</ele><time>2026-04-12T07:13:53.043Z</time></trkpt><trkpt lat="40.7583549" lon="14.8330467"><ele>668.6</ele><time>2026-04-12T07:13:54.049Z</time></trkpt><trkpt lat="40.7584261" lon="14.8330594"><ele>672.8</ele><time>2026-04-12T07:13:54.955Z</time></trkpt><trkpt lat="40.7585259" lon="14.8330848"><ele>677.0</ele><time>2026-04-12T07:13:56.967Z</time></trkpt><trkpt lat="40.7585926" lon="14.8331289"><ele>680.5</ele><time>2026-04-12T07:14:00.873Z</time></trkpt><trkpt lat="40.7586407" lon="14.8332121"><ele>684.0</ele><time>2026-04-12T07:14:05.972Z</time></trkpt><trkpt lat="40.7586719" lon="14.8333036"><ele>687.5</ele><time>2026-04-12T07:14:08.977Z</time></trkpt><trkpt lat="40.7588279" lon="14.8334651"><ele>691.0</ele><time>2026-04-12T07:14:12.047Z</time></trkpt><trkpt lat="40.7589218" lon="14.8334986"><ele>691.0</ele><time>2026-04-12T07:14:13.968Z</time></trkpt><trkpt lat="40.7590164" lon="14.8334621"><ele>691.0</ele><time>2026-04-12T07:14:15.972Z</time></trkpt><trkpt lat="40.7591269" lon="14.8333709"><ele>691.0</ele><time>2026-04-12T07:14:17.971Z</time></trkpt><trkpt lat="40.7591856" lon="14.8333242"><ele>691.0</ele><time>2026-04-12T07:14:19.063Z</time></trkpt><trkpt lat="40.7592897" lon="14.8332271"><ele>691.0</ele><time>2026-04-12T07:14:20.959Z</time></trkpt><trkpt lat="40.7593549" lon="14.8330863"><ele>693.4</ele><time>2026-04-12T07:14:21.961Z</time></trkpt><trkpt lat="40.7594439" lon="14.8328928"><ele>695.8</ele><time>2026-04-12T07:14:22.973Z</time></trkpt><trkpt lat="40.7594993" lon="14.832807"><ele>698.1999999999999</ele><time>2026-04-12T07:14:23.973Z</time></trkpt><trkpt lat="40.7595949" lon="14.8327187"><ele>700.5999999999999</ele><time>2026-04-12T07:14:25.976Z</time></trkpt><trkpt lat="40.7596555" lon="14.8326959"><ele>703.0</ele><time>2026-04-12T07:14:26.979Z</time></trkpt><trkpt lat="40.7597466" lon="14.8326431"><ele>697.8333333333334</ele><time>2026-04-12T07:14:27.99Z</time></trkpt><trkpt lat="40.7598275" lon="14.832595"><ele>692.6666666666667</ele><time>2026-04-12T07:14:28.988Z</time></trkpt><trkpt lat="40.7599032" lon="14.8325615"><ele>687.5</ele><time>2026-04-12T07:14:29.965Z</time></trkpt><trkpt lat="40.7599736" lon="14.8325339"><ele>682.3333333333334</ele><time>2026-04-12T07:14:30.967Z</time></trkpt><trkpt lat="40.7600471" lon="14.8325119"><ele>677.1666666666666</ele><time>2026-04-12T07:14:31.97Z</time></trkpt><trkpt lat="40.7601222" lon="14.8324997"><ele>672.0</ele><time>2026-04-12T07:14:32.973Z</time></trkpt><trkpt lat="40.7601954" lon="14.8324942"><ele>670.1666666666666</ele><time>2026-04-12T07:14:33.966Z</time></trkpt><trkpt lat="40.7602823" lon="14.8324868"><ele>668.3333333333334</ele><time>2026-04-12T07:14:34.947Z</time></trkpt><trkpt lat="40.7603583" lon="14.8324864"><ele>666.5</ele><time>2026-04-12T07:14:35.965Z</time></trkpt><trkpt lat="40.7604404" lon="14.8324768"><ele>664.6666666666667</ele><time>2026-04-12T07:14:36.968Z</time></trkpt><trkpt lat="40.7605236" lon="14.832469"><ele>662.8333333333334</ele><time>2026-04-12T07:14:37.965Z</time></trkpt><trkpt lat="40.7606021" lon="14.8324695"><ele>661.0</ele><time>2026-04-12T07:14:38.967Z</time></trkpt><trkpt lat="40.7606859" lon="14.8324686"><ele>661.0</ele><time>2026-04-12T07:14:39.958Z</time></trkpt><trkpt lat="40.7608022" lon="14.8324398"><ele>661.0</ele><time>2026-04-12T07:14:40.957Z</time></trkpt><trkpt lat="40.7609304" lon="14.8323931"><ele>661.0</ele><time>2026-04-12T07:14:42.049Z</time></trkpt><trkpt lat="40.7610503" lon="14.8323597"><ele>661.0</ele><time>2026-04-12T07:14:43.026Z</time></trkpt><trkpt lat="40.7611781" lon="14.8323263"><ele>654.25</ele><time>2026-04-12T07:14:44.035Z</time></trkpt><trkpt lat="40.7612966" lon="14.8322854"><ele>647.5</ele><time>2026-04-12T07:14:44.97Z</time></trkpt><trkpt lat="40.7613928" lon="14.8322137"><ele>640.75</ele><time>2026-04-12T07:14:45.958Z</time></trkpt><trkpt lat="40.7614784" lon="14.8321113"><ele>634.0</ele><time>2026-04-12T07:14:47.05Z</time></trkpt><trkpt lat="40.7615575" lon="14.8319586"><ele>632.5</ele><time>2026-04-12T07:14:48.044Z</time></trkpt><trkpt lat="40.7616266" lon="14.8317869"><ele>631.0</ele><time>2026-04-12T07:14:49.036Z</time></trkpt><trkpt lat="40.761693" lon="14.8316214"><ele>629.5</ele><time>2026-04-12T07:14:49.963Z</time></trkpt><trkpt lat="40.7617476" lon="14.831463"><ele>628.0</ele><time>2026-04-12T07:14:50.961Z</time></trkpt><trkpt lat="40.7617915" lon="14.8313128"><ele>628.0</ele><time>2026-04-12T07:14:51.966Z</time></trkpt><trkpt lat="40.7618311" lon="14.8311721"><ele>628.0</ele><time>2026-04-12T07:14:53.044Z</time></trkpt><trkpt lat="40.7618769" lon="14.8310397"><ele>628.0</ele><time>2026-04-12T07:14:54.023Z</time></trkpt><trkpt lat="40.761946" lon="14.8309237"><ele>628.0</ele><time>2026-04-12T07:14:55.04Z</time></trkpt><trkpt lat="40.7620298" lon="14.8308027"><ele>624.25</ele><time>2026-04-12T07:14:55.959Z</time></trkpt><trkpt lat="40.7621034" lon="14.8306855"><ele>620.5</ele><time>2026-04-12T07:14:56.974Z</time></trkpt><trkpt lat="40.7621561" lon="14.8305488"><ele>616.75</ele><time>2026-04-12T07:14:57.992Z</time></trkpt><trkpt lat="40.7621836" lon="14.8304121"><ele>613.0</ele><time>2026-04-12T07:14:58.969Z</time></trkpt><trkpt lat="40.7621894" lon="14.830253"><ele>614.75</ele><time>2026-04-12T07:14:59.96Z</time></trkpt><trkpt lat="40.762202" lon="14.8300907"><ele>616.5</ele><time>2026-04-12T07:15:00.959Z</time></trkpt><trkpt lat="40.7622163" lon="14.8299351"><ele>618.25</ele><time>2026-04-12T07:15:01.96Z</time></trkpt><trkpt lat="40.7622385" lon="14.8297764"><ele>620.0</ele><time>2026-04-12T07:15:02.99Z</time></trkpt><trkpt lat="40.762252" lon="14.8296161"><ele>620.0</ele><time>2026-04-12T07:15:03.958Z</time></trkpt><trkpt lat="40.7622642" lon="14.829455"><ele>620.0</ele><time>2026-04-12T07:15:04.959Z</time></trkpt><trkpt lat="40.7622793" lon="14.8293049"><ele>620.0</ele><time>2026-04-12T07:15:05.964Z</time></trkpt><trkpt lat="40.7622736" lon="14.8291802"><ele>620.0</ele><time>2026-04-12T07:15:07.02Z</time></trkpt><trkpt lat="40.7622628" lon="14.8290811"><ele>620.0</ele><time>2026-04-12T07:15:07.954Z</time></trkpt><trkpt lat="40.7622183" lon="14.8289791"><ele>620.0</ele><time>2026-04-12T07:15:10.024Z</time></trkpt><trkpt lat="40.7621249" lon="14.8291053"><ele>620.0</ele><time>2026-04-12T07:15:12.942Z</time></trkpt><trkpt lat="40.762095" lon="14.829225"><ele>620.0</ele><time>2026-04-12T07:15:13.959Z</time></trkpt><trkpt lat="40.7620507" lon="14.8293682"><ele>620.0</ele><time>2026-04-12T07:15:14.958Z</time></trkpt><trkpt lat="40.7620045" lon="14.8295087"><ele>620.0</ele><time>2026-04-12T07:15:15.962Z</time></trkpt><trkpt lat="40.7619401" lon="14.8296199"><ele>620.0</ele><time>2026-04-12T07:15:16.959Z</time></trkpt><trkpt lat="40.7618668" lon="14.8297429"><ele>620.0</ele><time>2026-04-12T07:15:17.957Z</time></trkpt><trkpt lat="40.7617974" lon="14.8298673"><ele>620.0</ele><time>2026-04-12T07:15:18.964Z</time></trkpt><trkpt lat="40.761733" lon="14.829973"><ele>620.0</ele><time>2026-04-12T07:15:19.962Z</time></trkpt><trkpt lat="40.7616747" lon="14.8300496"><ele>618.3333333333333</ele><time>2026-04-12T07:15:20.956Z</time></trkpt><trkpt lat="40.7615892" lon="14.8301055"><ele>616.6666666666666</ele><time>2026-04-12T07:15:21.964Z</time></trkpt><trkpt lat="40.7615124" lon="14.8301651"><ele>615.0</ele><time>2026-04-12T07:15:22.969Z</time></trkpt><trkpt lat="40.7614478" lon="14.8302339"><ele>613.3333333333334</ele><time>2026-04-12T07:15:23.959Z</time></trkpt><trkpt lat="40.7613885" lon="14.8303145"><ele>611.6666666666667</ele><time>2026-04-12T07:15:24.962Z</time></trkpt><trkpt lat="40.7613383" lon="14.8303844"><ele>610.0</ele><time>2026-04-12T07:15:25.963Z</time></trkpt><trkpt lat="40.7612498" lon="14.8304382"><ele>610.0</ele><time>2026-04-12T07:15:27.941Z</time></trkpt><trkpt lat="40.7611443" lon="14.8303775"><ele>610.0</ele><time>2026-04-12T07:15:29.939Z</time></trkpt><trkpt lat="40.7610693" lon="14.8304115"><ele>610.0</ele><time>2026-04-12T07:15:31.941Z</time></trkpt><trkpt lat="40.7609914" lon="14.8304154"><ele>610.0</ele><time>2026-04-12T07:15:35.96Z</time></trkpt><trkpt lat="40.760928" lon="14.8303295"><ele>610.0</ele><time>2026-04-12T07:15:36.947Z</time></trkpt><trkpt lat="40.760844" lon="14.8302401"><ele>606.75</ele><time>2026-04-12T07:15:37.939Z</time></trkpt><trkpt lat="40.7607303" lon="14.8301442"><ele>603.5</ele><time>2026-04-12T07:15:38.962Z</time></trkpt><trkpt lat="40.7606096" lon="14.8300722"><ele>600.25</ele><time>2026-04-12T07:15:39.956Z</time></trkpt><trkpt lat="40.7604788" lon="14.8300032"><ele>597.0</ele><time>2026-04-12T07:15:40.962Z</time></trkpt><trkpt lat="40.7603812" lon="14.8299435"><ele>590.0</ele><time>2026-04-12T07:15:41.97Z</time></trkpt><trkpt lat="40.7602758" lon="14.8298739"><ele>583.0</ele><time>2026-04-12T07:15:42.962Z</time></trkpt><trkpt lat="40.7601517" lon="14.8297761"><ele>576.0</ele><time>2026-04-12T07:15:43.971Z</time></trkpt><trkpt lat="40.760028" lon="14.8296656"><ele>569.0</ele><time>2026-04-12T07:15:44.969Z</time></trkpt><trkpt lat="40.7599106" lon="14.8295632"><ele>569.0</ele><time>2026-04-12T07:15:45.952Z</time></trkpt><trkpt lat="40.7597979" lon="14.8294611"><ele>569.0</ele><time>2026-04-12T07:15:46.97Z</time></trkpt><trkpt lat="40.7596887" lon="14.8293571"><ele>569.0</ele><time>2026-04-12T07:15:47.962Z</time></trkpt><trkpt lat="40.7595787" lon="14.8292597"><ele>569.0</ele><time>2026-04-12T07:15:48.967Z</time></trkpt><trkpt lat="40.7594655" lon="14.829159"><ele>565.25</ele><time>2026-04-12T07:15:49.958Z</time></trkpt><trkpt lat="40.7593529" lon="14.8290584"><ele>561.5</ele><time>2026-04-12T07:15:50.963Z</time></trkpt><trkpt lat="40.7592666" lon="14.8289531"><ele>557.75</ele><time>2026-04-12T07:15:51.957Z</time></trkpt><trkpt lat="40.759178" lon="14.8288348"><ele>554.0</ele><time>2026-04-12T07:15:52.959Z</time></trkpt><trkpt lat="40.7591024" lon="14.8287393"><ele>554.0</ele><time>2026-04-12T07:15:53.959Z</time></trkpt><trkpt lat="40.7590218" lon="14.8286546"><ele>554.0</ele><time>2026-04-12T07:15:54.966Z</time></trkpt><trkpt lat="40.7589379" lon="14.8285867"><ele>554.0</ele><time>2026-04-12T07:15:55.966Z</time></trkpt><trkpt lat="40.7588435" lon="14.8285444"><ele>554.0</ele><time>2026-04-12T07:15:56.961Z</time></trkpt><trkpt lat="40.75873" lon="14.828535"><ele>554.0</ele><time>2026-04-12T07:15:57.962Z</time></trkpt><trkpt lat="40.7586" lon="14.8285705"><ele>552.4</ele><time>2026-04-12T07:15:59.033Z</time></trkpt><trkpt lat="40.7584987" lon="14.8286492"><ele>550.8</ele><time>2026-04-12T07:16:00.029Z</time></trkpt><trkpt lat="40.7584262" lon="14.8287318"><ele>549.2</ele><time>2026-04-12T07:16:00.961Z</time></trkpt><trkpt lat="40.7583516" lon="14.8288291"><ele>547.6</ele><time>2026-04-12T07:16:01.956Z</time></trkpt><trkpt lat="40.7582914" lon="14.8289282"><ele>546.0</ele><time>2026-04-12T07:16:02.988Z</time></trkpt><trkpt lat="40.7582497" lon="14.8290286"><ele>546.0</ele><time>2026-04-12T07:16:04.027Z</time></trkpt><trkpt lat="40.7582159" lon="14.829132"><ele>546.0</ele><time>2026-04-12T07:16:05.041Z</time></trkpt><trkpt lat="40.7581796" lon="14.8292258"><ele>546.0</ele><time>2026-04-12T07:16:05.958Z</time></trkpt><trkpt lat="40.7581372" lon="14.8293187"><ele>546.0</ele><time>2026-04-12T07:16:06.961Z</time></trkpt><trkpt lat="40.7580807" lon="14.8294206"><ele>546.0</ele><time>2026-04-12T07:16:07.963Z</time></trkpt><trkpt lat="40.7580192" lon="14.8294608"><ele>546.0</ele><time>2026-04-12T07:16:08.947Z</time></trkpt><trkpt lat="40.7579555" lon="14.8294451"><ele>546.0</ele><time>2026-04-12T07:16:10.053Z</time></trkpt><trkpt lat="40.7579046" lon="14.8293888"><ele>546.0</ele><time>2026-04-12T07:16:10.962Z</time></trkpt><trkpt lat="40.7578686" lon="14.8293004"><ele>546.0</ele><time>2026-04-12T07:16:11.958Z</time></trkpt><trkpt lat="40.7578484" lon="14.8291902"><ele>546.0</ele><time>2026-04-12T07:16:12.972Z</time></trkpt><trkpt lat="40.7578455" lon="14.82907"><ele>546.0</ele><time>2026-04-12T07:16:14.064Z</time></trkpt><trkpt lat="40.7578594" lon="14.8289421"><ele>546.0</ele><time>2026-04-12T07:16:15.022Z</time></trkpt><trkpt lat="40.7578727" lon="14.8288049"><ele>546.0</ele><time>2026-04-12T07:16:15.958Z</time></trkpt><trkpt lat="40.7578941" lon="14.8286692"><ele>546.0</ele><time>2026-04-12T07:16:16.963Z</time></trkpt><trkpt lat="40.757917" lon="14.8285277"><ele>546.0</ele><time>2026-04-12T07:16:17.952Z</time></trkpt><trkpt lat="40.7579428" lon="14.8283884"><ele>546.0</ele><time>2026-04-12T07:16:18.964Z</time></trkpt><trkpt lat="40.7579588" lon="14.8282459"><ele>546.0</ele><time>2026-04-12T07:16:19.956Z</time></trkpt><trkpt lat="40.7579684" lon="14.8281144"><ele>543.5</ele><time>2026-04-12T07:16:20.943Z</time></trkpt><trkpt lat="40.7579761" lon="14.8279827"><ele>541.0</ele><time>2026-04-12T07:16:21.96Z</time></trkpt><trkpt lat="40.7579815" lon="14.8278644"><ele>538.5</ele><time>2026-04-12T07:16:23.039Z</time></trkpt><trkpt lat="40.7579781" lon="14.8277363"><ele>536.0</ele><time>2026-04-12T07:16:24.035Z</time></trkpt><trkpt lat="40.7579911" lon="14.8276186"><ele>533.5</ele><time>2026-04-12T07:16:25.041Z</time></trkpt><trkpt lat="40.7579927" lon="14.8275252"><ele>531.0</ele><time>2026-04-12T07:16:25.959Z</time></trkpt><trkpt lat="40.7579771" lon="14.8274053"><ele>531.0</ele><time>2026-04-12T07:16:27.95Z</time></trkpt><trkpt lat="40.7579962" lon="14.8273247"><ele>531.0</ele><time>2026-04-12T07:16:30.936Z</time></trkpt><trkpt lat="40.7579333" lon="14.8273439"><ele>531.0</ele><time>2026-04-12T07:16:35.936Z</time></trkpt><trkpt lat="40.7578888" lon="14.8274371"><ele>531.0</ele><time>2026-04-12T07:16:38.94Z</time></trkpt><trkpt lat="40.7578423" lon="14.8275209"><ele>531.0</ele><time>2026-04-12T07:16:40.947Z</time></trkpt><trkpt lat="40.7577823" lon="14.8276928"><ele>531.0</ele><time>2026-04-12T07:16:42.944Z</time></trkpt><trkpt lat="40.7577463" lon="14.8278127"><ele>531.0</ele><time>2026-04-12T07:16:44.936Z</time></trkpt><trkpt lat="40.7577041" lon="14.8278865"><ele>531.0</ele><time>2026-04-12T07:16:46.945Z</time></trkpt><trkpt lat="40.7576581" lon="14.8280131"><ele>531.0</ele><time>2026-04-12T07:16:48.952Z</time></trkpt><trkpt lat="40.757621" lon="14.8280849"><ele>531.0</ele><time>2026-04-12T07:16:49.962Z</time></trkpt><trkpt lat="40.7575762" lon="14.828177"><ele>531.0</ele><time>2026-04-12T07:16:51.959Z</time></trkpt><trkpt lat="40.7575664" lon="14.8282689"><ele>531.0</ele><time>2026-04-12T07:16:53.956Z</time></trkpt><trkpt lat="40.7575432" lon="14.8284253"><ele>533.8333333333334</ele><time>2026-04-12T07:16:55.956Z</time></trkpt><trkpt lat="40.7575384" lon="14.8285225"><ele>536.6666666666666</ele><time>2026-04-12T07:16:56.953Z</time></trkpt><trkpt lat="40.7575174" lon="14.8286143"><ele>539.5</ele><time>2026-04-12T07:16:58.035Z</time></trkpt><trkpt lat="40.7574911" lon="14.8287173"><ele>542.3333333333333</ele><time>2026-04-12T07:16:58.951Z</time></trkpt><trkpt lat="40.7574779" lon="14.8288132"><ele>545.1666666666666</ele><time>2026-04-12T07:16:59.96Z</time></trkpt><trkpt lat="40.7574613" lon="14.8289066"><ele>548.0</ele><time>2026-04-12T07:17:00.951Z</time></trkpt><trkpt lat="40.7574517" lon="14.82901"><ele>548.0</ele><time>2026-04-12T07:17:01.96Z</time></trkpt><trkpt lat="40.7574231" lon="14.8291332"><ele>548.0</ele><time>2026-04-12T07:17:02.955Z</time></trkpt><trkpt lat="40.7573933" lon="14.829252"><ele>548.0</ele><time>2026-04-12T07:17:03.952Z</time></trkpt><trkpt lat="40.7573704" lon="14.8293477"><ele>548.0</ele><time>2026-04-12T07:17:05.007Z</time></trkpt><trkpt lat="40.7573679" lon="14.8294747"><ele>548.0</ele><time>2026-04-12T07:17:05.942Z</time></trkpt><trkpt lat="40.7573724" lon="14.8295746"><ele>548.0</ele><time>2026-04-12T07:17:07.018Z</time></trkpt><trkpt lat="40.7573766" lon="14.8296727"><ele>550.6666666666666</ele><time>2026-04-12T07:17:08.025Z</time></trkpt><trkpt lat="40.7573804" lon="14.8297668"><ele>553.3333333333333</ele><time>2026-04-12T07:17:09.013Z</time></trkpt><trkpt lat="40.7573905" lon="14.8298658"><ele>556.0</ele><time>2026-04-12T07:17:09.966Z</time></trkpt><trkpt lat="40.7573907" lon="14.8299609"><ele>558.6666666666666</ele><time>2026-04-12T07:17:10.95Z</time></trkpt><trkpt lat="40.7573971" lon="14.8300596"><ele>561.3333333333334</ele><time>2026-04-12T07:17:12.955Z</time></trkpt><trkpt lat="40.7574165" lon="14.8301695"><ele>564.0</ele><time>2026-04-12T07:17:15.962Z</time></trkpt><trkpt lat="40.7574293" lon="14.8302763"><ele>566.8571428571429</ele><time>2026-04-12T07:17:18.949Z</time></trkpt><trkpt lat="40.7574575" lon="14.8303538"><ele>569.7142857142857</ele><time>2026-04-12T07:17:20.958Z</time></trkpt><trkpt lat="40.7574839" lon="14.8304401"><ele>572.5714285714286</ele><time>2026-04-12T07:17:23.037Z</time></trkpt><trkpt lat="40.7575044" lon="14.830549"><ele>575.4285714285714</ele><time>2026-04-12T07:17:25.041Z</time></trkpt><trkpt lat="40.757526" lon="14.8306573"><ele>578.2857142857143</ele><time>2026-04-12T07:17:26.967Z</time></trkpt><trkpt lat="40.7575269" lon="14.8307503"><ele>581.1428571428571</ele><time>2026-04-12T07:17:29.972Z</time></trkpt><trkpt lat="40.7575406" lon="14.830843"><ele>584.0</ele><time>2026-04-12T07:17:32.968Z</time></trkpt><trkpt lat="40.7575585" lon="14.8309494"><ele>587.6666666666666</ele><time>2026-04-12T07:17:35.967Z</time></trkpt><trkpt lat="40.7575926" lon="14.831071"><ele>591.3333333333333</ele><time>2026-04-12T07:17:38.973Z</time></trkpt><trkpt lat="40.7576147" lon="14.8311613"><ele>595.0</ele><time>2026-04-12T07:17:41.964Z</time></trkpt><trkpt lat="40.7576021" lon="14.8312488"><ele>598.6666666666666</ele><time>2026-04-12T07:17:44.971Z</time></trkpt><trkpt lat="40.757587" lon="14.8313735"><ele>602.3333333333334</ele><time>2026-04-12T07:17:50.962Z</time></trkpt><trkpt lat="40.7575616" lon="14.8314616"><ele>606.0</ele><time>2026-04-12T07:17:57.945Z</time></trkpt><trkpt lat="40.7575248" lon="14.8315643"><ele>606.0</ele><time>2026-04-12T07:18:02.056Z</time></trkpt><trkpt lat="40.757497" lon="14.8316689"><ele>606.0</ele><time>2026-04-12T07:18:04.953Z</time></trkpt><trkpt lat="40.7574647" lon="14.8317807"><ele>606.0</ele><time>2026-04-12T07:18:07.953Z</time></trkpt><trkpt lat="40.7574208" lon="14.8318497"><ele>606.0</ele><time>2026-04-12T07:18:09.982Z</time></trkpt><trkpt lat="40.7573428" lon="14.8319262"><ele>606.0</ele><time>2026-04-12T07:18:11.949Z</time></trkpt><trkpt lat="40.7572962" lon="14.8320191"><ele>606.0</ele><time>2026-04-12T07:18:15.955Z</time></trkpt><trkpt lat="40.7572368" lon="14.8320771"><ele>609.6666666666666</ele><time>2026-04-12T07:18:19.068Z</time></trkpt><trkpt lat="40.757176" lon="14.8321085"><ele>613.3333333333334</ele><time>2026-04-12T07:18:20.955Z</time></trkpt><trkpt lat="40.7571418" lon="14.8322013"><ele>617.0</ele><time>2026-04-12T07:18:22.952Z</time></trkpt><trkpt lat="40.7571341" lon="14.8323196"><ele>620.6666666666667</ele><time>2026-04-12T07:18:25.034Z</time></trkpt><trkpt lat="40.7571172" lon="14.8324138"><ele>624.3333333333334</ele><time>2026-04-12T07:18:26.951Z</time></trkpt><trkpt lat="40.7571304" lon="14.8325134"><ele>628.0</ele><time>2026-04-12T07:19:13.948Z</time></trkpt><trkpt lat="40.7571659" lon="14.8325954"><ele>628.0</ele><time>2026-04-12T07:19:26.956Z</time></trkpt><trkpt lat="40.7571991" lon="14.832669"><ele>628.0</ele><time>2026-04-12T07:19:35.965Z</time></trkpt><trkpt lat="40.7572485" lon="14.8327613"><ele>628.0</ele><time>2026-04-12T07:19:41.953Z</time></trkpt><trkpt lat="40.7572408" lon="14.8326737"><ele>628.0</ele><time>2026-04-12T07:19:48.963Z</time></trkpt><trkpt lat="40.7572037" lon="14.8325964"><ele>628.0</ele><time>2026-04-12T07:19:52.948Z</time></trkpt><trkpt lat="40.7572329" lon="14.8324857"><ele>628.0</ele><time>2026-04-12T07:19:59.962Z</time></trkpt><trkpt lat="40.757247" lon="14.8323778"><ele>627.9999999999999</ele><time>2026-04-12T07:20:12.956Z</time></trkpt><trkpt lat="40.7571813" lon="14.8324568"><ele>628.0</ele><time>2026-04-12T07:20:18.957Z</time></trkpt><trkpt lat="40.7571669" lon="14.8325415"><ele>628.0</ele><time>2026-04-12T07:20:20.968Z</time></trkpt><trkpt lat="40.757167" lon="14.8326278"><ele>628.0</ele><time>2026-04-12T07:20:23.019Z</time></trkpt><trkpt lat="40.7571795" lon="14.832724"><ele>628.0</ele><time>2026-04-12T07:20:26.957Z</time></trkpt><trkpt lat="40.7571508" lon="14.8328024"><ele>627.9999999999999</ele><time>2026-04-12T07:20:29.973Z</time></trkpt><trkpt lat="40.7571329" lon="14.8328821"><ele>628.0</ele><time>2026-04-12T07:20:32.951Z</time></trkpt><trkpt lat="40.7571106" lon="14.8329657"><ele>633.5999999999999</ele><time>2026-04-12T07:20:36.958Z</time></trkpt><trkpt lat="40.7570912" lon="14.8331262"><ele>639.1999999999999</ele><time>2026-04-12T07:24:32.958Z</time></trkpt><trkpt lat="40.7571539" lon="14.8331454"><ele>644.8</ele><time>2026-04-12T07:24:38.949Z</time></trkpt><trkpt lat="40.7572354" lon="14.8331359"><ele>650.4</ele><time>2026-04-12T07:24:43.04Z</time></trkpt><trkpt lat="40.7573334" lon="14.8331257"><ele>656.0</ele><time>2026-04-12T07:24:45.97Z</time></trkpt><trkpt lat="40.7574218" lon="14.8331658"><ele>656.0</ele><time>2026-04-12T07:24:47.955Z</time></trkpt><trkpt lat="40.7575075" lon="14.8331766"><ele>656.0</ele><time>2026-04-12T07:24:49.947Z</time></trkpt><trkpt lat="40.7575885" lon="14.833112"><ele>656.0</ele><time>2026-04-12T07:24:51.964Z</time></trkpt><trkpt lat="40.7576541" lon="14.8330809"><ele>656.0</ele><time>2026-04-12T07:24:53.956Z</time></trkpt><trkpt lat="40.7577395" lon="14.8330791"><ele>656.0</ele><time>2026-04-12T07:24:55.964Z</time></trkpt><trkpt lat="40.7578539" lon="14.8330344"><ele>660.1999999999999</ele><time>2026-04-12T07:24:58.969Z</time></trkpt><trkpt lat="40.7579485" lon="14.8329964"><ele>664.4</ele><time>2026-04-12T07:25:00.971Z</time></trkpt><trkpt lat="40.7580481" lon="14.8329873"><ele>668.6</ele><time>2026-04-12T07:25:02.966Z</time></trkpt><trkpt lat="40.7581563" lon="14.8330035"><ele>672.8</ele><time>2026-04-12T07:25:04.967Z</time></trkpt><trkpt lat="40.7582612" lon="14.8330624"><ele>677.0</ele><time>2026-04-12T07:25:06.961Z</time></trkpt><trkpt lat="40.7583289" lon="14.8330876"><ele>677.0</ele><time>2026-04-12T07:25:07.97Z</time></trkpt><trkpt lat="40.7584013" lon="14.8331202"><ele>677.0</ele><time>2026-04-12T07:25:08.962Z</time></trkpt><trkpt lat="40.7584615" lon="14.8331489"><ele>677.0</ele><time>2026-04-12T07:25:10.038Z</time></trkpt><trkpt lat="40.7585335" lon="14.8331942"><ele>677.0</ele><time>2026-04-12T07:25:11.973Z</time></trkpt><trkpt lat="40.7585913" lon="14.8332332"><ele>677.0</ele><time>2026-04-12T07:25:14.97Z</time></trkpt><trkpt lat="40.758624" lon="14.8333205"><ele>677.0</ele><time>2026-04-12T07:25:17.968Z</time></trkpt><trkpt lat="40.7586876" lon="14.8334132"><ele>679.8</ele><time>2026-04-12T07:25:21.963Z</time></trkpt><trkpt lat="40.758761" lon="14.833454"><ele>682.6</ele><time>2026-04-12T07:25:23.963Z</time></trkpt><trkpt lat="40.758823" lon="14.8334918"><ele>685.4</ele><time>2026-04-12T07:25:24.959Z</time></trkpt><trkpt lat="40.7589325" lon="14.8334571"><ele>688.1999999999999</ele><time>2026-04-12T07:25:26.958Z</time></trkpt><trkpt lat="40.758994" lon="14.833401"><ele>691.0</ele><time>2026-04-12T07:25:27.965Z</time></trkpt><trkpt lat="40.7590777" lon="14.8332785"><ele>691.0</ele><time>2026-04-12T07:25:29.956Z</time></trkpt><trkpt lat="40.7591218" lon="14.8331976"><ele>691.0</ele><time>2026-04-12T07:25:30.963Z</time></trkpt><trkpt lat="40.75919" lon="14.8331293"><ele>691.0</ele><time>2026-04-12T07:25:31.956Z</time></trkpt><trkpt lat="40.7592684" lon="14.8330377"><ele>691.0</ele><time>2026-04-12T07:25:32.965Z</time></trkpt><trkpt lat="40.7593459" lon="14.8329486"><ele>691.0</ele><time>2026-04-12T07:25:33.967Z</time></trkpt><trkpt lat="40.7594039" lon="14.8328742"><ele>691.0</ele><time>2026-04-12T07:25:34.962Z</time></trkpt><trkpt lat="40.7594577" lon="14.8328139"><ele>693.0</ele><time>2026-04-12T07:25:35.955Z</time></trkpt><trkpt lat="40.7595138" lon="14.8327472"><ele>695.0</ele><time>2026-04-12T07:25:36.968Z</time></trkpt><trkpt lat="40.7595933" lon="14.8326857"><ele>697.0</ele><time>2026-04-12T07:25:38.967Z</time></trkpt><trkpt lat="40.7596748" lon="14.8326353"><ele>699.0</ele><time>2026-04-12T07:25:39.948Z</time></trkpt><trkpt lat="40.7597518" lon="14.8325916"><ele>701.0</ele><time>2026-04-12T07:25:41.967Z</time></trkpt><trkpt lat="40.7598187" lon="14.832592"><ele>703.0</ele><time>2026-04-12T07:25:44.968Z</time></trkpt><trkpt lat="40.7598834" lon="14.8326049"><ele>703.0</ele><time>2026-04-12T07:25:46.951Z</time></trkpt><trkpt lat="40.7599733" lon="14.8326181"><ele>703.0</ele><time>2026-04-12T07:25:49.044Z</time></trkpt><trkpt lat="40.7600563" lon="14.8326281"><ele>703.0</ele><time>2026-04-12T07:25:50.043Z</time></trkpt><trkpt lat="40.7601409" lon="14.832648"><ele>703.0</ele><time>2026-04-12T07:25:50.955Z</time></trkpt><trkpt lat="40.7602317" lon="14.832708"><ele>703.0</ele><time>2026-04-12T07:25:51.958Z</time></trkpt><trkpt lat="40.7603107" lon="14.8327762"><ele>699.3333333333334</ele><time>2026-04-12T07:25:52.97Z</time></trkpt><trkpt lat="40.7603723" lon="14.8328523"><ele>695.6666666666667</ele><time>2026-04-12T07:25:53.963Z</time></trkpt><trkpt lat="40.7604222" lon="14.832922"><ele>692.0</ele><time>2026-04-12T07:25:54.967Z</time></trkpt><trkpt lat="40.760472" lon="14.8330009"><ele>688.3333333333334</ele><time>2026-04-12T07:25:56.941Z</time></trkpt><trkpt lat="40.7605002" lon="14.8330926"><ele>684.6666666666666</ele><time>2026-04-12T07:25:58.955Z</time></trkpt><trkpt lat="40.7604371" lon="14.8331283"><ele>681.0</ele><time>2026-04-12T07:26:02.962Z</time></trkpt><trkpt lat="40.7603617" lon="14.8330991"><ele>681.0</ele><time>2026-04-12T07:26:03.956Z</time></trkpt><trkpt lat="40.7602597" lon="14.833072"><ele>681.0</ele><time>2026-04-12T07:26:04.952Z</time></trkpt><trkpt lat="40.760165" lon="14.8330556"><ele>681.0</ele><time>2026-04-12T07:26:05.964Z</time></trkpt><trkpt lat="40.7600584" lon="14.8330387"><ele>681.0</ele><time>2026-04-12T07:26:06.96Z</time></trkpt><trkpt lat="40.7599216" lon="14.8330479"><ele>681.0</ele><time>2026-04-12T07:26:07.962Z</time></trkpt><trkpt lat="40.7597715" lon="14.83307"><ele>683.5</ele><time>2026-04-12T07:26:09.048Z</time></trkpt><trkpt lat="40.7596378" lon="14.8331156"><ele>686.0</ele><time>2026-04-12T07:26:10.019Z</time></trkpt><trkpt lat="40.7595171" lon="14.8331841"><ele>688.5</ele><time>2026-04-12T07:26:10.958Z</time></trkpt><trkpt lat="40.7594221" lon="14.8332615"><ele>691.0</ele><time>2026-04-12T07:26:11.962Z</time></trkpt><trkpt lat="40.7593623" lon="14.8333706"><ele>698.5</ele><time>2026-04-12T07:26:12.981Z</time></trkpt><trkpt lat="40.759314" lon="14.8334837"><ele>706.0</ele><time>2026-04-12T07:26:14.053Z</time></trkpt><trkpt lat="40.7592669" lon="14.8336228"><ele>713.5</ele><time>2026-04-12T07:26:15.009Z</time></trkpt><trkpt lat="40.7592137" lon="14.8337545"><ele>721.0</ele><time>2026-04-12T07:26:15.959Z</time></trkpt><trkpt lat="40.7591416" lon="14.8338907"><ele>721.0</ele><time>2026-04-12T07:26:16.964Z</time></trkpt><trkpt lat="40.7590612" lon="14.8340103"><ele>721.0</ele><time>2026-04-12T07:26:18.092Z</time></trkpt><trkpt lat="40.7589893" lon="14.8341476"><ele>721.0</ele><time>2026-04-12T07:26:19.059Z</time></trkpt><trkpt lat="40.7589087" lon="14.834283"><ele>721.0</ele><time>2026-04-12T07:26:20.043Z</time></trkpt><trkpt lat="40.7588437" lon="14.8344251"><ele>723.8</ele><time>2026-04-12T07:26:20.965Z</time></trkpt><trkpt lat="40.7587763" lon="14.8345337"><ele>726.5999999999999</ele><time>2026-04-12T07:26:21.97Z</time></trkpt><trkpt lat="40.7586981" lon="14.8345898"><ele>729.4</ele><time>2026-04-12T07:26:23.01Z</time></trkpt><trkpt lat="40.7586306" lon="14.8346291"><ele>732.2</ele><time>2026-04-12T07:26:23.999Z</time></trkpt><trkpt lat="40.7585342" lon="14.8346413"><ele>735.0</ele><time>2026-04-12T07:26:24.973Z</time></trkpt><trkpt lat="40.7584241" lon="14.8346602"><ele>738.25</ele><time>2026-04-12T07:26:25.976Z</time></trkpt><trkpt lat="40.7582948" lon="14.8346935"><ele>741.5</ele><time>2026-04-12T07:26:26.966Z</time></trkpt><trkpt lat="40.7581632" lon="14.8347304"><ele>744.75</ele><time>2026-04-12T07:26:28.052Z</time></trkpt><trkpt lat="40.7580488" lon="14.8347652"><ele>748.0</ele><time>2026-04-12T07:26:29.032Z</time></trkpt><trkpt lat="40.7579552" lon="14.8348152"><ele>748.0</ele><time>2026-04-12T07:26:30.031Z</time></trkpt><trkpt lat="40.7578576" lon="14.8348936"><ele>748.0</ele><time>2026-04-12T07:26:30.972Z</time></trkpt><trkpt lat="40.7577598" lon="14.8349882"><ele>748.0</ele><time>2026-04-12T07:26:31.976Z</time></trkpt><trkpt lat="40.7576552" lon="14.8350786"><ele>748.0</ele><time>2026-04-12T07:26:32.97Z</time></trkpt><trkpt lat="40.7575521" lon="14.8351609"><ele>749.5999999999999</ele><time>2026-04-12T07:26:33.973Z</time></trkpt><trkpt lat="40.757453" lon="14.835237"><ele>751.1999999999999</ele><time>2026-04-12T07:26:34.972Z</time></trkpt><trkpt lat="40.7573648" lon="14.8353241"><ele>752.8</ele><time>2026-04-12T07:26:35.974Z</time></trkpt><trkpt lat="40.7572736" lon="14.8353926"><ele>754.4</ele><time>2026-04-12T07:26:36.973Z</time></trkpt><trkpt lat="40.7571893" lon="14.8354617"><ele>756.0</ele><time>2026-04-12T07:26:37.96Z</time></trkpt><trkpt lat="40.7571127" lon="14.8355418"><ele>756.0</ele><time>2026-04-12T07:26:39.057Z</time></trkpt><trkpt lat="40.7570377" lon="14.8356115"><ele>756.0</ele><time>2026-04-12T07:26:40.03Z</time></trkpt><trkpt lat="40.756989" lon="14.8356835"><ele>756.0</ele><time>2026-04-12T07:26:40.973Z</time></trkpt><trkpt lat="40.7569338" lon="14.8357462"><ele>756.0</ele><time>2026-04-12T07:26:41.977Z</time></trkpt><trkpt lat="40.7568738" lon="14.8357993"><ele>756.0</ele><time>2026-04-12T07:26:42.982Z</time></trkpt><trkpt lat="40.7568177" lon="14.8358451"><ele>756.0</ele><time>2026-04-12T07:26:43.987Z</time></trkpt><trkpt lat="40.7567659" lon="14.8358926"><ele>756.0</ele><time>2026-04-12T07:26:44.959Z</time></trkpt><trkpt lat="40.7567003" lon="14.8359708"><ele>753.1999999999999</ele><time>2026-04-12T07:26:45.983Z</time></trkpt><trkpt lat="40.7566267" lon="14.8360463"><ele>750.4</ele><time>2026-04-12T07:26:47.037Z</time></trkpt><trkpt lat="40.7565466" lon="14.8361253"><ele>747.6</ele><time>2026-04-12T07:26:48.032Z</time></trkpt><trkpt lat="40.7564835" lon="14.8362075"><ele>744.8</ele><time>2026-04-12T07:26:48.976Z</time></trkpt><trkpt lat="40.756424" lon="14.8362875"><ele>742.0</ele><time>2026-04-12T07:26:49.949Z</time></trkpt><trkpt lat="40.7563588" lon="14.8363616"><ele>742.0</ele><time>2026-04-12T07:26:50.96Z</time></trkpt><trkpt lat="40.7563018" lon="14.8364251"><ele>742.0</ele><time>2026-04-12T07:26:51.966Z</time></trkpt><trkpt lat="40.756251" lon="14.836493"><ele>742.0</ele><time>2026-04-12T07:26:52.957Z</time></trkpt><trkpt lat="40.7562061" lon="14.8365787"><ele>742.0</ele><time>2026-04-12T07:26:53.967Z</time></trkpt><trkpt lat="40.7561545" lon="14.8366465"><ele>742.0</ele><time>2026-04-12T07:26:55.048Z</time></trkpt><trkpt lat="40.7561066" lon="14.8367216"><ele>742.0</ele><time>2026-04-12T07:26:55.97Z</time></trkpt><trkpt lat="40.7560377" lon="14.836769"><ele>739.5</ele><time>2026-04-12T07:26:56.98Z</time></trkpt><trkpt lat="40.7559364" lon="14.8368195"><ele>737.0</ele><time>2026-04-12T07:26:58.982Z</time></trkpt><trkpt lat="40.755854" lon="14.8368712"><ele>734.5</ele><time>2026-04-12T07:27:00.961Z</time></trkpt><trkpt lat="40.7557679" lon="14.8369285"><ele>732.0</ele><time>2026-04-12T07:27:02.966Z</time></trkpt><trkpt lat="40.7556973" lon="14.8369479"><ele>729.5</ele><time>2026-04-12T07:27:04.033Z</time></trkpt><trkpt lat="40.7556253" lon="14.836947"><ele>727.0</ele><time>2026-04-12T07:27:05.027Z</time></trkpt><trkpt lat="40.7555535" lon="14.8369592"><ele>727.0</ele><time>2026-04-12T07:27:05.968Z</time></trkpt><trkpt lat="40.7554872" lon="14.8369582"><ele>727.0</ele><time>2026-04-12T07:27:06.965Z</time></trkpt><trkpt lat="40.755416" lon="14.8369404"><ele>727.0</ele><time>2026-04-12T07:27:07.956Z</time></trkpt><trkpt lat="40.7553501" lon="14.8369322"><ele>727.0</ele><time>2026-04-12T07:27:08.963Z</time></trkpt><trkpt lat="40.7552271" lon="14.8369368"><ele>727.0</ele><time>2026-04-12T07:27:10.968Z</time></trkpt><trkpt lat="40.7551563" lon="14.8369247"><ele>727.0</ele><time>2026-04-12T07:27:11.965Z</time></trkpt><trkpt lat="40.7550795" lon="14.8369104"><ele>729.2</ele><time>2026-04-12T07:27:13.021Z</time></trkpt><trkpt lat="40.7549644" lon="14.8368754"><ele>731.4000000000001</ele><time>2026-04-12T07:27:15.03Z</time></trkpt><trkpt lat="40.7549165" lon="14.8367796"><ele>733.5999999999999</ele><time>2026-04-12T07:27:16.973Z</time></trkpt><trkpt lat="40.7549006" lon="14.8366848"><ele>735.8</ele><time>2026-04-12T07:27:17.967Z</time></trkpt><trkpt lat="40.7548624" lon="14.8365704"><ele>738.0</ele><time>2026-04-12T07:27:18.965Z</time></trkpt><trkpt lat="40.7548166" lon="14.8364538"><ele>738.0</ele><time>2026-04-12T07:27:20.963Z</time></trkpt><trkpt lat="40.7547439" lon="14.8363916"><ele>738.0</ele><time>2026-04-12T07:27:22.982Z</time></trkpt><trkpt lat="40.7546498" lon="14.836401"><ele>738.0</ele><time>2026-04-12T07:27:24.968Z</time></trkpt><trkpt lat="40.7545272" lon="14.8363648"><ele>738.0</ele><time>2026-04-12T07:27:26.965Z</time></trkpt><trkpt lat="40.7544097" lon="14.8363436"><ele>738.0</ele><time>2026-04-12T07:27:28.963Z</time></trkpt><trkpt lat="40.7543374" lon="14.8363448"><ele>736.1666666666666</ele><time>2026-04-12T07:27:30.018Z</time></trkpt><trkpt lat="40.7542655" lon="14.836345"><ele>734.3333333333334</ele><time>2026-04-12T07:27:30.964Z</time></trkpt><trkpt lat="40.7541946" lon="14.8363328"><ele>732.5</ele><time>2026-04-12T07:27:31.966Z</time></trkpt><trkpt lat="40.754114" lon="14.8362877"><ele>730.6666666666667</ele><time>2026-04-12T07:27:32.958Z</time></trkpt><trkpt lat="40.7540222" lon="14.8362513"><ele>728.8333333333334</ele><time>2026-04-12T07:27:33.969Z</time></trkpt><trkpt lat="40.7539309" lon="14.836216"><ele>727.0</ele><time>2026-04-12T07:27:34.969Z</time></trkpt><trkpt lat="40.7538493" lon="14.836167"><ele>727.0</ele><time>2026-04-12T07:27:35.973Z</time></trkpt><trkpt lat="40.7537839" lon="14.836105"><ele>727.0</ele><time>2026-04-12T07:27:36.97Z</time></trkpt><trkpt lat="40.7537248" lon="14.8360292"><ele>727.0</ele><time>2026-04-12T07:27:37.966Z</time></trkpt><trkpt lat="40.7536797" lon="14.8359382"><ele>727.0</ele><time>2026-04-12T07:27:39.046Z</time></trkpt><trkpt lat="40.7536414" lon="14.8358143"><ele>727.0</ele><time>2026-04-12T07:27:40.035Z</time></trkpt><trkpt lat="40.7536117" lon="14.8356848"><ele>727.0</ele><time>2026-04-12T07:27:40.964Z</time></trkpt><trkpt lat="40.7535769" lon="14.8355596"><ele>727.5</ele><time>2026-04-12T07:27:41.971Z</time></trkpt><trkpt lat="40.7535558" lon="14.8354508"><ele>728.0</ele><time>2026-04-12T07:27:42.965Z</time></trkpt><trkpt lat="40.7535231" lon="14.8353585"><ele>728.5</ele><time>2026-04-12T07:27:43.964Z</time></trkpt><trkpt lat="40.7534784" lon="14.8352989"><ele>729.0</ele><time>2026-04-12T07:27:44.972Z</time></trkpt><trkpt lat="40.7534253" lon="14.8352374"><ele>729.5</ele><time>2026-04-12T07:27:45.971Z</time></trkpt><trkpt lat="40.7533656" lon="14.8351852"><ele>730.0</ele><time>2026-04-12T07:27:47.032Z</time></trkpt><trkpt lat="40.7532777" lon="14.8351503"><ele>731.3333333333334</ele><time>2026-04-12T07:27:48.03Z</time></trkpt><trkpt lat="40.7531892" lon="14.8351339"><ele>732.6666666666667</ele><time>2026-04-12T07:27:49.043Z</time></trkpt><trkpt lat="40.7530989" lon="14.8351174"><ele>734.0</ele><time>2026-04-12T07:27:50.035Z</time></trkpt><trkpt lat="40.7530098" lon="14.8351049"><ele>735.3333333333334</ele><time>2026-04-12T07:27:50.968Z</time></trkpt><trkpt lat="40.7529282" lon="14.8350938"><ele>736.6666666666666</ele><time>2026-04-12T07:27:51.969Z</time></trkpt><trkpt lat="40.7528452" lon="14.8350738"><ele>738.0</ele><time>2026-04-12T07:27:52.998Z</time></trkpt><trkpt lat="40.7527664" lon="14.8350175"><ele>735.2</ele><time>2026-04-12T07:27:54.046Z</time></trkpt><trkpt lat="40.7526877" lon="14.8349468"><ele>732.4</ele><time>2026-04-12T07:27:55.026Z</time></trkpt><trkpt lat="40.7526349" lon="14.8348443"><ele>729.6</ele><time>2026-04-12T07:27:55.961Z</time></trkpt><trkpt lat="40.7525867" lon="14.8347284"><ele>726.8000000000001</ele><time>2026-04-12T07:27:56.967Z</time></trkpt><trkpt lat="40.7525511" lon="14.8346237"><ele>724.0</ele><time>2026-04-12T07:27:57.989Z</time></trkpt><trkpt lat="40.7525144" lon="14.8345351"><ele>724.0</ele><time>2026-04-12T07:27:59.05Z</time></trkpt><trkpt lat="40.7524773" lon="14.8344635"><ele>724.0</ele><time>2026-04-12T07:28:00.027Z</time></trkpt><trkpt lat="40.752412" lon="14.8344249"><ele>724.0</ele><time>2026-04-12T07:28:00.963Z</time></trkpt><trkpt lat="40.7523239" lon="14.8343849"><ele>724.0</ele><time>2026-04-12T07:28:01.969Z</time></trkpt><trkpt lat="40.7522236" lon="14.8343327"><ele>724.0</ele><time>2026-04-12T07:28:03.07Z</time></trkpt><trkpt lat="40.7521215" lon="14.8342564"><ele>722.8000000000001</ele><time>2026-04-12T07:28:04.026Z</time></trkpt><trkpt lat="40.7520179" lon="14.8341753"><ele>721.6</ele><time>2026-04-12T07:28:05.031Z</time></trkpt><trkpt lat="40.7519322" lon="14.8341057"><ele>720.4</ele><time>2026-04-12T07:28:05.967Z</time></trkpt><trkpt lat="40.7518687" lon="14.8340374"><ele>719.2</ele><time>2026-04-12T07:28:06.962Z</time></trkpt><trkpt lat="40.7518208" lon="14.8339533"><ele>718.0</ele><time>2026-04-12T07:28:07.986Z</time></trkpt><trkpt lat="40.7517803" lon="14.8338509"><ele>717.3333333333334</ele><time>2026-04-12T07:28:09.048Z</time></trkpt><trkpt lat="40.751753" lon="14.8337187"><ele>716.6666666666666</ele><time>2026-04-12T07:28:10.069Z</time></trkpt><trkpt lat="40.751634" lon="14.8334495"><ele>716.0</ele><time>2026-04-12T07:28:11.95Z</time></trkpt><trkpt lat="40.7515657" lon="14.8333276"><ele>718.5999999999999</ele><time>2026-04-12T07:28:12.982Z</time></trkpt><trkpt lat="40.7515057" lon="14.8332033"><ele>721.2</ele><time>2026-04-12T07:28:13.968Z</time></trkpt><trkpt lat="40.7514551" lon="14.8330706"><ele>723.8</ele><time>2026-04-12T07:28:14.966Z</time></trkpt><trkpt lat="40.7514208" lon="14.8329458"><ele>726.4000000000001</ele><time>2026-04-12T07:28:15.97Z</time></trkpt><trkpt lat="40.7513972" lon="14.8328558"><ele>729.0</ele><time>2026-04-12T07:28:16.973Z</time></trkpt><trkpt lat="40.7513529" lon="14.8327636"><ele>729.0</ele><time>2026-04-12T07:28:17.98Z</time></trkpt><trkpt lat="40.7512878" lon="14.8326949"><ele>729.0</ele><time>2026-04-12T07:28:18.975Z</time></trkpt><trkpt lat="40.7512024" lon="14.8326503"><ele>729.0</ele><time>2026-04-12T07:28:20.038Z</time></trkpt><trkpt lat="40.7511173" lon="14.8326219"><ele>729.0</ele><time>2026-04-12T07:28:20.965Z</time></trkpt><trkpt lat="40.7510391" lon="14.8325869"><ele>729.0</ele><time>2026-04-12T07:28:21.976Z</time></trkpt><trkpt lat="40.7509637" lon="14.8325333"><ele>729.0</ele><time>2026-04-12T07:28:22.97Z</time></trkpt><trkpt lat="40.7508995" lon="14.8324671"><ele>729.4000000000001</ele><time>2026-04-12T07:28:23.965Z</time></trkpt><trkpt lat="40.7508327" lon="14.832391"><ele>729.8</ele><time>2026-04-12T07:28:24.979Z</time></trkpt><trkpt lat="40.7507589" lon="14.8323383"><ele>730.2</ele><time>2026-04-12T07:28:25.97Z</time></trkpt><trkpt lat="40.7506813" lon="14.832302"><ele>730.5999999999999</ele><time>2026-04-12T07:28:26.977Z</time></trkpt><trkpt lat="40.7505813" lon="14.8322753"><ele>731.0</ele><time>2026-04-12T07:28:28.021Z</time></trkpt><trkpt lat="40.7504761" lon="14.8322522"><ele>731.0</ele><time>2026-04-12T07:28:28.968Z</time></trkpt><trkpt lat="40.7503592" lon="14.8322315"><ele>731.0</ele><time>2026-04-12T07:28:30.034Z</time></trkpt><trkpt lat="40.7502362" lon="14.8322161"><ele>731.0</ele><time>2026-04-12T07:28:30.971Z</time></trkpt><trkpt lat="40.7501141" lon="14.832201"><ele>731.0</ele><time>2026-04-12T07:28:31.974Z</time></trkpt><trkpt lat="40.7499861" lon="14.8321942"><ele>732.5999999999999</ele><time>2026-04-12T07:28:32.949Z</time></trkpt><trkpt lat="40.749877" lon="14.8321838"><ele>734.2</ele><time>2026-04-12T07:28:33.964Z</time></trkpt><trkpt lat="40.7497775" lon="14.8321748"><ele>735.8</ele><time>2026-04-12T07:28:34.977Z</time></trkpt><trkpt lat="40.749668" lon="14.8321757"><ele>737.4000000000001</ele><time>2026-04-12T07:28:37.022Z</time></trkpt><trkpt lat="40.7495761" lon="14.8322275"><ele>739.0</ele><time>2026-04-12T07:28:39.032Z</time></trkpt><trkpt lat="40.7494851" lon="14.8322217"><ele>739.0</ele><time>2026-04-12T07:28:40.97Z</time></trkpt><trkpt lat="40.7494205" lon="14.8321761"><ele>739.0</ele><time>2026-04-12T07:28:41.971Z</time></trkpt><trkpt lat="40.7493471" lon="14.8321107"><ele>739.0</ele><time>2026-04-12T07:28:42.977Z</time></trkpt><trkpt lat="40.7492714" lon="14.8320221"><ele>739.0</ele><time>2026-04-12T07:28:43.967Z</time></trkpt><trkpt lat="40.7491992" lon="14.8319213"><ele>739.0</ele><time>2026-04-12T07:28:45.035Z</time></trkpt><trkpt lat="40.7491412" lon="14.8318368"><ele>742.2</ele><time>2026-04-12T07:28:45.968Z</time></trkpt><trkpt lat="40.7490651" lon="14.8317141"><ele>745.4000000000001</ele><time>2026-04-12T07:28:47.967Z</time></trkpt><trkpt lat="40.7490028" lon="14.8316726"><ele>748.6</ele><time>2026-04-12T07:28:48.964Z</time></trkpt><trkpt lat="40.7489046" lon="14.8316457"><ele>751.8</ele><time>2026-04-12T07:28:49.967Z</time></trkpt><trkpt lat="40.7487813" lon="14.8316076"><ele>755.0</ele><time>2026-04-12T07:28:50.967Z</time></trkpt><trkpt lat="40.7486695" lon="14.8315617"><ele>755.0</ele><time>2026-04-12T07:28:52.051Z</time></trkpt><trkpt lat="40.7485719" lon="14.831515"><ele>755.0</ele><time>2026-04-12T07:28:53.021Z</time></trkpt><trkpt lat="40.7484994" lon="14.8314526"><ele>755.0</ele><time>2026-04-12T07:28:54.038Z</time></trkpt><trkpt lat="40.7484193" lon="14.8313604"><ele>755.0</ele><time>2026-04-12T07:28:54.965Z</time></trkpt><trkpt lat="40.7483301" lon="14.8312732"><ele>755.0</ele><time>2026-04-12T07:28:55.966Z</time></trkpt><trkpt lat="40.7481978" lon="14.831183"><ele>752.25</ele><time>2026-04-12T07:28:56.967Z</time></trkpt><trkpt lat="40.7480632" lon="14.8310795"><ele>749.5</ele><time>2026-04-12T07:28:57.96Z</time></trkpt><trkpt lat="40.7479405" lon="14.8309821"><ele>746.75</ele><time>2026-04-12T07:28:58.968Z</time></trkpt><trkpt lat="40.7478228" lon="14.8308956"><ele>744.0</ele><time>2026-04-12T07:28:59.961Z</time></trkpt><trkpt lat="40.7477127" lon="14.830834"><ele>751.0</ele><time>2026-04-12T07:29:00.965Z</time></trkpt><trkpt lat="40.7476286" lon="14.8308074"><ele>758.0</ele><time>2026-04-12T07:29:01.969Z</time></trkpt><trkpt lat="40.7475476" lon="14.830769"><ele>765.0</ele><time>2026-04-12T07:29:03.963Z</time></trkpt><trkpt lat="40.7474853" lon="14.8308018"><ele>772.0</ele><time>2026-04-12T07:29:05.966Z</time></trkpt><trkpt lat="40.7473907" lon="14.8308355"><ele>779.0</ele><time>2026-04-12T07:29:07.966Z</time></trkpt><trkpt lat="40.7472594" lon="14.8309531"><ele>772.0</ele><time>2026-04-12T07:29:09.966Z</time></trkpt><trkpt lat="40.7471941" lon="14.8310726"><ele>765.0</ele><time>2026-04-12T07:29:10.969Z</time></trkpt><trkpt lat="40.747148" lon="14.8312228"><ele>758.0</ele><time>2026-04-12T07:29:11.967Z</time></trkpt><trkpt lat="40.7470951" lon="14.831434"><ele>751.0</ele><time>2026-04-12T07:29:12.97Z</time></trkpt><trkpt lat="40.7470561" lon="14.8316225"><ele>751.1999999999999</ele><time>2026-04-12T07:29:13.964Z</time></trkpt><trkpt lat="40.7470472" lon="14.8318198"><ele>751.4</ele><time>2026-04-12T07:29:14.973Z</time></trkpt><trkpt lat="40.7470287" lon="14.8319406"><ele>751.6</ele><time>2026-04-12T07:29:15.972Z</time></trkpt><trkpt lat="40.7470064" lon="14.8320358"><ele>751.8</ele><time>2026-04-12T07:29:16.967Z</time></trkpt><trkpt lat="40.7469771" lon="14.8321189"><ele>752.0</ele><time>2026-04-12T07:29:17.967Z</time></trkpt><trkpt lat="40.7468639" lon="14.8321724"><ele>752.0</ele><time>2026-04-12T07:29:19.966Z</time></trkpt><trkpt lat="40.746788" lon="14.8321616"><ele>752.0</ele><time>2026-04-12T07:29:20.975Z</time></trkpt><trkpt lat="40.7466857" lon="14.83212"><ele>752.0</ele><time>2026-04-12T07:29:21.97Z</time></trkpt><trkpt lat="40.7465524" lon="14.8320372"><ele>752.0</ele><time>2026-04-12T07:29:22.963Z</time></trkpt><trkpt lat="40.7464144" lon="14.8319638"><ele>752.0</ele><time>2026-04-12T07:29:23.962Z</time></trkpt><trkpt lat="40.7462684" lon="14.8319171"><ele>752.0</ele><time>2026-04-12T07:29:24.963Z</time></trkpt><trkpt lat="40.7461354" lon="14.8318798"><ele>752.0</ele><time>2026-04-12T07:29:25.969Z</time></trkpt><trkpt lat="40.746039" lon="14.8318368"><ele>752.0</ele><time>2026-04-12T07:29:26.961Z</time></trkpt><trkpt lat="40.7459739" lon="14.8317896"><ele>754.5</ele><time>2026-04-12T07:29:27.972Z</time></trkpt><trkpt lat="40.7459158" lon="14.8317337"><ele>757.0</ele><time>2026-04-12T07:29:28.949Z</time></trkpt><trkpt lat="40.7458702" lon="14.8316535"><ele>759.5</ele><time>2026-04-12T07:29:29.961Z</time></trkpt><trkpt lat="40.7458215" lon="14.8315477"><ele>762.0</ele><time>2026-04-12T07:29:30.966Z</time></trkpt><trkpt lat="40.7457749" lon="14.8314314"><ele>764.5</ele><time>2026-04-12T07:29:31.973Z</time></trkpt><trkpt lat="40.7457446" lon="14.8313335"><ele>767.0</ele><time>2026-04-12T07:29:32.969Z</time></trkpt><trkpt lat="40.7456865" lon="14.8312034"><ele>767.0</ele><time>2026-04-12T07:29:34.97Z</time></trkpt><trkpt lat="40.745572" lon="14.8311536"><ele>767.0</ele><time>2026-04-12T07:29:36.969Z</time></trkpt><trkpt lat="40.7454618" lon="14.8311432"><ele>767.0</ele><time>2026-04-12T07:29:37.973Z</time></trkpt><trkpt lat="40.7453516" lon="14.831123"><ele>767.0</ele><time>2026-04-12T07:29:38.97Z</time></trkpt><trkpt lat="40.7452501" lon="14.8311074"><ele>767.0</ele><time>2026-04-12T07:29:39.966Z</time></trkpt><trkpt lat="40.7451596" lon="14.8310787"><ele>769.0</ele><time>2026-04-12T07:29:40.971Z</time></trkpt><trkpt lat="40.7450618" lon="14.8309991"><ele>771.0</ele><time>2026-04-12T07:29:41.969Z</time></trkpt><trkpt lat="40.7449707" lon="14.8308779"><ele>773.0</ele><time>2026-04-12T07:29:42.946Z</time></trkpt><trkpt lat="40.7448861" lon="14.8307469"><ele>775.0</ele><time>2026-04-12T07:29:43.973Z</time></trkpt><trkpt lat="40.7447833" lon="14.8305859"><ele>775.0</ele><time>2026-04-12T07:29:44.972Z</time></trkpt><trkpt lat="40.7446905" lon="14.8304475"><ele>775.0</ele><time>2026-04-12T07:29:45.971Z</time></trkpt><trkpt lat="40.7446071" lon="14.8303362"><ele>775.0</ele><time>2026-04-12T07:29:46.965Z</time></trkpt><trkpt lat="40.7445083" lon="14.8302506"><ele>775.0</ele><time>2026-04-12T07:29:47.962Z</time></trkpt><trkpt lat="40.7444044" lon="14.8301707"><ele>772.4</ele><time>2026-04-12T07:29:48.965Z</time></trkpt><trkpt lat="40.7443145" lon="14.8300892"><ele>769.8</ele><time>2026-04-12T07:29:49.972Z</time></trkpt><trkpt lat="40.744245" lon="14.8300035"><ele>767.2</ele><time>2026-04-12T07:29:50.966Z</time></trkpt><trkpt lat="40.7441792" lon="14.8298941"><ele>764.6</ele><time>2026-04-12T07:29:51.974Z</time></trkpt><trkpt lat="40.7441138" lon="14.8297551"><ele>762.0</ele><time>2026-04-12T07:29:52.964Z</time></trkpt><trkpt lat="40.7440595" lon="14.8295881"><ele>762.0</ele><time>2026-04-12T07:29:53.968Z</time></trkpt><trkpt lat="40.7440099" lon="14.8294108"><ele>762.0</ele><time>2026-04-12T07:29:54.96Z</time></trkpt><trkpt lat="40.7439509" lon="14.8292468"><ele>762.0</ele><time>2026-04-12T07:29:55.969Z</time></trkpt><trkpt lat="40.7438906" lon="14.8291147"><ele>762.0</ele><time>2026-04-12T07:29:56.949Z</time></trkpt><trkpt lat="40.7438405" lon="14.8290022"><ele>763.0</ele><time>2026-04-12T07:29:57.966Z</time></trkpt><trkpt lat="40.743797" lon="14.828909"><ele>764.0</ele><time>2026-04-12T07:29:58.962Z</time></trkpt><trkpt lat="40.7437642" lon="14.8288349"><ele>765.0</ele><time>2026-04-12T07:29:59.988Z</time></trkpt><trkpt lat="40.7437394" lon="14.8287553"><ele>766.0</ele><time>2026-04-12T07:30:01.968Z</time></trkpt><trkpt lat="40.7438108" lon="14.8287479"><ele>767.0</ele><time>2026-04-12T07:30:03.959Z</time></trkpt><trkpt lat="40.7438712" lon="14.8287807"><ele>768.0</ele><time>2026-04-12T07:30:04.974Z</time></trkpt><trkpt lat="40.7439392" lon="14.8288157"><ele>769.0</ele><time>2026-04-12T07:30:05.969Z</time></trkpt><trkpt lat="40.7440147" lon="14.8288296"><ele>769.0</ele><time>2026-04-12T07:30:07.027Z</time></trkpt><trkpt lat="40.7440979" lon="14.8288393"><ele>769.0</ele><time>2026-04-12T07:30:08.026Z</time></trkpt><trkpt lat="40.7441899" lon="14.8288379"><ele>769.0</ele><time>2026-04-12T07:30:08.967Z</time></trkpt><trkpt lat="40.7442884" lon="14.8288121"><ele>769.0</ele><time>2026-04-12T07:30:09.972Z</time></trkpt><trkpt lat="40.7443947" lon="14.8287944"><ele>769.0</ele><time>2026-04-12T07:30:10.969Z</time></trkpt><trkpt lat="40.7444978" lon="14.8287802"><ele>770.5</ele><time>2026-04-12T07:30:11.965Z</time></trkpt><trkpt lat="40.7446003" lon="14.8287593"><ele>772.0</ele><time>2026-04-12T07:30:12.969Z</time></trkpt><trkpt lat="40.7447028" lon="14.8287495"><ele>773.5</ele><time>2026-04-12T07:30:13.97Z</time></trkpt><trkpt lat="40.7448099" lon="14.8287592"><ele>775.0</ele><time>2026-04-12T07:30:15.068Z</time></trkpt><trkpt lat="40.7450182" lon="14.8287996"><ele>775.0</ele><time>2026-04-12T07:30:17.047Z</time></trkpt><trkpt lat="40.745118" lon="14.8288214"><ele>775.0</ele><time>2026-04-12T07:30:17.962Z</time></trkpt><trkpt lat="40.7452137" lon="14.8288203"><ele>775.0</ele><time>2026-04-12T07:30:18.961Z</time></trkpt><trkpt lat="40.7452909" lon="14.8287944"><ele>775.0</ele><time>2026-04-12T07:30:19.962Z</time></trkpt><trkpt lat="40.7453555" lon="14.8286903"><ele>775.0</ele><time>2026-04-12T07:30:23.029Z</time></trkpt><trkpt lat="40.7453848" lon="14.8286023"><ele>777.1666666666666</ele><time>2026-04-12T07:30:23.956Z</time></trkpt><trkpt lat="40.7453931" lon="14.8284981"><ele>779.3333333333333</ele><time>2026-04-12T07:30:25.038Z</time></trkpt><trkpt lat="40.7454092" lon="14.8283941"><ele>781.5</ele><time>2026-04-12T07:30:25.964Z</time></trkpt><trkpt lat="40.7454416" lon="14.8282876"><ele>783.6666666666667</ele><time>2026-04-12T07:30:26.966Z</time></trkpt><trkpt lat="40.7455195" lon="14.8282272"><ele>785.8333333333334</ele><time>2026-04-12T07:30:27.997Z</time></trkpt><trkpt lat="40.7455846" lon="14.8281768"><ele>788.0</ele><time>2026-04-12T07:30:29.016Z</time></trkpt><trkpt lat="40.7457096" lon="14.8280435"><ele>783.6666666666667</ele><time>2026-04-12T07:30:31.966Z</time></trkpt><trkpt lat="40.7457471" lon="14.8279057"><ele>779.3333333333334</ele><time>2026-04-12T07:30:32.994Z</time></trkpt><trkpt lat="40.7457818" lon="14.8277904"><ele>775.0</ele><time>2026-04-12T07:30:33.96Z</time></trkpt><trkpt lat="40.7458008" lon="14.8276988"><ele>770.6666666666667</ele><time>2026-04-12T07:30:34.972Z</time></trkpt><trkpt lat="40.7458277" lon="14.8276103"><ele>766.3333333333334</ele><time>2026-04-12T07:30:35.963Z</time></trkpt><trkpt lat="40.7458958" lon="14.8275348"><ele>762.0</ele><time>2026-04-12T07:30:36.951Z</time></trkpt><trkpt lat="40.7459851" lon="14.8274539"><ele>756.4000000000001</ele><time>2026-04-12T07:30:37.962Z</time></trkpt><trkpt lat="40.7460674" lon="14.8273589"><ele>750.8000000000001</ele><time>2026-04-12T07:30:38.969Z</time></trkpt><trkpt lat="40.7461204" lon="14.8272493"><ele>745.2</ele><time>2026-04-12T07:30:39.971Z</time></trkpt><trkpt lat="40.7461701" lon="14.8271467"><ele>739.6</ele><time>2026-04-12T07:30:40.972Z</time></trkpt><trkpt lat="40.7462145" lon="14.8270474"><ele>734.0</ele><time>2026-04-12T07:30:41.969Z</time></trkpt><trkpt lat="40.7462475" lon="14.8269217"><ele>734.0</ele><time>2026-04-12T07:30:42.967Z</time></trkpt><trkpt lat="40.7462651" lon="14.8268111"><ele>734.0</ele><time>2026-04-12T07:30:43.966Z</time></trkpt><trkpt lat="40.7462737" lon="14.8267064"><ele>734.0</ele><time>2026-04-12T07:30:44.968Z</time></trkpt><trkpt lat="40.7462749" lon="14.826611"><ele>734.0</ele><time>2026-04-12T07:30:45.966Z</time></trkpt><trkpt lat="40.7462266" lon="14.8266915"><ele>734.0</ele><time>2026-04-12T07:31:08.965Z</time></trkpt><trkpt lat="40.7461946" lon="14.826793"><ele>734.0</ele><time>2026-04-12T07:31:09.97Z</time></trkpt><trkpt lat="40.7461611" lon="14.8269052"><ele>734.0</ele><time>2026-04-12T07:31:10.974Z</time></trkpt><trkpt lat="40.7461231" lon="14.8269956"><ele>734.0</ele><time>2026-04-12T07:31:11.967Z</time></trkpt><trkpt lat="40.7460045" lon="14.82707"><ele>734.0</ele><time>2026-04-12T07:31:13.966Z</time></trkpt><trkpt lat="40.745932" lon="14.8270944"><ele>734.0</ele><time>2026-04-12T07:31:15.051Z</time></trkpt><trkpt lat="40.7458614" lon="14.8271097"><ele>734.0</ele><time>2026-04-12T07:31:15.975Z</time></trkpt><trkpt lat="40.745761" lon="14.8271888"><ele>734.1666666666666</ele><time>2026-04-12T07:31:17.967Z</time></trkpt><trkpt lat="40.745717" lon="14.8272581"><ele>734.3333333333333</ele><time>2026-04-12T07:31:18.972Z</time></trkpt><trkpt lat="40.745669" lon="14.8273327"><ele>734.5</ele><time>2026-04-12T07:31:19.971Z</time></trkpt><trkpt lat="40.7456256" lon="14.8274188"><ele>734.6666666666666</ele><time>2026-04-12T07:31:20.97Z</time></trkpt><trkpt lat="40.745574" lon="14.8274753"><ele>734.8333333333334</ele><time>2026-04-12T07:31:21.965Z</time></trkpt><trkpt lat="40.7454773" lon="14.8275245"><ele>735.0</ele><time>2026-04-12T07:31:23.974Z</time></trkpt><trkpt lat="40.7454143" lon="14.8275052"><ele>716.0</ele><time>2026-04-12T07:31:24.965Z</time></trkpt><trkpt lat="40.7462266" lon="14.8266915"><ele>716.0</ele><time>2026-04-12T07:31:08.965Z</time></trkpt><trkpt lat="40.7461946" lon="14.826793"><ele>716.0</ele><time>2026-04-12T07:31:09.97Z</time></trkpt><trkpt lat="40.7461611" lon="14.8269052"><ele>716.0</ele><time>2026-04-12T07:31:10.974Z</time></trkpt><trkpt lat="40.7461231" lon="14.8269956"><ele>716.0</ele><time>2026-04-12T07:31:11.967Z</time></trkpt><trkpt lat="40.7460045" lon="14.82707"><ele>716.0</ele><time>2026-04-12T07:31:13.966Z</time></trkpt><trkpt lat="40.745932" lon="14.8270944"><ele>719.1666666666666</ele><time>2026-04-12T07:31:15.051Z</time></trkpt><trkpt lat="40.7458614" lon="14.8271097"><ele>722.3333333333333</ele><time>2026-04-12T07:31:15.975Z</time></trkpt><trkpt lat="40.745761" lon="14.8271888"><ele>725.5</ele><time>2026-04-12T07:31:17.967Z</time></trkpt><trkpt lat="40.745717" lon="14.8272581"><ele>728.6666666666666</ele><time>2026-04-12T07:31:18.972Z</time></trkpt><trkpt lat="40.745669" lon="14.8273327"><ele>731.8333333333334</ele><time>2026-04-12T07:31:19.971Z</time></trkpt><trkpt lat="40.7456256" lon="14.8274188"><ele>735.0</ele><time>2026-04-12T07:31:20.97Z</time></trkpt><trkpt lat="40.745574" lon="14.8274753"><ele>735.0</ele><time>2026-04-12T07:31:21.965Z</time></trkpt><trkpt lat="40.7454773" lon="14.8275245"><ele>735.0</ele><time>2026-04-12T07:31:23.974Z</time></trkpt><trkpt lat="40.7454143" lon="14.8275052"><ele>735.0</ele><time>2026-04-12T07:31:24.965Z</time></trkpt><trkpt lat="40.7452947" lon="14.8274622"><ele>735.0</ele><time>2026-04-12T07:31:26.96Z</time></trkpt><trkpt lat="40.7452272" lon="14.8274494"><ele>735.0</ele><time>2026-04-12T07:31:27.966Z</time></trkpt><trkpt lat="40.7451481" lon="14.827486"><ele>735.0</ele><time>2026-04-12T07:31:29.955Z</time></trkpt><trkpt lat="40.74507" lon="14.827583"><ele>734.8333333333334</ele><time>2026-04-12T07:31:31.962Z</time></trkpt><trkpt lat="40.745031" lon="14.8276626"><ele>734.6666666666666</ele><time>2026-04-12T07:31:32.966Z</time></trkpt><trkpt lat="40.7450074" lon="14.827744"><ele>734.5</ele><time>2026-04-12T07:31:33.962Z</time></trkpt><trkpt lat="40.7449581" lon="14.8278662"><ele>734.3333333333333</ele><time>2026-04-12T07:31:35.957Z</time></trkpt><trkpt lat="40.7449079" lon="14.8279474"><ele>734.1666666666666</ele><time>2026-04-12T07:31:38.963Z</time></trkpt><trkpt lat="40.7447897" lon="14.8279336"><ele>734.0</ele><time>2026-04-12T07:31:40.972Z</time></trkpt><trkpt lat="40.7447072" lon="14.8279024"><ele>734.0</ele><time>2026-04-12T07:31:41.971Z</time></trkpt><trkpt lat="40.7446003" lon="14.8278604"><ele>734.0</ele><time>2026-04-12T07:31:42.968Z</time></trkpt><trkpt lat="40.7445014" lon="14.8278326"><ele>734.0</ele><time>2026-04-12T07:31:43.96Z</time></trkpt><trkpt lat="40.74438" lon="14.8278044"><ele>734.0</ele><time>2026-04-12T07:31:44.958Z</time></trkpt><trkpt lat="40.7442531" lon="14.8277704"><ele>735.25</ele><time>2026-04-12T07:31:45.958Z</time></trkpt><trkpt lat="40.7441199" lon="14.827714"><ele>736.5</ele><time>2026-04-12T07:31:46.948Z</time></trkpt><trkpt lat="40.7439882" lon="14.8276476"><ele>737.75</ele><time>2026-04-12T07:31:47.961Z</time></trkpt><trkpt lat="40.7438714" lon="14.8275963"><ele>739.0</ele><time>2026-04-12T07:31:48.957Z</time></trkpt><trkpt lat="40.7437452" lon="14.8275501"><ele>731.25</ele><time>2026-04-12T07:31:49.961Z</time></trkpt><trkpt lat="40.743622" lon="14.8275308"><ele>723.5</ele><time>2026-04-12T07:31:50.962Z</time></trkpt><trkpt lat="40.7434806" lon="14.8275041"><ele>715.75</ele><time>2026-04-12T07:31:51.968Z</time></trkpt><trkpt lat="40.7433578" lon="14.8274648"><ele>708.0</ele><time>2026-04-12T07:31:52.967Z</time></trkpt><trkpt lat="40.7432256" lon="14.8274492"><ele>708.0</ele><time>2026-04-12T07:31:53.953Z</time></trkpt><trkpt lat="40.7431027" lon="14.8274166"><ele>708.0</ele><time>2026-04-12T07:31:54.96Z</time></trkpt><trkpt lat="40.7429769" lon="14.8273922"><ele>708.0</ele><time>2026-04-12T07:31:55.967Z</time></trkpt><trkpt lat="40.7428786" lon="14.8273711"><ele>708.0</ele><time>2026-04-12T07:31:56.964Z</time></trkpt><trkpt lat="40.7427908" lon="14.8273671"><ele>708.0</ele><time>2026-04-12T07:31:57.971Z</time></trkpt><trkpt lat="40.7427078" lon="14.8273979"><ele>706.6666666666666</ele><time>2026-04-12T07:31:58.965Z</time></trkpt><trkpt lat="40.7426214" lon="14.8274337"><ele>705.3333333333334</ele><time>2026-04-12T07:31:59.964Z</time></trkpt><trkpt lat="40.7425562" lon="14.8274508"><ele>704.0</ele><time>2026-04-12T07:32:00.967Z</time></trkpt><trkpt lat="40.7424869" lon="14.8274514"><ele>702.6666666666667</ele><time>2026-04-12T07:32:01.965Z</time></trkpt><trkpt lat="40.7424124" lon="14.8274441"><ele>701.3333333333334</ele><time>2026-04-12T07:32:02.966Z</time></trkpt><trkpt lat="40.7423391" lon="14.8274421"><ele>700.0</ele><time>2026-04-12T07:32:03.973Z</time></trkpt><trkpt lat="40.7422602" lon="14.8274591"><ele>700.0</ele><time>2026-04-12T07:32:04.971Z</time></trkpt><trkpt lat="40.742189" lon="14.8274912"><ele>700.0</ele><time>2026-04-12T07:32:05.964Z</time></trkpt><trkpt lat="40.7421319" lon="14.8275544"><ele>700.0</ele><time>2026-04-12T07:32:06.967Z</time></trkpt><trkpt lat="40.7420502" lon="14.8275981"><ele>700.0</ele><time>2026-04-12T07:32:07.964Z</time></trkpt><trkpt lat="40.7419641" lon="14.8276225"><ele>700.0</ele><time>2026-04-12T07:32:08.961Z</time></trkpt><trkpt lat="40.7418715" lon="14.8276483"><ele>700.0</ele><time>2026-04-12T07:32:09.966Z</time></trkpt><trkpt lat="40.7417662" lon="14.8276723"><ele>698.5</ele><time>2026-04-12T07:32:10.963Z</time></trkpt><trkpt lat="40.7416474" lon="14.827686"><ele>697.0</ele><time>2026-04-12T07:32:11.963Z</time></trkpt><trkpt lat="40.7415396" lon="14.8277066"><ele>695.5</ele><time>2026-04-12T07:32:12.949Z</time></trkpt><trkpt lat="40.7414253" lon="14.82769"><ele>694.0</ele><time>2026-04-12T07:32:13.967Z</time></trkpt><trkpt lat="40.741318" lon="14.8276566"><ele>691.8000000000001</ele><time>2026-04-12T07:32:14.975Z</time></trkpt><trkpt lat="40.7411983" lon="14.8276367"><ele>689.6</ele><time>2026-04-12T07:32:15.972Z</time></trkpt><trkpt lat="40.7410747" lon="14.8276042"><ele>687.4</ele><time>2026-04-12T07:32:16.966Z</time></trkpt><trkpt lat="40.7409685" lon="14.8275601"><ele>685.2</ele><time>2026-04-12T07:32:18.007Z</time></trkpt><trkpt lat="40.7408864" lon="14.8275124"><ele>683.0</ele><time>2026-04-12T07:32:18.977Z</time></trkpt><trkpt lat="40.7408121" lon="14.8274523"><ele>682.0</ele><time>2026-04-12T07:32:19.977Z</time></trkpt><trkpt lat="40.7407568" lon="14.8273985"><ele>681.0</ele><time>2026-04-12T07:32:20.968Z</time></trkpt><trkpt lat="40.740698" lon="14.827341"><ele>680.0</ele><time>2026-04-12T07:32:21.966Z</time></trkpt><trkpt lat="40.7406277" lon="14.8272739"><ele>679.0</ele><time>2026-04-12T07:32:22.964Z</time></trkpt><trkpt lat="40.7405562" lon="14.827218"><ele>678.0</ele><time>2026-04-12T07:32:23.974Z</time></trkpt><trkpt lat="40.7404651" lon="14.8271715"><ele>677.0</ele><time>2026-04-12T07:32:24.977Z</time></trkpt><trkpt lat="40.7403736" lon="14.8271321"><ele>677.0</ele><time>2026-04-12T07:32:25.969Z</time></trkpt><trkpt lat="40.7402965" lon="14.8270939"><ele>677.0</ele><time>2026-04-12T07:32:26.969Z</time></trkpt><trkpt lat="40.7402226" lon="14.8270467"><ele>677.0</ele><time>2026-04-12T07:32:27.969Z</time></trkpt><trkpt lat="40.74017" lon="14.8269882"><ele>677.0</ele><time>2026-04-12T07:32:28.973Z</time></trkpt><trkpt lat="40.7401095" lon="14.8269314"><ele>677.0</ele><time>2026-04-12T07:32:30.966Z</time></trkpt><trkpt lat="40.7400888" lon="14.8270202"><ele>677.0</ele><time>2026-04-12T07:32:33.968Z</time></trkpt><trkpt lat="40.7400923" lon="14.8271688"><ele>671.8</ele><time>2026-04-12T07:32:35.965Z</time></trkpt><trkpt lat="40.7401086" lon="14.8273193"><ele>666.6</ele><time>2026-04-12T07:32:37.947Z</time></trkpt><trkpt lat="40.7401258" lon="14.8274898"><ele>661.4</ele><time>2026-04-12T07:32:39.969Z</time></trkpt><trkpt lat="40.7401476" lon="14.8276005"><ele>656.1999999999999</ele><time>2026-04-12T07:32:40.97Z</time></trkpt><trkpt lat="40.7401762" lon="14.8277348"><ele>651.0</ele><time>2026-04-12T07:32:41.97Z</time></trkpt><trkpt lat="40.7401999" lon="14.8278533"><ele>653.5999999999999</ele><time>2026-04-12T07:32:42.955Z</time></trkpt><trkpt lat="40.7402141" lon="14.8279868"><ele>656.2</ele><time>2026-04-12T07:32:44.965Z</time></trkpt><trkpt lat="40.7402625" lon="14.8280636"><ele>658.8</ele><time>2026-04-12T07:32:46.947Z</time></trkpt><trkpt lat="40.740372" lon="14.8281345"><ele>661.4000000000001</ele><time>2026-04-12T07:32:48.96Z</time></trkpt><trkpt lat="40.7404529" lon="14.8281462"><ele>664.0</ele><time>2026-04-12T07:32:49.968Z</time></trkpt><trkpt lat="40.7405292" lon="14.8281774"><ele>664.0</ele><time>2026-04-12T07:32:50.969Z</time></trkpt><trkpt lat="40.7405867" lon="14.8282193"><ele>664.0</ele><time>2026-04-12T07:32:51.955Z</time></trkpt><trkpt lat="40.740677" lon="14.8283394"><ele>664.0</ele><time>2026-04-12T07:32:53.965Z</time></trkpt><trkpt lat="40.7407288" lon="14.8284114"><ele>664.0</ele><time>2026-04-12T07:32:54.964Z</time></trkpt><trkpt lat="40.7407846" lon="14.8285039"><ele>664.0</ele><time>2026-04-12T07:32:55.971Z</time></trkpt><trkpt lat="40.7408315" lon="14.8286051"><ele>664.0</ele><time>2026-04-12T07:32:56.974Z</time></trkpt><trkpt lat="40.740863" lon="14.8287102"><ele>664.6666666666667</ele><time>2026-04-12T07:32:57.96Z</time></trkpt><trkpt lat="40.7408793" lon="14.8288062"><ele>665.3333333333334</ele><time>2026-04-12T07:32:58.964Z</time></trkpt><trkpt lat="40.7409046" lon="14.8289406"><ele>666.0</ele><time>2026-04-12T07:33:00.962Z</time></trkpt><trkpt lat="40.7409416" lon="14.8290128"><ele>666.6666666666666</ele><time>2026-04-12T07:33:01.972Z</time></trkpt><trkpt lat="40.7410377" lon="14.8290913"><ele>667.3333333333333</ele><time>2026-04-12T07:33:03.965Z</time></trkpt><trkpt lat="40.7410968" lon="14.8291229"><ele>668.0</ele><time>2026-04-12T07:33:04.966Z</time></trkpt><trkpt lat="40.7411482" lon="14.8291793"><ele>668.0</ele><time>2026-04-12T07:33:05.962Z</time></trkpt><trkpt lat="40.7411843" lon="14.8292692"><ele>668.0</ele><time>2026-04-12T07:33:06.96Z</time></trkpt><trkpt lat="40.7411762" lon="14.8293932"><ele>668.0</ele><time>2026-04-12T07:33:08.963Z</time></trkpt><trkpt lat="40.741095" lon="14.8295105"><ele>668.0</ele><time>2026-04-12T07:33:10.962Z</time></trkpt><trkpt lat="40.7410461" lon="14.8295761"><ele>668.0</ele><time>2026-04-12T07:33:11.96Z</time></trkpt><trkpt lat="40.7409877" lon="14.8296458"><ele>668.0</ele><time>2026-04-12T07:33:12.962Z</time></trkpt><trkpt lat="40.7409452" lon="14.8297097"><ele>657.8</ele><time>2026-04-12T07:33:13.961Z</time></trkpt><trkpt lat="40.7408893" lon="14.8298326"><ele>647.5999999999999</ele><time>2026-04-12T07:33:15.961Z</time></trkpt><trkpt lat="40.7408668" lon="14.8299339"><ele>637.4000000000001</ele><time>2026-04-12T07:33:16.96Z</time></trkpt><trkpt lat="40.7408561" lon="14.8300603"><ele>627.2</ele><time>2026-04-12T07:33:18.026Z</time></trkpt><trkpt lat="40.7408439" lon="14.8302025"><ele>617.0</ele><time>2026-04-12T07:33:19.02Z</time></trkpt><trkpt lat="40.7408236" lon="14.83032"><ele>613.4</ele><time>2026-04-12T07:33:20.031Z</time></trkpt><trkpt lat="40.7407996" lon="14.8304221"><ele>609.8000000000001</ele><time>2026-04-12T07:33:20.96Z</time></trkpt><trkpt lat="40.740776" lon="14.8305078"><ele>606.2</ele><time>2026-04-12T07:33:21.961Z</time></trkpt><trkpt lat="40.7407655" lon="14.8306397"><ele>602.6</ele><time>2026-04-12T07:33:24.022Z</time></trkpt><trkpt lat="40.7408005" lon="14.8307776"><ele>599.0</ele><time>2026-04-12T07:33:25.968Z</time></trkpt><trkpt lat="40.7409065" lon="14.8308461"><ele>599.0</ele><time>2026-04-12T07:33:27.968Z</time></trkpt><trkpt lat="40.7410306" lon="14.8309044"><ele>599.0</ele><time>2026-04-12T07:33:30.022Z</time></trkpt><trkpt lat="40.7411011" lon="14.8309113"><ele>599.0</ele><time>2026-04-12T07:33:31.968Z</time></trkpt><trkpt lat="40.7411654" lon="14.8308595"><ele>599.0</ele><time>2026-04-12T07:33:33.969Z</time></trkpt><trkpt lat="40.7412304" lon="14.8308262"><ele>599.0</ele><time>2026-04-12T07:33:35.971Z</time></trkpt><trkpt lat="40.7412837" lon="14.8307769"><ele>599.0</ele><time>2026-04-12T07:33:37.959Z</time></trkpt><trkpt lat="40.7413044" lon="14.8308835"><ele>600.5</ele><time>2026-04-12T07:33:43.972Z</time></trkpt><trkpt lat="40.7413066" lon="14.8309972"><ele>602.0</ele><time>2026-04-12T07:33:44.966Z</time></trkpt><trkpt lat="40.7413147" lon="14.8310837"><ele>603.5</ele><time>2026-04-12T07:33:45.971Z</time></trkpt><trkpt lat="40.7413413" lon="14.8312089"><ele>605.0</ele><time>2026-04-12T07:33:46.964Z</time></trkpt><trkpt lat="40.7413764" lon="14.8313149"><ele>606.5</ele><time>2026-04-12T07:33:48.968Z</time></trkpt><trkpt lat="40.7414644" lon="14.8313165"><ele>608.0</ele><time>2026-04-12T07:33:54.962Z</time></trkpt><trkpt lat="40.7415411" lon="14.8313106"><ele>608.0</ele><time>2026-04-12T07:33:56.957Z</time></trkpt><trkpt lat="40.7416538" lon="14.8312944"><ele>608.0</ele><time>2026-04-12T07:33:58.975Z</time></trkpt><trkpt lat="40.7417148" lon="14.8312691"><ele>608.0</ele><time>2026-04-12T07:33:59.963Z</time></trkpt><trkpt lat="40.7417901" lon="14.8312181"><ele>608.0</ele><time>2026-04-12T07:34:00.957Z</time></trkpt><trkpt lat="40.7418603" lon="14.8311566"><ele>608.0</ele><time>2026-04-12T07:34:01.963Z</time></trkpt><trkpt lat="40.7419336" lon="14.8311061"><ele>608.0</ele><time>2026-04-12T07:34:02.967Z</time></trkpt><trkpt lat="40.7420399" lon="14.831066"><ele>612.5</ele><time>2026-04-12T07:34:04.964Z</time></trkpt><trkpt lat="40.741995" lon="14.8311781"><ele>617.0</ele><time>2026-04-12T07:34:11.965Z</time></trkpt><trkpt lat="40.7419969" lon="14.8312623"><ele>621.5</ele><time>2026-04-12T07:34:12.967Z</time></trkpt><trkpt lat="40.7420086" lon="14.8313757"><ele>626.0</ele><time>2026-04-12T07:34:14.037Z</time></trkpt><trkpt lat="40.7420428" lon="14.8314839"><ele>630.5</ele><time>2026-04-12T07:34:14.965Z</time></trkpt><trkpt lat="40.7420936" lon="14.8315793"><ele>635.0</ele><time>2026-04-12T07:34:15.969Z</time></trkpt><trkpt lat="40.7421522" lon="14.8316581"><ele>635.0</ele><time>2026-04-12T07:34:16.974Z</time></trkpt><trkpt lat="40.7422229" lon="14.8316912"><ele>635.0</ele><time>2026-04-12T07:34:17.974Z</time></trkpt><trkpt lat="40.742287" lon="14.8317093"><ele>635.0</ele><time>2026-04-12T07:34:19.041Z</time></trkpt><trkpt lat="40.7423539" lon="14.8317059"><ele>635.0</ele><time>2026-04-12T07:34:20.028Z</time></trkpt><trkpt lat="40.7424328" lon="14.8317129"><ele>635.0</ele><time>2026-04-12T07:34:20.959Z</time></trkpt><trkpt lat="40.7425361" lon="14.8316815"><ele>635.0</ele><time>2026-04-12T07:34:22.961Z</time></trkpt><trkpt lat="40.7424925" lon="14.8317874"><ele>636.5</ele><time>2026-04-12T07:34:25.965Z</time></trkpt><trkpt lat="40.7424855" lon="14.831892"><ele>638.0</ele><time>2026-04-12T07:34:29.033Z</time></trkpt><trkpt lat="40.7425335" lon="14.8319753"><ele>639.5</ele><time>2026-04-12T07:34:31.97Z</time></trkpt><trkpt lat="40.7426826" lon="14.8320384"><ele>641.0</ele><time>2026-04-12T07:34:33.965Z</time></trkpt><trkpt lat="40.742838" lon="14.8322064"><ele>641.0</ele><time>2026-04-12T07:34:35.029Z</time></trkpt><trkpt lat="40.7429415" lon="14.8322272"><ele>641.0</ele><time>2026-04-12T07:34:35.966Z</time></trkpt><trkpt lat="40.7430486" lon="14.8322269"><ele>641.0</ele><time>2026-04-12T07:34:36.968Z</time></trkpt><trkpt lat="40.7431373" lon="14.8322265"><ele>641.0</ele><time>2026-04-12T07:34:38.965Z</time></trkpt><trkpt lat="40.7431155" lon="14.8323057"><ele>641.0</ele><time>2026-04-12T07:34:42.97Z</time></trkpt><trkpt lat="40.743164" lon="14.8324267"><ele>641.0</ele><time>2026-04-12T07:34:45.97Z</time></trkpt><trkpt lat="40.7432059" lon="14.8324967"><ele>641.0</ele><time>2026-04-12T07:34:46.97Z</time></trkpt><trkpt lat="40.7433039" lon="14.8326789"><ele>641.0</ele><time>2026-04-12T07:34:48.969Z</time></trkpt><trkpt lat="40.7433942" lon="14.832765"><ele>641.0</ele><time>2026-04-12T07:34:49.967Z</time></trkpt><trkpt lat="40.7434666" lon="14.8328081"><ele>641.0</ele><time>2026-04-12T07:34:50.967Z</time></trkpt><trkpt lat="40.7435385" lon="14.8328339"><ele>641.1666666666666</ele><time>2026-04-12T07:34:52.038Z</time></trkpt><trkpt lat="40.7436029" lon="14.8328538"><ele>641.3333333333333</ele><time>2026-04-12T07:34:53.026Z</time></trkpt><trkpt lat="40.7436985" lon="14.832849"><ele>641.5</ele><time>2026-04-12T07:34:54.965Z</time></trkpt><trkpt lat="40.7437803" lon="14.8329438"><ele>641.6666666666666</ele><time>2026-04-12T07:34:57.074Z</time></trkpt><trkpt lat="40.7438365" lon="14.8330114"><ele>641.8333333333334</ele><time>2026-04-12T07:34:58.022Z</time></trkpt><trkpt lat="40.7438926" lon="14.8330787"><ele>642.0</ele><time>2026-04-12T07:34:59.032Z</time></trkpt><trkpt lat="40.7439453" lon="14.8331392"><ele>642.0</ele><time>2026-04-12T07:34:59.962Z</time></trkpt><trkpt lat="40.7440051" lon="14.8332099"><ele>642.0</ele><time>2026-04-12T07:35:00.97Z</time></trkpt><trkpt lat="40.7440663" lon="14.833281"><ele>642.0</ele><time>2026-04-12T07:35:01.962Z</time></trkpt><trkpt lat="40.7441178" lon="14.8333481"><ele>642.0</ele><time>2026-04-12T07:35:02.966Z</time></trkpt><trkpt lat="40.7442062" lon="14.8334024"><ele>642.0</ele><time>2026-04-12T07:35:04.969Z</time></trkpt><trkpt lat="40.7442708" lon="14.8334116"><ele>642.0</ele><time>2026-04-12T07:35:05.967Z</time></trkpt><trkpt lat="40.7443388" lon="14.8334053"><ele>646.4000000000001</ele><time>2026-04-12T07:35:06.963Z</time></trkpt><trkpt lat="40.7444197" lon="14.8333898"><ele>650.8000000000001</ele><time>2026-04-12T07:35:07.979Z</time></trkpt><trkpt lat="40.7444898" lon="14.8333627"><ele>655.2</ele><time>2026-04-12T07:35:08.965Z</time></trkpt><trkpt lat="40.7446108" lon="14.8333084"><ele>659.6</ele><time>2026-04-12T07:35:10.966Z</time></trkpt><trkpt lat="40.7446782" lon="14.8332831"><ele>664.0</ele><time>2026-04-12T07:35:11.962Z</time></trkpt><trkpt lat="40.7447649" lon="14.8332096"><ele>664.0</ele><time>2026-04-12T07:35:14.023Z</time></trkpt><trkpt lat="40.7448574" lon="14.833182"><ele>664.0</ele><time>2026-04-12T07:35:17.988Z</time></trkpt><trkpt lat="40.7449235" lon="14.833232"><ele>664.0</ele><time>2026-04-12T07:35:20.031Z</time></trkpt><trkpt lat="40.7449802" lon="14.8333305"><ele>664.0</ele><time>2026-04-12T07:35:23.952Z</time></trkpt><trkpt lat="40.74503" lon="14.8334576"><ele>664.0</ele><time>2026-04-12T07:35:25.955Z</time></trkpt><trkpt lat="40.7451002" lon="14.8335496"><ele>665.5</ele><time>2026-04-12T07:35:27.033Z</time></trkpt><trkpt lat="40.7452332" lon="14.833714"><ele>667.0</ele><time>2026-04-12T07:35:28.019Z</time></trkpt><trkpt lat="40.7453998" lon="14.8338243"><ele>668.5</ele><time>2026-04-12T07:35:29.04Z</time></trkpt><trkpt lat="40.7454704" lon="14.8338455"><ele>670.0</ele><time>2026-04-12T07:35:29.969Z</time></trkpt><trkpt lat="40.7455772" lon="14.8338202"><ele>670.0</ele><time>2026-04-12T07:35:31.969Z</time></trkpt><trkpt lat="40.7456383" lon="14.8337571"><ele>670.0</ele><time>2026-04-12T07:35:33.977Z</time></trkpt><trkpt lat="40.745677" lon="14.8336907"><ele>670.0</ele><time>2026-04-12T07:35:36.963Z</time></trkpt><trkpt lat="40.7457105" lon="14.8338003"><ele>670.0</ele><time>2026-04-12T07:35:39.973Z</time></trkpt><trkpt lat="40.7457219" lon="14.833886"><ele>670.0</ele><time>2026-04-12T07:35:40.966Z</time></trkpt><trkpt lat="40.7457669" lon="14.8340062"><ele>670.0</ele><time>2026-04-12T07:35:43.06Z</time></trkpt><trkpt lat="40.7458408" lon="14.8340436"><ele>670.0</ele><time>2026-04-12T07:35:43.964Z</time></trkpt><trkpt lat="40.7459529" lon="14.834101"><ele>670.0</ele><time>2026-04-12T07:35:44.967Z</time></trkpt><trkpt lat="40.7460565" lon="14.8341208"><ele>670.0</ele><time>2026-04-12T07:35:45.966Z</time></trkpt><trkpt lat="40.746148" lon="14.8341546"><ele>670.0</ele><time>2026-04-12T07:35:47.019Z</time></trkpt><trkpt lat="40.7462246" lon="14.8341924"><ele>670.0</ele><time>2026-04-12T07:35:48.021Z</time></trkpt><trkpt lat="40.7462987" lon="14.8342487"><ele>670.1666666666667</ele><time>2026-04-12T07:35:49.02Z</time></trkpt><trkpt lat="40.7463576" lon="14.8343369"><ele>670.3333333333334</ele><time>2026-04-12T07:35:49.964Z</time></trkpt><trkpt lat="40.7464182" lon="14.8343909"><ele>670.5</ele><time>2026-04-12T07:35:50.963Z</time></trkpt><trkpt lat="40.7464613" lon="14.8344843"><ele>670.6666666666666</ele><time>2026-04-12T07:35:51.966Z</time></trkpt><trkpt lat="40.7465076" lon="14.83459"><ele>670.8333333333333</ele><time>2026-04-12T07:35:52.97Z</time></trkpt><trkpt lat="40.746571" lon="14.8346774"><ele>671.0</ele><time>2026-04-12T07:35:54.03Z</time></trkpt><trkpt lat="40.7466573" lon="14.8347379"><ele>671.0</ele><time>2026-04-12T07:35:55.036Z</time></trkpt><trkpt lat="40.7467463" lon="14.8348126"><ele>671.0</ele><time>2026-04-12T07:35:55.954Z</time></trkpt><trkpt lat="40.7468481" lon="14.8348687"><ele>671.0</ele><time>2026-04-12T07:35:56.968Z</time></trkpt><trkpt lat="40.7469438" lon="14.834884"><ele>671.0</ele><time>2026-04-12T07:35:58.004Z</time></trkpt><trkpt lat="40.7470311" lon="14.8348921"><ele>671.0</ele><time>2026-04-12T07:35:58.963Z</time></trkpt><trkpt lat="40.7471178" lon="14.8348718"><ele>671.4</ele><time>2026-04-12T07:35:59.972Z</time></trkpt><trkpt lat="40.7472088" lon="14.8348434"><ele>671.8</ele><time>2026-04-12T07:36:00.963Z</time></trkpt><trkpt lat="40.7473016" lon="14.8348066"><ele>672.1999999999999</ele><time>2026-04-12T07:36:01.96Z</time></trkpt><trkpt lat="40.7473883" lon="14.8347433"><ele>672.5999999999999</ele><time>2026-04-12T07:36:03.084Z</time></trkpt><trkpt lat="40.7474547" lon="14.8346652"><ele>673.0</ele><time>2026-04-12T07:36:04.029Z</time></trkpt><trkpt lat="40.7474923" lon="14.8345544"><ele>673.0</ele><time>2026-04-12T07:36:05.032Z</time></trkpt><trkpt lat="40.747518" lon="14.8344586"><ele>673.0</ele><time>2026-04-12T07:36:05.956Z</time></trkpt><trkpt lat="40.747552" lon="14.8343591"><ele>673.0</ele><time>2026-04-12T07:36:06.968Z</time></trkpt><trkpt lat="40.7475731" lon="14.8342458"><ele>673.0</ele><time>2026-04-12T07:36:07.965Z</time></trkpt><trkpt lat="40.7475851" lon="14.8341167"><ele>673.0</ele><time>2026-04-12T07:36:08.959Z</time></trkpt><trkpt lat="40.7475968" lon="14.8339794"><ele>678.5999999999999</ele><time>2026-04-12T07:36:09.957Z</time></trkpt><trkpt lat="40.747604" lon="14.8338516"><ele>684.1999999999999</ele><time>2026-04-12T07:36:10.964Z</time></trkpt><trkpt lat="40.7475976" lon="14.8337291"><ele>689.8</ele><time>2026-04-12T07:36:11.971Z</time></trkpt><trkpt lat="40.7475777" lon="14.8336041"><ele>695.4</ele><time>2026-04-12T07:36:13.039Z</time></trkpt><trkpt lat="40.7475679" lon="14.8334934"><ele>701.0</ele><time>2026-04-12T07:36:13.963Z</time></trkpt><trkpt lat="40.7475618" lon="14.8333872"><ele>704.4</ele><time>2026-04-12T07:36:14.961Z</time></trkpt><trkpt lat="40.7475744" lon="14.833258"><ele>707.8</ele><time>2026-04-12T07:36:15.967Z</time></trkpt><trkpt lat="40.7476018" lon="14.8331018"><ele>711.1999999999999</ele><time>2026-04-12T07:36:16.97Z</time></trkpt><trkpt lat="40.7476305" lon="14.832949"><ele>714.5999999999999</ele><time>2026-04-12T07:36:17.97Z</time></trkpt><trkpt lat="40.7476469" lon="14.8328184"><ele>718.0</ele><time>2026-04-12T07:36:18.965Z</time></trkpt><trkpt lat="40.7476594" lon="14.832665"><ele>721.5</ele><time>2026-04-12T07:36:20.032Z</time></trkpt><trkpt lat="40.7476593" lon="14.8325325"><ele>725.0</ele><time>2026-04-12T07:36:20.963Z</time></trkpt><trkpt lat="40.7476596" lon="14.8323807"><ele>728.5</ele><time>2026-04-12T07:36:21.967Z</time></trkpt><trkpt lat="40.7476671" lon="14.8322276"><ele>732.0</ele><time>2026-04-12T07:36:22.955Z</time></trkpt><trkpt lat="40.7476907" lon="14.8320699"><ele>732.0</ele><time>2026-04-12T07:36:23.962Z</time></trkpt><trkpt lat="40.7477016" lon="14.8319582"><ele>732.0</ele><time>2026-04-12T07:36:24.972Z</time></trkpt><trkpt lat="40.7476823" lon="14.8318048"><ele>732.0</ele><time>2026-04-12T07:36:26.963Z</time></trkpt><trkpt lat="40.7476888" lon="14.8316912"><ele>732.0</ele><time>2026-04-12T07:36:28.034Z</time></trkpt><trkpt lat="40.7476834" lon="14.8315961"><ele>732.0</ele><time>2026-04-12T07:36:29.035Z</time></trkpt><trkpt lat="40.7477148" lon="14.8315156"><ele>732.0</ele><time>2026-04-12T07:36:30.958Z</time></trkpt><trkpt lat="40.7477762" lon="14.8315702"><ele>734.0</ele><time>2026-04-12T07:36:33.962Z</time></trkpt><trkpt lat="40.7478344" lon="14.8316093"><ele>736.0</ele><time>2026-04-12T07:36:35.032Z</time></trkpt><trkpt lat="40.7479016" lon="14.8316498"><ele>738.0</ele><time>2026-04-12T07:36:35.964Z</time></trkpt><trkpt lat="40.7479697" lon="14.8317254"><ele>740.0</ele><time>2026-04-12T07:36:36.959Z</time></trkpt><trkpt lat="40.7480477" lon="14.8318019"><ele>742.0</ele><time>2026-04-12T07:36:37.951Z</time></trkpt><trkpt lat="40.7481474" lon="14.8318548"><ele>744.0</ele><time>2026-04-12T07:36:38.965Z</time></trkpt><trkpt lat="40.7482694" lon="14.8318686"><ele>742.5</ele><time>2026-04-12T07:36:39.963Z</time></trkpt><trkpt lat="40.7484038" lon="14.831857"><ele>741.0</ele><time>2026-04-12T07:36:40.972Z</time></trkpt><trkpt lat="40.7485408" lon="14.8319026"><ele>739.5</ele><time>2026-04-12T07:36:41.971Z</time></trkpt><trkpt lat="40.7486712" lon="14.8319565"><ele>738.0</ele><time>2026-04-12T07:36:42.964Z</time></trkpt><trkpt lat="40.7487662" lon="14.8319795"><ele>738.0</ele><time>2026-04-12T07:36:43.992Z</time></trkpt><trkpt lat="40.7488494" lon="14.83197"><ele>738.0</ele><time>2026-04-12T07:36:44.967Z</time></trkpt><trkpt lat="40.7489068" lon="14.8320174"><ele>738.0</ele><time>2026-04-12T07:36:45.96Z</time></trkpt><trkpt lat="40.7489554" lon="14.8320745"><ele>738.0</ele><time>2026-04-12T07:36:46.955Z</time></trkpt><trkpt lat="40.7490127" lon="14.8321351"><ele>738.0</ele><time>2026-04-12T07:36:47.969Z</time></trkpt><trkpt lat="40.749082" lon="14.8321816"><ele>738.0</ele><time>2026-04-12T07:36:48.964Z</time></trkpt><trkpt lat="40.749159" lon="14.8322289"><ele>738.0</ele><time>2026-04-12T07:36:49.964Z</time></trkpt><trkpt lat="40.7492375" lon="14.8322713"><ele>738.0</ele><time>2026-04-12T07:36:50.971Z</time></trkpt><trkpt lat="40.7492937" lon="14.8323257"><ele>738.0</ele><time>2026-04-12T07:36:52.022Z</time></trkpt><trkpt lat="40.7493467" lon="14.8323786"><ele>738.0</ele><time>2026-04-12T07:36:53.022Z</time></trkpt><trkpt lat="40.7493328" lon="14.8322635"><ele>738.0</ele><time>2026-04-12T07:36:57.969Z</time></trkpt><trkpt lat="40.7493048" lon="14.8321866"><ele>738.0</ele><time>2026-04-12T07:36:58.966Z</time></trkpt><trkpt lat="40.7492694" lon="14.8320962"><ele>738.0</ele><time>2026-04-12T07:36:59.96Z</time></trkpt><trkpt lat="40.7492263" lon="14.8319917"><ele>738.0</ele><time>2026-04-12T07:37:00.967Z</time></trkpt><trkpt lat="40.7491819" lon="14.8319055"><ele>738.0</ele><time>2026-04-12T07:37:01.961Z</time></trkpt><trkpt lat="40.7491203" lon="14.831786"><ele>738.0</ele><time>2026-04-12T07:37:03.971Z</time></trkpt><trkpt lat="40.7490741" lon="14.8317085"><ele>738.0</ele><time>2026-04-12T07:37:05.97Z</time></trkpt><trkpt lat="40.7489851" lon="14.8316523"><ele>739.2</ele><time>2026-04-12T07:37:07.972Z</time></trkpt><trkpt lat="40.7489202" lon="14.8316246"><ele>740.4</ele><time>2026-04-12T07:37:08.959Z</time></trkpt><trkpt lat="40.748821" lon="14.8316021"><ele>741.6</ele><time>2026-04-12T07:37:09.968Z</time></trkpt><trkpt lat="40.7487229" lon="14.831553"><ele>742.8000000000001</ele><time>2026-04-12T07:37:10.962Z</time></trkpt><trkpt lat="40.7486056" lon="14.8315025"><ele>744.0</ele><time>2026-04-12T07:37:11.96Z</time></trkpt><trkpt lat="40.7484701" lon="14.8314076"><ele>744.0</ele><time>2026-04-12T07:37:12.958Z</time></trkpt><trkpt lat="40.7483418" lon="14.8313165"><ele>744.0</ele><time>2026-04-12T07:37:13.969Z</time></trkpt><trkpt lat="40.7482211" lon="14.8312312"><ele>744.0</ele><time>2026-04-12T07:37:14.959Z</time></trkpt><trkpt lat="40.7481202" lon="14.8311515"><ele>744.0</ele><time>2026-04-12T07:37:15.957Z</time></trkpt><trkpt lat="40.7479938" lon="14.8310681"><ele>744.0</ele><time>2026-04-12T07:37:16.951Z</time></trkpt><trkpt lat="40.7478743" lon="14.8310111"><ele>744.0</ele><time>2026-04-12T07:37:17.965Z</time></trkpt><trkpt lat="40.7477715" lon="14.8309991"><ele>744.0</ele><time>2026-04-12T07:37:18.943Z</time></trkpt><trkpt lat="40.7477032" lon="14.83101"><ele>744.0</ele><time>2026-04-12T07:37:19.949Z</time></trkpt><trkpt lat="40.7476319" lon="14.8309983"><ele>744.0</ele><time>2026-04-12T07:37:23.948Z</time></trkpt><trkpt lat="40.7475807" lon="14.8310522"><ele>744.0</ele><time>2026-04-12T07:37:25.948Z</time></trkpt><trkpt lat="40.7475336" lon="14.831158"><ele>745.4000000000001</ele><time>2026-04-12T07:37:26.966Z</time></trkpt><trkpt lat="40.7474636" lon="14.8312499"><ele>746.8</ele><time>2026-04-12T07:37:27.96Z</time></trkpt><trkpt lat="40.747389" lon="14.8313519"><ele>748.2</ele><time>2026-04-12T07:37:28.967Z</time></trkpt><trkpt lat="40.7473368" lon="14.8314584"><ele>749.5999999999999</ele><time>2026-04-12T07:37:29.967Z</time></trkpt><trkpt lat="40.7472568" lon="14.8315253"><ele>751.0</ele><time>2026-04-12T07:37:30.952Z</time></trkpt><trkpt lat="40.747166" lon="14.8315861"><ele>751.0</ele><time>2026-04-12T07:37:31.968Z</time></trkpt><trkpt lat="40.7470776" lon="14.8317036"><ele>751.0</ele><time>2026-04-12T07:37:32.97Z</time></trkpt><trkpt lat="40.7470156" lon="14.83182"><ele>751.0</ele><time>2026-04-12T07:37:33.974Z</time></trkpt><trkpt lat="40.7469733" lon="14.8319239"><ele>751.0</ele><time>2026-04-12T07:37:34.964Z</time></trkpt><trkpt lat="40.74693" lon="14.832017"><ele>751.0</ele><time>2026-04-12T07:37:35.963Z</time></trkpt><trkpt lat="40.7468757" lon="14.8320626"><ele>751.1999999999999</ele><time>2026-04-12T07:37:36.964Z</time></trkpt><trkpt lat="40.7467978" lon="14.8320629"><ele>751.4</ele><time>2026-04-12T07:37:37.964Z</time></trkpt><trkpt lat="40.7466986" lon="14.8320206"><ele>751.6</ele><time>2026-04-12T07:37:38.963Z</time></trkpt><trkpt lat="40.7465913" lon="14.8319788"><ele>751.8</ele><time>2026-04-12T07:37:39.963Z</time></trkpt><trkpt lat="40.7464898" lon="14.8319329"><ele>752.0</ele><time>2026-04-12T07:37:40.969Z</time></trkpt><trkpt lat="40.7463688" lon="14.8318975"><ele>752.0</ele><time>2026-04-12T07:37:41.967Z</time></trkpt><trkpt lat="40.7462462" lon="14.8318742"><ele>752.0</ele><time>2026-04-12T07:37:42.956Z</time></trkpt><trkpt lat="40.746131" lon="14.8318585"><ele>752.0</ele><time>2026-04-12T07:37:43.96Z</time></trkpt><trkpt lat="40.7460227" lon="14.8318488"><ele>752.0</ele><time>2026-04-12T07:37:44.947Z</time></trkpt><trkpt lat="40.7459378" lon="14.8318358"><ele>752.0</ele><time>2026-04-12T07:37:45.957Z</time></trkpt><trkpt lat="40.7458676" lon="14.8318147"><ele>755.0</ele><time>2026-04-12T07:37:46.961Z</time></trkpt><trkpt lat="40.7458186" lon="14.8317224"><ele>758.0</ele><time>2026-04-12T07:37:47.949Z</time></trkpt><trkpt lat="40.7457671" lon="14.8315872"><ele>761.0</ele><time>2026-04-12T07:37:48.965Z</time></trkpt><trkpt lat="40.7457249" lon="14.831447"><ele>764.0</ele><time>2026-04-12T07:37:49.963Z</time></trkpt><trkpt lat="40.7456849" lon="14.8313386"><ele>767.0</ele><time>2026-04-12T07:37:50.964Z</time></trkpt><trkpt lat="40.745611" lon="14.8312444"><ele>767.0</ele><time>2026-04-12T07:37:52.964Z</time></trkpt><trkpt lat="40.7455492" lon="14.8312095"><ele>767.0</ele><time>2026-04-12T07:37:53.957Z</time></trkpt><trkpt lat="40.745476" lon="14.831189"><ele>767.0</ele><time>2026-04-12T07:37:54.964Z</time></trkpt><trkpt lat="40.7454077" lon="14.8311612"><ele>767.0</ele><time>2026-04-12T07:37:55.969Z</time></trkpt><trkpt lat="40.7453227" lon="14.831139"><ele>767.0</ele><time>2026-04-12T07:37:56.97Z</time></trkpt><trkpt lat="40.7452346" lon="14.8311372"><ele>767.0</ele><time>2026-04-12T07:37:57.971Z</time></trkpt><trkpt lat="40.7451551" lon="14.8311126"><ele>769.0</ele><time>2026-04-12T07:37:58.965Z</time></trkpt><trkpt lat="40.7450743" lon="14.8310259"><ele>771.0</ele><time>2026-04-12T07:37:59.968Z</time></trkpt><trkpt lat="40.744987" lon="14.8308853"><ele>773.0</ele><time>2026-04-12T07:38:00.969Z</time></trkpt><trkpt lat="40.744888" lon="14.8307619"><ele>775.0</ele><time>2026-04-12T07:38:01.972Z</time></trkpt><trkpt lat="40.7447881" lon="14.8306311"><ele>775.0</ele><time>2026-04-12T07:38:02.964Z</time></trkpt><trkpt lat="40.7446894" lon="14.8305057"><ele>775.0</ele><time>2026-04-12T07:38:03.97Z</time></trkpt><trkpt lat="40.7445966" lon="14.8303886"><ele>775.0</ele><time>2026-04-12T07:38:04.972Z</time></trkpt><trkpt lat="40.7445031" lon="14.8302886"><ele>775.0</ele><time>2026-04-12T07:38:05.971Z</time></trkpt><trkpt lat="40.744405" lon="14.8302042"><ele>772.4</ele><time>2026-04-12T07:38:06.972Z</time></trkpt><trkpt lat="40.7443128" lon="14.8301284"><ele>769.8</ele><time>2026-04-12T07:38:07.964Z</time></trkpt><trkpt lat="40.7442425" lon="14.830045"><ele>767.2</ele><time>2026-04-12T07:38:08.975Z</time></trkpt><trkpt lat="40.7441752" lon="14.8299349"><ele>764.6</ele><time>2026-04-12T07:38:09.964Z</time></trkpt><trkpt lat="40.7441187" lon="14.8297903"><ele>762.0</ele><time>2026-04-12T07:38:10.963Z</time></trkpt><trkpt lat="40.7440677" lon="14.8296161"><ele>762.0</ele><time>2026-04-12T07:38:11.956Z</time></trkpt><trkpt lat="40.7440113" lon="14.8294417"><ele>762.0</ele><time>2026-04-12T07:38:12.944Z</time></trkpt><trkpt lat="40.743946" lon="14.8293058"><ele>762.0</ele><time>2026-04-12T07:38:13.953Z</time></trkpt><trkpt lat="40.7438753" lon="14.8291752"><ele>762.0</ele><time>2026-04-12T07:38:14.961Z</time></trkpt><trkpt lat="40.7438119" lon="14.8290447"><ele>763.1666666666666</ele><time>2026-04-12T07:38:15.967Z</time></trkpt><trkpt lat="40.7437599" lon="14.8289447"><ele>764.3333333333333</ele><time>2026-04-12T07:38:16.969Z</time></trkpt><trkpt lat="40.7437217" lon="14.828837"><ele>765.5</ele><time>2026-04-12T07:38:19.042Z</time></trkpt><trkpt lat="40.7437786" lon="14.8287863"><ele>766.6666666666666</ele><time>2026-04-12T07:38:20.983Z</time></trkpt><trkpt lat="40.7438426" lon="14.8287984"><ele>767.8333333333333</ele><time>2026-04-12T07:38:21.966Z</time></trkpt><trkpt lat="40.743917" lon="14.8288174"><ele>769.0</ele><time>2026-04-12T07:38:23.031Z</time></trkpt><trkpt lat="40.7440118" lon="14.8288367"><ele>769.0</ele><time>2026-04-12T07:38:24.037Z</time></trkpt><trkpt lat="40.7441133" lon="14.8288271"><ele>769.0</ele><time>2026-04-12T07:38:25.023Z</time></trkpt><trkpt lat="40.7442175" lon="14.82881"><ele>769.0</ele><time>2026-04-12T07:38:25.963Z</time></trkpt><trkpt lat="40.7443297" lon="14.828795"><ele>769.0</ele><time>2026-04-12T07:38:26.97Z</time></trkpt><trkpt lat="40.7444382" lon="14.828785"><ele>769.0</ele><time>2026-04-12T07:38:27.954Z</time></trkpt><trkpt lat="40.7445338" lon="14.8287716"><ele>770.2</ele><time>2026-04-12T07:38:28.965Z</time></trkpt><trkpt lat="40.744627" lon="14.8287707"><ele>771.4000000000001</ele><time>2026-04-12T07:38:29.968Z</time></trkpt><trkpt lat="40.7447304" lon="14.828774"><ele>772.6</ele><time>2026-04-12T07:38:30.956Z</time></trkpt><trkpt lat="40.7448429" lon="14.8287838"><ele>773.8</ele><time>2026-04-12T07:38:31.964Z</time></trkpt><trkpt lat="40.7449505" lon="14.8287973"><ele>775.0</ele><time>2026-04-12T07:38:33.035Z</time></trkpt><trkpt lat="40.7450551" lon="14.8287935"><ele>775.0</ele><time>2026-04-12T07:38:34.018Z</time></trkpt><trkpt lat="40.745158" lon="14.8287743"><ele>775.0</ele><time>2026-04-12T07:38:34.983Z</time></trkpt><trkpt lat="40.7452372" lon="14.828752"><ele>775.0</ele><time>2026-04-12T07:38:35.962Z</time></trkpt><trkpt lat="40.7453455" lon="14.8287522"><ele>775.0</ele><time>2026-04-12T07:38:37.96Z</time></trkpt><trkpt lat="40.7453617" lon="14.8286318"><ele>775.0</ele><time>2026-04-12T07:38:39.969Z</time></trkpt><trkpt lat="40.7453662" lon="14.8285066"><ele>772.4</ele><time>2026-04-12T07:38:41.969Z</time></trkpt><trkpt lat="40.7454669" lon="14.8283738"><ele>769.8</ele><time>2026-04-12T07:38:43.955Z</time></trkpt><trkpt lat="40.745553" lon="14.828296"><ele>767.2</ele><time>2026-04-12T07:38:44.964Z</time></trkpt><trkpt lat="40.7456171" lon="14.8282542"><ele>764.6</ele><time>2026-04-12T07:38:45.964Z</time></trkpt><trkpt lat="40.7456941" lon="14.8281337"><ele>762.0</ele><time>2026-04-12T07:38:47.96Z</time></trkpt><trkpt lat="40.7457221" lon="14.8280304"><ele>762.0</ele><time>2026-04-12T07:38:48.965Z</time></trkpt><trkpt lat="40.7457606" lon="14.8279152"><ele>762.0</ele><time>2026-04-12T07:38:49.966Z</time></trkpt><trkpt lat="40.7457918" lon="14.8277944"><ele>762.0</ele><time>2026-04-12T07:38:50.962Z</time></trkpt><trkpt lat="40.7458241" lon="14.8277108"><ele>762.0</ele><time>2026-04-12T07:38:51.993Z</time></trkpt><trkpt lat="40.7458702" lon="14.8276269"><ele>762.0</ele><time>2026-04-12T07:38:52.96Z</time></trkpt><trkpt lat="40.7459235" lon="14.8275579"><ele>762.0</ele><time>2026-04-12T07:38:53.959Z</time></trkpt><trkpt lat="40.7459927" lon="14.8274762"><ele>756.4000000000001</ele><time>2026-04-12T07:38:54.974Z</time></trkpt><trkpt lat="40.7460704" lon="14.827377"><ele>750.8000000000001</ele><time>2026-04-12T07:38:55.963Z</time></trkpt><trkpt lat="40.7461269" lon="14.8272731"><ele>745.2</ele><time>2026-04-12T07:38:56.965Z</time></trkpt><trkpt lat="40.7461676" lon="14.8271711"><ele>739.6</ele><time>2026-04-12T07:38:57.965Z</time></trkpt><trkpt lat="40.7462014" lon="14.8270616"><ele>734.0</ele><time>2026-04-12T07:38:58.965Z</time></trkpt><trkpt lat="40.7462319" lon="14.8269521"><ele>734.0</ele><time>2026-04-12T07:38:59.959Z</time></trkpt><trkpt lat="40.7462449" lon="14.8268484"><ele>734.0</ele><time>2026-04-12T07:39:00.976Z</time></trkpt><trkpt lat="40.7462506" lon="14.8267608"><ele>734.0</ele><time>2026-04-12T07:39:01.964Z</time></trkpt><trkpt lat="40.7462695" lon="14.8266549"><ele>734.0</ele><time>2026-04-12T07:39:03.959Z</time></trkpt><trkpt lat="40.7462298" lon="14.8267559"><ele>734.0</ele><time>2026-04-12T07:39:09.018Z</time></trkpt><trkpt lat="40.7461838" lon="14.8268397"><ele>734.0</ele><time>2026-04-12T07:39:09.972Z</time></trkpt><trkpt lat="40.7461324" lon="14.8268968"><ele>734.0</ele><time>2026-04-12T07:39:10.964Z</time></trkpt><trkpt lat="40.7460776" lon="14.826949"><ele>734.0</ele><time>2026-04-12T07:39:11.961Z</time></trkpt><trkpt lat="40.7460119" lon="14.8269878"><ele>734.0</ele><time>2026-04-12T07:39:12.965Z</time></trkpt><trkpt lat="40.7459361" lon="14.8270058"><ele>734.0</ele><time>2026-04-12T07:39:13.966Z</time></trkpt><trkpt lat="40.7458711" lon="14.8270152"><ele>734.0</ele><time>2026-04-12T07:39:14.968Z</time></trkpt><trkpt lat="40.7458065" lon="14.8270312"><ele>734.0</ele><time>2026-04-12T07:39:15.963Z</time></trkpt><trkpt lat="40.7456928" lon="14.8271141"><ele>734.1428571428571</ele><time>2026-04-12T07:39:17.969Z</time></trkpt><trkpt lat="40.7456342" lon="14.827171"><ele>734.2857142857143</ele><time>2026-04-12T07:39:18.963Z</time></trkpt><trkpt lat="40.745578" lon="14.8272241"><ele>734.4285714285714</ele><time>2026-04-12T07:39:19.94Z</time></trkpt><trkpt lat="40.7455449" lon="14.827314"><ele>734.5714285714286</ele><time>2026-04-12T07:39:21.966Z</time></trkpt><trkpt lat="40.7454826" lon="14.8273996"><ele>734.7142857142858</ele><time>2026-04-12T07:39:24.96Z</time></trkpt><trkpt lat="40.7454229" lon="14.8274324"><ele>734.8571428571429</ele><time>2026-04-12T07:39:26.965Z</time></trkpt><trkpt lat="40.7453542" lon="14.8274651"><ele>735.0</ele><time>2026-04-12T07:39:28.971Z</time></trkpt><trkpt lat="40.7452496" lon="14.8275171"><ele>734.8</ele><time>2026-04-12T07:39:30.965Z</time></trkpt><trkpt lat="40.7451743" lon="14.8275678"><ele>734.6</ele><time>2026-04-12T07:39:31.973Z</time></trkpt><trkpt lat="40.7450957" lon="14.8276144"><ele>734.4000000000001</ele><time>2026-04-12T07:39:32.961Z</time></trkpt><trkpt lat="40.7449904" lon="14.8277157"><ele>734.2</ele><time>2026-04-12T07:39:34.972Z</time></trkpt><trkpt lat="40.7448808" lon="14.8277191"><ele>734.0</ele><time>2026-04-12T07:39:36.962Z</time></trkpt><trkpt lat="40.7448055" lon="14.8277086"><ele>734.0</ele><time>2026-04-12T07:39:38.016Z</time></trkpt><trkpt lat="40.7447222" lon="14.8277047"><ele>734.0</ele><time>2026-04-12T07:39:38.988Z</time></trkpt><trkpt lat="40.7446234" lon="14.8276975"><ele>734.0</ele><time>2026-04-12T07:39:40.022Z</time></trkpt><trkpt lat="40.7445104" lon="14.8276647"><ele>734.0</ele><time>2026-04-12T07:39:40.96Z</time></trkpt><trkpt lat="40.744398" lon="14.8276388"><ele>734.0</ele><time>2026-04-12T07:39:41.96Z</time></trkpt><trkpt lat="40.7442887" lon="14.827614"><ele>726.6</ele><time>2026-04-12T07:39:42.955Z</time></trkpt><trkpt lat="40.7441919" lon="14.8275898"><ele>719.2</ele><time>2026-04-12T07:39:43.959Z</time></trkpt><trkpt lat="40.7441153" lon="14.8275717"><ele>711.8000000000001</ele><time>2026-04-12T07:39:44.965Z</time></trkpt><trkpt lat="40.7440234" lon="14.8275372"><ele>704.4000000000001</ele><time>2026-04-12T07:39:45.956Z</time></trkpt><trkpt lat="40.7438947" lon="14.827492"><ele>697.0</ele><time>2026-04-12T07:39:46.961Z</time></trkpt><trkpt lat="40.7437589" lon="14.8274558"><ele>697.0</ele><time>2026-04-12T07:39:47.97Z</time></trkpt><trkpt lat="40.7436513" lon="14.8274425"><ele>697.0</ele><time>2026-04-12T07:39:48.976Z</time></trkpt><trkpt lat="40.7435461" lon="14.8274335"><ele>697.0</ele><time>2026-04-12T07:39:49.959Z</time></trkpt><trkpt lat="40.7434407" lon="14.8274152"><ele>697.0</ele><time>2026-04-12T07:39:50.955Z</time></trkpt><trkpt lat="40.7433301" lon="14.8273877"><ele>697.0</ele><time>2026-04-12T07:39:51.959Z</time></trkpt><trkpt lat="40.7432129" lon="14.8273814"><ele>697.6</ele><time>2026-04-12T07:39:52.957Z</time></trkpt><trkpt lat="40.7430981" lon="14.8273736"><ele>698.2</ele><time>2026-04-12T07:39:53.956Z</time></trkpt><trkpt lat="40.7430056" lon="14.8273587"><ele>698.8</ele><time>2026-04-12T07:39:55.032Z</time></trkpt><trkpt lat="40.7429118" lon="14.8273565"><ele>699.4</ele><time>2026-04-12T07:39:55.961Z</time></trkpt><trkpt lat="40.7428087" lon="14.8273665"><ele>700.0</ele><time>2026-04-12T07:39:56.957Z</time></trkpt><trkpt lat="40.7427133" lon="14.8273899"><ele>700.0</ele><time>2026-04-12T07:39:57.956Z</time></trkpt><trkpt lat="40.7426291" lon="14.8274161"><ele>700.0</ele><time>2026-04-12T07:39:58.956Z</time></trkpt><trkpt lat="40.7425633" lon="14.8274295"><ele>700.0</ele><time>2026-04-12T07:39:59.97Z</time></trkpt><trkpt lat="40.7424343" lon="14.8274625"><ele>700.0</ele><time>2026-04-12T07:40:01.963Z</time></trkpt><trkpt lat="40.7423491" lon="14.8275017"><ele>700.0</ele><time>2026-04-12T07:40:02.965Z</time></trkpt><trkpt lat="40.742264" lon="14.8275549"><ele>700.0</ele><time>2026-04-12T07:40:03.961Z</time></trkpt><trkpt lat="40.7421758" lon="14.8275984"><ele>700.0</ele><time>2026-04-12T07:40:05.044Z</time></trkpt><trkpt lat="40.7420951" lon="14.8276426"><ele>700.0</ele><time>2026-04-12T07:40:05.959Z</time></trkpt><trkpt lat="40.7420119" lon="14.8276801"><ele>700.0</ele><time>2026-04-12T07:40:06.968Z</time></trkpt><trkpt lat="40.7419231" lon="14.8277043"><ele>700.0</ele><time>2026-04-12T07:40:07.969Z</time></trkpt><trkpt lat="40.7418141" lon="14.8277207"><ele>698.8</ele><time>2026-04-12T07:40:08.959Z</time></trkpt><trkpt lat="40.7417025" lon="14.8277306"><ele>697.6</ele><time>2026-04-12T07:40:09.961Z</time></trkpt><trkpt lat="40.7415814" lon="14.8277481"><ele>696.4000000000001</ele><time>2026-04-12T07:40:10.964Z</time></trkpt><trkpt lat="40.7414808" lon="14.8277467"><ele>695.2</ele><time>2026-04-12T07:40:12.044Z</time></trkpt><trkpt lat="40.7413864" lon="14.8277194"><ele>694.0</ele><time>2026-04-12T07:40:13.028Z</time></trkpt><trkpt lat="40.7412841" lon="14.8276914"><ele>694.0</ele><time>2026-04-12T07:40:14.013Z</time></trkpt><trkpt lat="40.7411702" lon="14.8276681"><ele>694.0</ele><time>2026-04-12T07:40:14.963Z</time></trkpt><trkpt lat="40.7410598" lon="14.8276254"><ele>694.0</ele><time>2026-04-12T07:40:15.969Z</time></trkpt><trkpt lat="40.7409589" lon="14.8275756"><ele>694.0</ele><time>2026-04-12T07:40:16.962Z</time></trkpt><trkpt lat="40.74087" lon="14.8275254"><ele>694.0</ele><time>2026-04-12T07:40:17.968Z</time></trkpt><trkpt lat="40.7408033" lon="14.8274599"><ele>691.1666666666667</ele><time>2026-04-12T07:40:18.963Z</time></trkpt><trkpt lat="40.7407393" lon="14.827396"><ele>688.3333333333334</ele><time>2026-04-12T07:40:19.978Z</time></trkpt><trkpt lat="40.7406877" lon="14.8273309"><ele>685.5</ele><time>2026-04-12T07:40:20.974Z</time></trkpt><trkpt lat="40.7406308" lon="14.8272762"><ele>682.6666666666666</ele><time>2026-04-12T07:40:21.976Z</time></trkpt><trkpt lat="40.7405577" lon="14.8272301"><ele>679.8333333333333</ele><time>2026-04-12T07:40:22.989Z</time></trkpt><trkpt lat="40.7404632" lon="14.8271863"><ele>677.0</ele><time>2026-04-12T07:40:23.981Z</time></trkpt><trkpt lat="40.7403791" lon="14.8271545"><ele>677.0</ele><time>2026-04-12T07:40:24.966Z</time></trkpt><trkpt lat="40.7403109" lon="14.8271183"><ele>677.0</ele><time>2026-04-12T07:40:25.968Z</time></trkpt><trkpt lat="40.7402163" lon="14.8270258"><ele>677.0</ele><time>2026-04-12T07:40:27.97Z</time></trkpt><trkpt lat="40.7401336" lon="14.8269533"><ele>677.0</ele><time>2026-04-12T07:40:29.967Z</time></trkpt><trkpt lat="40.7400816" lon="14.8270349"><ele>677.0</ele><time>2026-04-12T07:40:34.045Z</time></trkpt><trkpt lat="40.7401065" lon="14.8271866"><ele>672.6666666666666</ele><time>2026-04-12T07:40:35.972Z</time></trkpt><trkpt lat="40.7401161" lon="14.8272845"><ele>668.3333333333333</ele><time>2026-04-12T07:40:36.973Z</time></trkpt><trkpt lat="40.740123" lon="14.8273812"><ele>664.0</ele><time>2026-04-12T07:40:37.954Z</time></trkpt><trkpt lat="40.7401396" lon="14.8274876"><ele>659.6666666666666</ele><time>2026-04-12T07:40:38.973Z</time></trkpt><trkpt lat="40.7401617" lon="14.8275989"><ele>655.3333333333334</ele><time>2026-04-12T07:40:39.962Z</time></trkpt><trkpt lat="40.7401789" lon="14.827708"><ele>651.0</ele><time>2026-04-12T07:40:40.962Z</time></trkpt><trkpt lat="40.7401897" lon="14.8278149"><ele>653.1666666666666</ele><time>2026-04-12T07:40:41.973Z</time></trkpt><trkpt lat="40.7401982" lon="14.8279043"><ele>655.3333333333334</ele><time>2026-04-12T07:40:42.967Z</time></trkpt><trkpt lat="40.7402416" lon="14.8280273"><ele>657.5</ele><time>2026-04-12T07:40:44.969Z</time></trkpt><trkpt lat="40.7403369" lon="14.8281037"><ele>659.6666666666667</ele><time>2026-04-12T07:40:46.959Z</time></trkpt><trkpt lat="40.7404017" lon="14.8281179"><ele>661.8333333333334</ele><time>2026-04-12T07:40:47.963Z</time></trkpt><trkpt lat="40.740481" lon="14.8281404"><ele>664.0</ele><time>2026-04-12T07:40:48.961Z</time></trkpt><trkpt lat="40.7405536" lon="14.828177"><ele>664.0</ele><time>2026-04-12T07:40:49.961Z</time></trkpt><trkpt lat="40.7406081" lon="14.8282455"><ele>664.0</ele><time>2026-04-12T07:40:50.96Z</time></trkpt><trkpt lat="40.7406584" lon="14.8283122"><ele>664.0</ele><time>2026-04-12T07:40:52.024Z</time></trkpt><trkpt lat="40.7407204" lon="14.8283917"><ele>664.0</ele><time>2026-04-12T07:40:53.028Z</time></trkpt><trkpt lat="40.7407809" lon="14.8284669"><ele>664.0</ele><time>2026-04-12T07:40:53.96Z</time></trkpt><trkpt lat="40.7408254" lon="14.828546"><ele>664.0</ele><time>2026-04-12T07:40:54.967Z</time></trkpt><trkpt lat="40.740847" lon="14.8286477"><ele>664.6666666666667</ele><time>2026-04-12T07:40:55.956Z</time></trkpt><trkpt lat="40.7408664" lon="14.8287456"><ele>665.3333333333334</ele><time>2026-04-12T07:40:56.968Z</time></trkpt><trkpt lat="40.740876" lon="14.8288313"><ele>666.0</ele><time>2026-04-12T07:40:57.96Z</time></trkpt><trkpt lat="40.7409038" lon="14.8289181"><ele>666.6666666666666</ele><time>2026-04-12T07:40:58.96Z</time></trkpt><trkpt lat="40.7409513" lon="14.8290003"><ele>667.3333333333333</ele><time>2026-04-12T07:40:59.968Z</time></trkpt><trkpt lat="40.741003" lon="14.8290561"><ele>668.0</ele><time>2026-04-12T07:41:00.955Z</time></trkpt><trkpt lat="40.7411199" lon="14.8291333"><ele>668.0</ele><time>2026-04-12T07:41:02.965Z</time></trkpt><trkpt lat="40.7411599" lon="14.8292041"><ele>668.0</ele><time>2026-04-12T07:41:03.961Z</time></trkpt><trkpt lat="40.7411749" lon="14.8292959"><ele>668.0</ele><time>2026-04-12T07:41:04.968Z</time></trkpt><trkpt lat="40.7411055" lon="14.8294375"><ele>668.0</ele><time>2026-04-12T07:41:06.961Z</time></trkpt><trkpt lat="40.741058" lon="14.8295078"><ele>668.0</ele><time>2026-04-12T07:41:07.956Z</time></trkpt><trkpt lat="40.7410199" lon="14.8295861"><ele>668.0</ele><time>2026-04-12T07:41:08.966Z</time></trkpt><trkpt lat="40.740968" lon="14.8296727"><ele>655.25</ele><time>2026-04-12T07:41:09.968Z</time></trkpt><trkpt lat="40.7408956" lon="14.8297822"><ele>642.5</ele><time>2026-04-12T07:41:11.977Z</time></trkpt><trkpt lat="40.7408458" lon="14.8299318"><ele>629.75</ele><time>2026-04-12T07:41:14.027Z</time></trkpt><trkpt lat="40.7408419" lon="14.8300768"><ele>617.0</ele><time>2026-04-12T07:41:15.022Z</time></trkpt><trkpt lat="40.7408288" lon="14.8302241"><ele>614.0</ele><time>2026-04-12T07:41:15.961Z</time></trkpt><trkpt lat="40.7408064" lon="14.8303447"><ele>611.0</ele><time>2026-04-12T07:41:16.964Z</time></trkpt><trkpt lat="40.7407651" lon="14.8304378"><ele>608.0</ele><time>2026-04-12T07:41:17.961Z</time></trkpt><trkpt lat="40.7407382" lon="14.8305177"><ele>605.0</ele><time>2026-04-12T07:41:18.96Z</time></trkpt><trkpt lat="40.7407422" lon="14.8306676"><ele>602.0</ele><time>2026-04-12T07:41:20.985Z</time></trkpt><trkpt lat="40.7407775" lon="14.830743"><ele>599.0</ele><time>2026-04-12T07:41:22.027Z</time></trkpt><trkpt lat="40.7408898" lon="14.8308344"><ele>599.0</ele><time>2026-04-12T07:41:23.962Z</time></trkpt><trkpt lat="40.7409715" lon="14.8308638"><ele>599.0</ele><time>2026-04-12T07:41:24.943Z</time></trkpt><trkpt lat="40.7410333" lon="14.830899"><ele>599.0</ele><time>2026-04-12T07:41:25.955Z</time></trkpt><trkpt lat="40.7411231" lon="14.8308996"><ele>599.0</ele><time>2026-04-12T07:41:27.96Z</time></trkpt><trkpt lat="40.741199" lon="14.8308316"><ele>599.0</ele><time>2026-04-12T07:41:30.018Z</time></trkpt><trkpt lat="40.7412927" lon="14.8307842"><ele>599.0</ele><time>2026-04-12T07:41:32.959Z</time></trkpt><trkpt lat="40.7413358" lon="14.8307162"><ele>600.8</ele><time>2026-04-12T07:41:35.024Z</time></trkpt><trkpt lat="40.7413042" lon="14.8306433"><ele>602.5999999999999</ele><time>2026-04-12T07:41:40.964Z</time></trkpt><trkpt lat="40.7412971" lon="14.8307536"><ele>604.4</ele><time>2026-04-12T07:41:44.027Z</time></trkpt><trkpt lat="40.7413299" lon="14.8308895"><ele>606.1999999999999</ele><time>2026-04-12T07:41:45.961Z</time></trkpt><trkpt lat="40.7413412" lon="14.8310131"><ele>608.0</ele><time>2026-04-12T07:41:48.966Z</time></trkpt><trkpt lat="40.7414254" lon="14.8311079"><ele>608.0</ele><time>2026-04-12T07:41:50.968Z</time></trkpt><trkpt lat="40.7415291" lon="14.8312087"><ele>608.0</ele><time>2026-04-12T07:41:52.969Z</time></trkpt><trkpt lat="40.741643" lon="14.8312149"><ele>608.0</ele><time>2026-04-12T07:41:54.964Z</time></trkpt><trkpt lat="40.7417022" lon="14.8311776"><ele>608.0</ele><time>2026-04-12T07:41:55.961Z</time></trkpt><trkpt lat="40.7417844" lon="14.8311245"><ele>608.0</ele><time>2026-04-12T07:41:56.968Z</time></trkpt><trkpt lat="40.741864" lon="14.831075"><ele>612.5</ele><time>2026-04-12T07:41:57.964Z</time></trkpt><trkpt lat="40.7419445" lon="14.8310203"><ele>617.0</ele><time>2026-04-12T07:41:58.967Z</time></trkpt><trkpt lat="40.7420296" lon="14.8309521"><ele>621.5</ele><time>2026-04-12T07:42:00.964Z</time></trkpt><trkpt lat="40.7419702" lon="14.8310167"><ele>626.0</ele><time>2026-04-12T07:42:05.973Z</time></trkpt><trkpt lat="40.741967" lon="14.8311645"><ele>630.5</ele><time>2026-04-12T07:42:07.964Z</time></trkpt><trkpt lat="40.7419761" lon="14.8312563"><ele>635.0</ele><time>2026-04-12T07:42:08.967Z</time></trkpt><trkpt lat="40.7420072" lon="14.8313772"><ele>635.0</ele><time>2026-04-12T07:42:09.986Z</time></trkpt><trkpt lat="40.7420499" lon="14.8314907"><ele>635.0</ele><time>2026-04-12T07:42:10.967Z</time></trkpt><trkpt lat="40.7421192" lon="14.8315773"><ele>635.0</ele><time>2026-04-12T07:42:11.949Z</time></trkpt><trkpt lat="40.7422106" lon="14.8316187"><ele>635.0</ele><time>2026-04-12T07:42:12.969Z</time></trkpt><trkpt lat="40.7422922" lon="14.8316208"><ele>635.0</ele><time>2026-04-12T07:42:13.967Z</time></trkpt><trkpt lat="40.7423821" lon="14.8316171"><ele>635.0</ele><time>2026-04-12T07:42:14.963Z</time></trkpt><trkpt lat="40.7424687" lon="14.8316255"><ele>635.0</ele><time>2026-04-12T07:42:15.965Z</time></trkpt><trkpt lat="40.7425373" lon="14.8316351"><ele>635.0</ele><time>2026-04-12T07:42:17.951Z</time></trkpt><trkpt lat="40.7425041" lon="14.8317253"><ele>635.0</ele><time>2026-04-12T07:42:19.969Z</time></trkpt><trkpt lat="40.7424684" lon="14.8318338"><ele>635.0</ele><time>2026-04-12T07:42:20.972Z</time></trkpt><trkpt lat="40.7424656" lon="14.8319413"><ele>635.0</ele><time>2026-04-12T07:42:22.965Z</time></trkpt><trkpt lat="40.7425024" lon="14.8320506"><ele>636.5</ele><time>2026-04-12T07:42:24.965Z</time></trkpt><trkpt lat="40.7425915" lon="14.8321568"><ele>638.0</ele><time>2026-04-12T07:42:26.96Z</time></trkpt><trkpt lat="40.7426788" lon="14.8321814"><ele>639.5</ele><time>2026-04-12T07:42:27.978Z</time></trkpt><trkpt lat="40.7427994" lon="14.8322129"><ele>641.0</ele><time>2026-04-12T07:42:28.966Z</time></trkpt><trkpt lat="40.7429302" lon="14.8322473"><ele>641.0</ele><time>2026-04-12T07:42:29.968Z</time></trkpt><trkpt lat="40.7430341" lon="14.8322579"><ele>641.0</ele><time>2026-04-12T07:42:30.966Z</time></trkpt><trkpt lat="40.7430976" lon="14.8322671"><ele>641.0</ele><time>2026-04-12T07:42:31.966Z</time></trkpt><trkpt lat="40.7431395" lon="14.8323857"><ele>641.0</ele><time>2026-04-12T07:42:36.97Z</time></trkpt><trkpt lat="40.7431456" lon="14.8324989"><ele>641.0</ele><time>2026-04-12T07:42:37.969Z</time></trkpt><trkpt lat="40.743188" lon="14.8326003"><ele>641.0</ele><time>2026-04-12T07:42:38.97Z</time></trkpt><trkpt lat="40.743272" lon="14.8327328"><ele>641.1666666666666</ele><time>2026-04-12T07:42:39.959Z</time></trkpt><trkpt lat="40.7433605" lon="14.8328182"><ele>641.3333333333333</ele><time>2026-04-12T07:42:40.969Z</time></trkpt><trkpt lat="40.743444" lon="14.832861"><ele>641.5</ele><time>2026-04-12T07:42:41.964Z</time></trkpt><trkpt lat="40.7435182" lon="14.8328608"><ele>641.6666666666666</ele><time>2026-04-12T07:42:42.963Z</time></trkpt><trkpt lat="40.7435926" lon="14.8328449"><ele>641.8333333333334</ele><time>2026-04-12T07:42:43.947Z</time></trkpt><trkpt lat="40.7436706" lon="14.832846"><ele>642.0</ele><time>2026-04-12T07:42:45.958Z</time></trkpt><trkpt lat="40.7437276" lon="14.8329304"><ele>642.0</ele><time>2026-04-12T07:42:49.956Z</time></trkpt><trkpt lat="40.7438071" lon="14.8330337"><ele>642.0</ele><time>2026-04-12T07:42:51.962Z</time></trkpt><trkpt lat="40.7438704" lon="14.8331244"><ele>642.0</ele><time>2026-04-12T07:42:52.962Z</time></trkpt><trkpt lat="40.743973" lon="14.8332303"><ele>642.0</ele><time>2026-04-12T07:42:53.96Z</time></trkpt><trkpt lat="40.7440597" lon="14.8333433"><ele>642.0</ele><time>2026-04-12T07:42:54.962Z</time></trkpt><trkpt lat="40.7441508" lon="14.8334082"><ele>642.0</ele><time>2026-04-12T07:42:55.966Z</time></trkpt><trkpt lat="40.744229" lon="14.8334172"><ele>642.0</ele><time>2026-04-12T07:42:56.963Z</time></trkpt><trkpt lat="40.7443213" lon="14.8333821"><ele>642.0</ele><time>2026-04-12T07:42:57.952Z</time></trkpt><trkpt lat="40.7444149" lon="14.8333277"><ele>642.0</ele><time>2026-04-12T07:42:58.964Z</time></trkpt><trkpt lat="40.7444953" lon="14.8332746"><ele>645.6666666666666</ele><time>2026-04-12T07:42:59.968Z</time></trkpt><trkpt lat="40.7445815" lon="14.8332352"><ele>649.3333333333334</ele><time>2026-04-12T07:43:00.972Z</time></trkpt><trkpt lat="40.7446561" lon="14.8331981"><ele>653.0</ele><time>2026-04-12T07:43:01.966Z</time></trkpt><trkpt lat="40.7447377" lon="14.8331722"><ele>656.6666666666667</ele><time>2026-04-12T07:43:02.96Z</time></trkpt><trkpt lat="40.7448152" lon="14.8331365"><ele>660.3333333333334</ele><time>2026-04-12T07:43:03.969Z</time></trkpt><trkpt lat="40.7448733" lon="14.8330904"><ele>664.0</ele><time>2026-04-12T07:43:04.963Z</time></trkpt><trkpt lat="40.7449334" lon="14.8330534"><ele>664.0</ele><time>2026-04-12T07:43:06.965Z</time></trkpt><trkpt lat="40.7449993" lon="14.8332065"><ele>664.0</ele><time>2026-04-12T07:43:09.972Z</time></trkpt><trkpt lat="40.7450114" lon="14.8333076"><ele>664.0</ele><time>2026-04-12T07:43:10.971Z</time></trkpt><trkpt lat="40.7450121" lon="14.8334247"><ele>664.0</ele><time>2026-04-12T07:43:11.975Z</time></trkpt><trkpt lat="40.7450185" lon="14.8335312"><ele>664.0</ele><time>2026-04-12T07:43:12.96Z</time></trkpt><trkpt lat="40.7450643" lon="14.8336614"><ele>665.2</ele><time>2026-04-12T07:43:13.966Z</time></trkpt><trkpt lat="40.7450971" lon="14.833749"><ele>666.4000000000001</ele><time>2026-04-12T07:43:14.964Z</time></trkpt><trkpt lat="40.7452219" lon="14.8338255"><ele>667.6</ele><time>2026-04-12T07:43:16.961Z</time></trkpt><trkpt lat="40.7453159" lon="14.8338248"><ele>668.8</ele><time>2026-04-12T07:43:17.972Z</time></trkpt><trkpt lat="40.7454316" lon="14.8338103"><ele>670.0</ele><time>2026-04-12T07:43:18.963Z</time></trkpt><trkpt lat="40.7455329" lon="14.8337795"><ele>670.0</ele><time>2026-04-12T07:43:19.965Z</time></trkpt><trkpt lat="40.7456243" lon="14.8337455"><ele>670.0</ele><time>2026-04-12T07:43:20.955Z</time></trkpt><trkpt lat="40.7456972" lon="14.8337145"><ele>670.0</ele><time>2026-04-12T07:43:21.966Z</time></trkpt><trkpt lat="40.7457682" lon="14.8336578"><ele>670.0</ele><time>2026-04-12T07:43:23.967Z</time></trkpt><trkpt lat="40.7458149" lon="14.8336006"><ele>670.0</ele><time>2026-04-12T07:43:27.959Z</time></trkpt><trkpt lat="40.745884" lon="14.8336795"><ele>670.0</ele><time>2026-04-12T07:43:32.959Z</time></trkpt><trkpt lat="40.7459761" lon="14.833752"><ele>670.5</ele><time>2026-04-12T07:43:33.956Z</time></trkpt><trkpt lat="40.7461083" lon="14.8340738"><ele>671.0</ele><time>2026-04-12T07:43:34.96Z</time></trkpt><trkpt lat="40.7461698" lon="14.8343548"><ele>671.0</ele><time>2026-04-12T07:43:35.962Z</time></trkpt><trkpt lat="40.746251" lon="14.8344123"><ele>671.0</ele><time>2026-04-12T07:43:36.956Z</time></trkpt><trkpt lat="40.7463201" lon="14.834421"><ele>671.0</ele><time>2026-04-12T07:43:37.961Z</time></trkpt><trkpt lat="40.746382" lon="14.8344371"><ele>671.0</ele><time>2026-04-12T07:43:38.961Z</time></trkpt><trkpt lat="40.7464391" lon="14.834501"><ele>671.0</ele><time>2026-04-12T07:43:39.969Z</time></trkpt><trkpt lat="40.7464902" lon="14.8346417"><ele>671.0</ele><time>2026-04-12T07:43:40.975Z</time></trkpt><trkpt lat="40.7465384" lon="14.8347455"><ele>671.0</ele><time>2026-04-12T07:43:41.966Z</time></trkpt><trkpt lat="40.7466186" lon="14.8348531"><ele>671.0</ele><time>2026-04-12T07:43:42.97Z</time></trkpt><trkpt lat="40.7467344" lon="14.8349027"><ele>671.0</ele><time>2026-04-12T07:43:43.973Z</time></trkpt><trkpt lat="40.7468257" lon="14.8349529"><ele>671.0</ele><time>2026-04-12T07:43:44.963Z</time></trkpt><trkpt lat="40.7469124" lon="14.8349849"><ele>671.0</ele><time>2026-04-12T07:43:45.961Z</time></trkpt><trkpt lat="40.7470155" lon="14.8349562"><ele>671.4</ele><time>2026-04-12T07:43:46.967Z</time></trkpt><trkpt lat="40.7470985" lon="14.8349119"><ele>671.8</ele><time>2026-04-12T07:43:47.961Z</time></trkpt><trkpt lat="40.7471932" lon="14.8348424"><ele>672.1999999999999</ele><time>2026-04-12T07:43:48.966Z</time></trkpt><trkpt lat="40.747303" lon="14.8347783"><ele>672.5999999999999</ele><time>2026-04-12T07:43:49.963Z</time></trkpt><trkpt lat="40.7474109" lon="14.8346848"><ele>673.0</ele><time>2026-04-12T07:43:50.969Z</time></trkpt><trkpt lat="40.7474814" lon="14.8345942"><ele>673.0</ele><time>2026-04-12T07:43:51.963Z</time></trkpt><trkpt lat="40.7475387" lon="14.8345018"><ele>673.0</ele><time>2026-04-12T07:43:53.035Z</time></trkpt><trkpt lat="40.7475983" lon="14.8343924"><ele>673.0</ele><time>2026-04-12T07:43:53.963Z</time></trkpt><trkpt lat="40.7476585" lon="14.8342713"><ele>673.0</ele><time>2026-04-12T07:43:54.96Z</time></trkpt><trkpt lat="40.7477126" lon="14.8341362"><ele>673.0</ele><time>2026-04-12T07:43:55.965Z</time></trkpt><trkpt lat="40.7477206" lon="14.8340109"><ele>675.2</ele><time>2026-04-12T07:43:56.961Z</time></trkpt><trkpt lat="40.7477222" lon="14.833879"><ele>677.4</ele><time>2026-04-12T07:43:57.962Z</time></trkpt><trkpt lat="40.7477049" lon="14.8337638"><ele>679.6</ele><time>2026-04-12T07:43:59.023Z</time></trkpt><trkpt lat="40.7476982" lon="14.8336354"><ele>681.8000000000001</ele><time>2026-04-12T07:44:00.021Z</time></trkpt><trkpt lat="40.7476721" lon="14.8335179"><ele>684.0</ele><time>2026-04-12T07:44:00.967Z</time></trkpt><trkpt lat="40.7476517" lon="14.833396"><ele>690.8000000000001</ele><time>2026-04-12T07:44:01.963Z</time></trkpt><trkpt lat="40.7476344" lon="14.8332888"><ele>697.6</ele><time>2026-04-12T07:44:02.954Z</time></trkpt><trkpt lat="40.747643" lon="14.8331928"><ele>704.4</ele><time>2026-04-12T07:44:03.959Z</time></trkpt><trkpt lat="40.747656" lon="14.8330696"><ele>711.2</ele><time>2026-04-12T07:44:04.964Z</time></trkpt><trkpt lat="40.7476691" lon="14.8329174"><ele>718.0</ele><time>2026-04-12T07:44:05.97Z</time></trkpt><trkpt lat="40.7476747" lon="14.8327916"><ele>718.0</ele><time>2026-04-12T07:44:06.971Z</time></trkpt><trkpt lat="40.7476707" lon="14.832669"><ele>718.0</ele><time>2026-04-12T07:44:08.033Z</time></trkpt><trkpt lat="40.7476606" lon="14.8325411"><ele>718.0</ele><time>2026-04-12T07:44:09.032Z</time></trkpt><trkpt lat="40.7476494" lon="14.832405"><ele>718.0</ele><time>2026-04-12T07:44:10.018Z</time></trkpt><trkpt lat="40.7476389" lon="14.8322575"><ele>718.0</ele><time>2026-04-12T07:44:10.966Z</time></trkpt><trkpt lat="40.7476422" lon="14.8321087"><ele>720.8</ele><time>2026-04-12T07:44:11.965Z</time></trkpt><trkpt lat="40.7476729" lon="14.831966"><ele>723.5999999999999</ele><time>2026-04-12T07:44:12.956Z</time></trkpt><trkpt lat="40.7476943" lon="14.8318596"><ele>726.4000000000001</ele><time>2026-04-12T07:44:13.964Z</time></trkpt><trkpt lat="40.7476795" lon="14.8317419"><ele>729.2</ele><time>2026-04-12T07:44:14.965Z</time></trkpt><trkpt lat="40.7476698" lon="14.8316117"><ele>732.0</ele><time>2026-04-12T07:44:15.959Z</time></trkpt><trkpt lat="40.7476733" lon="14.8314957"><ele>734.0</ele><time>2026-04-12T07:44:16.972Z</time></trkpt><trkpt lat="40.7477523" lon="14.8314617"><ele>736.0</ele><time>2026-04-12T07:44:19.965Z</time></trkpt><trkpt lat="40.7478315" lon="14.8315166"><ele>738.0</ele><time>2026-04-12T07:44:22.956Z</time></trkpt><trkpt lat="40.7478911" lon="14.831574"><ele>740.0</ele><time>2026-04-12T07:44:24.032Z</time></trkpt><trkpt lat="40.7479445" lon="14.8316291"><ele>742.0</ele><time>2026-04-12T07:44:25.044Z</time></trkpt><trkpt lat="40.7480254" lon="14.8317174"><ele>744.0</ele><time>2026-04-12T07:44:25.948Z</time></trkpt><trkpt lat="40.7481187" lon="14.8318134"><ele>742.5</ele><time>2026-04-12T07:44:26.963Z</time></trkpt><trkpt lat="40.7482241" lon="14.8318725"><ele>741.0</ele><time>2026-04-12T07:44:27.966Z</time></trkpt><trkpt lat="40.7483362" lon="14.8319214"><ele>739.5</ele><time>2026-04-12T07:44:28.956Z</time></trkpt><trkpt lat="40.7484477" lon="14.8319383"><ele>738.0</ele><time>2026-04-12T07:44:29.955Z</time></trkpt><trkpt lat="40.7485963" lon="14.8319802"><ele>738.0</ele><time>2026-04-12T07:44:30.965Z</time></trkpt><trkpt lat="40.7487547" lon="14.8320001"><ele>738.0</ele><time>2026-04-12T07:44:31.965Z</time></trkpt><trkpt lat="40.7488582" lon="14.8320172"><ele>738.0</ele><time>2026-04-12T07:44:32.962Z</time></trkpt><trkpt lat="40.7489241" lon="14.832072"><ele>738.0</ele><time>2026-04-12T07:44:33.965Z</time></trkpt><trkpt lat="40.7489826" lon="14.832143"><ele>738.0</ele><time>2026-04-12T07:44:34.959Z</time></trkpt><trkpt lat="40.7490688" lon="14.8322086"><ele>738.0</ele><time>2026-04-12T07:44:35.96Z</time></trkpt><trkpt lat="40.7491721" lon="14.8322608"><ele>738.0</ele><time>2026-04-12T07:44:36.972Z</time></trkpt><trkpt lat="40.7492709" lon="14.8322906"><ele>738.0</ele><time>2026-04-12T07:44:37.975Z</time></trkpt><trkpt lat="40.7493431" lon="14.8323128"><ele>738.0</ele><time>2026-04-12T07:44:39.969Z</time></trkpt><trkpt lat="40.7493887" lon="14.8323768"><ele>738.0</ele><time>2026-04-12T07:44:44.955Z</time></trkpt><trkpt lat="40.7494097" lon="14.8322642"><ele>738.0</ele><time>2026-04-12T07:46:16.967Z</time></trkpt><trkpt lat="40.7494352" lon="14.832128"><ele>738.0</ele><time>2026-04-12T07:46:18.955Z</time></trkpt><trkpt lat="40.7494129" lon="14.8319942"><ele>738.0</ele><time>2026-04-12T07:46:20.973Z</time></trkpt><trkpt lat="40.7493962" lon="14.8319093"><ele>738.0</ele><time>2026-04-12T07:46:22.974Z</time></trkpt><trkpt lat="40.7493088" lon="14.8318435"><ele>738.0</ele><time>2026-04-12T07:46:24.969Z</time></trkpt><trkpt lat="40.7492226" lon="14.8318243"><ele>738.0</ele><time>2026-04-12T07:46:25.967Z</time></trkpt><trkpt lat="40.749113" lon="14.8317867"><ele>742.25</ele><time>2026-04-12T07:46:26.955Z</time></trkpt><trkpt lat="40.7490281" lon="14.8316856"><ele>746.5</ele><time>2026-04-12T07:46:28.024Z</time></trkpt><trkpt lat="40.7489264" lon="14.8316198"><ele>750.75</ele><time>2026-04-12T07:46:29.029Z</time></trkpt><trkpt lat="40.7488148" lon="14.8315567"><ele>755.0</ele><time>2026-04-12T07:46:30.015Z</time></trkpt><trkpt lat="40.7487269" lon="14.8314836"><ele>755.0</ele><time>2026-04-12T07:46:30.96Z</time></trkpt><trkpt lat="40.7486424" lon="14.8313936"><ele>755.0</ele><time>2026-04-12T07:46:31.961Z</time></trkpt><trkpt lat="40.7485325" lon="14.8313164"><ele>755.0</ele><time>2026-04-12T07:46:32.962Z</time></trkpt><trkpt lat="40.748395" lon="14.8312258"><ele>755.0</ele><time>2026-04-12T07:46:34.034Z</time></trkpt><trkpt lat="40.7482588" lon="14.8311558"><ele>752.25</ele><time>2026-04-12T07:46:35.019Z</time></trkpt><trkpt lat="40.7481309" lon="14.831081"><ele>749.5</ele><time>2026-04-12T07:46:35.957Z</time></trkpt><trkpt lat="40.7479984" lon="14.8310218"><ele>746.75</ele><time>2026-04-12T07:46:36.964Z</time></trkpt><trkpt lat="40.7478877" lon="14.8309758"><ele>744.0</ele><time>2026-04-12T07:46:37.983Z</time></trkpt><trkpt lat="40.7477898" lon="14.8309333"><ele>745.4000000000001</ele><time>2026-04-12T07:46:39.027Z</time></trkpt><trkpt lat="40.7476969" lon="14.830895"><ele>746.8</ele><time>2026-04-12T07:46:40.026Z</time></trkpt><trkpt lat="40.7476185" lon="14.8308571"><ele>748.2</ele><time>2026-04-12T07:46:40.967Z</time></trkpt><trkpt lat="40.7475365" lon="14.8308593"><ele>749.5999999999999</ele><time>2026-04-12T07:46:43.956Z</time></trkpt><trkpt lat="40.747438" lon="14.8309336"><ele>751.0</ele><time>2026-04-12T07:46:45.96Z</time></trkpt><trkpt lat="40.7473636" lon="14.8309987"><ele>751.0</ele><time>2026-04-12T07:46:48.021Z</time></trkpt><trkpt lat="40.7473097" lon="14.8310936"><ele>751.0</ele><time>2026-04-12T07:46:49.025Z</time></trkpt><trkpt lat="40.7472579" lon="14.8312082"><ele>751.0</ele><time>2026-04-12T07:46:49.962Z</time></trkpt><trkpt lat="40.7472343" lon="14.831339"><ele>751.0</ele><time>2026-04-12T07:46:50.962Z</time></trkpt><trkpt lat="40.7472323" lon="14.8314731"><ele>751.0</ele><time>2026-04-12T07:46:51.951Z</time></trkpt><trkpt lat="40.7471858" lon="14.8315956"><ele>751.0</ele><time>2026-04-12T07:46:52.961Z</time></trkpt><trkpt lat="40.7471278" lon="14.8317208"><ele>751.0</ele><time>2026-04-12T07:46:53.97Z</time></trkpt><trkpt lat="40.747073" lon="14.8318292"><ele>751.0</ele><time>2026-04-12T07:46:54.965Z</time></trkpt><trkpt lat="40.7470437" lon="14.8319953"><ele>751.0</ele><time>2026-04-12T07:46:55.957Z</time></trkpt><trkpt lat="40.7470108" lon="14.8321144"><ele>751.0</ele><time>2026-04-12T07:46:56.969Z</time></trkpt><trkpt lat="40.7468838" lon="14.8321001"><ele>751.25</ele><time>2026-04-12T07:46:58.971Z</time></trkpt><trkpt lat="40.7467945" lon="14.8320568"><ele>751.5</ele><time>2026-04-12T07:46:59.964Z</time></trkpt><trkpt lat="40.7466798" lon="14.832008"><ele>751.75</ele><time>2026-04-12T07:47:00.962Z</time></trkpt><trkpt lat="40.7465536" lon="14.8319702"><ele>752.0</ele><time>2026-04-12T07:47:02.032Z</time></trkpt><trkpt lat="40.7464348" lon="14.831939"><ele>752.0</ele><time>2026-04-12T07:47:03.029Z</time></trkpt><trkpt lat="40.7463227" lon="14.8319131"><ele>752.0</ele><time>2026-04-12T07:47:04.021Z</time></trkpt><trkpt lat="40.7461999" lon="14.8318942"><ele>752.0</ele><time>2026-04-12T07:47:05.031Z</time></trkpt><trkpt lat="40.7460952" lon="14.8318688"><ele>752.0</ele><time>2026-04-12T07:47:05.959Z</time></trkpt><trkpt lat="40.746008" lon="14.8318393"><ele>752.0</ele><time>2026-04-12T07:47:06.968Z</time></trkpt><trkpt lat="40.7459352" lon="14.8317917"><ele>755.0</ele><time>2026-04-12T07:47:07.986Z</time></trkpt><trkpt lat="40.74587" lon="14.8317069"><ele>758.0</ele><time>2026-04-12T07:47:09.018Z</time></trkpt><trkpt lat="40.74581" lon="14.8315997"><ele>761.0</ele><time>2026-04-12T07:47:10.034Z</time></trkpt><trkpt lat="40.7457661" lon="14.8314661"><ele>764.0</ele><time>2026-04-12T07:47:10.968Z</time></trkpt><trkpt lat="40.7457409" lon="14.8313509"><ele>767.0</ele><time>2026-04-12T07:47:11.962Z</time></trkpt><trkpt lat="40.7457152" lon="14.8312721"><ele>767.0</ele><time>2026-04-12T07:47:14.039Z</time></trkpt><trkpt lat="40.7456532" lon="14.8311943"><ele>767.0</ele><time>2026-04-12T07:47:16.964Z</time></trkpt><trkpt lat="40.745551" lon="14.8311768"><ele>767.0</ele><time>2026-04-12T07:47:19.026Z</time></trkpt><trkpt lat="40.7454317" lon="14.8311561"><ele>767.0</ele><time>2026-04-12T07:47:20.039Z</time></trkpt><trkpt lat="40.7453015" lon="14.8310882"><ele>767.0</ele><time>2026-04-12T07:47:20.961Z</time></trkpt><trkpt lat="40.7451896" lon="14.8310029"><ele>769.0</ele><time>2026-04-12T07:47:21.961Z</time></trkpt><trkpt lat="40.7450663" lon="14.8308945"><ele>771.0</ele><time>2026-04-12T07:47:22.966Z</time></trkpt><trkpt lat="40.7449499" lon="14.8307765"><ele>773.0</ele><time>2026-04-12T07:47:23.959Z</time></trkpt><trkpt lat="40.7448513" lon="14.8306559"><ele>775.0</ele><time>2026-04-12T07:47:24.967Z</time></trkpt><trkpt lat="40.7447532" lon="14.8305319"><ele>775.0</ele><time>2026-04-12T07:47:25.962Z</time></trkpt><trkpt lat="40.7446615" lon="14.8304234"><ele>775.0</ele><time>2026-04-12T07:47:26.96Z</time></trkpt><trkpt lat="40.7445708" lon="14.8303348"><ele>775.0</ele><time>2026-04-12T07:47:27.959Z</time></trkpt><trkpt lat="40.7444671" lon="14.8302594"><ele>775.0</ele><time>2026-04-12T07:47:28.963Z</time></trkpt><trkpt lat="40.7443735" lon="14.8301784"><ele>772.4</ele><time>2026-04-12T07:47:30.028Z</time></trkpt><trkpt lat="40.7442996" lon="14.8301006"><ele>769.8</ele><time>2026-04-12T07:47:30.962Z</time></trkpt><trkpt lat="40.7442213" lon="14.8299965"><ele>767.2</ele><time>2026-04-12T07:47:31.977Z</time></trkpt><trkpt lat="40.7441632" lon="14.8298849"><ele>764.6</ele><time>2026-04-12T07:47:32.981Z</time></trkpt><trkpt lat="40.7441152" lon="14.8297756"><ele>762.0</ele><time>2026-04-12T07:47:34.032Z</time></trkpt><trkpt lat="40.7440843" lon="14.8296699"><ele>762.0</ele><time>2026-04-12T07:47:35.067Z</time></trkpt><trkpt lat="40.7440049" lon="14.8294448"><ele>762.0</ele><time>2026-04-12T07:47:36.965Z</time></trkpt><trkpt lat="40.7439555" lon="14.8293321"><ele>762.0</ele><time>2026-04-12T07:47:37.983Z</time></trkpt><trkpt lat="40.7439077" lon="14.8292311"><ele>762.0</ele><time>2026-04-12T07:47:38.961Z</time></trkpt><trkpt lat="40.7438582" lon="14.829131"><ele>763.1666666666666</ele><time>2026-04-12T07:47:39.962Z</time></trkpt><trkpt lat="40.7438082" lon="14.8290349"><ele>764.3333333333333</ele><time>2026-04-12T07:47:40.964Z</time></trkpt><trkpt lat="40.743764" lon="14.8289506"><ele>765.5</ele><time>2026-04-12T07:47:41.963Z</time></trkpt><trkpt lat="40.7437181" lon="14.8288393"><ele>766.6666666666666</ele><time>2026-04-12T07:47:43.964Z</time></trkpt><trkpt lat="40.7437534" lon="14.8287562"><ele>767.8333333333333</ele><time>2026-04-12T07:47:47.971Z</time></trkpt><trkpt lat="40.7438475" lon="14.8287418"><ele>769.0</ele><time>2026-04-12T07:47:50.966Z</time></trkpt><trkpt lat="40.743934" lon="14.8287403"><ele>769.0</ele><time>2026-04-12T07:47:53.95Z</time></trkpt><trkpt lat="40.7440494" lon="14.8287427"><ele>769.0</ele><time>2026-04-12T07:47:56.967Z</time></trkpt><trkpt lat="40.7441996" lon="14.8287317"><ele>769.0</ele><time>2026-04-12T07:47:58.956Z</time></trkpt><trkpt lat="40.7442886" lon="14.828715"><ele>769.0</ele><time>2026-04-12T07:47:59.957Z</time></trkpt><trkpt lat="40.7443859" lon="14.8287042"><ele>770.2</ele><time>2026-04-12T07:48:00.932Z</time></trkpt><trkpt lat="40.7444914" lon="14.8287078"><ele>771.4000000000001</ele><time>2026-04-12T07:48:01.957Z</time></trkpt><trkpt lat="40.7445994" lon="14.8287239"><ele>772.6</ele><time>2026-04-12T07:48:03.051Z</time></trkpt><trkpt lat="40.7447093" lon="14.8287215"><ele>773.8</ele><time>2026-04-12T07:48:04.034Z</time></trkpt><trkpt lat="40.7448284" lon="14.8287153"><ele>775.0</ele><time>2026-04-12T07:48:05.032Z</time></trkpt><trkpt lat="40.7449346" lon="14.8287131"><ele>775.0</ele><time>2026-04-12T07:48:05.964Z</time></trkpt><trkpt lat="40.7450446" lon="14.8287044"><ele>775.0</ele><time>2026-04-12T07:48:06.968Z</time></trkpt><trkpt lat="40.745155" lon="14.8286702"><ele>775.0</ele><time>2026-04-12T07:48:07.957Z</time></trkpt><trkpt lat="40.7452266" lon="14.8286615"><ele>775.0</ele><time>2026-04-12T07:48:08.967Z</time></trkpt><trkpt lat="40.7452777" lon="14.8286102"><ele>775.0</ele><time>2026-04-12T07:48:10.964Z</time></trkpt><trkpt lat="40.7452827" lon="14.8284865"><ele>772.4</ele><time>2026-04-12T07:48:13.025Z</time></trkpt><trkpt lat="40.7453399" lon="14.8283599"><ele>769.8</ele><time>2026-04-12T07:48:15.031Z</time></trkpt><trkpt lat="40.7454083" lon="14.8282915"><ele>767.2</ele><time>2026-04-12T07:48:16.958Z</time></trkpt><trkpt lat="40.745475" lon="14.8282311"><ele>764.6</ele><time>2026-04-12T07:48:17.958Z</time></trkpt><trkpt lat="40.7455747" lon="14.8281659"><ele>762.0</ele><time>2026-04-12T07:48:19.015Z</time></trkpt><trkpt lat="40.7456404" lon="14.8280921"><ele>762.0</ele><time>2026-04-12T07:48:20.032Z</time></trkpt><trkpt lat="40.7456879" lon="14.8280024"><ele>762.0</ele><time>2026-04-12T07:48:20.958Z</time></trkpt><trkpt lat="40.7457277" lon="14.8279049"><ele>762.0</ele><time>2026-04-12T07:48:21.97Z</time></trkpt><trkpt lat="40.7457675" lon="14.8277789"><ele>762.0</ele><time>2026-04-12T07:48:22.98Z</time></trkpt><trkpt lat="40.7457914" lon="14.8276815"><ele>762.0</ele><time>2026-04-12T07:48:23.969Z</time></trkpt><trkpt lat="40.7458658" lon="14.8275491"><ele>757.5</ele><time>2026-04-12T07:48:25.969Z</time></trkpt><trkpt lat="40.7459323" lon="14.8274822"><ele>753.0</ele><time>2026-04-12T07:48:26.968Z</time></trkpt><trkpt lat="40.7459823" lon="14.8274139"><ele>748.5</ele><time>2026-04-12T07:48:27.963Z</time></trkpt><trkpt lat="40.746027" lon="14.8273275"><ele>744.0</ele><time>2026-04-12T07:48:28.963Z</time></trkpt><trkpt lat="40.7460895" lon="14.8272339"><ele>739.5</ele><time>2026-04-12T07:48:29.969Z</time></trkpt><trkpt lat="40.7461344" lon="14.827131"><ele>735.0</ele><time>2026-04-12T07:48:30.966Z</time></trkpt><trkpt lat="40.7461811" lon="14.827045"><ele>734.8333333333334</ele><time>2026-04-12T07:48:31.979Z</time></trkpt><trkpt lat="40.7462219" lon="14.8269577"><ele>734.6666666666666</ele><time>2026-04-12T07:48:33.051Z</time></trkpt><trkpt lat="40.7462394" lon="14.8268688"><ele>734.5</ele><time>2026-04-12T07:48:34.034Z</time></trkpt><trkpt lat="40.7462457" lon="14.826781"><ele>734.3333333333333</ele><time>2026-04-12T07:48:35.044Z</time></trkpt><trkpt lat="40.7462485" lon="14.8266313"><ele>734.1666666666666</ele><time>2026-04-12T07:48:36.968Z</time></trkpt><trkpt lat="40.7462232" lon="14.8264932"><ele>734.0</ele><time>2026-04-12T07:48:38.975Z</time></trkpt><trkpt lat="40.7462029" lon="14.8263889"><ele>731.3333333333333</ele><time>2026-04-12T07:48:40.97Z</time></trkpt><trkpt lat="40.7461681" lon="14.8262732"><ele>728.6666666666666</ele><time>2026-04-12T07:48:43.044Z</time></trkpt><trkpt lat="40.7461388" lon="14.8261902"><ele>726.0</ele><time>2026-04-12T07:48:43.969Z</time></trkpt><trkpt lat="40.746109" lon="14.8260915"><ele>723.3333333333334</ele><time>2026-04-12T07:48:44.973Z</time></trkpt><trkpt lat="40.74608" lon="14.825992"><ele>720.6666666666667</ele><time>2026-04-12T07:48:45.968Z</time></trkpt><trkpt lat="40.7460572" lon="14.8258952"><ele>718.0</ele><time>2026-04-12T07:48:46.974Z</time></trkpt><trkpt lat="40.7460284" lon="14.8257944"><ele>718.0</ele><time>2026-04-12T07:48:47.982Z</time></trkpt><trkpt lat="40.7460139" lon="14.8256748"><ele>718.0</ele><time>2026-04-12T07:48:48.966Z</time></trkpt><trkpt lat="40.7460147" lon="14.8255557"><ele>718.0</ele><time>2026-04-12T07:48:50.009Z</time></trkpt><trkpt lat="40.7460136" lon="14.8254435"><ele>718.0</ele><time>2026-04-12T07:48:50.968Z</time></trkpt><trkpt lat="40.7460069" lon="14.8253409"><ele>718.0</ele><time>2026-04-12T07:48:51.97Z</time></trkpt><trkpt lat="40.7459903" lon="14.8252371"><ele>718.0</ele><time>2026-04-12T07:48:53.971Z</time></trkpt><trkpt lat="40.7459057" lon="14.8251419"><ele>719.5</ele><time>2026-04-12T07:48:55.969Z</time></trkpt><trkpt lat="40.7457989" lon="14.8250083"><ele>721.0</ele><time>2026-04-12T07:48:57.973Z</time></trkpt><trkpt lat="40.7457372" lon="14.8249462"><ele>722.5</ele><time>2026-04-12T07:48:58.973Z</time></trkpt><trkpt lat="40.7456829" lon="14.8248694"><ele>724.0</ele><time>2026-04-12T07:48:59.969Z</time></trkpt><trkpt lat="40.7456395" lon="14.8247932"><ele>725.5</ele><time>2026-04-12T07:49:00.975Z</time></trkpt><trkpt lat="40.7456079" lon="14.8247176"><ele>727.0</ele><time>2026-04-12T07:49:01.982Z</time></trkpt><trkpt lat="40.7455664" lon="14.824598"><ele>727.0</ele><time>2026-04-12T07:49:03.974Z</time></trkpt><trkpt lat="40.74553" lon="14.8244976"><ele>727.0</ele><time>2026-04-12T07:49:05.969Z</time></trkpt><trkpt lat="40.7454654" lon="14.8244251"><ele>727.0</ele><time>2026-04-12T07:49:08.974Z</time></trkpt><trkpt lat="40.7454293" lon="14.8243471"><ele>727.0</ele><time>2026-04-12T07:49:10.975Z</time></trkpt><trkpt lat="40.7453965" lon="14.8242398"><ele>727.0</ele><time>2026-04-12T07:49:12.97Z</time></trkpt><trkpt lat="40.7453621" lon="14.8241531"><ele>727.0</ele><time>2026-04-12T07:49:13.969Z</time></trkpt><trkpt lat="40.745333" lon="14.8240568"><ele>727.1666666666667</ele><time>2026-04-12T07:49:14.975Z</time></trkpt><trkpt lat="40.7453001" lon="14.8239565"><ele>727.3333333333334</ele><time>2026-04-12T07:49:15.966Z</time></trkpt><trkpt lat="40.7452757" lon="14.8238643"><ele>727.5</ele><time>2026-04-12T07:49:16.966Z</time></trkpt><trkpt lat="40.7452429" lon="14.8237869"><ele>727.6666666666666</ele><time>2026-04-12T07:49:17.964Z</time></trkpt><trkpt lat="40.7451788" lon="14.8236616"><ele>727.8333333333333</ele><time>2026-04-12T07:49:19.964Z</time></trkpt><trkpt lat="40.7451288" lon="14.8235912"><ele>728.0</ele><time>2026-04-12T07:49:21.975Z</time></trkpt><trkpt lat="40.745055" lon="14.8235146"><ele>728.2</ele><time>2026-04-12T07:49:24.977Z</time></trkpt><trkpt lat="40.7449858" lon="14.8234445"><ele>728.4</ele><time>2026-04-12T07:49:26.979Z</time></trkpt><trkpt lat="40.7449039" lon="14.823373"><ele>728.6</ele><time>2026-04-12T07:49:28.977Z</time></trkpt><trkpt lat="40.7447961" lon="14.8233264"><ele>728.8000000000001</ele><time>2026-04-12T07:49:30.978Z</time></trkpt><trkpt lat="40.7446967" lon="14.8232756"><ele>729.0</ele><time>2026-04-12T07:49:32.979Z</time></trkpt><trkpt lat="40.7446098" lon="14.8232332"><ele>729.0</ele><time>2026-04-12T07:49:34.976Z</time></trkpt><trkpt lat="40.7445165" lon="14.8232053"><ele>729.0</ele><time>2026-04-12T07:49:36.975Z</time></trkpt><trkpt lat="40.7444292" lon="14.8231768"><ele>729.0</ele><time>2026-04-12T07:49:38.967Z</time></trkpt><trkpt lat="40.7443353" lon="14.8231353"><ele>729.0</ele><time>2026-04-12T07:49:40.973Z</time></trkpt><trkpt lat="40.7442774" lon="14.8230959"><ele>729.0</ele><time>2026-04-12T07:49:41.979Z</time></trkpt><trkpt lat="40.7442213" lon="14.8230445"><ele>729.0</ele><time>2026-04-12T07:49:42.971Z</time></trkpt><trkpt lat="40.7441592" lon="14.8229883"><ele>727.6666666666666</ele><time>2026-04-12T07:49:43.978Z</time></trkpt><trkpt lat="40.7440911" lon="14.8229219"><ele>726.3333333333334</ele><time>2026-04-12T07:49:44.973Z</time></trkpt><trkpt lat="40.7440276" lon="14.8228572"><ele>725.0</ele><time>2026-04-12T07:49:45.975Z</time></trkpt><trkpt lat="40.7439728" lon="14.8227967"><ele>723.6666666666667</ele><time>2026-04-12T07:49:46.979Z</time></trkpt><trkpt lat="40.7439097" lon="14.8227348"><ele>722.3333333333334</ele><time>2026-04-12T07:49:47.976Z</time></trkpt><trkpt lat="40.7438247" lon="14.822629"><ele>721.0</ele><time>2026-04-12T07:49:49.98Z</time></trkpt><trkpt lat="40.7437316" lon="14.8225365"><ele>720.8</ele><time>2026-04-12T07:49:51.977Z</time></trkpt><trkpt lat="40.7436438" lon="14.8224652"><ele>720.5999999999999</ele><time>2026-04-12T07:49:53.987Z</time></trkpt><trkpt lat="40.7435697" lon="14.8223846"><ele>720.4</ele><time>2026-04-12T07:49:55.977Z</time></trkpt><trkpt lat="40.7435252" lon="14.822266"><ele>720.2</ele><time>2026-04-12T07:49:57.967Z</time></trkpt><trkpt lat="40.7435126" lon="14.822135"><ele>720.0</ele><time>2026-04-12T07:49:59.971Z</time></trkpt><trkpt lat="40.7435108" lon="14.8220029"><ele>721.4</ele><time>2026-04-12T07:50:02.061Z</time></trkpt><trkpt lat="40.7435027" lon="14.8218951"><ele>722.8</ele><time>2026-04-12T07:50:03.034Z</time></trkpt><trkpt lat="40.7434977" lon="14.8217733"><ele>724.2</ele><time>2026-04-12T07:50:03.968Z</time></trkpt><trkpt lat="40.7434994" lon="14.8216622"><ele>725.6</ele><time>2026-04-12T07:50:04.975Z</time></trkpt><trkpt lat="40.7435079" lon="14.8215578"><ele>727.0</ele><time>2026-04-12T07:50:05.979Z</time></trkpt><trkpt lat="40.7435092" lon="14.8214011"><ele>727.0</ele><time>2026-04-12T07:50:07.975Z</time></trkpt><trkpt lat="40.7435138" lon="14.8212318"><ele>727.0</ele><time>2026-04-12T07:50:09.984Z</time></trkpt><trkpt lat="40.743506" lon="14.8211391"><ele>727.0</ele><time>2026-04-12T07:50:10.962Z</time></trkpt><trkpt lat="40.743481" lon="14.8210309"><ele>727.0</ele><time>2026-04-12T07:50:11.962Z</time></trkpt><trkpt lat="40.7434588" lon="14.820902"><ele>727.0</ele><time>2026-04-12T07:50:13.053Z</time></trkpt><trkpt lat="40.7434268" lon="14.8207772"><ele>728.1666666666667</ele><time>2026-04-12T07:50:14.039Z</time></trkpt><trkpt lat="40.7433913" lon="14.8206617"><ele>729.3333333333334</ele><time>2026-04-12T07:50:15.028Z</time></trkpt><trkpt lat="40.7433574" lon="14.8205684"><ele>730.5</ele><time>2026-04-12T07:50:15.988Z</time></trkpt><trkpt lat="40.743329" lon="14.8204803"><ele>731.6666666666666</ele><time>2026-04-12T07:50:16.988Z</time></trkpt><trkpt lat="40.743305" lon="14.8203148"><ele>732.8333333333333</ele><time>2026-04-12T07:50:19.034Z</time></trkpt><trkpt lat="40.7432928" lon="14.8202269"><ele>734.0</ele><time>2026-04-12T07:50:20.034Z</time></trkpt><trkpt lat="40.7432916" lon="14.8201382"><ele>734.7142857142857</ele><time>2026-04-12T07:50:20.975Z</time></trkpt><trkpt lat="40.7433192" lon="14.820003"><ele>735.4285714285714</ele><time>2026-04-12T07:50:22.971Z</time></trkpt><trkpt lat="40.7433429" lon="14.8199231"><ele>736.1428571428571</ele><time>2026-04-12T07:50:24.04Z</time></trkpt><trkpt lat="40.7433589" lon="14.8198325"><ele>736.8571428571429</ele><time>2026-04-12T07:50:24.97Z</time></trkpt><trkpt lat="40.7433764" lon="14.8197474"><ele>737.5714285714287</ele><time>2026-04-12T07:50:25.964Z</time></trkpt><trkpt lat="40.7433906" lon="14.8196605"><ele>738.2857142857143</ele><time>2026-04-12T07:50:27.04Z</time></trkpt><trkpt lat="40.7434039" lon="14.8195731"><ele>739.0</ele><time>2026-04-12T07:50:27.969Z</time></trkpt><trkpt lat="40.7434243" lon="14.8194212"><ele>736.6666666666667</ele><time>2026-04-12T07:50:30.021Z</time></trkpt><trkpt lat="40.7434239" lon="14.8193129"><ele>734.3333333333334</ele><time>2026-04-12T07:50:31.964Z</time></trkpt><trkpt lat="40.7433994" lon="14.8192359"><ele>732.0</ele><time>2026-04-12T07:50:33.97Z</time></trkpt><trkpt lat="40.7433628" lon="14.8191521"><ele>729.6666666666666</ele><time>2026-04-12T07:50:35.977Z</time></trkpt><trkpt lat="40.7433235" lon="14.8190395"><ele>727.3333333333333</ele><time>2026-04-12T07:50:37.975Z</time></trkpt><trkpt lat="40.7432825" lon="14.8189387"><ele>725.0</ele><time>2026-04-12T07:50:39.971Z</time></trkpt><trkpt lat="40.7432303" lon="14.8188453"><ele>725.0</ele><time>2026-04-12T07:50:42.971Z</time></trkpt><trkpt lat="40.7431817" lon="14.8187853"><ele>725.0</ele><time>2026-04-12T07:50:45.058Z</time></trkpt><trkpt lat="40.7431346" lon="14.8187269"><ele>725.0</ele><time>2026-04-12T07:50:46.976Z</time></trkpt><trkpt lat="40.7430719" lon="14.8186605"><ele>725.0</ele><time>2026-04-12T07:50:48.976Z</time></trkpt><trkpt lat="40.7430139" lon="14.8186047"><ele>725.0</ele><time>2026-04-12T07:50:50.972Z</time></trkpt><trkpt lat="40.7429471" lon="14.8185387"><ele>725.0</ele><time>2026-04-12T07:50:53.039Z</time></trkpt><trkpt lat="40.742881" lon="14.8185042"><ele>725.0</ele><time>2026-04-12T07:50:54.978Z</time></trkpt><trkpt lat="40.7428153" lon="14.8184633"><ele>722.0</ele><time>2026-04-12T07:50:56.983Z</time></trkpt><trkpt lat="40.7427603" lon="14.8183954"><ele>719.0</ele><time>2026-04-12T07:50:58.985Z</time></trkpt><trkpt lat="40.7427052" lon="14.818287"><ele>716.0</ele><time>2026-04-12T07:51:01.979Z</time></trkpt><trkpt lat="40.7426755" lon="14.8181931"><ele>713.0</ele><time>2026-04-12T07:51:06.97Z</time></trkpt><trkpt lat="40.7426636" lon="14.8180866"><ele>710.0</ele><time>2026-04-12T07:51:09.985Z</time></trkpt><trkpt lat="40.742639" lon="14.8179999"><ele>707.0</ele><time>2026-04-12T07:51:12.991Z</time></trkpt><trkpt lat="40.7426352" lon="14.8178918"><ele>703.8333333333333</ele><time>2026-04-12T07:51:15.983Z</time></trkpt><trkpt lat="40.7426321" lon="14.8178039"><ele>700.6666666666666</ele><time>2026-04-12T07:51:18.993Z</time></trkpt><trkpt lat="40.7425782" lon="14.8176913"><ele>697.5</ele><time>2026-04-12T07:51:20.984Z</time></trkpt><trkpt lat="40.7425457" lon="14.8175781"><ele>694.3333333333334</ele><time>2026-04-12T07:51:22.986Z</time></trkpt><trkpt lat="40.7425281" lon="14.8174894"><ele>691.1666666666667</ele><time>2026-04-12T07:51:26.981Z</time></trkpt><trkpt lat="40.7425941" lon="14.8174724"><ele>688.0</ele><time>2026-04-12T07:51:36.988Z</time></trkpt><trkpt lat="40.742689" lon="14.8174994"><ele>685.8571428571429</ele><time>2026-04-12T07:51:38.972Z</time></trkpt><trkpt lat="40.742752" lon="14.8175124"><ele>683.7142857142858</ele><time>2026-04-12T07:51:39.976Z</time></trkpt><trkpt lat="40.742814" lon="14.8175282"><ele>681.5714285714287</ele><time>2026-04-12T07:51:40.98Z</time></trkpt><trkpt lat="40.7428763" lon="14.8175491"><ele>679.4285714285714</ele><time>2026-04-12T07:51:41.967Z</time></trkpt><trkpt lat="40.7429391" lon="14.8175659"><ele>677.2857142857142</ele><time>2026-04-12T07:51:43.003Z</time></trkpt><trkpt lat="40.7430054" lon="14.8175859"><ele>675.1428571428572</ele><time>2026-04-12T07:51:43.982Z</time></trkpt><trkpt lat="40.7431058" lon="14.8176407"><ele>673.0</ele><time>2026-04-12T07:51:45.969Z</time></trkpt><trkpt lat="40.7432069" lon="14.8177171"><ele>675.1666666666667</ele><time>2026-04-12T07:51:47.978Z</time></trkpt><trkpt lat="40.7432574" lon="14.8177689"><ele>677.3333333333334</ele><time>2026-04-12T07:51:48.99Z</time></trkpt><trkpt lat="40.7433281" lon="14.8178441"><ele>679.5</ele><time>2026-04-12T07:51:50.989Z</time></trkpt><trkpt lat="40.7434016" lon="14.8178994"><ele>681.6666666666666</ele><time>2026-04-12T07:51:52.985Z</time></trkpt><trkpt lat="40.7434506" lon="14.8179527"><ele>683.8333333333333</ele><time>2026-04-12T07:51:54.984Z</time></trkpt><trkpt lat="40.7435389" lon="14.818022"><ele>686.0</ele><time>2026-04-12T07:51:56.993Z</time></trkpt><trkpt lat="40.7436386" lon="14.818102"><ele>686.0</ele><time>2026-04-12T07:51:58.976Z</time></trkpt><trkpt lat="40.7437375" lon="14.8181255"><ele>686.0</ele><time>2026-04-12T07:52:00.97Z</time></trkpt><trkpt lat="40.7438579" lon="14.8181069"><ele>686.0</ele><time>2026-04-12T07:52:02.978Z</time></trkpt><trkpt lat="40.7439288" lon="14.8181114"><ele>686.0</ele><time>2026-04-12T07:52:03.969Z</time></trkpt><trkpt lat="40.7439958" lon="14.81812"><ele>686.0</ele><time>2026-04-12T07:52:04.97Z</time></trkpt><trkpt lat="40.7441056" lon="14.8181403"><ele>686.0</ele><time>2026-04-12T07:52:06.971Z</time></trkpt><trkpt lat="40.7442162" lon="14.8181926"><ele>686.0</ele><time>2026-04-12T07:52:08.976Z</time></trkpt><trkpt lat="40.7442682" lon="14.8182428"><ele>686.0</ele><time>2026-04-12T07:52:09.991Z</time></trkpt><trkpt lat="40.7443228" lon="14.8182915"><ele>686.0</ele><time>2026-04-12T07:52:10.982Z</time></trkpt><trkpt lat="40.7444095" lon="14.8183348"><ele>686.0</ele><time>2026-04-12T07:52:12.975Z</time></trkpt><trkpt lat="40.7444993" lon="14.8183426"><ele>686.0</ele><time>2026-04-12T07:52:15.028Z</time></trkpt><trkpt lat="40.7445742" lon="14.8183675"><ele>680.3333333333333</ele><time>2026-04-12T07:52:16.955Z</time></trkpt><trkpt lat="40.7446802" lon="14.8183607"><ele>674.6666666666666</ele><time>2026-04-12T07:52:18.957Z</time></trkpt><trkpt lat="40.7447621" lon="14.8183494"><ele>669.0</ele><time>2026-04-12T07:52:20.958Z</time></trkpt><trkpt lat="40.7448272" lon="14.8183568"><ele>663.3333333333334</ele><time>2026-04-12T07:52:22.962Z</time></trkpt><trkpt lat="40.7449086" lon="14.8183861"><ele>657.6666666666667</ele><time>2026-04-12T07:52:25.969Z</time></trkpt><trkpt lat="40.7449608" lon="14.8184515"><ele>652.0</ele><time>2026-04-12T07:52:28.963Z</time></trkpt><trkpt lat="40.7449551" lon="14.8185839"><ele>650.8333333333334</ele><time>2026-04-12T07:52:31.972Z</time></trkpt><trkpt lat="40.7449497" lon="14.8186941"><ele>649.6666666666667</ele><time>2026-04-12T07:52:33.963Z</time></trkpt><trkpt lat="40.7449296" lon="14.8188003"><ele>648.5</ele><time>2026-04-12T07:52:35.965Z</time></trkpt><trkpt lat="40.7449181" lon="14.8189051"><ele>647.3333333333334</ele><time>2026-04-12T07:52:37.958Z</time></trkpt><trkpt lat="40.7448935" lon="14.819004"><ele>646.1666666666666</ele><time>2026-04-12T07:52:39.969Z</time></trkpt><trkpt lat="40.7448752" lon="14.8191033"><ele>645.0</ele><time>2026-04-12T07:52:41.962Z</time></trkpt><trkpt lat="40.7448429" lon="14.8192459"><ele>643.0</ele><time>2026-04-12T07:52:43.956Z</time></trkpt><trkpt lat="40.7448351" lon="14.8193406"><ele>641.0</ele><time>2026-04-12T07:52:45.966Z</time></trkpt><trkpt lat="40.7448756" lon="14.8194285"><ele>639.0</ele><time>2026-04-12T07:52:48.961Z</time></trkpt><trkpt lat="40.7449064" lon="14.8195603"><ele>637.0</ele><time>2026-04-12T07:52:51.971Z</time></trkpt><trkpt lat="40.7449185" lon="14.8196587"><ele>635.0</ele><time>2026-04-12T07:52:53.968Z</time></trkpt><trkpt lat="40.7448957" lon="14.8197889"><ele>633.0</ele><time>2026-04-12T07:52:55.971Z</time></trkpt><trkpt lat="40.7448678" lon="14.8199553"><ele>633.0</ele><time>2026-04-12T07:52:57.956Z</time></trkpt><trkpt lat="40.7448408" lon="14.8200811"><ele>633.0</ele><time>2026-04-12T07:52:59.964Z</time></trkpt><trkpt lat="40.7448258" lon="14.8201861"><ele>633.0</ele><time>2026-04-12T07:53:02.06Z</time></trkpt><trkpt lat="40.7448347" lon="14.8203191"><ele>633.0</ele><time>2026-04-12T07:53:03.967Z</time></trkpt><trkpt lat="40.744833" lon="14.8204322"><ele>633.0</ele><time>2026-04-12T07:53:05.974Z</time></trkpt><trkpt lat="40.7448155" lon="14.8205263"><ele>633.0</ele><time>2026-04-12T07:53:08.974Z</time></trkpt><trkpt lat="40.7448293" lon="14.8206434"><ele>633.1666666666666</ele><time>2026-04-12T07:53:15.961Z</time></trkpt><trkpt lat="40.7448273" lon="14.8207379"><ele>633.3333333333334</ele><time>2026-04-12T07:53:17.958Z</time></trkpt><trkpt lat="40.7448357" lon="14.8208346"><ele>633.5</ele><time>2026-04-12T07:53:19.95Z</time></trkpt><trkpt lat="40.7448771" lon="14.8209139"><ele>633.6666666666667</ele><time>2026-04-12T07:53:28.967Z</time></trkpt><trkpt lat="40.7449402" lon="14.8209122"><ele>633.8333333333334</ele><time>2026-04-12T07:53:29.94Z</time></trkpt><trkpt lat="40.7450961" lon="14.8209165"><ele>634.0</ele><time>2026-04-12T07:53:30.94Z</time></trkpt><trkpt lat="40.7452139" lon="14.8209641"><ele>638.0</ele><time>2026-04-12T07:53:31.946Z</time></trkpt><trkpt lat="40.7451983" lon="14.8210969"><ele>642.0</ele><time>2026-04-12T07:53:33.941Z</time></trkpt><trkpt lat="40.7451281" lon="14.8211378"><ele>646.0</ele><time>2026-04-12T07:53:34.938Z</time></trkpt><trkpt lat="40.745024" lon="14.8211696"><ele>650.0</ele><time>2026-04-12T07:53:36.939Z</time></trkpt><trkpt lat="40.744955" lon="14.8211761"><ele>654.0</ele><time>2026-04-12T07:53:38.932Z</time></trkpt><trkpt lat="40.7449728" lon="14.8212804"><ele>658.0</ele><time>2026-04-12T07:53:41.939Z</time></trkpt><trkpt lat="40.7449354" lon="14.8213631"><ele>658.0</ele><time>2026-04-12T07:53:44.934Z</time></trkpt><trkpt lat="40.7449371" lon="14.821455"><ele>658.0</ele><time>2026-04-12T07:53:48.934Z</time></trkpt><trkpt lat="40.7450193" lon="14.8214985"><ele>658.0</ele><time>2026-04-12T07:53:50.938Z</time></trkpt><trkpt lat="40.745085" lon="14.8215485"><ele>658.0</ele><time>2026-04-12T07:53:52.949Z</time></trkpt><trkpt lat="40.7451761" lon="14.8215641"><ele>658.0</ele><time>2026-04-12T07:53:54.942Z</time></trkpt><trkpt lat="40.7452398" lon="14.8215629"><ele>658.0</ele><time>2026-04-12T07:53:55.947Z</time></trkpt><trkpt lat="40.7453534" lon="14.8215798"><ele>654.0</ele><time>2026-04-12T07:53:57.96Z</time></trkpt><trkpt lat="40.7454259" lon="14.8216263"><ele>650.0</ele><time>2026-04-12T07:53:59.951Z</time></trkpt><trkpt lat="40.7454991" lon="14.8216337"><ele>646.0</ele><time>2026-04-12T07:54:01.958Z</time></trkpt><trkpt lat="40.7455738" lon="14.8216373"><ele>642.0</ele><time>2026-04-12T07:54:04.959Z</time></trkpt><trkpt lat="40.7456723" lon="14.821639"><ele>638.0</ele><time>2026-04-12T07:54:07.035Z</time></trkpt><trkpt lat="40.7457855" lon="14.8216594"><ele>634.0</ele><time>2026-04-12T07:54:09.031Z</time></trkpt><trkpt lat="40.7458587" lon="14.8216876"><ele>634.0</ele><time>2026-04-12T07:54:09.946Z</time></trkpt><trkpt lat="40.7459422" lon="14.8217037"><ele>634.0</ele><time>2026-04-12T07:54:10.942Z</time></trkpt><trkpt lat="40.7460362" lon="14.8216984"><ele>634.0</ele><time>2026-04-12T07:54:11.951Z</time></trkpt><trkpt lat="40.7461133" lon="14.8216895"><ele>634.0</ele><time>2026-04-12T07:54:12.948Z</time></trkpt><trkpt lat="40.7461737" lon="14.8216641"><ele>634.0</ele><time>2026-04-12T07:54:13.941Z</time></trkpt><trkpt lat="40.7462482" lon="14.8216762"><ele>634.0</ele><time>2026-04-12T07:54:15.93Z</time></trkpt><trkpt lat="40.7463143" lon="14.8217325"><ele>633.3333333333334</ele><time>2026-04-12T07:54:17.931Z</time></trkpt><trkpt lat="40.7463507" lon="14.8218014"><ele>632.6666666666667</ele><time>2026-04-12T07:54:19.953Z</time></trkpt><trkpt lat="40.7463852" lon="14.8219127"><ele>632.0</ele><time>2026-04-12T07:54:22.95Z</time></trkpt><trkpt lat="40.7464117" lon="14.822009"><ele>631.3333333333334</ele><time>2026-04-12T07:54:25.962Z</time></trkpt><trkpt lat="40.746442" lon="14.8221047"><ele>630.6666666666666</ele><time>2026-04-12T07:54:29.964Z</time></trkpt><trkpt lat="40.7464419" lon="14.8222177"><ele>630.0</ele><time>2026-04-12T07:54:31.955Z</time></trkpt><trkpt lat="40.7465056" lon="14.822268"><ele>630.0</ele><time>2026-04-12T07:54:34.945Z</time></trkpt><trkpt lat="40.7466415" lon="14.8223218"><ele>630.0</ele><time>2026-04-12T07:54:36.957Z</time></trkpt><trkpt lat="40.7467192" lon="14.8223697"><ele>630.0</ele><time>2026-04-12T07:54:37.952Z</time></trkpt><trkpt lat="40.7467887" lon="14.8224205"><ele>630.0</ele><time>2026-04-12T07:54:38.955Z</time></trkpt><trkpt lat="40.7468496" lon="14.8224606"><ele>630.0</ele><time>2026-04-12T07:54:39.95Z</time></trkpt><trkpt lat="40.7469033" lon="14.8225063"><ele>630.0</ele><time>2026-04-12T07:54:41.95Z</time></trkpt><trkpt lat="40.746939" lon="14.8226004"><ele>628.6666666666666</ele><time>2026-04-12T07:54:43.947Z</time></trkpt><trkpt lat="40.7469736" lon="14.8227006"><ele>627.3333333333334</ele><time>2026-04-12T07:54:44.98Z</time></trkpt><trkpt lat="40.7469918" lon="14.8228254"><ele>626.0</ele><time>2026-04-12T07:54:45.953Z</time></trkpt><trkpt lat="40.7469917" lon="14.8229218"><ele>624.6666666666667</ele><time>2026-04-12T07:54:46.932Z</time></trkpt><trkpt lat="40.7469953" lon="14.8230676"><ele>623.3333333333334</ele><time>2026-04-12T07:54:48.941Z</time></trkpt><trkpt lat="40.7469668" lon="14.8231701"><ele>622.0</ele><time>2026-04-12T07:54:50.935Z</time></trkpt><trkpt lat="40.7470336" lon="14.8232253"><ele>622.0</ele><time>2026-04-12T07:54:54.061Z</time></trkpt><trkpt lat="40.7471401" lon="14.8232053"><ele>622.0</ele><time>2026-04-12T07:54:55.957Z</time></trkpt><trkpt lat="40.7472143" lon="14.8231948"><ele>622.0</ele><time>2026-04-12T07:54:56.956Z</time></trkpt><trkpt lat="40.7472888" lon="14.8231613"><ele>622.0</ele><time>2026-04-12T07:54:57.959Z</time></trkpt><trkpt lat="40.7473828" lon="14.8231338"><ele>622.0</ele><time>2026-04-12T07:54:58.954Z</time></trkpt><trkpt lat="40.7474853" lon="14.8231026"><ele>622.0</ele><time>2026-04-12T07:54:59.96Z</time></trkpt><trkpt lat="40.7475549" lon="14.8230699"><ele>622.0</ele><time>2026-04-12T07:55:00.956Z</time></trkpt><trkpt lat="40.7476198" lon="14.8230424"><ele>622.0</ele><time>2026-04-12T07:55:01.961Z</time></trkpt><trkpt lat="40.7477279" lon="14.823005"><ele>622.0</ele><time>2026-04-12T07:55:04.038Z</time></trkpt><trkpt lat="40.747825" lon="14.8230832"><ele>622.0</ele><time>2026-04-12T07:55:05.96Z</time></trkpt><trkpt lat="40.7478744" lon="14.8231399"><ele>622.0</ele><time>2026-04-12T07:55:06.958Z</time></trkpt><trkpt lat="40.7479215" lon="14.8232008"><ele>617.8333333333334</ele><time>2026-04-12T07:55:07.957Z</time></trkpt><trkpt lat="40.7479691" lon="14.8232619"><ele>613.6666666666667</ele><time>2026-04-12T07:55:08.961Z</time></trkpt><trkpt lat="40.7480211" lon="14.8233216"><ele>609.5</ele><time>2026-04-12T07:55:10.959Z</time></trkpt><trkpt lat="40.7481333" lon="14.8233552"><ele>605.3333333333334</ele><time>2026-04-12T07:55:12.956Z</time></trkpt><trkpt lat="40.7482333" lon="14.8233825"><ele>601.1666666666666</ele><time>2026-04-12T07:55:15.045Z</time></trkpt><trkpt lat="40.7482955" lon="14.8233594"><ele>597.0</ele><time>2026-04-12T07:55:16.969Z</time></trkpt><trkpt lat="40.7483547" lon="14.8234174"><ele>596.5</ele><time>2026-04-12T07:55:19.962Z</time></trkpt><trkpt lat="40.7483918" lon="14.8235089"><ele>596.0</ele><time>2026-04-12T07:55:23.066Z</time></trkpt><trkpt lat="40.7484333" lon="14.8235719"><ele>595.5</ele><time>2026-04-12T07:55:25.035Z</time></trkpt><trkpt lat="40.7485029" lon="14.8236266"><ele>595.0</ele><time>2026-04-12T07:55:26.966Z</time></trkpt><trkpt lat="40.7485685" lon="14.8236343"><ele>594.5</ele><time>2026-04-12T07:55:28.964Z</time></trkpt><trkpt lat="40.7486578" lon="14.8236282"><ele>594.0</ele><time>2026-04-12T07:55:30.978Z</time></trkpt><trkpt lat="40.7487379" lon="14.8236267"><ele>590.8571428571429</ele><time>2026-04-12T07:55:33.002Z</time></trkpt><trkpt lat="40.7487826" lon="14.8235637"><ele>587.7142857142858</ele><time>2026-04-12T07:55:34.966Z</time></trkpt><trkpt lat="40.7488612" lon="14.8235512"><ele>584.5714285714286</ele><time>2026-04-12T07:55:37.025Z</time></trkpt><trkpt lat="40.7489277" lon="14.8235171"><ele>581.4285714285714</ele><time>2026-04-12T07:55:38.959Z</time></trkpt><trkpt lat="40.7489967" lon="14.8234681"><ele>578.2857142857142</ele><time>2026-04-12T07:55:40.96Z</time></trkpt><trkpt lat="40.7490707" lon="14.8234475"><ele>575.1428571428571</ele><time>2026-04-12T07:55:42.963Z</time></trkpt><trkpt lat="40.7491321" lon="14.8234829"><ele>572.0</ele><time>2026-04-12T07:55:45Z</time></trkpt><trkpt lat="40.7492092" lon="14.823476"><ele>572.0</ele><time>2026-04-12T07:55:46.973Z</time></trkpt><trkpt lat="40.7493197" lon="14.8234447"><ele>572.0</ele><time>2026-04-12T07:55:48.967Z</time></trkpt><trkpt lat="40.7493924" lon="14.8234159"><ele>572.0</ele><time>2026-04-12T07:55:49.963Z</time></trkpt><trkpt lat="40.7494625" lon="14.8233814"><ele>572.0</ele><time>2026-04-12T07:55:50.966Z</time></trkpt><trkpt lat="40.7495329" lon="14.8233411"><ele>572.0</ele><time>2026-04-12T07:55:51.961Z</time></trkpt><trkpt lat="40.7495915" lon="14.8233036"><ele>572.0</ele><time>2026-04-12T07:55:52.952Z</time></trkpt><trkpt lat="40.7496659" lon="14.8232209"><ele>566.0</ele><time>2026-04-12T07:55:54.965Z</time></trkpt><trkpt lat="40.7497585" lon="14.8231134"><ele>560.0</ele><time>2026-04-12T07:55:56.948Z</time></trkpt><trkpt lat="40.7498588" lon="14.823044"><ele>554.0</ele><time>2026-04-12T07:55:59.034Z</time></trkpt><trkpt lat="40.7499355" lon="14.8230081"><ele>548.0</ele><time>2026-04-12T07:56:00.983Z</time></trkpt><trkpt lat="40.7499833" lon="14.8229484"><ele>542.0</ele><time>2026-04-12T07:56:02.973Z</time></trkpt><trkpt lat="40.7500315" lon="14.8228799"><ele>542.0</ele><time>2026-04-12T07:56:04.985Z</time></trkpt><trkpt lat="40.7501024" lon="14.8228745"><ele>542.0</ele><time>2026-04-12T07:56:09.027Z</time></trkpt><trkpt lat="40.7501591" lon="14.8228374"><ele>542.0</ele><time>2026-04-12T07:56:11.966Z</time></trkpt><trkpt lat="40.7502246" lon="14.8227523"><ele>542.0</ele><time>2026-04-12T07:56:14.949Z</time></trkpt><trkpt lat="40.7502862" lon="14.8226313"><ele>542.0</ele><time>2026-04-12T07:56:16.955Z</time></trkpt><trkpt lat="40.7503593" lon="14.8225034"><ele>538.2</ele><time>2026-04-12T07:56:19.064Z</time></trkpt><trkpt lat="40.7504226" lon="14.822365"><ele>534.4000000000001</ele><time>2026-04-12T07:56:20.962Z</time></trkpt><trkpt lat="40.7504597" lon="14.8222865"><ele>530.5999999999999</ele><time>2026-04-12T07:56:21.968Z</time></trkpt><trkpt lat="40.7505003" lon="14.8222223"><ele>526.8</ele><time>2026-04-12T07:56:22.956Z</time></trkpt><trkpt lat="40.7505388" lon="14.8221007"><ele>523.0</ele><time>2026-04-12T07:56:24.96Z</time></trkpt><trkpt lat="40.7505913" lon="14.8219806"><ele>523.0</ele><time>2026-04-12T07:56:26.967Z</time></trkpt><trkpt lat="40.7506934" lon="14.8219169"><ele>523.0</ele><time>2026-04-12T07:56:28.96Z</time></trkpt><trkpt lat="40.7508038" lon="14.8218913"><ele>523.0</ele><time>2026-04-12T07:56:30.965Z</time></trkpt><trkpt lat="40.7508914" lon="14.821921"><ele>523.0</ele><time>2026-04-12T07:56:32.967Z</time></trkpt><trkpt lat="40.7509809" lon="14.8218799"><ele>523.0</ele><time>2026-04-12T07:56:34.971Z</time></trkpt><trkpt lat="40.7510551" lon="14.8217698"><ele>520.0</ele><time>2026-04-12T07:56:36.966Z</time></trkpt><trkpt lat="40.7510885" lon="14.8216972"><ele>517.0</ele><time>2026-04-12T07:56:37.946Z</time></trkpt><trkpt lat="40.7511294" lon="14.8216273"><ele>514.0</ele><time>2026-04-12T07:56:39.05Z</time></trkpt><trkpt lat="40.7511883" lon="14.8215253"><ele>511.0</ele><time>2026-04-12T07:56:40.963Z</time></trkpt><trkpt lat="40.7512544" lon="14.8214414"><ele>508.00000000000006</ele><time>2026-04-12T07:56:42.967Z</time></trkpt><trkpt lat="40.7513154" lon="14.8213988"><ele>505.0</ele><time>2026-04-12T07:57:33.957Z</time></trkpt><trkpt lat="40.7513735" lon="14.821362"><ele>505.0</ele><time>2026-04-12T07:57:36.967Z</time></trkpt><trkpt lat="40.7514444" lon="14.8213315"><ele>505.0</ele><time>2026-04-12T07:57:38.954Z</time></trkpt><trkpt lat="40.7515623" lon="14.8212899"><ele>505.0</ele><time>2026-04-12T07:57:40.964Z</time></trkpt><trkpt lat="40.7516581" lon="14.8212481"><ele>505.0</ele><time>2026-04-12T07:57:41.96Z</time></trkpt><trkpt lat="40.7517354" lon="14.8211991"><ele>505.0</ele><time>2026-04-12T07:57:42.955Z</time></trkpt><trkpt lat="40.751811" lon="14.8211424"><ele>505.0</ele><time>2026-04-12T07:57:43.951Z</time></trkpt><trkpt lat="40.7518731" lon="14.8210782"><ele>504.99999999999994</ele><time>2026-04-12T07:57:45.039Z</time></trkpt><trkpt lat="40.7519381" lon="14.8210254"><ele>505.0</ele><time>2026-04-12T07:57:45.959Z</time></trkpt><trkpt lat="40.7519932" lon="14.820983"><ele>505.0</ele><time>2026-04-12T07:57:46.957Z</time></trkpt><trkpt lat="40.7520474" lon="14.820921"><ele>504.99999999999994</ele><time>2026-04-12T07:57:47.962Z</time></trkpt><trkpt lat="40.7520933" lon="14.8208612"><ele>505.0</ele><time>2026-04-12T07:57:48.958Z</time></trkpt><trkpt lat="40.7521441" lon="14.8207943"><ele>505.0</ele><time>2026-04-12T07:57:49.961Z</time></trkpt><trkpt lat="40.7521865" lon="14.8207305"><ele>500.6</ele><time>2026-04-12T07:57:50.943Z</time></trkpt><trkpt lat="40.7522332" lon="14.820614"><ele>496.2</ele><time>2026-04-12T07:57:52.962Z</time></trkpt><trkpt lat="40.7522526" lon="14.820487"><ele>491.79999999999995</ele><time>2026-04-12T07:57:55.051Z</time></trkpt><trkpt lat="40.7522522" lon="14.8203246"><ele>487.4</ele><time>2026-04-12T07:57:56.971Z</time></trkpt><trkpt lat="40.7522576" lon="14.8202398"><ele>483.0</ele><time>2026-04-12T07:57:57.966Z</time></trkpt><trkpt lat="40.7522798" lon="14.8201411"><ele>481.0</ele><time>2026-04-12T07:57:58.97Z</time></trkpt><trkpt lat="40.7523047" lon="14.8200529"><ele>479.0</ele><time>2026-04-12T07:57:59.966Z</time></trkpt><trkpt lat="40.7523386" lon="14.8199743"><ele>477.0</ele><time>2026-04-12T07:58:00.963Z</time></trkpt><trkpt lat="40.7523862" lon="14.8199008"><ele>475.0</ele><time>2026-04-12T07:58:01.947Z</time></trkpt><trkpt lat="40.7524341" lon="14.8198186"><ele>473.0</ele><time>2026-04-12T07:58:03.013Z</time></trkpt><trkpt lat="40.7524736" lon="14.8197387"><ele>471.0</ele><time>2026-04-12T07:58:03.97Z</time></trkpt><trkpt lat="40.7525454" lon="14.8195995"><ele>471.0</ele><time>2026-04-12T07:58:05.951Z</time></trkpt><trkpt lat="40.752604" lon="14.8195258"><ele>471.0</ele><time>2026-04-12T07:58:06.965Z</time></trkpt><trkpt lat="40.7526647" lon="14.8194409"><ele>471.0</ele><time>2026-04-12T07:58:07.965Z</time></trkpt><trkpt lat="40.7527209" lon="14.8193455"><ele>471.0</ele><time>2026-04-12T07:58:08.96Z</time></trkpt><trkpt lat="40.7527791" lon="14.8192551"><ele>471.0</ele><time>2026-04-12T07:58:10.026Z</time></trkpt><trkpt lat="40.7528325" lon="14.8191631"><ele>471.0</ele><time>2026-04-12T07:58:10.962Z</time></trkpt><trkpt lat="40.7528833" lon="14.8190836"><ele>468.6</ele><time>2026-04-12T07:58:11.953Z</time></trkpt><trkpt lat="40.7529433" lon="14.8189865"><ele>466.20000000000005</ele><time>2026-04-12T07:58:12.95Z</time></trkpt><trkpt lat="40.7530034" lon="14.8188909"><ele>463.79999999999995</ele><time>2026-04-12T07:58:13.957Z</time></trkpt><trkpt lat="40.7530699" lon="14.818796"><ele>461.4</ele><time>2026-04-12T07:58:14.963Z</time></trkpt><trkpt lat="40.753128" lon="14.8187109"><ele>459.0</ele><time>2026-04-12T07:58:15.963Z</time></trkpt><trkpt lat="40.7531923" lon="14.8186362"><ele>459.0</ele><time>2026-04-12T07:58:16.968Z</time></trkpt><trkpt lat="40.7532567" lon="14.8185705"><ele>459.0</ele><time>2026-04-12T07:58:17.98Z</time></trkpt><trkpt lat="40.7533473" lon="14.8185375"><ele>459.0</ele><time>2026-04-12T07:58:19.96Z</time></trkpt><trkpt lat="40.7534544" lon="14.8186151"><ele>459.0</ele><time>2026-04-12T07:58:21.965Z</time></trkpt><trkpt lat="40.7535007" lon="14.8186935"><ele>459.0</ele><time>2026-04-12T07:58:22.965Z</time></trkpt><trkpt lat="40.7535501" lon="14.8187662"><ele>459.0</ele><time>2026-04-12T07:58:23.956Z</time></trkpt><trkpt lat="40.7536011" lon="14.8188377"><ele>457.8333333333333</ele><time>2026-04-12T07:58:24.963Z</time></trkpt><trkpt lat="40.7536514" lon="14.8189144"><ele>456.66666666666663</ele><time>2026-04-12T07:58:25.962Z</time></trkpt><trkpt lat="40.7536942" lon="14.8190042"><ele>455.5</ele><time>2026-04-12T07:58:26.967Z</time></trkpt><trkpt lat="40.7537292" lon="14.8191005"><ele>454.3333333333333</ele><time>2026-04-12T07:58:27.958Z</time></trkpt><trkpt lat="40.7537627" lon="14.819196"><ele>453.16666666666663</ele><time>2026-04-12T07:58:28.983Z</time></trkpt><trkpt lat="40.7537871" lon="14.8192843"><ele>452.0</ele><time>2026-04-12T07:58:29.954Z</time></trkpt><trkpt lat="40.7537981" lon="14.8193835"><ele>451.99999999999994</ele><time>2026-04-12T07:58:30.941Z</time></trkpt><trkpt lat="40.753798" lon="14.8194843"><ele>452.0</ele><time>2026-04-12T07:58:31.958Z</time></trkpt><trkpt lat="40.7538043" lon="14.819589"><ele>452.0</ele><time>2026-04-12T07:58:32.957Z</time></trkpt><trkpt lat="40.7538101" lon="14.8197047"><ele>452.0</ele><time>2026-04-12T07:58:33.967Z</time></trkpt><trkpt lat="40.7538263" lon="14.8198153"><ele>451.99999999999994</ele><time>2026-04-12T07:58:34.965Z</time></trkpt><trkpt lat="40.753855" lon="14.8199218"><ele>452.0</ele><time>2026-04-12T07:58:35.959Z</time></trkpt><trkpt lat="40.7538795" lon="14.8200167"><ele>452.0</ele><time>2026-04-12T07:58:36.971Z</time></trkpt><trkpt lat="40.7539568" lon="14.8201121"><ele>452.00000000000006</ele><time>2026-04-12T07:58:38.966Z</time></trkpt><trkpt lat="40.7540185" lon="14.8201593"><ele>452.00000000000006</ele><time>2026-04-12T07:58:39.966Z</time></trkpt><trkpt lat="40.7540967" lon="14.8202054"><ele>452.0</ele><time>2026-04-12T07:58:40.971Z</time></trkpt><trkpt lat="40.7542085" lon="14.8202438"><ele>452.0</ele><time>2026-04-12T07:58:41.965Z</time></trkpt><trkpt lat="40.7543156" lon="14.8203074"><ele>452.75</ele><time>2026-04-12T07:58:42.972Z</time></trkpt><trkpt lat="40.7544143" lon="14.8204067"><ele>453.5</ele><time>2026-04-12T07:58:43.963Z</time></trkpt><trkpt lat="40.7545003" lon="14.8205019"><ele>454.25</ele><time>2026-04-12T07:58:44.957Z</time></trkpt><trkpt lat="40.7545803" lon="14.8206047"><ele>455.0</ele><time>2026-04-12T07:58:45.965Z</time></trkpt><trkpt lat="40.7546598" lon="14.8207005"><ele>455.0</ele><time>2026-04-12T07:58:46.956Z</time></trkpt><trkpt lat="40.7547351" lon="14.8207788"><ele>455.0</ele><time>2026-04-12T07:58:47.963Z</time></trkpt><trkpt lat="40.7548031" lon="14.8208648"><ele>455.0</ele><time>2026-04-12T07:58:48.969Z</time></trkpt><trkpt lat="40.7548698" lon="14.8209651"><ele>455.0</ele><time>2026-04-12T07:58:49.966Z</time></trkpt><trkpt lat="40.7549226" lon="14.8210889"><ele>455.0</ele><time>2026-04-12T07:58:50.96Z</time></trkpt><trkpt lat="40.7549667" lon="14.8212114"><ele>454.3333333333333</ele><time>2026-04-12T07:58:51.962Z</time></trkpt><trkpt lat="40.755001" lon="14.8213436"><ele>453.66666666666663</ele><time>2026-04-12T07:58:52.964Z</time></trkpt><trkpt lat="40.7550351" lon="14.8214671"><ele>453.0</ele><time>2026-04-12T07:58:53.96Z</time></trkpt><trkpt lat="40.7550708" lon="14.8215729"><ele>452.33333333333337</ele><time>2026-04-12T07:58:54.962Z</time></trkpt><trkpt lat="40.7551178" lon="14.8216397"><ele>451.6666666666667</ele><time>2026-04-12T07:58:55.974Z</time></trkpt><trkpt lat="40.7551714" lon="14.8217077"><ele>451.0</ele><time>2026-04-12T07:58:57.966Z</time></trkpt><trkpt lat="40.7552601" lon="14.8217065"><ele>451.0</ele><time>2026-04-12T07:58:59.973Z</time></trkpt><trkpt lat="40.7553147" lon="14.8216556"><ele>451.0</ele><time>2026-04-12T07:59:00.956Z</time></trkpt><trkpt lat="40.7554205" lon="14.8215476"><ele>451.0</ele><time>2026-04-12T07:59:02.961Z</time></trkpt><trkpt lat="40.7554918" lon="14.8214735"><ele>451.0</ele><time>2026-04-12T07:59:04.967Z</time></trkpt><trkpt lat="40.755441" lon="14.821562"><ele>451.0</ele><time>2026-04-12T07:59:11.958Z</time></trkpt><trkpt lat="40.7554251" lon="14.821678"><ele>451.0</ele><time>2026-04-12T07:59:12.969Z</time></trkpt><trkpt lat="40.7554113" lon="14.8218147"><ele>451.0</ele><time>2026-04-12T07:59:13.963Z</time></trkpt><trkpt lat="40.7554173" lon="14.8219738"><ele>451.0</ele><time>2026-04-12T07:59:14.969Z</time></trkpt><trkpt lat="40.7554422" lon="14.8221396"><ele>451.0</ele><time>2026-04-12T07:59:15.967Z</time></trkpt><trkpt lat="40.7554792" lon="14.8223045"><ele>453.0</ele><time>2026-04-12T07:59:16.965Z</time></trkpt><trkpt lat="40.7555169" lon="14.8224597"><ele>455.0</ele><time>2026-04-12T07:59:17.961Z</time></trkpt><trkpt lat="40.7555444" lon="14.8226144"><ele>457.0</ele><time>2026-04-12T07:59:18.96Z</time></trkpt><trkpt lat="40.7555689" lon="14.8227479"><ele>459.0</ele><time>2026-04-12T07:59:19.953Z</time></trkpt><trkpt lat="40.7555727" lon="14.8228707"><ele>461.0</ele><time>2026-04-12T07:59:20.963Z</time></trkpt><trkpt lat="40.7555417" lon="14.8230034"><ele>462.4</ele><time>2026-04-12T07:59:21.959Z</time></trkpt><trkpt lat="40.7554986" lon="14.8231181"><ele>463.8</ele><time>2026-04-12T07:59:22.962Z</time></trkpt><trkpt lat="40.7554756" lon="14.8232123"><ele>465.19999999999993</ele><time>2026-04-12T07:59:23.969Z</time></trkpt><trkpt lat="40.7554388" lon="14.8233586"><ele>466.59999999999997</ele><time>2026-04-12T07:59:25.963Z</time></trkpt><trkpt lat="40.7554584" lon="14.8234635"><ele>468.0</ele><time>2026-04-12T07:59:26.965Z</time></trkpt><trkpt lat="40.7555098" lon="14.823569"><ele>469.79999999999995</ele><time>2026-04-12T07:59:27.963Z</time></trkpt><trkpt lat="40.7555636" lon="14.823667"><ele>471.59999999999997</ele><time>2026-04-12T07:59:28.96Z</time></trkpt><trkpt lat="40.755626" lon="14.8237626"><ele>473.40000000000003</ele><time>2026-04-12T07:59:29.958Z</time></trkpt><trkpt lat="40.7556844" lon="14.8238633"><ele>475.20000000000005</ele><time>2026-04-12T07:59:30.964Z</time></trkpt><trkpt lat="40.7557541" lon="14.8239627"><ele>477.0</ele><time>2026-04-12T07:59:31.956Z</time></trkpt><trkpt lat="40.7558335" lon="14.824063"><ele>477.0</ele><time>2026-04-12T07:59:32.957Z</time></trkpt><trkpt lat="40.7559052" lon="14.8241573"><ele>477.00000000000006</ele><time>2026-04-12T07:59:33.963Z</time></trkpt><trkpt lat="40.7559687" lon="14.8242505"><ele>477.00000000000006</ele><time>2026-04-12T07:59:34.963Z</time></trkpt><trkpt lat="40.7560434" lon="14.8243676"><ele>477.0</ele><time>2026-04-12T07:59:35.965Z</time></trkpt><trkpt lat="40.7561136" lon="14.824476"><ele>477.0</ele><time>2026-04-12T07:59:36.96Z</time></trkpt><trkpt lat="40.7561851" lon="14.8245985"><ele>480.0</ele><time>2026-04-12T07:59:37.965Z</time></trkpt><trkpt lat="40.7562757" lon="14.8247056"><ele>483.0</ele><time>2026-04-12T07:59:38.965Z</time></trkpt><trkpt lat="40.7563866" lon="14.8248111"><ele>486.0</ele><time>2026-04-12T07:59:39.962Z</time></trkpt><trkpt lat="40.7565174" lon="14.8248898"><ele>489.0</ele><time>2026-04-12T07:59:40.967Z</time></trkpt><trkpt lat="40.7566377" lon="14.8249857"><ele>489.0</ele><time>2026-04-12T07:59:41.96Z</time></trkpt><trkpt lat="40.7567345" lon="14.8250878"><ele>489.0</ele><time>2026-04-12T07:59:42.955Z</time></trkpt><trkpt lat="40.7568228" lon="14.8252176"><ele>489.0</ele><time>2026-04-12T07:59:43.969Z</time></trkpt><trkpt lat="40.7569025" lon="14.8253376"><ele>489.0</ele><time>2026-04-12T07:59:44.962Z</time></trkpt><trkpt lat="40.7569704" lon="14.8254658"><ele>491.0</ele><time>2026-04-12T07:59:45.951Z</time></trkpt><trkpt lat="40.7570311" lon="14.8256127"><ele>493.0</ele><time>2026-04-12T07:59:46.961Z</time></trkpt><trkpt lat="40.7570733" lon="14.825758"><ele>495.0</ele><time>2026-04-12T07:59:47.964Z</time></trkpt><trkpt lat="40.7571008" lon="14.8259061"><ele>497.0</ele><time>2026-04-12T07:59:48.967Z</time></trkpt><trkpt lat="40.7571022" lon="14.8260536"><ele>499.40000000000003</ele><time>2026-04-12T07:59:49.965Z</time></trkpt><trkpt lat="40.757104" lon="14.8261934"><ele>501.80000000000007</ele><time>2026-04-12T07:59:50.969Z</time></trkpt><trkpt lat="40.7571117" lon="14.8263461"><ele>504.2</ele><time>2026-04-12T07:59:51.962Z</time></trkpt><trkpt lat="40.7571149" lon="14.8264866"><ele>506.6</ele><time>2026-04-12T07:59:52.963Z</time></trkpt><trkpt lat="40.7571218" lon="14.8265919"><ele>509.0</ele><time>2026-04-12T07:59:53.965Z</time></trkpt><trkpt lat="40.7571623" lon="14.8267236"><ele>509.0</ele><time>2026-04-12T07:59:55.966Z</time></trkpt><trkpt lat="40.757324" lon="14.8267699"><ele>509.0</ele><time>2026-04-12T07:59:57.969Z</time></trkpt><trkpt lat="40.7574412" lon="14.8267922"><ele>509.0</ele><time>2026-04-12T07:59:58.963Z</time></trkpt><trkpt lat="40.757552" lon="14.8267992"><ele>509.0</ele><time>2026-04-12T07:59:59.967Z</time></trkpt><trkpt lat="40.7576582" lon="14.8267552"><ele>509.2</ele><time>2026-04-12T08:00:00.967Z</time></trkpt><trkpt lat="40.7577453" lon="14.8266765"><ele>509.4</ele><time>2026-04-12T08:00:01.965Z</time></trkpt><trkpt lat="40.7577915" lon="14.8266171"><ele>509.6</ele><time>2026-04-12T08:00:02.961Z</time></trkpt><trkpt lat="40.7578782" lon="14.8266484"><ele>509.8</ele><time>2026-04-12T08:00:04.954Z</time></trkpt><trkpt lat="40.75793" lon="14.8267521"><ele>510.0</ele><time>2026-04-12T08:00:06.963Z</time></trkpt><trkpt lat="40.7579456" lon="14.8269047"><ele>511.5</ele><time>2026-04-12T08:00:08.962Z</time></trkpt><trkpt lat="40.7579515" lon="14.8270471"><ele>513.0</ele><time>2026-04-12T08:00:10.97Z</time></trkpt><trkpt lat="40.7579512" lon="14.827145"><ele>514.5</ele><time>2026-04-12T08:00:12.971Z</time></trkpt><trkpt lat="40.7579548" lon="14.8272299"><ele>516.0</ele><time>2026-04-12T08:00:17.954Z</time></trkpt><trkpt lat="40.75793" lon="14.8273109"><ele>517.5</ele><time>2026-04-12T08:00:22.963Z</time></trkpt><trkpt lat="40.7578917" lon="14.8274225"><ele>519.0</ele><time>2026-04-12T08:00:25.975Z</time></trkpt><trkpt lat="40.757855" lon="14.827549"><ele>519.0</ele><time>2026-04-12T08:00:27.964Z</time></trkpt><trkpt lat="40.757824" lon="14.8276414"><ele>519.0</ele><time>2026-04-12T08:00:28.961Z</time></trkpt><trkpt lat="40.757805" lon="14.8277481"><ele>519.0</ele><time>2026-04-12T08:00:29.955Z</time></trkpt><trkpt lat="40.7577691" lon="14.8278605"><ele>519.0</ele><time>2026-04-12T08:00:31.967Z</time></trkpt><trkpt lat="40.7577222" lon="14.8279388"><ele>519.0</ele><time>2026-04-12T08:00:34.959Z</time></trkpt><trkpt lat="40.7576669" lon="14.8279939"><ele>519.0</ele><time>2026-04-12T08:00:41.951Z</time></trkpt><trkpt lat="40.7576242" lon="14.8280637"><ele>521.8</ele><time>2026-04-12T08:00:44.977Z</time></trkpt><trkpt lat="40.7575926" lon="14.8281396"><ele>524.5999999999999</ele><time>2026-04-12T08:00:46.951Z</time></trkpt><trkpt lat="40.7575672" lon="14.828225"><ele>527.4</ele><time>2026-04-12T08:00:48.95Z</time></trkpt><trkpt lat="40.7575225" lon="14.8283226"><ele>530.1999999999999</ele><time>2026-04-12T08:00:50.96Z</time></trkpt><trkpt lat="40.7574561" lon="14.8284112"><ele>533.0</ele><time>2026-04-12T08:00:52.968Z</time></trkpt><trkpt lat="40.7574169" lon="14.8285812"><ele>536.75</ele><time>2026-04-12T08:00:54.968Z</time></trkpt><trkpt lat="40.7573823" lon="14.8287516"><ele>540.5</ele><time>2026-04-12T08:00:55.96Z</time></trkpt><trkpt lat="40.7573679" lon="14.8289129"><ele>544.25</ele><time>2026-04-12T08:00:56.961Z</time></trkpt><trkpt lat="40.7573622" lon="14.8290551"><ele>548.0</ele><time>2026-04-12T08:00:57.962Z</time></trkpt><trkpt lat="40.7573455" lon="14.8291814"><ele>551.1999999999999</ele><time>2026-04-12T08:00:58.96Z</time></trkpt><trkpt lat="40.7573379" lon="14.8293173"><ele>554.4</ele><time>2026-04-12T08:00:59.956Z</time></trkpt><trkpt lat="40.757343" lon="14.8294405"><ele>557.5999999999999</ele><time>2026-04-12T08:01:00.957Z</time></trkpt><trkpt lat="40.7573508" lon="14.8295648"><ele>560.8</ele><time>2026-04-12T08:01:01.965Z</time></trkpt><trkpt lat="40.7573641" lon="14.8296824"><ele>564.0</ele><time>2026-04-12T08:01:02.952Z</time></trkpt><trkpt lat="40.757377" lon="14.8297917"><ele>564.0</ele><time>2026-04-12T08:01:03.961Z</time></trkpt><trkpt lat="40.7573929" lon="14.8299104"><ele>564.0</ele><time>2026-04-12T08:01:04.952Z</time></trkpt><trkpt lat="40.75742" lon="14.8300719"><ele>564.0</ele><time>2026-04-12T08:01:06.965Z</time></trkpt><trkpt lat="40.7574485" lon="14.8302009"><ele>564.0</ele><time>2026-04-12T08:01:08.969Z</time></trkpt><trkpt lat="40.7574386" lon="14.8302889"><ele>564.0</ele><time>2026-04-12T08:01:11.966Z</time></trkpt><trkpt lat="40.7574402" lon="14.8304169"><ele>568.0</ele><time>2026-04-12T08:01:15.95Z</time></trkpt><trkpt lat="40.7574785" lon="14.8305594"><ele>572.0</ele><time>2026-04-12T08:01:17.965Z</time></trkpt><trkpt lat="40.7575254" lon="14.8307117"><ele>576.0</ele><time>2026-04-12T08:01:19.952Z</time></trkpt><trkpt lat="40.7575321" lon="14.8308194"><ele>580.0</ele><time>2026-04-12T08:01:22.964Z</time></trkpt><trkpt lat="40.7575617" lon="14.8308976"><ele>584.0</ele><time>2026-04-12T08:01:24.953Z</time></trkpt><trkpt lat="40.7575778" lon="14.8309784"><ele>587.1428571428571</ele><time>2026-04-12T08:01:26.965Z</time></trkpt><trkpt lat="40.75756" lon="14.8310628"><ele>590.2857142857143</ele><time>2026-04-12T08:01:29.041Z</time></trkpt><trkpt lat="40.7575446" lon="14.8311782"><ele>593.4285714285714</ele><time>2026-04-12T08:01:31.967Z</time></trkpt><trkpt lat="40.7575398" lon="14.8312715"><ele>596.5714285714286</ele><time>2026-04-12T08:01:33.97Z</time></trkpt><trkpt lat="40.7575424" lon="14.8313706"><ele>599.7142857142857</ele><time>2026-04-12T08:01:35.96Z</time></trkpt><trkpt lat="40.7575232" lon="14.8314561"><ele>602.8571428571429</ele><time>2026-04-12T08:01:38.061Z</time></trkpt><trkpt lat="40.7575096" lon="14.8315381"><ele>606.0</ele><time>2026-04-12T08:01:39.961Z</time></trkpt><trkpt lat="40.7574769" lon="14.8316662"><ele>606.0</ele><time>2026-04-12T08:01:42.961Z</time></trkpt><trkpt lat="40.7574594" lon="14.8317563"><ele>606.0</ele><time>2026-04-12T08:01:44.971Z</time></trkpt><trkpt lat="40.75741" lon="14.8318606"><ele>606.0</ele><time>2026-04-12T08:01:46.961Z</time></trkpt><trkpt lat="40.7573749" lon="14.831981"><ele>606.0</ele><time>2026-04-12T08:01:48.972Z</time></trkpt><trkpt lat="40.7573238" lon="14.8320407"><ele>606.0</ele><time>2026-04-12T08:01:51.969Z</time></trkpt><trkpt lat="40.7572892" lon="14.8321373"><ele>606.0</ele><time>2026-04-12T08:01:55.94Z</time></trkpt><trkpt lat="40.7572491" lon="14.8322467"><ele>609.1428571428571</ele><time>2026-04-12T08:01:58.962Z</time></trkpt><trkpt lat="40.7572158" lon="14.8323284"><ele>612.2857142857142</ele><time>2026-04-12T08:02:00.964Z</time></trkpt><trkpt lat="40.757218" lon="14.8324185"><ele>615.4285714285713</ele><time>2026-04-12T08:02:02.96Z</time></trkpt><trkpt lat="40.7572193" lon="14.8325248"><ele>618.5714285714286</ele><time>2026-04-12T08:02:04.961Z</time></trkpt><trkpt lat="40.7572058" lon="14.8326086"><ele>621.7142857142857</ele><time>2026-04-12T08:02:06.966Z</time></trkpt><trkpt lat="40.7571981" lon="14.8327117"><ele>624.8571428571428</ele><time>2026-04-12T08:02:08.978Z</time></trkpt><trkpt lat="40.7571602" lon="14.8328091"><ele>628.0</ele><time>2026-04-12T08:02:10.941Z</time></trkpt><trkpt lat="40.7571295" lon="14.8329132"><ele>632.6666666666667</ele><time>2026-04-12T08:02:13.963Z</time></trkpt><trkpt lat="40.757128" lon="14.8330168"><ele>637.3333333333334</ele><time>2026-04-12T08:02:18.056Z</time></trkpt><trkpt lat="40.7571894" lon="14.8330419"><ele>642.0</ele><time>2026-04-12T08:02:21.965Z</time></trkpt><trkpt lat="40.757279" lon="14.8330251"><ele>646.6666666666666</ele><time>2026-04-12T08:02:25.958Z</time></trkpt><trkpt lat="40.7573462" lon="14.8330234"><ele>651.3333333333333</ele><time>2026-04-12T08:02:27.975Z</time></trkpt><trkpt lat="40.75743" lon="14.8330146"><ele>656.0</ele><time>2026-04-12T08:02:29.966Z</time></trkpt><trkpt lat="40.7575031" lon="14.8330128"><ele>656.0</ele><time>2026-04-12T08:02:32.97Z</time></trkpt><trkpt lat="40.757566" lon="14.8330342"><ele>656.0</ele><time>2026-04-12T08:02:35.034Z</time></trkpt><trkpt lat="40.7576546" lon="14.83304"><ele>656.0</ele><time>2026-04-12T08:02:36.961Z</time></trkpt><trkpt lat="40.7577535" lon="14.8329956"><ele>656.0</ele><time>2026-04-12T08:02:38.96Z</time></trkpt><trkpt lat="40.7578769" lon="14.8329705"><ele>656.0</ele><time>2026-04-12T08:02:40.963Z</time></trkpt><trkpt lat="40.7579786" lon="14.8329453"><ele>660.1999999999999</ele><time>2026-04-12T08:02:43.061Z</time></trkpt><trkpt lat="40.7580844" lon="14.8329774"><ele>664.4</ele><time>2026-04-12T08:02:44.951Z</time></trkpt><trkpt lat="40.7581599" lon="14.8330058"><ele>668.6</ele><time>2026-04-12T08:02:45.954Z</time></trkpt><trkpt lat="40.7582391" lon="14.833034"><ele>672.8</ele><time>2026-04-12T08:02:46.953Z</time></trkpt><trkpt lat="40.7583238" lon="14.8330724"><ele>677.0</ele><time>2026-04-12T08:02:47.957Z</time></trkpt><trkpt lat="40.7584128" lon="14.8331229"><ele>677.0</ele><time>2026-04-12T08:02:48.964Z</time></trkpt><trkpt lat="40.7584723" lon="14.8331523"><ele>677.0</ele><time>2026-04-12T08:02:49.959Z</time></trkpt><trkpt lat="40.7585524" lon="14.833174"><ele>677.0</ele><time>2026-04-12T08:02:54.984Z</time></trkpt><trkpt lat="40.758578" lon="14.8332693"><ele>677.0</ele><time>2026-04-12T08:02:57.962Z</time></trkpt><trkpt lat="40.7586064" lon="14.8333786"><ele>677.0</ele><time>2026-04-12T08:03:01.967Z</time></trkpt><trkpt lat="40.7586436" lon="14.8334493"><ele>677.0</ele><time>2026-04-12T08:03:03.96Z</time></trkpt><trkpt lat="40.7587673" lon="14.8334404"><ele>679.8</ele><time>2026-04-12T08:03:05.974Z</time></trkpt><trkpt lat="40.7588457" lon="14.8334401"><ele>682.6</ele><time>2026-04-12T08:03:06.964Z</time></trkpt><trkpt lat="40.7589194" lon="14.8334275"><ele>685.4</ele><time>2026-04-12T08:03:07.963Z</time></trkpt><trkpt lat="40.7589928" lon="14.8334017"><ele>688.1999999999999</ele><time>2026-04-12T08:03:08.972Z</time></trkpt><trkpt lat="40.7590838" lon="14.833316"><ele>691.0</ele><time>2026-04-12T08:03:10.962Z</time></trkpt><trkpt lat="40.7591595" lon="14.8331965"><ele>691.0</ele><time>2026-04-12T08:03:11.963Z</time></trkpt><trkpt lat="40.7592704" lon="14.8330395"><ele>691.0</ele><time>2026-04-12T08:03:13.037Z</time></trkpt><trkpt lat="40.759362" lon="14.8329179"><ele>691.0</ele><time>2026-04-12T08:03:13.967Z</time></trkpt><trkpt lat="40.7594312" lon="14.8328172"><ele>691.0</ele><time>2026-04-12T08:03:14.965Z</time></trkpt><trkpt lat="40.7595054" lon="14.8327275"><ele>693.0</ele><time>2026-04-12T08:03:15.962Z</time></trkpt><trkpt lat="40.7595765" lon="14.8326444"><ele>695.0</ele><time>2026-04-12T08:03:16.976Z</time></trkpt><trkpt lat="40.7596368" lon="14.8326055"><ele>697.0</ele><time>2026-04-12T08:03:17.966Z</time></trkpt><trkpt lat="40.7597" lon="14.832567"><ele>699.0</ele><time>2026-04-12T08:03:18.961Z</time></trkpt><trkpt lat="40.7597782" lon="14.8325371"><ele>701.0</ele><time>2026-04-12T08:03:20.956Z</time></trkpt><trkpt lat="40.7598479" lon="14.8325661"><ele>703.0</ele><time>2026-04-12T08:03:26.975Z</time></trkpt><trkpt lat="40.7599351" lon="14.8325522"><ele>696.8</ele><time>2026-04-12T08:03:30.051Z</time></trkpt><trkpt lat="40.7600331" lon="14.8325591"><ele>690.5999999999999</ele><time>2026-04-12T08:03:31.979Z</time></trkpt><trkpt lat="40.7600991" lon="14.8325401"><ele>684.4000000000001</ele><time>2026-04-12T08:03:32.966Z</time></trkpt><trkpt lat="40.7602074" lon="14.8325319"><ele>678.2</ele><time>2026-04-12T08:03:33.973Z</time></trkpt><trkpt lat="40.7603268" lon="14.8325091"><ele>672.0</ele><time>2026-04-12T08:03:34.968Z</time></trkpt><trkpt lat="40.7604584" lon="14.8324747"><ele>669.25</ele><time>2026-04-12T08:03:35.973Z</time></trkpt><trkpt lat="40.7605972" lon="14.8324424"><ele>666.5</ele><time>2026-04-12T08:03:37.034Z</time></trkpt><trkpt lat="40.7607251" lon="14.8324124"><ele>663.75</ele><time>2026-04-12T08:03:38.05Z</time></trkpt><trkpt lat="40.7608466" lon="14.8323808"><ele>661.0</ele><time>2026-04-12T08:03:39.035Z</time></trkpt><trkpt lat="40.7609538" lon="14.8323723"><ele>654.25</ele><time>2026-04-12T08:03:39.97Z</time></trkpt><trkpt lat="40.7610709" lon="14.8323491"><ele>647.5</ele><time>2026-04-12T08:03:40.965Z</time></trkpt><trkpt lat="40.7611901" lon="14.8323315"><ele>640.75</ele><time>2026-04-12T08:03:41.962Z</time></trkpt><trkpt lat="40.7613074" lon="14.8322963"><ele>634.0</ele><time>2026-04-12T08:03:42.967Z</time></trkpt><trkpt lat="40.7614093" lon="14.8322507"><ele>634.0</ele><time>2026-04-12T08:03:43.972Z</time></trkpt><trkpt lat="40.7614966" lon="14.8321656"><ele>634.0</ele><time>2026-04-12T08:03:45.035Z</time></trkpt><trkpt lat="40.761571" lon="14.8320648"><ele>634.0</ele><time>2026-04-12T08:03:45.959Z</time></trkpt><trkpt lat="40.7616346" lon="14.8319351"><ele>634.0</ele><time>2026-04-12T08:03:46.971Z</time></trkpt><trkpt lat="40.7616826" lon="14.8318061"><ele>634.0</ele><time>2026-04-12T08:03:47.998Z</time></trkpt><trkpt lat="40.7617289" lon="14.8316687"><ele>632.5</ele><time>2026-04-12T08:03:49.047Z</time></trkpt><trkpt lat="40.7617753" lon="14.8315263"><ele>631.0</ele><time>2026-04-12T08:03:50.035Z</time></trkpt><trkpt lat="40.7618137" lon="14.8313834"><ele>629.5</ele><time>2026-04-12T08:03:50.959Z</time></trkpt><trkpt lat="40.7618488" lon="14.8312439"><ele>628.0</ele><time>2026-04-12T08:03:51.964Z</time></trkpt><trkpt lat="40.7618847" lon="14.8311071"><ele>625.5</ele><time>2026-04-12T08:03:52.941Z</time></trkpt><trkpt lat="40.7619319" lon="14.8309934"><ele>623.0</ele><time>2026-04-12T08:03:54.026Z</time></trkpt><trkpt lat="40.7619846" lon="14.830908"><ele>620.5</ele><time>2026-04-12T08:03:54.943Z</time></trkpt><trkpt lat="40.7620416" lon="14.8308303"><ele>618.0</ele><time>2026-04-12T08:03:55.954Z</time></trkpt><trkpt lat="40.7620979" lon="14.8307524"><ele>615.5</ele><time>2026-04-12T08:03:56.964Z</time></trkpt><trkpt lat="40.7621502" lon="14.8306938"><ele>613.0</ele><time>2026-04-12T08:03:57.982Z</time></trkpt><trkpt lat="40.7622058" lon="14.8306253"><ele>613.0</ele><time>2026-04-12T08:03:58.946Z</time></trkpt><trkpt lat="40.7622643" lon="14.8305469"><ele>613.0</ele><time>2026-04-12T08:03:59.961Z</time></trkpt><trkpt lat="40.7623163" lon="14.8304998"><ele>613.0</ele><time>2026-04-12T08:04:00.938Z</time></trkpt><trkpt lat="40.7623899" lon="14.830501"><ele>613.0</ele><time>2026-04-12T08:04:02.951Z</time></trkpt><trkpt lat="40.7624639" lon="14.8305127"><ele>613.0</ele><time>2026-04-12T08:04:04.957Z</time></trkpt><trkpt lat="40.7625281" lon="14.830556"><ele>613.0</ele><time>2026-04-12T08:04:07.943Z</time></trkpt><trkpt lat="40.7625849" lon="14.8305993"><ele>613.0</ele><time>2026-04-12T08:04:13.016Z</time></trkpt><trkpt lat="40.7626596" lon="14.8306673"><ele>612.5</ele><time>2026-04-12T08:04:15.956Z</time></trkpt><trkpt lat="40.7627216" lon="14.8306862"><ele>612.0</ele><time>2026-04-12T08:04:18.961Z</time></trkpt><trkpt lat="40.7627837" lon="14.8307174"><ele>611.5</ele><time>2026-04-12T08:05:15.963Z</time></trkpt><trkpt lat="40.7629064" lon="14.8307713"><ele>611.0</ele><time>2026-04-12T08:05:18.041Z</time></trkpt><trkpt lat="40.7629686" lon="14.8307922"><ele>610.5</ele><time>2026-04-12T08:05:19.017Z</time></trkpt><trkpt lat="40.7630447" lon="14.8308096"><ele>610.0</ele><time>2026-04-12T08:05:20.029Z</time></trkpt><trkpt lat="40.7631267" lon="14.8308173"><ele>610.0</ele><time>2026-04-12T08:05:20.945Z</time></trkpt><trkpt lat="40.7632106" lon="14.8308344"><ele>610.0</ele><time>2026-04-12T08:05:21.949Z</time></trkpt><trkpt lat="40.7632834" lon="14.830855"><ele>610.0</ele><time>2026-04-12T08:05:22.956Z</time></trkpt><trkpt lat="40.7633572" lon="14.8308932"><ele>610.0</ele><time>2026-04-12T08:05:23.956Z</time></trkpt><trkpt lat="40.7634306" lon="14.8309322"><ele>610.0</ele><time>2026-04-12T08:05:24.958Z</time></trkpt><trkpt lat="40.7634937" lon="14.8309613"><ele>610.0</ele><time>2026-04-12T08:05:25.95Z</time></trkpt><trkpt lat="40.7636128" lon="14.8309594"><ele>606.6</ele><time>2026-04-12T08:05:27.952Z</time></trkpt><trkpt lat="40.7636599" lon="14.8309033"><ele>603.2</ele><time>2026-04-12T08:05:28.948Z</time></trkpt><trkpt lat="40.7637353" lon="14.8307881"><ele>599.8</ele><time>2026-04-12T08:05:30.963Z</time></trkpt><trkpt lat="40.7638078" lon="14.8307058"><ele>596.4</ele><time>2026-04-12T08:05:32.993Z</time></trkpt><trkpt lat="40.7639301" lon="14.8306237"><ele>593.0</ele><time>2026-04-12T08:05:34.964Z</time></trkpt><trkpt lat="40.7639987" lon="14.8305827"><ele>593.0</ele><time>2026-04-12T08:05:35.962Z</time></trkpt><trkpt lat="40.7640638" lon="14.8305362"><ele>593.0</ele><time>2026-04-12T08:05:36.96Z</time></trkpt><trkpt lat="40.7641429" lon="14.8304855"><ele>593.0</ele><time>2026-04-12T08:05:37.957Z</time></trkpt><trkpt lat="40.7642304" lon="14.8304327"><ele>593.0</ele><time>2026-04-12T08:05:38.958Z</time></trkpt><trkpt lat="40.7643057" lon="14.8303806"><ele>593.0</ele><time>2026-04-12T08:05:40.017Z</time></trkpt><trkpt lat="40.7643766" lon="14.8303242"><ele>593.0</ele><time>2026-04-12T08:05:40.956Z</time></trkpt><trkpt lat="40.7644417" lon="14.8302661"><ele>594.0</ele><time>2026-04-12T08:05:41.958Z</time></trkpt><trkpt lat="40.7645089" lon="14.8302052"><ele>595.0</ele><time>2026-04-12T08:05:42.961Z</time></trkpt><trkpt lat="40.7645662" lon="14.8301234"><ele>596.0</ele><time>2026-04-12T08:05:43.956Z</time></trkpt><trkpt lat="40.7646242" lon="14.8300388"><ele>597.0</ele><time>2026-04-12T08:05:44.953Z</time></trkpt><trkpt lat="40.7646817" lon="14.8299561"><ele>598.0</ele><time>2026-04-12T08:05:45.957Z</time></trkpt><trkpt lat="40.7647307" lon="14.8298685"><ele>599.0</ele><time>2026-04-12T08:05:47.029Z</time></trkpt><trkpt lat="40.7647828" lon="14.8297658"><ele>599.0</ele><time>2026-04-12T08:05:48.013Z</time></trkpt><trkpt lat="40.7648351" lon="14.8297028"><ele>599.0</ele><time>2026-04-12T08:05:49.021Z</time></trkpt><trkpt lat="40.7649078" lon="14.8296698"><ele>599.0</ele><time>2026-04-12T08:05:50.017Z</time></trkpt><trkpt lat="40.7649995" lon="14.8296611"><ele>599.0</ele><time>2026-04-12T08:05:50.958Z</time></trkpt><trkpt lat="40.7650772" lon="14.8296305"><ele>599.0</ele><time>2026-04-12T08:05:51.96Z</time></trkpt><trkpt lat="40.7651572" lon="14.8296394"><ele>599.0</ele><time>2026-04-12T08:05:53.02Z</time></trkpt><trkpt lat="40.7652553" lon="14.8296779"><ele>596.2</ele><time>2026-04-12T08:05:54.023Z</time></trkpt><trkpt lat="40.7653489" lon="14.8297029"><ele>593.4</ele><time>2026-04-12T08:05:55.014Z</time></trkpt><trkpt lat="40.7654278" lon="14.8297361"><ele>590.6</ele><time>2026-04-12T08:05:55.956Z</time></trkpt><trkpt lat="40.7655048" lon="14.8297808"><ele>587.8</ele><time>2026-04-12T08:05:56.954Z</time></trkpt><trkpt lat="40.7655968" lon="14.8298373"><ele>585.0</ele><time>2026-04-12T08:05:58.045Z</time></trkpt><trkpt lat="40.7656893" lon="14.8298871"><ele>585.0</ele><time>2026-04-12T08:05:59.028Z</time></trkpt><trkpt lat="40.7657836" lon="14.8299357"><ele>585.0</ele><time>2026-04-12T08:06:00.021Z</time></trkpt><trkpt lat="40.765891" lon="14.8299771"><ele>585.0</ele><time>2026-04-12T08:06:00.961Z</time></trkpt><trkpt lat="40.7659963" lon="14.8300291"><ele>585.0</ele><time>2026-04-12T08:06:01.952Z</time></trkpt><trkpt lat="40.7661022" lon="14.8300641"><ele>585.0</ele><time>2026-04-12T08:06:03.044Z</time></trkpt><trkpt lat="40.7661849" lon="14.8301014"><ele>583.8333333333334</ele><time>2026-04-12T08:06:04.018Z</time></trkpt><trkpt lat="40.7662664" lon="14.8301229"><ele>582.6666666666666</ele><time>2026-04-12T08:06:05.026Z</time></trkpt><trkpt lat="40.7663472" lon="14.8301182"><ele>581.5</ele><time>2026-04-12T08:06:05.963Z</time></trkpt><trkpt lat="40.7664379" lon="14.8300975"><ele>580.3333333333333</ele><time>2026-04-12T08:06:06.957Z</time></trkpt><trkpt lat="40.7665074" lon="14.8300778"><ele>579.1666666666666</ele><time>2026-04-12T08:06:07.964Z</time></trkpt><trkpt lat="40.7665868" lon="14.8300616"><ele>578.0</ele><time>2026-04-12T08:06:09.947Z</time></trkpt><trkpt lat="40.7665999" lon="14.830153"><ele>574.3333333333333</ele><time>2026-04-12T08:06:12.945Z</time></trkpt><trkpt lat="40.7665471" lon="14.8302161"><ele>570.6666666666666</ele><time>2026-04-12T08:06:15.012Z</time></trkpt><trkpt lat="40.7664404" lon="14.8302601"><ele>567.0</ele><time>2026-04-12T08:06:16.952Z</time></trkpt><trkpt lat="40.7663566" lon="14.8302998"><ele>563.3333333333334</ele><time>2026-04-12T08:06:17.961Z</time></trkpt><trkpt lat="40.7662854" lon="14.8303203"><ele>559.6666666666667</ele><time>2026-04-12T08:06:18.956Z</time></trkpt><trkpt lat="40.7662137" lon="14.8303356"><ele>556.0</ele><time>2026-04-12T08:06:19.96Z</time></trkpt><trkpt lat="40.766128" lon="14.8303786"><ele>556.0</ele><time>2026-04-12T08:06:20.936Z</time></trkpt><trkpt lat="40.7660374" lon="14.8304394"><ele>556.0</ele><time>2026-04-12T08:06:21.955Z</time></trkpt><trkpt lat="40.7659269" lon="14.8304998"><ele>556.0</ele><time>2026-04-12T08:06:22.955Z</time></trkpt><trkpt lat="40.7657873" lon="14.8305526"><ele>556.0</ele><time>2026-04-12T08:06:23.956Z</time></trkpt><trkpt lat="40.7656659" lon="14.8305586"><ele>556.8</ele><time>2026-04-12T08:06:24.961Z</time></trkpt><trkpt lat="40.7655452" lon="14.8305428"><ele>557.6</ele><time>2026-04-12T08:06:25.96Z</time></trkpt><trkpt lat="40.7654424" lon="14.83051"><ele>558.4</ele><time>2026-04-12T08:06:26.951Z</time></trkpt><trkpt lat="40.7653653" lon="14.8304709"><ele>559.2</ele><time>2026-04-12T08:06:27.949Z</time></trkpt><trkpt lat="40.7652798" lon="14.8304372"><ele>560.0</ele><time>2026-04-12T08:06:30.021Z</time></trkpt><trkpt lat="40.7651961" lon="14.8305446"><ele>561.3333333333333</ele><time>2026-04-12T08:06:32.961Z</time></trkpt><trkpt lat="40.7651738" lon="14.8306392"><ele>562.6666666666666</ele><time>2026-04-12T08:06:33.992Z</time></trkpt><trkpt lat="40.7651557" lon="14.8307221"><ele>564.0</ele><time>2026-04-12T08:06:35.028Z</time></trkpt><trkpt lat="40.7650761" lon="14.8308318"><ele>565.3333333333334</ele><time>2026-04-12T08:06:36.956Z</time></trkpt><trkpt lat="40.7649992" lon="14.8309037"><ele>566.6666666666667</ele><time>2026-04-12T08:06:38.959Z</time></trkpt><trkpt lat="40.7649428" lon="14.8309604"><ele>568.0</ele><time>2026-04-12T08:06:41.947Z</time></trkpt><trkpt lat="40.7648612" lon="14.8310901"><ele>565.3333333333334</ele><time>2026-04-12T08:06:44.955Z</time></trkpt><trkpt lat="40.7648481" lon="14.8311894"><ele>562.6666666666667</ele><time>2026-04-12T08:06:46.955Z</time></trkpt><trkpt lat="40.764906" lon="14.8313214"><ele>560.0</ele><time>2026-04-12T08:06:48.941Z</time></trkpt><trkpt lat="40.7649672" lon="14.8313843"><ele>557.3333333333334</ele><time>2026-04-12T08:06:49.963Z</time></trkpt><trkpt lat="40.7650482" lon="14.8314453"><ele>554.6666666666666</ele><time>2026-04-12T08:06:50.951Z</time></trkpt><trkpt lat="40.7650986" lon="14.8315009"><ele>552.0</ele><time>2026-04-12T08:06:51.959Z</time></trkpt><trkpt lat="40.7651557" lon="14.8315664"><ele>549.8333333333334</ele><time>2026-04-12T08:06:52.968Z</time></trkpt><trkpt lat="40.7652073" lon="14.8316258"><ele>547.6666666666666</ele><time>2026-04-12T08:06:53.961Z</time></trkpt><trkpt lat="40.7652858" lon="14.8316995"><ele>545.5</ele><time>2026-04-12T08:06:55.951Z</time></trkpt><trkpt lat="40.7652798" lon="14.831785"><ele>543.3333333333333</ele><time>2026-04-12T08:06:58.977Z</time></trkpt><trkpt lat="40.7652239" lon="14.831838"><ele>541.1666666666666</ele><time>2026-04-12T08:07:00.05Z</time></trkpt><trkpt lat="40.7651578" lon="14.8319031"><ele>539.0</ele><time>2026-04-12T08:07:00.956Z</time></trkpt><trkpt lat="40.7650891" lon="14.8319638"><ele>539.0</ele><time>2026-04-12T08:07:01.953Z</time></trkpt><trkpt lat="40.7650034" lon="14.8320264"><ele>539.0</ele><time>2026-04-12T08:07:02.979Z</time></trkpt><trkpt lat="40.7649266" lon="14.832086"><ele>539.0</ele><time>2026-04-12T08:07:03.95Z</time></trkpt><trkpt lat="40.7648445" lon="14.8321473"><ele>539.0</ele><time>2026-04-12T08:07:04.961Z</time></trkpt><trkpt lat="40.7647704" lon="14.8322096"><ele>539.0</ele><time>2026-04-12T08:07:05.956Z</time></trkpt><trkpt lat="40.7646867" lon="14.8322702"><ele>539.0</ele><time>2026-04-12T08:07:06.96Z</time></trkpt><trkpt lat="40.7645895" lon="14.8323356"><ele>539.0</ele><time>2026-04-12T08:07:07.952Z</time></trkpt><trkpt lat="40.7645071" lon="14.8324085"><ele>539.0</ele><time>2026-04-12T08:07:08.959Z</time></trkpt><trkpt lat="40.7644445" lon="14.8324759"><ele>539.0</ele><time>2026-04-12T08:07:10.045Z</time></trkpt><trkpt lat="40.7643805" lon="14.8325716"><ele>539.0</ele><time>2026-04-12T08:07:11.959Z</time></trkpt><trkpt lat="40.7643432" lon="14.8326504"><ele>542.2</ele><time>2026-04-12T08:07:14.97Z</time></trkpt><trkpt lat="40.764292" lon="14.8327459"><ele>545.4</ele><time>2026-04-12T08:07:35.959Z</time></trkpt><trkpt lat="40.7643153" lon="14.8328648"><ele>548.6</ele><time>2026-04-12T08:07:37.964Z</time></trkpt><trkpt lat="40.7643039" lon="14.8329874"><ele>551.8</ele><time>2026-04-12T08:07:38.962Z</time></trkpt><trkpt lat="40.7643134" lon="14.8331567"><ele>555.0</ele><time>2026-04-12T08:07:40.948Z</time></trkpt><trkpt lat="40.7643349" lon="14.8332595"><ele>555.0</ele><time>2026-04-12T08:07:41.957Z</time></trkpt><trkpt lat="40.7643555" lon="14.8333561"><ele>555.0</ele><time>2026-04-12T08:07:43.02Z</time></trkpt><trkpt lat="40.7643811" lon="14.8334522"><ele>555.0</ele><time>2026-04-12T08:07:44.019Z</time></trkpt><trkpt lat="40.7644195" lon="14.8335322"><ele>555.0</ele><time>2026-04-12T08:07:45.012Z</time></trkpt><trkpt lat="40.7644653" lon="14.8336305"><ele>555.0</ele><time>2026-04-12T08:07:45.96Z</time></trkpt><trkpt lat="40.7645111" lon="14.8337161"><ele>555.0</ele><time>2026-04-12T08:07:46.967Z</time></trkpt><trkpt lat="40.7645905" lon="14.8338187"><ele>553.1666666666666</ele><time>2026-04-12T08:07:49.028Z</time></trkpt><trkpt lat="40.7646396" lon="14.833874"><ele>551.3333333333334</ele><time>2026-04-12T08:07:49.951Z</time></trkpt><trkpt lat="40.7646924" lon="14.8339197"><ele>549.5</ele><time>2026-04-12T08:07:50.964Z</time></trkpt><trkpt lat="40.76478" lon="14.833987"><ele>547.6666666666667</ele><time>2026-04-12T08:07:52.965Z</time></trkpt><trkpt lat="40.7648498" lon="14.8340411"><ele>545.8333333333334</ele><time>2026-04-12T08:07:54.953Z</time></trkpt><trkpt lat="40.7649111" lon="14.8341109"><ele>544.0</ele><time>2026-04-12T08:07:56.971Z</time></trkpt><trkpt lat="40.7649319" lon="14.8342977"><ele>544.8</ele><time>2026-04-12T08:07:58.962Z</time></trkpt><trkpt lat="40.7649209" lon="14.8344194"><ele>545.5999999999999</ele><time>2026-04-12T08:07:59.958Z</time></trkpt><trkpt lat="40.7649086" lon="14.8345488"><ele>546.4</ele><time>2026-04-12T08:08:00.971Z</time></trkpt><trkpt lat="40.764904" lon="14.8346664"><ele>547.1999999999999</ele><time>2026-04-12T08:08:02.064Z</time></trkpt><trkpt lat="40.7649081" lon="14.8347853"><ele>548.0</ele><time>2026-04-12T08:08:03.023Z</time></trkpt><trkpt lat="40.7649203" lon="14.8348993"><ele>548.0</ele><time>2026-04-12T08:08:03.955Z</time></trkpt><trkpt lat="40.7649278" lon="14.8350141"><ele>548.0</ele><time>2026-04-12T08:08:04.966Z</time></trkpt><trkpt lat="40.7649448" lon="14.8351298"><ele>548.0</ele><time>2026-04-12T08:08:05.963Z</time></trkpt><trkpt lat="40.76497" lon="14.8352385"><ele>548.0</ele><time>2026-04-12T08:08:06.956Z</time></trkpt><trkpt lat="40.7650008" lon="14.8353582"><ele>548.0</ele><time>2026-04-12T08:08:07.953Z</time></trkpt><trkpt lat="40.7650281" lon="14.8354866"><ele>548.1666666666666</ele><time>2026-04-12T08:08:08.96Z</time></trkpt><trkpt lat="40.7650608" lon="14.8356053"><ele>548.3333333333333</ele><time>2026-04-12T08:08:10.042Z</time></trkpt><trkpt lat="40.7650887" lon="14.8356991"><ele>548.5</ele><time>2026-04-12T08:08:10.97Z</time></trkpt><trkpt lat="40.7651085" lon="14.8357843"><ele>548.6666666666666</ele><time>2026-04-12T08:08:11.977Z</time></trkpt><trkpt lat="40.7651383" lon="14.8359421"><ele>548.8333333333334</ele><time>2026-04-12T08:08:13.976Z</time></trkpt><trkpt lat="40.7651433" lon="14.8360305"><ele>549.0</ele><time>2026-04-12T08:08:15.031Z</time></trkpt><trkpt lat="40.7651497" lon="14.8361143"><ele>547.5</ele><time>2026-04-12T08:08:15.957Z</time></trkpt><trkpt lat="40.7651679" lon="14.8362166"><ele>546.0</ele><time>2026-04-12T08:08:16.966Z</time></trkpt><trkpt lat="40.7651813" lon="14.8363153"><ele>544.5</ele><time>2026-04-12T08:08:17.973Z</time></trkpt><trkpt lat="40.7651639" lon="14.8364095"><ele>543.0</ele><time>2026-04-12T08:08:18.972Z</time></trkpt><trkpt lat="40.7651355" lon="14.836516"><ele>541.5</ele><time>2026-04-12T08:08:19.977Z</time></trkpt><trkpt lat="40.765095" lon="14.8366237"><ele>540.0</ele><time>2026-04-12T08:08:20.981Z</time></trkpt><trkpt lat="40.765049" lon="14.8367303"><ele>537.2</ele><time>2026-04-12T08:08:21.973Z</time></trkpt><trkpt lat="40.7650147" lon="14.8368364"><ele>534.4</ele><time>2026-04-12T08:08:22.961Z</time></trkpt><trkpt lat="40.7649868" lon="14.836926"><ele>531.6</ele><time>2026-04-12T08:08:24.036Z</time></trkpt><trkpt lat="40.7649626" lon="14.8370135"><ele>528.8</ele><time>2026-04-12T08:08:25.026Z</time></trkpt><trkpt lat="40.7649762" lon="14.8371496"><ele>526.0</ele><time>2026-04-12T08:08:26.975Z</time></trkpt><trkpt lat="40.7650397" lon="14.8372841"><ele>526.0</ele><time>2026-04-12T08:08:29.025Z</time></trkpt><trkpt lat="40.7650684" lon="14.8373804"><ele>526.0</ele><time>2026-04-12T08:08:29.989Z</time></trkpt><trkpt lat="40.765092" lon="14.8374818"><ele>526.0</ele><time>2026-04-12T08:08:30.971Z</time></trkpt><trkpt lat="40.7651076" lon="14.8375824"><ele>526.0</ele><time>2026-04-12T08:08:32.042Z</time></trkpt><trkpt lat="40.7651101" lon="14.837691"><ele>526.0</ele><time>2026-04-12T08:08:33.037Z</time></trkpt><trkpt lat="40.7651061" lon="14.8377895"><ele>526.0</ele><time>2026-04-12T08:08:34.019Z</time></trkpt><trkpt lat="40.7650505" lon="14.8379377"><ele>524.5</ele><time>2026-04-12T08:08:35.967Z</time></trkpt><trkpt lat="40.7649849" lon="14.8380003"><ele>523.0</ele><time>2026-04-12T08:08:36.948Z</time></trkpt><trkpt lat="40.7649092" lon="14.8380716"><ele>521.5</ele><time>2026-04-12T08:08:37.956Z</time></trkpt><trkpt lat="40.7648278" lon="14.8381416"><ele>520.0</ele><time>2026-04-12T08:08:38.953Z</time></trkpt><trkpt lat="40.7647523" lon="14.8382054"><ele>518.5</ele><time>2026-04-12T08:08:40.048Z</time></trkpt><trkpt lat="40.7646769" lon="14.8382486"><ele>517.0</ele><time>2026-04-12T08:08:40.969Z</time></trkpt><trkpt lat="40.7646003" lon="14.8382668"><ele>517.0</ele><time>2026-04-12T08:08:41.97Z</time></trkpt><trkpt lat="40.7645169" lon="14.8382493"><ele>517.0</ele><time>2026-04-12T08:08:42.972Z</time></trkpt><trkpt lat="40.7644227" lon="14.8382381"><ele>517.0</ele><time>2026-04-12T08:08:43.97Z</time></trkpt><trkpt lat="40.7643232" lon="14.8382275"><ele>517.0</ele><time>2026-04-12T08:08:44.965Z</time></trkpt><trkpt lat="40.7642368" lon="14.8382162"><ele>517.0</ele><time>2026-04-12T08:08:45.967Z</time></trkpt><trkpt lat="40.7641658" lon="14.838218"><ele>517.0</ele><time>2026-04-12T08:08:46.968Z</time></trkpt><trkpt lat="40.7641028" lon="14.8382368"><ele>518.2</ele><time>2026-04-12T08:08:47.978Z</time></trkpt><trkpt lat="40.7640105" lon="14.8382522"><ele>519.4000000000001</ele><time>2026-04-12T08:08:49.972Z</time></trkpt><trkpt lat="40.7640859" lon="14.8383083"><ele>520.5999999999999</ele><time>2026-04-12T08:08:53.973Z</time></trkpt><trkpt lat="40.7641927" lon="14.8384631"><ele>521.8</ele><time>2026-04-12T08:08:55.963Z</time></trkpt><trkpt lat="40.7642544" lon="14.8385515"><ele>523.0</ele><time>2026-04-12T08:08:56.96Z</time></trkpt><trkpt lat="40.7643168" lon="14.8386207"><ele>524.4</ele><time>2026-04-12T08:08:57.955Z</time></trkpt><trkpt lat="40.7643865" lon="14.8386534"><ele>525.8</ele><time>2026-04-12T08:08:58.954Z</time></trkpt><trkpt lat="40.7644692" lon="14.83869"><ele>527.2</ele><time>2026-04-12T08:08:59.964Z</time></trkpt><trkpt lat="40.7645429" lon="14.8387248"><ele>528.6</ele><time>2026-04-12T08:09:00.955Z</time></trkpt><trkpt lat="40.7646935" lon="14.8387464"><ele>530.0</ele><time>2026-04-12T08:09:03.957Z</time></trkpt><trkpt lat="40.7647737" lon="14.8387754"><ele>530.0</ele><time>2026-04-12T08:09:04.958Z</time></trkpt><trkpt lat="40.7648612" lon="14.838801"><ele>530.0</ele><time>2026-04-12T08:09:05.945Z</time></trkpt><trkpt lat="40.7649451" lon="14.8387937"><ele>530.0</ele><time>2026-04-12T08:09:07.033Z</time></trkpt><trkpt lat="40.7650636" lon="14.838761"><ele>530.0</ele><time>2026-04-12T08:09:08.967Z</time></trkpt><trkpt lat="40.7651871" lon="14.8387582"><ele>530.0</ele><time>2026-04-12T08:09:10.962Z</time></trkpt><trkpt lat="40.7652878" lon="14.8387216"><ele>529.6</ele><time>2026-04-12T08:09:12.969Z</time></trkpt><trkpt lat="40.7653675" lon="14.8386367"><ele>529.2</ele><time>2026-04-12T08:09:14.971Z</time></trkpt><trkpt lat="40.7654858" lon="14.8386032"><ele>528.8</ele><time>2026-04-12T08:09:16.965Z</time></trkpt><trkpt lat="40.7655488" lon="14.8385935"><ele>528.4</ele><time>2026-04-12T08:09:17.972Z</time></trkpt><trkpt lat="40.7656442" lon="14.8385273"><ele>528.0</ele><time>2026-04-12T08:09:19.971Z</time></trkpt><trkpt lat="40.7656767" lon="14.8384224"><ele>528.0</ele><time>2026-04-12T08:09:21.975Z</time></trkpt><trkpt lat="40.7657131" lon="14.8383362"><ele>528.0</ele><time>2026-04-12T08:09:22.967Z</time></trkpt><trkpt lat="40.7657752" lon="14.83827"><ele>528.0</ele><time>2026-04-12T08:09:23.978Z</time></trkpt><trkpt lat="40.7658401" lon="14.8382054"><ele>528.0</ele><time>2026-04-12T08:09:24.944Z</time></trkpt><trkpt lat="40.7659158" lon="14.8381467"><ele>528.0</ele><time>2026-04-12T08:09:25.965Z</time></trkpt><trkpt lat="40.7659784" lon="14.838097"><ele>528.0</ele><time>2026-04-12T08:09:27.021Z</time></trkpt><trkpt lat="40.7660499" lon="14.8380703"><ele>528.0</ele><time>2026-04-12T08:09:28.019Z</time></trkpt><trkpt lat="40.7661495" lon="14.8380057"><ele>528.0</ele><time>2026-04-12T08:09:30.028Z</time></trkpt><trkpt lat="40.7661669" lon="14.8381006"><ele>528.0</ele><time>2026-04-12T08:09:33.973Z</time></trkpt><trkpt lat="40.7660974" lon="14.8382145"><ele>528.0</ele><time>2026-04-12T08:09:35.944Z</time></trkpt><trkpt lat="40.7660687" lon="14.8383207"><ele>528.0</ele><time>2026-04-12T08:09:37.948Z</time></trkpt><trkpt lat="40.7660205" lon="14.8384372"><ele>532.0</ele><time>2026-04-12T08:09:39.946Z</time></trkpt><trkpt lat="40.765974" lon="14.8385591"><ele>536.0</ele><time>2026-04-12T08:09:41.958Z</time></trkpt><trkpt lat="40.7659205" lon="14.8386689"><ele>540.0</ele><time>2026-04-12T08:09:43.952Z</time></trkpt><trkpt lat="40.7658314" lon="14.8387463"><ele>544.0</ele><time>2026-04-12T08:09:45.959Z</time></trkpt><trkpt lat="40.7657434" lon="14.8388077"><ele>548.0</ele><time>2026-04-12T08:09:47.954Z</time></trkpt><trkpt lat="40.7656163" lon="14.838956"><ele>548.0</ele><time>2026-04-12T08:09:49.949Z</time></trkpt><trkpt lat="40.7655088" lon="14.8390336"><ele>548.0</ele><time>2026-04-12T08:09:50.962Z</time></trkpt><trkpt lat="40.7654039" lon="14.8390746"><ele>548.0</ele><time>2026-04-12T08:09:51.956Z</time></trkpt><trkpt lat="40.7653275" lon="14.8391533"><ele>548.0</ele><time>2026-04-12T08:09:52.957Z</time></trkpt><trkpt lat="40.7652396" lon="14.8392179"><ele>548.0</ele><time>2026-04-12T08:09:53.961Z</time></trkpt><trkpt lat="40.7651449" lon="14.8392718"><ele>548.8333333333333</ele><time>2026-04-12T08:09:54.955Z</time></trkpt><trkpt lat="40.7650666" lon="14.8393437"><ele>549.6666666666666</ele><time>2026-04-12T08:09:55.951Z</time></trkpt><trkpt lat="40.7650273" lon="14.8394344"><ele>550.5</ele><time>2026-04-12T08:09:56.966Z</time></trkpt><trkpt lat="40.7649852" lon="14.8395593"><ele>551.3333333333334</ele><time>2026-04-12T08:09:58.03Z</time></trkpt><trkpt lat="40.764956" lon="14.8396717"><ele>552.1666666666667</ele><time>2026-04-12T08:09:58.964Z</time></trkpt><trkpt lat="40.7649377" lon="14.8397617"><ele>553.0</ele><time>2026-04-12T08:09:59.96Z</time></trkpt><trkpt lat="40.7649124" lon="14.8398637"><ele>553.0</ele><time>2026-04-12T08:10:00.963Z</time></trkpt><trkpt lat="40.7649021" lon="14.8399974"><ele>553.0</ele><time>2026-04-12T08:10:01.97Z</time></trkpt><trkpt lat="40.7648796" lon="14.8401578"><ele>553.0</ele><time>2026-04-12T08:10:02.957Z</time></trkpt><trkpt lat="40.7648591" lon="14.8403354"><ele>553.0</ele><time>2026-04-12T08:10:03.972Z</time></trkpt><trkpt lat="40.7648338" lon="14.840458"><ele>554.6666666666667</ele><time>2026-04-12T08:10:04.964Z</time></trkpt><trkpt lat="40.7648078" lon="14.8405491"><ele>556.3333333333334</ele><time>2026-04-12T08:10:05.962Z</time></trkpt><trkpt lat="40.7647672" lon="14.8406253"><ele>558.0</ele><time>2026-04-12T08:10:06.969Z</time></trkpt><trkpt lat="40.7647051" lon="14.8406938"><ele>559.6666666666666</ele><time>2026-04-12T08:10:07.96Z</time></trkpt><trkpt lat="40.7646302" lon="14.8407377"><ele>561.3333333333333</ele><time>2026-04-12T08:10:08.959Z</time></trkpt><trkpt lat="40.7646475" lon="14.8406146"><ele>563.0</ele><time>2026-04-12T08:10:13.969Z</time></trkpt><trkpt lat="40.764578" lon="14.8406228"><ele>563.0</ele><time>2026-04-12T08:10:17.965Z</time></trkpt><trkpt lat="40.7645084" lon="14.8406839"><ele>563.0</ele><time>2026-04-12T08:10:19.963Z</time></trkpt><trkpt lat="40.7644058" lon="14.8407551"><ele>563.0</ele><time>2026-04-12T08:10:22.055Z</time></trkpt><trkpt lat="40.7643243" lon="14.8408103"><ele>563.0</ele><time>2026-04-12T08:10:23.022Z</time></trkpt><trkpt lat="40.7642469" lon="14.8408649"><ele>563.0</ele><time>2026-04-12T08:10:24.032Z</time></trkpt><trkpt lat="40.7641561" lon="14.8409051"><ele>561.5</ele><time>2026-04-12T08:10:24.963Z</time></trkpt><trkpt lat="40.7640799" lon="14.8409553"><ele>560.0</ele><time>2026-04-12T08:10:25.968Z</time></trkpt><trkpt lat="40.7639687" lon="14.8410066"><ele>558.5</ele><time>2026-04-12T08:10:27.969Z</time></trkpt><trkpt lat="40.7638931" lon="14.8410247"><ele>557.0</ele><time>2026-04-12T08:10:28.959Z</time></trkpt><trkpt lat="40.7638152" lon="14.8410604"><ele>555.5</ele><time>2026-04-12T08:10:29.959Z</time></trkpt><trkpt lat="40.7637679" lon="14.8411169"><ele>554.0</ele><time>2026-04-12T08:10:30.957Z</time></trkpt><trkpt lat="40.7637232" lon="14.8412432"><ele>554.0</ele><time>2026-04-12T08:10:32.965Z</time></trkpt><trkpt lat="40.7636731" lon="14.8413212"><ele>554.0</ele><time>2026-04-12T08:10:33.964Z</time></trkpt><trkpt lat="40.763613" lon="14.8414776"><ele>554.0</ele><time>2026-04-12T08:10:35.968Z</time></trkpt><trkpt lat="40.7635803" lon="14.8415883"><ele>554.0</ele><time>2026-04-12T08:10:36.964Z</time></trkpt><trkpt lat="40.7635671" lon="14.8417007"><ele>554.0</ele><time>2026-04-12T08:10:37.948Z</time></trkpt><trkpt lat="40.7635454" lon="14.8418008"><ele>557.0</ele><time>2026-04-12T08:10:39.042Z</time></trkpt><trkpt lat="40.7635154" lon="14.8418991"><ele>560.0</ele><time>2026-04-12T08:10:40.044Z</time></trkpt><trkpt lat="40.7634896" lon="14.8420005"><ele>563.0</ele><time>2026-04-12T08:10:40.958Z</time></trkpt><trkpt lat="40.7634553" lon="14.8420975"><ele>566.0</ele><time>2026-04-12T08:10:41.964Z</time></trkpt><trkpt lat="40.76341" lon="14.8421948"><ele>569.0</ele><time>2026-04-12T08:10:42.96Z</time></trkpt><trkpt lat="40.7633658" lon="14.8422815"><ele>572.0</ele><time>2026-04-12T08:10:43.961Z</time></trkpt><trkpt lat="40.7633221" lon="14.8423545"><ele>572.0</ele><time>2026-04-12T08:10:44.966Z</time></trkpt><trkpt lat="40.7632804" lon="14.842434"><ele>572.0</ele><time>2026-04-12T08:10:45.962Z</time></trkpt><trkpt lat="40.7632266" lon="14.8425112"><ele>572.0</ele><time>2026-04-12T08:10:46.966Z</time></trkpt><trkpt lat="40.763164" lon="14.8425838"><ele>572.0</ele><time>2026-04-12T08:10:48.023Z</time></trkpt><trkpt lat="40.7631014" lon="14.8426493"><ele>572.0</ele><time>2026-04-12T08:10:49.064Z</time></trkpt><trkpt lat="40.7630302" lon="14.8427163"><ele>572.0</ele><time>2026-04-12T08:10:50.042Z</time></trkpt><trkpt lat="40.7629737" lon="14.8427846"><ele>571.1666666666666</ele><time>2026-04-12T08:10:50.963Z</time></trkpt><trkpt lat="40.7629273" lon="14.8428509"><ele>570.3333333333333</ele><time>2026-04-12T08:10:51.961Z</time></trkpt><trkpt lat="40.7628958" lon="14.842926"><ele>569.5</ele><time>2026-04-12T08:10:52.967Z</time></trkpt><trkpt lat="40.7628474" lon="14.8430552"><ele>568.6666666666666</ele><time>2026-04-12T08:10:54.942Z</time></trkpt><trkpt lat="40.7628278" lon="14.8431561"><ele>567.8333333333334</ele><time>2026-04-12T08:10:56.939Z</time></trkpt><trkpt lat="40.7628101" lon="14.8432453"><ele>567.0</ele><time>2026-04-12T08:10:58.954Z</time></trkpt><trkpt lat="40.7627876" lon="14.8433554"><ele>568.0</ele><time>2026-04-12T08:11:00.971Z</time></trkpt><trkpt lat="40.7627472" lon="14.8435287"><ele>569.0</ele><time>2026-04-12T08:11:02.97Z</time></trkpt><trkpt lat="40.7627132" lon="14.8436405"><ele>570.0</ele><time>2026-04-12T08:11:03.941Z</time></trkpt><trkpt lat="40.7626846" lon="14.8437298"><ele>571.0</ele><time>2026-04-12T08:11:04.96Z</time></trkpt><trkpt lat="40.7626447" lon="14.8438116"><ele>572.0</ele><time>2026-04-12T08:11:05.964Z</time></trkpt><trkpt lat="40.7625848" lon="14.8439012"><ele>575.0</ele><time>2026-04-12T08:11:06.964Z</time></trkpt><trkpt lat="40.7625286" lon="14.8439858"><ele>578.0</ele><time>2026-04-12T08:11:07.957Z</time></trkpt><trkpt lat="40.7624811" lon="14.8440606"><ele>581.0</ele><time>2026-04-12T08:11:08.972Z</time></trkpt><trkpt lat="40.7624231" lon="14.8441187"><ele>584.0</ele><time>2026-04-12T08:11:10.967Z</time></trkpt><trkpt lat="40.7623407" lon="14.8441903"><ele>587.0</ele><time>2026-04-12T08:11:15.955Z</time></trkpt><trkpt lat="40.7623287" lon="14.8442925"><ele>590.0</ele><time>2026-04-12T08:11:18.943Z</time></trkpt><trkpt lat="40.7623043" lon="14.8443783"><ele>590.0</ele><time>2026-04-12T08:11:21.954Z</time></trkpt><trkpt lat="40.7622756" lon="14.8444808"><ele>590.0</ele><time>2026-04-12T08:11:27.947Z</time></trkpt><trkpt lat="40.7622487" lon="14.8445947"><ele>590.0</ele><time>2026-04-12T08:11:30.97Z</time></trkpt><trkpt lat="40.7622332" lon="14.8446979"><ele>590.0</ele><time>2026-04-12T08:11:32.949Z</time></trkpt><trkpt lat="40.7622241" lon="14.8447925"><ele>590.0</ele><time>2026-04-12T08:11:34.957Z</time></trkpt><trkpt lat="40.7622212" lon="14.8448974"><ele>590.0</ele><time>2026-04-12T08:11:36.968Z</time></trkpt><trkpt lat="40.7622164" lon="14.8449852"><ele>590.0</ele><time>2026-04-12T08:11:38.964Z</time></trkpt><trkpt lat="40.7622182" lon="14.8450987"><ele>590.0</ele><time>2026-04-12T08:11:40.954Z</time></trkpt><trkpt lat="40.7622163" lon="14.8451852"><ele>590.0</ele><time>2026-04-12T08:11:42.961Z</time></trkpt><trkpt lat="40.7622337" lon="14.8452777"><ele>590.0</ele><time>2026-04-12T08:11:45.974Z</time></trkpt><trkpt lat="40.762302" lon="14.8453724"><ele>590.0</ele><time>2026-04-12T08:11:48.963Z</time></trkpt><trkpt lat="40.7623488" lon="14.8454391"><ele>590.0</ele><time>2026-04-12T08:11:50.953Z</time></trkpt><trkpt lat="40.7624068" lon="14.8455167"><ele>591.3333333333333</ele><time>2026-04-12T08:11:54.067Z</time></trkpt><trkpt lat="40.7624444" lon="14.8456158"><ele>592.6666666666666</ele><time>2026-04-12T08:11:56.953Z</time></trkpt><trkpt lat="40.7624804" lon="14.8457102"><ele>594.0</ele><time>2026-04-12T08:12:08.988Z</time></trkpt><trkpt lat="40.7625172" lon="14.8458118"><ele>595.3333333333334</ele><time>2026-04-12T08:13:53.973Z</time></trkpt><trkpt lat="40.7625665" lon="14.8458678"><ele>596.6666666666667</ele><time>2026-04-12T08:14:07.971Z</time></trkpt><trkpt lat="40.7625807" lon="14.8459604"><ele>598.0</ele><time>2026-04-12T08:16:53.033Z</time></trkpt><trkpt lat="40.7625967" lon="14.8460419"><ele>598.0</ele><time>2026-04-12T08:17:58.977Z</time></trkpt><trkpt lat="40.7625932" lon="14.8459573"><ele>598.0</ele><time>2026-04-12T08:19:24.949Z</time></trkpt><trkpt lat="40.762645" lon="14.8460126"><ele>598.0</ele><time>2026-04-12T08:25:28.957Z</time></trkpt><trkpt lat="40.7626045" lon="14.8459443"><ele>598.0</ele><time>2026-04-12T08:31:15.965Z</time></trkpt><trkpt lat="40.7626273" lon="14.8460314"><ele>598.0</ele><time>2026-04-12T08:31:19.95Z</time></trkpt><trkpt lat="40.7626509" lon="14.8461245"><ele>598.0</ele><time>2026-04-12T08:31:23.963Z</time></trkpt><trkpt lat="40.762637" lon="14.84622"><ele>598.0</ele><time>2026-04-12T08:31:26.961Z</time></trkpt><trkpt lat="40.7626561" lon="14.846314"><ele>600.0</ele><time>2026-04-12T08:31:29.96Z</time></trkpt><trkpt lat="40.7626834" lon="14.8464106"><ele>602.0</ele><time>2026-04-12T08:31:32.977Z</time></trkpt><trkpt lat="40.7627218" lon="14.8464815"><ele>604.0</ele><time>2026-04-12T08:31:34.966Z</time></trkpt><trkpt lat="40.7627738" lon="14.8465419"><ele>606.0</ele><time>2026-04-12T08:31:48.949Z</time></trkpt><trkpt lat="40.7628072" lon="14.8466235"><ele>608.0</ele><time>2026-04-12T08:31:51.97Z</time></trkpt><trkpt lat="40.7628017" lon="14.8467641"><ele>610.0</ele><time>2026-04-12T08:31:54.962Z</time></trkpt><trkpt lat="40.762792" lon="14.8468637"><ele>612.8</ele><time>2026-04-12T08:31:55.967Z</time></trkpt><trkpt lat="40.76277" lon="14.8469652"><ele>615.6</ele><time>2026-04-12T08:31:56.96Z</time></trkpt><trkpt lat="40.7627575" lon="14.8470655"><ele>618.4</ele><time>2026-04-12T08:31:57.965Z</time></trkpt><trkpt lat="40.7627573" lon="14.847174"><ele>621.2</ele><time>2026-04-12T08:31:58.964Z</time></trkpt><trkpt lat="40.7627805" lon="14.8473071"><ele>624.0</ele><time>2026-04-12T08:32:00.965Z</time></trkpt><trkpt lat="40.7628174" lon="14.8474703"><ele>624.0</ele><time>2026-04-12T08:32:02.982Z</time></trkpt><trkpt lat="40.7628504" lon="14.8475523"><ele>624.0</ele><time>2026-04-12T08:32:03.962Z</time></trkpt><trkpt lat="40.762878" lon="14.8476488"><ele>624.0</ele><time>2026-04-12T08:32:04.961Z</time></trkpt><trkpt lat="40.7629031" lon="14.8477372"><ele>624.0</ele><time>2026-04-12T08:32:05.963Z</time></trkpt><trkpt lat="40.7629202" lon="14.8478181"><ele>624.0</ele><time>2026-04-12T08:32:06.963Z</time></trkpt><trkpt lat="40.762922" lon="14.8479275"><ele>624.0</ele><time>2026-04-12T08:32:08.963Z</time></trkpt><trkpt lat="40.7628641" lon="14.8478235"><ele>624.0</ele><time>2026-04-12T08:32:15.94Z</time></trkpt><trkpt lat="40.7628513" lon="14.8477206"><ele>624.0</ele><time>2026-04-12T08:32:17.972Z</time></trkpt><trkpt lat="40.7628259" lon="14.8476387"><ele>624.0</ele><time>2026-04-12T08:32:19.997Z</time></trkpt><trkpt lat="40.7628016" lon="14.8475491"><ele>624.0</ele><time>2026-04-12T08:32:21.966Z</time></trkpt><trkpt lat="40.76279" lon="14.8474593"><ele>624.0</ele><time>2026-04-12T08:32:23.961Z</time></trkpt><trkpt lat="40.7627795" lon="14.8473657"><ele>624.0</ele><time>2026-04-12T08:32:25.962Z</time></trkpt><trkpt lat="40.7627931" lon="14.847257"><ele>624.0</ele><time>2026-04-12T08:32:27.978Z</time></trkpt><trkpt lat="40.7628265" lon="14.8471484"><ele>624.0</ele><time>2026-04-12T08:32:29.964Z</time></trkpt><trkpt lat="40.7628483" lon="14.8470409"><ele>624.0</ele><time>2026-04-12T08:32:31.963Z</time></trkpt><trkpt lat="40.7628576" lon="14.84693"><ele>624.0</ele><time>2026-04-12T08:32:33.971Z</time></trkpt><trkpt lat="40.7628756" lon="14.8468286"><ele>624.0</ele><time>2026-04-12T08:32:35.952Z</time></trkpt><trkpt lat="40.7629018" lon="14.8467278"><ele>624.0</ele><time>2026-04-12T08:32:37.97Z</time></trkpt><trkpt lat="40.7628847" lon="14.8466444"><ele>624.0</ele><time>2026-04-12T08:32:40.953Z</time></trkpt><trkpt lat="40.7629334" lon="14.8465727"><ele>622.0</ele><time>2026-04-12T08:32:53.956Z</time></trkpt><trkpt lat="40.7629155" lon="14.8464695"><ele>620.0</ele><time>2026-04-12T08:32:55.979Z</time></trkpt><trkpt lat="40.762886" lon="14.8463516"><ele>618.0</ele><time>2026-04-12T08:32:58.027Z</time></trkpt><trkpt lat="40.7628404" lon="14.8462071"><ele>616.0</ele><time>2026-04-12T08:32:59.963Z</time></trkpt><trkpt lat="40.7628034" lon="14.8461081"><ele>614.0</ele><time>2026-04-12T08:33:00.981Z</time></trkpt><trkpt lat="40.7627586" lon="14.8460354"><ele>612.0</ele><time>2026-04-12T08:33:01.972Z</time></trkpt><trkpt lat="40.762722" lon="14.8459577"><ele>609.2</ele><time>2026-04-12T08:33:02.966Z</time></trkpt><trkpt lat="40.7626647" lon="14.8458466"><ele>606.4000000000001</ele><time>2026-04-12T08:33:04.958Z</time></trkpt><trkpt lat="40.762578" lon="14.8457843"><ele>603.5999999999999</ele><time>2026-04-12T08:33:06.968Z</time></trkpt><trkpt lat="40.7624998" lon="14.8457614"><ele>600.8</ele><time>2026-04-12T08:33:08.969Z</time></trkpt><trkpt lat="40.762414" lon="14.845803"><ele>598.0</ele><time>2026-04-12T08:33:11.974Z</time></trkpt><trkpt lat="40.7623447" lon="14.8458739"><ele>598.0</ele><time>2026-04-12T08:33:14.977Z</time></trkpt><trkpt lat="40.7622784" lon="14.8459109"><ele>598.0</ele><time>2026-04-12T08:33:17.947Z</time></trkpt><trkpt lat="40.7622045" lon="14.8459509"><ele>598.0</ele><time>2026-04-12T08:33:19.959Z</time></trkpt><trkpt lat="40.762153" lon="14.8460042"><ele>598.0</ele><time>2026-04-12T08:33:21.97Z</time></trkpt><trkpt lat="40.7620823" lon="14.8460304"><ele>598.0</ele><time>2026-04-12T08:33:23.964Z</time></trkpt><trkpt lat="40.7620179" lon="14.8461016"><ele>598.0</ele><time>2026-04-12T08:33:26.971Z</time></trkpt><trkpt lat="40.7620906" lon="14.8461248"><ele>598.0</ele><time>2026-04-12T08:33:35.037Z</time></trkpt><trkpt lat="40.762156" lon="14.8460964"><ele>600.0</ele><time>2026-04-12T08:33:38.964Z</time></trkpt><trkpt lat="40.7622447" lon="14.8461"><ele>602.0</ele><time>2026-04-12T08:33:40.967Z</time></trkpt><trkpt lat="40.762337" lon="14.8461666"><ele>604.0</ele><time>2026-04-12T08:33:43.943Z</time></trkpt><trkpt lat="40.7624018" lon="14.846224"><ele>606.0</ele><time>2026-04-12T08:33:45.965Z</time></trkpt><trkpt lat="40.7624852" lon="14.8462091"><ele>608.0</ele><time>2026-04-12T08:33:48.968Z</time></trkpt><trkpt lat="40.7625556" lon="14.8461406"><ele>610.0</ele><time>2026-04-12T08:33:51.963Z</time></trkpt><trkpt lat="40.7625454" lon="14.846053"><ele>610.0</ele><time>2026-04-12T08:33:54.966Z</time></trkpt><trkpt lat="40.7624869" lon="14.8459781"><ele>610.0</ele><time>2026-04-12T08:33:57.971Z</time></trkpt><trkpt lat="40.7624738" lon="14.8458835"><ele>610.0</ele><time>2026-04-12T08:34:00.961Z</time></trkpt><trkpt lat="40.7625506" lon="14.8458896"><ele>610.0</ele><time>2026-04-12T08:34:04.967Z</time></trkpt><trkpt lat="40.7626052" lon="14.8459679"><ele>610.0</ele><time>2026-04-12T08:34:07.973Z</time></trkpt><trkpt lat="40.762661" lon="14.8460201"><ele>610.0</ele><time>2026-04-12T08:34:08.967Z</time></trkpt><trkpt lat="40.7626746" lon="14.8461313"><ele>610.0</ele><time>2026-04-12T08:34:11.965Z</time></trkpt><trkpt lat="40.7626431" lon="14.8462059"><ele>610.0</ele><time>2026-04-12T08:34:13.945Z</time></trkpt><trkpt lat="40.7626754" lon="14.8463277"><ele>610.0</ele><time>2026-04-12T08:34:16.962Z</time></trkpt><trkpt lat="40.7626948" lon="14.8464094"><ele>610.0</ele><time>2026-04-12T08:34:18.966Z</time></trkpt><trkpt lat="40.7627164" lon="14.8464908"><ele>610.0</ele><time>2026-04-12T08:34:20.965Z</time></trkpt><trkpt lat="40.7627767" lon="14.8465218"><ele>610.0</ele><time>2026-04-12T08:34:38.966Z</time></trkpt><trkpt lat="40.7627877" lon="14.8466494"><ele>610.4</ele><time>2026-04-12T08:34:42.971Z</time></trkpt><trkpt lat="40.7628153" lon="14.8467483"><ele>610.8</ele><time>2026-04-12T08:34:45.027Z</time></trkpt><trkpt lat="40.7628628" lon="14.8468843"><ele>611.2</ele><time>2026-04-12T08:34:46.955Z</time></trkpt><trkpt lat="40.7629049" lon="14.8469988"><ele>611.6</ele><time>2026-04-12T08:34:49.066Z</time></trkpt><trkpt lat="40.7629262" lon="14.8471549"><ele>612.0</ele><time>2026-04-12T08:34:50.97Z</time></trkpt><trkpt lat="40.7629269" lon="14.847287"><ele>614.0</ele><time>2026-04-12T08:34:51.97Z</time></trkpt><trkpt lat="40.7629261" lon="14.8473888"><ele>616.0</ele><time>2026-04-12T08:34:52.974Z</time></trkpt><trkpt lat="40.7629297" lon="14.8474801"><ele>618.0</ele><time>2026-04-12T08:34:53.969Z</time></trkpt><trkpt lat="40.7629526" lon="14.8476216"><ele>620.0</ele><time>2026-04-12T08:34:55.972Z</time></trkpt><trkpt lat="40.7629625" lon="14.8477124"><ele>622.0</ele><time>2026-04-12T08:34:57.987Z</time></trkpt><trkpt lat="40.7628938" lon="14.8477129"><ele>624.0</ele><time>2026-04-12T08:35:02.967Z</time></trkpt><trkpt lat="40.7628419" lon="14.8476179"><ele>624.0</ele><time>2026-04-12T08:35:05.96Z</time></trkpt><trkpt lat="40.7628089" lon="14.847528"><ele>624.0</ele><time>2026-04-12T08:35:08.95Z</time></trkpt><trkpt lat="40.7628039" lon="14.8474351"><ele>624.0</ele><time>2026-04-12T08:35:11.971Z</time></trkpt><trkpt lat="40.7627944" lon="14.8473393"><ele>624.0</ele><time>2026-04-12T08:35:13.966Z</time></trkpt><trkpt lat="40.7628132" lon="14.8472387"><ele>624.0</ele><time>2026-04-12T08:35:15.972Z</time></trkpt><trkpt lat="40.762827" lon="14.8471435"><ele>624.0</ele><time>2026-04-12T08:35:17.975Z</time></trkpt><trkpt lat="40.7628356" lon="14.8470298"><ele>624.0</ele><time>2026-04-12T08:35:20.969Z</time></trkpt><trkpt lat="40.7628376" lon="14.8469155"><ele>624.0</ele><time>2026-04-12T08:35:23.978Z</time></trkpt><trkpt lat="40.762849" lon="14.8467943"><ele>624.0</ele><time>2026-04-12T08:35:26.961Z</time></trkpt><trkpt lat="40.7628889" lon="14.8467225"><ele>624.0</ele><time>2026-04-12T08:35:30.973Z</time></trkpt><trkpt lat="40.7629593" lon="14.8467519"><ele>624.0</ele><time>2026-04-12T08:35:35.962Z</time></trkpt><trkpt lat="40.762992" lon="14.8466703"><ele>624.0</ele><time>2026-04-12T08:35:38.961Z</time></trkpt><trkpt lat="40.7629714" lon="14.8465875"><ele>621.6</ele><time>2026-04-12T08:35:40.97Z</time></trkpt><trkpt lat="40.7629448" lon="14.8464801"><ele>619.2</ele><time>2026-04-12T08:35:42.963Z</time></trkpt><trkpt lat="40.762904" lon="14.8463524"><ele>616.8000000000001</ele><time>2026-04-12T08:35:44.946Z</time></trkpt><trkpt lat="40.7628402" lon="14.8462211"><ele>614.4</ele><time>2026-04-12T08:35:46.945Z</time></trkpt><trkpt lat="40.7627435" lon="14.8461533"><ele>612.0</ele><time>2026-04-12T08:35:48.944Z</time></trkpt><trkpt lat="40.7626825" lon="14.8460815"><ele>611.6</ele><time>2026-04-12T08:35:50.968Z</time></trkpt><trkpt lat="40.7626128" lon="14.8460259"><ele>611.2</ele><time>2026-04-12T08:35:52.978Z</time></trkpt><trkpt lat="40.7625295" lon="14.8459781"><ele>610.8</ele><time>2026-04-12T08:35:54.958Z</time></trkpt><trkpt lat="40.7624315" lon="14.8459567"><ele>610.4</ele><time>2026-04-12T08:35:56.949Z</time></trkpt><trkpt lat="40.7623512" lon="14.8459785"><ele>610.0</ele><time>2026-04-12T08:35:59.94Z</time></trkpt><trkpt lat="40.7622364" lon="14.8459789"><ele>610.0</ele><time>2026-04-12T08:36:02.965Z</time></trkpt><trkpt lat="40.7621499" lon="14.8460234"><ele>610.0</ele><time>2026-04-12T08:36:04.964Z</time></trkpt><trkpt lat="40.7620689" lon="14.8460712"><ele>610.0</ele><time>2026-04-12T08:36:06.965Z</time></trkpt><trkpt lat="40.7619752" lon="14.8461304"><ele>610.0</ele><time>2026-04-12T08:36:08.961Z</time></trkpt><trkpt lat="40.7620379" lon="14.8461468"><ele>610.0</ele><time>2026-04-12T08:36:15.968Z</time></trkpt><trkpt lat="40.7621133" lon="14.8460942"><ele>610.0</ele><time>2026-04-12T08:36:18.971Z</time></trkpt><trkpt lat="40.7621874" lon="14.8460794"><ele>610.0</ele><time>2026-04-12T08:36:20.972Z</time></trkpt><trkpt lat="40.7622802" lon="14.8460825"><ele>610.0</ele><time>2026-04-12T08:36:22.979Z</time></trkpt><trkpt lat="40.7623545" lon="14.8461489"><ele>610.0</ele><time>2026-04-12T08:36:24.963Z</time></trkpt><trkpt lat="40.7624379" lon="14.8462312"><ele>610.0</ele><time>2026-04-12T08:36:26.965Z</time></trkpt><trkpt lat="40.7625041" lon="14.8462212"><ele>610.0</ele><time>2026-04-12T08:36:29.982Z</time></trkpt><trkpt lat="40.7625697" lon="14.8461551"><ele>610.0</ele><time>2026-04-12T08:36:32.964Z</time></trkpt><trkpt lat="40.7626003" lon="14.8460608"><ele>610.0</ele><time>2026-04-12T08:36:35.971Z</time></trkpt><trkpt lat="40.7625615" lon="14.8459676"><ele>610.0</ele><time>2026-04-12T08:36:38.969Z</time></trkpt><trkpt lat="40.7626462" lon="14.846011"><ele>610.0</ele><time>2026-04-12T08:36:49.96Z</time></trkpt><trkpt lat="40.7626557" lon="14.8461047"><ele>610.0</ele><time>2026-04-12T08:36:52.968Z</time></trkpt><trkpt lat="40.7626386" lon="14.8462256"><ele>610.0</ele><time>2026-04-12T08:36:55.975Z</time></trkpt><trkpt lat="40.7626576" lon="14.8463215"><ele>610.0</ele><time>2026-04-12T08:36:57.972Z</time></trkpt><trkpt lat="40.7626783" lon="14.8464075"><ele>610.3333333333334</ele><time>2026-04-12T08:36:59.961Z</time></trkpt><trkpt lat="40.7627405" lon="14.8464566"><ele>610.6666666666667</ele><time>2026-04-12T08:37:02.975Z</time></trkpt><trkpt lat="40.7627452" lon="14.846548"><ele>611.0</ele><time>2026-04-12T08:37:13.964Z</time></trkpt><trkpt lat="40.7627311" lon="14.8466407"><ele>611.3333333333334</ele><time>2026-04-12T08:37:15.96Z</time></trkpt><trkpt lat="40.7627605" lon="14.8467296"><ele>611.6666666666666</ele><time>2026-04-12T08:37:17.967Z</time></trkpt><trkpt lat="40.7627247" lon="14.8469062"><ele>612.0</ele><time>2026-04-12T08:37:19.967Z</time></trkpt><trkpt lat="40.7627028" lon="14.8470035"><ele>614.4</ele><time>2026-04-12T08:37:20.965Z</time></trkpt><trkpt lat="40.7627032" lon="14.847102"><ele>616.8000000000001</ele><time>2026-04-12T08:37:21.972Z</time></trkpt><trkpt lat="40.7627156" lon="14.8472043"><ele>619.2</ele><time>2026-04-12T08:37:22.978Z</time></trkpt><trkpt lat="40.762735" lon="14.8473526"><ele>621.6</ele><time>2026-04-12T08:37:24.966Z</time></trkpt><trkpt lat="40.7627982" lon="14.8475239"><ele>624.0</ele><time>2026-04-12T08:37:26.968Z</time></trkpt><trkpt lat="40.7628347" lon="14.8476061"><ele>625.8333333333334</ele><time>2026-04-12T08:37:27.967Z</time></trkpt><trkpt lat="40.7628632" lon="14.8476868"><ele>627.6666666666666</ele><time>2026-04-12T08:37:28.965Z</time></trkpt><trkpt lat="40.7629034" lon="14.8478152"><ele>629.5</ele><time>2026-04-12T08:37:30.961Z</time></trkpt><trkpt lat="40.7629365" lon="14.8478936"><ele>631.3333333333333</ele><time>2026-04-12T08:37:32.962Z</time></trkpt><trkpt lat="40.7629108" lon="14.8479765"><ele>633.1666666666666</ele><time>2026-04-12T08:37:34.967Z</time></trkpt><trkpt lat="40.762838" lon="14.8479598"><ele>635.0</ele><time>2026-04-12T08:37:36.965Z</time></trkpt><trkpt lat="40.7628088" lon="14.8478678"><ele>635.0</ele><time>2026-04-12T08:37:38.963Z</time></trkpt><trkpt lat="40.7627987" lon="14.8477759"><ele>635.0</ele><time>2026-04-12T08:37:40.963Z</time></trkpt><trkpt lat="40.7627832" lon="14.8476677"><ele>635.0</ele><time>2026-04-12T08:37:42.978Z</time></trkpt><trkpt lat="40.7627539" lon="14.8475571"><ele>635.0</ele><time>2026-04-12T08:37:44.966Z</time></trkpt><trkpt lat="40.7627586" lon="14.8474445"><ele>635.0</ele><time>2026-04-12T08:37:46.961Z</time></trkpt><trkpt lat="40.7627941" lon="14.847292"><ele>635.0</ele><time>2026-04-12T08:37:50.96Z</time></trkpt><trkpt lat="40.7628129" lon="14.8471887"><ele>633.1666666666666</ele><time>2026-04-12T08:37:52.97Z</time></trkpt><trkpt lat="40.7628182" lon="14.8470806"><ele>631.3333333333333</ele><time>2026-04-12T08:37:54.965Z</time></trkpt><trkpt lat="40.7628263" lon="14.8469767"><ele>629.5</ele><time>2026-04-12T08:37:56.968Z</time></trkpt><trkpt lat="40.7628364" lon="14.8468783"><ele>627.6666666666666</ele><time>2026-04-12T08:37:59.947Z</time></trkpt><trkpt lat="40.7629039" lon="14.8468294"><ele>625.8333333333334</ele><time>2026-04-12T08:38:08.966Z</time></trkpt><trkpt lat="40.7629484" lon="14.8467235"><ele>624.0</ele><time>2026-04-12T08:38:11.959Z</time></trkpt><trkpt lat="40.7629661" lon="14.8466408"><ele>621.6</ele><time>2026-04-12T08:38:13.957Z</time></trkpt><trkpt lat="40.7629759" lon="14.8465399"><ele>619.2</ele><time>2026-04-12T08:38:15.952Z</time></trkpt><trkpt lat="40.7629896" lon="14.8464136"><ele>616.8000000000001</ele><time>2026-04-12T08:38:17.972Z</time></trkpt><trkpt lat="40.7629413" lon="14.8462836"><ele>614.4</ele><time>2026-04-12T08:38:19.959Z</time></trkpt><trkpt lat="40.7628963" lon="14.8461774"><ele>612.0</ele><time>2026-04-12T08:38:21.964Z</time></trkpt><trkpt lat="40.7628146" lon="14.8461006"><ele>612.0</ele><time>2026-04-12T08:38:23.967Z</time></trkpt><trkpt lat="40.7627376" lon="14.8460573"><ele>612.0</ele><time>2026-04-12T08:38:25.962Z</time></trkpt><trkpt lat="40.7626638" lon="14.8460361"><ele>612.0</ele><time>2026-04-12T08:38:27.961Z</time></trkpt><trkpt lat="40.7625683" lon="14.8460535"><ele>612.0</ele><time>2026-04-12T08:38:29.942Z</time></trkpt><trkpt lat="40.7624779" lon="14.8460359"><ele>612.0</ele><time>2026-04-12T08:38:31.973Z</time></trkpt><trkpt lat="40.7623679" lon="14.8460168"><ele>611.6666666666666</ele><time>2026-04-12T08:38:33.963Z</time></trkpt><trkpt lat="40.7622724" lon="14.8460038"><ele>611.3333333333334</ele><time>2026-04-12T08:38:35.972Z</time></trkpt><trkpt lat="40.7621848" lon="14.8460247"><ele>611.0</ele><time>2026-04-12T08:38:37.965Z</time></trkpt><trkpt lat="40.7620933" lon="14.846047"><ele>610.6666666666667</ele><time>2026-04-12T08:38:39.971Z</time></trkpt><trkpt lat="40.7620298" lon="14.8460959"><ele>610.3333333333334</ele><time>2026-04-12T08:38:41.974Z</time></trkpt><trkpt lat="40.7621137" lon="14.8460831"><ele>610.0</ele><time>2026-04-12T08:38:48.974Z</time></trkpt><trkpt lat="40.7622045" lon="14.8460534"><ele>610.0</ele><time>2026-04-12T08:38:51.948Z</time></trkpt><trkpt lat="40.7622885" lon="14.8460558"><ele>610.0</ele><time>2026-04-12T08:38:53.965Z</time></trkpt><trkpt lat="40.7623596" lon="14.8460846"><ele>610.0</ele><time>2026-04-12T08:38:55.965Z</time></trkpt><trkpt lat="40.7624091" lon="14.8461442"><ele>610.0</ele><time>2026-04-12T08:38:57.96Z</time></trkpt><trkpt lat="40.7624835" lon="14.8462032"><ele>610.0</ele><time>2026-04-12T08:38:59.965Z</time></trkpt><trkpt lat="40.7625401" lon="14.8461606"><ele>610.0</ele><time>2026-04-12T08:39:02.971Z</time></trkpt><trkpt lat="40.7625903" lon="14.84611"><ele>610.0</ele><time>2026-04-12T08:39:04.961Z</time></trkpt><trkpt lat="40.7625845" lon="14.8460099"><ele>610.0</ele><time>2026-04-12T08:39:07.948Z</time></trkpt><trkpt lat="40.7625082" lon="14.8459001"><ele>610.0</ele><time>2026-04-12T08:39:12.957Z</time></trkpt><trkpt lat="40.7625546" lon="14.8459577"><ele>610.0</ele><time>2026-04-12T08:39:19.984Z</time></trkpt><trkpt lat="40.7625992" lon="14.8460282"><ele>610.0</ele><time>2026-04-12T08:39:21.958Z</time></trkpt><trkpt lat="40.7626092" lon="14.846146"><ele>610.0</ele><time>2026-04-12T08:39:24.968Z</time></trkpt><trkpt lat="40.7626031" lon="14.8462468"><ele>610.0</ele><time>2026-04-12T08:39:27.971Z</time></trkpt><trkpt lat="40.7626288" lon="14.8463345"><ele>610.0</ele><time>2026-04-12T08:39:29.961Z</time></trkpt><trkpt lat="40.7626623" lon="14.8464155"><ele>610.0</ele><time>2026-04-12T08:39:31.968Z</time></trkpt><trkpt lat="40.7627149" lon="14.846482"><ele>610.0</ele><time>2026-04-12T08:39:33.966Z</time></trkpt><trkpt lat="40.7627665" lon="14.8465457"><ele>610.0</ele><time>2026-04-12T08:39:48.956Z</time></trkpt><trkpt lat="40.7627825" lon="14.8466356"><ele>610.0</ele><time>2026-04-12T08:39:51.963Z</time></trkpt><trkpt lat="40.7627822" lon="14.8467371"><ele>610.0</ele><time>2026-04-12T08:39:52.966Z</time></trkpt><trkpt lat="40.7627765" lon="14.8468772"><ele>612.0</ele><time>2026-04-12T08:39:53.963Z</time></trkpt><trkpt lat="40.7627753" lon="14.8469826"><ele>614.0</ele><time>2026-04-12T08:39:54.968Z</time></trkpt><trkpt lat="40.7627697" lon="14.8470786"><ele>616.0</ele><time>2026-04-12T08:39:55.959Z</time></trkpt><trkpt lat="40.7627713" lon="14.8471839"><ele>618.0</ele><time>2026-04-12T08:39:56.946Z</time></trkpt><trkpt lat="40.7627739" lon="14.8472821"><ele>620.0</ele><time>2026-04-12T08:39:57.951Z</time></trkpt><trkpt lat="40.7627874" lon="14.8473697"><ele>622.0</ele><time>2026-04-12T08:39:58.961Z</time></trkpt><trkpt lat="40.7628087" lon="14.8474575"><ele>624.0</ele><time>2026-04-12T08:39:59.955Z</time></trkpt><trkpt lat="40.7628217" lon="14.8475446"><ele>626.2</ele><time>2026-04-12T08:40:00.96Z</time></trkpt><trkpt lat="40.7628584" lon="14.8476993"><ele>628.4</ele><time>2026-04-12T08:40:02.961Z</time></trkpt><trkpt lat="40.7628759" lon="14.8478417"><ele>630.6</ele><time>2026-04-12T08:40:04.97Z</time></trkpt><trkpt lat="40.7629067" lon="14.8479257"><ele>632.8</ele><time>2026-04-12T08:40:07.967Z</time></trkpt><trkpt lat="40.7628861" lon="14.8478338"><ele>635.0</ele><time>2026-04-12T08:40:11.977Z</time></trkpt><trkpt lat="40.7628734" lon="14.8477319"><ele>635.0</ele><time>2026-04-12T08:40:13.961Z</time></trkpt><trkpt lat="40.7628305" lon="14.8476304"><ele>635.0</ele><time>2026-04-12T08:40:15.97Z</time></trkpt><trkpt lat="40.7627761" lon="14.8475024"><ele>635.0</ele><time>2026-04-12T08:40:17.971Z</time></trkpt><trkpt lat="40.7627696" lon="14.8474164"><ele>635.0</ele><time>2026-04-12T08:40:18.961Z</time></trkpt><trkpt lat="40.7627894" lon="14.8472509"><ele>635.0</ele><time>2026-04-12T08:40:20.957Z</time></trkpt><trkpt lat="40.7628372" lon="14.8471201"><ele>633.1666666666666</ele><time>2026-04-12T08:40:22.963Z</time></trkpt><trkpt lat="40.7628726" lon="14.8470511"><ele>631.3333333333333</ele><time>2026-04-12T08:40:23.959Z</time></trkpt><trkpt lat="40.7629218" lon="14.846917"><ele>629.5</ele><time>2026-04-12T08:40:25.965Z</time></trkpt><trkpt lat="40.7629376" lon="14.8468344"><ele>627.6666666666666</ele><time>2026-04-12T08:40:27.958Z</time></trkpt><trkpt lat="40.762934" lon="14.8467195"><ele>625.8333333333334</ele><time>2026-04-12T08:40:30.971Z</time></trkpt><trkpt lat="40.7629323" lon="14.8466337"><ele>624.0</ele><time>2026-04-12T08:40:32.958Z</time></trkpt><trkpt lat="40.7629604" lon="14.8467309"><ele>622.0</ele><time>2026-04-12T08:40:40.976Z</time></trkpt><trkpt lat="40.7629343" lon="14.8466411"><ele>620.0</ele><time>2026-04-12T08:40:47.965Z</time></trkpt><trkpt lat="40.7629293" lon="14.8465447"><ele>618.0</ele><time>2026-04-12T08:40:49.966Z</time></trkpt><trkpt lat="40.7628855" lon="14.8464103"><ele>616.0</ele><time>2026-04-12T08:40:51.959Z</time></trkpt><trkpt lat="40.7628399" lon="14.8462893"><ele>614.0</ele><time>2026-04-12T08:40:52.965Z</time></trkpt><trkpt lat="40.7627946" lon="14.8461879"><ele>612.0</ele><time>2026-04-12T08:40:53.965Z</time></trkpt><trkpt lat="40.7627473" lon="14.8460957"><ele>612.0</ele><time>2026-04-12T08:40:54.948Z</time></trkpt><trkpt lat="40.762701" lon="14.8460035"><ele>612.0</ele><time>2026-04-12T08:40:55.95Z</time></trkpt><trkpt lat="40.7626672" lon="14.8459306"><ele>612.0</ele><time>2026-04-12T08:40:56.959Z</time></trkpt><trkpt lat="40.7625907" lon="14.8458339"><ele>612.0</ele><time>2026-04-12T08:40:58.965Z</time></trkpt><trkpt lat="40.7624925" lon="14.8457929"><ele>612.0</ele><time>2026-04-12T08:41:00.966Z</time></trkpt><trkpt lat="40.7624169" lon="14.8457711"><ele>612.0</ele><time>2026-04-12T08:41:02.943Z</time></trkpt><trkpt lat="40.762349" lon="14.8458051"><ele>611.7142857142857</ele><time>2026-04-12T08:41:04.967Z</time></trkpt><trkpt lat="40.7622806" lon="14.8458609"><ele>611.4285714285714</ele><time>2026-04-12T08:41:07.973Z</time></trkpt><trkpt lat="40.7622134" lon="14.8458867"><ele>611.1428571428571</ele><time>2026-04-12T08:41:10.976Z</time></trkpt><trkpt lat="40.7621504" lon="14.8459342"><ele>610.8571428571429</ele><time>2026-04-12T08:41:12.966Z</time></trkpt><trkpt lat="40.7620869" lon="14.8459712"><ele>610.5714285714286</ele><time>2026-04-12T08:41:14.962Z</time></trkpt><trkpt lat="40.7620719" lon="14.8460771"><ele>610.2857142857143</ele><time>2026-04-12T08:41:17.975Z</time></trkpt><trkpt lat="40.7621196" lon="14.8461396"><ele>610.0</ele><time>2026-04-12T08:41:22.967Z</time></trkpt><trkpt lat="40.7621918" lon="14.8461306"><ele>610.0</ele><time>2026-04-12T08:41:26.979Z</time></trkpt><trkpt lat="40.7622627" lon="14.8461307"><ele>610.0</ele><time>2026-04-12T08:41:29.044Z</time></trkpt><trkpt lat="40.7623546" lon="14.8461512"><ele>610.0</ele><time>2026-04-12T08:41:31.961Z</time></trkpt><trkpt lat="40.7624072" lon="14.8462116"><ele>610.0</ele><time>2026-04-12T08:41:33.971Z</time></trkpt><trkpt lat="40.7624734" lon="14.8462464"><ele>610.0</ele><time>2026-04-12T08:41:35.977Z</time></trkpt><trkpt lat="40.7625576" lon="14.8462037"><ele>610.0</ele><time>2026-04-12T08:41:38.933Z</time></trkpt><trkpt lat="40.7625996" lon="14.8461064"><ele>610.0</ele><time>2026-04-12T08:41:41.969Z</time></trkpt><trkpt lat="40.7625597" lon="14.8460007"><ele>610.0</ele><time>2026-04-12T08:41:44.976Z</time></trkpt><trkpt lat="40.7625133" lon="14.8459085"><ele>610.0</ele><time>2026-04-12T08:41:47.982Z</time></trkpt><trkpt lat="40.7625781" lon="14.8459604"><ele>610.0</ele><time>2026-04-12T08:41:56.965Z</time></trkpt><trkpt lat="40.7626165" lon="14.8460435"><ele>610.0</ele><time>2026-04-12T08:41:58.961Z</time></trkpt><trkpt lat="40.7626286" lon="14.8461637"><ele>610.0</ele><time>2026-04-12T08:42:01.966Z</time></trkpt><trkpt lat="40.762658" lon="14.8462598"><ele>610.0</ele><time>2026-04-12T08:42:03.942Z</time></trkpt><trkpt lat="40.7626794" lon="14.8463406"><ele>610.0</ele><time>2026-04-12T08:42:05.98Z</time></trkpt><trkpt lat="40.7626724" lon="14.8464371"><ele>610.0</ele><time>2026-04-12T08:42:07.954Z</time></trkpt><trkpt lat="40.7627385" lon="14.8464509"><ele>610.0</ele><time>2026-04-12T08:42:09.946Z</time></trkpt><trkpt lat="40.7627707" lon="14.8465507"><ele>610.0</ele><time>2026-04-12T08:42:21.962Z</time></trkpt><trkpt lat="40.7627814" lon="14.8466612"><ele>610.0</ele><time>2026-04-12T08:42:24.97Z</time></trkpt><trkpt lat="40.7627776" lon="14.846805"><ele>612.8</ele><time>2026-04-12T08:42:26.972Z</time></trkpt><trkpt lat="40.7627583" lon="14.8469209"><ele>615.6</ele><time>2026-04-12T08:42:27.965Z</time></trkpt><trkpt lat="40.762741" lon="14.8470418"><ele>618.4</ele><time>2026-04-12T08:42:28.969Z</time></trkpt><trkpt lat="40.7627299" lon="14.8471402"><ele>621.2</ele><time>2026-04-12T08:42:29.965Z</time></trkpt><trkpt lat="40.7627034" lon="14.8472924"><ele>624.0</ele><time>2026-04-12T08:42:31.964Z</time></trkpt><trkpt lat="40.7627235" lon="14.8474249"><ele>624.0</ele><time>2026-04-12T08:42:33.962Z</time></trkpt><trkpt lat="40.7627508" lon="14.8475118"><ele>624.0</ele><time>2026-04-12T08:42:34.965Z</time></trkpt><trkpt lat="40.7627659" lon="14.8475936"><ele>624.0</ele><time>2026-04-12T08:42:35.971Z</time></trkpt><trkpt lat="40.7628094" lon="14.8477265"><ele>624.0</ele><time>2026-04-12T08:42:37.971Z</time></trkpt><trkpt lat="40.7628415" lon="14.8478406"><ele>624.0</ele><time>2026-04-12T08:42:39.973Z</time></trkpt><trkpt lat="40.7628702" lon="14.8479274"><ele>624.0</ele><time>2026-04-12T08:42:41.953Z</time></trkpt><trkpt lat="40.762836" lon="14.8480119"><ele>624.0</ele><time>2026-04-12T08:42:44.969Z</time></trkpt><trkpt lat="40.762788" lon="14.8479499"><ele>624.0</ele><time>2026-04-12T08:42:46.965Z</time></trkpt><trkpt lat="40.762764" lon="14.8478424"><ele>624.0</ele><time>2026-04-12T08:42:49.978Z</time></trkpt><trkpt lat="40.7627516" lon="14.8477412"><ele>624.0</ele><time>2026-04-12T08:42:51.976Z</time></trkpt><trkpt lat="40.7627366" lon="14.8476244"><ele>624.0</ele><time>2026-04-12T08:42:53.97Z</time></trkpt><trkpt lat="40.7627404" lon="14.8475147"><ele>624.0</ele><time>2026-04-12T08:42:55.964Z</time></trkpt><trkpt lat="40.7627425" lon="14.8474043"><ele>624.0</ele><time>2026-04-12T08:42:57.957Z</time></trkpt><trkpt lat="40.7627703" lon="14.8473066"><ele>624.0</ele><time>2026-04-12T08:42:59.966Z</time></trkpt><trkpt lat="40.7628147" lon="14.8472029"><ele>624.0</ele><time>2026-04-12T08:43:01.961Z</time></trkpt><trkpt lat="40.7628344" lon="14.8470953"><ele>624.0</ele><time>2026-04-12T08:43:03.964Z</time></trkpt><trkpt lat="40.7628365" lon="14.8469922"><ele>624.0</ele><time>2026-04-12T08:43:05.965Z</time></trkpt><trkpt lat="40.7628406" lon="14.8469026"><ele>624.0</ele><time>2026-04-12T08:43:07.957Z</time></trkpt><trkpt lat="40.7628407" lon="14.8468101"><ele>624.0</ele><time>2026-04-12T08:43:09.971Z</time></trkpt><trkpt lat="40.7629049" lon="14.8468469"><ele>624.0</ele><time>2026-04-12T08:43:19.972Z</time></trkpt><trkpt lat="40.7629428" lon="14.8467795"><ele>624.0</ele><time>2026-04-12T08:43:22.97Z</time></trkpt><trkpt lat="40.762929" lon="14.846641"><ele>624.0</ele><time>2026-04-12T08:43:25.967Z</time></trkpt><trkpt lat="40.7628851" lon="14.8464922"><ele>624.0</ele><time>2026-04-12T08:43:27.973Z</time></trkpt><trkpt lat="40.7628506" lon="14.8463645"><ele>621.6</ele><time>2026-04-12T08:43:28.972Z</time></trkpt><trkpt lat="40.7627984" lon="14.8462364"><ele>619.2</ele><time>2026-04-12T08:43:29.968Z</time></trkpt><trkpt lat="40.7627485" lon="14.8461059"><ele>616.8000000000001</ele><time>2026-04-12T08:43:30.972Z</time></trkpt><trkpt lat="40.7627024" lon="14.8459955"><ele>614.4</ele><time>2026-04-12T08:43:31.967Z</time></trkpt><trkpt lat="40.7626597" lon="14.8458993"><ele>612.0</ele><time>2026-04-12T08:43:32.973Z</time></trkpt><trkpt lat="40.7626242" lon="14.8457904"><ele>609.6666666666666</ele><time>2026-04-12T08:43:33.957Z</time></trkpt><trkpt lat="40.7625887" lon="14.8457144"><ele>607.3333333333334</ele><time>2026-04-12T08:43:34.969Z</time></trkpt><trkpt lat="40.7625323" lon="14.845644"><ele>605.0</ele><time>2026-04-12T08:43:36.95Z</time></trkpt><trkpt lat="40.7624545" lon="14.8456636"><ele>602.6666666666667</ele><time>2026-04-12T08:43:39.978Z</time></trkpt><trkpt lat="40.7623885" lon="14.8457435"><ele>600.3333333333334</ele><time>2026-04-12T08:43:42.963Z</time></trkpt><trkpt lat="40.762337" lon="14.8457983"><ele>598.0</ele><time>2026-04-12T08:43:44.966Z</time></trkpt><trkpt lat="40.762265" lon="14.8458484"><ele>598.0</ele><time>2026-04-12T08:43:47.969Z</time></trkpt><trkpt lat="40.7622091" lon="14.8458887"><ele>598.0</ele><time>2026-04-12T08:43:51.98Z</time></trkpt><trkpt lat="40.7621489" lon="14.8459383"><ele>598.0</ele><time>2026-04-12T08:44:01.97Z</time></trkpt><trkpt lat="40.7620688" lon="14.8459426"><ele>598.0</ele><time>2026-04-12T08:46:13.967Z</time></trkpt><trkpt lat="40.7620252" lon="14.8460199"><ele>598.0</ele><time>2026-04-12T08:46:22.777Z</time></trkpt><trkpt lat="40.7620063" lon="14.8461182"><ele>598.0</ele><time>2026-04-12T08:46:29.985Z</time></trkpt><trkpt lat="40.7620857" lon="14.8461235"><ele>598.0</ele><time>2026-04-12T08:46:34.975Z</time></trkpt><trkpt lat="40.7621521" lon="14.8461217"><ele>599.7142857142857</ele><time>2026-04-12T08:46:38.979Z</time></trkpt><trkpt lat="40.7622115" lon="14.8460911"><ele>601.4285714285714</ele><time>2026-04-12T08:46:49.965Z</time></trkpt><trkpt lat="40.7622792" lon="14.8461213"><ele>603.1428571428571</ele><time>2026-04-12T08:46:52.971Z</time></trkpt><trkpt lat="40.7623475" lon="14.8461329"><ele>604.8571428571429</ele><time>2026-04-12T08:46:57.946Z</time></trkpt><trkpt lat="40.7624034" lon="14.8461911"><ele>606.5714285714286</ele><time>2026-04-12T08:47:01.943Z</time></trkpt><trkpt lat="40.762486" lon="14.8462543"><ele>608.2857142857143</ele><time>2026-04-12T08:47:02.968Z</time></trkpt><trkpt lat="40.762545" lon="14.8463048"><ele>610.0</ele><time>2026-04-12T08:47:04.962Z</time></trkpt><trkpt lat="40.7626105" lon="14.8462486"><ele>610.0</ele><time>2026-04-12T08:47:10.877Z</time></trkpt><trkpt lat="40.762623" lon="14.8461661"><ele>610.0</ele><time>2026-04-12T08:47:13.962Z</time></trkpt><trkpt lat="40.7625973" lon="14.8460868"><ele>610.0</ele><time>2026-04-12T08:48:05.968Z</time></trkpt><trkpt lat="40.7626543" lon="14.8459901"><ele>610.0</ele><time>2026-04-12T08:48:56.976Z</time></trkpt><trkpt lat="40.7625874" lon="14.8458978"><ele>610.0</ele><time>2026-04-12T08:58:01.975Z</time></trkpt><trkpt lat="40.762546" lon="14.8458194"><ele>610.0</ele><time>2026-04-12T08:58:06.957Z</time></trkpt><trkpt lat="40.7624977" lon="14.8457653"><ele>610.0</ele><time>2026-04-12T08:58:08.954Z</time></trkpt><trkpt lat="40.7624206" lon="14.845798"><ele>610.0</ele><time>2026-04-12T08:58:12.973Z</time></trkpt><trkpt lat="40.7623548" lon="14.8458411"><ele>610.0</ele><time>2026-04-12T08:58:15.956Z</time></trkpt><trkpt lat="40.7622849" lon="14.8458628"><ele>610.0</ele><time>2026-04-12T08:58:18.956Z</time></trkpt><trkpt lat="40.7622244" lon="14.8459101"><ele>610.0</ele><time>2026-04-12T08:58:21.971Z</time></trkpt><trkpt lat="40.7621585" lon="14.8459678"><ele>610.0</ele><time>2026-04-12T08:58:24.972Z</time></trkpt><trkpt lat="40.7621487" lon="14.8460593"><ele>610.0</ele><time>2026-04-12T08:58:28.975Z</time></trkpt><trkpt lat="40.7622074" lon="14.8461015"><ele>610.0</ele><time>2026-04-12T08:58:35.968Z</time></trkpt><trkpt lat="40.762273" lon="14.8460883"><ele>610.0</ele><time>2026-04-12T08:58:38.956Z</time></trkpt><trkpt lat="40.7623699" lon="14.8460938"><ele>610.0</ele><time>2026-04-12T08:58:41.951Z</time></trkpt><trkpt lat="40.762454" lon="14.8461131"><ele>610.0</ele><time>2026-04-12T08:58:44.948Z</time></trkpt><trkpt lat="40.7625357" lon="14.8461453"><ele>610.0</ele><time>2026-04-12T08:58:47.943Z</time></trkpt><trkpt lat="40.7626015" lon="14.8461247"><ele>610.0</ele><time>2026-04-12T08:58:51.949Z</time></trkpt><trkpt lat="40.7625642" lon="14.8460416"><ele>610.0</ele><time>2026-04-12T08:58:56.977Z</time></trkpt><trkpt lat="40.7625131" lon="14.8459616"><ele>610.0</ele><time>2026-04-12T08:58:59.977Z</time></trkpt><trkpt lat="40.7625382" lon="14.8458768"><ele>610.0</ele><time>2026-04-12T08:59:03.963Z</time></trkpt><trkpt lat="40.7626293" lon="14.8460174"><ele>610.0</ele><time>2026-04-12T08:59:08.963Z</time></trkpt><trkpt lat="40.7626565" lon="14.846197"><ele>610.0</ele><time>2026-04-12T08:59:13.961Z</time></trkpt><trkpt lat="40.7626607" lon="14.8462861"><ele>610.0</ele><time>2026-04-12T08:59:17.972Z</time></trkpt><trkpt lat="40.7626891" lon="14.846401"><ele>610.0</ele><time>2026-04-12T08:59:24.972Z</time></trkpt><trkpt lat="40.7627267" lon="14.8464719"><ele>610.0</ele><time>2026-04-12T08:59:32.963Z</time></trkpt><trkpt lat="40.7627231" lon="14.8466166"><ele>610.0</ele><time>2026-04-12T08:59:35.966Z</time></trkpt><trkpt lat="40.7627393" lon="14.8467028"><ele>610.0</ele><time>2026-04-12T08:59:37.972Z</time></trkpt><trkpt lat="40.7627413" lon="14.8468777"><ele>612.8</ele><time>2026-04-12T08:59:39.969Z</time></trkpt><trkpt lat="40.7627388" lon="14.8470704"><ele>615.6</ele><time>2026-04-12T08:59:41.971Z</time></trkpt><trkpt lat="40.7627425" lon="14.8471971"><ele>618.4</ele><time>2026-04-12T08:59:43.974Z</time></trkpt><trkpt lat="40.7627552" lon="14.8473086"><ele>621.2</ele><time>2026-04-12T08:59:45.969Z</time></trkpt><trkpt lat="40.7627788" lon="14.8474279"><ele>624.0</ele><time>2026-04-12T08:59:47.975Z</time></trkpt><trkpt lat="40.7627872" lon="14.8475314"><ele>624.0</ele><time>2026-04-12T08:59:49.972Z</time></trkpt><trkpt lat="40.7627879" lon="14.8476174"><ele>624.0</ele><time>2026-04-12T08:59:51.981Z</time></trkpt><trkpt lat="40.7627389" lon="14.8477323"><ele>624.0</ele><time>2026-04-12T08:59:53.97Z</time></trkpt><trkpt lat="40.7627483" lon="14.8476401"><ele>624.0</ele><time>2026-04-12T09:00:00.963Z</time></trkpt><trkpt lat="40.7627527" lon="14.847523"><ele>624.0</ele><time>2026-04-12T09:00:03.965Z</time></trkpt><trkpt lat="40.7627705" lon="14.8474218"><ele>624.0</ele><time>2026-04-12T09:00:05.963Z</time></trkpt><trkpt lat="40.7627771" lon="14.847332"><ele>624.0</ele><time>2026-04-12T09:00:07.963Z</time></trkpt><trkpt lat="40.7627993" lon="14.8472463"><ele>624.0</ele><time>2026-04-12T09:00:10.03Z</time></trkpt><trkpt lat="40.7628296" lon="14.8471577"><ele>624.0</ele><time>2026-04-12T09:00:12.958Z</time></trkpt><trkpt lat="40.7628494" lon="14.8470545"><ele>624.0</ele><time>2026-04-12T09:00:15.026Z</time></trkpt><trkpt lat="40.762877" lon="14.8469595"><ele>624.0</ele><time>2026-04-12T09:00:16.969Z</time></trkpt><trkpt lat="40.7628939" lon="14.8468442"><ele>624.0</ele><time>2026-04-12T09:00:18.972Z</time></trkpt><trkpt lat="40.7629209" lon="14.8467575"><ele>624.0</ele><time>2026-04-12T09:00:21.979Z</time></trkpt><trkpt lat="40.762979" lon="14.8468057"><ele>624.0</ele><time>2026-04-12T09:00:27.964Z</time></trkpt><trkpt lat="40.7629932" lon="14.8466967"><ele>624.0</ele><time>2026-04-12T09:00:31.957Z</time></trkpt><trkpt lat="40.7629794" lon="14.8465975"><ele>624.0</ele><time>2026-04-12T09:00:33.961Z</time></trkpt><trkpt lat="40.7629404" lon="14.8464168"><ele>624.0</ele><time>2026-04-12T09:00:35.952Z</time></trkpt><trkpt lat="40.762914" lon="14.8463207"><ele>624.0</ele><time>2026-04-12T09:00:36.97Z</time></trkpt><trkpt lat="40.7628949" lon="14.8462157"><ele>622.0</ele><time>2026-04-12T09:00:37.971Z</time></trkpt><trkpt lat="40.7628734" lon="14.846103"><ele>620.0</ele><time>2026-04-12T09:00:38.965Z</time></trkpt><trkpt lat="40.7628363" lon="14.8459901"><ele>618.0</ele><time>2026-04-12T09:00:39.952Z</time></trkpt><trkpt lat="40.762805" lon="14.8459091"><ele>616.0</ele><time>2026-04-12T09:00:40.956Z</time></trkpt><trkpt lat="40.7627455" lon="14.8457975"><ele>614.0</ele><time>2026-04-12T09:00:42.966Z</time></trkpt><trkpt lat="40.7626835" lon="14.8457251"><ele>612.0</ele><time>2026-04-12T09:00:45.036Z</time></trkpt><trkpt lat="40.7626197" lon="14.8456877"><ele>608.5</ele><time>2026-04-12T09:00:46.965Z</time></trkpt><trkpt lat="40.7626217" lon="14.8458044"><ele>605.0</ele><time>2026-04-12T09:00:49.951Z</time></trkpt><trkpt lat="40.7625727" lon="14.8457299"><ele>601.5</ele><time>2026-04-12T09:00:52.028Z</time></trkpt><trkpt lat="40.7623929" lon="14.8458491"><ele>598.0</ele><time>2026-04-12T09:00:55.981Z</time></trkpt><trkpt lat="40.7623097" lon="14.8459211"><ele>598.0</ele><time>2026-04-12T09:00:57.976Z</time></trkpt><trkpt lat="40.7622419" lon="14.8459406"><ele>598.0</ele><time>2026-04-12T09:01:00.958Z</time></trkpt><trkpt lat="40.7621818" lon="14.8459994"><ele>598.0</ele><time>2026-04-12T09:01:03.95Z</time></trkpt><trkpt lat="40.7621675" lon="14.8461011"><ele>598.0</ele><time>2026-04-12T09:01:06.956Z</time></trkpt><trkpt lat="40.7622577" lon="14.8460896"><ele>598.0</ele><time>2026-04-12T09:01:14.965Z</time></trkpt><trkpt lat="40.7623499" lon="14.8461079"><ele>598.0</ele><time>2026-04-12T09:01:18.032Z</time></trkpt><trkpt lat="40.7624088" lon="14.8461461"><ele>598.0</ele><time>2026-04-12T09:01:19.976Z</time></trkpt><trkpt lat="40.7624683" lon="14.84619"><ele>598.0</ele><time>2026-04-12T09:01:21.971Z</time></trkpt><trkpt lat="40.7625337" lon="14.8461214"><ele>598.0</ele><time>2026-04-12T09:01:25.956Z</time></trkpt><trkpt lat="40.7625419" lon="14.846029"><ele>598.0</ele><time>2026-04-12T09:01:28.973Z</time></trkpt><trkpt lat="40.7624966" lon="14.8459537"><ele>598.0</ele><time>2026-04-12T09:01:32.043Z</time></trkpt><trkpt lat="40.7624546" lon="14.8458806"><ele>598.0</ele><time>2026-04-12T09:01:34.976Z</time></trkpt><trkpt lat="40.7625316" lon="14.8458585"><ele>598.0</ele><time>2026-04-12T09:01:40.958Z</time></trkpt><trkpt lat="40.7625832" lon="14.8459701"><ele>600.0</ele><time>2026-04-12T09:01:43.971Z</time></trkpt><trkpt lat="40.7626065" lon="14.8461046"><ele>602.0</ele><time>2026-04-12T09:01:46.964Z</time></trkpt><trkpt lat="40.7626095" lon="14.8461984"><ele>604.0</ele><time>2026-04-12T09:01:48.953Z</time></trkpt><trkpt lat="40.7626323" lon="14.8462972"><ele>606.0</ele><time>2026-04-12T09:01:50.96Z</time></trkpt><trkpt lat="40.7626655" lon="14.8463809"><ele>608.0</ele><time>2026-04-12T09:01:52.967Z</time></trkpt><trkpt lat="40.7627103" lon="14.8464609"><ele>610.0</ele><time>2026-04-12T09:01:54.993Z</time></trkpt><trkpt lat="40.7627447" lon="14.8465399"><ele>610.4</ele><time>2026-04-12T09:02:07.971Z</time></trkpt><trkpt lat="40.7627731" lon="14.8466192"><ele>610.8</ele><time>2026-04-12T09:02:09.969Z</time></trkpt><trkpt lat="40.7627798" lon="14.8467558"><ele>611.2</ele><time>2026-04-12T09:02:11.974Z</time></trkpt><trkpt lat="40.7627657" lon="14.8469068"><ele>611.6</ele><time>2026-04-12T09:02:13.971Z</time></trkpt><trkpt lat="40.7627562" lon="14.8470384"><ele>612.0</ele><time>2026-04-12T09:02:15.968Z</time></trkpt><trkpt lat="40.7627805" lon="14.8471753"><ele>614.0</ele><time>2026-04-12T09:02:18.023Z</time></trkpt><trkpt lat="40.7628106" lon="14.8472971"><ele>616.0</ele><time>2026-04-12T09:02:19.974Z</time></trkpt><trkpt lat="40.7628267" lon="14.8474198"><ele>618.0</ele><time>2026-04-12T09:02:21.971Z</time></trkpt><trkpt lat="40.7628351" lon="14.8475141"><ele>620.0</ele><time>2026-04-12T09:02:23.969Z</time></trkpt><trkpt lat="40.7628568" lon="14.847597"><ele>622.0</ele><time>2026-04-12T09:02:25.967Z</time></trkpt><trkpt lat="40.7628686" lon="14.8477127"><ele>624.0</ele><time>2026-04-12T09:02:28.998Z</time></trkpt><trkpt lat="40.7628864" lon="14.8478232"><ele>624.0</ele><time>2026-04-12T09:02:31.962Z</time></trkpt><trkpt lat="40.7628342" lon="14.8477541"><ele>624.0</ele><time>2026-04-12T09:02:38.968Z</time></trkpt><trkpt lat="40.76282" lon="14.8476589"><ele>624.0</ele><time>2026-04-12T09:02:40.964Z</time></trkpt><trkpt lat="40.7628024" lon="14.8475627"><ele>624.0</ele><time>2026-04-12T09:02:42.978Z</time></trkpt><trkpt lat="40.7628016" lon="14.8474579"><ele>624.0</ele><time>2026-04-12T09:02:44.977Z</time></trkpt><trkpt lat="40.762805" lon="14.8473646"><ele>624.0</ele><time>2026-04-12T09:02:46.977Z</time></trkpt><trkpt lat="40.7628322" lon="14.8472833"><ele>624.0</ele><time>2026-04-12T09:02:48.979Z</time></trkpt><trkpt lat="40.7628667" lon="14.8471955"><ele>624.0</ele><time>2026-04-12T09:02:50.978Z</time></trkpt><trkpt lat="40.7628919" lon="14.8470906"><ele>624.0</ele><time>2026-04-12T09:02:52.96Z</time></trkpt><trkpt lat="40.7628883" lon="14.8469999"><ele>624.0</ele><time>2026-04-12T09:02:55.034Z</time></trkpt><trkpt lat="40.7628872" lon="14.8469113"><ele>624.0</ele><time>2026-04-12T09:02:56.962Z</time></trkpt><trkpt lat="40.7628845" lon="14.846807"><ele>624.0</ele><time>2026-04-12T09:02:59.976Z</time></trkpt><trkpt lat="40.7629262" lon="14.8467254"><ele>624.0</ele><time>2026-04-12T09:03:10.98Z</time></trkpt><trkpt lat="40.7629132" lon="14.8466025"><ele>621.6</ele><time>2026-04-12T09:03:13.969Z</time></trkpt><trkpt lat="40.7628874" lon="14.8464818"><ele>619.2</ele><time>2026-04-12T09:03:15.974Z</time></trkpt><trkpt lat="40.7628363" lon="14.8463265"><ele>616.8000000000001</ele><time>2026-04-12T09:03:17.974Z</time></trkpt><trkpt lat="40.7627978" lon="14.8462268"><ele>614.4</ele><time>2026-04-12T09:03:18.976Z</time></trkpt><trkpt lat="40.7627631" lon="14.8461297"><ele>612.0</ele><time>2026-04-12T09:03:19.974Z</time></trkpt><trkpt lat="40.7627275" lon="14.8460336"><ele>609.6666666666666</ele><time>2026-04-12T09:03:20.999Z</time></trkpt><trkpt lat="40.7626941" lon="14.845946"><ele>607.3333333333334</ele><time>2026-04-12T09:03:21.97Z</time></trkpt><trkpt lat="40.7626547" lon="14.8458764"><ele>605.0</ele><time>2026-04-12T09:03:22.956Z</time></trkpt><trkpt lat="40.7626046" lon="14.8458235"><ele>602.6666666666667</ele><time>2026-04-12T09:03:23.98Z</time></trkpt><trkpt lat="40.7625436" lon="14.8457842"><ele>600.3333333333334</ele><time>2026-04-12T09:03:24.974Z</time></trkpt><trkpt lat="40.7624452" lon="14.8457499"><ele>598.0</ele><time>2026-04-12T09:03:26.981Z</time></trkpt><trkpt lat="40.7623622" lon="14.8458165"><ele>598.0</ele><time>2026-04-12T09:03:29.964Z</time></trkpt><trkpt lat="40.762292" lon="14.8458847"><ele>598.0</ele><time>2026-04-12T09:03:32.976Z</time></trkpt><trkpt lat="40.7622284" lon="14.845899"><ele>598.0</ele><time>2026-04-12T09:03:34.98Z</time></trkpt><trkpt lat="40.7621536" lon="14.8459531"><ele>598.0</ele><time>2026-04-12T09:03:37.952Z</time></trkpt><trkpt lat="40.7620944" lon="14.846028"><ele>598.0</ele><time>2026-04-12T09:03:41.967Z</time></trkpt><trkpt lat="40.7620736" lon="14.8461082"><ele>598.0</ele><time>2026-04-12T09:03:44.979Z</time></trkpt><trkpt lat="40.7621463" lon="14.846123"><ele>600.0</ele><time>2026-04-12T09:03:49.036Z</time></trkpt><trkpt lat="40.7622135" lon="14.8460773"><ele>602.0</ele><time>2026-04-12T09:03:51.972Z</time></trkpt><trkpt lat="40.7622834" lon="14.8460722"><ele>604.0</ele><time>2026-04-12T09:03:53.972Z</time></trkpt><trkpt lat="40.762362" lon="14.846091"><ele>606.0</ele><time>2026-04-12T09:03:56.973Z</time></trkpt><trkpt lat="40.7624198" lon="14.8461266"><ele>608.0</ele><time>2026-04-12T09:03:58.971Z</time></trkpt><trkpt lat="40.7624816" lon="14.8461916"><ele>610.0</ele><time>2026-04-12T09:04:01.965Z</time></trkpt><trkpt lat="40.7625584" lon="14.8461538"><ele>610.0</ele><time>2026-04-12T09:04:07.973Z</time></trkpt><trkpt lat="40.7625594" lon="14.8460515"><ele>610.0</ele><time>2026-04-12T09:04:10.959Z</time></trkpt><trkpt lat="40.7625063" lon="14.84594"><ele>610.0</ele><time>2026-04-12T09:04:14.959Z</time></trkpt><trkpt lat="40.7624936" lon="14.8458281"><ele>610.0</ele><time>2026-04-12T09:04:17.962Z</time></trkpt><trkpt lat="40.7625666" lon="14.8458464"><ele>610.0</ele><time>2026-04-12T09:04:20.958Z</time></trkpt><trkpt lat="40.7625879" lon="14.845958"><ele>610.0</ele><time>2026-04-12T09:04:23.967Z</time></trkpt><trkpt lat="40.7626095" lon="14.8460442"><ele>610.0</ele><time>2026-04-12T09:04:25.956Z</time></trkpt><trkpt lat="40.7626016" lon="14.8461398"><ele>610.0</ele><time>2026-04-12T09:04:28.968Z</time></trkpt><trkpt lat="40.7626361" lon="14.8462562"><ele>610.0</ele><time>2026-04-12T09:04:31.971Z</time></trkpt><trkpt lat="40.7624816" lon="14.8461916"><ele>610.0</ele><time>2026-04-12T09:04:01.965Z</time></trkpt><trkpt lat="40.7625584" lon="14.8461538"><ele>610.0</ele><time>2026-04-12T09:04:07.973Z</time></trkpt><trkpt lat="40.7625594" lon="14.8460515"><ele>610.0</ele><time>2026-04-12T09:04:10.959Z</time></trkpt><trkpt lat="40.7625063" lon="14.84594"><ele>610.0</ele><time>2026-04-12T09:04:14.959Z</time></trkpt><trkpt lat="40.7624936" lon="14.8458281"><ele>610.0</ele><time>2026-04-12T09:04:17.962Z</time></trkpt><trkpt lat="40.7625666" lon="14.8458464"><ele>610.0</ele><time>2026-04-12T09:04:20.958Z</time></trkpt><trkpt lat="40.7625879" lon="14.845958"><ele>610.0</ele><time>2026-04-12T09:04:23.967Z</time></trkpt><trkpt lat="40.7626095" lon="14.8460442"><ele>610.0</ele><time>2026-04-12T09:04:25.956Z</time></trkpt><trkpt lat="40.7626016" lon="14.8461398"><ele>610.0</ele><time>2026-04-12T09:04:28.968Z</time></trkpt><trkpt lat="40.7626361" lon="14.8462562"><ele>610.0</ele><time>2026-04-12T09:04:31.971Z</time></trkpt><trkpt lat="40.7626675" lon="14.8463514"><ele>610.0</ele><time>2026-04-12T09:04:33.961Z</time></trkpt><trkpt lat="40.7627366" lon="14.8464077"><ele>610.0</ele><time>2026-04-12T09:04:36.962Z</time></trkpt><trkpt lat="40.7627803" lon="14.8464748"><ele>610.0</ele><time>2026-04-12T09:04:40.951Z</time></trkpt><trkpt lat="40.7627608" lon="14.8463949"><ele>610.0</ele><time>2026-04-12T09:05:09.936Z</time></trkpt><trkpt lat="40.7627375" lon="14.846298"><ele>610.0</ele><time>2026-04-12T09:05:13.956Z</time></trkpt><trkpt lat="40.7627055" lon="14.8462096"><ele>610.0</ele><time>2026-04-12T09:05:19.967Z</time></trkpt><trkpt lat="40.7626512" lon="14.8461294"><ele>610.0</ele><time>2026-04-12T09:05:47.975Z</time></trkpt><trkpt lat="40.7626181" lon="14.846032"><ele>610.0</ele><time>2026-04-12T09:06:00.971Z</time></trkpt><trkpt lat="40.7626161" lon="14.8461503"><ele>610.0</ele><time>2026-04-12T09:21:19.94Z</time></trkpt><trkpt lat="40.7626169" lon="14.8462356"><ele>610.0</ele><time>2026-04-12T09:21:22.962Z</time></trkpt><trkpt lat="40.7626598" lon="14.8463364"><ele>610.0</ele><time>2026-04-12T09:21:25.954Z</time></trkpt><trkpt lat="40.762694" lon="14.8464327"><ele>610.0</ele><time>2026-04-12T09:21:28.958Z</time></trkpt><trkpt lat="40.762726" lon="14.846512"><ele>610.0</ele><time>2026-04-12T09:21:44.955Z</time></trkpt><trkpt lat="40.7627262" lon="14.846606"><ele>610.0</ele><time>2026-04-12T09:21:47.952Z</time></trkpt><trkpt lat="40.7626839" lon="14.846796"><ele>610.0</ele><time>2026-04-12T09:21:49.957Z</time></trkpt><trkpt lat="40.7626958" lon="14.8468801"><ele>610.0</ele><time>2026-04-12T09:21:50.952Z</time></trkpt><trkpt lat="40.7626824" lon="14.8469748"><ele>612.8</ele><time>2026-04-12T09:21:52.949Z</time></trkpt><trkpt lat="40.7627187" lon="14.8472064"><ele>615.6</ele><time>2026-04-12T09:21:53.951Z</time></trkpt><trkpt lat="40.7627493" lon="14.8472852"><ele>618.4</ele><time>2026-04-12T09:21:54.948Z</time></trkpt><trkpt lat="40.7627937" lon="14.8473851"><ele>621.2</ele><time>2026-04-12T09:21:55.947Z</time></trkpt><trkpt lat="40.7628444" lon="14.8474883"><ele>624.0</ele><time>2026-04-12T09:21:56.965Z</time></trkpt><trkpt lat="40.7628795" lon="14.8475677"><ele>624.0</ele><time>2026-04-12T09:21:57.972Z</time></trkpt><trkpt lat="40.7629289" lon="14.8476929"><ele>624.0</ele><time>2026-04-12T09:21:59.953Z</time></trkpt><trkpt lat="40.7629395" lon="14.8478138"><ele>624.0</ele><time>2026-04-12T09:22:01.952Z</time></trkpt><trkpt lat="40.7629563" lon="14.8478951"><ele>624.0</ele><time>2026-04-12T09:22:04.962Z</time></trkpt><trkpt lat="40.7629221" lon="14.8477888"><ele>624.0</ele><time>2026-04-12T09:22:09.954Z</time></trkpt><trkpt lat="40.7628651" lon="14.8477261"><ele>624.0</ele><time>2026-04-12T09:22:11.97Z</time></trkpt><trkpt lat="40.7628249" lon="14.8476193"><ele>624.0</ele><time>2026-04-12T09:22:13.969Z</time></trkpt><trkpt lat="40.762801" lon="14.847503"><ele>624.0</ele><time>2026-04-12T09:22:15.962Z</time></trkpt><trkpt lat="40.7627935" lon="14.8473844"><ele>624.0</ele><time>2026-04-12T09:22:17.953Z</time></trkpt><trkpt lat="40.762823" lon="14.8472768"><ele>624.0</ele><time>2026-04-12T09:22:19.954Z</time></trkpt><trkpt lat="40.7628528" lon="14.8471652"><ele>624.0</ele><time>2026-04-12T09:22:21.96Z</time></trkpt><trkpt lat="40.7628908" lon="14.8470554"><ele>624.0</ele><time>2026-04-12T09:22:23.953Z</time></trkpt><trkpt lat="40.7629023" lon="14.8469295"><ele>624.0</ele><time>2026-04-12T09:22:25.962Z</time></trkpt><trkpt lat="40.7629272" lon="14.8468332"><ele>624.0</ele><time>2026-04-12T09:22:27.953Z</time></trkpt><trkpt lat="40.7629421" lon="14.8467434"><ele>624.0</ele><time>2026-04-12T09:22:29.946Z</time></trkpt><trkpt lat="40.762986" lon="14.8466699"><ele>624.0</ele><time>2026-04-12T09:22:41.96Z</time></trkpt><trkpt lat="40.7629896" lon="14.8465679"><ele>624.0</ele><time>2026-04-12T09:22:44.96Z</time></trkpt><trkpt lat="40.7629662" lon="14.8464602"><ele>624.0</ele><time>2026-04-12T09:22:46.962Z</time></trkpt><trkpt lat="40.7628976" lon="14.8463254"><ele>621.6</ele><time>2026-04-12T09:22:48.963Z</time></trkpt><trkpt lat="40.7628451" lon="14.8462176"><ele>619.2</ele><time>2026-04-12T09:22:50.938Z</time></trkpt><trkpt lat="40.7628211" lon="14.8460792"><ele>616.8000000000001</ele><time>2026-04-12T09:22:52.954Z</time></trkpt><trkpt lat="40.7627188" lon="14.8459326"><ele>614.4</ele><time>2026-04-12T09:22:55.972Z</time></trkpt><trkpt lat="40.7626846" lon="14.8458335"><ele>612.0</ele><time>2026-04-12T09:22:56.97Z</time></trkpt><trkpt lat="40.7626573" lon="14.8457539"><ele>608.5</ele><time>2026-04-12T09:22:58.975Z</time></trkpt><trkpt lat="40.7626257" lon="14.845677"><ele>605.0</ele><time>2026-04-12T09:23:19.955Z</time></trkpt><trkpt lat="40.7625177" lon="14.8455957"><ele>601.5</ele><time>2026-04-12T09:23:21.96Z</time></trkpt><trkpt lat="40.7624492" lon="14.8455018"><ele>598.0</ele><time>2026-04-12T09:23:24.962Z</time></trkpt><trkpt lat="40.7623788" lon="14.8453082"><ele>598.0</ele><time>2026-04-12T09:23:27.941Z</time></trkpt><trkpt lat="40.7623492" lon="14.845166"><ele>598.0</ele><time>2026-04-12T09:23:29.969Z</time></trkpt><trkpt lat="40.7623092" lon="14.8450681"><ele>598.0</ele><time>2026-04-12T09:23:31.959Z</time></trkpt><trkpt lat="40.7622696" lon="14.8449753"><ele>598.0</ele><time>2026-04-12T09:23:33.968Z</time></trkpt><trkpt lat="40.7621996" lon="14.8448056"><ele>598.0</ele><time>2026-04-12T09:23:35.959Z</time></trkpt><trkpt lat="40.7621682" lon="14.8447062"><ele>596.6666666666667</ele><time>2026-04-12T09:23:37.957Z</time></trkpt><trkpt lat="40.7621657" lon="14.8446054"><ele>595.3333333333334</ele><time>2026-04-12T09:23:39.959Z</time></trkpt><trkpt lat="40.762168" lon="14.8445134"><ele>594.0</ele><time>2026-04-12T09:23:41.962Z</time></trkpt><trkpt lat="40.7621708" lon="14.8444033"><ele>592.6666666666666</ele><time>2026-04-12T09:23:43.976Z</time></trkpt><trkpt lat="40.7621764" lon="14.8442795"><ele>591.3333333333333</ele><time>2026-04-12T09:23:45.967Z</time></trkpt><trkpt lat="40.762199" lon="14.8441912"><ele>590.0</ele><time>2026-04-12T09:23:48.967Z</time></trkpt><trkpt lat="40.7621479" lon="14.8442511"><ele>590.0</ele><time>2026-04-12T09:23:53.952Z</time></trkpt><trkpt lat="40.7620862" lon="14.8443266"><ele>590.0</ele><time>2026-04-12T09:23:55.963Z</time></trkpt><trkpt lat="40.7620387" lon="14.8443943"><ele>590.0</ele><time>2026-04-12T09:23:57.962Z</time></trkpt><trkpt lat="40.7619715" lon="14.8444638"><ele>590.0</ele><time>2026-04-12T09:23:59.965Z</time></trkpt><trkpt lat="40.7619245" lon="14.8445327"><ele>590.0</ele><time>2026-04-12T09:24:01.967Z</time></trkpt><trkpt lat="40.7618704" lon="14.8445953"><ele>590.0</ele><time>2026-04-12T09:24:03.944Z</time></trkpt><trkpt lat="40.7618167" lon="14.8446932"><ele>595.4</ele><time>2026-04-12T09:24:05.959Z</time></trkpt><trkpt lat="40.7617516" lon="14.8448177"><ele>600.8</ele><time>2026-04-12T09:24:07.941Z</time></trkpt><trkpt lat="40.7616964" lon="14.844907"><ele>606.2</ele><time>2026-04-12T09:24:10.05Z</time></trkpt><trkpt lat="40.7616026" lon="14.8450043"><ele>611.6</ele><time>2026-04-12T09:24:14.97Z</time></trkpt><trkpt lat="40.761542" lon="14.8450448"><ele>617.0</ele><time>2026-04-12T09:24:17.043Z</time></trkpt><trkpt lat="40.7614876" lon="14.845113"><ele>617.8333333333333</ele><time>2026-04-12T09:24:19.957Z</time></trkpt><trkpt lat="40.7614707" lon="14.8452235"><ele>618.6666666666666</ele><time>2026-04-12T09:24:22.951Z</time></trkpt><trkpt lat="40.7614914" lon="14.8453097"><ele>619.5</ele><time>2026-04-12T09:24:25.04Z</time></trkpt><trkpt lat="40.7614785" lon="14.8454309"><ele>620.3333333333334</ele><time>2026-04-12T09:24:26.971Z</time></trkpt><trkpt lat="40.7614514" lon="14.8455216"><ele>621.1666666666667</ele><time>2026-04-12T09:24:27.96Z</time></trkpt><trkpt lat="40.7614219" lon="14.8456164"><ele>622.0</ele><time>2026-04-12T09:24:28.973Z</time></trkpt><trkpt lat="40.7613813" lon="14.845754"><ele>622.0</ele><time>2026-04-12T09:24:29.971Z</time></trkpt><trkpt lat="40.7613752" lon="14.845842"><ele>622.0</ele><time>2026-04-12T09:24:30.976Z</time></trkpt><trkpt lat="40.7613649" lon="14.8459282"><ele>622.0</ele><time>2026-04-12T09:24:31.946Z</time></trkpt><trkpt lat="40.7613502" lon="14.8460145"><ele>622.0</ele><time>2026-04-12T09:24:33.046Z</time></trkpt><trkpt lat="40.7613216" lon="14.8461617"><ele>622.0</ele><time>2026-04-12T09:24:34.964Z</time></trkpt><trkpt lat="40.7613164" lon="14.8462691"><ele>622.0</ele><time>2026-04-12T09:24:37.036Z</time></trkpt><trkpt lat="40.7613445" lon="14.8463845"><ele>625.2</ele><time>2026-04-12T09:24:38.96Z</time></trkpt><trkpt lat="40.7614048" lon="14.8464934"><ele>628.4000000000001</ele><time>2026-04-12T09:24:40.954Z</time></trkpt><trkpt lat="40.7614343" lon="14.8465841"><ele>631.5999999999999</ele><time>2026-04-12T09:24:42.952Z</time></trkpt><trkpt lat="40.7614338" lon="14.8466726"><ele>634.8</ele><time>2026-04-12T09:24:46.948Z</time></trkpt><trkpt lat="40.7613627" lon="14.84676"><ele>638.0</ele><time>2026-04-12T09:24:49.952Z</time></trkpt><trkpt lat="40.761269" lon="14.8468444"><ele>639.6666666666666</ele><time>2026-04-12T09:24:51.965Z</time></trkpt><trkpt lat="40.7611977" lon="14.8469078"><ele>641.3333333333333</ele><time>2026-04-12T09:24:54.04Z</time></trkpt><trkpt lat="40.7611302" lon="14.8469444"><ele>643.0</ele><time>2026-04-12T09:24:55.948Z</time></trkpt><trkpt lat="40.7610672" lon="14.8468877"><ele>644.6666666666666</ele><time>2026-04-12T09:24:58.955Z</time></trkpt><trkpt lat="40.7610217" lon="14.8467958"><ele>646.3333333333334</ele><time>2026-04-12T09:25:02.011Z</time></trkpt><trkpt lat="40.7610013" lon="14.8466803"><ele>648.0</ele><time>2026-04-12T09:25:04.962Z</time></trkpt><trkpt lat="40.7609602" lon="14.846616"><ele>650.8</ele><time>2026-04-12T09:25:06.965Z</time></trkpt><trkpt lat="40.7609" lon="14.8465896"><ele>653.5999999999999</ele><time>2026-04-12T09:25:09.957Z</time></trkpt><trkpt lat="40.7608004" lon="14.8466556"><ele>656.4000000000001</ele><time>2026-04-12T09:25:12.965Z</time></trkpt><trkpt lat="40.7607281" lon="14.8467192"><ele>659.2</ele><time>2026-04-12T09:25:15.043Z</time></trkpt><trkpt lat="40.7606614" lon="14.8468083"><ele>662.0</ele><time>2026-04-12T09:25:16.966Z</time></trkpt><trkpt lat="40.7605903" lon="14.8469014"><ele>664.1666666666666</ele><time>2026-04-12T09:25:18.957Z</time></trkpt><trkpt lat="40.7605322" lon="14.8469701"><ele>666.3333333333333</ele><time>2026-04-12T09:25:20.982Z</time></trkpt><trkpt lat="40.7604744" lon="14.8470536"><ele>668.5</ele><time>2026-04-12T09:25:22.969Z</time></trkpt><trkpt lat="40.7604426" lon="14.8471363"><ele>670.6666666666666</ele><time>2026-04-12T09:25:24.977Z</time></trkpt><trkpt lat="40.7603997" lon="14.8472178"><ele>672.8333333333334</ele><time>2026-04-12T09:25:26.959Z</time></trkpt><trkpt lat="40.7603564" lon="14.8473087"><ele>675.0</ele><time>2026-04-12T09:25:28.975Z</time></trkpt><trkpt lat="40.7603128" lon="14.8474175"><ele>675.0</ele><time>2026-04-12T09:25:30.983Z</time></trkpt><trkpt lat="40.7602793" lon="14.8475147"><ele>675.0</ele><time>2026-04-12T09:25:32.965Z</time></trkpt><trkpt lat="40.7602688" lon="14.8476063"><ele>675.0</ele><time>2026-04-12T09:25:34.972Z</time></trkpt><trkpt lat="40.7602641" lon="14.8477061"><ele>675.0</ele><time>2026-04-12T09:25:36.972Z</time></trkpt><trkpt lat="40.7602416" lon="14.8478272"><ele>675.0</ele><time>2026-04-12T09:25:38.954Z</time></trkpt><trkpt lat="40.7602327" lon="14.8479439"><ele>675.0</ele><time>2026-04-12T09:25:40.97Z</time></trkpt><trkpt lat="40.7602133" lon="14.8480638"><ele>680.1666666666666</ele><time>2026-04-12T09:25:42.963Z</time></trkpt><trkpt lat="40.7601936" lon="14.848195"><ele>685.3333333333334</ele><time>2026-04-12T09:25:44.974Z</time></trkpt><trkpt lat="40.7601633" lon="14.8482812"><ele>690.5</ele><time>2026-04-12T09:25:45.963Z</time></trkpt><trkpt lat="40.7601338" lon="14.8483603"><ele>695.6666666666667</ele><time>2026-04-12T09:25:46.969Z</time></trkpt><trkpt lat="40.7601056" lon="14.848446"><ele>700.8333333333334</ele><time>2026-04-12T09:25:47.96Z</time></trkpt><trkpt lat="40.7600819" lon="14.8485241"><ele>706.0</ele><time>2026-04-12T09:25:48.95Z</time></trkpt><trkpt lat="40.7600609" lon="14.848669"><ele>707.75</ele><time>2026-04-12T09:25:50.98Z</time></trkpt><trkpt lat="40.7600223" lon="14.8488132"><ele>709.5</ele><time>2026-04-12T09:25:53.036Z</time></trkpt><trkpt lat="40.7599866" lon="14.8489094"><ele>711.25</ele><time>2026-04-12T09:25:53.962Z</time></trkpt><trkpt lat="40.7599474" lon="14.849069"><ele>713.0</ele><time>2026-04-12T09:25:55.954Z</time></trkpt><trkpt lat="40.7598978" lon="14.8492243"><ele>712.8</ele><time>2026-04-12T09:25:57.962Z</time></trkpt><trkpt lat="40.7598512" lon="14.849363"><ele>712.5999999999999</ele><time>2026-04-12T09:26:00.031Z</time></trkpt><trkpt lat="40.7597908" lon="14.8495173"><ele>712.4000000000001</ele><time>2026-04-12T09:26:01.969Z</time></trkpt><trkpt lat="40.7597468" lon="14.8495956"><ele>712.2</ele><time>2026-04-12T09:26:02.968Z</time></trkpt><trkpt lat="40.7597157" lon="14.8496731"><ele>712.0</ele><time>2026-04-12T09:26:03.97Z</time></trkpt><trkpt lat="40.7596847" lon="14.8497522"><ele>712.0</ele><time>2026-04-12T09:26:04.971Z</time></trkpt><trkpt lat="40.7596242" lon="14.849863"><ele>712.0</ele><time>2026-04-12T09:26:06.978Z</time></trkpt><trkpt lat="40.7595633" lon="14.8500442"><ele>712.0</ele><time>2026-04-12T09:26:09.974Z</time></trkpt><trkpt lat="40.7594958" lon="14.8501741"><ele>712.0</ele><time>2026-04-12T09:26:12.022Z</time></trkpt><trkpt lat="40.759483" lon="14.8502871"><ele>718.5</ele><time>2026-04-12T09:26:13.973Z</time></trkpt><trkpt lat="40.7595265" lon="14.8505282"><ele>725.0</ele><time>2026-04-12T09:26:15.985Z</time></trkpt><trkpt lat="40.7596253" lon="14.85091"><ele>723.3333333333333</ele><time>2026-04-12T09:26:16.967Z</time></trkpt><trkpt lat="40.7596809" lon="14.851178"><ele>721.6666666666666</ele><time>2026-04-12T09:26:17.969Z</time></trkpt><trkpt lat="40.7597081" lon="14.8513664"><ele>720.0</ele><time>2026-04-12T09:26:19.054Z</time></trkpt><trkpt lat="40.7597409" lon="14.8515282"><ele>720.0</ele><time>2026-04-12T09:26:20.049Z</time></trkpt><trkpt lat="40.7597953" lon="14.8516709"><ele>720.0</ele><time>2026-04-12T09:26:20.965Z</time></trkpt><trkpt lat="40.7598622" lon="14.8518468"><ele>720.0</ele><time>2026-04-12T09:26:21.966Z</time></trkpt><trkpt lat="40.7599624" lon="14.8519315"><ele>720.0</ele><time>2026-04-12T09:26:22.951Z</time></trkpt><trkpt lat="40.7600802" lon="14.8519944"><ele>718.75</ele><time>2026-04-12T09:26:23.965Z</time></trkpt><trkpt lat="40.7602148" lon="14.8520526"><ele>717.5</ele><time>2026-04-12T09:26:24.963Z</time></trkpt><trkpt lat="40.7603377" lon="14.8521528"><ele>716.25</ele><time>2026-04-12T09:26:25.962Z</time></trkpt><trkpt lat="40.760458" lon="14.8522397"><ele>715.0</ele><time>2026-04-12T09:26:26.994Z</time></trkpt><trkpt lat="40.760564" lon="14.8523163"><ele>715.0</ele><time>2026-04-12T09:26:27.988Z</time></trkpt><trkpt lat="40.7606671" lon="14.852395"><ele>715.0</ele><time>2026-04-12T09:26:28.972Z</time></trkpt><trkpt lat="40.7607492" lon="14.8524855"><ele>715.0</ele><time>2026-04-12T09:26:30.061Z</time></trkpt><trkpt lat="40.7608188" lon="14.8525918"><ele>715.0</ele><time>2026-04-12T09:26:30.99Z</time></trkpt><trkpt lat="40.7608647" lon="14.8526972"><ele>715.0</ele><time>2026-04-12T09:26:31.991Z</time></trkpt><trkpt lat="40.7609127" lon="14.8527894"><ele>717.5</ele><time>2026-04-12T09:26:33.05Z</time></trkpt><trkpt lat="40.7609787" lon="14.8528537"><ele>720.0</ele><time>2026-04-12T09:26:34.067Z</time></trkpt><trkpt lat="40.7610554" lon="14.8528935"><ele>722.5</ele><time>2026-04-12T09:26:35.008Z</time></trkpt><trkpt lat="40.7611242" lon="14.8528855"><ele>725.0</ele><time>2026-04-12T09:26:35.949Z</time></trkpt><trkpt lat="40.7612142" lon="14.8528295"><ele>727.5</ele><time>2026-04-12T09:26:37.033Z</time></trkpt><trkpt lat="40.7613014" lon="14.85275"><ele>730.0</ele><time>2026-04-12T09:26:38.035Z</time></trkpt><trkpt lat="40.7613796" lon="14.8526535"><ele>727.2</ele><time>2026-04-12T09:26:39.039Z</time></trkpt><trkpt lat="40.7614361" lon="14.8525273"><ele>724.4</ele><time>2026-04-12T09:26:40.062Z</time></trkpt><trkpt lat="40.7614741" lon="14.8523881"><ele>721.5999999999999</ele><time>2026-04-12T09:26:40.966Z</time></trkpt><trkpt lat="40.7615179" lon="14.8522557"><ele>718.8</ele><time>2026-04-12T09:26:41.965Z</time></trkpt><trkpt lat="40.7615821" lon="14.8521288"><ele>716.0</ele><time>2026-04-12T09:26:42.972Z</time></trkpt><trkpt lat="40.7616656" lon="14.8520174"><ele>716.0</ele><time>2026-04-12T09:26:43.967Z</time></trkpt><trkpt lat="40.7617643" lon="14.8519273"><ele>716.0</ele><time>2026-04-12T09:26:45.035Z</time></trkpt><trkpt lat="40.7618618" lon="14.8518698"><ele>716.0</ele><time>2026-04-12T09:26:45.969Z</time></trkpt><trkpt lat="40.76196" lon="14.8518595"><ele>716.0</ele><time>2026-04-12T09:26:46.977Z</time></trkpt><trkpt lat="40.7620637" lon="14.8518563"><ele>716.0</ele><time>2026-04-12T09:26:47.992Z</time></trkpt><trkpt lat="40.7621585" lon="14.8518893"><ele>716.6666666666666</ele><time>2026-04-12T09:26:49.04Z</time></trkpt><trkpt lat="40.7622512" lon="14.8519506"><ele>717.3333333333333</ele><time>2026-04-12T09:26:50.035Z</time></trkpt><trkpt lat="40.762327" lon="14.8520118"><ele>718.0</ele><time>2026-04-12T09:26:50.954Z</time></trkpt><trkpt lat="40.7623911" lon="14.8520677"><ele>718.6666666666666</ele><time>2026-04-12T09:26:51.966Z</time></trkpt><trkpt lat="40.7624548" lon="14.8520686"><ele>719.3333333333334</ele><time>2026-04-12T09:26:52.982Z</time></trkpt><trkpt lat="40.7625049" lon="14.8520153"><ele>720.0</ele><time>2026-04-12T09:26:54.041Z</time></trkpt><trkpt lat="40.7625125" lon="14.8518994"><ele>717.6666666666666</ele><time>2026-04-12T09:26:54.97Z</time></trkpt><trkpt lat="40.7625269" lon="14.8517817"><ele>715.3333333333334</ele><time>2026-04-12T09:26:55.97Z</time></trkpt><trkpt lat="40.7625549" lon="14.8516621"><ele>713.0</ele><time>2026-04-12T09:26:56.972Z</time></trkpt><trkpt lat="40.7625958" lon="14.851563"><ele>710.6666666666667</ele><time>2026-04-12T09:26:57.974Z</time></trkpt><trkpt lat="40.7626486" lon="14.8514878"><ele>708.3333333333334</ele><time>2026-04-12T09:26:58.978Z</time></trkpt><trkpt lat="40.7627104" lon="14.8514379"><ele>706.0</ele><time>2026-04-12T09:27:00.038Z</time></trkpt><trkpt lat="40.762796" lon="14.8514315"><ele>706.0</ele><time>2026-04-12T09:27:00.975Z</time></trkpt><trkpt lat="40.7628869" lon="14.8514603"><ele>706.0</ele><time>2026-04-12T09:27:01.978Z</time></trkpt><trkpt lat="40.7630027" lon="14.8515079"><ele>706.0</ele><time>2026-04-12T09:27:02.998Z</time></trkpt><trkpt lat="40.7631134" lon="14.8515714"><ele>706.0</ele><time>2026-04-12T09:27:03.977Z</time></trkpt><trkpt lat="40.7632241" lon="14.8516284"><ele>706.0</ele><time>2026-04-12T09:27:04.993Z</time></trkpt><trkpt lat="40.7633258" lon="14.8516621"><ele>706.0</ele><time>2026-04-12T09:27:05.981Z</time></trkpt><trkpt lat="40.7634361" lon="14.851692"><ele>706.0</ele><time>2026-04-12T09:27:06.973Z</time></trkpt><trkpt lat="40.7635359" lon="14.8517168"><ele>706.0</ele><time>2026-04-12T09:27:07.978Z</time></trkpt><trkpt lat="40.7636461" lon="14.8517595"><ele>706.0</ele><time>2026-04-12T09:27:08.97Z</time></trkpt><trkpt lat="40.7637537" lon="14.8518053"><ele>704.8</ele><time>2026-04-12T09:27:10.042Z</time></trkpt><trkpt lat="40.763857" lon="14.8518589"><ele>703.5999999999999</ele><time>2026-04-12T09:27:10.98Z</time></trkpt><trkpt lat="40.7639384" lon="14.8519154"><ele>702.4</ele><time>2026-04-12T09:27:11.966Z</time></trkpt><trkpt lat="40.764008" lon="14.851969"><ele>701.2</ele><time>2026-04-12T09:27:12.959Z</time></trkpt><trkpt lat="40.7640605" lon="14.8520512"><ele>700.0</ele><time>2026-04-12T09:27:13.992Z</time></trkpt><trkpt lat="40.76409" lon="14.8521568"><ele>700.0</ele><time>2026-04-12T09:27:14.977Z</time></trkpt><trkpt lat="40.7640959" lon="14.8522832"><ele>700.0</ele><time>2026-04-12T09:27:15.969Z</time></trkpt><trkpt lat="40.7640884" lon="14.8524107"><ele>700.0</ele><time>2026-04-12T09:27:16.977Z</time></trkpt><trkpt lat="40.7640668" lon="14.8525228"><ele>700.0</ele><time>2026-04-12T09:27:18.033Z</time></trkpt><trkpt lat="40.7640664" lon="14.8526229"><ele>700.0</ele><time>2026-04-12T09:27:19.056Z</time></trkpt><trkpt lat="40.7640987" lon="14.852722"><ele>700.0</ele><time>2026-04-12T09:27:20.034Z</time></trkpt><trkpt lat="40.7641367" lon="14.8528066"><ele>699.4</ele><time>2026-04-12T09:27:20.97Z</time></trkpt><trkpt lat="40.7641966" lon="14.8528722"><ele>698.8</ele><time>2026-04-12T09:27:21.975Z</time></trkpt><trkpt lat="40.7642772" lon="14.8529104"><ele>698.2</ele><time>2026-04-12T09:27:23.012Z</time></trkpt><trkpt lat="40.7643723" lon="14.8529634"><ele>697.6</ele><time>2026-04-12T09:27:24.045Z</time></trkpt><trkpt lat="40.7644601" lon="14.8530298"><ele>697.0</ele><time>2026-04-12T09:27:25.052Z</time></trkpt><trkpt lat="40.7645408" lon="14.8531104"><ele>697.0</ele><time>2026-04-12T09:27:25.967Z</time></trkpt><trkpt lat="40.7646195" lon="14.8531773"><ele>697.0</ele><time>2026-04-12T09:27:26.962Z</time></trkpt><trkpt lat="40.7647032" lon="14.8532425"><ele>697.0</ele><time>2026-04-12T09:27:28.003Z</time></trkpt><trkpt lat="40.7647961" lon="14.853277"><ele>697.0</ele><time>2026-04-12T09:27:29.068Z</time></trkpt><trkpt lat="40.7649069" lon="14.8532451"><ele>697.0</ele><time>2026-04-12T09:27:30.049Z</time></trkpt><trkpt lat="40.7650366" lon="14.853203"><ele>697.0</ele><time>2026-04-12T09:27:30.984Z</time></trkpt><trkpt lat="40.7651639" lon="14.853173"><ele>697.0</ele><time>2026-04-12T09:27:32.059Z</time></trkpt><trkpt lat="40.7652847" lon="14.8531756"><ele>697.0</ele><time>2026-04-12T09:27:32.975Z</time></trkpt><trkpt lat="40.7653896" lon="14.8532034"><ele>697.0</ele><time>2026-04-12T09:27:34.043Z</time></trkpt><trkpt lat="40.7654776" lon="14.8532543"><ele>695.3333333333334</ele><time>2026-04-12T09:27:35.039Z</time></trkpt><trkpt lat="40.7655275" lon="14.8533326"><ele>693.6666666666667</ele><time>2026-04-12T09:27:35.958Z</time></trkpt><trkpt lat="40.7655531" lon="14.8534217"><ele>692.0</ele><time>2026-04-12T09:27:36.966Z</time></trkpt><trkpt lat="40.7655554" lon="14.8535139"><ele>690.3333333333334</ele><time>2026-04-12T09:27:37.96Z</time></trkpt><trkpt lat="40.7655441" lon="14.8536369"><ele>688.6666666666666</ele><time>2026-04-12T09:27:39.03Z</time></trkpt><trkpt lat="40.765516" lon="14.8537782"><ele>687.0</ele><time>2026-04-12T09:27:40.079Z</time></trkpt><trkpt lat="40.7654892" lon="14.8540715"><ele>686.2</ele><time>2026-04-12T09:27:42.039Z</time></trkpt><trkpt lat="40.7654997" lon="14.8541882"><ele>685.4000000000001</ele><time>2026-04-12T09:27:43.031Z</time></trkpt><trkpt lat="40.7655412" lon="14.854281"><ele>684.5999999999999</ele><time>2026-04-12T09:27:43.957Z</time></trkpt><trkpt lat="40.7656114" lon="14.8543356"><ele>683.8</ele><time>2026-04-12T09:27:44.972Z</time></trkpt><trkpt lat="40.7657055" lon="14.8543657"><ele>683.0</ele><time>2026-04-12T09:27:45.968Z</time></trkpt><trkpt lat="40.7658133" lon="14.8543437"><ele>682.5</ele><time>2026-04-12T09:27:46.967Z</time></trkpt><trkpt lat="40.7659244" lon="14.8542987"><ele>682.0</ele><time>2026-04-12T09:27:47.967Z</time></trkpt><trkpt lat="40.7660417" lon="14.8542392"><ele>681.5</ele><time>2026-04-12T09:27:48.964Z</time></trkpt><trkpt lat="40.766154" lon="14.8541709"><ele>681.0</ele><time>2026-04-12T09:27:50.01Z</time></trkpt><trkpt lat="40.7662609" lon="14.8541082"><ele>681.0</ele><time>2026-04-12T09:27:50.989Z</time></trkpt><trkpt lat="40.7663675" lon="14.8540558"><ele>681.0</ele><time>2026-04-12T09:27:51.964Z</time></trkpt><trkpt lat="40.7664718" lon="14.8540045"><ele>681.0</ele><time>2026-04-12T09:27:52.966Z</time></trkpt><trkpt lat="40.7665659" lon="14.8539458"><ele>681.0</ele><time>2026-04-12T09:27:53.968Z</time></trkpt><trkpt lat="40.7666665" lon="14.8538904"><ele>681.0</ele><time>2026-04-12T09:27:54.967Z</time></trkpt><trkpt lat="40.7667683" lon="14.8538409"><ele>680.1999999999999</ele><time>2026-04-12T09:27:55.969Z</time></trkpt><trkpt lat="40.7668766" lon="14.8537968"><ele>679.4</ele><time>2026-04-12T09:27:56.97Z</time></trkpt><trkpt lat="40.7669847" lon="14.8537495"><ele>678.6</ele><time>2026-04-12T09:27:57.971Z</time></trkpt><trkpt lat="40.7670902" lon="14.853702"><ele>677.8</ele><time>2026-04-12T09:27:59.072Z</time></trkpt><trkpt lat="40.7671828" lon="14.8536352"><ele>677.0</ele><time>2026-04-12T09:28:00.043Z</time></trkpt><trkpt lat="40.7672482" lon="14.853541"><ele>676.3333333333333</ele><time>2026-04-12T09:28:00.962Z</time></trkpt><trkpt lat="40.7672954" lon="14.8534373"><ele>675.6666666666666</ele><time>2026-04-12T09:28:01.96Z</time></trkpt><trkpt lat="40.7673244" lon="14.8533405"><ele>675.0</ele><time>2026-04-12T09:28:02.968Z</time></trkpt><trkpt lat="40.7673501" lon="14.8532613"><ele>674.3333333333334</ele><time>2026-04-12T09:28:03.967Z</time></trkpt><trkpt lat="40.7674275" lon="14.8531645"><ele>673.6666666666667</ele><time>2026-04-12T09:28:05.969Z</time></trkpt><trkpt lat="40.7675216" lon="14.8531544"><ele>673.0</ele><time>2026-04-12T09:28:08.067Z</time></trkpt><trkpt lat="40.7676346" lon="14.8532511"><ele>673.2</ele><time>2026-04-12T09:28:10.033Z</time></trkpt><trkpt lat="40.7677183" lon="14.8533285"><ele>673.4</ele><time>2026-04-12T09:28:10.962Z</time></trkpt><trkpt lat="40.7678066" lon="14.853414"><ele>673.6</ele><time>2026-04-12T09:28:11.973Z</time></trkpt><trkpt lat="40.7679014" lon="14.8535092"><ele>673.8000000000001</ele><time>2026-04-12T09:28:12.986Z</time></trkpt><trkpt lat="40.7679907" lon="14.8535996"><ele>674.0</ele><time>2026-04-12T09:28:14.024Z</time></trkpt><trkpt lat="40.7680766" lon="14.8536684"><ele>674.1666666666666</ele><time>2026-04-12T09:28:15.022Z</time></trkpt><trkpt lat="40.7681699" lon="14.8537092"><ele>674.3333333333333</ele><time>2026-04-12T09:28:16.003Z</time></trkpt><trkpt lat="40.7682474" lon="14.8537329"><ele>674.5</ele><time>2026-04-12T09:28:17.01Z</time></trkpt><trkpt lat="40.7683433" lon="14.8537519"><ele>674.6666666666666</ele><time>2026-04-12T09:28:18.954Z</time></trkpt><trkpt lat="40.7684075" lon="14.8537514"><ele>674.8333333333334</ele><time>2026-04-12T09:28:54.966Z</time></trkpt><trkpt lat="40.7683457" lon="14.8538059"><ele>675.0</ele><time>2026-04-12T09:28:58.953Z</time></trkpt><trkpt lat="40.7683098" lon="14.8538901"><ele>675.0</ele><time>2026-04-12T09:29:00.944Z</time></trkpt><trkpt lat="40.7682982" lon="14.8539996"><ele>675.0</ele><time>2026-04-12T09:29:02.941Z</time></trkpt><trkpt lat="40.7683365" lon="14.8541017"><ele>675.0</ele><time>2026-04-12T09:29:04.944Z</time></trkpt><trkpt lat="40.7684324" lon="14.8541959"><ele>675.0</ele><time>2026-04-12T09:29:06.957Z</time></trkpt><trkpt lat="40.7684943" lon="14.854237"><ele>675.0</ele><time>2026-04-12T09:29:07.97Z</time></trkpt><trkpt lat="40.7686318" lon="14.8542835"><ele>676.2</ele><time>2026-04-12T09:29:09.963Z</time></trkpt><trkpt lat="40.7687174" lon="14.8542915"><ele>677.4</ele><time>2026-04-12T09:29:10.984Z</time></trkpt><trkpt lat="40.7688283" lon="14.8542811"><ele>678.5999999999999</ele><time>2026-04-12T09:29:11.957Z</time></trkpt><trkpt lat="40.7689319" lon="14.8542551"><ele>679.8</ele><time>2026-04-12T09:29:12.961Z</time></trkpt><trkpt lat="40.76902" lon="14.854239"><ele>681.0</ele><time>2026-04-12T09:29:13.96Z</time></trkpt><trkpt lat="40.7690881" lon="14.8542287"><ele>681.0</ele><time>2026-04-12T09:29:14.972Z</time></trkpt><trkpt lat="40.7691674" lon="14.8542291"><ele>681.0</ele><time>2026-04-12T09:29:15.972Z</time></trkpt><trkpt lat="40.7692716" lon="14.8542454"><ele>681.0</ele><time>2026-04-12T09:29:17.968Z</time></trkpt><trkpt lat="40.7693486" lon="14.8543433"><ele>681.0</ele><time>2026-04-12T09:29:20.966Z</time></trkpt><trkpt lat="40.7694368" lon="14.8544374"><ele>681.0</ele><time>2026-04-12T09:29:22.976Z</time></trkpt><trkpt lat="40.7695247" lon="14.8544849"><ele>683.8</ele><time>2026-04-12T09:29:23.958Z</time></trkpt><trkpt lat="40.7696005" lon="14.8545558"><ele>686.5999999999999</ele><time>2026-04-12T09:29:24.969Z</time></trkpt><trkpt lat="40.7696686" lon="14.8546239"><ele>689.4</ele><time>2026-04-12T09:29:25.979Z</time></trkpt><trkpt lat="40.7697374" lon="14.8547199"><ele>692.2</ele><time>2026-04-12T09:29:26.964Z</time></trkpt><trkpt lat="40.7697822" lon="14.8548308"><ele>695.0</ele><time>2026-04-12T09:29:27.967Z</time></trkpt><trkpt lat="40.7698194" lon="14.854958"><ele>695.0</ele><time>2026-04-12T09:29:28.962Z</time></trkpt><trkpt lat="40.7698536" lon="14.8550778"><ele>695.0</ele><time>2026-04-12T09:29:29.969Z</time></trkpt><trkpt lat="40.7698569" lon="14.8551616"><ele>695.0</ele><time>2026-04-12T09:29:30.966Z</time></trkpt><trkpt lat="40.7698225" lon="14.8552487"><ele>695.0</ele><time>2026-04-12T09:29:31.978Z</time></trkpt><trkpt lat="40.7697794" lon="14.8553417"><ele>695.0</ele><time>2026-04-12T09:29:32.989Z</time></trkpt><trkpt lat="40.769745" lon="14.8554366"><ele>695.0</ele><time>2026-04-12T09:29:33.989Z</time></trkpt><trkpt lat="40.769731" lon="14.8555445"><ele>695.0</ele><time>2026-04-12T09:29:34.963Z</time></trkpt><trkpt lat="40.7697141" lon="14.8556639"><ele>695.0</ele><time>2026-04-12T09:29:35.974Z</time></trkpt><trkpt lat="40.7697055" lon="14.8557613"><ele>695.0</ele><time>2026-04-12T09:29:36.968Z</time></trkpt><trkpt lat="40.7697569" lon="14.8559119"><ele>695.0</ele><time>2026-04-12T09:29:38.971Z</time></trkpt><trkpt lat="40.769814" lon="14.8559518"><ele>695.0</ele><time>2026-04-12T09:29:40.038Z</time></trkpt><trkpt lat="40.7698838" lon="14.8559886"><ele>695.0</ele><time>2026-04-12T09:29:40.973Z</time></trkpt><trkpt lat="40.7699521" lon="14.8560363"><ele>695.2</ele><time>2026-04-12T09:29:41.986Z</time></trkpt><trkpt lat="40.7700276" lon="14.8560761"><ele>695.4</ele><time>2026-04-12T09:29:42.998Z</time></trkpt><trkpt lat="40.7701169" lon="14.856119"><ele>695.5999999999999</ele><time>2026-04-12T09:29:43.988Z</time></trkpt><trkpt lat="40.7702049" lon="14.8561496"><ele>695.8</ele><time>2026-04-12T09:29:44.984Z</time></trkpt><trkpt lat="40.7703081" lon="14.8561842"><ele>696.0</ele><time>2026-04-12T09:29:45.985Z</time></trkpt><trkpt lat="40.7704183" lon="14.8562387"><ele>696.0</ele><time>2026-04-12T09:29:46.976Z</time></trkpt><trkpt lat="40.7705197" lon="14.8562759"><ele>696.0</ele><time>2026-04-12T09:29:47.977Z</time></trkpt><trkpt lat="40.770609" lon="14.8562991"><ele>696.0</ele><time>2026-04-12T09:29:48.973Z</time></trkpt><trkpt lat="40.770687" lon="14.8563399"><ele>696.0</ele><time>2026-04-12T09:29:49.978Z</time></trkpt><trkpt lat="40.7707563" lon="14.856399"><ele>696.0</ele><time>2026-04-12T09:29:50.98Z</time></trkpt><trkpt lat="40.7708311" lon="14.8564544"><ele>696.0</ele><time>2026-04-12T09:29:51.98Z</time></trkpt><trkpt lat="40.7709015" lon="14.8564769"><ele>696.0</ele><time>2026-04-12T09:29:53.032Z</time></trkpt><trkpt lat="40.7709889" lon="14.8564772"><ele>696.0</ele><time>2026-04-12T09:29:54.052Z</time></trkpt><trkpt lat="40.7710786" lon="14.8564609"><ele>696.0</ele><time>2026-04-12T09:29:55.045Z</time></trkpt><trkpt lat="40.7711592" lon="14.856458"><ele>696.0</ele><time>2026-04-12T09:29:55.97Z</time></trkpt><trkpt lat="40.7712449" lon="14.856464"><ele>696.0</ele><time>2026-04-12T09:29:56.963Z</time></trkpt><trkpt lat="40.7713429" lon="14.8564812"><ele>696.0</ele><time>2026-04-12T09:29:57.97Z</time></trkpt><trkpt lat="40.7714384" lon="14.8565002"><ele>698.3333333333334</ele><time>2026-04-12T09:29:58.97Z</time></trkpt><trkpt lat="40.7715343" lon="14.8565268"><ele>700.6666666666666</ele><time>2026-04-12T09:29:59.971Z</time></trkpt><trkpt lat="40.7716303" lon="14.8565587"><ele>703.0</ele><time>2026-04-12T09:30:00.961Z</time></trkpt><trkpt lat="40.7717111" lon="14.8565933"><ele>705.3333333333333</ele><time>2026-04-12T09:30:02.039Z</time></trkpt><trkpt lat="40.7717757" lon="14.8566358"><ele>707.6666666666666</ele><time>2026-04-12T09:30:03.038Z</time></trkpt><trkpt lat="40.7718331" lon="14.8566985"><ele>710.0</ele><time>2026-04-12T09:30:04.035Z</time></trkpt><trkpt lat="40.7718851" lon="14.8567698"><ele>713.1666666666666</ele><time>2026-04-12T09:30:04.974Z</time></trkpt><trkpt lat="40.7719484" lon="14.856823"><ele>716.3333333333333</ele><time>2026-04-12T09:30:05.98Z</time></trkpt><trkpt lat="40.7720166" lon="14.8568701"><ele>719.5</ele><time>2026-04-12T09:30:06.972Z</time></trkpt><trkpt lat="40.7720809" lon="14.8569133"><ele>722.6666666666666</ele><time>2026-04-12T09:30:07.983Z</time></trkpt><trkpt lat="40.7721491" lon="14.8569501"><ele>725.8333333333334</ele><time>2026-04-12T09:30:08.978Z</time></trkpt><trkpt lat="40.7721988" lon="14.8570053"><ele>729.0</ele><time>2026-04-12T09:30:10.055Z</time></trkpt><trkpt lat="40.7722807" lon="14.8571484"><ele>729.0</ele><time>2026-04-12T09:30:11.966Z</time></trkpt><trkpt lat="40.7723174" lon="14.8572276"><ele>729.0</ele><time>2026-04-12T09:30:12.975Z</time></trkpt><trkpt lat="40.7723534" lon="14.8573127"><ele>729.0</ele><time>2026-04-12T09:30:13.969Z</time></trkpt><trkpt lat="40.7723989" lon="14.8574133"><ele>729.0</ele><time>2026-04-12T09:30:14.96Z</time></trkpt><trkpt lat="40.7724473" lon="14.8575175"><ele>729.0</ele><time>2026-04-12T09:30:15.963Z</time></trkpt><trkpt lat="40.772498" lon="14.857626"><ele>729.0</ele><time>2026-04-12T09:30:16.978Z</time></trkpt><trkpt lat="40.7725477" lon="14.8577363"><ele>728.6</ele><time>2026-04-12T09:30:17.96Z</time></trkpt><trkpt lat="40.7725901" lon="14.857852"><ele>728.2</ele><time>2026-04-12T09:30:18.955Z</time></trkpt><trkpt lat="40.7726179" lon="14.8579595"><ele>727.8000000000001</ele><time>2026-04-12T09:30:19.954Z</time></trkpt><trkpt lat="40.7726362" lon="14.8580735"><ele>727.4000000000001</ele><time>2026-04-12T09:30:20.956Z</time></trkpt><trkpt lat="40.7726563" lon="14.8582076"><ele>727.0</ele><time>2026-04-12T09:30:21.965Z</time></trkpt><trkpt lat="40.772675" lon="14.8583456"><ele>731.0</ele><time>2026-04-12T09:30:22.96Z</time></trkpt><trkpt lat="40.7726895" lon="14.858478"><ele>735.0</ele><time>2026-04-12T09:30:23.965Z</time></trkpt><trkpt lat="40.7727013" lon="14.8585945"><ele>739.0</ele><time>2026-04-12T09:30:24.956Z</time></trkpt><trkpt lat="40.7727122" lon="14.8586832"><ele>743.0</ele><time>2026-04-12T09:30:25.967Z</time></trkpt><trkpt lat="40.7727189" lon="14.8587752"><ele>747.0</ele><time>2026-04-12T09:30:26.96Z</time></trkpt><trkpt lat="40.7727146" lon="14.8588743"><ele>751.0</ele><time>2026-04-12T09:30:28.06Z</time></trkpt><trkpt lat="40.7727022" lon="14.8589684"><ele>751.0</ele><time>2026-04-12T09:30:29.033Z</time></trkpt><trkpt lat="40.7727175" lon="14.8590639"><ele>751.0</ele><time>2026-04-12T09:30:30.037Z</time></trkpt><trkpt lat="40.772745" lon="14.8591823"><ele>751.0</ele><time>2026-04-12T09:30:31.017Z</time></trkpt><trkpt lat="40.7727713" lon="14.8593115"><ele>751.0</ele><time>2026-04-12T09:30:32.048Z</time></trkpt><trkpt lat="40.7728077" lon="14.8594296"><ele>751.0</ele><time>2026-04-12T09:30:33.046Z</time></trkpt><trkpt lat="40.7728496" lon="14.8595327"><ele>751.1999999999999</ele><time>2026-04-12T09:30:34.055Z</time></trkpt><trkpt lat="40.7728871" lon="14.8596431"><ele>751.4</ele><time>2026-04-12T09:30:35.042Z</time></trkpt><trkpt lat="40.7729245" lon="14.8597529"><ele>751.6</ele><time>2026-04-12T09:30:35.959Z</time></trkpt><trkpt lat="40.7729616" lon="14.8598713"><ele>751.8</ele><time>2026-04-12T09:30:37.067Z</time></trkpt><trkpt lat="40.7729964" lon="14.8600017"><ele>752.0</ele><time>2026-04-12T09:30:37.972Z</time></trkpt><trkpt lat="40.773029" lon="14.8601274"><ele>752.0</ele><time>2026-04-12T09:30:38.976Z</time></trkpt><trkpt lat="40.7730716" lon="14.8602502"><ele>752.0</ele><time>2026-04-12T09:30:39.97Z</time></trkpt><trkpt lat="40.7731147" lon="14.8603661"><ele>752.0</ele><time>2026-04-12T09:30:40.98Z</time></trkpt><trkpt lat="40.7731626" lon="14.8604778"><ele>752.0</ele><time>2026-04-12T09:30:41.978Z</time></trkpt><trkpt lat="40.7732109" lon="14.8605798"><ele>752.0</ele><time>2026-04-12T09:30:43.031Z</time></trkpt><trkpt lat="40.7732397" lon="14.8606573"><ele>752.0</ele><time>2026-04-12T09:30:44.034Z</time></trkpt><trkpt lat="40.7733053" lon="14.8608031"><ele>752.0</ele><time>2026-04-12T09:30:45.974Z</time></trkpt><trkpt lat="40.7733587" lon="14.8609693"><ele>752.0</ele><time>2026-04-12T09:30:47.962Z</time></trkpt><trkpt lat="40.7733825" lon="14.8610748"><ele>752.0</ele><time>2026-04-12T09:30:48.977Z</time></trkpt><trkpt lat="40.7734211" lon="14.8611843"><ele>752.0</ele><time>2026-04-12T09:30:49.977Z</time></trkpt><trkpt lat="40.773445" lon="14.8612821"><ele>752.3333333333333</ele><time>2026-04-12T09:30:50.964Z</time></trkpt><trkpt lat="40.7734695" lon="14.8613847"><ele>752.6666666666666</ele><time>2026-04-12T09:30:52.038Z</time></trkpt><trkpt lat="40.7735083" lon="14.8614824"><ele>753.0</ele><time>2026-04-12T09:30:52.987Z</time></trkpt><trkpt lat="40.7735539" lon="14.8615813"><ele>753.3333333333334</ele><time>2026-04-12T09:30:53.973Z</time></trkpt><trkpt lat="40.7735917" lon="14.8616705"><ele>753.6666666666667</ele><time>2026-04-12T09:30:54.987Z</time></trkpt><trkpt lat="40.7736178" lon="14.8617582"><ele>754.0</ele><time>2026-04-12T09:30:55.981Z</time></trkpt><trkpt lat="40.7736405" lon="14.8618603"><ele>761.0</ele><time>2026-04-12T09:30:56.977Z</time></trkpt><trkpt lat="40.7736577" lon="14.8619671"><ele>768.0</ele><time>2026-04-12T09:30:57.984Z</time></trkpt><trkpt lat="40.7736872" lon="14.8620623"><ele>775.0</ele><time>2026-04-12T09:30:58.956Z</time></trkpt><trkpt lat="40.7737299" lon="14.8621396"><ele>782.0</ele><time>2026-04-12T09:30:59.981Z</time></trkpt><trkpt lat="40.7737787" lon="14.8622102"><ele>788.9999999999999</ele><time>2026-04-12T09:31:00.976Z</time></trkpt><trkpt lat="40.7738268" lon="14.8622772"><ele>796.0</ele><time>2026-04-12T09:31:02.077Z</time></trkpt><trkpt lat="40.7739031" lon="14.8623737"><ele>795.9999999999999</ele><time>2026-04-12T09:31:03.978Z</time></trkpt><trkpt lat="40.7739746" lon="14.8624309"><ele>796.0</ele><time>2026-04-12T09:31:06.984Z</time></trkpt><trkpt lat="40.7740508" lon="14.8624662"><ele>796.0</ele><time>2026-04-12T09:31:09.999Z</time></trkpt><trkpt lat="40.774132" lon="14.8625117"><ele>796.0</ele><time>2026-04-12T09:31:28.976Z</time></trkpt><trkpt lat="40.774199" lon="14.8625778"><ele>795.9999999999999</ele><time>2026-04-12T09:31:30.952Z</time></trkpt><trkpt lat="40.7742635" lon="14.8626331"><ele>796.0</ele><time>2026-04-12T09:31:31.972Z</time></trkpt><trkpt lat="40.7743183" lon="14.8626924"><ele>798.8333333333333</ele><time>2026-04-12T09:31:32.978Z</time></trkpt><trkpt lat="40.7743725" lon="14.8627535"><ele>801.6666666666666</ele><time>2026-04-12T09:31:33.963Z</time></trkpt><trkpt lat="40.7744652" lon="14.8628298"><ele>804.5</ele><time>2026-04-12T09:31:36.001Z</time></trkpt><trkpt lat="40.7745553" lon="14.8628394"><ele>807.3333333333333</ele><time>2026-04-12T09:31:37.958Z</time></trkpt><trkpt lat="40.7746233" lon="14.8628875"><ele>810.1666666666666</ele><time>2026-04-12T09:31:38.952Z</time></trkpt><trkpt lat="40.7746845" lon="14.8629522"><ele>813.0</ele><time>2026-04-12T09:31:39.959Z</time></trkpt><trkpt lat="40.7747389" lon="14.8630044"><ele>813.0</ele><time>2026-04-12T09:31:40.953Z</time></trkpt><trkpt lat="40.774796" lon="14.8631258"><ele>813.0</ele><time>2026-04-12T09:31:42.953Z</time></trkpt><trkpt lat="40.7748267" lon="14.8632949"><ele>813.0</ele><time>2026-04-12T09:31:44.958Z</time></trkpt><trkpt lat="40.7748324" lon="14.8633895"><ele>813.0</ele><time>2026-04-12T09:31:45.977Z</time></trkpt><trkpt lat="40.7748331" lon="14.8634837"><ele>813.0</ele><time>2026-04-12T09:31:46.982Z</time></trkpt><trkpt lat="40.7748351" lon="14.8635728"><ele>815.2857142857143</ele><time>2026-04-12T09:31:47.969Z</time></trkpt><trkpt lat="40.7748547" lon="14.8636615"><ele>817.5714285714286</ele><time>2026-04-12T09:31:48.983Z</time></trkpt><trkpt lat="40.7748654" lon="14.8637494"><ele>819.8571428571429</ele><time>2026-04-12T09:31:49.977Z</time></trkpt><trkpt lat="40.7748705" lon="14.8638435"><ele>822.1428571428571</ele><time>2026-04-12T09:31:50.979Z</time></trkpt><trkpt lat="40.774872" lon="14.8639387"><ele>824.4285714285713</ele><time>2026-04-12T09:31:51.977Z</time></trkpt><trkpt lat="40.774865" lon="14.8640278"><ele>826.7142857142857</ele><time>2026-04-12T09:31:52.976Z</time></trkpt><trkpt lat="40.7748623" lon="14.8641195"><ele>829.0</ele><time>2026-04-12T09:31:53.974Z</time></trkpt><trkpt lat="40.7748715" lon="14.8642779"><ele>831.5714285714286</ele><time>2026-04-12T09:31:55.98Z</time></trkpt><trkpt lat="40.7748867" lon="14.8643685"><ele>834.1428571428571</ele><time>2026-04-12T09:31:56.96Z</time></trkpt><trkpt lat="40.7749089" lon="14.8644557"><ele>836.7142857142858</ele><time>2026-04-12T09:31:57.984Z</time></trkpt><trkpt lat="40.7749406" lon="14.8645377"><ele>839.2857142857142</ele><time>2026-04-12T09:31:58.977Z</time></trkpt><trkpt lat="40.7749754" lon="14.8646265"><ele>841.8571428571429</ele><time>2026-04-12T09:31:59.972Z</time></trkpt><trkpt lat="40.7750145" lon="14.8647154"><ele>844.4285714285714</ele><time>2026-04-12T09:32:00.984Z</time></trkpt><trkpt lat="40.7750563" lon="14.8648096"><ele>847.0</ele><time>2026-04-12T09:32:01.968Z</time></trkpt><trkpt lat="40.7750976" lon="14.8648957"><ele>847.0</ele><time>2026-04-12T09:32:02.951Z</time></trkpt><trkpt lat="40.775138" lon="14.8649859"><ele>847.0</ele><time>2026-04-12T09:32:03.963Z</time></trkpt><trkpt lat="40.7751741" lon="14.8650731"><ele>847.0</ele><time>2026-04-12T09:32:04.974Z</time></trkpt><trkpt lat="40.7752121" lon="14.8651564"><ele>847.0</ele><time>2026-04-12T09:32:05.974Z</time></trkpt><trkpt lat="40.7752538" lon="14.865236"><ele>847.0</ele><time>2026-04-12T09:32:06.974Z</time></trkpt><trkpt lat="40.7752934" lon="14.865317"><ele>847.0</ele><time>2026-04-12T09:32:07.959Z</time></trkpt><trkpt lat="40.7753237" lon="14.8654017"><ele>847.0</ele><time>2026-04-12T09:32:08.967Z</time></trkpt><trkpt lat="40.7753395" lon="14.8654909"><ele>852.6</ele><time>2026-04-12T09:32:09.952Z</time></trkpt><trkpt lat="40.7753548" lon="14.8655794"><ele>858.2</ele><time>2026-04-12T09:32:10.972Z</time></trkpt><trkpt lat="40.7753648" lon="14.8657347"><ele>863.8</ele><time>2026-04-12T09:32:12.985Z</time></trkpt><trkpt lat="40.7753579" lon="14.8658951"><ele>869.4</ele><time>2026-04-12T09:32:14.979Z</time></trkpt><trkpt lat="40.7753783" lon="14.8660536"><ele>875.0</ele><time>2026-04-12T09:32:16.969Z</time></trkpt><trkpt lat="40.7753853" lon="14.8662062"><ele>877.1666666666667</ele><time>2026-04-12T09:32:18.981Z</time></trkpt><trkpt lat="40.7753709" lon="14.8663114"><ele>879.3333333333334</ele><time>2026-04-12T09:32:20.975Z</time></trkpt><trkpt lat="40.7753249" lon="14.8663753"><ele>881.5</ele><time>2026-04-12T09:32:22.963Z</time></trkpt><trkpt lat="40.7752448" lon="14.8664042"><ele>883.6666666666667</ele><time>2026-04-12T09:32:25.977Z</time></trkpt><trkpt lat="40.7751942" lon="14.8663173"><ele>885.8333333333334</ele><time>2026-04-12T09:32:28.962Z</time></trkpt><trkpt lat="40.7751674" lon="14.8662118"><ele>888.0</ele><time>2026-04-12T09:32:31.977Z</time></trkpt><trkpt lat="40.7751518" lon="14.8661232"><ele>883.6666666666666</ele><time>2026-04-12T09:32:33.98Z</time></trkpt><trkpt lat="40.7751375" lon="14.8660379"><ele>879.3333333333333</ele><time>2026-04-12T09:32:35.977Z</time></trkpt><trkpt lat="40.7751273" lon="14.8659285"><ele>875.0</ele><time>2026-04-12T09:32:37.969Z</time></trkpt><trkpt lat="40.7751164" lon="14.8658213"><ele>870.6666666666666</ele><time>2026-04-12T09:32:39.997Z</time></trkpt><trkpt lat="40.7750923" lon="14.8657074"><ele>866.3333333333333</ele><time>2026-04-12T09:32:42.964Z</time></trkpt><trkpt lat="40.7750687" lon="14.8656172"><ele>862.0</ele><time>2026-04-12T09:32:44.981Z</time></trkpt><trkpt lat="40.7750368" lon="14.8655368"><ele>861.9999999999999</ele><time>2026-04-12T09:32:46.967Z</time></trkpt><trkpt lat="40.7749766" lon="14.8654717"><ele>862.0</ele><time>2026-04-12T09:32:49.045Z</time></trkpt><trkpt lat="40.7749033" lon="14.8654463"><ele>862.0</ele><time>2026-04-12T09:32:50.973Z</time></trkpt><trkpt lat="40.7748241" lon="14.8654202"><ele>862.0</ele><time>2026-04-12T09:32:53.006Z</time></trkpt><trkpt lat="40.7747548" lon="14.8653853"><ele>861.9999999999999</ele><time>2026-04-12T09:32:54.982Z</time></trkpt><trkpt lat="40.7746695" lon="14.8653352"><ele>862.0</ele><time>2026-04-12T09:32:57.996Z</time></trkpt><trkpt lat="40.7745911" lon="14.8652983"><ele>861.9999999999999</ele><time>2026-04-12T09:32:59.974Z</time></trkpt><trkpt lat="40.774533" lon="14.8652539"><ele>862.0</ele><time>2026-04-12T09:33:01.983Z</time></trkpt><trkpt lat="40.7744752" lon="14.865178"><ele>862.0</ele><time>2026-04-12T09:33:07.011Z</time></trkpt><trkpt lat="40.7744204" lon="14.8652458"><ele>862.0</ele><time>2026-04-12T09:33:09.962Z</time></trkpt><trkpt lat="40.7744" lon="14.8653479"><ele>861.9999999999999</ele><time>2026-04-12T09:33:12.974Z</time></trkpt><trkpt lat="40.7744482" lon="14.8654511"><ele>862.0</ele><time>2026-04-12T09:33:15.977Z</time></trkpt><trkpt lat="40.7745015" lon="14.8655361"><ele>862.0</ele><time>2026-04-12T09:33:18.04Z</time></trkpt><trkpt lat="40.7745724" lon="14.8656061"><ele>862.0</ele><time>2026-04-12T09:33:20.025Z</time></trkpt><trkpt lat="40.7746915" lon="14.8656122"><ele>862.0</ele><time>2026-04-12T09:33:21.969Z</time></trkpt><trkpt lat="40.7748043" lon="14.8656259"><ele>862.0</ele><time>2026-04-12T09:33:23.971Z</time></trkpt><trkpt lat="40.7749215" lon="14.865678"><ele>862.0</ele><time>2026-04-12T09:33:25.965Z</time></trkpt><trkpt lat="40.7750134" lon="14.865751"><ele>862.0</ele><time>2026-04-12T09:33:27.954Z</time></trkpt><trkpt lat="40.7751004" lon="14.8658534"><ele>862.0</ele><time>2026-04-12T09:33:30.045Z</time></trkpt><trkpt lat="40.7751364" lon="14.8659756"><ele>862.0</ele><time>2026-04-12T09:33:31.968Z</time></trkpt><trkpt lat="40.7751657" lon="14.8661037"><ele>862.0</ele><time>2026-04-12T09:33:33.974Z</time></trkpt><trkpt lat="40.7751694" lon="14.8662166"><ele>862.0</ele><time>2026-04-12T09:33:35.951Z</time></trkpt><trkpt lat="40.7751662" lon="14.866301"><ele>866.3333333333333</ele><time>2026-04-12T09:33:37.959Z</time></trkpt><trkpt lat="40.7752038" lon="14.8663947"><ele>870.6666666666666</ele><time>2026-04-12T09:33:39.972Z</time></trkpt><trkpt lat="40.77526" lon="14.8664944"><ele>875.0</ele><time>2026-04-12T09:33:41.961Z</time></trkpt><trkpt lat="40.7752935" lon="14.8665996"><ele>879.3333333333333</ele><time>2026-04-12T09:33:44.969Z</time></trkpt><trkpt lat="40.7753637" lon="14.8665932"><ele>883.6666666666666</ele><time>2026-04-12T09:33:48.951Z</time></trkpt><trkpt lat="40.7753628" lon="14.8665056"><ele>888.0</ele><time>2026-04-12T09:33:54.074Z</time></trkpt><trkpt lat="40.7753024" lon="14.8664419"><ele>888.0</ele><time>2026-04-12T09:33:56.974Z</time></trkpt><trkpt lat="40.7752411" lon="14.8663777"><ele>888.0</ele><time>2026-04-12T09:33:58.972Z</time></trkpt><trkpt lat="40.775198" lon="14.8662916"><ele>888.0</ele><time>2026-04-12T09:34:02.976Z</time></trkpt><trkpt lat="40.7751741" lon="14.866213"><ele>888.0</ele><time>2026-04-12T09:34:06.986Z</time></trkpt><trkpt lat="40.7751571" lon="14.86613"><ele>888.0</ele><time>2026-04-12T09:34:11.968Z</time></trkpt><trkpt lat="40.7751582" lon="14.8660436"><ele>888.0</ele><time>2026-04-12T09:34:14.969Z</time></trkpt><trkpt lat="40.775167" lon="14.8659591"><ele>888.0</ele><time>2026-04-12T09:34:17.98Z</time></trkpt><trkpt lat="40.7751903" lon="14.8658676"><ele>885.8333333333334</ele><time>2026-04-12T09:34:20.978Z</time></trkpt><trkpt lat="40.7751899" lon="14.8657624"><ele>883.6666666666667</ele><time>2026-04-12T09:34:23.969Z</time></trkpt><trkpt lat="40.7751697" lon="14.8656646"><ele>881.5</ele><time>2026-04-12T09:34:26.972Z</time></trkpt><trkpt lat="40.7751445" lon="14.8655703"><ele>879.3333333333334</ele><time>2026-04-12T09:34:29.976Z</time></trkpt><trkpt lat="40.7751078" lon="14.8655007"><ele>877.1666666666667</ele><time>2026-04-12T09:34:32.975Z</time></trkpt><trkpt lat="40.7750174" lon="14.8654713"><ele>875.0</ele><time>2026-04-12T09:34:36.976Z</time></trkpt><trkpt lat="40.7749557" lon="14.8654522"><ele>873.1428571428571</ele><time>2026-04-12T09:34:37.973Z</time></trkpt><trkpt lat="40.7748881" lon="14.865433"><ele>871.2857142857142</ele><time>2026-04-12T09:34:38.972Z</time></trkpt><trkpt lat="40.7748135" lon="14.8654033"><ele>869.4285714285714</ele><time>2026-04-12T09:34:40.052Z</time></trkpt><trkpt lat="40.7747466" lon="14.8653677"><ele>867.5714285714286</ele><time>2026-04-12T09:34:40.956Z</time></trkpt><trkpt lat="40.7746772" lon="14.8653236"><ele>865.7142857142857</ele><time>2026-04-12T09:34:42.03Z</time></trkpt><trkpt lat="40.7746157" lon="14.8652923"><ele>863.8571428571429</ele><time>2026-04-12T09:34:43.034Z</time></trkpt><trkpt lat="40.7745392" lon="14.8652447"><ele>862.0</ele><time>2026-04-12T09:34:44.978Z</time></trkpt><trkpt lat="40.7744635" lon="14.8652135"><ele>861.9999999999999</ele><time>2026-04-12T09:34:50.057Z</time></trkpt><trkpt lat="40.7744321" lon="14.8652884"><ele>862.0</ele><time>2026-04-12T09:34:51.951Z</time></trkpt><trkpt lat="40.7744087" lon="14.8653966"><ele>862.0</ele><time>2026-04-12T09:34:53.96Z</time></trkpt><trkpt lat="40.7744434" lon="14.8654863"><ele>862.0</ele><time>2026-04-12T09:34:55.973Z</time></trkpt><trkpt lat="40.7745077" lon="14.8655601"><ele>861.9999999999999</ele><time>2026-04-12T09:34:57.968Z</time></trkpt><trkpt lat="40.7746196" lon="14.8656128"><ele>862.0</ele><time>2026-04-12T09:35:00.026Z</time></trkpt><trkpt lat="40.774731" lon="14.8656087"><ele>862.0</ele><time>2026-04-12T09:35:01.956Z</time></trkpt><trkpt lat="40.7748331" lon="14.865628"><ele>862.0</ele><time>2026-04-12T09:35:03.967Z</time></trkpt><trkpt lat="40.7749173" lon="14.8656626"><ele>862.0</ele><time>2026-04-12T09:35:05.991Z</time></trkpt><trkpt lat="40.7748989" lon="14.8658053"><ele>862.0</ele><time>2026-04-12T09:35:09.963Z</time></trkpt><trkpt lat="40.7748468" lon="14.8659408"><ele>862.0</ele><time>2026-04-12T09:35:11.98Z</time></trkpt><trkpt lat="40.7748267" lon="14.8660332"><ele>861.9999999999999</ele><time>2026-04-12T09:35:14.972Z</time></trkpt><trkpt lat="40.7748525" lon="14.8661277"><ele>862.0</ele><time>2026-04-12T09:35:17.965Z</time></trkpt><trkpt lat="40.7749157" lon="14.8662124"><ele>862.0</ele><time>2026-04-12T09:35:20.97Z</time></trkpt><trkpt lat="40.7749994" lon="14.8662612"><ele>862.0</ele><time>2026-04-12T09:35:23.955Z</time></trkpt><trkpt lat="40.775067" lon="14.8662605"><ele>861.9999999999999</ele><time>2026-04-12T09:35:28.959Z</time></trkpt><trkpt lat="40.7751247" lon="14.8663088"><ele>862.0</ele><time>2026-04-12T09:37:20.972Z</time></trkpt><trkpt lat="40.7752291" lon="14.8663591"><ele>864.6</ele><time>2026-04-12T09:37:22.955Z</time></trkpt><trkpt lat="40.7753342" lon="14.8663152"><ele>867.2</ele><time>2026-04-12T09:37:24.96Z</time></trkpt><trkpt lat="40.7753871" lon="14.8662505"><ele>869.8</ele><time>2026-04-12T09:37:25.952Z</time></trkpt><trkpt lat="40.7754491" lon="14.86611"><ele>872.4</ele><time>2026-04-12T09:37:27.974Z</time></trkpt><trkpt lat="40.7754611" lon="14.8660036"><ele>875.0</ele><time>2026-04-12T09:37:29.967Z</time></trkpt><trkpt lat="40.7754548" lon="14.8659068"><ele>875.0</ele><time>2026-04-12T09:37:32.954Z</time></trkpt><trkpt lat="40.7753689" lon="14.865918"><ele>875.0</ele><time>2026-04-12T09:37:36.968Z</time></trkpt><trkpt lat="40.775325" lon="14.8660216"><ele>875.0</ele><time>2026-04-12T09:37:38.965Z</time></trkpt><trkpt lat="40.7752925" lon="14.8661088"><ele>875.0</ele><time>2026-04-12T09:37:40.968Z</time></trkpt><trkpt lat="40.7752037" lon="14.8661194"><ele>875.0</ele><time>2026-04-12T09:37:43.947Z</time></trkpt><trkpt lat="40.7751956" lon="14.8659682"><ele>875.0000000000001</ele><time>2026-04-12T09:37:45.959Z</time></trkpt><trkpt lat="40.7751987" lon="14.8658464"><ele>875.0</ele><time>2026-04-12T09:37:46.961Z</time></trkpt><trkpt lat="40.7751898" lon="14.8657359"><ele>875.0</ele><time>2026-04-12T09:37:47.955Z</time></trkpt><trkpt lat="40.7751731" lon="14.865633"><ele>875.0</ele><time>2026-04-12T09:37:48.958Z</time></trkpt><trkpt lat="40.7751484" lon="14.8655425"><ele>875.0000000000001</ele><time>2026-04-12T09:37:49.971Z</time></trkpt><trkpt lat="40.7751146" lon="14.865467"><ele>875.0</ele><time>2026-04-12T09:37:51.984Z</time></trkpt><trkpt lat="40.774989" lon="14.8654823"><ele>872.8333333333334</ele><time>2026-04-12T09:37:56.037Z</time></trkpt><trkpt lat="40.7749211" lon="14.8654551"><ele>870.6666666666667</ele><time>2026-04-12T09:37:57.05Z</time></trkpt><trkpt lat="40.7748353" lon="14.8654116"><ele>868.5</ele><time>2026-04-12T09:37:57.964Z</time></trkpt><trkpt lat="40.7747545" lon="14.8653613"><ele>866.3333333333333</ele><time>2026-04-12T09:37:58.972Z</time></trkpt><trkpt lat="40.7746848" lon="14.8653272"><ele>864.1666666666666</ele><time>2026-04-12T09:37:59.984Z</time></trkpt><trkpt lat="40.7745796" lon="14.8652609"><ele>862.0</ele><time>2026-04-12T09:38:01.972Z</time></trkpt><trkpt lat="40.7745088" lon="14.8652189"><ele>861.9999999999999</ele><time>2026-04-12T09:38:03.974Z</time></trkpt><trkpt lat="40.774434" lon="14.8651971"><ele>862.0</ele><time>2026-04-12T09:38:06.985Z</time></trkpt><trkpt lat="40.7743837" lon="14.8652663"><ele>862.0</ele><time>2026-04-12T09:38:09.968Z</time></trkpt><trkpt lat="40.7744158" lon="14.8653805"><ele>862.0</ele><time>2026-04-12T09:38:10.958Z</time></trkpt><trkpt lat="40.7744685" lon="14.8654623"><ele>861.9999999999999</ele><time>2026-04-12T09:38:11.976Z</time></trkpt><trkpt lat="40.7745165" lon="14.8655482"><ele>862.0</ele><time>2026-04-12T09:38:12.974Z</time></trkpt><trkpt lat="40.7745586" lon="14.8656428"><ele>861.9999999999999</ele><time>2026-04-12T09:38:13.979Z</time></trkpt><trkpt lat="40.774593" lon="14.8657374"><ele>862.0</ele><time>2026-04-12T09:38:14.979Z</time></trkpt><trkpt lat="40.7746335" lon="14.8658354"><ele>862.0</ele><time>2026-04-12T09:38:16.981Z</time></trkpt><trkpt lat="40.7747462" lon="14.8657892"><ele>862.0</ele><time>2026-04-12T09:38:18.978Z</time></trkpt><trkpt lat="40.7748258" lon="14.8657156"><ele>861.9999999999999</ele><time>2026-04-12T09:38:19.991Z</time></trkpt><trkpt lat="40.7748835" lon="14.8656679"><ele>862.0</ele><time>2026-04-12T09:38:21.003Z</time></trkpt><trkpt lat="40.7749523" lon="14.8657105"><ele>862.0</ele><time>2026-04-12T09:38:24.977Z</time></trkpt><trkpt lat="40.7749132" lon="14.8658482"><ele>862.0</ele><time>2026-04-12T09:38:26.977Z</time></trkpt><trkpt lat="40.7748697" lon="14.8659566"><ele>862.0</ele><time>2026-04-12T09:38:27.959Z</time></trkpt><trkpt lat="40.7748418" lon="14.8660715"><ele>862.0</ele><time>2026-04-12T09:38:29.978Z</time></trkpt><trkpt lat="40.7748842" lon="14.8661573"><ele>862.0</ele><time>2026-04-12T09:38:31.973Z</time></trkpt><trkpt lat="40.7749518" lon="14.8662462"><ele>862.0</ele><time>2026-04-12T09:38:33.979Z</time></trkpt><trkpt lat="40.7749978" lon="14.8661845"><ele>862.0</ele><time>2026-04-12T09:38:39.984Z</time></trkpt><trkpt lat="40.7750593" lon="14.8661629"><ele>862.0</ele><time>2026-04-12T09:38:44.965Z</time></trkpt><trkpt lat="40.7750966" lon="14.8662337"><ele>862.0</ele><time>2026-04-12T09:38:45.971Z</time></trkpt><trkpt lat="40.7751488" lon="14.866319"><ele>862.0</ele><time>2026-04-12T09:38:46.976Z</time></trkpt><trkpt lat="40.775194" lon="14.8663892"><ele>862.0</ele><time>2026-04-12T09:38:47.982Z</time></trkpt><trkpt lat="40.7752807" lon="14.8664169"><ele>862.0</ele><time>2026-04-12T09:38:49.975Z</time></trkpt><trkpt lat="40.7753396" lon="14.8663767"><ele>864.1666666666666</ele><time>2026-04-12T09:38:50.972Z</time></trkpt><trkpt lat="40.7753887" lon="14.8663104"><ele>866.3333333333333</ele><time>2026-04-12T09:38:51.973Z</time></trkpt><trkpt lat="40.7754294" lon="14.8662166"><ele>868.5</ele><time>2026-04-12T09:38:52.979Z</time></trkpt><trkpt lat="40.77545" lon="14.8661353"><ele>870.6666666666667</ele><time>2026-04-12T09:38:53.961Z</time></trkpt><trkpt lat="40.7754562" lon="14.8660467"><ele>872.8333333333334</ele><time>2026-04-12T09:38:54.968Z</time></trkpt><trkpt lat="40.7754726" lon="14.8659307"><ele>875.0</ele><time>2026-04-12T09:38:56.977Z</time></trkpt><trkpt lat="40.7753883" lon="14.8660386"><ele>877.1666666666667</ele><time>2026-04-12T09:39:03.977Z</time></trkpt><trkpt lat="40.7753515" lon="14.8661249"><ele>879.3333333333334</ele><time>2026-04-12T09:39:05.978Z</time></trkpt><trkpt lat="40.7752732" lon="14.866148"><ele>881.5</ele><time>2026-04-12T09:39:07.978Z</time></trkpt><trkpt lat="40.7751913" lon="14.8660236"><ele>883.6666666666667</ele><time>2026-04-12T09:39:09.964Z</time></trkpt><trkpt lat="40.7751868" lon="14.8659065"><ele>885.8333333333334</ele><time>2026-04-12T09:39:10.965Z</time></trkpt><trkpt lat="40.7751763" lon="14.8658092"><ele>888.0</ele><time>2026-04-12T09:39:11.976Z</time></trkpt><trkpt lat="40.7751591" lon="14.8657104"><ele>883.6666666666666</ele><time>2026-04-12T09:39:12.983Z</time></trkpt><trkpt lat="40.7751371" lon="14.8656041"><ele>879.3333333333333</ele><time>2026-04-12T09:39:13.952Z</time></trkpt><trkpt lat="40.7751181" lon="14.8655243"><ele>875.0</ele><time>2026-04-12T09:39:14.977Z</time></trkpt><trkpt lat="40.7750636" lon="14.8654639"><ele>870.6666666666666</ele><time>2026-04-12T09:39:17.969Z</time></trkpt><trkpt lat="40.774986" lon="14.8655102"><ele>866.3333333333333</ele><time>2026-04-12T09:39:19.974Z</time></trkpt><trkpt lat="40.7748961" lon="14.8654379"><ele>862.0</ele><time>2026-04-12T09:39:21.983Z</time></trkpt><trkpt lat="40.7748157" lon="14.8653945"><ele>861.9999999999999</ele><time>2026-04-12T09:39:22.97Z</time></trkpt><trkpt lat="40.7747391" lon="14.8653572"><ele>862.0</ele><time>2026-04-12T09:39:23.972Z</time></trkpt><trkpt lat="40.7746657" lon="14.8653169"><ele>862.0</ele><time>2026-04-12T09:39:24.979Z</time></trkpt><trkpt lat="40.7746056" lon="14.8652836"><ele>862.0</ele><time>2026-04-12T09:39:25.978Z</time></trkpt><trkpt lat="40.774513" lon="14.8652207"><ele>861.9999999999999</ele><time>2026-04-12T09:39:27.974Z</time></trkpt><trkpt lat="40.7744508" lon="14.8651997"><ele>862.0</ele><time>2026-04-12T09:39:30.995Z</time></trkpt><trkpt lat="40.7743951" lon="14.8652463"><ele>862.0</ele><time>2026-04-12T09:39:32.981Z</time></trkpt><trkpt lat="40.7743898" lon="14.8653469"><ele>862.0</ele><time>2026-04-12T09:39:34.977Z</time></trkpt><trkpt lat="40.7744305" lon="14.8654292"><ele>862.0</ele><time>2026-04-12T09:39:35.961Z</time></trkpt><trkpt lat="40.7744809" lon="14.8654898"><ele>862.0</ele><time>2026-04-12T09:39:36.973Z</time></trkpt><trkpt lat="40.7745305" lon="14.8655483"><ele>862.0</ele><time>2026-04-12T09:39:37.982Z</time></trkpt><trkpt lat="40.7745651" lon="14.8656211"><ele>862.0</ele><time>2026-04-12T09:39:38.976Z</time></trkpt><trkpt lat="40.7745962" lon="14.8657105"><ele>862.0</ele><time>2026-04-12T09:39:39.97Z</time></trkpt><trkpt lat="40.7746148" lon="14.8657932"><ele>862.0</ele><time>2026-04-12T09:39:40.989Z</time></trkpt><trkpt lat="40.7746651" lon="14.8658828"><ele>862.0</ele><time>2026-04-12T09:39:42.971Z</time></trkpt><trkpt lat="40.7747902" lon="14.8658234"><ele>862.0</ele><time>2026-04-12T09:39:44.973Z</time></trkpt><trkpt lat="40.7748525" lon="14.8657462"><ele>862.0</ele><time>2026-04-12T09:39:45.978Z</time></trkpt><trkpt lat="40.7749204" lon="14.8656967"><ele>862.0</ele><time>2026-04-12T09:39:47.958Z</time></trkpt><trkpt lat="40.774908" lon="14.8658093"><ele>862.0</ele><time>2026-04-12T09:39:50.979Z</time></trkpt><trkpt lat="40.774872" lon="14.8658951"><ele>862.0</ele><time>2026-04-12T09:39:51.974Z</time></trkpt><trkpt lat="40.7748299" lon="14.8660273"><ele>862.0</ele><time>2026-04-12T09:39:53.976Z</time></trkpt><trkpt lat="40.7748693" lon="14.8661192"><ele>862.0</ele><time>2026-04-12T09:39:55.972Z</time></trkpt><trkpt lat="40.7749437" lon="14.8662478"><ele>862.0</ele><time>2026-04-12T09:39:57.979Z</time></trkpt><trkpt lat="40.7750126" lon="14.8662724"><ele>862.0</ele><time>2026-04-12T09:40:00.976Z</time></trkpt><trkpt lat="40.7750758" lon="14.8662763"><ele>862.0</ele><time>2026-04-12T09:40:12.976Z</time></trkpt><trkpt lat="40.7751751" lon="14.8663557"><ele>862.0</ele><time>2026-04-12T09:40:14.978Z</time></trkpt><trkpt lat="40.7753052" lon="14.866355"><ele>862.0</ele><time>2026-04-12T09:40:16.977Z</time></trkpt><trkpt lat="40.7753747" lon="14.8663123"><ele>862.0</ele><time>2026-04-12T09:40:17.987Z</time></trkpt><trkpt lat="40.7754113" lon="14.8662332"><ele>866.3333333333333</ele><time>2026-04-12T09:40:18.97Z</time></trkpt><trkpt lat="40.7754236" lon="14.8661329"><ele>870.6666666666666</ele><time>2026-04-12T09:40:19.985Z</time></trkpt><trkpt lat="40.7754301" lon="14.8660492"><ele>875.0</ele><time>2026-04-12T09:40:20.971Z</time></trkpt><trkpt lat="40.7754362" lon="14.8659549"><ele>879.3333333333333</ele><time>2026-04-12T09:40:22.986Z</time></trkpt><trkpt lat="40.7753646" lon="14.8659551"><ele>883.6666666666666</ele><time>2026-04-12T09:40:25.97Z</time></trkpt><trkpt lat="40.7753539" lon="14.866119"><ele>888.0</ele><time>2026-04-12T09:40:27.967Z</time></trkpt><trkpt lat="40.775316" lon="14.866191"><ele>888.0</ele><time>2026-04-12T09:40:29.966Z</time></trkpt><trkpt lat="40.7752501" lon="14.866199"><ele>888.0</ele><time>2026-04-12T09:40:31.979Z</time></trkpt><trkpt lat="40.7751916" lon="14.8661511"><ele>888.0</ele><time>2026-04-12T09:40:33.956Z</time></trkpt><trkpt lat="40.7751867" lon="14.865971"><ele>888.0</ele><time>2026-04-12T09:40:35.982Z</time></trkpt><trkpt lat="40.7751882" lon="14.8658581"><ele>888.0</ele><time>2026-04-12T09:40:36.982Z</time></trkpt><trkpt lat="40.7751695" lon="14.8657496"><ele>888.0</ele><time>2026-04-12T09:40:37.958Z</time></trkpt><trkpt lat="40.7751503" lon="14.8656473"><ele>882.8</ele><time>2026-04-12T09:40:38.975Z</time></trkpt><trkpt lat="40.7751086" lon="14.8655074"><ele>877.5999999999999</ele><time>2026-04-12T09:40:40.977Z</time></trkpt><trkpt lat="40.7750142" lon="14.8655297"><ele>872.4000000000001</ele><time>2026-04-12T09:40:42.971Z</time></trkpt><trkpt lat="40.7749216" lon="14.8655278"><ele>867.2</ele><time>2026-04-12T09:40:44.973Z</time></trkpt><trkpt lat="40.7748745" lon="14.8654596"><ele>862.0</ele><time>2026-04-12T09:40:45.976Z</time></trkpt><trkpt lat="40.7748071" lon="14.8654006"><ele>861.9999999999999</ele><time>2026-04-12T09:40:46.966Z</time></trkpt><trkpt lat="40.7747391" lon="14.8653599"><ele>862.0</ele><time>2026-04-12T09:40:47.973Z</time></trkpt><trkpt lat="40.7746679" lon="14.8653236"><ele>862.0</ele><time>2026-04-12T09:40:48.98Z</time></trkpt><trkpt lat="40.7745687" lon="14.865253"><ele>862.0</ele><time>2026-04-12T09:40:50.976Z</time></trkpt><trkpt lat="40.7744981" lon="14.8652244"><ele>861.9999999999999</ele><time>2026-04-12T09:40:52.976Z</time></trkpt><trkpt lat="40.7744338" lon="14.8652358"><ele>862.0</ele><time>2026-04-12T09:40:55.962Z</time></trkpt><trkpt lat="40.7743837" lon="14.8653115"><ele>862.0</ele><time>2026-04-12T09:40:57.954Z</time></trkpt><trkpt lat="40.7744433" lon="14.8654396"><ele>862.0</ele><time>2026-04-12T09:40:59.972Z</time></trkpt><trkpt lat="40.7745115" lon="14.8655152"><ele>862.0</ele><time>2026-04-12T09:41:00.969Z</time></trkpt><trkpt lat="40.7745664" lon="14.8656116"><ele>862.0</ele><time>2026-04-12T09:41:01.976Z</time></trkpt><trkpt lat="40.7746109" lon="14.8657019"><ele>862.0</ele><time>2026-04-12T09:41:02.99Z</time></trkpt><trkpt lat="40.7746533" lon="14.8658031"><ele>862.0</ele><time>2026-04-12T09:41:03.982Z</time></trkpt><trkpt lat="40.774686" lon="14.8658857"><ele>862.0</ele><time>2026-04-12T09:41:04.985Z</time></trkpt><trkpt lat="40.7747765" lon="14.8658777"><ele>862.0</ele><time>2026-04-12T09:41:07.983Z</time></trkpt><trkpt lat="40.7748548" lon="14.8657792"><ele>862.0</ele><time>2026-04-12T09:41:09.981Z</time></trkpt><trkpt lat="40.7749096" lon="14.8657367"><ele>862.0</ele><time>2026-04-12T09:41:11.961Z</time></trkpt><trkpt lat="40.7748568" lon="14.8659172"><ele>861.9999999999999</ele><time>2026-04-12T09:41:14.981Z</time></trkpt><trkpt lat="40.7748145" lon="14.8659983"><ele>862.0</ele><time>2026-04-12T09:41:15.971Z</time></trkpt><trkpt lat="40.7748457" lon="14.8661094"><ele>862.0</ele><time>2026-04-12T09:41:18.972Z</time></trkpt><trkpt lat="40.7749099" lon="14.8661642"><ele>862.0</ele><time>2026-04-12T09:41:20.993Z</time></trkpt><trkpt lat="40.7749578" lon="14.8662481"><ele>861.9999999999999</ele><time>2026-04-12T09:41:22.97Z</time></trkpt><trkpt lat="40.7749815" lon="14.8661428"><ele>862.0</ele><time>2026-04-12T09:41:25.981Z</time></trkpt><trkpt lat="40.7750451" lon="14.8661231"><ele>862.0</ele><time>2026-04-12T09:41:28.972Z</time></trkpt><trkpt lat="40.77513" lon="14.8662383"><ele>862.0</ele><time>2026-04-12T09:41:30.976Z</time></trkpt><trkpt lat="40.7751869" lon="14.8663429"><ele>862.0</ele><time>2026-04-12T09:41:31.976Z</time></trkpt><trkpt lat="40.7752357" lon="14.8664221"><ele>862.0</ele><time>2026-04-12T09:41:32.979Z</time></trkpt><trkpt lat="40.7753233" lon="14.8664173"><ele>862.0</ele><time>2026-04-12T09:41:34.973Z</time></trkpt><trkpt lat="40.775377" lon="14.866348"><ele>864.1666666666666</ele><time>2026-04-12T09:41:35.953Z</time></trkpt><trkpt lat="40.7754232" lon="14.8662505"><ele>866.3333333333333</ele><time>2026-04-12T09:41:36.978Z</time></trkpt><trkpt lat="40.7754475" lon="14.8661585"><ele>868.5</ele><time>2026-04-12T09:41:37.978Z</time></trkpt><trkpt lat="40.775455" lon="14.8660744"><ele>870.6666666666667</ele><time>2026-04-12T09:41:38.976Z</time></trkpt><trkpt lat="40.775466" lon="14.8659523"><ele>872.8333333333334</ele><time>2026-04-12T09:41:40.982Z</time></trkpt><trkpt lat="40.7754757" lon="14.8658659"><ele>875.0</ele><time>2026-04-12T09:41:42.967Z</time></trkpt><trkpt lat="40.7754204" lon="14.8659384"><ele>875.0</ele><time>2026-04-12T09:41:45.968Z</time></trkpt><trkpt lat="40.7753683" lon="14.8660798"><ele>875.0</ele><time>2026-04-12T09:41:47.967Z</time></trkpt><trkpt lat="40.7753061" lon="14.8661656"><ele>875.0</ele><time>2026-04-12T09:41:49.982Z</time></trkpt><trkpt lat="40.775221" lon="14.8661559"><ele>875.0</ele><time>2026-04-12T09:41:52.971Z</time></trkpt><trkpt lat="40.775211" lon="14.865938"><ele>875.0</ele><time>2026-04-12T09:41:54.97Z</time></trkpt><trkpt lat="40.7752009" lon="14.8658063"><ele>875.0</ele><time>2026-04-12T09:41:55.964Z</time></trkpt><trkpt lat="40.7751768" lon="14.8656981"><ele>875.0</ele><time>2026-04-12T09:41:56.974Z</time></trkpt><trkpt lat="40.7751467" lon="14.8655885"><ele>875.0</ele><time>2026-04-12T09:41:57.976Z</time></trkpt><trkpt lat="40.7750887" lon="14.8654604"><ele>875.0</ele><time>2026-04-12T09:41:59.982Z</time></trkpt><trkpt lat="40.7750218" lon="14.865464"><ele>872.8333333333334</ele><time>2026-04-12T09:42:01.972Z</time></trkpt><trkpt lat="40.7749551" lon="14.8654899"><ele>870.6666666666667</ele><time>2026-04-12T09:42:03.983Z</time></trkpt><trkpt lat="40.7748426" lon="14.8653978"><ele>868.5</ele><time>2026-04-12T09:42:05.974Z</time></trkpt><trkpt lat="40.7747666" lon="14.8653574"><ele>866.3333333333333</ele><time>2026-04-12T09:42:06.969Z</time></trkpt><trkpt lat="40.7746906" lon="14.8653182"><ele>864.1666666666666</ele><time>2026-04-12T09:42:07.952Z</time></trkpt><trkpt lat="40.7746223" lon="14.8652873"><ele>862.0</ele><time>2026-04-12T09:42:08.97Z</time></trkpt><trkpt lat="40.7745641" lon="14.8652483"><ele>861.9999999999999</ele><time>2026-04-12T09:42:09.969Z</time></trkpt><trkpt lat="40.7744922" lon="14.8652094"><ele>862.0</ele><time>2026-04-12T09:42:11.97Z</time></trkpt><trkpt lat="40.7744166" lon="14.8652322"><ele>862.0</ele><time>2026-04-12T09:42:14.97Z</time></trkpt><trkpt lat="40.7743597" lon="14.8652986"><ele>862.0</ele><time>2026-04-12T09:42:16.984Z</time></trkpt><trkpt lat="40.7744027" lon="14.8654157"><ele>861.9999999999999</ele><time>2026-04-12T09:42:18.979Z</time></trkpt><trkpt lat="40.7744629" lon="14.8654887"><ele>862.0</ele><time>2026-04-12T09:42:19.966Z</time></trkpt><trkpt lat="40.7745105" lon="14.8655852"><ele>862.0</ele><time>2026-04-12T09:42:20.972Z</time></trkpt><trkpt lat="40.7745363" lon="14.8656785"><ele>862.0</ele><time>2026-04-12T09:42:21.966Z</time></trkpt><trkpt lat="40.7745737" lon="14.8657641"><ele>862.0</ele><time>2026-04-12T09:42:22.985Z</time></trkpt><trkpt lat="40.77463" lon="14.8658576"><ele>862.0</ele><time>2026-04-12T09:42:24.977Z</time></trkpt><trkpt lat="40.7747687" lon="14.8657615"><ele>862.0</ele><time>2026-04-12T09:42:26.969Z</time></trkpt><trkpt lat="40.7748352" lon="14.8656959"><ele>862.0</ele><time>2026-04-12T09:42:27.973Z</time></trkpt><trkpt lat="40.7749098" lon="14.8656799"><ele>862.0</ele><time>2026-04-12T09:42:29.951Z</time></trkpt><trkpt lat="40.7749257" lon="14.8657649"><ele>862.0</ele><time>2026-04-12T09:42:31.98Z</time></trkpt><trkpt lat="40.7749179" lon="14.8658629"><ele>862.0</ele><time>2026-04-12T09:42:32.972Z</time></trkpt><trkpt lat="40.7748901" lon="14.8659634"><ele>862.0</ele><time>2026-04-12T09:42:33.968Z</time></trkpt><trkpt lat="40.774851" lon="14.8660322"><ele>862.0</ele><time>2026-04-12T09:42:34.953Z</time></trkpt><trkpt lat="40.7748695" lon="14.866127"><ele>862.0</ele><time>2026-04-12T09:42:36.98Z</time></trkpt><trkpt lat="40.7749102" lon="14.8661934"><ele>861.9999999999999</ele><time>2026-04-12T09:42:37.973Z</time></trkpt><trkpt lat="40.7749902" lon="14.8662943"><ele>862.0</ele><time>2026-04-12T09:42:39.98Z</time></trkpt><trkpt lat="40.7750046" lon="14.8661767"><ele>862.0</ele><time>2026-04-12T09:42:42.977Z</time></trkpt><trkpt lat="40.7750559" lon="14.8661238"><ele>862.0</ele><time>2026-04-12T09:42:45.967Z</time></trkpt><trkpt lat="40.7751002" lon="14.8662104"><ele>861.9999999999999</ele><time>2026-04-12T09:42:46.969Z</time></trkpt><trkpt lat="40.7751475" lon="14.8663198"><ele>862.0</ele><time>2026-04-12T09:42:47.981Z</time></trkpt><trkpt lat="40.7752066" lon="14.8664093"><ele>867.2</ele><time>2026-04-12T09:42:48.981Z</time></trkpt><trkpt lat="40.775297" lon="14.8664419"><ele>872.4000000000001</ele><time>2026-04-12T09:42:50.982Z</time></trkpt><trkpt lat="40.7753792" lon="14.8663376"><ele>877.5999999999999</ele><time>2026-04-12T09:42:52.974Z</time></trkpt><trkpt lat="40.7754229" lon="14.8662236"><ele>882.8</ele><time>2026-04-12T09:42:53.976Z</time></trkpt><trkpt lat="40.7754465" lon="14.8661119"><ele>888.0</ele><time>2026-04-12T09:42:54.972Z</time></trkpt><trkpt lat="40.7754523" lon="14.8659572"><ele>888.0</ele><time>2026-04-12T09:42:56.977Z</time></trkpt><trkpt lat="40.7753893" lon="14.8658927"><ele>888.0</ele><time>2026-04-12T09:43:00.987Z</time></trkpt><trkpt lat="40.7753667" lon="14.866003"><ele>888.0</ele><time>2026-04-12T09:43:02.981Z</time></trkpt><trkpt lat="40.7753336" lon="14.8661306"><ele>888.0</ele><time>2026-04-12T09:43:04.976Z</time></trkpt><trkpt lat="40.7752459" lon="14.8661703"><ele>888.0</ele><time>2026-04-12T09:43:07.97Z</time></trkpt><trkpt lat="40.7751995" lon="14.8661052"><ele>888.0</ele><time>2026-04-12T09:43:09.967Z</time></trkpt><trkpt lat="40.7751939" lon="14.8660008"><ele>885.8333333333334</ele><time>2026-04-12T09:43:10.982Z</time></trkpt><trkpt lat="40.7751933" lon="14.8658636"><ele>883.6666666666667</ele><time>2026-04-12T09:43:11.979Z</time></trkpt><trkpt lat="40.7751857" lon="14.865749"><ele>881.5</ele><time>2026-04-12T09:43:12.97Z</time></trkpt><trkpt lat="40.7751654" lon="14.865668"><ele>879.3333333333334</ele><time>2026-04-12T09:43:13.965Z</time></trkpt><trkpt lat="40.7751475" lon="14.8655721"><ele>877.1666666666667</ele><time>2026-04-12T09:43:14.967Z</time></trkpt><trkpt lat="40.7751043" lon="14.8654821"><ele>875.0</ele><time>2026-04-12T09:43:16.972Z</time></trkpt><trkpt lat="40.77503" lon="14.8654998"><ele>872.4</ele><time>2026-04-12T09:43:19.966Z</time></trkpt><trkpt lat="40.7749083" lon="14.8654444"><ele>869.8</ele><time>2026-04-12T09:43:21.977Z</time></trkpt><trkpt lat="40.7748238" lon="14.8653878"><ele>867.2</ele><time>2026-04-12T09:43:22.974Z</time></trkpt><trkpt lat="40.7747458" lon="14.8653436"><ele>864.6</ele><time>2026-04-12T09:43:23.981Z</time></trkpt><trkpt lat="40.774663" lon="14.8652972"><ele>862.0</ele><time>2026-04-12T09:43:24.985Z</time></trkpt><trkpt lat="40.7745978" lon="14.8652588"><ele>862.0</ele><time>2026-04-12T09:43:25.98Z</time></trkpt><trkpt lat="40.7745028" lon="14.8652053"><ele>862.0</ele><time>2026-04-12T09:43:27.977Z</time></trkpt><trkpt lat="40.7744306" lon="14.8652014"><ele>862.0</ele><time>2026-04-12T09:43:30.965Z</time></trkpt><trkpt lat="40.7744036" lon="14.8653707"><ele>862.0</ele><time>2026-04-12T09:43:32.977Z</time></trkpt><trkpt lat="40.7744369" lon="14.8654676"><ele>862.0</ele><time>2026-04-12T09:43:33.969Z</time></trkpt><trkpt lat="40.7745008" lon="14.8655492"><ele>861.9999999999999</ele><time>2026-04-12T09:43:34.956Z</time></trkpt><trkpt lat="40.7745607" lon="14.8656338"><ele>862.0</ele><time>2026-04-12T09:43:35.966Z</time></trkpt><trkpt lat="40.774607" lon="14.8657312"><ele>862.0</ele><time>2026-04-12T09:43:36.954Z</time></trkpt><trkpt lat="40.7746346" lon="14.8658077"><ele>862.0</ele><time>2026-04-12T09:43:37.974Z</time></trkpt><trkpt lat="40.7746661" lon="14.8658957"><ele>861.9999999999999</ele><time>2026-04-12T09:43:39.956Z</time></trkpt><trkpt lat="40.7747265" lon="14.8659224"><ele>862.0</ele><time>2026-04-12T09:43:41.983Z</time></trkpt><trkpt lat="40.7747851" lon="14.8658441"><ele>861.9999999999999</ele><time>2026-04-12T09:44:03.974Z</time></trkpt><trkpt lat="40.7748445" lon="14.8657703"><ele>862.0</ele><time>2026-04-12T09:44:05.973Z</time></trkpt><trkpt lat="40.7748663" lon="14.8658943"><ele>862.0</ele><time>2026-04-12T09:44:08.971Z</time></trkpt><trkpt lat="40.7748341" lon="14.8659966"><ele>862.0</ele><time>2026-04-12T09:44:09.973Z</time></trkpt><trkpt lat="40.7748184" lon="14.8660775"><ele>861.9999999999999</ele><time>2026-04-12T09:44:11.956Z</time></trkpt><trkpt lat="40.7748733" lon="14.866156"><ele>862.0</ele><time>2026-04-12T09:44:13.977Z</time></trkpt><trkpt lat="40.7749337" lon="14.8662665"><ele>862.0</ele><time>2026-04-12T09:44:15.987Z</time></trkpt><trkpt lat="40.7749869" lon="14.8661697"><ele>862.0</ele><time>2026-04-12T09:44:19.964Z</time></trkpt><trkpt lat="40.7750789" lon="14.8661991"><ele>862.0</ele><time>2026-04-12T09:44:21.967Z</time></trkpt><trkpt lat="40.7751416" lon="14.8663086"><ele>862.0</ele><time>2026-04-12T09:44:22.977Z</time></trkpt><trkpt lat="40.7751995" lon="14.8664253"><ele>862.0</ele><time>2026-04-12T09:44:23.964Z</time></trkpt><trkpt lat="40.77526" lon="14.8664613"><ele>864.1666666666666</ele><time>2026-04-12T09:44:24.982Z</time></trkpt><trkpt lat="40.7753442" lon="14.8664187"><ele>866.3333333333333</ele><time>2026-04-12T09:44:26.972Z</time></trkpt><trkpt lat="40.7753894" lon="14.866343"><ele>868.5</ele><time>2026-04-12T09:44:27.971Z</time></trkpt><trkpt lat="40.775435" lon="14.8662402"><ele>870.6666666666667</ele><time>2026-04-12T09:44:28.964Z</time></trkpt><trkpt lat="40.7754555" lon="14.86612"><ele>872.8333333333334</ele><time>2026-04-12T09:44:29.979Z</time></trkpt><trkpt lat="40.7754621" lon="14.8660166"><ele>875.0</ele><time>2026-04-12T09:44:30.974Z</time></trkpt><trkpt lat="40.775464" lon="14.865919"><ele>877.6</ele><time>2026-04-12T09:44:32.97Z</time></trkpt><trkpt lat="40.7753712" lon="14.8659948"><ele>880.2</ele><time>2026-04-12T09:44:37.995Z</time></trkpt><trkpt lat="40.7753514" lon="14.8660845"><ele>882.8</ele><time>2026-04-12T09:44:38.958Z</time></trkpt><trkpt lat="40.7753067" lon="14.8661719"><ele>885.4</ele><time>2026-04-12T09:44:40.984Z</time></trkpt><trkpt lat="40.7752266" lon="14.8661766"><ele>888.0</ele><time>2026-04-12T09:44:42.98Z</time></trkpt><trkpt lat="40.7751873" lon="14.8660354"><ele>885.8333333333334</ele><time>2026-04-12T09:44:44.965Z</time></trkpt><trkpt lat="40.7751915" lon="14.8658946"><ele>883.6666666666667</ele><time>2026-04-12T09:44:45.964Z</time></trkpt><trkpt lat="40.7751898" lon="14.8657712"><ele>881.5</ele><time>2026-04-12T09:44:46.973Z</time></trkpt><trkpt lat="40.7751646" lon="14.8656623"><ele>879.3333333333334</ele><time>2026-04-12T09:44:47.966Z</time></trkpt><trkpt lat="40.7751419" lon="14.8655568"><ele>877.1666666666667</ele><time>2026-04-12T09:44:48.98Z</time></trkpt><trkpt lat="40.7751156" lon="14.8654638"><ele>875.0</ele><time>2026-04-12T09:44:50.967Z</time></trkpt><trkpt lat="40.7750497" lon="14.8654851"><ele>872.4</ele><time>2026-04-12T09:44:52.967Z</time></trkpt><trkpt lat="40.7749386" lon="14.8654838"><ele>869.8</ele><time>2026-04-12T09:44:54.997Z</time></trkpt><trkpt lat="40.774854" lon="14.865422"><ele>867.2</ele><time>2026-04-12T09:44:55.982Z</time></trkpt><trkpt lat="40.7747562" lon="14.8653719"><ele>864.6</ele><time>2026-04-12T09:44:56.973Z</time></trkpt><trkpt lat="40.7746707" lon="14.86532"><ele>862.0</ele><time>2026-04-12T09:44:57.974Z</time></trkpt><trkpt lat="40.7745928" lon="14.8652679"><ele>862.0</ele><time>2026-04-12T09:44:58.972Z</time></trkpt><trkpt lat="40.774511" lon="14.8652163"><ele>862.0</ele><time>2026-04-12T09:45:00.976Z</time></trkpt><trkpt lat="40.7744232" lon="14.8652334"><ele>862.0</ele><time>2026-04-12T09:45:03.981Z</time></trkpt><trkpt lat="40.7743988" lon="14.8653939"><ele>862.0</ele><time>2026-04-12T09:45:05.981Z</time></trkpt><trkpt lat="40.7744578" lon="14.8655085"><ele>862.0</ele><time>2026-04-12T09:45:06.959Z</time></trkpt><trkpt lat="40.7745273" lon="14.8655938"><ele>861.9999999999999</ele><time>2026-04-12T09:45:07.969Z</time></trkpt><trkpt lat="40.7745883" lon="14.8656671"><ele>862.0</ele><time>2026-04-12T09:45:08.969Z</time></trkpt><trkpt lat="40.7746272" lon="14.8657525"><ele>862.0</ele><time>2026-04-12T09:45:09.97Z</time></trkpt><trkpt lat="40.7746476" lon="14.8658436"><ele>862.0</ele><time>2026-04-12T09:45:10.974Z</time></trkpt><trkpt lat="40.7747335" lon="14.8658744"><ele>861.9999999999999</ele><time>2026-04-12T09:45:13.977Z</time></trkpt><trkpt lat="40.774794" lon="14.8658228"><ele>862.0</ele><time>2026-04-12T09:45:14.971Z</time></trkpt><trkpt lat="40.7748479" lon="14.8657588"><ele>862.0</ele><time>2026-04-12T09:45:15.962Z</time></trkpt><trkpt lat="40.774936" lon="14.8656656"><ele>862.0</ele><time>2026-04-12T09:45:17.959Z</time></trkpt><trkpt lat="40.7749189" lon="14.8657766"><ele>862.0</ele><time>2026-04-12T09:45:20.984Z</time></trkpt><trkpt lat="40.7748665" lon="14.8659006"><ele>862.0</ele><time>2026-04-12T09:45:21.976Z</time></trkpt><trkpt lat="40.7748369" lon="14.865992"><ele>862.0</ele><time>2026-04-12T09:45:22.976Z</time></trkpt><trkpt lat="40.7748686" lon="14.8661017"><ele>861.9999999999999</ele><time>2026-04-12T09:45:24.97Z</time></trkpt><trkpt lat="40.7749171" lon="14.8661751"><ele>862.0</ele><time>2026-04-12T09:45:25.974Z</time></trkpt><trkpt lat="40.7749995" lon="14.86627"><ele>862.0</ele><time>2026-04-12T09:45:27.992Z</time></trkpt><trkpt lat="40.7750129" lon="14.8661658"><ele>862.0</ele><time>2026-04-12T09:45:30.977Z</time></trkpt><trkpt lat="40.7750313" lon="14.8660789"><ele>861.9999999999999</ele><time>2026-04-12T09:45:32.98Z</time></trkpt><trkpt lat="40.7750997" lon="14.8661936"><ele>862.0</ele><time>2026-04-12T09:45:35.982Z</time></trkpt><trkpt lat="40.7751674" lon="14.8663214"><ele>866.3333333333333</ele><time>2026-04-12T09:45:36.98Z</time></trkpt><trkpt lat="40.7752306" lon="14.8663948"><ele>870.6666666666666</ele><time>2026-04-12T09:45:38Z</time></trkpt><trkpt lat="40.7753098" lon="14.8663354"><ele>875.0</ele><time>2026-04-12T09:45:40.968Z</time></trkpt><trkpt lat="40.7753725" lon="14.8662389"><ele>879.3333333333333</ele><time>2026-04-12T09:45:41.98Z</time></trkpt><trkpt lat="40.77541" lon="14.8661402"><ele>883.6666666666666</ele><time>2026-04-12T09:45:42.974Z</time></trkpt><trkpt lat="40.7754255" lon="14.8660463"><ele>888.0</ele><time>2026-04-12T09:45:43.948Z</time></trkpt><trkpt lat="40.7754466" lon="14.8659461"><ele>888.0</ele><time>2026-04-12T09:45:45.966Z</time></trkpt><trkpt lat="40.7753674" lon="14.866043"><ele>888.0</ele><time>2026-04-12T09:45:50.972Z</time></trkpt><trkpt lat="40.7753113" lon="14.8661454"><ele>888.0</ele><time>2026-04-12T09:45:52.978Z</time></trkpt><trkpt lat="40.775231" lon="14.866146"><ele>888.0</ele><time>2026-04-12T09:45:55.972Z</time></trkpt><trkpt lat="40.7752072" lon="14.8659983"><ele>888.0</ele><time>2026-04-12T09:45:57.981Z</time></trkpt><trkpt lat="40.77519" lon="14.8658576"><ele>882.8</ele><time>2026-04-12T09:45:58.97Z</time></trkpt><trkpt lat="40.775169" lon="14.8657139"><ele>877.5999999999999</ele><time>2026-04-12T09:45:59.982Z</time></trkpt><trkpt lat="40.7751436" lon="14.8655981"><ele>872.4000000000001</ele><time>2026-04-12T09:46:00.97Z</time></trkpt><trkpt lat="40.7751037" lon="14.8655114"><ele>867.2</ele><time>2026-04-12T09:46:02.96Z</time></trkpt><trkpt lat="40.7750341" lon="14.8655136"><ele>862.0</ele><time>2026-04-12T09:46:04.973Z</time></trkpt><trkpt lat="40.774908" lon="14.8654479"><ele>861.9999999999999</ele><time>2026-04-12T09:46:06.965Z</time></trkpt><trkpt lat="40.7748211" lon="14.8653958"><ele>862.0</ele><time>2026-04-12T09:46:07.969Z</time></trkpt><trkpt lat="40.7747371" lon="14.8653439"><ele>862.0</ele><time>2026-04-12T09:46:08.975Z</time></trkpt><trkpt lat="40.7746614" lon="14.8653002"><ele>862.0</ele><time>2026-04-12T09:46:09.989Z</time></trkpt><trkpt lat="40.7745975" lon="14.8652632"><ele>861.9999999999999</ele><time>2026-04-12T09:46:10.972Z</time></trkpt><trkpt lat="40.7745195" lon="14.865208"><ele>862.0</ele><time>2026-04-12T09:46:12.967Z</time></trkpt><trkpt lat="40.7744397" lon="14.8652217"><ele>862.0</ele><time>2026-04-12T09:46:15.984Z</time></trkpt><trkpt lat="40.7743921" lon="14.8653241"><ele>862.0</ele><time>2026-04-12T09:46:18.975Z</time></trkpt><trkpt lat="40.7744451" lon="14.8654811"><ele>862.0</ele><time>2026-04-12T09:46:20.97Z</time></trkpt><trkpt lat="40.7744954" lon="14.8655529"><ele>862.0</ele><time>2026-04-12T09:46:21.966Z</time></trkpt><trkpt lat="40.7745505" lon="14.8656343"><ele>862.0</ele><time>2026-04-12T09:46:22.98Z</time></trkpt><trkpt lat="40.7746006" lon="14.8657324"><ele>861.9999999999999</ele><time>2026-04-12T09:46:23.962Z</time></trkpt><trkpt lat="40.7746205" lon="14.8658291"><ele>862.0</ele><time>2026-04-12T09:46:24.967Z</time></trkpt><trkpt lat="40.7746872" lon="14.865899"><ele>862.0</ele><time>2026-04-12T09:46:26.977Z</time></trkpt><trkpt lat="40.7747671" lon="14.8658275"><ele>862.0</ele><time>2026-04-12T09:46:27.976Z</time></trkpt><trkpt lat="40.7748398" lon="14.8657532"><ele>861.9999999999999</ele><time>2026-04-12T09:46:28.972Z</time></trkpt><trkpt lat="40.7749006" lon="14.8656915"><ele>862.0</ele><time>2026-04-12T09:46:29.975Z</time></trkpt><trkpt lat="40.7748743" lon="14.8658499"><ele>861.9999999999999</ele><time>2026-04-12T09:46:33.973Z</time></trkpt><trkpt lat="40.7748325" lon="14.8659404"><ele>862.0</ele><time>2026-04-12T09:46:34.972Z</time></trkpt><trkpt lat="40.7748158" lon="14.8660647"><ele>862.0</ele><time>2026-04-12T09:46:36.973Z</time></trkpt><trkpt lat="40.7748753" lon="14.866164"><ele>862.0</ele><time>2026-04-12T09:46:38.973Z</time></trkpt><trkpt lat="40.7749187" lon="14.866228"><ele>861.9999999999999</ele><time>2026-04-12T09:46:39.97Z</time></trkpt><trkpt lat="40.7749693" lon="14.8662855"><ele>862.0</ele><time>2026-04-12T09:46:40.971Z</time></trkpt><trkpt lat="40.7749819" lon="14.8661505"><ele>861.9999999999999</ele><time>2026-04-12T09:46:44.028Z</time></trkpt><trkpt lat="40.7750534" lon="14.8661641"><ele>862.0</ele><time>2026-04-12T09:46:46.956Z</time></trkpt><trkpt lat="40.7751124" lon="14.8662517"><ele>862.0</ele><time>2026-04-12T09:46:47.968Z</time></trkpt><trkpt lat="40.7751903" lon="14.8663502"><ele>862.0</ele><time>2026-04-12T09:46:48.966Z</time></trkpt><trkpt lat="40.7752398" lon="14.8664166"><ele>861.9999999999999</ele><time>2026-04-12T09:46:49.967Z</time></trkpt><trkpt lat="40.7753044" lon="14.8664187"><ele>862.0</ele><time>2026-04-12T09:46:52.959Z</time></trkpt><trkpt lat="40.7752798" lon="14.8663247"><ele>862.0</ele><time>2026-04-12T09:46:54.958Z</time></trkpt><trkpt lat="40.7752228" lon="14.8662055"><ele>862.0</ele><time>2026-04-12T09:46:57.97Z</time></trkpt><trkpt lat="40.7751872" lon="14.8660579"><ele>862.0</ele><time>2026-04-12T09:46:59.961Z</time></trkpt><trkpt lat="40.7751499" lon="14.8659156"><ele>862.0</ele><time>2026-04-12T09:47:01.973Z</time></trkpt><trkpt lat="40.7750971" lon="14.8658397"><ele>862.0</ele><time>2026-04-12T09:47:03.973Z</time></trkpt><trkpt lat="40.7750426" lon="14.865788"><ele>861.9999999999999</ele><time>2026-04-12T09:47:06.975Z</time></trkpt><trkpt lat="40.77497" lon="14.8657994"><ele>862.0</ele><time>2026-04-12T09:59:58.975Z</time></trkpt><trkpt lat="40.7750326" lon="14.8658445"><ele>862.0</ele><time>2026-04-12T10:10:41.953Z</time></trkpt><trkpt lat="40.7750486" lon="14.8659301"><ele>862.0</ele><time>2026-04-12T10:10:43.973Z</time></trkpt><trkpt lat="40.7750634" lon="14.8660403"><ele>861.9999999999999</ele><time>2026-04-12T10:10:45.96Z</time></trkpt><trkpt lat="40.7750662" lon="14.8661419"><ele>862.0</ele><time>2026-04-12T10:10:47.95Z</time></trkpt><trkpt lat="40.7751032" lon="14.8662496"><ele>861.9999999999999</ele><time>2026-04-12T10:10:49.965Z</time></trkpt><trkpt lat="40.7751711" lon="14.8663378"><ele>862.0</ele><time>2026-04-12T10:10:50.978Z</time></trkpt><trkpt lat="40.7752384" lon="14.8663805"><ele>862.0</ele><time>2026-04-12T10:10:51.964Z</time></trkpt><trkpt lat="40.7753123" lon="14.8663897"><ele>862.0</ele><time>2026-04-12T10:10:52.972Z</time></trkpt><trkpt lat="40.7753758" lon="14.8663217"><ele>861.9999999999999</ele><time>2026-04-12T10:10:53.966Z</time></trkpt><trkpt lat="40.7754282" lon="14.8662074"><ele>862.0</ele><time>2026-04-12T10:10:54.986Z</time></trkpt><trkpt lat="40.7754646" lon="14.8661088"><ele>863.8571428571429</ele><time>2026-04-12T10:10:55.968Z</time></trkpt><trkpt lat="40.7754683" lon="14.8660245"><ele>865.7142857142857</ele><time>2026-04-12T10:10:56.964Z</time></trkpt><trkpt lat="40.7754774" lon="14.8659209"><ele>867.5714285714286</ele><time>2026-04-12T10:10:58.966Z</time></trkpt><trkpt lat="40.7754075" lon="14.8659264"><ele>869.4285714285714</ele><time>2026-04-12T10:11:02.977Z</time></trkpt><trkpt lat="40.7753944" lon="14.8660171"><ele>871.2857142857142</ele><time>2026-04-12T10:11:03.967Z</time></trkpt><trkpt lat="40.775373" lon="14.8660974"><ele>873.1428571428571</ele><time>2026-04-12T10:11:04.972Z</time></trkpt><trkpt lat="40.7753168" lon="14.8661764"><ele>875.0</ele><time>2026-04-12T10:11:06.95Z</time></trkpt><trkpt lat="40.7752359" lon="14.8661862"><ele>875.0</ele><time>2026-04-12T10:11:08.968Z</time></trkpt><trkpt lat="40.7751855" lon="14.8660836"><ele>875.0</ele><time>2026-04-12T10:11:10.953Z</time></trkpt><trkpt lat="40.7751896" lon="14.8659372"><ele>875.0</ele><time>2026-04-12T10:11:11.969Z</time></trkpt><trkpt lat="40.7751816" lon="14.8657829"><ele>875.0</ele><time>2026-04-12T10:11:12.97Z</time></trkpt><trkpt lat="40.7751642" lon="14.8656481"><ele>875.0</ele><time>2026-04-12T10:11:13.965Z</time></trkpt><trkpt lat="40.7751556" lon="14.865559"><ele>872.4</ele><time>2026-04-12T10:11:14.971Z</time></trkpt><trkpt lat="40.7751068" lon="14.8654893"><ele>869.8</ele><time>2026-04-12T10:11:16.975Z</time></trkpt><trkpt lat="40.775021" lon="14.8655115"><ele>867.2</ele><time>2026-04-12T10:11:18.97Z</time></trkpt><trkpt lat="40.7749121" lon="14.8654523"><ele>864.6</ele><time>2026-04-12T10:11:20.981Z</time></trkpt><trkpt lat="40.7748272" lon="14.8653916"><ele>862.0</ele><time>2026-04-12T10:11:21.976Z</time></trkpt><trkpt lat="40.7747382" lon="14.8653354"><ele>861.9999999999999</ele><time>2026-04-12T10:11:22.973Z</time></trkpt><trkpt lat="40.7746574" lon="14.8652875"><ele>862.0</ele><time>2026-04-12T10:11:23.959Z</time></trkpt><trkpt lat="40.7745895" lon="14.8652474"><ele>862.0</ele><time>2026-04-12T10:11:24.964Z</time></trkpt><trkpt lat="40.7745097" lon="14.8652142"><ele>862.0</ele><time>2026-04-12T10:11:26.978Z</time></trkpt><trkpt lat="40.7744302" lon="14.865269"><ele>861.9999999999999</ele><time>2026-04-12T10:11:29.968Z</time></trkpt><trkpt lat="40.7744247" lon="14.8653696"><ele>862.0</ele><time>2026-04-12T10:11:30.955Z</time></trkpt><trkpt lat="40.7744588" lon="14.8654712"><ele>861.9999999999999</ele><time>2026-04-12T10:11:31.963Z</time></trkpt><trkpt lat="40.774527" lon="14.8655601"><ele>862.0</ele><time>2026-04-12T10:11:32.946Z</time></trkpt><trkpt lat="40.7746011" lon="14.8656432"><ele>862.0</ele><time>2026-04-12T10:11:33.966Z</time></trkpt><trkpt lat="40.7746433" lon="14.8657269"><ele>862.0</ele><time>2026-04-12T10:11:34.971Z</time></trkpt><trkpt lat="40.7746538" lon="14.8658125"><ele>861.9999999999999</ele><time>2026-04-12T10:11:35.968Z</time></trkpt><trkpt lat="40.774685" lon="14.8659184"><ele>862.0</ele><time>2026-04-12T10:11:37.959Z</time></trkpt><trkpt lat="40.7748108" lon="14.8658108"><ele>862.0</ele><time>2026-04-12T10:11:39.948Z</time></trkpt><trkpt lat="40.7748696" lon="14.8657285"><ele>862.0</ele><time>2026-04-12T10:11:40.956Z</time></trkpt><trkpt lat="40.7749473" lon="14.8656758"><ele>862.0</ele><time>2026-04-12T10:11:42.976Z</time></trkpt><trkpt lat="40.7749064" lon="14.8658848"><ele>862.0</ele><time>2026-04-12T10:11:45.976Z</time></trkpt><trkpt lat="40.7748628" lon="14.8659673"><ele>862.0</ele><time>2026-04-12T10:11:46.974Z</time></trkpt><trkpt lat="40.7748571" lon="14.8660785"><ele>862.0</ele><time>2026-04-12T10:11:48.976Z</time></trkpt><trkpt lat="40.7749325" lon="14.8661767"><ele>862.0</ele><time>2026-04-12T10:11:50.973Z</time></trkpt><trkpt lat="40.7749806" lon="14.8662622"><ele>862.0</ele><time>2026-04-12T10:11:51.962Z</time></trkpt><trkpt lat="40.7749961" lon="14.8661336"><ele>862.0</ele><time>2026-04-12T10:11:54.963Z</time></trkpt><trkpt lat="40.7750809" lon="14.8661456"><ele>862.0</ele><time>2026-04-12T10:11:57.975Z</time></trkpt><trkpt lat="40.775131" lon="14.8662378"><ele>866.3333333333333</ele><time>2026-04-12T10:11:58.979Z</time></trkpt><trkpt lat="40.7751971" lon="14.8663456"><ele>870.6666666666666</ele><time>2026-04-12T10:11:59.976Z</time></trkpt><trkpt lat="40.7752432" lon="14.8664089"><ele>875.0</ele><time>2026-04-12T10:12:00.966Z</time></trkpt><trkpt lat="40.7753392" lon="14.8663936"><ele>879.3333333333333</ele><time>2026-04-12T10:12:02.971Z</time></trkpt><trkpt lat="40.7753929" lon="14.8663234"><ele>883.6666666666666</ele><time>2026-04-12T10:12:03.961Z</time></trkpt><trkpt lat="40.7754322" lon="14.8662238"><ele>888.0</ele><time>2026-04-12T10:12:04.946Z</time></trkpt><trkpt lat="40.7754632" lon="14.8661384"><ele>888.0</ele><time>2026-04-12T10:12:05.975Z</time></trkpt><trkpt lat="40.775471" lon="14.8660043"><ele>888.0</ele><time>2026-04-12T10:12:07.97Z</time></trkpt><trkpt lat="40.7754901" lon="14.8659082"><ele>888.0</ele><time>2026-04-12T10:12:09.972Z</time></trkpt><trkpt lat="40.7754121" lon="14.8660105"><ele>888.0</ele><time>2026-04-12T10:12:14.962Z</time></trkpt><trkpt lat="40.7753716" lon="14.8660964"><ele>888.0</ele><time>2026-04-12T10:12:15.968Z</time></trkpt><trkpt lat="40.775312" lon="14.8661655"><ele>888.0</ele><time>2026-04-12T10:12:17.962Z</time></trkpt><trkpt lat="40.7752197" lon="14.8661801"><ele>888.0</ele><time>2026-04-12T10:12:19.971Z</time></trkpt><trkpt lat="40.7752072" lon="14.8659949"><ele>888.0</ele><time>2026-04-12T10:12:21.967Z</time></trkpt><trkpt lat="40.7752122" lon="14.8658526"><ele>888.0</ele><time>2026-04-12T10:12:22.956Z</time></trkpt><trkpt lat="40.7752028" lon="14.8657241"><ele>888.0</ele><time>2026-04-12T10:12:23.968Z</time></trkpt><trkpt lat="40.7751765" lon="14.8656123"><ele>888.0</ele><time>2026-04-12T10:12:24.972Z</time></trkpt><trkpt lat="40.775153" lon="14.8655335"><ele>882.8</ele><time>2026-04-12T10:12:25.969Z</time></trkpt><trkpt lat="40.775114" lon="14.8654638"><ele>877.5999999999999</ele><time>2026-04-12T10:12:27.979Z</time></trkpt><trkpt lat="40.7750077" lon="14.8654929"><ele>872.4000000000001</ele><time>2026-04-12T10:12:30.967Z</time></trkpt><trkpt lat="40.7749358" lon="14.8654431"><ele>867.2</ele><time>2026-04-12T10:12:31.961Z</time></trkpt><trkpt lat="40.7748334" lon="14.8653816"><ele>862.0</ele><time>2026-04-12T10:12:32.967Z</time></trkpt><trkpt lat="40.7747357" lon="14.8653299"><ele>861.9999999999999</ele><time>2026-04-12T10:12:33.978Z</time></trkpt><trkpt lat="40.7746645" lon="14.8652927"><ele>862.0</ele><time>2026-04-12T10:12:34.943Z</time></trkpt><trkpt lat="40.7745998" lon="14.865254"><ele>862.0</ele><time>2026-04-12T10:12:35.951Z</time></trkpt><trkpt lat="40.7745191" lon="14.8651805"><ele>862.0</ele><time>2026-04-12T10:12:37.969Z</time></trkpt><trkpt lat="40.7744623" lon="14.8650877"><ele>861.9999999999999</ele><time>2026-04-12T10:12:39.971Z</time></trkpt><trkpt lat="40.7743771" lon="14.8650148"><ele>862.0</ele><time>2026-04-12T10:12:41.965Z</time></trkpt><trkpt lat="40.7743091" lon="14.8649698"><ele>859.0</ele><time>2026-04-12T10:12:42.975Z</time></trkpt><trkpt lat="40.7742608" lon="14.8649109"><ele>856.0</ele><time>2026-04-12T10:12:43.949Z</time></trkpt><trkpt lat="40.7742184" lon="14.8648136"><ele>853.0</ele><time>2026-04-12T10:12:45.973Z</time></trkpt><trkpt lat="40.7742229" lon="14.8647201"><ele>850.0</ele><time>2026-04-12T10:12:47.972Z</time></trkpt><trkpt lat="40.7742905" lon="14.8646361"><ele>847.0</ele><time>2026-04-12T10:12:49.968Z</time></trkpt><trkpt lat="40.7744071" lon="14.86453"><ele>847.0</ele><time>2026-04-12T10:12:51.968Z</time></trkpt><trkpt lat="40.774464" lon="14.8644536"><ele>847.0</ele><time>2026-04-12T10:12:52.959Z</time></trkpt><trkpt lat="40.7745137" lon="14.864355"><ele>847.0</ele><time>2026-04-12T10:12:53.958Z</time></trkpt><trkpt lat="40.774571" lon="14.8642424"><ele>847.0</ele><time>2026-04-12T10:12:54.965Z</time></trkpt><trkpt lat="40.774635" lon="14.8641278"><ele>847.0</ele><time>2026-04-12T10:12:55.966Z</time></trkpt><trkpt lat="40.7746997" lon="14.8640191"><ele>843.9999999999999</ele><time>2026-04-12T10:12:56.971Z</time></trkpt><trkpt lat="40.7747666" lon="14.8639286"><ele>841.0</ele><time>2026-04-12T10:12:57.968Z</time></trkpt><trkpt lat="40.7748208" lon="14.8638407"><ele>838.0</ele><time>2026-04-12T10:12:58.973Z</time></trkpt><trkpt lat="40.7748585" lon="14.8637535"><ele>835.0</ele><time>2026-04-12T10:12:59.976Z</time></trkpt><trkpt lat="40.7748893" lon="14.8636665"><ele>831.9999999999999</ele><time>2026-04-12T10:13:00.97Z</time></trkpt><trkpt lat="40.7749175" lon="14.8635808"><ele>829.0</ele><time>2026-04-12T10:13:01.973Z</time></trkpt><trkpt lat="40.7749531" lon="14.8634183"><ele>825.8000000000001</ele><time>2026-04-12T10:13:03.968Z</time></trkpt><trkpt lat="40.7749594" lon="14.8633105"><ele>822.6</ele><time>2026-04-12T10:13:04.961Z</time></trkpt><trkpt lat="40.7749598" lon="14.863212"><ele>819.4</ele><time>2026-04-12T10:13:05.971Z</time></trkpt><trkpt lat="40.774928" lon="14.863104"><ele>816.2</ele><time>2026-04-12T10:13:07.974Z</time></trkpt><trkpt lat="40.7748275" lon="14.8630354"><ele>813.0</ele><time>2026-04-12T10:13:09.972Z</time></trkpt><trkpt lat="40.7747406" lon="14.8629819"><ele>813.0</ele><time>2026-04-12T10:13:11.975Z</time></trkpt><trkpt lat="40.7746389" lon="14.8629004"><ele>813.0</ele><time>2026-04-12T10:13:13.971Z</time></trkpt><trkpt lat="40.7745799" lon="14.8628499"><ele>813.0</ele><time>2026-04-12T10:13:14.979Z</time></trkpt><trkpt lat="40.7745006" lon="14.8627509"><ele>813.0</ele><time>2026-04-12T10:13:16.971Z</time></trkpt><trkpt lat="40.774465" lon="14.8626789"><ele>813.0</ele><time>2026-04-12T10:13:17.966Z</time></trkpt><trkpt lat="40.7743738" lon="14.8625889"><ele>809.5999999999999</ele><time>2026-04-12T10:13:19.97Z</time></trkpt><trkpt lat="40.774289" lon="14.8625337"><ele>806.1999999999999</ele><time>2026-04-12T10:13:21.971Z</time></trkpt><trkpt lat="40.7741856" lon="14.8624554"><ele>802.8</ele><time>2026-04-12T10:13:23.959Z</time></trkpt><trkpt lat="40.7740714" lon="14.8623892"><ele>799.4</ele><time>2026-04-12T10:13:25.973Z</time></trkpt><trkpt lat="40.7740082" lon="14.8623586"><ele>796.0</ele><time>2026-04-12T10:13:26.977Z</time></trkpt><trkpt lat="40.7739454" lon="14.8623108"><ele>795.9999999999999</ele><time>2026-04-12T10:13:27.973Z</time></trkpt><trkpt lat="40.7738916" lon="14.8622476"><ele>796.0</ele><time>2026-04-12T10:13:28.973Z</time></trkpt><trkpt lat="40.7738466" lon="14.8621737"><ele>796.0</ele><time>2026-04-12T10:13:29.975Z</time></trkpt><trkpt lat="40.773802" lon="14.8621068"><ele>796.0</ele><time>2026-04-12T10:13:30.981Z</time></trkpt><trkpt lat="40.7737646" lon="14.862038"><ele>796.0</ele><time>2026-04-12T10:13:31.965Z</time></trkpt><trkpt lat="40.7737354" lon="14.8619601"><ele>795.9999999999999</ele><time>2026-04-12T10:13:32.975Z</time></trkpt><trkpt lat="40.7737156" lon="14.8618623"><ele>796.0</ele><time>2026-04-12T10:13:33.955Z</time></trkpt><trkpt lat="40.7736832" lon="14.8617571"><ele>794.1666666666666</ele><time>2026-04-12T10:13:34.957Z</time></trkpt><trkpt lat="40.7736402" lon="14.8616589"><ele>792.3333333333333</ele><time>2026-04-12T10:13:35.965Z</time></trkpt><trkpt lat="40.7735933" lon="14.861555"><ele>790.5</ele><time>2026-04-12T10:13:36.96Z</time></trkpt><trkpt lat="40.7735459" lon="14.8614503"><ele>788.6666666666667</ele><time>2026-04-12T10:13:37.973Z</time></trkpt><trkpt lat="40.7735062" lon="14.8613479"><ele>786.8333333333334</ele><time>2026-04-12T10:13:38.967Z</time></trkpt><trkpt lat="40.7734766" lon="14.8612578"><ele>785.0</ele><time>2026-04-12T10:13:39.974Z</time></trkpt><trkpt lat="40.7734441" lon="14.8611499"><ele>779.8333333333334</ele><time>2026-04-12T10:13:40.978Z</time></trkpt><trkpt lat="40.7734063" lon="14.8610444"><ele>774.6666666666667</ele><time>2026-04-12T10:13:41.968Z</time></trkpt><trkpt lat="40.7733715" lon="14.860936"><ele>769.5</ele><time>2026-04-12T10:13:42.982Z</time></trkpt><trkpt lat="40.7733439" lon="14.8608339"><ele>764.3333333333334</ele><time>2026-04-12T10:13:43.948Z</time></trkpt><trkpt lat="40.7733159" lon="14.8607297"><ele>759.1666666666667</ele><time>2026-04-12T10:13:44.97Z</time></trkpt><trkpt lat="40.7732817" lon="14.8606171"><ele>754.0</ele><time>2026-04-12T10:13:45.971Z</time></trkpt><trkpt lat="40.7732361" lon="14.8604972"><ele>753.8000000000001</ele><time>2026-04-12T10:13:46.969Z</time></trkpt><trkpt lat="40.7731896" lon="14.8603744"><ele>753.6</ele><time>2026-04-12T10:13:47.971Z</time></trkpt><trkpt lat="40.7731292" lon="14.8602496"><ele>753.4</ele><time>2026-04-12T10:13:48.979Z</time></trkpt><trkpt lat="40.7730846" lon="14.860125"><ele>753.2</ele><time>2026-04-12T10:13:49.974Z</time></trkpt><trkpt lat="40.7730383" lon="14.8600088"><ele>753.0</ele><time>2026-04-12T10:13:50.972Z</time></trkpt><trkpt lat="40.7730041" lon="14.8598901"><ele>753.0</ele><time>2026-04-12T10:13:51.969Z</time></trkpt><trkpt lat="40.7729665" lon="14.8597635"><ele>753.0</ele><time>2026-04-12T10:13:52.952Z</time></trkpt><trkpt lat="40.7729265" lon="14.8596358"><ele>753.0</ele><time>2026-04-12T10:13:53.972Z</time></trkpt><trkpt lat="40.7728881" lon="14.8595083"><ele>753.0</ele><time>2026-04-12T10:13:54.966Z</time></trkpt><trkpt lat="40.7728423" lon="14.8593888"><ele>753.0</ele><time>2026-04-12T10:13:55.972Z</time></trkpt><trkpt lat="40.7728106" lon="14.8592644"><ele>752.6666666666666</ele><time>2026-04-12T10:13:56.964Z</time></trkpt><trkpt lat="40.7727904" lon="14.8591343"><ele>752.3333333333334</ele><time>2026-04-12T10:13:57.951Z</time></trkpt><trkpt lat="40.772775" lon="14.8590272"><ele>752.0</ele><time>2026-04-12T10:13:58.968Z</time></trkpt><trkpt lat="40.7727753" lon="14.8589284"><ele>751.6666666666667</ele><time>2026-04-12T10:13:59.971Z</time></trkpt><trkpt lat="40.77278" lon="14.8588327"><ele>751.3333333333334</ele><time>2026-04-12T10:14:00.976Z</time></trkpt><trkpt lat="40.7727725" lon="14.8587293"><ele>751.0</ele><time>2026-04-12T10:14:01.979Z</time></trkpt><trkpt lat="40.7727565" lon="14.8586174"><ele>751.0</ele><time>2026-04-12T10:14:02.973Z</time></trkpt><trkpt lat="40.7727388" lon="14.8584936"><ele>751.0</ele><time>2026-04-12T10:14:03.976Z</time></trkpt><trkpt lat="40.7727196" lon="14.8583684"><ele>751.0</ele><time>2026-04-12T10:14:04.971Z</time></trkpt><trkpt lat="40.7727" lon="14.858246"><ele>751.0</ele><time>2026-04-12T10:14:05.975Z</time></trkpt><trkpt lat="40.772678" lon="14.8581276"><ele>751.0</ele><time>2026-04-12T10:14:06.968Z</time></trkpt><trkpt lat="40.7726578" lon="14.8580076"><ele>746.5999999999999</ele><time>2026-04-12T10:14:07.957Z</time></trkpt><trkpt lat="40.7726285" lon="14.8578815"><ele>742.2</ele><time>2026-04-12T10:14:08.966Z</time></trkpt><trkpt lat="40.7725904" lon="14.8577547"><ele>737.8</ele><time>2026-04-12T10:14:09.968Z</time></trkpt><trkpt lat="40.7725505" lon="14.8576363"><ele>733.4000000000001</ele><time>2026-04-12T10:14:10.963Z</time></trkpt><trkpt lat="40.7725073" lon="14.8575329"><ele>729.0</ele><time>2026-04-12T10:14:11.967Z</time></trkpt><trkpt lat="40.7724539" lon="14.8574288"><ele>729.0</ele><time>2026-04-12T10:14:12.964Z</time></trkpt><trkpt lat="40.772408" lon="14.8573298"><ele>729.0</ele><time>2026-04-12T10:14:13.963Z</time></trkpt><trkpt lat="40.7723669" lon="14.8572318"><ele>729.0</ele><time>2026-04-12T10:14:14.962Z</time></trkpt><trkpt lat="40.7723325" lon="14.8571593"><ele>729.0</ele><time>2026-04-12T10:14:15.967Z</time></trkpt><trkpt lat="40.7722974" lon="14.8570775"><ele>729.0</ele><time>2026-04-12T10:14:16.964Z</time></trkpt><trkpt lat="40.7722482" lon="14.8569978"><ele>729.0</ele><time>2026-04-12T10:14:17.973Z</time></trkpt><trkpt lat="40.7721931" lon="14.8569287"><ele>729.0</ele><time>2026-04-12T10:14:18.961Z</time></trkpt><trkpt lat="40.7721331" lon="14.8568862"><ele>729.0</ele><time>2026-04-12T10:14:19.977Z</time></trkpt><trkpt lat="40.7720654" lon="14.8568467"><ele>729.0</ele><time>2026-04-12T10:14:20.976Z</time></trkpt><trkpt lat="40.7719914" lon="14.8567997"><ele>729.0</ele><time>2026-04-12T10:14:21.981Z</time></trkpt><trkpt lat="40.7719159" lon="14.8567405"><ele>729.0</ele><time>2026-04-12T10:14:22.971Z</time></trkpt><trkpt lat="40.7718398" lon="14.8566673"><ele>729.0</ele><time>2026-04-12T10:14:23.989Z</time></trkpt><trkpt lat="40.7717686" lon="14.8565944"><ele>725.2</ele><time>2026-04-12T10:14:24.973Z</time></trkpt><trkpt lat="40.7716796" lon="14.8565483"><ele>721.4000000000001</ele><time>2026-04-12T10:14:25.972Z</time></trkpt><trkpt lat="40.7715699" lon="14.8565298"><ele>717.6</ele><time>2026-04-12T10:14:26.971Z</time></trkpt><trkpt lat="40.7714709" lon="14.8565069"><ele>713.8</ele><time>2026-04-12T10:14:27.962Z</time></trkpt><trkpt lat="40.7713796" lon="14.856482"><ele>710.0</ele><time>2026-04-12T10:14:28.967Z</time></trkpt><trkpt lat="40.7712814" lon="14.8564708"><ele>710.0</ele><time>2026-04-12T10:14:29.969Z</time></trkpt><trkpt lat="40.7711937" lon="14.8564712"><ele>710.0</ele><time>2026-04-12T10:14:30.976Z</time></trkpt><trkpt lat="40.7710957" lon="14.8564621"><ele>710.0</ele><time>2026-04-12T10:14:32.971Z</time></trkpt><trkpt lat="40.7710317" lon="14.8564749"><ele>710.0</ele><time>2026-04-12T10:14:35.975Z</time></trkpt><trkpt lat="40.7710506" lon="14.8565655"><ele>710.0</ele><time>2026-04-12T10:14:41.975Z</time></trkpt><trkpt lat="40.7711718" lon="14.8566213"><ele>710.0</ele><time>2026-04-12T10:14:43.969Z</time></trkpt><trkpt lat="40.7712477" lon="14.8566499"><ele>710.0</ele><time>2026-04-12T10:14:44.97Z</time></trkpt><trkpt lat="40.7713566" lon="14.8567157"><ele>710.0</ele><time>2026-04-12T10:14:45.959Z</time></trkpt><trkpt lat="40.7714454" lon="14.8567855"><ele>710.0</ele><time>2026-04-12T10:14:46.965Z</time></trkpt><trkpt lat="40.7715199" lon="14.8568593"><ele>710.0</ele><time>2026-04-12T10:14:47.966Z</time></trkpt><trkpt lat="40.7715799" lon="14.8569312"><ele>706.6666666666666</ele><time>2026-04-12T10:14:48.972Z</time></trkpt><trkpt lat="40.7716417" lon="14.8569849"><ele>703.3333333333333</ele><time>2026-04-12T10:14:49.963Z</time></trkpt><trkpt lat="40.7717103" lon="14.8570458"><ele>700.0</ele><time>2026-04-12T10:14:50.97Z</time></trkpt><trkpt lat="40.7717624" lon="14.8570943"><ele>696.6666666666666</ele><time>2026-04-12T10:14:51.97Z</time></trkpt><trkpt lat="40.7716726" lon="14.8570922"><ele>693.3333333333334</ele><time>2026-04-12T10:14:56.964Z</time></trkpt><trkpt lat="40.7716" lon="14.8570606"><ele>690.0</ele><time>2026-04-12T10:14:57.969Z</time></trkpt><trkpt lat="40.7715283" lon="14.8570406"><ele>690.0</ele><time>2026-04-12T10:14:58.978Z</time></trkpt><trkpt lat="40.7714517" lon="14.8570312"><ele>690.0</ele><time>2026-04-12T10:14:59.973Z</time></trkpt><trkpt lat="40.7713654" lon="14.8570341"><ele>690.0</ele><time>2026-04-12T10:15:00.972Z</time></trkpt><trkpt lat="40.7712756" lon="14.857036"><ele>690.0</ele><time>2026-04-12T10:15:01.968Z</time></trkpt><trkpt lat="40.7711985" lon="14.8570326"><ele>690.0</ele><time>2026-04-12T10:15:02.946Z</time></trkpt><trkpt lat="40.7711162" lon="14.8570151"><ele>690.0</ele><time>2026-04-12T10:15:03.958Z</time></trkpt><trkpt lat="40.7710439" lon="14.8569912"><ele>690.0</ele><time>2026-04-12T10:15:04.96Z</time></trkpt><trkpt lat="40.7709409" lon="14.8569513"><ele>690.0</ele><time>2026-04-12T10:15:06.969Z</time></trkpt><trkpt lat="40.7708711" lon="14.8569548"><ele>690.0</ele><time>2026-04-12T10:15:09.961Z</time></trkpt><trkpt lat="40.7709257" lon="14.8570111"><ele>690.0</ele><time>2026-04-12T10:15:13.968Z</time></trkpt><trkpt lat="40.7710036" lon="14.8570365"><ele>690.0</ele><time>2026-04-12T10:15:15.973Z</time></trkpt><trkpt lat="40.7710746" lon="14.8570654"><ele>690.0</ele><time>2026-04-12T10:15:16.974Z</time></trkpt><trkpt lat="40.7711472" lon="14.857106"><ele>690.0</ele><time>2026-04-12T10:15:17.967Z</time></trkpt><trkpt lat="40.7712292" lon="14.8571585"><ele>690.0</ele><time>2026-04-12T10:15:18.972Z</time></trkpt><trkpt lat="40.7713089" lon="14.8572226"><ele>690.0</ele><time>2026-04-12T10:15:19.97Z</time></trkpt><trkpt lat="40.7713734" lon="14.8572816"><ele>690.0</ele><time>2026-04-12T10:15:20.976Z</time></trkpt><trkpt lat="40.7714227" lon="14.8573514"><ele>690.0</ele><time>2026-04-12T10:15:21.98Z</time></trkpt><trkpt lat="40.771459" lon="14.8574257"><ele>690.0</ele><time>2026-04-12T10:15:22.975Z</time></trkpt><trkpt lat="40.7714758" lon="14.8575171"><ele>686.5</ele><time>2026-04-12T10:15:23.956Z</time></trkpt><trkpt lat="40.7714925" lon="14.8576259"><ele>683.0</ele><time>2026-04-12T10:15:24.961Z</time></trkpt><trkpt lat="40.771507" lon="14.8577356"><ele>679.5</ele><time>2026-04-12T10:15:25.973Z</time></trkpt><trkpt lat="40.7715259" lon="14.8578547"><ele>676.0</ele><time>2026-04-12T10:15:26.959Z</time></trkpt><trkpt lat="40.771541" lon="14.8579704"><ele>672.5</ele><time>2026-04-12T10:15:27.965Z</time></trkpt><trkpt lat="40.7715634" lon="14.8580664"><ele>669.0</ele><time>2026-04-12T10:15:28.964Z</time></trkpt><trkpt lat="40.7715929" lon="14.8581742"><ele>669.0</ele><time>2026-04-12T10:15:29.974Z</time></trkpt><trkpt lat="40.771624" lon="14.8582792"><ele>669.0</ele><time>2026-04-12T10:15:30.966Z</time></trkpt><trkpt lat="40.7716533" lon="14.8583708"><ele>669.0</ele><time>2026-04-12T10:15:31.97Z</time></trkpt><trkpt lat="40.7716817" lon="14.858447"><ele>669.0</ele><time>2026-04-12T10:15:32.965Z</time></trkpt><trkpt lat="40.7717228" lon="14.8585218"><ele>669.0</ele><time>2026-04-12T10:15:33.96Z</time></trkpt><trkpt lat="40.7717706" lon="14.8585979"><ele>669.0</ele><time>2026-04-12T10:15:34.965Z</time></trkpt><trkpt lat="40.7718032" lon="14.8586772"><ele>669.0</ele><time>2026-04-12T10:15:35.964Z</time></trkpt><trkpt lat="40.7717932" lon="14.8588496"><ele>665.3333333333334</ele><time>2026-04-12T10:15:37.963Z</time></trkpt><trkpt lat="40.7717722" lon="14.8589484"><ele>661.6666666666666</ele><time>2026-04-12T10:15:38.974Z</time></trkpt><trkpt lat="40.7717621" lon="14.8590418"><ele>658.0</ele><time>2026-04-12T10:15:39.984Z</time></trkpt><trkpt lat="40.7717542" lon="14.8591331"><ele>654.3333333333333</ele><time>2026-04-12T10:15:40.969Z</time></trkpt><trkpt lat="40.7717517" lon="14.8592321"><ele>650.6666666666666</ele><time>2026-04-12T10:15:41.971Z</time></trkpt><trkpt lat="40.7717524" lon="14.859332"><ele>647.0</ele><time>2026-04-12T10:15:42.97Z</time></trkpt><trkpt lat="40.7717586" lon="14.8594561"><ele>645.4</ele><time>2026-04-12T10:15:43.962Z</time></trkpt><trkpt lat="40.7717722" lon="14.8595906"><ele>643.8000000000001</ele><time>2026-04-12T10:15:44.959Z</time></trkpt><trkpt lat="40.7717881" lon="14.8597238"><ele>642.2</ele><time>2026-04-12T10:15:45.957Z</time></trkpt><trkpt lat="40.7717888" lon="14.8598577"><ele>640.6</ele><time>2026-04-12T10:15:46.961Z</time></trkpt><trkpt lat="40.7717927" lon="14.8599689"><ele>639.0</ele><time>2026-04-12T10:15:47.972Z</time></trkpt><trkpt lat="40.7717955" lon="14.8600933"><ele>639.5</ele><time>2026-04-12T10:15:48.97Z</time></trkpt><trkpt lat="40.7717829" lon="14.8602178"><ele>640.0</ele><time>2026-04-12T10:15:49.967Z</time></trkpt><trkpt lat="40.7717704" lon="14.8603209"><ele>640.5</ele><time>2026-04-12T10:15:50.967Z</time></trkpt><trkpt lat="40.7717641" lon="14.860412"><ele>641.0</ele><time>2026-04-12T10:15:51.967Z</time></trkpt><trkpt lat="40.7717552" lon="14.8604985"><ele>641.5</ele><time>2026-04-12T10:15:52.969Z</time></trkpt><trkpt lat="40.7717381" lon="14.8606026"><ele>642.0</ele><time>2026-04-12T10:15:53.976Z</time></trkpt><trkpt lat="40.7717282" lon="14.8607121"><ele>642.0</ele><time>2026-04-12T10:15:54.976Z</time></trkpt><trkpt lat="40.7717148" lon="14.8608181"><ele>642.0</ele><time>2026-04-12T10:15:55.967Z</time></trkpt><trkpt lat="40.7717044" lon="14.8609293"><ele>642.0</ele><time>2026-04-12T10:15:56.967Z</time></trkpt><trkpt lat="40.7717058" lon="14.8610333"><ele>642.0</ele><time>2026-04-12T10:15:57.968Z</time></trkpt><trkpt lat="40.7717251" lon="14.8611438"><ele>642.0</ele><time>2026-04-12T10:15:59.955Z</time></trkpt><trkpt lat="40.7717614" lon="14.8612125"><ele>642.0</ele><time>2026-04-12T10:16:05.958Z</time></trkpt><trkpt lat="40.7716982" lon="14.8612164"><ele>642.0</ele><time>2026-04-12T10:16:31.959Z</time></trkpt><trkpt lat="40.7716046" lon="14.8612058"><ele>642.0</ele><time>2026-04-12T10:16:36.987Z</time></trkpt><trkpt lat="40.7715447" lon="14.8611535"><ele>642.0</ele><time>2026-04-12T10:16:38.958Z</time></trkpt><trkpt lat="40.7714406" lon="14.8610297"><ele>642.0</ele><time>2026-04-12T10:16:40.944Z</time></trkpt><trkpt lat="40.7713853" lon="14.860962"><ele>642.0</ele><time>2026-04-12T10:16:41.966Z</time></trkpt><trkpt lat="40.7713368" lon="14.8608957"><ele>642.0</ele><time>2026-04-12T10:16:42.968Z</time></trkpt><trkpt lat="40.7712868" lon="14.8608255"><ele>642.0</ele><time>2026-04-12T10:16:43.965Z</time></trkpt><trkpt lat="40.7711983" lon="14.8607444"><ele>642.0</ele><time>2026-04-12T10:16:45.955Z</time></trkpt><trkpt lat="40.771125" lon="14.8606781"><ele>642.0</ele><time>2026-04-12T10:16:47.965Z</time></trkpt><trkpt lat="40.7710499" lon="14.8606772"><ele>642.0</ele><time>2026-04-12T10:16:50.962Z</time></trkpt><trkpt lat="40.7709442" lon="14.8607412"><ele>639.0</ele><time>2026-04-12T10:16:52.965Z</time></trkpt><trkpt lat="40.7708642" lon="14.8607369"><ele>636.0</ele><time>2026-04-12T10:16:55.964Z</time></trkpt><trkpt lat="40.7707962" lon="14.8606668"><ele>633.0</ele><time>2026-04-12T10:16:58.964Z</time></trkpt><trkpt lat="40.7707103" lon="14.8605843"><ele>630.0</ele><time>2026-04-12T10:17:00.998Z</time></trkpt><trkpt lat="40.770632" lon="14.8605107"><ele>627.0</ele><time>2026-04-12T10:17:01.97Z</time></trkpt><trkpt lat="40.7705283" lon="14.8604258"><ele>627.0</ele><time>2026-04-12T10:17:02.969Z</time></trkpt><trkpt lat="40.770423" lon="14.8603378"><ele>627.0</ele><time>2026-04-12T10:17:03.968Z</time></trkpt><trkpt lat="40.7703137" lon="14.8602552"><ele>627.0</ele><time>2026-04-12T10:17:04.965Z</time></trkpt><trkpt lat="40.7702099" lon="14.8601883"><ele>627.0</ele><time>2026-04-12T10:17:06.044Z</time></trkpt><trkpt lat="40.7701162" lon="14.860129"><ele>622.6</ele><time>2026-04-12T10:17:07.045Z</time></trkpt><trkpt lat="40.7700307" lon="14.8600947"><ele>618.2</ele><time>2026-04-12T10:17:08.027Z</time></trkpt><trkpt lat="40.7699425" lon="14.8600594"><ele>613.8</ele><time>2026-04-12T10:17:08.966Z</time></trkpt><trkpt lat="40.7698433" lon="14.8600279"><ele>609.4</ele><time>2026-04-12T10:17:09.971Z</time></trkpt><trkpt lat="40.76976" lon="14.8599964"><ele>605.0</ele><time>2026-04-12T10:17:10.973Z</time></trkpt><trkpt lat="40.7696377" lon="14.859973"><ele>605.0</ele><time>2026-04-12T10:17:12.976Z</time></trkpt><trkpt lat="40.7695545" lon="14.8599528"><ele>605.0</ele><time>2026-04-12T10:17:15.062Z</time></trkpt><trkpt lat="40.7694911" lon="14.859934"><ele>605.0</ele><time>2026-04-12T10:17:17.037Z</time></trkpt><trkpt lat="40.7695483" lon="14.8598693"><ele>605.0</ele><time>2026-04-12T10:17:23.062Z</time></trkpt><trkpt lat="40.7696802" lon="14.8598436"><ele>605.0</ele><time>2026-04-12T10:17:24.966Z</time></trkpt><trkpt lat="40.7697546" lon="14.8598443"><ele>605.0</ele><time>2026-04-12T10:17:25.972Z</time></trkpt><trkpt lat="40.7698336" lon="14.8598317"><ele>605.0</ele><time>2026-04-12T10:17:26.973Z</time></trkpt><trkpt lat="40.7699122" lon="14.8598265"><ele>605.0</ele><time>2026-04-12T10:17:27.971Z</time></trkpt><trkpt lat="40.77001" lon="14.8598323"><ele>605.0</ele><time>2026-04-12T10:17:28.97Z</time></trkpt><trkpt lat="40.7701211" lon="14.8598449"><ele>605.0</ele><time>2026-04-12T10:17:29.964Z</time></trkpt><trkpt lat="40.7702273" lon="14.8598559"><ele>605.0</ele><time>2026-04-12T10:17:30.99Z</time></trkpt><trkpt lat="40.7703242" lon="14.8598673"><ele>605.2</ele><time>2026-04-12T10:17:31.965Z</time></trkpt><trkpt lat="40.7704026" lon="14.8598771"><ele>605.4</ele><time>2026-04-12T10:17:33.058Z</time></trkpt><trkpt lat="40.7705059" lon="14.8598936"><ele>605.6</ele><time>2026-04-12T10:17:34.972Z</time></trkpt><trkpt lat="40.7704827" lon="14.8597824"><ele>605.8</ele><time>2026-04-12T10:17:39.966Z</time></trkpt><trkpt lat="40.7703877" lon="14.859747"><ele>606.0</ele><time>2026-04-12T10:17:41.982Z</time></trkpt><trkpt lat="40.7702702" lon="14.8597379"><ele>606.0</ele><time>2026-04-12T10:17:43.967Z</time></trkpt><trkpt lat="40.7703097" lon="14.8596528"><ele>606.0</ele><time>2026-04-12T10:17:48.968Z</time></trkpt><trkpt lat="40.7704055" lon="14.8595777"><ele>606.0</ele><time>2026-04-12T10:17:50.969Z</time></trkpt><trkpt lat="40.7704986" lon="14.8595007"><ele>606.0</ele><time>2026-04-12T10:17:52.971Z</time></trkpt><trkpt lat="40.7704831" lon="14.8594122"><ele>606.0</ele><time>2026-04-12T10:17:56.977Z</time></trkpt><trkpt lat="40.7704148" lon="14.8593659"><ele>606.0</ele><time>2026-04-12T10:18:00.977Z</time></trkpt><trkpt lat="40.7703723" lon="14.8592936"><ele>604.5</ele><time>2026-04-12T10:18:04.973Z</time></trkpt><trkpt lat="40.7703647" lon="14.8591916"><ele>603.0</ele><time>2026-04-12T10:18:08.95Z</time></trkpt><trkpt lat="40.7703252" lon="14.8591063"><ele>601.5</ele><time>2026-04-12T10:18:13.965Z</time></trkpt><trkpt lat="40.7702502" lon="14.8590819"><ele>600.0</ele><time>2026-04-12T10:18:39.973Z</time></trkpt><trkpt lat="40.7701648" lon="14.859062"><ele>598.5</ele><time>2026-04-12T10:18:46.975Z</time></trkpt><trkpt lat="40.7700903" lon="14.8590595"><ele>597.0</ele><time>2026-04-12T10:18:57.974Z</time></trkpt><trkpt lat="40.770015" lon="14.8590585"><ele>594.1666666666666</ele><time>2026-04-12T10:19:01.964Z</time></trkpt><trkpt lat="40.7699379" lon="14.8590484"><ele>591.3333333333334</ele><time>2026-04-12T10:19:06.056Z</time></trkpt><trkpt lat="40.7698517" lon="14.8590375"><ele>588.5</ele><time>2026-04-12T10:19:08.959Z</time></trkpt><trkpt lat="40.7697896" lon="14.8589862"><ele>585.6666666666667</ele><time>2026-04-12T10:19:11.028Z</time></trkpt><trkpt lat="40.769729" lon="14.8589424"><ele>582.8333333333334</ele><time>2026-04-12T10:19:12.95Z</time></trkpt><trkpt lat="40.7696524" lon="14.858882"><ele>580.0</ele><time>2026-04-12T10:19:15.965Z</time></trkpt><trkpt lat="40.7695933" lon="14.8588433"><ele>580.0</ele><time>2026-04-12T10:19:17.951Z</time></trkpt><trkpt lat="40.7695011" lon="14.8588074"><ele>580.0</ele><time>2026-04-12T10:19:20.951Z</time></trkpt><trkpt lat="40.7694046" lon="14.8588119"><ele>580.0</ele><time>2026-04-12T10:19:23.969Z</time></trkpt><trkpt lat="40.7693405" lon="14.8588321"><ele>580.0</ele><time>2026-04-12T10:19:25.959Z</time></trkpt><trkpt lat="40.7692572" lon="14.8588137"><ele>580.0</ele><time>2026-04-12T10:19:28.95Z</time></trkpt><trkpt lat="40.7691696" lon="14.8588381"><ele>580.0</ele><time>2026-04-12T10:19:31.968Z</time></trkpt><trkpt lat="40.7690851" lon="14.858863"><ele>578.3333333333334</ele><time>2026-04-12T10:19:33.969Z</time></trkpt><trkpt lat="40.7689993" lon="14.8589071"><ele>576.6666666666667</ele><time>2026-04-12T10:19:35.949Z</time></trkpt><trkpt lat="40.7689255" lon="14.8590297"><ele>575.0</ele><time>2026-04-12T10:19:38.048Z</time></trkpt><trkpt lat="40.7688797" lon="14.8591093"><ele>573.3333333333334</ele><time>2026-04-12T10:19:38.963Z</time></trkpt><trkpt lat="40.7688505" lon="14.8591909"><ele>571.6666666666666</ele><time>2026-04-12T10:19:39.967Z</time></trkpt><trkpt lat="40.7688144" lon="14.8592911"><ele>570.0</ele><time>2026-04-12T10:19:40.964Z</time></trkpt><trkpt lat="40.7687768" lon="14.8593965"><ele>566.6666666666666</ele><time>2026-04-12T10:19:41.959Z</time></trkpt><trkpt lat="40.7687408" lon="14.859494"><ele>563.3333333333334</ele><time>2026-04-12T10:19:42.961Z</time></trkpt><trkpt lat="40.7686909" lon="14.8595745"><ele>560.0</ele><time>2026-04-12T10:19:43.965Z</time></trkpt><trkpt lat="40.7686388" lon="14.8596477"><ele>556.6666666666667</ele><time>2026-04-12T10:19:44.964Z</time></trkpt><trkpt lat="40.768591" lon="14.8597351"><ele>553.3333333333334</ele><time>2026-04-12T10:19:45.956Z</time></trkpt><trkpt lat="40.7685503" lon="14.8598391"><ele>550.0</ele><time>2026-04-12T10:19:47.045Z</time></trkpt><trkpt lat="40.768518" lon="14.8599276"><ele>550.0</ele><time>2026-04-12T10:19:48.024Z</time></trkpt><trkpt lat="40.7684867" lon="14.8600099"><ele>550.0</ele><time>2026-04-12T10:19:48.969Z</time></trkpt><trkpt lat="40.7684396" lon="14.8600999"><ele>550.0</ele><time>2026-04-12T10:19:50.968Z</time></trkpt><trkpt lat="40.7683587" lon="14.8602262"><ele>550.0</ele><time>2026-04-12T10:19:52.981Z</time></trkpt><trkpt lat="40.7682928" lon="14.8603147"><ele>550.0</ele><time>2026-04-12T10:19:54.958Z</time></trkpt><trkpt lat="40.7682342" lon="14.8603773"><ele>550.0</ele><time>2026-04-12T10:19:56.96Z</time></trkpt><trkpt lat="40.7681714" lon="14.8604705"><ele>553.8</ele><time>2026-04-12T10:19:58.979Z</time></trkpt><trkpt lat="40.7681047" lon="14.8605564"><ele>557.6</ele><time>2026-04-12T10:19:59.971Z</time></trkpt><trkpt lat="40.7680351" lon="14.8606376"><ele>561.4</ele><time>2026-04-12T10:20:00.988Z</time></trkpt><trkpt lat="40.7679656" lon="14.860713"><ele>565.2</ele><time>2026-04-12T10:20:01.961Z</time></trkpt><trkpt lat="40.7679027" lon="14.860792"><ele>569.0</ele><time>2026-04-12T10:20:02.968Z</time></trkpt><trkpt lat="40.7678422" lon="14.8608782"><ele>565.2</ele><time>2026-04-12T10:20:03.972Z</time></trkpt><trkpt lat="40.7677779" lon="14.8609606"><ele>561.4</ele><time>2026-04-12T10:20:04.963Z</time></trkpt><trkpt lat="40.7677105" lon="14.8610488"><ele>557.6</ele><time>2026-04-12T10:20:05.965Z</time></trkpt><trkpt lat="40.7676517" lon="14.8611103"><ele>553.8</ele><time>2026-04-12T10:20:06.974Z</time></trkpt><trkpt lat="40.7676101" lon="14.8611763"><ele>550.0</ele><time>2026-04-12T10:20:07.963Z</time></trkpt><trkpt lat="40.76761" lon="14.8613439"><ele>550.0</ele><time>2026-04-12T10:20:09.964Z</time></trkpt><trkpt lat="40.7676253" lon="14.8614469"><ele>550.0</ele><time>2026-04-12T10:20:11.966Z</time></trkpt><trkpt lat="40.7675888" lon="14.8615153"><ele>550.0</ele><time>2026-04-12T10:20:13.967Z</time></trkpt><trkpt lat="40.7674691" lon="14.8615558"><ele>550.0</ele><time>2026-04-12T10:20:15.966Z</time></trkpt><trkpt lat="40.7673988" lon="14.8616011"><ele>550.0</ele><time>2026-04-12T10:20:16.962Z</time></trkpt><trkpt lat="40.7673268" lon="14.8616508"><ele>550.0</ele><time>2026-04-12T10:20:17.959Z</time></trkpt><trkpt lat="40.7672466" lon="14.8617185"><ele>550.0</ele><time>2026-04-12T10:20:19.96Z</time></trkpt><trkpt lat="40.7671615" lon="14.861721"><ele>550.0</ele><time>2026-04-12T10:20:22.962Z</time></trkpt><trkpt lat="40.767084" lon="14.8617544"><ele>550.0</ele><time>2026-04-12T10:20:24.963Z</time></trkpt><trkpt lat="40.7669847" lon="14.861785"><ele>550.0</ele><time>2026-04-12T10:20:26.972Z</time></trkpt><trkpt lat="40.7669086" lon="14.8618086"><ele>550.0</ele><time>2026-04-12T10:20:27.963Z</time></trkpt><trkpt lat="40.766779" lon="14.8618399"><ele>555.8</ele><time>2026-04-12T10:20:29.964Z</time></trkpt><trkpt lat="40.7667033" lon="14.8618503"><ele>561.6</ele><time>2026-04-12T10:20:30.961Z</time></trkpt><trkpt lat="40.7666148" lon="14.8618452"><ele>567.4</ele><time>2026-04-12T10:20:31.952Z</time></trkpt><trkpt lat="40.7665202" lon="14.8618376"><ele>573.2</ele><time>2026-04-12T10:20:32.956Z</time></trkpt><trkpt lat="40.7664105" lon="14.8618375"><ele>579.0</ele><time>2026-04-12T10:20:33.952Z</time></trkpt><trkpt lat="40.76631" lon="14.8618171"><ele>579.0</ele><time>2026-04-12T10:20:34.957Z</time></trkpt><trkpt lat="40.7662117" lon="14.861812"><ele>579.0</ele><time>2026-04-12T10:20:35.969Z</time></trkpt><trkpt lat="40.7661222" lon="14.8618135"><ele>579.0</ele><time>2026-04-12T10:20:36.96Z</time></trkpt><trkpt lat="40.7660346" lon="14.8618254"><ele>579.0</ele><time>2026-04-12T10:20:37.963Z</time></trkpt><trkpt lat="40.7659563" lon="14.8618369"><ele>579.0</ele><time>2026-04-12T10:20:38.967Z</time></trkpt><trkpt lat="40.7658817" lon="14.861863"><ele>579.0</ele><time>2026-04-12T10:20:39.962Z</time></trkpt><trkpt lat="40.7658147" lon="14.861905"><ele>575.3333333333334</ele><time>2026-04-12T10:20:40.971Z</time></trkpt><trkpt lat="40.7657592" lon="14.861974"><ele>571.6666666666666</ele><time>2026-04-12T10:20:41.968Z</time></trkpt><trkpt lat="40.7656941" lon="14.8620437"><ele>568.0</ele><time>2026-04-12T10:20:42.972Z</time></trkpt><trkpt lat="40.7656197" lon="14.8620915"><ele>564.3333333333333</ele><time>2026-04-12T10:20:43.971Z</time></trkpt><trkpt lat="40.7655268" lon="14.8621176"><ele>560.6666666666666</ele><time>2026-04-12T10:20:44.958Z</time></trkpt><trkpt lat="40.7654387" lon="14.8621507"><ele>557.0</ele><time>2026-04-12T10:20:45.963Z</time></trkpt><trkpt lat="40.7653597" lon="14.862196"><ele>557.0</ele><time>2026-04-12T10:20:46.967Z</time></trkpt><trkpt lat="40.7652901" lon="14.8622377"><ele>557.0</ele><time>2026-04-12T10:20:47.966Z</time></trkpt><trkpt lat="40.7652302" lon="14.8622832"><ele>557.0</ele><time>2026-04-12T10:20:48.964Z</time></trkpt><trkpt lat="40.7651716" lon="14.8623396"><ele>557.0</ele><time>2026-04-12T10:20:49.969Z</time></trkpt><trkpt lat="40.765112" lon="14.8624232"><ele>557.0</ele><time>2026-04-12T10:20:50.966Z</time></trkpt><trkpt lat="40.7650645" lon="14.8624987"><ele>557.0</ele><time>2026-04-12T10:20:51.967Z</time></trkpt><trkpt lat="40.7650284" lon="14.8625913"><ele>553.5</ele><time>2026-04-12T10:20:53.966Z</time></trkpt><trkpt lat="40.7649825" lon="14.8626487"><ele>550.0</ele><time>2026-04-12T10:20:55.965Z</time></trkpt><trkpt lat="40.7649157" lon="14.8627024"><ele>546.5</ele><time>2026-04-12T10:20:57.959Z</time></trkpt><trkpt lat="40.7648556" lon="14.8627748"><ele>543.0</ele><time>2026-04-12T10:20:58.961Z</time></trkpt><trkpt lat="40.7647983" lon="14.862855"><ele>539.5</ele><time>2026-04-12T10:20:59.975Z</time></trkpt><trkpt lat="40.7647388" lon="14.8629143"><ele>536.0</ele><time>2026-04-12T10:21:00.965Z</time></trkpt><trkpt lat="40.7646758" lon="14.8629903"><ele>536.0</ele><time>2026-04-12T10:21:01.971Z</time></trkpt><trkpt lat="40.7646211" lon="14.8630959"><ele>536.0</ele><time>2026-04-12T10:21:02.984Z</time></trkpt><trkpt lat="40.7645863" lon="14.8631895"><ele>536.0</ele><time>2026-04-12T10:21:03.971Z</time></trkpt><trkpt lat="40.7645707" lon="14.8632944"><ele>536.0</ele><time>2026-04-12T10:21:04.971Z</time></trkpt><trkpt lat="40.7645684" lon="14.8633914"><ele>536.0</ele><time>2026-04-12T10:21:05.972Z</time></trkpt><trkpt lat="40.7645825" lon="14.8635109"><ele>536.0</ele><time>2026-04-12T10:21:06.973Z</time></trkpt><trkpt lat="40.7646147" lon="14.8636386"><ele>533.8</ele><time>2026-04-12T10:21:07.976Z</time></trkpt><trkpt lat="40.7646547" lon="14.8637834"><ele>531.6</ele><time>2026-04-12T10:21:08.972Z</time></trkpt><trkpt lat="40.7646879" lon="14.8639164"><ele>529.4</ele><time>2026-04-12T10:21:09.966Z</time></trkpt><trkpt lat="40.7646997" lon="14.8640422"><ele>527.2</ele><time>2026-04-12T10:21:10.975Z</time></trkpt><trkpt lat="40.7646829" lon="14.8641656"><ele>525.0</ele><time>2026-04-12T10:21:11.967Z</time></trkpt><trkpt lat="40.7646752" lon="14.8642631"><ele>521.1666666666666</ele><time>2026-04-12T10:21:12.977Z</time></trkpt><trkpt lat="40.7646967" lon="14.8643455"><ele>517.3333333333334</ele><time>2026-04-12T10:21:14.978Z</time></trkpt><trkpt lat="40.7647503" lon="14.8644063"><ele>513.5</ele><time>2026-04-12T10:22:00.975Z</time></trkpt><trkpt lat="40.7648023" lon="14.8644575"><ele>509.6666666666667</ele><time>2026-04-12T10:22:02.977Z</time></trkpt><trkpt lat="40.7648879" lon="14.8645077"><ele>505.83333333333337</ele><time>2026-04-12T10:22:04.971Z</time></trkpt><trkpt lat="40.7649411" lon="14.864576"><ele>502.0</ele><time>2026-04-12T10:22:06.971Z</time></trkpt><trkpt lat="40.7649744" lon="14.8646793"><ele>502.00000000000006</ele><time>2026-04-12T10:22:08.972Z</time></trkpt><trkpt lat="40.7650171" lon="14.8647848"><ele>502.0</ele><time>2026-04-12T10:22:10.983Z</time></trkpt><trkpt lat="40.7650544" lon="14.864902"><ele>502.0</ele><time>2026-04-12T10:22:12.982Z</time></trkpt><trkpt lat="40.7650907" lon="14.8649825"><ele>502.0</ele><time>2026-04-12T10:22:14.967Z</time></trkpt><trkpt lat="40.765146" lon="14.8650798"><ele>502.00000000000006</ele><time>2026-04-12T10:22:17.974Z</time></trkpt><trkpt lat="40.7652169" lon="14.8651377"><ele>502.0</ele><time>2026-04-12T10:22:19.972Z</time></trkpt><trkpt lat="40.7653173" lon="14.8652094"><ele>502.0</ele><time>2026-04-12T10:22:21.971Z</time></trkpt><trkpt lat="40.7654465" lon="14.865248"><ele>502.00000000000006</ele><time>2026-04-12T10:22:23.969Z</time></trkpt><trkpt lat="40.765526" lon="14.8652115"><ele>502.00000000000006</ele><time>2026-04-12T10:22:25.962Z</time></trkpt><trkpt lat="40.7656074" lon="14.865275"><ele>502.0</ele><time>2026-04-12T10:22:28.964Z</time></trkpt><trkpt lat="40.7656057" lon="14.8654037"><ele>502.0</ele><time>2026-04-12T10:22:31.973Z</time></trkpt><trkpt lat="40.7655947" lon="14.8655281"><ele>502.0</ele><time>2026-04-12T10:22:33.967Z</time></trkpt><trkpt lat="40.7655901" lon="14.8656811"><ele>502.00000000000006</ele><time>2026-04-12T10:22:35.966Z</time></trkpt><trkpt lat="40.7656172" lon="14.8658376"><ele>502.00000000000006</ele><time>2026-04-12T10:22:37.976Z</time></trkpt><trkpt lat="40.7656642" lon="14.8659655"><ele>502.0</ele><time>2026-04-12T10:22:39.969Z</time></trkpt><trkpt lat="40.7657077" lon="14.8660523"><ele>502.0</ele><time>2026-04-12T10:22:41.97Z</time></trkpt><trkpt lat="40.7657675" lon="14.8661272"><ele>502.6</ele><time>2026-04-12T10:22:43.967Z</time></trkpt><trkpt lat="40.765847" lon="14.866176"><ele>503.20000000000005</ele><time>2026-04-12T10:22:45.976Z</time></trkpt><trkpt lat="40.7659144" lon="14.866191"><ele>503.8</ele><time>2026-04-12T10:22:46.978Z</time></trkpt><trkpt lat="40.7660287" lon="14.8661849"><ele>504.4</ele><time>2026-04-12T10:22:48.972Z</time></trkpt><trkpt lat="40.7661172" lon="14.8661885"><ele>505.0</ele><time>2026-04-12T10:22:50.974Z</time></trkpt><trkpt lat="40.7662163" lon="14.866206"><ele>505.0</ele><time>2026-04-12T10:22:52.966Z</time></trkpt><trkpt lat="40.7663369" lon="14.8662211"><ele>505.0</ele><time>2026-04-12T10:22:54.97Z</time></trkpt><trkpt lat="40.7664492" lon="14.866226"><ele>505.0</ele><time>2026-04-12T10:22:56.97Z</time></trkpt><trkpt lat="40.7665497" lon="14.8662295"><ele>505.0</ele><time>2026-04-12T10:22:58.963Z</time></trkpt><trkpt lat="40.7666341" lon="14.8662855"><ele>505.0</ele><time>2026-04-12T10:23:00.967Z</time></trkpt><trkpt lat="40.7667225" lon="14.8663366"><ele>505.0</ele><time>2026-04-12T10:23:02.958Z</time></trkpt><trkpt lat="40.7668281" lon="14.866372"><ele>505.0</ele><time>2026-04-12T10:23:04.964Z</time></trkpt><trkpt lat="40.7669011" lon="14.8663911"><ele>505.0</ele><time>2026-04-12T10:23:06.949Z</time></trkpt><trkpt lat="40.7669446" lon="14.8664741"><ele>505.0</ele><time>2026-04-12T10:23:10.963Z</time></trkpt><trkpt lat="40.7668927" lon="14.8665844"><ele>505.0</ele><time>2026-04-12T10:23:12.961Z</time></trkpt><trkpt lat="40.7668126" lon="14.8666883"><ele>505.2</ele><time>2026-04-12T10:23:13.969Z</time></trkpt><trkpt lat="40.7667507" lon="14.8668006"><ele>505.4</ele><time>2026-04-12T10:23:14.963Z</time></trkpt><trkpt lat="40.7666964" lon="14.8669099"><ele>505.6</ele><time>2026-04-12T10:23:15.963Z</time></trkpt><trkpt lat="40.7666483" lon="14.8670287"><ele>505.8</ele><time>2026-04-12T10:23:16.971Z</time></trkpt><trkpt lat="40.766582" lon="14.8671647"><ele>506.0</ele><time>2026-04-12T10:23:17.959Z</time></trkpt><trkpt lat="40.766555" lon="14.8672719"><ele>506.0</ele><time>2026-04-12T10:23:18.966Z</time></trkpt><trkpt lat="40.7665815" lon="14.8674121"><ele>506.0</ele><time>2026-04-12T10:23:20.971Z</time></trkpt><trkpt lat="40.7666839" lon="14.8675819"><ele>506.0</ele><time>2026-04-12T10:23:22.967Z</time></trkpt><trkpt lat="40.7667442" lon="14.8676841"><ele>506.0</ele><time>2026-04-12T10:23:23.97Z</time></trkpt><trkpt lat="40.766794" lon="14.8677683"><ele>507.8333333333333</ele><time>2026-04-12T10:23:24.967Z</time></trkpt><trkpt lat="40.7668416" lon="14.8678354"><ele>509.66666666666663</ele><time>2026-04-12T10:23:26.974Z</time></trkpt><trkpt lat="40.766869" lon="14.8679347"><ele>511.5</ele><time>2026-04-12T10:23:29.943Z</time></trkpt><trkpt lat="40.7667919" lon="14.8678891"><ele>513.3333333333334</ele><time>2026-04-12T10:23:32.969Z</time></trkpt><trkpt lat="40.766664" lon="14.8678521"><ele>515.1666666666667</ele><time>2026-04-12T10:23:34.971Z</time></trkpt><trkpt lat="40.766597" lon="14.8678493"><ele>517.0</ele><time>2026-04-12T10:23:35.948Z</time></trkpt><trkpt lat="40.766531" lon="14.8678468"><ele>513.7142857142858</ele><time>2026-04-12T10:23:36.978Z</time></trkpt><trkpt lat="40.7664548" lon="14.8678508"><ele>510.42857142857144</ele><time>2026-04-12T10:23:37.974Z</time></trkpt><trkpt lat="40.766376" lon="14.8678446"><ele>507.14285714285717</ele><time>2026-04-12T10:23:38.972Z</time></trkpt><trkpt lat="40.766308" lon="14.8678273"><ele>503.8571428571429</ele><time>2026-04-12T10:23:39.958Z</time></trkpt><trkpt lat="40.7662422" lon="14.8678072"><ele>500.57142857142856</ele><time>2026-04-12T10:23:40.96Z</time></trkpt><trkpt lat="40.7661641" lon="14.8677825"><ele>497.28571428571433</ele><time>2026-04-12T10:23:42.969Z</time></trkpt><trkpt lat="40.7661547" lon="14.867872"><ele>494.0</ele><time>2026-04-12T10:23:45.972Z</time></trkpt><trkpt lat="40.7661622" lon="14.8679691"><ele>494.0</ele><time>2026-04-12T10:23:47.964Z</time></trkpt><trkpt lat="40.7661865" lon="14.8681103"><ele>494.0</ele><time>2026-04-12T10:23:49.947Z</time></trkpt><trkpt lat="40.7662157" lon="14.8682657"><ele>494.0</ele><time>2026-04-12T10:23:51.972Z</time></trkpt><trkpt lat="40.7662626" lon="14.8683996"><ele>494.0</ele><time>2026-04-12T10:23:53.969Z</time></trkpt><trkpt lat="40.7663116" lon="14.8684769"><ele>494.0</ele><time>2026-04-12T10:23:54.968Z</time></trkpt><trkpt lat="40.7663536" lon="14.8685438"><ele>489.4</ele><time>2026-04-12T10:23:55.963Z</time></trkpt><trkpt lat="40.7664518" lon="14.8686532"><ele>484.79999999999995</ele><time>2026-04-12T10:23:57.971Z</time></trkpt><trkpt lat="40.7665074" lon="14.8687225"><ele>480.20000000000005</ele><time>2026-04-12T10:23:58.96Z</time></trkpt><trkpt lat="40.7665901" lon="14.868822"><ele>475.6</ele><time>2026-04-12T10:23:59.961Z</time></trkpt><trkpt lat="40.7666574" lon="14.8688958"><ele>471.0</ele><time>2026-04-12T10:24:00.964Z</time></trkpt><trkpt lat="40.7667125" lon="14.8689551"><ele>471.0</ele><time>2026-04-12T10:24:01.959Z</time></trkpt><trkpt lat="40.7667763" lon="14.8690501"><ele>471.0</ele><time>2026-04-12T10:24:03.97Z</time></trkpt><trkpt lat="40.7668032" lon="14.8691464"><ele>471.0</ele><time>2026-04-12T10:24:06.974Z</time></trkpt><trkpt lat="40.7668633" lon="14.8692142"><ele>471.0</ele><time>2026-04-12T10:24:08.971Z</time></trkpt><trkpt lat="40.7669155" lon="14.8692671"><ele>471.0</ele><time>2026-04-12T10:24:10.951Z</time></trkpt><trkpt lat="40.7669161" lon="14.8693744"><ele>471.0</ele><time>2026-04-12T10:24:19.975Z</time></trkpt><trkpt lat="40.7669058" lon="14.8694577"><ele>472.8571428571429</ele><time>2026-04-12T10:24:22.972Z</time></trkpt><trkpt lat="40.7668386" lon="14.8694867"><ele>474.7142857142857</ele><time>2026-04-12T10:24:30.965Z</time></trkpt><trkpt lat="40.7667801" lon="14.8694522"><ele>476.57142857142856</ele><time>2026-04-12T10:24:33.962Z</time></trkpt><trkpt lat="40.7666699" lon="14.8694537"><ele>478.42857142857144</ele><time>2026-04-12T10:25:42.963Z</time></trkpt><trkpt lat="40.7666074" lon="14.8694794"><ele>480.2857142857142</ele><time>2026-04-12T10:25:50.952Z</time></trkpt><trkpt lat="40.7665473" lon="14.86945"><ele>482.1428571428571</ele><time>2026-04-12T10:27:33.967Z</time></trkpt><trkpt lat="40.7664836" lon="14.8694345"><ele>484.0</ele><time>2026-04-12T10:27:39.96Z</time></trkpt><trkpt lat="40.7663986" lon="14.8694018"><ele>484.0</ele><time>2026-04-12T10:28:12.956Z</time></trkpt><trkpt lat="40.7663289" lon="14.8693407"><ele>484.0</ele><time>2026-04-12T10:28:15.958Z</time></trkpt><trkpt lat="40.7662088" lon="14.8692679"><ele>484.0</ele><time>2026-04-12T10:28:17.96Z</time></trkpt><trkpt lat="40.7661429" lon="14.8692335"><ele>484.0</ele><time>2026-04-12T10:28:18.957Z</time></trkpt><trkpt lat="40.7660324" lon="14.869162"><ele>484.0</ele><time>2026-04-12T10:28:20.961Z</time></trkpt><trkpt lat="40.7659373" lon="14.8690962"><ele>480.79999999999995</ele><time>2026-04-12T10:28:22.967Z</time></trkpt><trkpt lat="40.7658374" lon="14.8690449"><ele>477.59999999999997</ele><time>2026-04-12T10:28:24.967Z</time></trkpt><trkpt lat="40.7657373" lon="14.8689918"><ele>474.4</ele><time>2026-04-12T10:28:27.016Z</time></trkpt><trkpt lat="40.7656448" lon="14.8689166"><ele>471.2</ele><time>2026-04-12T10:28:28.967Z</time></trkpt><trkpt lat="40.7655499" lon="14.8688496"><ele>468.0</ele><time>2026-04-12T10:28:30.962Z</time></trkpt><trkpt lat="40.7654689" lon="14.8688058"><ele>468.0</ele><time>2026-04-12T10:28:32.968Z</time></trkpt><trkpt lat="40.7653841" lon="14.8687678"><ele>467.99999999999994</ele><time>2026-04-12T10:28:35.032Z</time></trkpt><trkpt lat="40.7652873" lon="14.8687085"><ele>467.99999999999994</ele><time>2026-04-12T10:28:36.961Z</time></trkpt><trkpt lat="40.7651595" lon="14.8686595"><ele>468.0</ele><time>2026-04-12T10:28:38.965Z</time></trkpt><trkpt lat="40.7650931" lon="14.8686355"><ele>468.0</ele><time>2026-04-12T10:28:39.966Z</time></trkpt><trkpt lat="40.7650236" lon="14.8685963"><ele>470.4</ele><time>2026-04-12T10:28:40.965Z</time></trkpt><trkpt lat="40.7649105" lon="14.8685413"><ele>472.79999999999995</ele><time>2026-04-12T10:28:43.047Z</time></trkpt><trkpt lat="40.7647759" lon="14.8684989"><ele>475.2</ele><time>2026-04-12T10:28:44.973Z</time></trkpt><trkpt lat="40.7647005" lon="14.8684885"><ele>477.6</ele><time>2026-04-12T10:28:45.971Z</time></trkpt><trkpt lat="40.7646107" lon="14.8684881"><ele>480.0</ele><time>2026-04-12T10:28:47.046Z</time></trkpt><trkpt lat="40.7645202" lon="14.8684777"><ele>480.0</ele><time>2026-04-12T10:28:47.963Z</time></trkpt><trkpt lat="40.7644343" lon="14.8684619"><ele>480.0</ele><time>2026-04-12T10:28:48.967Z</time></trkpt><trkpt lat="40.7643501" lon="14.8684295"><ele>480.0</ele><time>2026-04-12T10:28:49.974Z</time></trkpt><trkpt lat="40.7642766" lon="14.8683856"><ele>480.0</ele><time>2026-04-12T10:28:50.973Z</time></trkpt><trkpt lat="40.7642062" lon="14.8683492"><ele>480.0</ele><time>2026-04-12T10:28:52.035Z</time></trkpt><trkpt lat="40.7641382" lon="14.8683155"><ele>480.0</ele><time>2026-04-12T10:28:53.025Z</time></trkpt><trkpt lat="40.7640762" lon="14.8682899"><ele>473.2</ele><time>2026-04-12T10:28:53.968Z</time></trkpt><trkpt lat="40.7640127" lon="14.8681957"><ele>466.4</ele><time>2026-04-12T10:28:55.974Z</time></trkpt><trkpt lat="40.7639493" lon="14.8680825"><ele>459.6</ele><time>2026-04-12T10:28:57.993Z</time></trkpt><trkpt lat="40.763891" lon="14.8680164"><ele>452.8</ele><time>2026-04-12T10:28:59.963Z</time></trkpt><trkpt lat="40.7638381" lon="14.8678329"><ele>446.0</ele><time>2026-04-12T10:29:01.976Z</time></trkpt><trkpt lat="40.7638197" lon="14.867706"><ele>443.99999999999994</ele><time>2026-04-12T10:29:03.046Z</time></trkpt><trkpt lat="40.7638073" lon="14.8675968"><ele>442.0</ele><time>2026-04-12T10:29:03.981Z</time></trkpt><trkpt lat="40.7637914" lon="14.8674959"><ele>440.0</ele><time>2026-04-12T10:29:05.043Z</time></trkpt><trkpt lat="40.7637707" lon="14.8674033"><ele>438.0</ele><time>2026-04-12T10:29:05.97Z</time></trkpt><trkpt lat="40.7637397" lon="14.8673049"><ele>435.99999999999994</ele><time>2026-04-12T10:29:06.97Z</time></trkpt><trkpt lat="40.7637068" lon="14.8672262"><ele>434.0</ele><time>2026-04-12T10:29:07.967Z</time></trkpt><trkpt lat="40.7636555" lon="14.8671606"><ele>433.99999999999994</ele><time>2026-04-12T10:29:08.966Z</time></trkpt><trkpt lat="40.7635901" lon="14.8670939"><ele>434.0</ele><time>2026-04-12T10:29:09.964Z</time></trkpt><trkpt lat="40.7635299" lon="14.8670424"><ele>434.0</ele><time>2026-04-12T10:29:11.032Z</time></trkpt><trkpt lat="40.7634584" lon="14.8670102"><ele>434.0</ele><time>2026-04-12T10:29:12.034Z</time></trkpt><trkpt lat="40.7633883" lon="14.8669856"><ele>433.99999999999994</ele><time>2026-04-12T10:29:13.039Z</time></trkpt><trkpt lat="40.763316" lon="14.8669776"><ele>434.0</ele><time>2026-04-12T10:29:13.972Z</time></trkpt><trkpt lat="40.7632368" lon="14.8669793"><ele>434.66666666666663</ele><time>2026-04-12T10:29:14.976Z</time></trkpt><trkpt lat="40.7631544" lon="14.8669829"><ele>435.3333333333333</ele><time>2026-04-12T10:29:15.984Z</time></trkpt><trkpt lat="40.763057" lon="14.8669893"><ele>436.0</ele><time>2026-04-12T10:29:16.964Z</time></trkpt><trkpt lat="40.7629691" lon="14.8670071"><ele>436.66666666666663</ele><time>2026-04-12T10:29:17.966Z</time></trkpt><trkpt lat="40.7628868" lon="14.8670167"><ele>437.3333333333333</ele><time>2026-04-12T10:29:18.964Z</time></trkpt><trkpt lat="40.7628041" lon="14.8670281"><ele>438.0</ele><time>2026-04-12T10:29:20.035Z</time></trkpt><trkpt lat="40.7627286" lon="14.8670307"><ele>434.0</ele><time>2026-04-12T10:29:21.035Z</time></trkpt><trkpt lat="40.7625959" lon="14.8670436"><ele>430.0</ele><time>2026-04-12T10:29:23.04Z</time></trkpt><trkpt lat="40.762538" lon="14.8670811"><ele>426.0</ele><time>2026-04-12T10:29:23.966Z</time></trkpt><trkpt lat="40.7624761" lon="14.8671347"><ele>422.0</ele><time>2026-04-12T10:29:25.043Z</time></trkpt><trkpt lat="40.7624055" lon="14.8671997"><ele>418.0</ele><time>2026-04-12T10:29:25.963Z</time></trkpt><trkpt lat="40.7623499" lon="14.8672754"><ele>414.0</ele><time>2026-04-12T10:29:26.965Z</time></trkpt><trkpt lat="40.7622808" lon="14.8673311"><ele>414.0</ele><time>2026-04-12T10:29:28.05Z</time></trkpt><trkpt lat="40.7621931" lon="14.8674005"><ele>414.0</ele><time>2026-04-12T10:29:28.964Z</time></trkpt><trkpt lat="40.7621197" lon="14.8674404"><ele>414.0</ele><time>2026-04-12T10:29:29.968Z</time></trkpt><trkpt lat="40.7620574" lon="14.8674558"><ele>414.0</ele><time>2026-04-12T10:29:31.018Z</time></trkpt><trkpt lat="40.7619861" lon="14.8674338"><ele>414.0</ele><time>2026-04-12T10:29:32.96Z</time></trkpt><trkpt lat="40.7619181" lon="14.8674303"><ele>414.0</ele><time>2026-04-12T10:29:36.97Z</time></trkpt><trkpt lat="40.7619595" lon="14.8674985"><ele>414.0</ele><time>2026-04-12T10:29:41.969Z</time></trkpt><trkpt lat="40.7619877" lon="14.8674035"><ele>414.0</ele><time>2026-04-12T10:29:45.959Z</time></trkpt><trkpt lat="40.7619756" lon="14.8673199"><ele>414.0</ele><time>2026-04-12T10:29:47.969Z</time></trkpt><trkpt lat="40.7619846" lon="14.8672262"><ele>414.0</ele><time>2026-04-12T10:29:49.966Z</time></trkpt><trkpt lat="40.7619614" lon="14.8671267"><ele>414.0</ele><time>2026-04-12T10:29:52.023Z</time></trkpt><trkpt lat="40.7619666" lon="14.8669478"><ele>414.0</ele><time>2026-04-12T10:29:53.963Z</time></trkpt><trkpt lat="40.7619512" lon="14.8668146"><ele>413.6</ele><time>2026-04-12T10:29:54.963Z</time></trkpt><trkpt lat="40.7619312" lon="14.8666636"><ele>413.2</ele><time>2026-04-12T10:29:55.962Z</time></trkpt><trkpt lat="40.7619236" lon="14.8665512"><ele>412.8</ele><time>2026-04-12T10:29:57.035Z</time></trkpt><trkpt lat="40.7619169" lon="14.86643"><ele>412.40000000000003</ele><time>2026-04-12T10:29:58.022Z</time></trkpt><trkpt lat="40.7619313" lon="14.8662958"><ele>412.0</ele><time>2026-04-12T10:29:58.958Z</time></trkpt><trkpt lat="40.7619389" lon="14.8661337"><ele>412.00000000000006</ele><time>2026-04-12T10:29:59.96Z</time></trkpt><trkpt lat="40.7619577" lon="14.8660033"><ele>412.0</ele><time>2026-04-12T10:30:00.975Z</time></trkpt><trkpt lat="40.7620007" lon="14.8659084"><ele>412.0</ele><time>2026-04-12T10:30:01.972Z</time></trkpt><trkpt lat="40.7620307" lon="14.8658286"><ele>412.0</ele><time>2026-04-12T10:30:02.964Z</time></trkpt><trkpt lat="40.7620704" lon="14.8657338"><ele>412.00000000000006</ele><time>2026-04-12T10:30:03.975Z</time></trkpt><trkpt lat="40.7621093" lon="14.865633"><ele>412.0</ele><time>2026-04-12T10:30:05.029Z</time></trkpt><trkpt lat="40.7621534" lon="14.8655183"><ele>414.6</ele><time>2026-04-12T10:30:06.029Z</time></trkpt><trkpt lat="40.7621951" lon="14.8654066"><ele>417.20000000000005</ele><time>2026-04-12T10:30:07.037Z</time></trkpt><trkpt lat="40.7622395" lon="14.8652888"><ele>419.8</ele><time>2026-04-12T10:30:07.96Z</time></trkpt><trkpt lat="40.7622886" lon="14.865186"><ele>422.4</ele><time>2026-04-12T10:30:08.963Z</time></trkpt><trkpt lat="40.7623501" lon="14.8650666"><ele>425.0</ele><time>2026-04-12T10:30:10.961Z</time></trkpt><trkpt lat="40.7623952" lon="14.8649424"><ele>425.2</ele><time>2026-04-12T10:30:12.977Z</time></trkpt><trkpt lat="40.7624302" lon="14.8648402"><ele>425.4</ele><time>2026-04-12T10:30:13.952Z</time></trkpt><trkpt lat="40.7624675" lon="14.8647511"><ele>425.6</ele><time>2026-04-12T10:30:14.961Z</time></trkpt><trkpt lat="40.7625092" lon="14.8646232"><ele>425.8</ele><time>2026-04-12T10:30:15.968Z</time></trkpt><trkpt lat="40.7625492" lon="14.8644852"><ele>426.0</ele><time>2026-04-12T10:30:16.978Z</time></trkpt><trkpt lat="40.7626022" lon="14.8643294"><ele>425.5</ele><time>2026-04-12T10:30:17.971Z</time></trkpt><trkpt lat="40.7626639" lon="14.8641978"><ele>425.0</ele><time>2026-04-12T10:30:18.956Z</time></trkpt><trkpt lat="40.7627397" lon="14.8640956"><ele>424.5</ele><time>2026-04-12T10:30:19.966Z</time></trkpt><trkpt lat="40.7628075" lon="14.8639773"><ele>424.0</ele><time>2026-04-12T10:30:20.967Z</time></trkpt><trkpt lat="40.7628744" lon="14.8638467"><ele>427.75</ele><time>2026-04-12T10:30:21.965Z</time></trkpt><trkpt lat="40.7629354" lon="14.8636829"><ele>431.5</ele><time>2026-04-12T10:30:23.034Z</time></trkpt><trkpt lat="40.7629879" lon="14.8635375"><ele>435.25</ele><time>2026-04-12T10:30:23.964Z</time></trkpt><trkpt lat="40.7630303" lon="14.8633968"><ele>439.0</ele><time>2026-04-12T10:30:24.961Z</time></trkpt><trkpt lat="40.763062" lon="14.8632644"><ele>439.00000000000006</ele><time>2026-04-12T10:30:25.988Z</time></trkpt><trkpt lat="40.7630988" lon="14.8631298"><ele>439.0</ele><time>2026-04-12T10:30:27.024Z</time></trkpt><trkpt lat="40.7631028" lon="14.8630121"><ele>439.0</ele><time>2026-04-12T10:30:28.016Z</time></trkpt><trkpt lat="40.7631205" lon="14.8629243"><ele>439.0</ele><time>2026-04-12T10:30:28.961Z</time></trkpt><trkpt lat="40.7631623" lon="14.86285"><ele>439.00000000000006</ele><time>2026-04-12T10:30:29.966Z</time></trkpt><trkpt lat="40.7632074" lon="14.8627687"><ele>439.0</ele><time>2026-04-12T10:30:30.971Z</time></trkpt><trkpt lat="40.7632499" lon="14.86269"><ele>439.00000000000006</ele><time>2026-04-12T10:30:32.015Z</time></trkpt><trkpt lat="40.7633015" lon="14.8626062"><ele>439.0</ele><time>2026-04-12T10:30:33.016Z</time></trkpt><trkpt lat="40.763352" lon="14.8624654"><ele>439.0</ele><time>2026-04-12T10:30:34.966Z</time></trkpt><trkpt lat="40.7633817" lon="14.8623786"><ele>439.0</ele><time>2026-04-12T10:30:36.05Z</time></trkpt><trkpt lat="40.7634093" lon="14.8622408"><ele>439.00000000000006</ele><time>2026-04-12T10:30:37.953Z</time></trkpt><trkpt lat="40.7633983" lon="14.862328"><ele>439.0</ele><time>2026-04-12T10:30:46.964Z</time></trkpt><trkpt lat="40.7633349" lon="14.8624115"><ele>439.0</ele><time>2026-04-12T10:30:48.958Z</time></trkpt><trkpt lat="40.7632726" lon="14.862519"><ele>439.0</ele><time>2026-04-12T10:30:50.962Z</time></trkpt><trkpt lat="40.7632193" lon="14.8626344"><ele>439.0</ele><time>2026-04-12T10:30:52.961Z</time></trkpt><trkpt lat="40.7631611" lon="14.862804"><ele>439.0</ele><time>2026-04-12T10:30:54.961Z</time></trkpt><trkpt lat="40.7631325" lon="14.8629225"><ele>439.0</ele><time>2026-04-12T10:30:56.038Z</time></trkpt><trkpt lat="40.7631041" lon="14.8630272"><ele>439.0</ele><time>2026-04-12T10:30:57.958Z</time></trkpt><trkpt lat="40.763093" lon="14.8631664"><ele>439.0</ele><time>2026-04-12T10:30:59.99Z</time></trkpt><trkpt lat="40.7631152" lon="14.8633271"><ele>439.0</ele><time>2026-04-12T10:31:02.043Z</time></trkpt><trkpt lat="40.7631814" lon="14.8634411"><ele>439.0</ele><time>2026-04-12T10:31:03.97Z</time></trkpt><trkpt lat="40.763232" lon="14.8635008"><ele>439.0</ele><time>2026-04-12T10:31:04.96Z</time></trkpt><trkpt lat="40.7632961" lon="14.8636462"><ele>439.50000000000006</ele><time>2026-04-12T10:31:06.967Z</time></trkpt><trkpt lat="40.7633526" lon="14.8637646"><ele>440.0</ele><time>2026-04-12T10:31:08.01Z</time></trkpt><trkpt lat="40.7634122" lon="14.8638659"><ele>440.5</ele><time>2026-04-12T10:31:08.958Z</time></trkpt><trkpt lat="40.7634579" lon="14.8639466"><ele>441.0</ele><time>2026-04-12T10:31:11.036Z</time></trkpt><trkpt lat="40.7635269" lon="14.864008"><ele>441.50000000000006</ele><time>2026-04-12T10:31:12.97Z</time></trkpt><trkpt lat="40.76359" lon="14.8640003"><ele>442.0</ele><time>2026-04-12T10:31:15.965Z</time></trkpt><trkpt lat="40.7636348" lon="14.8639133"><ele>449.1666666666667</ele><time>2026-04-12T10:31:18.957Z</time></trkpt><trkpt lat="40.7637172" lon="14.8639054"><ele>456.33333333333337</ele><time>2026-04-12T10:31:21.011Z</time></trkpt><trkpt lat="40.7637949" lon="14.8638952"><ele>463.5</ele><time>2026-04-12T10:31:23.974Z</time></trkpt><trkpt lat="40.763877" lon="14.8639332"><ele>470.66666666666663</ele><time>2026-04-12T10:31:26.976Z</time></trkpt><trkpt lat="40.7639498" lon="14.8638555"><ele>477.8333333333333</ele><time>2026-04-12T10:31:30.967Z</time></trkpt><trkpt lat="40.7639509" lon="14.8637355"><ele>485.0</ele><time>2026-04-12T10:31:32.96Z</time></trkpt><trkpt lat="40.7639623" lon="14.8636384"><ele>484.99999999999994</ele><time>2026-04-12T10:31:34.969Z</time></trkpt><trkpt lat="40.7639818" lon="14.8635535"><ele>485.0</ele><time>2026-04-12T10:31:36.961Z</time></trkpt><trkpt lat="40.7639864" lon="14.8634649"><ele>485.0</ele><time>2026-04-12T10:31:38.967Z</time></trkpt><trkpt lat="40.7639995" lon="14.8633539"><ele>485.0</ele><time>2026-04-12T10:31:42.031Z</time></trkpt><trkpt lat="40.7640469" lon="14.8632486"><ele>484.99999999999994</ele><time>2026-04-12T10:31:43.961Z</time></trkpt><trkpt lat="40.7640843" lon="14.8631774"><ele>485.0</ele><time>2026-04-12T10:31:45.963Z</time></trkpt><trkpt lat="40.764078" lon="14.8633027"><ele>485.0</ele><time>2026-04-12T10:31:49.968Z</time></trkpt><trkpt lat="40.7640985" lon="14.8634413"><ele>485.0</ele><time>2026-04-12T10:31:52.024Z</time></trkpt><trkpt lat="40.7641938" lon="14.8635728"><ele>485.0</ele><time>2026-04-12T10:31:53.966Z</time></trkpt><trkpt lat="40.7642414" lon="14.8636426"><ele>485.0</ele><time>2026-04-12T10:31:54.962Z</time></trkpt><trkpt lat="40.7642805" lon="14.8637203"><ele>485.0</ele><time>2026-04-12T10:31:55.966Z</time></trkpt><trkpt lat="40.7643121" lon="14.8638069"><ele>484.99999999999994</ele><time>2026-04-12T10:31:56.957Z</time></trkpt><trkpt lat="40.7643393" lon="14.8638981"><ele>485.0</ele><time>2026-04-12T10:31:57.957Z</time></trkpt><trkpt lat="40.7643576" lon="14.8639972"><ele>485.0</ele><time>2026-04-12T10:31:58.966Z</time></trkpt><trkpt lat="40.7643556" lon="14.8641116"><ele>485.0</ele><time>2026-04-12T10:31:59.965Z</time></trkpt><trkpt lat="40.7643401" lon="14.8642346"><ele>484.99999999999994</ele><time>2026-04-12T10:32:01.03Z</time></trkpt><trkpt lat="40.7643328" lon="14.8643492"><ele>485.0</ele><time>2026-04-12T10:32:02.023Z</time></trkpt><trkpt lat="40.764314" lon="14.8644436"><ele>484.8333333333333</ele><time>2026-04-12T10:32:03.043Z</time></trkpt><trkpt lat="40.7643141" lon="14.8645523"><ele>484.66666666666663</ele><time>2026-04-12T10:32:04.963Z</time></trkpt><trkpt lat="40.7643916" lon="14.8646376"><ele>484.5</ele><time>2026-04-12T10:32:06.982Z</time></trkpt><trkpt lat="40.764475" lon="14.8646661"><ele>484.33333333333337</ele><time>2026-04-12T10:32:08.965Z</time></trkpt><trkpt lat="40.7645526" lon="14.8646221"><ele>484.1666666666667</ele><time>2026-04-12T10:32:11.973Z</time></trkpt><trkpt lat="40.7646198" lon="14.8646108"><ele>484.0</ele><time>2026-04-12T10:32:13.965Z</time></trkpt><trkpt lat="40.7646871" lon="14.864608"><ele>486.57142857142856</ele><time>2026-04-12T10:32:15.991Z</time></trkpt><trkpt lat="40.764769" lon="14.8646097"><ele>489.1428571428571</ele><time>2026-04-12T10:32:18.045Z</time></trkpt><trkpt lat="40.764844" lon="14.8645924"><ele>491.71428571428567</ele><time>2026-04-12T10:32:18.967Z</time></trkpt><trkpt lat="40.7649283" lon="14.8645925"><ele>494.2857142857142</ele><time>2026-04-12T10:32:20.97Z</time></trkpt><trkpt lat="40.7649621" lon="14.8646649"><ele>496.85714285714283</ele><time>2026-04-12T10:32:22.97Z</time></trkpt><trkpt lat="40.7649735" lon="14.8647594"><ele>499.42857142857133</ele><time>2026-04-12T10:32:24.969Z</time></trkpt><trkpt lat="40.7649888" lon="14.8648485"><ele>501.99999999999994</ele><time>2026-04-12T10:32:26.94Z</time></trkpt><trkpt lat="40.7650436" lon="14.864951"><ele>502.00000000000006</ele><time>2026-04-12T10:32:30.035Z</time></trkpt><trkpt lat="40.7651138" lon="14.8650226"><ele>502.0</ele><time>2026-04-12T10:32:31.96Z</time></trkpt><trkpt lat="40.7652014" lon="14.8650852"><ele>502.0</ele><time>2026-04-12T10:32:33.968Z</time></trkpt><trkpt lat="40.7652645" lon="14.8651055"><ele>502.0</ele><time>2026-04-12T10:32:34.975Z</time></trkpt><trkpt lat="40.7653301" lon="14.8651332"><ele>502.00000000000006</ele><time>2026-04-12T10:32:36.039Z</time></trkpt><trkpt lat="40.7653937" lon="14.865162"><ele>502.0</ele><time>2026-04-12T10:32:37.027Z</time></trkpt><trkpt lat="40.7654685" lon="14.8651966"><ele>502.0</ele><time>2026-04-12T10:32:39.974Z</time></trkpt><trkpt lat="40.7655512" lon="14.8652989"><ele>502.00000000000006</ele><time>2026-04-12T10:32:41.969Z</time></trkpt><trkpt lat="40.7655641" lon="14.8654191"><ele>502.00000000000006</ele><time>2026-04-12T10:32:43.955Z</time></trkpt><trkpt lat="40.7655679" lon="14.8655129"><ele>502.0</ele><time>2026-04-12T10:32:45.971Z</time></trkpt><trkpt lat="40.7655895" lon="14.865656"><ele>502.0</ele><time>2026-04-12T10:32:48.039Z</time></trkpt><trkpt lat="40.7655991" lon="14.8657398"><ele>502.0</ele><time>2026-04-12T10:32:48.969Z</time></trkpt><trkpt lat="40.7656345" lon="14.8658682"><ele>502.00000000000006</ele><time>2026-04-12T10:32:50.963Z</time></trkpt><trkpt lat="40.7656972" lon="14.8659786"><ele>502.00000000000006</ele><time>2026-04-12T10:32:52.96Z</time></trkpt><trkpt lat="40.7657736" lon="14.8660686"><ele>502.0</ele><time>2026-04-12T10:32:55.047Z</time></trkpt><trkpt lat="40.7658528" lon="14.8661173"><ele>502.0</ele><time>2026-04-12T10:32:56.973Z</time></trkpt><trkpt lat="40.7659382" lon="14.8661616"><ele>502.6</ele><time>2026-04-12T10:32:59Z</time></trkpt><trkpt lat="40.7660184" lon="14.8662004"><ele>503.20000000000005</ele><time>2026-04-12T10:33:01.012Z</time></trkpt><trkpt lat="40.7661134" lon="14.8661997"><ele>503.8</ele><time>2026-04-12T10:33:03.983Z</time></trkpt><trkpt lat="40.7662004" lon="14.8661912"><ele>504.4</ele><time>2026-04-12T10:33:05.981Z</time></trkpt><trkpt lat="40.7662969" lon="14.8662117"><ele>505.0</ele><time>2026-04-12T10:33:07.984Z</time></trkpt><trkpt lat="40.7664226" lon="14.866234"><ele>505.0</ele><time>2026-04-12T10:33:09.987Z</time></trkpt><trkpt lat="40.7665207" lon="14.8662119"><ele>505.0</ele><time>2026-04-12T10:33:11.977Z</time></trkpt><trkpt lat="40.7665999" lon="14.8662628"><ele>505.0</ele><time>2026-04-12T10:33:13.993Z</time></trkpt><trkpt lat="40.7666936" lon="14.8663567"><ele>505.0</ele><time>2026-04-12T10:33:15.989Z</time></trkpt><trkpt lat="40.7667747" lon="14.8664049"><ele>505.0</ele><time>2026-04-12T10:33:16.986Z</time></trkpt><trkpt lat="40.7668742" lon="14.8664487"><ele>505.2</ele><time>2026-04-12T10:33:17.984Z</time></trkpt><trkpt lat="40.76696" lon="14.8664772"><ele>505.4</ele><time>2026-04-12T10:33:20.059Z</time></trkpt><trkpt lat="40.7670105" lon="14.8665513"><ele>505.6</ele><time>2026-04-12T10:33:24.973Z</time></trkpt><trkpt lat="40.7669752" lon="14.8666705"><ele>505.8</ele><time>2026-04-12T10:33:27.009Z</time></trkpt><trkpt lat="40.7668939" lon="14.8667854"><ele>506.0</ele><time>2026-04-12T10:33:27.975Z</time></trkpt><trkpt lat="40.7668152" lon="14.8669037"><ele>505.99999999999994</ele><time>2026-04-12T10:33:28.946Z</time></trkpt><trkpt lat="40.7667773" lon="14.866984"><ele>506.0</ele><time>2026-04-12T10:33:29.964Z</time></trkpt><trkpt lat="40.7667322" lon="14.867058"><ele>506.0</ele><time>2026-04-12T10:33:30.959Z</time></trkpt><trkpt lat="40.7666829" lon="14.8671421"><ele>506.0</ele><time>2026-04-12T10:33:31.968Z</time></trkpt><trkpt lat="40.7666645" lon="14.8672832"><ele>505.99999999999994</ele><time>2026-04-12T10:33:33.97Z</time></trkpt><trkpt lat="40.7667055" lon="14.8673796"><ele>506.0</ele><time>2026-04-12T10:33:35.036Z</time></trkpt><trkpt lat="40.7667532" lon="14.8675047"><ele>507.8333333333333</ele><time>2026-04-12T10:33:35.959Z</time></trkpt><trkpt lat="40.7667915" lon="14.8676346"><ele>509.66666666666663</ele><time>2026-04-12T10:33:37.017Z</time></trkpt><trkpt lat="40.7668265" lon="14.8677282"><ele>511.5</ele><time>2026-04-12T10:33:37.959Z</time></trkpt><trkpt lat="40.7668752" lon="14.8677886"><ele>513.3333333333334</ele><time>2026-04-12T10:33:39.954Z</time></trkpt><trkpt lat="40.7669184" lon="14.8678596"><ele>515.1666666666667</ele><time>2026-04-12T10:33:47.964Z</time></trkpt><trkpt lat="40.7668472" lon="14.8678606"><ele>517.0</ele><time>2026-04-12T10:33:52.959Z</time></trkpt><trkpt lat="40.7667778" lon="14.8678414"><ele>512.4</ele><time>2026-04-12T10:33:54.963Z</time></trkpt><trkpt lat="40.7666776" lon="14.8678356"><ele>507.80000000000007</ele><time>2026-04-12T10:33:56.951Z</time></trkpt><trkpt lat="40.7665579" lon="14.86782"><ele>503.2</ele><time>2026-04-12T10:33:58.964Z</time></trkpt><trkpt lat="40.7664686" lon="14.8678085"><ele>498.6</ele><time>2026-04-12T10:33:59.956Z</time></trkpt><trkpt lat="40.766381" lon="14.8677908"><ele>494.0</ele><time>2026-04-12T10:34:00.97Z</time></trkpt><trkpt lat="40.7663115" lon="14.8677685"><ele>494.0</ele><time>2026-04-12T10:34:01.971Z</time></trkpt><trkpt lat="40.7662225" lon="14.8677472"><ele>494.0</ele><time>2026-04-12T10:34:03.97Z</time></trkpt><trkpt lat="40.7661575" lon="14.8677993"><ele>494.0</ele><time>2026-04-12T10:34:06.967Z</time></trkpt><trkpt lat="40.7661399" lon="14.867904"><ele>494.0</ele><time>2026-04-12T10:34:08.965Z</time></trkpt><trkpt lat="40.7661297" lon="14.868054"><ele>494.0</ele><time>2026-04-12T10:34:10.969Z</time></trkpt><trkpt lat="40.7661547" lon="14.8681892"><ele>493.99999999999994</ele><time>2026-04-12T10:34:12.968Z</time></trkpt><trkpt lat="40.766195" lon="14.8682622"><ele>494.0</ele><time>2026-04-12T10:34:13.963Z</time></trkpt><trkpt lat="40.7662511" lon="14.8683721"><ele>494.0</ele><time>2026-04-12T10:34:14.957Z</time></trkpt><trkpt lat="40.7662936" lon="14.8684369"><ele>494.0</ele><time>2026-04-12T10:34:15.96Z</time></trkpt><trkpt lat="40.7663611" lon="14.8685445"><ele>493.99999999999994</ele><time>2026-04-12T10:34:17.96Z</time></trkpt><trkpt lat="40.7664325" lon="14.8686376"><ele>494.0</ele><time>2026-04-12T10:34:19.96Z</time></trkpt><trkpt lat="40.7665176" lon="14.8687304"><ele>492.3333333333333</ele><time>2026-04-12T10:34:21.961Z</time></trkpt><trkpt lat="40.7665661" lon="14.8688371"><ele>490.66666666666663</ele><time>2026-04-12T10:34:23.96Z</time></trkpt><trkpt lat="40.7665992" lon="14.8689294"><ele>489.0</ele><time>2026-04-12T10:34:25.956Z</time></trkpt><trkpt lat="40.7666653" lon="14.8690161"><ele>487.33333333333337</ele><time>2026-04-12T10:34:27.955Z</time></trkpt><trkpt lat="40.7667185" lon="14.8690946"><ele>485.6666666666667</ele><time>2026-04-12T10:34:29.961Z</time></trkpt><trkpt lat="40.7667772" lon="14.8691437"><ele>484.0</ele><time>2026-04-12T10:34:31.964Z</time></trkpt><trkpt lat="40.766836" lon="14.8692979"><ele>484.0</ele><time>2026-04-12T10:34:40.955Z</time></trkpt><trkpt lat="40.7668323" lon="14.8694016"><ele>484.0</ele><time>2026-04-12T10:34:43.97Z</time></trkpt><trkpt lat="40.7668373" lon="14.8694889"><ele>484.0</ele><time>2026-04-12T10:34:48.964Z</time></trkpt><trkpt lat="40.7667124" lon="14.8694153"><ele>484.0</ele><time>2026-04-12T10:34:55.979Z</time></trkpt><trkpt lat="40.7666272" lon="14.8693657"><ele>484.0</ele><time>2026-04-12T10:34:57.971Z</time></trkpt><trkpt lat="40.7665192" lon="14.8693423"><ele>484.0</ele><time>2026-04-12T10:34:59.964Z</time></trkpt><trkpt lat="40.7664254" lon="14.8693125"><ele>484.0</ele><time>2026-04-12T10:35:00.979Z</time></trkpt><trkpt lat="40.7663438" lon="14.8692551"><ele>484.0</ele><time>2026-04-12T10:35:01.975Z</time></trkpt><trkpt lat="40.7662612" lon="14.8691831"><ele>484.0</ele><time>2026-04-12T10:35:02.97Z</time></trkpt><trkpt lat="40.7661816" lon="14.8691131"><ele>484.0</ele><time>2026-04-12T10:35:03.963Z</time></trkpt><trkpt lat="40.766105" lon="14.8690492"><ele>481.83333333333337</ele><time>2026-04-12T10:35:04.972Z</time></trkpt><trkpt lat="40.7660376" lon="14.8690046"><ele>479.6666666666667</ele><time>2026-04-12T10:35:05.968Z</time></trkpt><trkpt lat="40.7659605" lon="14.8689756"><ele>477.5</ele><time>2026-04-12T10:35:06.971Z</time></trkpt><trkpt lat="40.7658692" lon="14.8689513"><ele>475.33333333333337</ele><time>2026-04-12T10:35:07.967Z</time></trkpt><trkpt lat="40.765775" lon="14.8689091"><ele>473.1666666666667</ele><time>2026-04-12T10:35:08.978Z</time></trkpt><trkpt lat="40.7656919" lon="14.8688486"><ele>471.0</ele><time>2026-04-12T10:35:09.975Z</time></trkpt><trkpt lat="40.7656159" lon="14.8688038"><ele>470.5</ele><time>2026-04-12T10:35:10.975Z</time></trkpt><trkpt lat="40.7655443" lon="14.8687804"><ele>470.0</ele><time>2026-04-12T10:35:11.981Z</time></trkpt><trkpt lat="40.7654731" lon="14.8687638"><ele>469.5</ele><time>2026-04-12T10:35:12.976Z</time></trkpt><trkpt lat="40.765401" lon="14.8687411"><ele>469.0</ele><time>2026-04-12T10:35:13.975Z</time></trkpt><trkpt lat="40.765303" lon="14.8686983"><ele>468.5</ele><time>2026-04-12T10:35:14.964Z</time></trkpt><trkpt lat="40.7652144" lon="14.8686652"><ele>468.0</ele><time>2026-04-12T10:35:15.976Z</time></trkpt><trkpt lat="40.7651358" lon="14.8686313"><ele>470.4</ele><time>2026-04-12T10:35:16.967Z</time></trkpt><trkpt lat="40.7650415" lon="14.8685842"><ele>472.79999999999995</ele><time>2026-04-12T10:35:17.974Z</time></trkpt><trkpt lat="40.7649436" lon="14.8685388"><ele>475.2</ele><time>2026-04-12T10:35:18.97Z</time></trkpt><trkpt lat="40.7648473" lon="14.8685074"><ele>477.6</ele><time>2026-04-12T10:35:19.968Z</time></trkpt><trkpt lat="40.7647585" lon="14.8684903"><ele>480.0</ele><time>2026-04-12T10:35:20.968Z</time></trkpt><trkpt lat="40.7646606" lon="14.8684885"><ele>480.0</ele><time>2026-04-12T10:35:21.972Z</time></trkpt><trkpt lat="40.7645528" lon="14.8684891"><ele>480.0</ele><time>2026-04-12T10:35:22.973Z</time></trkpt><trkpt lat="40.7644632" lon="14.8684798"><ele>480.0</ele><time>2026-04-12T10:35:23.966Z</time></trkpt><trkpt lat="40.7643787" lon="14.8684525"><ele>480.0</ele><time>2026-04-12T10:35:24.968Z</time></trkpt><trkpt lat="40.7642832" lon="14.868415"><ele>480.0</ele><time>2026-04-12T10:35:25.974Z</time></trkpt><trkpt lat="40.7642073" lon="14.8683653"><ele>473.2</ele><time>2026-04-12T10:35:26.976Z</time></trkpt><trkpt lat="40.7641553" lon="14.8683092"><ele>466.4</ele><time>2026-04-12T10:35:27.973Z</time></trkpt><trkpt lat="40.7640938" lon="14.8682033"><ele>459.6</ele><time>2026-04-12T10:35:29.968Z</time></trkpt><trkpt lat="40.7640311" lon="14.8680829"><ele>452.8</ele><time>2026-04-12T10:35:31.963Z</time></trkpt><trkpt lat="40.7639461" lon="14.8679969"><ele>446.0</ele><time>2026-04-12T10:35:33.976Z</time></trkpt><trkpt lat="40.7638695" lon="14.8678889"><ele>445.99999999999994</ele><time>2026-04-12T10:35:35.971Z</time></trkpt><trkpt lat="40.7638348" lon="14.867784"><ele>446.0</ele><time>2026-04-12T10:35:36.969Z</time></trkpt><trkpt lat="40.7638122" lon="14.867671"><ele>446.0</ele><time>2026-04-12T10:35:37.98Z</time></trkpt><trkpt lat="40.763799" lon="14.8675652"><ele>446.0</ele><time>2026-04-12T10:35:38.97Z</time></trkpt><trkpt lat="40.7637842" lon="14.8674635"><ele>445.99999999999994</ele><time>2026-04-12T10:35:39.982Z</time></trkpt><trkpt lat="40.76377" lon="14.8673597"><ele>446.0</ele><time>2026-04-12T10:35:40.974Z</time></trkpt><trkpt lat="40.7637358" lon="14.8672582"><ele>444.66666666666663</ele><time>2026-04-12T10:35:41.971Z</time></trkpt><trkpt lat="40.7636881" lon="14.8671857"><ele>443.3333333333333</ele><time>2026-04-12T10:35:42.978Z</time></trkpt><trkpt lat="40.7636317" lon="14.8671233"><ele>442.0</ele><time>2026-04-12T10:35:43.976Z</time></trkpt><trkpt lat="40.7635817" lon="14.8670681"><ele>440.66666666666663</ele><time>2026-04-12T10:35:44.973Z</time></trkpt><trkpt lat="40.7635088" lon="14.867033"><ele>439.3333333333333</ele><time>2026-04-12T10:35:45.981Z</time></trkpt><trkpt lat="40.7634141" lon="14.8670302"><ele>438.0</ele><time>2026-04-12T10:35:46.97Z</time></trkpt><trkpt lat="40.7633025" lon="14.8670431"><ele>438.0</ele><time>2026-04-12T10:35:47.98Z</time></trkpt><trkpt lat="40.7632001" lon="14.8670404"><ele>437.99999999999994</ele><time>2026-04-12T10:35:48.976Z</time></trkpt><trkpt lat="40.7630905" lon="14.8670344"><ele>437.99999999999994</ele><time>2026-04-12T10:35:49.972Z</time></trkpt><trkpt lat="40.762985" lon="14.8670355"><ele>438.0</ele><time>2026-04-12T10:35:50.967Z</time></trkpt><trkpt lat="40.7628914" lon="14.8670316"><ele>438.0</ele><time>2026-04-12T10:35:51.967Z</time></trkpt><trkpt lat="40.762806" lon="14.8670259"><ele>438.0</ele><time>2026-04-12T10:35:52.969Z</time></trkpt><trkpt lat="40.7627347" lon="14.8670193"><ele>438.0</ele><time>2026-04-12T10:35:53.967Z</time></trkpt><trkpt lat="40.7626483" lon="14.8670431"><ele>438.0</ele><time>2026-04-12T10:35:55.967Z</time></trkpt><trkpt lat="40.762582" lon="14.8671278"><ele>438.0</ele><time>2026-04-12T10:35:57.973Z</time></trkpt><trkpt lat="40.7625376" lon="14.8672054"><ele>438.0</ele><time>2026-04-12T10:35:58.97Z</time></trkpt><trkpt lat="40.7624554" lon="14.8672693"><ele>438.0</ele><time>2026-04-12T10:35:59.963Z</time></trkpt><trkpt lat="40.7623467" lon="14.8673303"><ele>434.0</ele><time>2026-04-12T10:36:00.968Z</time></trkpt><trkpt lat="40.7622459" lon="14.8673964"><ele>430.0</ele><time>2026-04-12T10:36:01.965Z</time></trkpt><trkpt lat="40.7621541" lon="14.8674417"><ele>426.0</ele><time>2026-04-12T10:36:02.97Z</time></trkpt><trkpt lat="40.7620608" lon="14.8674162"><ele>422.0</ele><time>2026-04-12T10:36:04.981Z</time></trkpt><trkpt lat="40.7619961" lon="14.8674127"><ele>418.0</ele><time>2026-04-12T10:36:06.956Z</time></trkpt><trkpt lat="40.7619846" lon="14.8675011"><ele>414.0</ele><time>2026-04-12T10:36:10.973Z</time></trkpt><trkpt lat="40.7619445" lon="14.8673643"><ele>414.0</ele><time>2026-04-12T10:36:17.971Z</time></trkpt><trkpt lat="40.7619508" lon="14.8671663"><ele>414.0</ele><time>2026-04-12T10:36:19.981Z</time></trkpt><trkpt lat="40.7619599" lon="14.8670468"><ele>414.0</ele><time>2026-04-12T10:36:20.978Z</time></trkpt><trkpt lat="40.7619568" lon="14.8668947"><ele>414.0</ele><time>2026-04-12T10:36:21.963Z</time></trkpt><trkpt lat="40.7619495" lon="14.8666959"><ele>413.6</ele><time>2026-04-12T10:36:22.967Z</time></trkpt><trkpt lat="40.76195" lon="14.8665646"><ele>413.2</ele><time>2026-04-12T10:36:23.964Z</time></trkpt><trkpt lat="40.7619232" lon="14.8664436"><ele>412.8</ele><time>2026-04-12T10:36:24.97Z</time></trkpt><trkpt lat="40.7619036" lon="14.8663036"><ele>412.40000000000003</ele><time>2026-04-12T10:36:25.969Z</time></trkpt><trkpt lat="40.7618946" lon="14.8661658"><ele>412.0</ele><time>2026-04-12T10:36:26.976Z</time></trkpt><trkpt lat="40.7619253" lon="14.8660225"><ele>414.6</ele><time>2026-04-12T10:36:27.964Z</time></trkpt><trkpt lat="40.761957" lon="14.865897"><ele>417.20000000000005</ele><time>2026-04-12T10:36:28.968Z</time></trkpt><trkpt lat="40.7619958" lon="14.8657912"><ele>419.8</ele><time>2026-04-12T10:36:29.969Z</time></trkpt><trkpt lat="40.7620508" lon="14.8656719"><ele>422.4</ele><time>2026-04-12T10:36:30.973Z</time></trkpt><trkpt lat="40.7620981" lon="14.8655603"><ele>425.0</ele><time>2026-04-12T10:36:31.976Z</time></trkpt><trkpt lat="40.7621352" lon="14.8654499"><ele>425.0</ele><time>2026-04-12T10:36:32.973Z</time></trkpt><trkpt lat="40.7621738" lon="14.8653336"><ele>425.0</ele><time>2026-04-12T10:36:33.977Z</time></trkpt><trkpt lat="40.7622215" lon="14.865222"><ele>425.0</ele><time>2026-04-12T10:36:34.974Z</time></trkpt><trkpt lat="40.7622741" lon="14.8651214"><ele>425.0</ele><time>2026-04-12T10:36:35.97Z</time></trkpt><trkpt lat="40.7623285" lon="14.8650025"><ele>425.0</ele><time>2026-04-12T10:36:37.973Z</time></trkpt><trkpt lat="40.7623859" lon="14.8648604"><ele>425.2</ele><time>2026-04-12T10:36:39.97Z</time></trkpt><trkpt lat="40.7624408" lon="14.8647401"><ele>425.4</ele><time>2026-04-12T10:36:40.964Z</time></trkpt><trkpt lat="40.7624957" lon="14.8646136"><ele>425.6</ele><time>2026-04-12T10:36:41.964Z</time></trkpt><trkpt lat="40.7625446" lon="14.8644963"><ele>425.8</ele><time>2026-04-12T10:36:42.967Z</time></trkpt><trkpt lat="40.7625886" lon="14.8643726"><ele>426.0</ele><time>2026-04-12T10:36:43.967Z</time></trkpt><trkpt lat="40.7626385" lon="14.8642521"><ele>429.20000000000005</ele><time>2026-04-12T10:36:44.977Z</time></trkpt><trkpt lat="40.7627159" lon="14.8641547"><ele>432.40000000000003</ele><time>2026-04-12T10:36:45.977Z</time></trkpt><trkpt lat="40.7627961" lon="14.8640613"><ele>435.6</ele><time>2026-04-12T10:36:46.972Z</time></trkpt><trkpt lat="40.7628529" lon="14.8639485"><ele>438.8</ele><time>2026-04-12T10:36:47.966Z</time></trkpt><trkpt lat="40.762896" lon="14.8638143"><ele>442.0</ele><time>2026-04-12T10:36:48.976Z</time></trkpt><trkpt lat="40.7629481" lon="14.8636726"><ele>442.0</ele><time>2026-04-12T10:36:49.96Z</time></trkpt><trkpt lat="40.7629984" lon="14.8635359"><ele>442.00000000000006</ele><time>2026-04-12T10:36:50.969Z</time></trkpt><trkpt lat="40.7630493" lon="14.8634016"><ele>442.00000000000006</ele><time>2026-04-12T10:36:51.979Z</time></trkpt><trkpt lat="40.763092" lon="14.8632725"><ele>442.0</ele><time>2026-04-12T10:36:52.965Z</time></trkpt><trkpt lat="40.7631341" lon="14.8631614"><ele>442.0</ele><time>2026-04-12T10:36:53.968Z</time></trkpt><trkpt lat="40.7631684" lon="14.8630619"><ele>441.50000000000006</ele><time>2026-04-12T10:36:54.984Z</time></trkpt><trkpt lat="40.7632061" lon="14.8629617"><ele>441.0</ele><time>2026-04-12T10:36:55.976Z</time></trkpt><trkpt lat="40.7632396" lon="14.8628765"><ele>440.5</ele><time>2026-04-12T10:36:56.971Z</time></trkpt><trkpt lat="40.7632994" lon="14.8627731"><ele>440.0</ele><time>2026-04-12T10:36:58.973Z</time></trkpt><trkpt lat="40.7633302" lon="14.8626957"><ele>439.50000000000006</ele><time>2026-04-12T10:36:59.97Z</time></trkpt><trkpt lat="40.7633867" lon="14.8626056"><ele>439.0</ele><time>2026-04-12T10:37:01.982Z</time></trkpt><trkpt lat="40.7634113" lon="14.8625268"><ele>439.00000000000006</ele><time>2026-04-12T10:37:03.97Z</time></trkpt><trkpt lat="40.763466" lon="14.8624648"><ele>439.0</ele><time>2026-04-12T10:37:11.979Z</time></trkpt><trkpt lat="40.7635047" lon="14.8623896"><ele>439.0</ele><time>2026-04-12T10:37:14.975Z</time></trkpt><trkpt lat="40.7634527" lon="14.8623378"><ele>439.0</ele><time>2026-04-12T10:37:18.973Z</time></trkpt><trkpt lat="40.7634075" lon="14.8623986"><ele>439.00000000000006</ele><time>2026-04-12T10:37:21.977Z</time></trkpt><trkpt lat="40.7633565" lon="14.8625038"><ele>439.0</ele><time>2026-04-12T10:37:23.98Z</time></trkpt><trkpt lat="40.7632974" lon="14.8625999"><ele>439.0</ele><time>2026-04-12T10:37:25.972Z</time></trkpt><trkpt lat="40.7632491" lon="14.8626757"><ele>439.0</ele><time>2026-04-12T10:37:27.963Z</time></trkpt><trkpt lat="40.7632252" lon="14.8627865"><ele>439.0</ele><time>2026-04-12T10:37:29.966Z</time></trkpt><trkpt lat="40.7632082" lon="14.8629299"><ele>439.0</ele><time>2026-04-12T10:37:31.951Z</time></trkpt><trkpt lat="40.7638099" lon="14.8640074"><ele>450.5</ele><time>2026-04-12T10:37:47.937Z</time></trkpt><trkpt lat="40.7636487" lon="14.8637511"><ele>462.0</ele><time>2026-04-12T10:37:51.959Z</time></trkpt><trkpt lat="40.7635864" lon="14.8637725"><ele>473.5</ele><time>2026-04-12T10:37:52.97Z</time></trkpt><trkpt lat="40.7637053" lon="14.8637667"><ele>485.0</ele><time>2026-04-12T10:37:54.974Z</time></trkpt><trkpt lat="40.7637951" lon="14.8638154"><ele>485.0</ele><time>2026-04-12T10:37:55.97Z</time></trkpt><trkpt lat="40.7639344" lon="14.8640026"><ele>485.0</ele><time>2026-04-12T10:38:01.965Z</time></trkpt><trkpt lat="40.764002" lon="14.8640092"><ele>485.0</ele><time>2026-04-12T10:38:02.96Z</time></trkpt><trkpt lat="40.7639822" lon="14.8639291"><ele>485.0</ele><time>2026-04-12T10:38:05.984Z</time></trkpt><trkpt lat="40.7639536" lon="14.8638292"><ele>485.0</ele><time>2026-04-12T10:38:07.979Z</time></trkpt><trkpt lat="40.7639257" lon="14.8637305"><ele>484.99999999999994</ele><time>2026-04-12T10:38:09.971Z</time></trkpt><trkpt lat="40.7639311" lon="14.8636349"><ele>485.0</ele><time>2026-04-12T10:38:11.97Z</time></trkpt><trkpt lat="40.7639508" lon="14.8635341"><ele>485.0</ele><time>2026-04-12T10:38:13.94Z</time></trkpt><trkpt lat="40.7639537" lon="14.8634227"><ele>485.0</ele><time>2026-04-12T10:38:16.967Z</time></trkpt><trkpt lat="40.7639626" lon="14.863322"><ele>484.99999999999994</ele><time>2026-04-12T10:38:20.971Z</time></trkpt><trkpt lat="40.7640048" lon="14.8634069"><ele>485.0</ele><time>2026-04-12T10:38:25.964Z</time></trkpt><trkpt lat="40.7640844" lon="14.8635013"><ele>484.99999999999994</ele><time>2026-04-12T10:38:27.951Z</time></trkpt><trkpt lat="40.7641394" lon="14.8635793"><ele>485.0</ele><time>2026-04-12T10:38:28.95Z</time></trkpt><trkpt lat="40.7642084" lon="14.863654"><ele>485.0</ele><time>2026-04-12T10:38:29.957Z</time></trkpt><trkpt lat="40.7642669" lon="14.8637469"><ele>485.0</ele><time>2026-04-12T10:38:30.954Z</time></trkpt><trkpt lat="40.7642834" lon="14.8638521"><ele>484.99999999999994</ele><time>2026-04-12T10:38:31.948Z</time></trkpt><trkpt lat="40.7642856" lon="14.8639736"><ele>485.0</ele><time>2026-04-12T10:38:32.966Z</time></trkpt><trkpt lat="40.7642603" lon="14.8641019"><ele>485.0</ele><time>2026-04-12T10:38:33.974Z</time></trkpt><trkpt lat="40.7642448" lon="14.8642254"><ele>485.0</ele><time>2026-04-12T10:38:34.97Z</time></trkpt><trkpt lat="40.764235" lon="14.8643607"><ele>485.0</ele><time>2026-04-12T10:38:36.96Z</time></trkpt><trkpt lat="40.7642972" lon="14.8644659"><ele>485.0</ele><time>2026-04-12T10:38:38.97Z</time></trkpt><trkpt lat="40.7643873" lon="14.8644722"><ele>485.0</ele><time>2026-04-12T10:38:40.967Z</time></trkpt><trkpt lat="40.7644705" lon="14.864459"><ele>487.8333333333333</ele><time>2026-04-12T10:38:42.962Z</time></trkpt><trkpt lat="40.7645496" lon="14.8644877"><ele>490.66666666666663</ele><time>2026-04-12T10:38:45.972Z</time></trkpt><trkpt lat="40.7646577" lon="14.8645167"><ele>493.5</ele><time>2026-04-12T10:38:47.964Z</time></trkpt><trkpt lat="40.764748" lon="14.8645345"><ele>496.33333333333337</ele><time>2026-04-12T10:38:49.968Z</time></trkpt><trkpt lat="40.764818" lon="14.8645456"><ele>499.1666666666667</ele><time>2026-04-12T10:38:50.959Z</time></trkpt><trkpt lat="40.7648844" lon="14.8645673"><ele>502.0</ele><time>2026-04-12T10:38:51.967Z</time></trkpt><trkpt lat="40.7649392" lon="14.8646421"><ele>502.00000000000006</ele><time>2026-04-12T10:38:53.974Z</time></trkpt><trkpt lat="40.7649631" lon="14.864762"><ele>502.0</ele><time>2026-04-12T10:38:55.976Z</time></trkpt><trkpt lat="40.7650105" lon="14.864896"><ele>502.0</ele><time>2026-04-12T10:38:57.972Z</time></trkpt><trkpt lat="40.7650482" lon="14.8649873"><ele>502.0</ele><time>2026-04-12T10:38:59.983Z</time></trkpt><trkpt lat="40.7651115" lon="14.8650501"><ele>502.00000000000006</ele><time>2026-04-12T10:39:02.962Z</time></trkpt><trkpt lat="40.7651777" lon="14.8651037"><ele>502.0</ele><time>2026-04-12T10:39:04.976Z</time></trkpt><trkpt lat="40.7652733" lon="14.8651484"><ele>502.00000000000006</ele><time>2026-04-12T10:39:06.982Z</time></trkpt><trkpt lat="40.765351" lon="14.865185"><ele>502.0</ele><time>2026-04-12T10:39:08.971Z</time></trkpt><trkpt lat="40.7654323" lon="14.8652023"><ele>502.0</ele><time>2026-04-12T10:39:11.981Z</time></trkpt><trkpt lat="40.7655094" lon="14.8653021"><ele>502.0</ele><time>2026-04-12T10:39:13.978Z</time></trkpt><trkpt lat="40.7655442" lon="14.8654104"><ele>502.00000000000006</ele><time>2026-04-12T10:39:15.978Z</time></trkpt><trkpt lat="40.765543" lon="14.8654966"><ele>502.0</ele><time>2026-04-12T10:39:17.971Z</time></trkpt><trkpt lat="40.7655572" lon="14.8655977"><ele>502.00000000000006</ele><time>2026-04-12T10:39:19.968Z</time></trkpt><trkpt lat="40.7655679" lon="14.8656986"><ele>502.0</ele><time>2026-04-12T10:39:20.969Z</time></trkpt><trkpt lat="40.7656021" lon="14.8658128"><ele>502.0</ele><time>2026-04-12T10:39:21.969Z</time></trkpt><trkpt lat="40.7656428" lon="14.8658999"><ele>502.0</ele><time>2026-04-12T10:39:22.974Z</time></trkpt><trkpt lat="40.7656939" lon="14.8659783"><ele>502.00000000000006</ele><time>2026-04-12T10:39:23.965Z</time></trkpt><trkpt lat="40.7657474" lon="14.8660392"><ele>502.0</ele><time>2026-04-12T10:39:24.969Z</time></trkpt><trkpt lat="40.7658237" lon="14.8660848"><ele>502.50000000000006</ele><time>2026-04-12T10:39:26.974Z</time></trkpt><trkpt lat="40.7658947" lon="14.8661213"><ele>503.0</ele><time>2026-04-12T10:39:28.982Z</time></trkpt><trkpt lat="40.7659801" lon="14.8661609"><ele>503.5</ele><time>2026-04-12T10:39:30.976Z</time></trkpt><trkpt lat="40.7660876" lon="14.8661658"><ele>504.0</ele><time>2026-04-12T10:39:32.976Z</time></trkpt><trkpt lat="40.7661538" lon="14.8661442"><ele>504.50000000000006</ele><time>2026-04-12T10:39:34.976Z</time></trkpt><trkpt lat="40.7662249" lon="14.8661435"><ele>505.0</ele><time>2026-04-12T10:39:36.983Z</time></trkpt><trkpt lat="40.7663064" lon="14.866171"><ele>505.00000000000006</ele><time>2026-04-12T10:39:38.969Z</time></trkpt><trkpt lat="40.7663894" lon="14.8662033"><ele>505.0</ele><time>2026-04-12T10:39:40.959Z</time></trkpt><trkpt lat="40.7665041" lon="14.8662016"><ele>505.0</ele><time>2026-04-12T10:39:42.962Z</time></trkpt><trkpt lat="40.7665865" lon="14.8662093"><ele>505.0</ele><time>2026-04-12T10:39:45.966Z</time></trkpt><trkpt lat="40.7666369" lon="14.8662637"><ele>505.00000000000006</ele><time>2026-04-12T10:39:48.982Z</time></trkpt><trkpt lat="40.7667107" lon="14.8662723"><ele>505.0</ele><time>2026-04-12T10:39:50.979Z</time></trkpt><trkpt lat="40.7667812" lon="14.8663013"><ele>505.0</ele><time>2026-04-12T10:39:53.95Z</time></trkpt><trkpt lat="40.7668411" lon="14.8663637"><ele>505.0</ele><time>2026-04-12T10:39:57.955Z</time></trkpt><trkpt lat="40.7667858" lon="14.8665161"><ele>505.0</ele><time>2026-04-12T10:39:59.965Z</time></trkpt><trkpt lat="40.7667438" lon="14.8666193"><ele>505.0</ele><time>2026-04-12T10:40:00.964Z</time></trkpt><trkpt lat="40.7666883" lon="14.8667329"><ele>505.0</ele><time>2026-04-12T10:40:01.959Z</time></trkpt><trkpt lat="40.7666382" lon="14.8668561"><ele>505.1666666666667</ele><time>2026-04-12T10:40:02.968Z</time></trkpt><trkpt lat="40.7665818" lon="14.8669915"><ele>505.33333333333337</ele><time>2026-04-12T10:40:03.976Z</time></trkpt><trkpt lat="40.7665481" lon="14.8671251"><ele>505.5</ele><time>2026-04-12T10:40:04.972Z</time></trkpt><trkpt lat="40.7665293" lon="14.8672228"><ele>505.66666666666663</ele><time>2026-04-12T10:40:05.979Z</time></trkpt><trkpt lat="40.7665491" lon="14.8673223"><ele>505.8333333333333</ele><time>2026-04-12T10:40:06.971Z</time></trkpt><trkpt lat="40.7665737" lon="14.867405"><ele>506.0</ele><time>2026-04-12T10:40:07.978Z</time></trkpt><trkpt lat="40.7666493" lon="14.8675305"><ele>508.20000000000005</ele><time>2026-04-12T10:40:08.973Z</time></trkpt><trkpt lat="40.7667196" lon="14.8676478"><ele>510.40000000000003</ele><time>2026-04-12T10:40:09.972Z</time></trkpt><trkpt lat="40.7667785" lon="14.8677504"><ele>512.6</ele><time>2026-04-12T10:40:10.966Z</time></trkpt><trkpt lat="40.7668558" lon="14.8678395"><ele>514.8000000000001</ele><time>2026-04-12T10:40:12.971Z</time></trkpt><trkpt lat="40.7668939" lon="14.8679132"><ele>517.0</ele><time>2026-04-12T10:40:15.967Z</time></trkpt><trkpt lat="40.7668189" lon="14.867893"><ele>512.4</ele><time>2026-04-12T10:40:18.977Z</time></trkpt><trkpt lat="40.7667243" lon="14.8678673"><ele>507.80000000000007</ele><time>2026-04-12T10:40:20.973Z</time></trkpt><trkpt lat="40.7666428" lon="14.8678288"><ele>503.2</ele><time>2026-04-12T10:40:21.984Z</time></trkpt><trkpt lat="40.766546" lon="14.8677941"><ele>498.6</ele><time>2026-04-12T10:40:22.983Z</time></trkpt><trkpt lat="40.7664608" lon="14.867785"><ele>494.0</ele><time>2026-04-12T10:40:23.969Z</time></trkpt><trkpt lat="40.7663787" lon="14.8677773"><ele>493.99999999999994</ele><time>2026-04-12T10:40:24.976Z</time></trkpt><trkpt lat="40.7663147" lon="14.8677692"><ele>494.0</ele><time>2026-04-12T10:40:25.948Z</time></trkpt><trkpt lat="40.7662304" lon="14.8677796"><ele>494.0</ele><time>2026-04-12T10:40:27.97Z</time></trkpt><trkpt lat="40.7661924" lon="14.8678619"><ele>494.0</ele><time>2026-04-12T10:40:30.969Z</time></trkpt><trkpt lat="40.766172" lon="14.8679576"><ele>493.99999999999994</ele><time>2026-04-12T10:40:32.974Z</time></trkpt><trkpt lat="40.7661341" lon="14.8681079"><ele>494.0</ele><time>2026-04-12T10:40:34.974Z</time></trkpt><trkpt lat="40.7661132" lon="14.8682171"><ele>494.0</ele><time>2026-04-12T10:40:37.041Z</time></trkpt><trkpt lat="40.7661109" lon="14.8683238"><ele>494.0</ele><time>2026-04-12T10:40:38.984Z</time></trkpt><trkpt lat="40.7661558" lon="14.868384"><ele>494.0</ele><time>2026-04-12T10:40:40.983Z</time></trkpt><trkpt lat="40.7662335" lon="14.8684377"><ele>494.0</ele><time>2026-04-12T10:40:42.973Z</time></trkpt><trkpt lat="40.7663417" lon="14.8685604"><ele>494.0</ele><time>2026-04-12T10:40:44.992Z</time></trkpt><trkpt lat="40.7663781" lon="14.8686621"><ele>494.0</ele><time>2026-04-12T10:40:46.996Z</time></trkpt><trkpt lat="40.7668189" lon="14.867893"><ele>494.0</ele><time>2026-04-12T10:40:18.977Z</time></trkpt><trkpt lat="40.7667243" lon="14.8678673"><ele>494.0</ele><time>2026-04-12T10:40:20.973Z</time></trkpt><trkpt lat="40.7666428" lon="14.8678288"><ele>494.0</ele><time>2026-04-12T10:40:21.984Z</time></trkpt><trkpt lat="40.766546" lon="14.8677941"><ele>494.0</ele><time>2026-04-12T10:40:22.983Z</time></trkpt><trkpt lat="40.7664608" lon="14.867785"><ele>494.0</ele><time>2026-04-12T10:40:23.969Z</time></trkpt><trkpt lat="40.7663787" lon="14.8677773"><ele>493.99999999999994</ele><time>2026-04-12T10:40:24.976Z</time></trkpt><trkpt lat="40.7663147" lon="14.8677692"><ele>494.0</ele><time>2026-04-12T10:40:25.948Z</time></trkpt><trkpt lat="40.7662304" lon="14.8677796"><ele>494.0</ele><time>2026-04-12T10:40:27.97Z</time></trkpt><trkpt lat="40.7661924" lon="14.8678619"><ele>494.0</ele><time>2026-04-12T10:40:30.969Z</time></trkpt><trkpt lat="40.766172" lon="14.8679576"><ele>493.99999999999994</ele><time>2026-04-12T10:40:32.974Z</time></trkpt><trkpt lat="40.7661341" lon="14.8681079"><ele>494.0</ele><time>2026-04-12T10:40:34.974Z</time></trkpt><trkpt lat="40.7661132" lon="14.8682171"><ele>494.0</ele><time>2026-04-12T10:40:37.041Z</time></trkpt><trkpt lat="40.7661109" lon="14.8683238"><ele>494.0</ele><time>2026-04-12T10:40:38.984Z</time></trkpt><trkpt lat="40.7661558" lon="14.868384"><ele>494.0</ele><time>2026-04-12T10:40:40.983Z</time></trkpt><trkpt lat="40.7662335" lon="14.8684377"><ele>494.0</ele><time>2026-04-12T10:40:42.973Z</time></trkpt><trkpt lat="40.7663417" lon="14.8685604"><ele>494.0</ele><time>2026-04-12T10:40:44.992Z</time></trkpt><trkpt lat="40.7663781" lon="14.8686621"><ele>489.4</ele><time>2026-04-12T10:40:46.996Z</time></trkpt><trkpt lat="40.7664118" lon="14.8687652"><ele>484.79999999999995</ele><time>2026-04-12T10:40:49.042Z</time></trkpt><trkpt lat="40.7664828" lon="14.8688773"><ele>480.20000000000005</ele><time>2026-04-12T10:40:50.986Z</time></trkpt><trkpt lat="40.7665643" lon="14.868963"><ele>475.6</ele><time>2026-04-12T10:40:52.981Z</time></trkpt><trkpt lat="40.766639" lon="14.8690178"><ele>471.0</ele><time>2026-04-12T10:40:54.987Z</time></trkpt><trkpt lat="40.766697" lon="14.8690777"><ele>471.00000000000006</ele><time>2026-04-12T10:40:57.055Z</time></trkpt><trkpt lat="40.7667425" lon="14.8691507"><ele>471.0</ele><time>2026-04-12T10:40:59.975Z</time></trkpt><trkpt lat="40.7667534" lon="14.869269"><ele>471.00000000000006</ele><time>2026-04-12T10:41:03.045Z</time></trkpt><trkpt lat="40.7667559" lon="14.8693628"><ele>471.00000000000006</ele><time>2026-04-12T10:41:04.989Z</time></trkpt><trkpt lat="40.7667854" lon="14.8694401"><ele>471.0</ele><time>2026-04-12T10:41:07.976Z</time></trkpt><trkpt lat="40.7667541" lon="14.8693646"><ele>471.00000000000006</ele><time>2026-04-12T10:41:14.986Z</time></trkpt><trkpt lat="40.7666808" lon="14.8693139"><ele>471.00000000000006</ele><time>2026-04-12T10:41:17.983Z</time></trkpt><trkpt lat="40.7665915" lon="14.8693075"><ele>471.0</ele><time>2026-04-12T10:41:20.984Z</time></trkpt><trkpt lat="40.7664976" lon="14.8692692"><ele>471.0</ele><time>2026-04-12T10:41:22.978Z</time></trkpt><trkpt lat="40.7664401" lon="14.8692253"><ele>471.0</ele><time>2026-04-12T10:41:24.044Z</time></trkpt><trkpt lat="40.7663694" lon="14.8691703"><ele>471.0</ele><time>2026-04-12T10:41:24.983Z</time></trkpt><trkpt lat="40.7662917" lon="14.8691029"><ele>471.0</ele><time>2026-04-12T10:41:25.991Z</time></trkpt><trkpt lat="40.7662038" lon="14.8690359"><ele>471.0</ele><time>2026-04-12T10:41:26.956Z</time></trkpt><trkpt lat="40.7661208" lon="14.8689884"><ele>470.25</ele><time>2026-04-12T10:41:27.994Z</time></trkpt><trkpt lat="40.7659842" lon="14.8689452"><ele>469.5</ele><time>2026-04-12T10:41:28.984Z</time></trkpt><trkpt lat="40.7658561" lon="14.8689047"><ele>468.75</ele><time>2026-04-12T10:41:29.993Z</time></trkpt><trkpt lat="40.7657413" lon="14.8688595"><ele>468.0</ele><time>2026-04-12T10:41:30.984Z</time></trkpt><trkpt lat="40.765656" lon="14.8688047"><ele>468.0</ele><time>2026-04-12T10:41:31.987Z</time></trkpt><trkpt lat="40.7655672" lon="14.8687629"><ele>468.0</ele><time>2026-04-12T10:41:33.031Z</time></trkpt><trkpt lat="40.7654851" lon="14.8687446"><ele>468.0</ele><time>2026-04-12T10:41:34.049Z</time></trkpt><trkpt lat="40.7654116" lon="14.8687165"><ele>468.0</ele><time>2026-04-12T10:41:34.958Z</time></trkpt><trkpt lat="40.7653266" lon="14.8686762"><ele>468.0</ele><time>2026-04-12T10:41:35.968Z</time></trkpt><trkpt lat="40.7652342" lon="14.8686295"><ele>468.0</ele><time>2026-04-12T10:41:36.973Z</time></trkpt><trkpt lat="40.7651412" lon="14.8685921"><ele>470.4</ele><time>2026-04-12T10:41:37.961Z</time></trkpt><trkpt lat="40.7650435" lon="14.8685528"><ele>472.79999999999995</ele><time>2026-04-12T10:41:38.968Z</time></trkpt><trkpt lat="40.7649509" lon="14.868513"><ele>475.2</ele><time>2026-04-12T10:41:39.961Z</time></trkpt><trkpt lat="40.7648648" lon="14.8684876"><ele>477.6</ele><time>2026-04-12T10:41:41.047Z</time></trkpt><trkpt lat="40.7647661" lon="14.8684731"><ele>480.0</ele><time>2026-04-12T10:41:42.033Z</time></trkpt><trkpt lat="40.7646369" lon="14.8684767"><ele>480.0</ele><time>2026-04-12T10:41:43.039Z</time></trkpt><trkpt lat="40.7645285" lon="14.8684752"><ele>480.0</ele><time>2026-04-12T10:41:44.034Z</time></trkpt><trkpt lat="40.7644518" lon="14.8684633"><ele>480.0</ele><time>2026-04-12T10:41:44.965Z</time></trkpt><trkpt lat="40.764379" lon="14.8684407"><ele>480.0</ele><time>2026-04-12T10:41:45.962Z</time></trkpt><trkpt lat="40.7642911" lon="14.8684096"><ele>480.0</ele><time>2026-04-12T10:41:46.963Z</time></trkpt><trkpt lat="40.7642132" lon="14.8683598"><ele>480.0</ele><time>2026-04-12T10:41:47.97Z</time></trkpt><trkpt lat="40.7641536" lon="14.8683043"><ele>474.3333333333333</ele><time>2026-04-12T10:41:48.964Z</time></trkpt><trkpt lat="40.7641103" lon="14.8682162"><ele>468.66666666666663</ele><time>2026-04-12T10:41:50.973Z</time></trkpt><trkpt lat="40.7640697" lon="14.8681406"><ele>463.0</ele><time>2026-04-12T10:41:51.962Z</time></trkpt><trkpt lat="40.7640309" lon="14.8680657"><ele>457.3333333333333</ele><time>2026-04-12T10:41:52.968Z</time></trkpt><trkpt lat="40.7639362" lon="14.8680006"><ele>451.66666666666663</ele><time>2026-04-12T10:41:54.965Z</time></trkpt><trkpt lat="40.7638785" lon="14.8679551"><ele>446.0</ele><time>2026-04-12T10:41:55.972Z</time></trkpt><trkpt lat="40.7638385" lon="14.8678594"><ele>446.0</ele><time>2026-04-12T10:41:56.955Z</time></trkpt><trkpt lat="40.7638148" lon="14.8677064"><ele>446.0</ele><time>2026-04-12T10:41:57.964Z</time></trkpt><trkpt lat="40.7637967" lon="14.8675663"><ele>446.0</ele><time>2026-04-12T10:41:58.971Z</time></trkpt><trkpt lat="40.7637928" lon="14.8674404"><ele>446.0</ele><time>2026-04-12T10:41:59.968Z</time></trkpt><trkpt lat="40.7637725" lon="14.8673239"><ele>446.0</ele><time>2026-04-12T10:42:00.971Z</time></trkpt><trkpt lat="40.7637292" lon="14.8672298"><ele>444.66666666666663</ele><time>2026-04-12T10:42:01.964Z</time></trkpt><trkpt lat="40.7636608" lon="14.8671539"><ele>443.3333333333333</ele><time>2026-04-12T10:42:03.085Z</time></trkpt><trkpt lat="40.7635813" lon="14.8670999"><ele>442.0</ele><time>2026-04-12T10:42:04.023Z</time></trkpt><trkpt lat="40.7635085" lon="14.8670653"><ele>440.66666666666663</ele><time>2026-04-12T10:42:04.973Z</time></trkpt><trkpt lat="40.7634258" lon="14.8670407"><ele>439.3333333333333</ele><time>2026-04-12T10:42:05.973Z</time></trkpt><trkpt lat="40.7633242" lon="14.8670364"><ele>438.0</ele><time>2026-04-12T10:42:06.957Z</time></trkpt><trkpt lat="40.7632264" lon="14.8670337"><ele>438.0</ele><time>2026-04-12T10:42:07.968Z</time></trkpt><trkpt lat="40.7631197" lon="14.867029"><ele>438.0</ele><time>2026-04-12T10:42:08.97Z</time></trkpt><trkpt lat="40.7630202" lon="14.8670295"><ele>438.0</ele><time>2026-04-12T10:42:09.97Z</time></trkpt><trkpt lat="40.7629335" lon="14.8670335"><ele>438.0</ele><time>2026-04-12T10:42:11.025Z</time></trkpt><trkpt lat="40.7628524" lon="14.8670322"><ele>438.0</ele><time>2026-04-12T10:42:12.034Z</time></trkpt><trkpt lat="40.7627814" lon="14.8670304"><ele>438.0</ele><time>2026-04-12T10:42:13.023Z</time></trkpt><trkpt lat="40.7627159" lon="14.8670215"><ele>433.2</ele><time>2026-04-12T10:42:14.031Z</time></trkpt><trkpt lat="40.7625931" lon="14.8670898"><ele>428.4</ele><time>2026-04-12T10:42:15.975Z</time></trkpt><trkpt lat="40.7625349" lon="14.8671599"><ele>423.59999999999997</ele><time>2026-04-12T10:42:16.993Z</time></trkpt><trkpt lat="40.7624657" lon="14.8672235"><ele>418.79999999999995</ele><time>2026-04-12T10:42:18.046Z</time></trkpt><trkpt lat="40.7623869" lon="14.867267"><ele>414.0</ele><time>2026-04-12T10:42:19.027Z</time></trkpt><trkpt lat="40.7622776" lon="14.8672949"><ele>414.0</ele><time>2026-04-12T10:42:19.967Z</time></trkpt><trkpt lat="40.7621922" lon="14.8673106"><ele>414.0</ele><time>2026-04-12T10:42:20.98Z</time></trkpt><trkpt lat="40.7621163" lon="14.8673148"><ele>414.0</ele><time>2026-04-12T10:42:21.997Z</time></trkpt><trkpt lat="40.7620511" lon="14.8672881"><ele>414.0</ele><time>2026-04-12T10:42:24.027Z</time></trkpt><trkpt lat="40.761996" lon="14.8673376"><ele>414.0</ele><time>2026-04-12T10:42:28.037Z</time></trkpt><trkpt lat="40.7619748" lon="14.867433"><ele>414.0</ele><time>2026-04-12T10:42:31.962Z</time></trkpt><trkpt lat="40.761901" lon="14.8674775"><ele>414.0</ele><time>2026-04-12T10:42:33.968Z</time></trkpt><trkpt lat="40.761874" lon="14.8673847"><ele>414.0</ele><time>2026-04-12T10:42:36.953Z</time></trkpt><trkpt lat="40.7618427" lon="14.8671972"><ele>414.0</ele><time>2026-04-12T10:42:38.968Z</time></trkpt><trkpt lat="40.7618559" lon="14.8670055"><ele>414.0</ele><time>2026-04-12T10:42:39.972Z</time></trkpt><trkpt lat="40.7618519" lon="14.8667847"><ele>413.6</ele><time>2026-04-12T10:42:40.965Z</time></trkpt><trkpt lat="40.7618475" lon="14.8666406"><ele>413.2</ele><time>2026-04-12T10:42:41.98Z</time></trkpt><trkpt lat="40.7618597" lon="14.8665541"><ele>412.8</ele><time>2026-04-12T10:42:43.056Z</time></trkpt><trkpt lat="40.7618555" lon="14.8664685"><ele>412.40000000000003</ele><time>2026-04-12T10:42:43.965Z</time></trkpt><trkpt lat="40.7618579" lon="14.8663047"><ele>412.0</ele><time>2026-04-12T10:42:45.97Z</time></trkpt><trkpt lat="40.7618837" lon="14.8661901"><ele>412.00000000000006</ele><time>2026-04-12T10:42:46.983Z</time></trkpt><trkpt lat="40.7619371" lon="14.8660887"><ele>412.0</ele><time>2026-04-12T10:42:48.033Z</time></trkpt><trkpt lat="40.7619831" lon="14.865998"><ele>412.0</ele><time>2026-04-12T10:42:49.04Z</time></trkpt><trkpt lat="40.7620367" lon="14.8658907"><ele>412.0</ele><time>2026-04-12T10:42:49.976Z</time></trkpt><trkpt lat="40.762073" lon="14.8657873"><ele>412.00000000000006</ele><time>2026-04-12T10:42:50.977Z</time></trkpt><trkpt lat="40.7621061" lon="14.8656906"><ele>412.0</ele><time>2026-04-12T10:42:51.978Z</time></trkpt><trkpt lat="40.7621288" lon="14.8655805"><ele>414.1666666666667</ele><time>2026-04-12T10:42:52.977Z</time></trkpt><trkpt lat="40.7621475" lon="14.8654691"><ele>416.33333333333337</ele><time>2026-04-12T10:42:53.995Z</time></trkpt><trkpt lat="40.7621815" lon="14.8653677"><ele>418.5</ele><time>2026-04-12T10:42:54.979Z</time></trkpt><trkpt lat="40.7622262" lon="14.8652622"><ele>420.66666666666663</ele><time>2026-04-12T10:42:56.019Z</time></trkpt><trkpt lat="40.7622592" lon="14.865185"><ele>422.8333333333333</ele><time>2026-04-12T10:42:57.044Z</time></trkpt><trkpt lat="40.7622904" lon="14.8651062"><ele>425.0</ele><time>2026-04-12T10:42:57.97Z</time></trkpt><trkpt lat="40.762342" lon="14.8649983"><ele>425.2</ele><time>2026-04-12T10:42:58.972Z</time></trkpt><trkpt lat="40.7623859" lon="14.8649295"><ele>425.4</ele><time>2026-04-12T10:42:59.97Z</time></trkpt><trkpt lat="40.7624665" lon="14.8648504"><ele>425.6</ele><time>2026-04-12T10:43:00.979Z</time></trkpt><trkpt lat="40.7625281" lon="14.8647542"><ele>425.8</ele><time>2026-04-12T10:43:01.969Z</time></trkpt><trkpt lat="40.7625803" lon="14.864642"><ele>426.0</ele><time>2026-04-12T10:43:02.97Z</time></trkpt><trkpt lat="40.7626426" lon="14.8645037"><ele>430.0</ele><time>2026-04-12T10:43:03.975Z</time></trkpt><trkpt lat="40.7627269" lon="14.8643584"><ele>434.0</ele><time>2026-04-12T10:43:04.968Z</time></trkpt><trkpt lat="40.7628029" lon="14.8642239"><ele>438.0</ele><time>2026-04-12T10:43:05.974Z</time></trkpt><trkpt lat="40.7628648" lon="14.8640933"><ele>442.0</ele><time>2026-04-12T10:43:06.97Z</time></trkpt><trkpt lat="40.7629351" lon="14.863893"><ele>442.0</ele><time>2026-04-12T10:43:07.972Z</time></trkpt><trkpt lat="40.7629852" lon="14.8637481"><ele>442.0</ele><time>2026-04-12T10:43:08.967Z</time></trkpt><trkpt lat="40.7630383" lon="14.863576"><ele>442.0</ele><time>2026-04-12T10:43:09.96Z</time></trkpt><trkpt lat="40.7630813" lon="14.863424"><ele>442.0</ele><time>2026-04-12T10:43:10.972Z</time></trkpt><trkpt lat="40.7631118" lon="14.8633"><ele>441.40000000000003</ele><time>2026-04-12T10:43:11.974Z</time></trkpt><trkpt lat="40.7631215" lon="14.8631736"><ele>440.80000000000007</ele><time>2026-04-12T10:43:12.977Z</time></trkpt><trkpt lat="40.7631382" lon="14.8630509"><ele>440.2</ele><time>2026-04-12T10:43:13.968Z</time></trkpt><trkpt lat="40.7631585" lon="14.862963"><ele>439.6</ele><time>2026-04-12T10:43:14.969Z</time></trkpt><trkpt lat="40.7632322" lon="14.8628639"><ele>439.0</ele><time>2026-04-12T10:43:17.021Z</time></trkpt><trkpt lat="40.763264" lon="14.8627593"><ele>439.00000000000006</ele><time>2026-04-12T10:43:18.947Z</time></trkpt><trkpt lat="40.7632875" lon="14.8626775"><ele>439.0</ele><time>2026-04-12T10:43:22.04Z</time></trkpt><trkpt lat="40.7633542" lon="14.8626245"><ele>439.0</ele><time>2026-04-12T10:43:49.031Z</time></trkpt><trkpt lat="40.7634251" lon="14.8625584"><ele>439.0</ele><time>2026-04-12T10:43:50.963Z</time></trkpt><trkpt lat="40.7634749" lon="14.8624737"><ele>439.00000000000006</ele><time>2026-04-12T10:43:52.98Z</time></trkpt><trkpt lat="40.7635218" lon="14.8624109"><ele>439.0</ele><time>2026-04-12T10:43:55.97Z</time></trkpt><trkpt lat="40.7634346" lon="14.8624527"><ele>439.0</ele><time>2026-04-12T10:44:02.019Z</time></trkpt><trkpt lat="40.7633634" lon="14.8625418"><ele>439.0</ele><time>2026-04-12T10:44:04.943Z</time></trkpt><trkpt lat="40.7633193" lon="14.8626169"><ele>439.0</ele><time>2026-04-12T10:44:06.959Z</time></trkpt><trkpt lat="40.7632714" lon="14.8627212"><ele>439.0</ele><time>2026-04-12T10:44:08.963Z</time></trkpt><trkpt lat="40.7632332" lon="14.8628289"><ele>439.0</ele><time>2026-04-12T10:44:10.961Z</time></trkpt><trkpt lat="40.7632078" lon="14.862956"><ele>439.0</ele><time>2026-04-12T10:44:12.954Z</time></trkpt><trkpt lat="40.763188" lon="14.8630858"><ele>439.0</ele><time>2026-04-12T10:44:14.966Z</time></trkpt><trkpt lat="40.7631553" lon="14.8632292"><ele>439.0</ele><time>2026-04-12T10:44:17.037Z</time></trkpt><trkpt lat="40.7631612" lon="14.863365"><ele>439.0</ele><time>2026-04-12T10:44:19.028Z</time></trkpt><trkpt lat="40.7632029" lon="14.8634942"><ele>439.0</ele><time>2026-04-12T10:44:20.978Z</time></trkpt><trkpt lat="40.7632621" lon="14.8636162"><ele>439.50000000000006</ele><time>2026-04-12T10:44:22.975Z</time></trkpt><trkpt lat="40.7633148" lon="14.863736"><ele>440.0</ele><time>2026-04-12T10:44:24.956Z</time></trkpt><trkpt lat="40.7633634" lon="14.8638061"><ele>440.5</ele><time>2026-04-12T10:44:26.983Z</time></trkpt><trkpt lat="40.7634139" lon="14.8638617"><ele>441.0</ele><time>2026-04-12T10:44:29.046Z</time></trkpt><trkpt lat="40.7635002" lon="14.8639063"><ele>441.50000000000006</ele><time>2026-04-12T10:44:30.981Z</time></trkpt><trkpt lat="40.7635646" lon="14.8639263"><ele>442.0</ele><time>2026-04-12T10:44:32.978Z</time></trkpt><trkpt lat="40.7636036" lon="14.863841"><ele>449.1666666666667</ele><time>2026-04-12T10:44:37.035Z</time></trkpt><trkpt lat="40.7636864" lon="14.8638257"><ele>456.33333333333337</ele><time>2026-04-12T10:44:40.981Z</time></trkpt><trkpt lat="40.763768" lon="14.8638492"><ele>463.5</ele><time>2026-04-12T10:44:43.974Z</time></trkpt><trkpt lat="40.7638381" lon="14.8638568"><ele>470.66666666666663</ele><time>2026-04-12T10:44:45.968Z</time></trkpt><trkpt lat="40.7639091" lon="14.8638735"><ele>477.8333333333333</ele><time>2026-04-12T10:44:47.976Z</time></trkpt><trkpt lat="40.7639263" lon="14.8637636"><ele>485.0</ele><time>2026-04-12T10:44:50.975Z</time></trkpt><trkpt lat="40.7639251" lon="14.8636754"><ele>484.99999999999994</ele><time>2026-04-12T10:44:52.984Z</time></trkpt><trkpt lat="40.7639542" lon="14.8635613"><ele>485.0</ele><time>2026-04-12T10:44:55.966Z</time></trkpt><trkpt lat="40.7639947" lon="14.8634683"><ele>485.0</ele><time>2026-04-12T10:44:57.969Z</time></trkpt><trkpt lat="40.7640261" lon="14.8633447"><ele>485.0</ele><time>2026-04-12T10:44:59.974Z</time></trkpt><trkpt lat="40.7640529" lon="14.8632515"><ele>484.99999999999994</ele><time>2026-04-12T10:45:01.975Z</time></trkpt><trkpt lat="40.7640195" lon="14.8633789"><ele>485.0</ele><time>2026-04-12T10:45:09.054Z</time></trkpt><trkpt lat="40.7640663" lon="14.8634851"><ele>485.0</ele><time>2026-04-12T10:45:10.978Z</time></trkpt><trkpt lat="40.764125" lon="14.8635868"><ele>485.0</ele><time>2026-04-12T10:45:12.966Z</time></trkpt><trkpt lat="40.7642138" lon="14.8637453"><ele>485.0</ele><time>2026-04-12T10:45:14.978Z</time></trkpt><trkpt lat="40.7642598" lon="14.8638454"><ele>485.0</ele><time>2026-04-12T10:45:15.972Z</time></trkpt><trkpt lat="40.7642927" lon="14.8639343"><ele>485.0</ele><time>2026-04-12T10:45:16.966Z</time></trkpt><trkpt lat="40.7643225" lon="14.8640559"><ele>485.0</ele><time>2026-04-12T10:45:17.953Z</time></trkpt><trkpt lat="40.7643398" lon="14.8641839"><ele>485.0</ele><time>2026-04-12T10:45:18.978Z</time></trkpt><trkpt lat="40.7643249" lon="14.8643268"><ele>485.0</ele><time>2026-04-12T10:45:19.981Z</time></trkpt><trkpt lat="40.7643139" lon="14.864432"><ele>485.0</ele><time>2026-04-12T10:45:20.984Z</time></trkpt><trkpt lat="40.7643116" lon="14.8645558"><ele>485.0</ele><time>2026-04-12T10:45:22.979Z</time></trkpt><trkpt lat="40.7643724" lon="14.8646505"><ele>487.8333333333333</ele><time>2026-04-12T10:45:24.98Z</time></trkpt><trkpt lat="40.7644513" lon="14.864637"><ele>490.66666666666663</ele><time>2026-04-12T10:45:28.041Z</time></trkpt><trkpt lat="40.7645272" lon="14.8646004"><ele>493.5</ele><time>2026-04-12T10:45:30.982Z</time></trkpt><trkpt lat="40.7646115" lon="14.8645778"><ele>496.33333333333337</ele><time>2026-04-12T10:45:33.996Z</time></trkpt><trkpt lat="40.7646961" lon="14.8645613"><ele>499.1666666666667</ele><time>2026-04-12T10:45:35.98Z</time></trkpt><trkpt lat="40.7647784" lon="14.8645487"><ele>502.0</ele><time>2026-04-12T10:45:37.986Z</time></trkpt><trkpt lat="40.7648467" lon="14.8645476"><ele>502.00000000000006</ele><time>2026-04-12T10:45:39.966Z</time></trkpt><trkpt lat="40.7648945" lon="14.8646528"><ele>502.0</ele><time>2026-04-12T10:45:43.048Z</time></trkpt><trkpt lat="40.7649231" lon="14.8647678"><ele>502.0</ele><time>2026-04-12T10:45:44.958Z</time></trkpt><trkpt lat="40.7649587" lon="14.864853"><ele>502.0</ele><time>2026-04-12T10:45:46.971Z</time></trkpt><trkpt lat="40.7650077" lon="14.8649186"><ele>502.00000000000006</ele><time>2026-04-12T10:45:48.984Z</time></trkpt><trkpt lat="40.7650689" lon="14.8649897"><ele>502.0</ele><time>2026-04-12T10:45:51.055Z</time></trkpt><trkpt lat="40.7651653" lon="14.8650525"><ele>502.00000000000006</ele><time>2026-04-12T10:45:52.981Z</time></trkpt><trkpt lat="40.7652518" lon="14.8650961"><ele>502.0</ele><time>2026-04-12T10:45:53.983Z</time></trkpt><trkpt lat="40.7653211" lon="14.8651153"><ele>502.0</ele><time>2026-04-12T10:45:54.951Z</time></trkpt><trkpt lat="40.7653873" lon="14.8651269"><ele>502.0</ele><time>2026-04-12T10:45:56.045Z</time></trkpt><trkpt lat="40.7654762" lon="14.865136"><ele>502.00000000000006</ele><time>2026-04-12T10:45:57.982Z</time></trkpt><trkpt lat="40.76555" lon="14.8652364"><ele>502.0</ele><time>2026-04-12T10:45:59.973Z</time></trkpt><trkpt lat="40.765561" lon="14.8653637"><ele>502.0</ele><time>2026-04-12T10:46:01.989Z</time></trkpt><trkpt lat="40.7655421" lon="14.8654774"><ele>502.00000000000006</ele><time>2026-04-12T10:46:04.973Z</time></trkpt><trkpt lat="40.7655237" lon="14.8655858"><ele>502.00000000000006</ele><time>2026-04-12T10:46:06.976Z</time></trkpt><trkpt lat="40.7655345" lon="14.865717"><ele>502.0</ele><time>2026-04-12T10:46:08.983Z</time></trkpt><trkpt lat="40.765583" lon="14.865846"><ele>502.0</ele><time>2026-04-12T10:46:10.973Z</time></trkpt><trkpt lat="40.7656717" lon="14.8659275"><ele>502.6</ele><time>2026-04-12T10:46:12.993Z</time></trkpt><trkpt lat="40.7657706" lon="14.8659748"><ele>503.20000000000005</ele><time>2026-04-12T10:46:14.978Z</time></trkpt><trkpt lat="40.7658739" lon="14.8660135"><ele>503.8</ele><time>2026-04-12T10:46:17.006Z</time></trkpt><trkpt lat="40.7659373" lon="14.8660332"><ele>504.4</ele><time>2026-04-12T10:46:17.984Z</time></trkpt><trkpt lat="40.7660418" lon="14.8660473"><ele>505.0</ele><time>2026-04-12T10:46:19.962Z</time></trkpt><trkpt lat="40.7661238" lon="14.8660591"><ele>505.0</ele><time>2026-04-12T10:46:21.978Z</time></trkpt><trkpt lat="40.7662169" lon="14.8660949"><ele>505.0</ele><time>2026-04-12T10:46:23.98Z</time></trkpt><trkpt lat="40.7663145" lon="14.8661397"><ele>505.0</ele><time>2026-04-12T10:46:25.992Z</time></trkpt><trkpt lat="40.766408" lon="14.8661865"><ele>505.0</ele><time>2026-04-12T10:46:27.982Z</time></trkpt><trkpt lat="40.7664879" lon="14.8662138"><ele>505.0</ele><time>2026-04-12T10:46:29.984Z</time></trkpt><trkpt lat="40.7665621" lon="14.8662574"><ele>505.0</ele><time>2026-04-12T10:46:31.975Z</time></trkpt><trkpt lat="40.7666591" lon="14.8663021"><ele>505.0</ele><time>2026-04-12T10:46:33.977Z</time></trkpt><trkpt lat="40.7667722" lon="14.8663226"><ele>505.0</ele><time>2026-04-12T10:46:35.982Z</time></trkpt><trkpt lat="40.7668532" lon="14.8663446"><ele>505.0</ele><time>2026-04-12T10:46:37.979Z</time></trkpt><trkpt lat="40.7669161" lon="14.8663875"><ele>505.0</ele><time>2026-04-12T10:46:40.958Z</time></trkpt><trkpt lat="40.7668759" lon="14.8664896"><ele>505.00000000000006</ele><time>2026-04-12T10:46:44.041Z</time></trkpt><trkpt lat="40.7668263" lon="14.8665642"><ele>505.0</ele><time>2026-04-12T10:46:44.969Z</time></trkpt><trkpt lat="40.7667547" lon="14.8666602"><ele>505.0</ele><time>2026-04-12T10:46:45.976Z</time></trkpt><trkpt lat="40.7666873" lon="14.8667475"><ele>505.0</ele><time>2026-04-12T10:46:46.977Z</time></trkpt><trkpt lat="40.7666475" lon="14.8668239"><ele>505.00000000000006</ele><time>2026-04-12T10:46:47.979Z</time></trkpt><trkpt lat="40.766598" lon="14.8669111"><ele>505.0</ele><time>2026-04-12T10:46:48.981Z</time></trkpt><trkpt lat="40.7665598" lon="14.8670317"><ele>505.2</ele><time>2026-04-12T10:46:49.984Z</time></trkpt><trkpt lat="40.7665424" lon="14.867165"><ele>505.4</ele><time>2026-04-12T10:46:50.978Z</time></trkpt><trkpt lat="40.7665828" lon="14.8672981"><ele>505.6</ele><time>2026-04-12T10:46:52.984Z</time></trkpt><trkpt lat="40.7666162" lon="14.8673821"><ele>505.8</ele><time>2026-04-12T10:46:53.967Z</time></trkpt><trkpt lat="40.7666693" lon="14.8675037"><ele>506.0</ele><time>2026-04-12T10:46:54.984Z</time></trkpt><trkpt lat="40.7667077" lon="14.8676089"><ele>507.8333333333333</ele><time>2026-04-12T10:46:55.968Z</time></trkpt><trkpt lat="40.7667607" lon="14.867677"><ele>509.66666666666663</ele><time>2026-04-12T10:46:57.985Z</time></trkpt><trkpt lat="40.7668369" lon="14.8677436"><ele>511.5</ele><time>2026-04-12T10:47:13.043Z</time></trkpt><trkpt lat="40.7668684" lon="14.8678157"><ele>513.3333333333334</ele><time>2026-04-12T10:48:20.981Z</time></trkpt><trkpt lat="40.766797" lon="14.8677877"><ele>515.1666666666667</ele><time>2026-04-12T10:49:01.975Z</time></trkpt><trkpt lat="40.7667091" lon="14.8677406"><ele>517.0</ele><time>2026-04-12T10:49:03.973Z</time></trkpt><trkpt lat="40.766595" lon="14.8677194"><ele>513.1666666666667</ele><time>2026-04-12T10:49:05.978Z</time></trkpt><trkpt lat="40.7665205" lon="14.8677073"><ele>509.33333333333337</ele><time>2026-04-12T10:49:06.975Z</time></trkpt><trkpt lat="40.7664404" lon="14.8677011"><ele>505.5</ele><time>2026-04-12T10:49:07.98Z</time></trkpt><trkpt lat="40.7663689" lon="14.8676902"><ele>501.66666666666663</ele><time>2026-04-12T10:49:08.968Z</time></trkpt><trkpt lat="40.7662909" lon="14.8676563"><ele>497.8333333333333</ele><time>2026-04-12T10:49:10.971Z</time></trkpt><trkpt lat="40.7662193" lon="14.8676529"><ele>494.0</ele><time>2026-04-12T10:49:12.979Z</time></trkpt><trkpt lat="40.7661691" lon="14.8677479"><ele>494.0</ele><time>2026-04-12T10:49:15.976Z</time></trkpt><trkpt lat="40.7661852" lon="14.8678444"><ele>494.0</ele><time>2026-04-12T10:49:17.972Z</time></trkpt><trkpt lat="40.7662005" lon="14.8679658"><ele>494.0</ele><time>2026-04-12T10:49:19.97Z</time></trkpt><trkpt lat="40.7662546" lon="14.8681166"><ele>494.0</ele><time>2026-04-12T10:49:21.959Z</time></trkpt><trkpt lat="40.766302" lon="14.8682197"><ele>494.0</ele><time>2026-04-12T10:49:22.961Z</time></trkpt><trkpt lat="40.7663544" lon="14.8683261"><ele>493.99999999999994</ele><time>2026-04-12T10:49:23.974Z</time></trkpt><trkpt lat="40.7664038" lon="14.8684212"><ele>494.0</ele><time>2026-04-12T10:49:24.964Z</time></trkpt><trkpt lat="40.7664525" lon="14.8685023"><ele>494.0</ele><time>2026-04-12T10:49:25.967Z</time></trkpt><trkpt lat="40.7665081" lon="14.8685819"><ele>494.0</ele><time>2026-04-12T10:49:26.968Z</time></trkpt><trkpt lat="40.7665625" lon="14.8686703"><ele>493.99999999999994</ele><time>2026-04-12T10:49:27.977Z</time></trkpt><trkpt lat="40.7666158" lon="14.8687476"><ele>494.0</ele><time>2026-04-12T10:49:28.976Z</time></trkpt><trkpt lat="40.7666746" lon="14.8688139"><ele>493.66666666666663</ele><time>2026-04-12T10:49:29.978Z</time></trkpt><trkpt lat="40.7667278" lon="14.8688869"><ele>493.3333333333333</ele><time>2026-04-12T10:49:31.979Z</time></trkpt><trkpt lat="40.7667559" lon="14.8689624"><ele>493.0</ele><time>2026-04-12T10:49:33.971Z</time></trkpt><trkpt lat="40.7667943" lon="14.8690686"><ele>492.66666666666663</ele><time>2026-04-12T10:49:35.976Z</time></trkpt><trkpt lat="40.7668471" lon="14.8691682"><ele>492.3333333333333</ele><time>2026-04-12T10:49:37.979Z</time></trkpt><trkpt lat="40.7669024" lon="14.8692204"><ele>492.0</ele><time>2026-04-12T10:49:39.975Z</time></trkpt><trkpt lat="40.7669259" lon="14.8693008"><ele>491.5</ele><time>2026-04-12T10:49:46.976Z</time></trkpt><trkpt lat="40.7669042" lon="14.869398"><ele>491.0</ele><time>2026-04-12T10:49:49.972Z</time></trkpt><trkpt lat="40.7668923" lon="14.8694832"><ele>490.5</ele><time>2026-04-12T10:49:53.967Z</time></trkpt><trkpt lat="40.7668247" lon="14.8694443"><ele>490.0</ele><time>2026-04-12T10:49:58.974Z</time></trkpt><trkpt lat="40.7667718" lon="14.8693903"><ele>489.5</ele><time>2026-04-12T10:50:01.971Z</time></trkpt><trkpt lat="40.7666239" lon="14.8693371"><ele>489.0</ele><time>2026-04-12T10:50:06.977Z</time></trkpt><trkpt lat="40.7665173" lon="14.8692687"><ele>484.5</ele><time>2026-04-12T10:50:08.969Z</time></trkpt><trkpt lat="40.7664399" lon="14.8692104"><ele>480.0</ele><time>2026-04-12T10:50:09.97Z</time></trkpt><trkpt lat="40.7662675" lon="14.8691017"><ele>475.5</ele><time>2026-04-12T10:50:10.966Z</time></trkpt><trkpt lat="40.7661402" lon="14.8690216"><ele>471.0</ele><time>2026-04-12T10:50:11.973Z</time></trkpt><trkpt lat="40.7660306" lon="14.8689627"><ele>470.4</ele><time>2026-04-12T10:50:12.969Z</time></trkpt><trkpt lat="40.7659484" lon="14.8689505"><ele>469.8</ele><time>2026-04-12T10:50:13.97Z</time></trkpt><trkpt lat="40.765855" lon="14.8689392"><ele>469.19999999999993</ele><time>2026-04-12T10:50:14.968Z</time></trkpt><trkpt lat="40.765757" lon="14.8689063"><ele>468.59999999999997</ele><time>2026-04-12T10:50:15.944Z</time></trkpt><trkpt lat="40.7656737" lon="14.8688558"><ele>468.0</ele><time>2026-04-12T10:50:16.968Z</time></trkpt><trkpt lat="40.7655984" lon="14.868803"><ele>468.0</ele><time>2026-04-12T10:50:17.973Z</time></trkpt><trkpt lat="40.7655248" lon="14.8687588"><ele>467.99999999999994</ele><time>2026-04-12T10:50:18.966Z</time></trkpt><trkpt lat="40.7654015" lon="14.8687194"><ele>467.99999999999994</ele><time>2026-04-12T10:50:20.971Z</time></trkpt><trkpt lat="40.7653284" lon="14.8686873"><ele>468.0</ele><time>2026-04-12T10:50:21.971Z</time></trkpt><trkpt lat="40.7652482" lon="14.8686479"><ele>468.0</ele><time>2026-04-12T10:50:22.971Z</time></trkpt><trkpt lat="40.7651666" lon="14.8686081"><ele>470.4</ele><time>2026-04-12T10:50:23.981Z</time></trkpt><trkpt lat="40.7650691" lon="14.8685674"><ele>472.79999999999995</ele><time>2026-04-12T10:50:24.967Z</time></trkpt><trkpt lat="40.7649799" lon="14.8685244"><ele>475.2</ele><time>2026-04-12T10:50:25.959Z</time></trkpt><trkpt lat="40.7649096" lon="14.8684824"><ele>477.6</ele><time>2026-04-12T10:50:26.969Z</time></trkpt><trkpt lat="40.7648291" lon="14.8684518"><ele>480.0</ele><time>2026-04-12T10:50:27.967Z</time></trkpt><trkpt lat="40.7647327" lon="14.8684463"><ele>473.8</ele><time>2026-04-12T10:50:28.968Z</time></trkpt><trkpt lat="40.764642" lon="14.868442"><ele>467.6</ele><time>2026-04-12T10:50:29.973Z</time></trkpt><trkpt lat="40.7645444" lon="14.8684246"><ele>461.4</ele><time>2026-04-12T10:50:30.973Z</time></trkpt><trkpt lat="40.7644487" lon="14.8684067"><ele>455.2</ele><time>2026-04-12T10:50:31.967Z</time></trkpt><trkpt lat="40.7643497" lon="14.8683725"><ele>449.0</ele><time>2026-04-12T10:50:32.973Z</time></trkpt><trkpt lat="40.7642719" lon="14.8683244"><ele>448.4</ele><time>2026-04-12T10:50:33.968Z</time></trkpt><trkpt lat="40.7641993" lon="14.868287"><ele>447.79999999999995</ele><time>2026-04-12T10:50:34.971Z</time></trkpt><trkpt lat="40.7641105" lon="14.8682524"><ele>447.20000000000005</ele><time>2026-04-12T10:50:36.964Z</time></trkpt><trkpt lat="40.764071" lon="14.8681368"><ele>446.6</ele><time>2026-04-12T10:50:38.961Z</time></trkpt><trkpt lat="40.7639821" lon="14.8680519"><ele>446.0</ele><time>2026-04-12T10:50:40.964Z</time></trkpt><trkpt lat="40.7638748" lon="14.867925"><ele>445.99999999999994</ele><time>2026-04-12T10:50:42.961Z</time></trkpt><trkpt lat="40.7638275" lon="14.8678328"><ele>446.0</ele><time>2026-04-12T10:50:43.97Z</time></trkpt><trkpt lat="40.7637937" lon="14.867744"><ele>446.0</ele><time>2026-04-12T10:50:44.967Z</time></trkpt><trkpt lat="40.7637774" lon="14.8676582"><ele>446.0</ele><time>2026-04-12T10:50:45.969Z</time></trkpt><trkpt lat="40.7637692" lon="14.8675494"><ele>445.99999999999994</ele><time>2026-04-12T10:50:46.974Z</time></trkpt><trkpt lat="40.7637514" lon="14.8674329"><ele>446.0</ele><time>2026-04-12T10:50:47.97Z</time></trkpt><trkpt lat="40.7637203" lon="14.8673291"><ele>444.66666666666663</ele><time>2026-04-12T10:50:48.976Z</time></trkpt><trkpt lat="40.7636795" lon="14.8672349"><ele>443.3333333333333</ele><time>2026-04-12T10:50:49.973Z</time></trkpt><trkpt lat="40.7636379" lon="14.8671557"><ele>442.0</ele><time>2026-04-12T10:50:50.976Z</time></trkpt><trkpt lat="40.7635773" lon="14.8670869"><ele>440.66666666666663</ele><time>2026-04-12T10:50:51.972Z</time></trkpt><trkpt lat="40.7635032" lon="14.8670571"><ele>439.3333333333333</ele><time>2026-04-12T10:50:52.958Z</time></trkpt><trkpt lat="40.7634097" lon="14.8670361"><ele>438.0</ele><time>2026-04-12T10:50:53.97Z</time></trkpt><trkpt lat="40.7633119" lon="14.8670317"><ele>438.0</ele><time>2026-04-12T10:50:54.966Z</time></trkpt><trkpt lat="40.7631921" lon="14.8670278"><ele>437.99999999999994</ele><time>2026-04-12T10:50:55.981Z</time></trkpt><trkpt lat="40.7630675" lon="14.8670317"><ele>437.99999999999994</ele><time>2026-04-12T10:50:56.973Z</time></trkpt><trkpt lat="40.7629628" lon="14.8670248"><ele>438.0</ele><time>2026-04-12T10:50:57.958Z</time></trkpt><trkpt lat="40.7628694" lon="14.8670299"><ele>438.0</ele><time>2026-04-12T10:50:58.966Z</time></trkpt><trkpt lat="40.7627906" lon="14.8670219"><ele>433.2</ele><time>2026-04-12T10:50:59.964Z</time></trkpt><trkpt lat="40.7626573" lon="14.8670113"><ele>428.4</ele><time>2026-04-12T10:51:01.975Z</time></trkpt><trkpt lat="40.7625772" lon="14.8670415"><ele>423.59999999999997</ele><time>2026-04-12T10:51:02.977Z</time></trkpt><trkpt lat="40.7624936" lon="14.8671416"><ele>418.79999999999995</ele><time>2026-04-12T10:51:03.974Z</time></trkpt><trkpt lat="40.7624287" lon="14.8672153"><ele>414.0</ele><time>2026-04-12T10:51:04.963Z</time></trkpt><trkpt lat="40.7623371" lon="14.8672596"><ele>414.0</ele><time>2026-04-12T10:51:05.967Z</time></trkpt><trkpt lat="40.7622259" lon="14.8673238"><ele>414.0</ele><time>2026-04-12T10:51:06.963Z</time></trkpt><trkpt lat="40.7621414" lon="14.8673596"><ele>414.0</ele><time>2026-04-12T10:51:07.969Z</time></trkpt><trkpt lat="40.76203" lon="14.8673363"><ele>414.0</ele><time>2026-04-12T10:51:09.966Z</time></trkpt><trkpt lat="40.7619671" lon="14.8672778"><ele>414.0</ele><time>2026-04-12T10:51:11.968Z</time></trkpt><trkpt lat="40.7619044" lon="14.8673251"><ele>414.00000000000006</ele><time>2026-04-12T10:51:25.979Z</time></trkpt><trkpt lat="40.7618429" lon="14.8673066"><ele>414.0</ele><time>2026-04-12T10:52:50.962Z</time></trkpt><trkpt lat="40.761799" lon="14.8673755"><ele>414.0</ele><time>2026-04-12T10:53:43.944Z</time></trkpt><trkpt lat="40.7618712" lon="14.8674282"><ele>414.0</ele><time>2026-04-12T10:54:27.951Z</time></trkpt><trkpt lat="40.7619343" lon="14.8674009"><ele>414.0</ele><time>2026-04-12T10:54:29.972Z</time></trkpt><trkpt lat="40.7619417" lon="14.8673153"><ele>414.00000000000006</ele><time>2026-04-12T10:54:32.968Z</time></trkpt><trkpt lat="40.7619043" lon="14.8672464"><ele>414.0</ele><time>2026-04-12T10:54:33.964Z</time></trkpt><trkpt lat="40.7618699" lon="14.8671594"><ele>414.0</ele><time>2026-04-12T10:54:34.967Z</time></trkpt><trkpt lat="40.7618777" lon="14.8670097"><ele>414.0</ele><time>2026-04-12T10:54:36.96Z</time></trkpt><trkpt lat="40.7619046" lon="14.8669151"><ele>414.0</ele><time>2026-04-12T10:54:37.967Z</time></trkpt><trkpt lat="40.7619217" lon="14.8668263"><ele>414.0</ele><time>2026-04-12T10:54:38.967Z</time></trkpt><trkpt lat="40.7619309" lon="14.866733"><ele>414.0</ele><time>2026-04-12T10:54:39.965Z</time></trkpt><trkpt lat="40.7619394" lon="14.8666248"><ele>414.0</ele><time>2026-04-12T10:54:40.969Z</time></trkpt><trkpt lat="40.761935" lon="14.8664924"><ele>413.6</ele><time>2026-04-12T10:54:41.957Z</time></trkpt><trkpt lat="40.761923" lon="14.8663421"><ele>413.2</ele><time>2026-04-12T10:54:42.972Z</time></trkpt><trkpt lat="40.7619259" lon="14.8662544"><ele>412.8</ele><time>2026-04-12T10:54:43.968Z</time></trkpt><trkpt lat="40.7619507" lon="14.8661663"><ele>412.40000000000003</ele><time>2026-04-12T10:54:45.969Z</time></trkpt><trkpt lat="40.7620041" lon="14.8660306"><ele>412.0</ele><time>2026-04-12T10:54:47.978Z</time></trkpt><trkpt lat="40.7621034" lon="14.8659486"><ele>414.6</ele><time>2026-04-12T10:54:49.967Z</time></trkpt><trkpt lat="40.7621406" lon="14.8658734"><ele>417.20000000000005</ele><time>2026-04-12T10:54:50.969Z</time></trkpt><trkpt lat="40.7621825" lon="14.8657807"><ele>419.8</ele><time>2026-04-12T10:54:51.969Z</time></trkpt><trkpt lat="40.7622319" lon="14.8656686"><ele>422.4</ele><time>2026-04-12T10:54:52.957Z</time></trkpt><trkpt lat="40.7622751" lon="14.8655338"><ele>425.0</ele><time>2026-04-12T10:54:53.966Z</time></trkpt><trkpt lat="40.7623077" lon="14.865408"><ele>425.0</ele><time>2026-04-12T10:54:54.97Z</time></trkpt><trkpt lat="40.7623386" lon="14.8652904"><ele>425.0</ele><time>2026-04-12T10:54:55.971Z</time></trkpt><trkpt lat="40.7623909" lon="14.865179"><ele>425.0</ele><time>2026-04-12T10:54:56.972Z</time></trkpt><trkpt lat="40.7624402" lon="14.8650932"><ele>425.0</ele><time>2026-04-12T10:54:57.966Z</time></trkpt><trkpt lat="40.7624878" lon="14.8649341"><ele>425.0</ele><time>2026-04-12T10:54:59.966Z</time></trkpt><trkpt lat="40.7625094" lon="14.8648475"><ele>425.2</ele><time>2026-04-12T10:55:00.96Z</time></trkpt><trkpt lat="40.7625577" lon="14.8647517"><ele>425.4</ele><time>2026-04-12T10:55:01.969Z</time></trkpt><trkpt lat="40.7626125" lon="14.86464"><ele>425.6</ele><time>2026-04-12T10:55:02.966Z</time></trkpt><trkpt lat="40.7626756" lon="14.864513"><ele>425.8</ele><time>2026-04-12T10:55:03.967Z</time></trkpt><trkpt lat="40.7627215" lon="14.8643667"><ele>426.0</ele><time>2026-04-12T10:55:04.972Z</time></trkpt><trkpt lat="40.7627573" lon="14.864243"><ele>429.20000000000005</ele><time>2026-04-12T10:55:05.959Z</time></trkpt><trkpt lat="40.7627954" lon="14.8641352"><ele>432.40000000000003</ele><time>2026-04-12T10:55:06.967Z</time></trkpt><trkpt lat="40.7628459" lon="14.8640259"><ele>435.6</ele><time>2026-04-12T10:55:07.958Z</time></trkpt><trkpt lat="40.7629105" lon="14.8639201"><ele>438.8</ele><time>2026-04-12T10:55:08.968Z</time></trkpt><trkpt lat="40.7629599" lon="14.8638023"><ele>442.0</ele><time>2026-04-12T10:55:09.968Z</time></trkpt><trkpt lat="40.763028" lon="14.8636684"><ele>442.0</ele><time>2026-04-12T10:55:10.962Z</time></trkpt><trkpt lat="40.7630915" lon="14.8635397"><ele>442.00000000000006</ele><time>2026-04-12T10:55:11.96Z</time></trkpt><trkpt lat="40.7631269" lon="14.8634127"><ele>442.00000000000006</ele><time>2026-04-12T10:55:12.972Z</time></trkpt><trkpt lat="40.7631539" lon="14.8632904"><ele>442.0</ele><time>2026-04-12T10:55:13.967Z</time></trkpt><trkpt lat="40.7631771" lon="14.8631701"><ele>442.0</ele><time>2026-04-12T10:55:14.964Z</time></trkpt><trkpt lat="40.7631918" lon="14.863055"><ele>441.50000000000006</ele><time>2026-04-12T10:55:15.978Z</time></trkpt><trkpt lat="40.763207" lon="14.8629371"><ele>441.0</ele><time>2026-04-12T10:55:16.977Z</time></trkpt><trkpt lat="40.7632233" lon="14.8628402"><ele>440.5</ele><time>2026-04-12T10:55:17.973Z</time></trkpt><trkpt lat="40.7632336" lon="14.8627383"><ele>440.0</ele><time>2026-04-12T10:55:18.977Z</time></trkpt><trkpt lat="40.7632687" lon="14.8626567"><ele>439.50000000000006</ele><time>2026-04-12T10:55:19.965Z</time></trkpt><trkpt lat="40.763311" lon="14.8625723"><ele>439.0</ele><time>2026-04-12T10:55:20.969Z</time></trkpt><trkpt lat="40.7633577" lon="14.8625"><ele>439.00000000000006</ele><time>2026-04-12T10:55:21.971Z</time></trkpt><trkpt lat="40.7634058" lon="14.862425"><ele>439.0</ele><time>2026-04-12T10:55:22.972Z</time></trkpt><trkpt lat="40.76346" lon="14.8623627"><ele>439.0</ele><time>2026-04-12T10:55:23.969Z</time></trkpt><trkpt lat="40.7635524" lon="14.8622683"><ele>439.0</ele><time>2026-04-12T10:55:25.973Z</time></trkpt><trkpt lat="40.7634733" lon="14.862292"><ele>439.00000000000006</ele><time>2026-04-12T10:55:30.962Z</time></trkpt><trkpt lat="40.7634076" lon="14.8623454"><ele>439.0</ele><time>2026-04-12T10:55:32.963Z</time></trkpt><trkpt lat="40.7633511" lon="14.8624157"><ele>439.0</ele><time>2026-04-12T10:55:34.952Z</time></trkpt><trkpt lat="40.7633018" lon="14.8624895"><ele>439.0</ele><time>2026-04-12T10:55:36.963Z</time></trkpt><trkpt lat="40.7632451" lon="14.8625823"><ele>439.0</ele><time>2026-04-12T10:55:38.97Z</time></trkpt><trkpt lat="40.7632083" lon="14.8626863"><ele>439.0</ele><time>2026-04-12T10:55:40.977Z</time></trkpt><trkpt lat="40.7631668" lon="14.862811"><ele>439.0</ele><time>2026-04-12T10:55:42.977Z</time></trkpt><trkpt lat="40.7630966" lon="14.8629491"><ele>439.0</ele><time>2026-04-12T10:55:44.965Z</time></trkpt><trkpt lat="40.763056" lon="14.8630288"><ele>439.0</ele><time>2026-04-12T10:55:45.979Z</time></trkpt><trkpt lat="40.7630084" lon="14.8631008"><ele>439.0</ele><time>2026-04-12T10:55:46.978Z</time></trkpt><trkpt lat="40.7630176" lon="14.8633161"><ele>439.0</ele><time>2026-04-12T10:55:47.973Z</time></trkpt><trkpt lat="40.7630455" lon="14.8634579"><ele>439.0</ele><time>2026-04-12T10:55:49.968Z</time></trkpt><trkpt lat="40.7630767" lon="14.8635307"><ele>439.42857142857144</ele><time>2026-04-12T10:55:50.979Z</time></trkpt><trkpt lat="40.76312" lon="14.8636036"><ele>439.85714285714283</ele><time>2026-04-12T10:55:51.968Z</time></trkpt><trkpt lat="40.7631768" lon="14.8636717"><ele>440.28571428571433</ele><time>2026-04-12T10:55:52.973Z</time></trkpt><trkpt lat="40.7632187" lon="14.8637413"><ele>440.7142857142857</ele><time>2026-04-12T10:55:53.977Z</time></trkpt><trkpt lat="40.7632631" lon="14.8638218"><ele>441.14285714285717</ele><time>2026-04-12T10:55:54.982Z</time></trkpt><trkpt lat="40.7633258" lon="14.8638651"><ele>441.5714285714286</ele><time>2026-04-12T10:55:55.97Z</time></trkpt><trkpt lat="40.7633943" lon="14.8638872"><ele>442.0</ele><time>2026-04-12T10:55:56.972Z</time></trkpt><trkpt lat="40.7635065" lon="14.8639049"><ele>449.1666666666667</ele><time>2026-04-12T10:55:59.039Z</time></trkpt><trkpt lat="40.7635742" lon="14.8638765"><ele>456.33333333333337</ele><time>2026-04-12T10:56:00.978Z</time></trkpt><trkpt lat="40.7636219" lon="14.8638145"><ele>463.5</ele><time>2026-04-12T10:56:02.972Z</time></trkpt><trkpt lat="40.7636446" lon="14.8637219"><ele>470.66666666666663</ele><time>2026-04-12T10:56:04.977Z</time></trkpt><trkpt lat="40.7637185" lon="14.8636741"><ele>477.8333333333333</ele><time>2026-04-12T10:56:07.032Z</time></trkpt><trkpt lat="40.7637975" lon="14.8636836"><ele>485.0</ele><time>2026-04-12T10:56:08.966Z</time></trkpt><trkpt lat="40.7638636" lon="14.8637353"><ele>484.99999999999994</ele><time>2026-04-12T10:56:12.025Z</time></trkpt><trkpt lat="40.7639089" lon="14.8638089"><ele>485.0</ele><time>2026-04-12T10:56:13.943Z</time></trkpt><trkpt lat="40.7638664" lon="14.8637473"><ele>485.0</ele><time>2026-04-12T10:56:19.987Z</time></trkpt><trkpt lat="40.763875" lon="14.8636337"><ele>485.0</ele><time>2026-04-12T10:56:22.969Z</time></trkpt><trkpt lat="40.7639156" lon="14.8635255"><ele>484.99999999999994</ele><time>2026-04-12T10:56:25.983Z</time></trkpt><trkpt lat="40.7639648" lon="14.8634105"><ele>485.0</ele><time>2026-04-12T10:56:27.977Z</time></trkpt><trkpt lat="40.7640093" lon="14.8633407"><ele>485.0</ele><time>2026-04-12T10:56:28.985Z</time></trkpt><trkpt lat="40.7640839" lon="14.863227"><ele>485.0</ele><time>2026-04-12T10:56:30.966Z</time></trkpt><trkpt lat="40.76409" lon="14.8633515"><ele>485.0</ele><time>2026-04-12T10:56:38.103Z</time></trkpt><trkpt lat="40.7641498" lon="14.8635168"><ele>485.0</ele><time>2026-04-12T10:56:39.964Z</time></trkpt><trkpt lat="40.7642108" lon="14.8635818"><ele>485.0</ele><time>2026-04-12T10:56:40.974Z</time></trkpt><trkpt lat="40.7642589" lon="14.8636684"><ele>484.99999999999994</ele><time>2026-04-12T10:56:41.998Z</time></trkpt><trkpt lat="40.764305" lon="14.8637684"><ele>485.0</ele><time>2026-04-12T10:56:42.949Z</time></trkpt><trkpt lat="40.7643506" lon="14.8638555"><ele>485.0</ele><time>2026-04-12T10:56:43.975Z</time></trkpt><trkpt lat="40.7643743" lon="14.8639367"><ele>485.0</ele><time>2026-04-12T10:56:44.978Z</time></trkpt><trkpt lat="40.7643892" lon="14.8640377"><ele>484.99999999999994</ele><time>2026-04-12T10:56:45.953Z</time></trkpt><trkpt lat="40.7643938" lon="14.864169"><ele>485.0</ele><time>2026-04-12T10:56:47.027Z</time></trkpt><trkpt lat="40.7643627" lon="14.8642903"><ele>484.8333333333333</ele><time>2026-04-12T10:56:48.032Z</time></trkpt><trkpt lat="40.764329" lon="14.8643984"><ele>484.66666666666663</ele><time>2026-04-12T10:56:49.032Z</time></trkpt><trkpt lat="40.7643129" lon="14.8644904"><ele>484.5</ele><time>2026-04-12T10:56:49.973Z</time></trkpt><trkpt lat="40.76431" lon="14.8645947"><ele>484.33333333333337</ele><time>2026-04-12T10:56:51.965Z</time></trkpt><trkpt lat="40.7643791" lon="14.8645947"><ele>484.1666666666667</ele><time>2026-04-12T10:56:53.978Z</time></trkpt><trkpt lat="40.7644636" lon="14.8645472"><ele>484.0</ele><time>2026-04-12T10:56:55.979Z</time></trkpt><trkpt lat="40.7645784" lon="14.8644882"><ele>487.6</ele><time>2026-04-12T10:56:58.978Z</time></trkpt><trkpt lat="40.7646742" lon="14.8645094"><ele>491.2</ele><time>2026-04-12T10:57:01.979Z</time></trkpt><trkpt lat="40.7647731" lon="14.8645179"><ele>494.80000000000007</ele><time>2026-04-12T10:57:04.069Z</time></trkpt><trkpt lat="40.7648878" lon="14.8645306"><ele>498.40000000000003</ele><time>2026-04-12T10:57:05.972Z</time></trkpt><trkpt lat="40.764952" lon="14.8645387"><ele>502.0</ele><time>2026-04-12T10:57:06.987Z</time></trkpt><trkpt lat="40.7649899" lon="14.8646351"><ele>502.00000000000006</ele><time>2026-04-12T10:57:09.97Z</time></trkpt><trkpt lat="40.7649876" lon="14.8647455"><ele>502.0</ele><time>2026-04-12T10:57:11.972Z</time></trkpt><trkpt lat="40.7650282" lon="14.8648602"><ele>502.0</ele><time>2026-04-12T10:57:13.988Z</time></trkpt><trkpt lat="40.7650611" lon="14.8649394"><ele>502.0</ele><time>2026-04-12T10:57:15.963Z</time></trkpt><trkpt lat="40.7651127" lon="14.8650152"><ele>502.00000000000006</ele><time>2026-04-12T10:57:17.971Z</time></trkpt><trkpt lat="40.7652148" lon="14.8651083"><ele>502.0</ele><time>2026-04-12T10:57:19.973Z</time></trkpt><trkpt lat="40.7652823" lon="14.8651288"><ele>502.00000000000006</ele><time>2026-04-12T10:57:20.97Z</time></trkpt><trkpt lat="40.7653481" lon="14.8651459"><ele>502.0</ele><time>2026-04-12T10:57:21.969Z</time></trkpt><trkpt lat="40.7654157" lon="14.8651575"><ele>502.0</ele><time>2026-04-12T10:57:22.971Z</time></trkpt><trkpt lat="40.7655122" lon="14.8651623"><ele>502.0</ele><time>2026-04-12T10:57:24.967Z</time></trkpt><trkpt lat="40.7655809" lon="14.8652341"><ele>502.00000000000006</ele><time>2026-04-12T10:57:27.039Z</time></trkpt><trkpt lat="40.7656326" lon="14.8653774"><ele>502.0</ele><time>2026-04-12T10:57:28.971Z</time></trkpt><trkpt lat="40.7656258" lon="14.8654749"><ele>502.0</ele><time>2026-04-12T10:57:30.968Z</time></trkpt><trkpt lat="40.7656061" lon="14.8656146"><ele>502.00000000000006</ele><time>2026-04-12T10:57:33.974Z</time></trkpt><trkpt lat="40.7656292" lon="14.8657393"><ele>502.00000000000006</ele><time>2026-04-12T10:57:35.965Z</time></trkpt><trkpt lat="40.765674" lon="14.8658866"><ele>502.0</ele><time>2026-04-12T10:57:37.969Z</time></trkpt><trkpt lat="40.7657558" lon="14.8659721"><ele>502.0</ele><time>2026-04-12T10:57:39.967Z</time></trkpt><trkpt lat="40.7658387" lon="14.8659929"><ele>502.50000000000006</ele><time>2026-04-12T10:57:40.971Z</time></trkpt><trkpt lat="40.7659589" lon="14.8660448"><ele>503.0</ele><time>2026-04-12T10:57:42.978Z</time></trkpt><trkpt lat="40.7660221" lon="14.8660533"><ele>503.5</ele><time>2026-04-12T10:57:43.987Z</time></trkpt><trkpt lat="40.7661127" lon="14.8660641"><ele>504.0</ele><time>2026-04-12T10:57:44.956Z</time></trkpt><trkpt lat="40.7661779" lon="14.8660606"><ele>504.50000000000006</ele><time>2026-04-12T10:57:45.966Z</time></trkpt><trkpt lat="40.7662724" lon="14.8660441"><ele>505.0</ele><time>2026-04-12T10:57:47.978Z</time></trkpt><trkpt lat="40.7663442" lon="14.8660793"><ele>505.00000000000006</ele><time>2026-04-12T10:57:49.981Z</time></trkpt><trkpt lat="40.7664144" lon="14.8661291"><ele>505.0</ele><time>2026-04-12T10:57:51.976Z</time></trkpt><trkpt lat="40.7665052" lon="14.8661721"><ele>505.0</ele><time>2026-04-12T10:57:53.987Z</time></trkpt><trkpt lat="40.7665792" lon="14.8661809"><ele>505.0</ele><time>2026-04-12T10:57:55.971Z</time></trkpt><trkpt lat="40.7666499" lon="14.8662187"><ele>505.00000000000006</ele><time>2026-04-12T10:57:57.981Z</time></trkpt><trkpt lat="40.7667457" lon="14.8663054"><ele>505.0</ele><time>2026-04-12T10:57:59.975Z</time></trkpt><trkpt lat="40.7668003" lon="14.8663543"><ele>509.8</ele><time>2026-04-12T10:58:00.978Z</time></trkpt><trkpt lat="40.7668759" lon="14.8664051"><ele>514.6</ele><time>2026-04-12T10:58:01.969Z</time></trkpt><trkpt lat="40.7669439" lon="14.8664543"><ele>519.4</ele><time>2026-04-12T10:58:02.977Z</time></trkpt><trkpt lat="40.7670376" lon="14.8664929"><ele>524.2</ele><time>2026-04-12T10:58:04.976Z</time></trkpt><trkpt lat="40.7670467" lon="14.8666011"><ele>529.0</ele><time>2026-04-12T10:58:07.97Z</time></trkpt><trkpt lat="40.7669826" lon="14.866756"><ele>530.4</ele><time>2026-04-12T10:58:09.961Z</time></trkpt><trkpt lat="40.7669312" lon="14.8668555"><ele>531.8</ele><time>2026-04-12T10:58:10.97Z</time></trkpt><trkpt lat="40.7668477" lon="14.8669537"><ele>533.2</ele><time>2026-04-12T10:58:11.972Z</time></trkpt><trkpt lat="40.7667616" lon="14.8670319"><ele>534.6</ele><time>2026-04-12T10:58:12.971Z</time></trkpt><trkpt lat="40.7666996" lon="14.8671039"><ele>536.0</ele><time>2026-04-12T10:58:13.975Z</time></trkpt><trkpt lat="40.7666521" lon="14.8671897"><ele>531.0</ele><time>2026-04-12T10:58:14.979Z</time></trkpt><trkpt lat="40.7666212" lon="14.8672911"><ele>526.0</ele><time>2026-04-12T10:58:15.975Z</time></trkpt><trkpt lat="40.7666157" lon="14.8673795"><ele>521.0</ele><time>2026-04-12T10:58:16.968Z</time></trkpt><trkpt lat="40.7666501" lon="14.8674551"><ele>516.0</ele><time>2026-04-12T10:58:17.978Z</time></trkpt><trkpt lat="40.7667094" lon="14.8675379"><ele>510.99999999999994</ele><time>2026-04-12T10:58:18.967Z</time></trkpt><trkpt lat="40.7667751" lon="14.8676235"><ele>506.0</ele><time>2026-04-12T10:58:19.972Z</time></trkpt><trkpt lat="40.7668245" lon="14.8676965"><ele>508.20000000000005</ele><time>2026-04-12T10:58:20.976Z</time></trkpt><trkpt lat="40.7668872" lon="14.867835"><ele>510.40000000000003</ele><time>2026-04-12T10:58:22.978Z</time></trkpt><trkpt lat="40.7669332" lon="14.8679225"><ele>512.6</ele><time>2026-04-12T10:58:23.972Z</time></trkpt><trkpt lat="40.7669661" lon="14.8680131"><ele>514.8000000000001</ele><time>2026-04-12T10:58:24.973Z</time></trkpt><trkpt lat="40.7670153" lon="14.8681188"><ele>517.0</ele><time>2026-04-12T10:58:25.967Z</time></trkpt><trkpt lat="40.7670769" lon="14.8682105"><ele>517.0</ele><time>2026-04-12T10:58:26.974Z</time></trkpt><trkpt lat="40.767159" lon="14.8682938"><ele>517.0</ele><time>2026-04-12T10:58:27.965Z</time></trkpt><trkpt lat="40.7672682" lon="14.8684047"><ele>517.0</ele><time>2026-04-12T10:58:28.95Z</time></trkpt><trkpt lat="40.7673697" lon="14.8685053"><ele>517.0</ele><time>2026-04-12T10:58:29.97Z</time></trkpt><trkpt lat="40.7674465" lon="14.8685952"><ele>516.6</ele><time>2026-04-12T10:58:30.969Z</time></trkpt><trkpt lat="40.7675275" lon="14.8686725"><ele>516.2</ele><time>2026-04-12T10:58:31.974Z</time></trkpt><trkpt lat="40.7676198" lon="14.8687122"><ele>515.8</ele><time>2026-04-12T10:58:32.97Z</time></trkpt><trkpt lat="40.7677308" lon="14.8687358"><ele>515.4</ele><time>2026-04-12T10:58:33.963Z</time></trkpt><trkpt lat="40.7678214" lon="14.8687641"><ele>515.0</ele><time>2026-04-12T10:58:34.972Z</time></trkpt><trkpt lat="40.7679149" lon="14.8687999"><ele>515.0</ele><time>2026-04-12T10:58:35.97Z</time></trkpt><trkpt lat="40.7679998" lon="14.8688106"><ele>515.0</ele><time>2026-04-12T10:58:36.978Z</time></trkpt><trkpt lat="40.7680647" lon="14.8688154"><ele>515.0</ele><time>2026-04-12T10:58:37.965Z</time></trkpt><trkpt lat="40.7680496" lon="14.8689492"><ele>515.0</ele><time>2026-04-12T10:58:43.966Z</time></trkpt><trkpt lat="40.7680294" lon="14.86909"><ele>515.0</ele><time>2026-04-12T10:58:45.963Z</time></trkpt><trkpt lat="40.7680861" lon="14.869205"><ele>511.0</ele><time>2026-04-12T10:58:47.97Z</time></trkpt><trkpt lat="40.7681403" lon="14.869286"><ele>507.0</ele><time>2026-04-12T10:58:48.97Z</time></trkpt><trkpt lat="40.7667094" lon="14.8675379"><ele>508.6666666666667</ele><time>2026-04-12T10:58:18.967Z</time></trkpt><trkpt lat="40.7667751" lon="14.8676235"><ele>510.33333333333337</ele><time>2026-04-12T10:58:19.972Z</time></trkpt><trkpt lat="40.7668245" lon="14.8676965"><ele>512.0</ele><time>2026-04-12T10:58:20.976Z</time></trkpt><trkpt lat="40.7668872" lon="14.867835"><ele>513.6666666666667</ele><time>2026-04-12T10:58:22.978Z</time></trkpt><trkpt lat="40.7669332" lon="14.8679225"><ele>515.3333333333334</ele><time>2026-04-12T10:58:23.972Z</time></trkpt><trkpt lat="40.7669661" lon="14.8680131"><ele>517.0</ele><time>2026-04-12T10:58:24.973Z</time></trkpt><trkpt lat="40.7670153" lon="14.8681188"><ele>517.0</ele><time>2026-04-12T10:58:25.967Z</time></trkpt><trkpt lat="40.7670769" lon="14.8682105"><ele>517.0</ele><time>2026-04-12T10:58:26.974Z</time></trkpt><trkpt lat="40.767159" lon="14.8682938"><ele>517.0</ele><time>2026-04-12T10:58:27.965Z</time></trkpt><trkpt lat="40.7672682" lon="14.8684047"><ele>517.0</ele><time>2026-04-12T10:58:28.95Z</time></trkpt><trkpt lat="40.7673697" lon="14.8685053"><ele>516.6</ele><time>2026-04-12T10:58:29.97Z</time></trkpt><trkpt lat="40.7674465" lon="14.8685952"><ele>516.2</ele><time>2026-04-12T10:58:30.969Z</time></trkpt><trkpt lat="40.7675275" lon="14.8686725"><ele>515.8</ele><time>2026-04-12T10:58:31.974Z</time></trkpt><trkpt lat="40.7676198" lon="14.8687122"><ele>515.4</ele><time>2026-04-12T10:58:32.97Z</time></trkpt><trkpt lat="40.7677308" lon="14.8687358"><ele>515.0</ele><time>2026-04-12T10:58:33.963Z</time></trkpt><trkpt lat="40.7678214" lon="14.8687641"><ele>515.0</ele><time>2026-04-12T10:58:34.972Z</time></trkpt><trkpt lat="40.7679149" lon="14.8687999"><ele>515.0</ele><time>2026-04-12T10:58:35.97Z</time></trkpt><trkpt lat="40.7679998" lon="14.8688106"><ele>515.0</ele><time>2026-04-12T10:58:36.978Z</time></trkpt><trkpt lat="40.7680647" lon="14.8688154"><ele>515.0</ele><time>2026-04-12T10:58:37.965Z</time></trkpt><trkpt lat="40.7680496" lon="14.8689492"><ele>515.0</ele><time>2026-04-12T10:58:43.966Z</time></trkpt><trkpt lat="40.7680294" lon="14.86909"><ele>515.0</ele><time>2026-04-12T10:58:45.963Z</time></trkpt><trkpt lat="40.7680861" lon="14.869205"><ele>515.0</ele><time>2026-04-12T10:58:47.97Z</time></trkpt><trkpt lat="40.7681403" lon="14.869286"><ele>515.0</ele><time>2026-04-12T10:58:48.97Z</time></trkpt><trkpt lat="40.7681971" lon="14.8693707"><ele>515.0</ele><time>2026-04-12T10:58:49.964Z</time></trkpt><trkpt lat="40.7682759" lon="14.8694671"><ele>515.0</ele><time>2026-04-12T10:58:50.97Z</time></trkpt><trkpt lat="40.7683495" lon="14.86958"><ele>513.4</ele><time>2026-04-12T10:58:51.967Z</time></trkpt><trkpt lat="40.7684038" lon="14.8696925"><ele>511.8</ele><time>2026-04-12T10:58:52.971Z</time></trkpt><trkpt lat="40.7684458" lon="14.8698074"><ele>510.20000000000005</ele><time>2026-04-12T10:58:53.966Z</time></trkpt><trkpt lat="40.7684891" lon="14.8699433"><ele>508.6</ele><time>2026-04-12T10:58:54.967Z</time></trkpt><trkpt lat="40.7685388" lon="14.8700595"><ele>507.0</ele><time>2026-04-12T10:58:55.963Z</time></trkpt><trkpt lat="40.7685829" lon="14.8701814"><ele>512.0</ele><time>2026-04-12T10:58:56.965Z</time></trkpt><trkpt lat="40.7686099" lon="14.8703094"><ele>517.0</ele><time>2026-04-12T10:58:57.971Z</time></trkpt><trkpt lat="40.7686379" lon="14.8704151"><ele>522.0</ele><time>2026-04-12T10:58:58.966Z</time></trkpt><trkpt lat="40.7686664" lon="14.8705125"><ele>527.0</ele><time>2026-04-12T10:58:59.973Z</time></trkpt><trkpt lat="40.7687009" lon="14.8706231"><ele>532.0</ele><time>2026-04-12T10:59:00.963Z</time></trkpt><trkpt lat="40.7687256" lon="14.8707435"><ele>532.0</ele><time>2026-04-12T10:59:01.966Z</time></trkpt><trkpt lat="40.7687496" lon="14.870861"><ele>532.0</ele><time>2026-04-12T10:59:02.969Z</time></trkpt><trkpt lat="40.76875" lon="14.8709823"><ele>532.0</ele><time>2026-04-12T10:59:04.965Z</time></trkpt><trkpt lat="40.7686713" lon="14.8709902"><ele>532.0</ele><time>2026-04-12T10:59:07.964Z</time></trkpt><trkpt lat="40.7686003" lon="14.8709602"><ele>532.0</ele><time>2026-04-12T10:59:08.957Z</time></trkpt><trkpt lat="40.7685445" lon="14.8709217"><ele>532.0</ele><time>2026-04-12T10:59:09.964Z</time></trkpt><trkpt lat="40.7684709" lon="14.8708518"><ele>529.1666666666667</ele><time>2026-04-12T10:59:10.968Z</time></trkpt><trkpt lat="40.7684083" lon="14.8707834"><ele>526.3333333333334</ele><time>2026-04-12T10:59:11.962Z</time></trkpt><trkpt lat="40.7683406" lon="14.8707503"><ele>523.5</ele><time>2026-04-12T10:59:12.968Z</time></trkpt><trkpt lat="40.7682616" lon="14.8707379"><ele>520.6666666666666</ele><time>2026-04-12T10:59:13.97Z</time></trkpt><trkpt lat="40.7681933" lon="14.8707267"><ele>517.8333333333333</ele><time>2026-04-12T10:59:14.967Z</time></trkpt><trkpt lat="40.7681328" lon="14.8706972"><ele>515.0</ele><time>2026-04-12T10:59:15.97Z</time></trkpt><trkpt lat="40.7680675" lon="14.8706217"><ele>515.0</ele><time>2026-04-12T10:59:17.966Z</time></trkpt><trkpt lat="40.7680161" lon="14.8705476"><ele>515.0</ele><time>2026-04-12T10:59:19.966Z</time></trkpt><trkpt lat="40.767948" lon="14.8704804"><ele>515.0</ele><time>2026-04-12T10:59:21.961Z</time></trkpt><trkpt lat="40.7678729" lon="14.8704338"><ele>515.0</ele><time>2026-04-12T10:59:24.962Z</time></trkpt><trkpt lat="40.7677998" lon="14.8703998"><ele>515.0</ele><time>2026-04-12T10:59:27.967Z</time></trkpt><trkpt lat="40.7677341" lon="14.8703771"><ele>515.0</ele><time>2026-04-12T10:59:29.975Z</time></trkpt><trkpt lat="40.7676207" lon="14.8703348"><ele>514.6</ele><time>2026-04-12T10:59:31.962Z</time></trkpt><trkpt lat="40.7675191" lon="14.8703055"><ele>514.2</ele><time>2026-04-12T10:59:32.968Z</time></trkpt><trkpt lat="40.7674237" lon="14.8702695"><ele>513.8</ele><time>2026-04-12T10:59:33.963Z</time></trkpt><trkpt lat="40.7673414" lon="14.8702555"><ele>513.4</ele><time>2026-04-12T10:59:34.973Z</time></trkpt><trkpt lat="40.7672585" lon="14.8702554"><ele>513.0</ele><time>2026-04-12T10:59:35.97Z</time></trkpt><trkpt lat="40.7671783" lon="14.870269"><ele>513.0</ele><time>2026-04-12T10:59:36.971Z</time></trkpt><trkpt lat="40.7671033" lon="14.8702752"><ele>513.0</ele><time>2026-04-12T10:59:37.97Z</time></trkpt><trkpt lat="40.7670368" lon="14.870302"><ele>513.0</ele><time>2026-04-12T10:59:38.975Z</time></trkpt><trkpt lat="40.7669588" lon="14.8701969"><ele>513.0</ele><time>2026-04-12T10:59:40.966Z</time></trkpt><trkpt lat="40.7668773" lon="14.8700496"><ele>513.0</ele><time>2026-04-12T10:59:42.969Z</time></trkpt><trkpt lat="40.7668291" lon="14.8699922"><ele>508.1666666666667</ele><time>2026-04-12T10:59:43.968Z</time></trkpt><trkpt lat="40.7667752" lon="14.8699322"><ele>503.33333333333337</ele><time>2026-04-12T10:59:44.959Z</time></trkpt><trkpt lat="40.7667166" lon="14.8698615"><ele>498.5</ele><time>2026-04-12T10:59:45.961Z</time></trkpt><trkpt lat="40.7666452" lon="14.8697874"><ele>493.6666666666667</ele><time>2026-04-12T10:59:46.957Z</time></trkpt><trkpt lat="40.7665607" lon="14.8697114"><ele>488.83333333333337</ele><time>2026-04-12T10:59:47.968Z</time></trkpt><trkpt lat="40.7664685" lon="14.8696415"><ele>484.0</ele><time>2026-04-12T10:59:48.966Z</time></trkpt><trkpt lat="40.7663707" lon="14.8695672"><ele>484.0</ele><time>2026-04-12T10:59:49.963Z</time></trkpt><trkpt lat="40.7662758" lon="14.8695082"><ele>484.0</ele><time>2026-04-12T10:59:50.967Z</time></trkpt><trkpt lat="40.7661759" lon="14.8694556"><ele>484.0</ele><time>2026-04-12T10:59:51.97Z</time></trkpt><trkpt lat="40.7660846" lon="14.8693986"><ele>484.0</ele><time>2026-04-12T10:59:52.969Z</time></trkpt><trkpt lat="40.7660021" lon="14.8693242"><ele>484.0</ele><time>2026-04-12T10:59:53.966Z</time></trkpt><trkpt lat="40.7659306" lon="14.8692444"><ele>480.79999999999995</ele><time>2026-04-12T10:59:54.97Z</time></trkpt><trkpt lat="40.765863" lon="14.8691604"><ele>477.59999999999997</ele><time>2026-04-12T10:59:55.967Z</time></trkpt><trkpt lat="40.7658122" lon="14.8691007"><ele>474.4</ele><time>2026-04-12T10:59:56.966Z</time></trkpt><trkpt lat="40.765697" lon="14.8690334"><ele>471.2</ele><time>2026-04-12T10:59:58.962Z</time></trkpt><trkpt lat="40.7656117" lon="14.8689866"><ele>468.0</ele><time>2026-04-12T10:59:59.962Z</time></trkpt><trkpt lat="40.765531" lon="14.8689269"><ele>468.0</ele><time>2026-04-12T11:00:00.966Z</time></trkpt><trkpt lat="40.765461" lon="14.8688657"><ele>468.0</ele><time>2026-04-12T11:00:01.968Z</time></trkpt><trkpt lat="40.7654017" lon="14.8688257"><ele>468.0</ele><time>2026-04-12T11:00:02.961Z</time></trkpt><trkpt lat="40.7653421" lon="14.8687935"><ele>468.0</ele><time>2026-04-12T11:00:03.96Z</time></trkpt><trkpt lat="40.7652623" lon="14.8687581"><ele>468.0</ele><time>2026-04-12T11:00:04.964Z</time></trkpt><trkpt lat="40.7651604" lon="14.8687138"><ele>468.0</ele><time>2026-04-12T11:00:05.963Z</time></trkpt><trkpt lat="40.7650508" lon="14.8686729"><ele>470.4</ele><time>2026-04-12T11:00:06.969Z</time></trkpt><trkpt lat="40.7649304" lon="14.8686255"><ele>472.79999999999995</ele><time>2026-04-12T11:00:07.963Z</time></trkpt><trkpt lat="40.7648259" lon="14.8685757"><ele>475.2</ele><time>2026-04-12T11:00:08.972Z</time></trkpt><trkpt lat="40.7647567" lon="14.8685168"><ele>477.6</ele><time>2026-04-12T11:00:09.968Z</time></trkpt><trkpt lat="40.764684" lon="14.8685045"><ele>480.0</ele><time>2026-04-12T11:00:10.974Z</time></trkpt><trkpt lat="40.7645851" lon="14.868499"><ele>480.0</ele><time>2026-04-12T11:00:11.966Z</time></trkpt><trkpt lat="40.7644696" lon="14.8684796"><ele>480.0</ele><time>2026-04-12T11:00:12.967Z</time></trkpt><trkpt lat="40.7643795" lon="14.8684782"><ele>480.0</ele><time>2026-04-12T11:00:13.97Z</time></trkpt><trkpt lat="40.7642902" lon="14.8684593"><ele>480.0</ele><time>2026-04-12T11:00:14.962Z</time></trkpt><trkpt lat="40.764186" lon="14.8684126"><ele>480.0</ele><time>2026-04-12T11:00:15.972Z</time></trkpt><trkpt lat="40.7641052" lon="14.8683494"><ele>473.2</ele><time>2026-04-12T11:00:16.957Z</time></trkpt><trkpt lat="40.764045" lon="14.8682964"><ele>466.4</ele><time>2026-04-12T11:00:17.965Z</time></trkpt><trkpt lat="40.7639672" lon="14.868184"><ele>459.6</ele><time>2026-04-12T11:00:19.939Z</time></trkpt><trkpt lat="40.7639466" lon="14.8680576"><ele>452.8</ele><time>2026-04-12T11:00:21.954Z</time></trkpt><trkpt lat="40.7639195" lon="14.8679535"><ele>446.0</ele><time>2026-04-12T11:00:23.941Z</time></trkpt><trkpt lat="40.7638955" lon="14.8677759"><ele>445.99999999999994</ele><time>2026-04-12T11:00:25.95Z</time></trkpt><trkpt lat="40.7638782" lon="14.8676499"><ele>446.0</ele><time>2026-04-12T11:00:26.984Z</time></trkpt><trkpt lat="40.7638781" lon="14.8675303"><ele>446.0</ele><time>2026-04-12T11:00:27.941Z</time></trkpt><trkpt lat="40.7638625" lon="14.8674134"><ele>446.0</ele><time>2026-04-12T11:00:28.958Z</time></trkpt><trkpt lat="40.7638426" lon="14.8673104"><ele>445.99999999999994</ele><time>2026-04-12T11:00:29.941Z</time></trkpt><trkpt lat="40.7638066" lon="14.8672248"><ele>446.0</ele><time>2026-04-12T11:00:30.941Z</time></trkpt><trkpt lat="40.7637642" lon="14.8671438"><ele>444.4</ele><time>2026-04-12T11:00:31.96Z</time></trkpt><trkpt lat="40.7637133" lon="14.8670623"><ele>442.8</ele><time>2026-04-12T11:00:32.962Z</time></trkpt><trkpt lat="40.7636435" lon="14.8670054"><ele>441.19999999999993</ele><time>2026-04-12T11:00:33.966Z</time></trkpt><trkpt lat="40.7635536" lon="14.8669711"><ele>439.59999999999997</ele><time>2026-04-12T11:00:34.964Z</time></trkpt><trkpt lat="40.7634465" lon="14.8669662"><ele>438.0</ele><time>2026-04-12T11:00:35.962Z</time></trkpt><trkpt lat="40.7633227" lon="14.8669589"><ele>438.0</ele><time>2026-04-12T11:00:36.959Z</time></trkpt><trkpt lat="40.7631958" lon="14.8669674"><ele>438.0</ele><time>2026-04-12T11:00:37.968Z</time></trkpt><trkpt lat="40.7630685" lon="14.8669719"><ele>438.0</ele><time>2026-04-12T11:00:38.966Z</time></trkpt><trkpt lat="40.7629484" lon="14.8669983"><ele>438.0</ele><time>2026-04-12T11:00:39.957Z</time></trkpt><trkpt lat="40.7628381" lon="14.8670239"><ele>438.0</ele><time>2026-04-12T11:00:40.957Z</time></trkpt><trkpt lat="40.7627287" lon="14.8670355"><ele>437.99999999999994</ele><time>2026-04-12T11:00:41.961Z</time></trkpt><trkpt lat="40.7626513" lon="14.8670394"><ele>437.99999999999994</ele><time>2026-04-12T11:00:42.976Z</time></trkpt><trkpt lat="40.762586" lon="14.8670398"><ele>438.0</ele><time>2026-04-12T11:00:43.96Z</time></trkpt><trkpt lat="40.7624825" lon="14.8671469"><ele>438.0</ele><time>2026-04-12T11:00:45.98Z</time></trkpt><trkpt lat="40.7624143" lon="14.8672507"><ele>433.2</ele><time>2026-04-12T11:00:46.958Z</time></trkpt><trkpt lat="40.7623483" lon="14.8673154"><ele>428.4</ele><time>2026-04-12T11:00:47.973Z</time></trkpt><trkpt lat="40.7622679" lon="14.8673512"><ele>423.59999999999997</ele><time>2026-04-12T11:00:48.954Z</time></trkpt><trkpt lat="40.7621728" lon="14.867384"><ele>418.79999999999995</ele><time>2026-04-12T11:00:49.957Z</time></trkpt><trkpt lat="40.7620913" lon="14.8674111"><ele>414.0</ele><time>2026-04-12T11:00:50.962Z</time></trkpt><trkpt lat="40.7619736" lon="14.867407"><ele>414.00000000000006</ele><time>2026-04-12T11:00:52.984Z</time></trkpt><trkpt lat="40.7619083" lon="14.8673797"><ele>414.0</ele><time>2026-04-12T11:00:53.961Z</time></trkpt><trkpt lat="40.7618505" lon="14.8673462"><ele>414.0</ele><time>2026-04-12T11:00:54.967Z</time></trkpt><trkpt lat="40.7617897" lon="14.8673146"><ele>414.0</ele><time>2026-04-12T11:01:10.978Z</time></trkpt><trkpt lat="40.7617322" lon="14.8672289"><ele>414.0</ele><time>2026-04-12T11:01:13.954Z</time></trkpt><trkpt lat="40.7617348" lon="14.867335"><ele>414.00000000000006</ele><time>2026-04-12T11:01:43.939Z</time></trkpt><trkpt lat="40.7617377" lon="14.867421"><ele>414.0</ele><time>2026-04-12T11:02:13.966Z</time></trkpt><trkpt lat="40.7618041" lon="14.8674078"><ele>410.8333333333333</ele><time>2026-04-12T11:02:46.948Z</time></trkpt><trkpt lat="40.7617119" lon="14.8674225"><ele>407.66666666666663</ele><time>2026-04-12T11:03:22.949Z</time></trkpt><trkpt lat="40.7616092" lon="14.86752"><ele>404.5</ele><time>2026-04-12T11:03:24.957Z</time></trkpt><trkpt lat="40.7615648" lon="14.8676086"><ele>401.3333333333333</ele><time>2026-04-12T11:03:25.973Z</time></trkpt><trkpt lat="40.761541" lon="14.8677011"><ele>398.16666666666663</ele><time>2026-04-12T11:03:26.969Z</time></trkpt><trkpt lat="40.7615284" lon="14.8677989"><ele>395.0</ele><time>2026-04-12T11:03:27.963Z</time></trkpt><trkpt lat="40.7615272" lon="14.8678935"><ele>394.99999999999994</ele><time>2026-04-12T11:03:28.968Z</time></trkpt><trkpt lat="40.7615239" lon="14.8679873"><ele>395.0</ele><time>2026-04-12T11:03:29.972Z</time></trkpt><trkpt lat="40.7614739" lon="14.8681496"><ele>395.0</ele><time>2026-04-12T11:03:31.968Z</time></trkpt><trkpt lat="40.7614197" lon="14.8682151"><ele>395.0</ele><time>2026-04-12T11:03:32.962Z</time></trkpt><trkpt lat="40.7613621" lon="14.8682819"><ele>394.99999999999994</ele><time>2026-04-12T11:03:33.967Z</time></trkpt><trkpt lat="40.7613175" lon="14.8683598"><ele>395.0</ele><time>2026-04-12T11:03:34.967Z</time></trkpt><trkpt lat="40.7612906" lon="14.8684424"><ele>394.49999999999994</ele><time>2026-04-12T11:03:35.969Z</time></trkpt><trkpt lat="40.7612572" lon="14.8685359"><ele>394.0</ele><time>2026-04-12T11:03:36.968Z</time></trkpt><trkpt lat="40.7612338" lon="14.868644"><ele>393.5</ele><time>2026-04-12T11:03:37.967Z</time></trkpt><trkpt lat="40.7612245" lon="14.8687632"><ele>393.0</ele><time>2026-04-12T11:03:38.953Z</time></trkpt><trkpt lat="40.7612253" lon="14.8688548"><ele>392.49999999999994</ele><time>2026-04-12T11:03:39.951Z</time></trkpt><trkpt lat="40.761235" lon="14.869002"><ele>392.0</ele><time>2026-04-12T11:03:41.964Z</time></trkpt><trkpt lat="40.7612755" lon="14.8691496"><ele>391.99999999999994</ele><time>2026-04-12T11:03:43.976Z</time></trkpt><trkpt lat="40.7612934" lon="14.869251"><ele>392.0</ele><time>2026-04-12T11:03:45.976Z</time></trkpt><trkpt lat="40.7612816" lon="14.8693713"><ele>392.0</ele><time>2026-04-12T11:03:47.975Z</time></trkpt><trkpt lat="40.7612396" lon="14.8694532"><ele>392.0</ele><time>2026-04-12T11:03:48.966Z</time></trkpt><trkpt lat="40.7612059" lon="14.8695416"><ele>391.99999999999994</ele><time>2026-04-12T11:03:49.96Z</time></trkpt><trkpt lat="40.7611649" lon="14.8696075"><ele>392.0</ele><time>2026-04-12T11:03:50.966Z</time></trkpt><trkpt lat="40.7611453" lon="14.8697484"><ele>390.3333333333333</ele><time>2026-04-12T11:03:52.961Z</time></trkpt><trkpt lat="40.7611614" lon="14.8698656"><ele>388.66666666666663</ele><time>2026-04-12T11:03:54.944Z</time></trkpt><trkpt lat="40.7611213" lon="14.8699921"><ele>387.0</ele><time>2026-04-12T11:03:56.958Z</time></trkpt><trkpt lat="40.7610648" lon="14.8701025"><ele>385.3333333333333</ele><time>2026-04-12T11:03:58.942Z</time></trkpt><trkpt lat="40.7610299" lon="14.870176"><ele>383.66666666666663</ele><time>2026-04-12T11:04:00.943Z</time></trkpt><trkpt lat="40.7609772" lon="14.870248"><ele>382.0</ele><time>2026-04-12T11:04:02.96Z</time></trkpt><trkpt lat="40.7608854" lon="14.8703178"><ele>382.0</ele><time>2026-04-12T11:04:04.96Z</time></trkpt><trkpt lat="40.7608094" lon="14.8703485"><ele>382.0</ele><time>2026-04-12T11:04:05.961Z</time></trkpt><trkpt lat="40.7607209" lon="14.870375"><ele>382.0</ele><time>2026-04-12T11:04:06.944Z</time></trkpt><trkpt lat="40.7606274" lon="14.8704061"><ele>382.0</ele><time>2026-04-12T11:04:07.943Z</time></trkpt><trkpt lat="40.7605351" lon="14.8704391"><ele>382.0</ele><time>2026-04-12T11:04:08.944Z</time></trkpt><trkpt lat="40.7604433" lon="14.870464"><ele>382.0</ele><time>2026-04-12T11:04:09.97Z</time></trkpt><trkpt lat="40.7603556" lon="14.870513"><ele>382.0</ele><time>2026-04-12T11:04:10.963Z</time></trkpt><trkpt lat="40.7602745" lon="14.8705784"><ele>382.0</ele><time>2026-04-12T11:04:11.969Z</time></trkpt><trkpt lat="40.7601899" lon="14.8706337"><ele>382.0</ele><time>2026-04-12T11:04:12.947Z</time></trkpt><trkpt lat="40.7601162" lon="14.8706811"><ele>382.0</ele><time>2026-04-12T11:04:13.961Z</time></trkpt><trkpt lat="40.7600471" lon="14.8707247"><ele>382.0</ele><time>2026-04-12T11:04:14.96Z</time></trkpt><trkpt lat="40.7599669" lon="14.8707512"><ele>380.40000000000003</ele><time>2026-04-12T11:04:15.956Z</time></trkpt><trkpt lat="40.7598622" lon="14.8707518"><ele>378.8</ele><time>2026-04-12T11:04:16.941Z</time></trkpt><trkpt lat="40.7597462" lon="14.8707383"><ele>377.2</ele><time>2026-04-12T11:04:17.962Z</time></trkpt><trkpt lat="40.7596614" lon="14.8707343"><ele>375.6</ele><time>2026-04-12T11:04:18.954Z</time></trkpt><trkpt lat="40.7595827" lon="14.8707331"><ele>374.0</ele><time>2026-04-12T11:04:19.961Z</time></trkpt><trkpt lat="40.7595225" lon="14.8707672"><ele>374.0</ele><time>2026-04-12T11:04:20.949Z</time></trkpt><trkpt lat="40.7594464" lon="14.8708214"><ele>374.0</ele><time>2026-04-12T11:04:21.949Z</time></trkpt><trkpt lat="40.7593417" lon="14.8708947"><ele>374.0</ele><time>2026-04-12T11:04:22.949Z</time></trkpt><trkpt lat="40.7592371" lon="14.8709395"><ele>374.0</ele><time>2026-04-12T11:04:23.947Z</time></trkpt><trkpt lat="40.7591341" lon="14.8709789"><ele>374.0</ele><time>2026-04-12T11:04:24.955Z</time></trkpt><trkpt lat="40.7590326" lon="14.8709895"><ele>373.4</ele><time>2026-04-12T11:04:25.956Z</time></trkpt><trkpt lat="40.7589348" lon="14.8710196"><ele>372.79999999999995</ele><time>2026-04-12T11:04:26.965Z</time></trkpt><trkpt lat="40.7588292" lon="14.8710798"><ele>372.20000000000005</ele><time>2026-04-12T11:04:27.968Z</time></trkpt><trkpt lat="40.7587301" lon="14.8711343"><ele>371.6</ele><time>2026-04-12T11:04:28.956Z</time></trkpt><trkpt lat="40.7586231" lon="14.871154"><ele>371.0</ele><time>2026-04-12T11:04:29.965Z</time></trkpt><trkpt lat="40.7585209" lon="14.8711838"><ele>371.0</ele><time>2026-04-12T11:04:30.976Z</time></trkpt><trkpt lat="40.7584226" lon="14.8712377"><ele>371.0</ele><time>2026-04-12T11:04:31.969Z</time></trkpt><trkpt lat="40.7583212" lon="14.8713044"><ele>371.0</ele><time>2026-04-12T11:04:32.976Z</time></trkpt><trkpt lat="40.7582153" lon="14.8713814"><ele>371.0</ele><time>2026-04-12T11:04:33.963Z</time></trkpt><trkpt lat="40.7581074" lon="14.8714585"><ele>371.0</ele><time>2026-04-12T11:04:34.969Z</time></trkpt><trkpt lat="40.7580023" lon="14.8715283"><ele>371.0</ele><time>2026-04-12T11:04:35.973Z</time></trkpt><trkpt lat="40.7578936" lon="14.8715717"><ele>371.0</ele><time>2026-04-12T11:04:36.965Z</time></trkpt><trkpt lat="40.7577984" lon="14.8716151"><ele>371.0</ele><time>2026-04-12T11:04:37.966Z</time></trkpt><trkpt lat="40.7576955" lon="14.8716381"><ele>371.0</ele><time>2026-04-12T11:04:38.966Z</time></trkpt><trkpt lat="40.7575815" lon="14.8716496"><ele>370.20000000000005</ele><time>2026-04-12T11:04:39.969Z</time></trkpt><trkpt lat="40.7574768" lon="14.8716495"><ele>369.40000000000003</ele><time>2026-04-12T11:04:40.97Z</time></trkpt><trkpt lat="40.7573643" lon="14.8716443"><ele>368.6</ele><time>2026-04-12T11:04:41.972Z</time></trkpt><trkpt lat="40.7572568" lon="14.8716276"><ele>367.8</ele><time>2026-04-12T11:04:42.97Z</time></trkpt><trkpt lat="40.757135" lon="14.8716205"><ele>367.0</ele><time>2026-04-12T11:04:43.966Z</time></trkpt><trkpt lat="40.7570292" lon="14.8715909"><ele>367.0</ele><time>2026-04-12T11:04:44.965Z</time></trkpt><trkpt lat="40.7569279" lon="14.8715676"><ele>367.0</ele><time>2026-04-12T11:04:45.962Z</time></trkpt><trkpt lat="40.7568297" lon="14.8715283"><ele>367.0</ele><time>2026-04-12T11:04:46.973Z</time></trkpt><trkpt lat="40.7567339" lon="14.8714823"><ele>367.0</ele><time>2026-04-12T11:04:47.964Z</time></trkpt><trkpt lat="40.7566504" lon="14.8714246"><ele>367.0</ele><time>2026-04-12T11:04:48.966Z</time></trkpt><trkpt lat="40.7565917" lon="14.8713862"><ele>367.40000000000003</ele><time>2026-04-12T11:04:49.977Z</time></trkpt><trkpt lat="40.7565278" lon="14.8713452"><ele>367.8</ele><time>2026-04-12T11:04:51.959Z</time></trkpt><trkpt lat="40.7564156" lon="14.8713513"><ele>368.2</ele><time>2026-04-12T11:04:53.958Z</time></trkpt><trkpt lat="40.7563106" lon="14.8713358"><ele>368.6</ele><time>2026-04-12T11:04:55.96Z</time></trkpt><trkpt lat="40.7561933" lon="14.8712796"><ele>369.0</ele><time>2026-04-12T11:04:57.96Z</time></trkpt><trkpt lat="40.7561328" lon="14.8712246"><ele>369.0</ele><time>2026-04-12T11:04:58.968Z</time></trkpt><trkpt lat="40.7560794" lon="14.8711717"><ele>369.0</ele><time>2026-04-12T11:04:59.963Z</time></trkpt><trkpt lat="40.7560036" lon="14.8711396"><ele>369.0</ele><time>2026-04-12T11:05:00.961Z</time></trkpt><trkpt lat="40.7559249" lon="14.8711308"><ele>369.0</ele><time>2026-04-12T11:05:01.97Z</time></trkpt><trkpt lat="40.7558349" lon="14.8711349"><ele>369.0</ele><time>2026-04-12T11:05:02.959Z</time></trkpt><trkpt lat="40.7557485" lon="14.8711344"><ele>369.0</ele><time>2026-04-12T11:05:03.964Z</time></trkpt><trkpt lat="40.7556658" lon="14.8711033"><ele>369.5</ele><time>2026-04-12T11:05:04.967Z</time></trkpt><trkpt lat="40.755586" lon="14.871047"><ele>370.0</ele><time>2026-04-12T11:05:05.96Z</time></trkpt><trkpt lat="40.7554897" lon="14.8709626"><ele>370.5</ele><time>2026-04-12T11:05:07.953Z</time></trkpt><trkpt lat="40.7554155" lon="14.8709502"><ele>371.0</ele><time>2026-04-12T11:05:08.96Z</time></trkpt><trkpt lat="40.7553425" lon="14.8709496"><ele>371.5</ele><time>2026-04-12T11:05:09.967Z</time></trkpt><trkpt lat="40.7552597" lon="14.870989"><ele>372.0</ele><time>2026-04-12T11:05:10.958Z</time></trkpt><trkpt lat="40.7551981" lon="14.8710265"><ele>370.20000000000005</ele><time>2026-04-12T11:05:11.962Z</time></trkpt><trkpt lat="40.7550747" lon="14.8710615"><ele>368.4</ele><time>2026-04-12T11:05:13.955Z</time></trkpt><trkpt lat="40.7550029" lon="14.8710885"><ele>366.6</ele><time>2026-04-12T11:05:14.963Z</time></trkpt><trkpt lat="40.7549236" lon="14.8711211"><ele>364.79999999999995</ele><time>2026-04-12T11:05:15.959Z</time></trkpt><trkpt lat="40.7548298" lon="14.8711757"><ele>363.0</ele><time>2026-04-12T11:05:16.97Z</time></trkpt><trkpt lat="40.7547327" lon="14.8712619"><ele>363.0</ele><time>2026-04-12T11:05:17.947Z</time></trkpt><trkpt lat="40.7546531" lon="14.8713602"><ele>363.0</ele><time>2026-04-12T11:05:18.97Z</time></trkpt><trkpt lat="40.7545805" lon="14.871467"><ele>363.0</ele><time>2026-04-12T11:05:19.972Z</time></trkpt><trkpt lat="40.7545222" lon="14.8715971"><ele>363.0</ele><time>2026-04-12T11:05:20.965Z</time></trkpt><trkpt lat="40.7544668" lon="14.8717371"><ele>365.79999999999995</ele><time>2026-04-12T11:05:21.945Z</time></trkpt><trkpt lat="40.7544244" lon="14.8718701"><ele>368.6</ele><time>2026-04-12T11:05:22.958Z</time></trkpt><trkpt lat="40.7543734" lon="14.8719799"><ele>371.4</ele><time>2026-04-12T11:05:23.969Z</time></trkpt><trkpt lat="40.7543219" lon="14.8720991"><ele>374.20000000000005</ele><time>2026-04-12T11:05:24.957Z</time></trkpt><trkpt lat="40.7542689" lon="14.8722248"><ele>377.0</ele><time>2026-04-12T11:05:25.944Z</time></trkpt><trkpt lat="40.7542051" lon="14.8723276"><ele>369.6666666666667</ele><time>2026-04-12T11:05:26.962Z</time></trkpt><trkpt lat="40.7541511" lon="14.8724104"><ele>362.33333333333337</ele><time>2026-04-12T11:05:27.962Z</time></trkpt><trkpt lat="40.754103" lon="14.8724929"><ele>355.0</ele><time>2026-04-12T11:05:28.964Z</time></trkpt><trkpt lat="40.7540654" lon="14.8725987"><ele>347.6666666666667</ele><time>2026-04-12T11:05:29.946Z</time></trkpt><trkpt lat="40.7540478" lon="14.8727176"><ele>340.3333333333333</ele><time>2026-04-12T11:05:30.967Z</time></trkpt><trkpt lat="40.7540236" lon="14.8728341"><ele>333.0</ele><time>2026-04-12T11:05:31.966Z</time></trkpt><trkpt lat="40.7540061" lon="14.87296"><ele>332.2</ele><time>2026-04-12T11:05:32.961Z</time></trkpt><trkpt lat="40.754014" lon="14.8730859"><ele>331.4</ele><time>2026-04-12T11:05:33.949Z</time></trkpt><trkpt lat="40.754035" lon="14.8731984"><ele>330.59999999999997</ele><time>2026-04-12T11:05:34.969Z</time></trkpt><trkpt lat="40.7540392" lon="14.8732915"><ele>329.79999999999995</ele><time>2026-04-12T11:05:35.969Z</time></trkpt><trkpt lat="40.7539646" lon="14.8734317"><ele>329.0</ele><time>2026-04-12T11:05:37.963Z</time></trkpt><trkpt lat="40.7538878" lon="14.8735091"><ele>331.0</ele><time>2026-04-12T11:05:38.95Z</time></trkpt><trkpt lat="40.753812" lon="14.8735915"><ele>333.0</ele><time>2026-04-12T11:05:39.964Z</time></trkpt><trkpt lat="40.7537455" lon="14.8736816"><ele>335.0</ele><time>2026-04-12T11:05:40.953Z</time></trkpt><trkpt lat="40.753685" lon="14.8737646"><ele>337.0</ele><time>2026-04-12T11:05:41.971Z</time></trkpt><trkpt lat="40.7535858" lon="14.873725"><ele>339.0</ele><time>2026-04-12T11:05:46.97Z</time></trkpt><trkpt lat="40.7535163" lon="14.8736664"><ele>339.0</ele><time>2026-04-12T11:05:47.965Z</time></trkpt><trkpt lat="40.753422" lon="14.8736247"><ele>339.0</ele><time>2026-04-12T11:05:48.968Z</time></trkpt><trkpt lat="40.7532999" lon="14.8736207"><ele>339.0</ele><time>2026-04-12T11:05:49.964Z</time></trkpt><trkpt lat="40.7531637" lon="14.8736275"><ele>339.0</ele><time>2026-04-12T11:05:50.965Z</time></trkpt><trkpt lat="40.7530291" lon="14.8736359"><ele>339.0</ele><time>2026-04-12T11:05:51.954Z</time></trkpt><trkpt lat="40.7529033" lon="14.8736514"><ele>339.0</ele><time>2026-04-12T11:05:52.967Z</time></trkpt><trkpt lat="40.752772" lon="14.8736777"><ele>339.0</ele><time>2026-04-12T11:05:53.967Z</time></trkpt><trkpt lat="40.7526514" lon="14.873696"><ele>339.0</ele><time>2026-04-12T11:05:54.96Z</time></trkpt><trkpt lat="40.7525426" lon="14.8736921"><ele>338.6</ele><time>2026-04-12T11:05:55.963Z</time></trkpt><trkpt lat="40.7524347" lon="14.8736808"><ele>338.2</ele><time>2026-04-12T11:05:56.962Z</time></trkpt><trkpt lat="40.7523379" lon="14.873669"><ele>337.8</ele><time>2026-04-12T11:05:57.97Z</time></trkpt><trkpt lat="40.7522535" lon="14.8736808"><ele>337.40000000000003</ele><time>2026-04-12T11:05:58.974Z</time></trkpt><trkpt lat="40.752175" lon="14.8736989"><ele>337.0</ele><time>2026-04-12T11:05:59.962Z</time></trkpt><trkpt lat="40.7520909" lon="14.8737155"><ele>337.0</ele><time>2026-04-12T11:06:00.972Z</time></trkpt><trkpt lat="40.7519925" lon="14.8737198"><ele>337.0</ele><time>2026-04-12T11:06:01.955Z</time></trkpt><trkpt lat="40.7519006" lon="14.8737278"><ele>337.0</ele><time>2026-04-12T11:06:02.975Z</time></trkpt><trkpt lat="40.7517952" lon="14.8737556"><ele>337.0</ele><time>2026-04-12T11:06:03.965Z</time></trkpt><trkpt lat="40.7516913" lon="14.8737863"><ele>337.0</ele><time>2026-04-12T11:06:04.975Z</time></trkpt><trkpt lat="40.7515883" lon="14.8738015"><ele>333.20000000000005</ele><time>2026-04-12T11:06:05.973Z</time></trkpt><trkpt lat="40.7514933" lon="14.8738187"><ele>329.40000000000003</ele><time>2026-04-12T11:06:06.973Z</time></trkpt><trkpt lat="40.7513955" lon="14.8738531"><ele>325.6</ele><time>2026-04-12T11:06:07.969Z</time></trkpt><trkpt lat="40.7513189" lon="14.8739274"><ele>321.8</ele><time>2026-04-12T11:06:08.961Z</time></trkpt><trkpt lat="40.7512337" lon="14.8740209"><ele>318.0</ele><time>2026-04-12T11:06:09.966Z</time></trkpt><trkpt lat="40.7511508" lon="14.8741062"><ele>318.0</ele><time>2026-04-12T11:06:10.964Z</time></trkpt><trkpt lat="40.7510754" lon="14.8741856"><ele>318.0</ele><time>2026-04-12T11:06:11.965Z</time></trkpt><trkpt lat="40.7509913" lon="14.8742652"><ele>318.0</ele><time>2026-04-12T11:06:12.964Z</time></trkpt><trkpt lat="40.7509287" lon="14.8743716"><ele>318.0</ele><time>2026-04-12T11:06:13.965Z</time></trkpt><trkpt lat="40.7508807" lon="14.8744831"><ele>318.0</ele><time>2026-04-12T11:06:14.971Z</time></trkpt><trkpt lat="40.7508089" lon="14.8745744"><ele>315.6</ele><time>2026-04-12T11:06:15.965Z</time></trkpt><trkpt lat="40.750729" lon="14.8746511"><ele>313.20000000000005</ele><time>2026-04-12T11:06:16.963Z</time></trkpt><trkpt lat="40.750661" lon="14.8747161"><ele>310.8</ele><time>2026-04-12T11:06:17.961Z</time></trkpt><trkpt lat="40.7505408" lon="14.8747897"><ele>308.40000000000003</ele><time>2026-04-12T11:06:19.968Z</time></trkpt><trkpt lat="40.7504567" lon="14.8748353"><ele>306.0</ele><time>2026-04-12T11:06:20.966Z</time></trkpt><trkpt lat="40.7503693" lon="14.8748947"><ele>306.0</ele><time>2026-04-12T11:06:21.966Z</time></trkpt><trkpt lat="40.7503037" lon="14.8749341"><ele>306.0</ele><time>2026-04-12T11:06:22.965Z</time></trkpt><trkpt lat="40.7501974" lon="14.8749544"><ele>306.0</ele><time>2026-04-12T11:06:24.965Z</time></trkpt><trkpt lat="40.7501312" lon="14.8749712"><ele>306.0</ele><time>2026-04-12T11:06:27.962Z</time></trkpt><trkpt lat="40.7501885" lon="14.8749238"><ele>306.0</ele><time>2026-04-12T11:06:32.96Z</time></trkpt><trkpt lat="40.7502027" lon="14.8748115"><ele>306.0</ele><time>2026-04-12T11:06:34.964Z</time></trkpt><trkpt lat="40.7501746" lon="14.8747337"><ele>306.40000000000003</ele><time>2026-04-12T11:06:35.963Z</time></trkpt><trkpt lat="40.7501634" lon="14.8746328"><ele>306.8</ele><time>2026-04-12T11:06:36.958Z</time></trkpt><trkpt lat="40.7501684" lon="14.8745001"><ele>307.20000000000005</ele><time>2026-04-12T11:06:37.975Z</time></trkpt><trkpt lat="40.7501731" lon="14.8743579"><ele>307.6</ele><time>2026-04-12T11:06:38.965Z</time></trkpt><trkpt lat="40.7501659" lon="14.8742193"><ele>308.0</ele><time>2026-04-12T11:06:39.971Z</time></trkpt><trkpt lat="40.7501503" lon="14.8740277"><ele>308.0</ele><time>2026-04-12T11:06:40.974Z</time></trkpt><trkpt lat="40.7501336" lon="14.8738469"><ele>308.0</ele><time>2026-04-12T11:06:41.976Z</time></trkpt><trkpt lat="40.7501024" lon="14.8736596"><ele>308.0</ele><time>2026-04-12T11:06:42.976Z</time></trkpt><trkpt lat="40.7501052" lon="14.8734783"><ele>308.0</ele><time>2026-04-12T11:06:43.963Z</time></trkpt><trkpt lat="40.7501334" lon="14.8733123"><ele>313.0</ele><time>2026-04-12T11:06:44.959Z</time></trkpt><trkpt lat="40.7501566" lon="14.8731631"><ele>318.0</ele><time>2026-04-12T11:06:45.965Z</time></trkpt><trkpt lat="40.7501803" lon="14.8730144"><ele>323.0</ele><time>2026-04-12T11:06:46.973Z</time></trkpt><trkpt lat="40.7501776" lon="14.8729137"><ele>328.0</ele><time>2026-04-12T11:06:47.973Z</time></trkpt><trkpt lat="40.7501787" lon="14.8728222"><ele>333.0</ele><time>2026-04-12T11:06:48.977Z</time></trkpt><trkpt lat="40.7501747" lon="14.8727088"><ele>333.0</ele><time>2026-04-12T11:06:50.971Z</time></trkpt><trkpt lat="40.7500988" lon="14.8727601"><ele>333.0</ele><time>2026-04-12T11:06:54.941Z</time></trkpt><trkpt lat="40.7499897" lon="14.8728665"><ele>333.0</ele><time>2026-04-12T11:06:56.967Z</time></trkpt><trkpt lat="40.7499801" lon="14.8730507"><ele>333.0</ele><time>2026-04-12T11:06:57.967Z</time></trkpt><trkpt lat="40.7499846" lon="14.8731586"><ele>333.0</ele><time>2026-04-12T11:06:58.968Z</time></trkpt><trkpt lat="40.7500106" lon="14.8732543"><ele>333.0</ele><time>2026-04-12T11:06:59.974Z</time></trkpt><trkpt lat="40.7500502" lon="14.8733567"><ele>333.0</ele><time>2026-04-12T11:07:00.975Z</time></trkpt><trkpt lat="40.7501306" lon="14.8734537"><ele>333.0</ele><time>2026-04-12T11:07:02.974Z</time></trkpt><trkpt lat="40.7501915" lon="14.8734759"><ele>333.0</ele><time>2026-04-12T11:07:03.976Z</time></trkpt><trkpt lat="40.7502673" lon="14.8734734"><ele>333.0</ele><time>2026-04-12T11:07:04.97Z</time></trkpt><trkpt lat="40.7504376" lon="14.8734491"><ele>326.0</ele><time>2026-04-12T11:07:05.979Z</time></trkpt><trkpt lat="40.7506513" lon="14.873489"><ele>319.0</ele><time>2026-04-12T11:07:06.976Z</time></trkpt><trkpt lat="40.7507352" lon="14.873475"><ele>312.0</ele><time>2026-04-12T11:07:07.961Z</time></trkpt><trkpt lat="40.7508021" lon="14.8734481"><ele>305.0</ele><time>2026-04-12T11:07:09.972Z</time></trkpt><trkpt lat="40.7507242" lon="14.8735116"><ele>305.0</ele><time>2026-04-12T11:07:12.972Z</time></trkpt><trkpt lat="40.7506434" lon="14.8735156"><ele>305.0</ele><time>2026-04-12T11:07:14.982Z</time></trkpt><trkpt lat="40.7505649" lon="14.8734987"><ele>305.0</ele><time>2026-04-12T11:07:15.971Z</time></trkpt><trkpt lat="40.7505206" lon="14.8734343"><ele>305.0</ele><time>2026-04-12T11:07:16.968Z</time></trkpt><trkpt lat="40.7505048" lon="14.8733252"><ele>305.0</ele><time>2026-04-12T11:07:17.976Z</time></trkpt><trkpt lat="40.7505287" lon="14.8731895"><ele>305.0</ele><time>2026-04-12T11:07:18.969Z</time></trkpt><trkpt lat="40.7505302" lon="14.8730652"><ele>311.2</ele><time>2026-04-12T11:07:19.963Z</time></trkpt><trkpt lat="40.7505576" lon="14.8728886"><ele>317.4</ele><time>2026-04-12T11:07:21.976Z</time></trkpt><trkpt lat="40.750554" lon="14.8727948"><ele>323.6</ele><time>2026-04-12T11:07:22.969Z</time></trkpt><trkpt lat="40.7505366" lon="14.8726842"><ele>329.8</ele><time>2026-04-12T11:07:23.97Z</time></trkpt><trkpt lat="40.7505046" lon="14.8725587"><ele>336.0</ele><time>2026-04-12T11:07:24.971Z</time></trkpt><trkpt lat="40.7504735" lon="14.8724436"><ele>341.6</ele><time>2026-04-12T11:07:25.972Z</time></trkpt><trkpt lat="40.7504373" lon="14.872321"><ele>347.20000000000005</ele><time>2026-04-12T11:07:26.97Z</time></trkpt><trkpt lat="40.7504107" lon="14.8721944"><ele>352.79999999999995</ele><time>2026-04-12T11:07:27.972Z</time></trkpt><trkpt lat="40.7504196" lon="14.8720435"><ele>358.4</ele><time>2026-04-12T11:07:28.97Z</time></trkpt><trkpt lat="40.7504242" lon="14.8719165"><ele>364.0</ele><time>2026-04-12T11:07:29.969Z</time></trkpt><trkpt lat="40.7504176" lon="14.871803"><ele>368.79999999999995</ele><time>2026-04-12T11:07:30.981Z</time></trkpt><trkpt lat="40.7504089" lon="14.8716794"><ele>373.59999999999997</ele><time>2026-04-12T11:07:31.965Z</time></trkpt><trkpt lat="40.750407" lon="14.8715334"><ele>378.4</ele><time>2026-04-12T11:07:32.963Z</time></trkpt><trkpt lat="40.7504099" lon="14.8714052"><ele>383.2</ele><time>2026-04-12T11:07:33.968Z</time></trkpt><trkpt lat="40.7504193" lon="14.871273"><ele>388.0</ele><time>2026-04-12T11:07:34.966Z</time></trkpt><trkpt lat="40.750439" lon="14.8711269"><ele>388.0</ele><time>2026-04-12T11:07:35.967Z</time></trkpt><trkpt lat="40.7504676" lon="14.8709967"><ele>388.0</ele><time>2026-04-12T11:07:36.971Z</time></trkpt><trkpt lat="40.7505062" lon="14.8708745"><ele>388.0</ele><time>2026-04-12T11:07:37.972Z</time></trkpt><trkpt lat="40.7505375" lon="14.8707597"><ele>388.0</ele><time>2026-04-12T11:07:38.963Z</time></trkpt><trkpt lat="40.7505552" lon="14.8706524"><ele>388.0</ele><time>2026-04-12T11:07:39.971Z</time></trkpt><trkpt lat="40.7505804" lon="14.8705429"><ele>387.1666666666667</ele><time>2026-04-12T11:07:40.971Z</time></trkpt><trkpt lat="40.7506107" lon="14.8704337"><ele>386.33333333333337</ele><time>2026-04-12T11:07:41.975Z</time></trkpt><trkpt lat="40.7506468" lon="14.8703353"><ele>385.5</ele><time>2026-04-12T11:07:42.975Z</time></trkpt><trkpt lat="40.750696" lon="14.8702397"><ele>384.6666666666667</ele><time>2026-04-12T11:07:43.973Z</time></trkpt><trkpt lat="40.7507418" lon="14.8701445"><ele>383.83333333333337</ele><time>2026-04-12T11:07:44.974Z</time></trkpt><trkpt lat="40.7507961" lon="14.8700386"><ele>383.0</ele><time>2026-04-12T11:07:45.974Z</time></trkpt><trkpt lat="40.7508672" lon="14.8699379"><ele>383.0</ele><time>2026-04-12T11:07:46.971Z</time></trkpt><trkpt lat="40.7509304" lon="14.8698373"><ele>383.0</ele><time>2026-04-12T11:07:47.964Z</time></trkpt><trkpt lat="40.7509545" lon="14.8697559"><ele>383.0</ele><time>2026-04-12T11:07:48.972Z</time></trkpt><trkpt lat="40.7509436" lon="14.8695993"><ele>383.0</ele><time>2026-04-12T11:07:50.968Z</time></trkpt><trkpt lat="40.7509366" lon="14.8694698"><ele>383.0</ele><time>2026-04-12T11:07:51.966Z</time></trkpt><trkpt lat="40.7509291" lon="14.8693151"><ele>384.79999999999995</ele><time>2026-04-12T11:07:52.959Z</time></trkpt><trkpt lat="40.7509044" lon="14.8691718"><ele>386.6</ele><time>2026-04-12T11:07:53.959Z</time></trkpt><trkpt lat="40.7508801" lon="14.8690538"><ele>388.4</ele><time>2026-04-12T11:07:54.974Z</time></trkpt><trkpt lat="40.7508665" lon="14.8689354"><ele>390.20000000000005</ele><time>2026-04-12T11:07:55.967Z</time></trkpt><trkpt lat="40.7508527" lon="14.868817"><ele>392.0</ele><time>2026-04-12T11:07:56.973Z</time></trkpt><trkpt lat="40.7508274" lon="14.8686999"><ele>392.0</ele><time>2026-04-12T11:07:57.979Z</time></trkpt><trkpt lat="40.7507875" lon="14.8685825"><ele>392.0</ele><time>2026-04-12T11:07:58.968Z</time></trkpt><trkpt lat="40.7507464" lon="14.8684469"><ele>392.0</ele><time>2026-04-12T11:07:59.973Z</time></trkpt><trkpt lat="40.750703" lon="14.8682967"><ele>392.0</ele><time>2026-04-12T11:08:00.965Z</time></trkpt><trkpt lat="40.7506825" lon="14.868169"><ele>392.0</ele><time>2026-04-12T11:08:01.978Z</time></trkpt><trkpt lat="40.7506511" lon="14.8680327"><ele>395.40000000000003</ele><time>2026-04-12T11:08:02.963Z</time></trkpt><trkpt lat="40.7506302" lon="14.8679092"><ele>398.8</ele><time>2026-04-12T11:08:03.975Z</time></trkpt><trkpt lat="40.7506095" lon="14.8677862"><ele>402.2</ele><time>2026-04-12T11:08:04.961Z</time></trkpt><trkpt lat="40.7505907" lon="14.8676644"><ele>405.6</ele><time>2026-04-12T11:08:05.975Z</time></trkpt><trkpt lat="40.7505747" lon="14.8675334"><ele>409.0</ele><time>2026-04-12T11:08:06.96Z</time></trkpt><trkpt lat="40.7505588" lon="14.8674129"><ele>411.83333333333337</ele><time>2026-04-12T11:08:07.973Z</time></trkpt><trkpt lat="40.7505417" lon="14.8672955"><ele>414.6666666666667</ele><time>2026-04-12T11:08:08.967Z</time></trkpt><trkpt lat="40.7505283" lon="14.8672027"><ele>417.5</ele><time>2026-04-12T11:08:09.955Z</time></trkpt><trkpt lat="40.7505267" lon="14.8670991"><ele>420.33333333333337</ele><time>2026-04-12T11:08:10.964Z</time></trkpt><trkpt lat="40.7505172" lon="14.8670117"><ele>423.1666666666667</ele><time>2026-04-12T11:08:11.97Z</time></trkpt><trkpt lat="40.7505096" lon="14.866867"><ele>426.0</ele><time>2026-04-12T11:08:13.971Z</time></trkpt><trkpt lat="40.7505342" lon="14.8667531"><ele>428.6</ele><time>2026-04-12T11:08:14.947Z</time></trkpt><trkpt lat="40.7505685" lon="14.8666361"><ele>431.20000000000005</ele><time>2026-04-12T11:08:15.974Z</time></trkpt><trkpt lat="40.7505785" lon="14.8665295"><ele>433.79999999999995</ele><time>2026-04-12T11:08:16.976Z</time></trkpt><trkpt lat="40.7505718" lon="14.8664044"><ele>436.4</ele><time>2026-04-12T11:08:18.968Z</time></trkpt><trkpt lat="40.7504594" lon="14.866464"><ele>439.0</ele><time>2026-04-12T11:08:24.971Z</time></trkpt><trkpt lat="40.7503853" lon="14.8665087"><ele>439.00000000000006</ele><time>2026-04-12T11:08:25.969Z</time></trkpt><trkpt lat="40.7503261" lon="14.866557"><ele>439.0</ele><time>2026-04-12T11:08:26.976Z</time></trkpt><trkpt lat="40.7502642" lon="14.8666061"><ele>439.0</ele><time>2026-04-12T11:08:27.982Z</time></trkpt><trkpt lat="40.7502107" lon="14.866667"><ele>439.0</ele><time>2026-04-12T11:08:28.976Z</time></trkpt><trkpt lat="40.7501358" lon="14.8667392"><ele>439.00000000000006</ele><time>2026-04-12T11:08:30.974Z</time></trkpt><trkpt lat="40.7501052" lon="14.8668202"><ele>439.0</ele><time>2026-04-12T11:08:32.966Z</time></trkpt><trkpt lat="40.7500978" lon="14.8669635"><ele>439.2</ele><time>2026-04-12T11:08:33.973Z</time></trkpt><trkpt lat="40.7500739" lon="14.8670826"><ele>439.4</ele><time>2026-04-12T11:08:34.962Z</time></trkpt><trkpt lat="40.7500801" lon="14.8672156"><ele>439.6</ele><time>2026-04-12T11:08:35.978Z</time></trkpt><trkpt lat="40.7500833" lon="14.8673623"><ele>439.8</ele><time>2026-04-12T11:08:36.968Z</time></trkpt><trkpt lat="40.7500623" lon="14.8674986"><ele>440.0</ele><time>2026-04-12T11:08:37.977Z</time></trkpt><trkpt lat="40.7500427" lon="14.8676196"><ele>439.99999999999994</ele><time>2026-04-12T11:08:38.972Z</time></trkpt><trkpt lat="40.7500123" lon="14.8677198"><ele>440.0</ele><time>2026-04-12T11:08:39.973Z</time></trkpt><trkpt lat="40.7499593" lon="14.8678033"><ele>440.0</ele><time>2026-04-12T11:08:40.973Z</time></trkpt><trkpt lat="40.7499061" lon="14.867876"><ele>440.0</ele><time>2026-04-12T11:08:41.977Z</time></trkpt><trkpt lat="40.7498664" lon="14.8679659"><ele>439.99999999999994</ele><time>2026-04-12T11:08:42.98Z</time></trkpt><trkpt lat="40.7498532" lon="14.8680622"><ele>440.0</ele><time>2026-04-12T11:08:43.961Z</time></trkpt><trkpt lat="40.7498643" lon="14.8681677"><ele>440.0</ele><time>2026-04-12T11:08:44.975Z</time></trkpt><trkpt lat="40.7498438" lon="14.8683117"><ele>440.0</ele><time>2026-04-12T11:08:45.971Z</time></trkpt><trkpt lat="40.7498239" lon="14.8684472"><ele>440.0</ele><time>2026-04-12T11:08:46.966Z</time></trkpt><trkpt lat="40.7498118" lon="14.8685734"><ele>440.0</ele><time>2026-04-12T11:08:47.968Z</time></trkpt><trkpt lat="40.7498283" lon="14.8686881"><ele>440.0</ele><time>2026-04-12T11:08:48.961Z</time></trkpt><trkpt lat="40.7498407" lon="14.8688118"><ele>439.0</ele><time>2026-04-12T11:08:49.973Z</time></trkpt><trkpt lat="40.7498384" lon="14.8689512"><ele>438.0</ele><time>2026-04-12T11:08:50.967Z</time></trkpt><trkpt lat="40.7498266" lon="14.8691194"><ele>437.0</ele><time>2026-04-12T11:08:51.971Z</time></trkpt><trkpt lat="40.7497872" lon="14.8692604"><ele>436.0</ele><time>2026-04-12T11:08:52.965Z</time></trkpt><trkpt lat="40.7497456" lon="14.8693953"><ele>430.75</ele><time>2026-04-12T11:08:53.974Z</time></trkpt><trkpt lat="40.7496936" lon="14.8695309"><ele>425.5</ele><time>2026-04-12T11:08:54.971Z</time></trkpt><trkpt lat="40.749625" lon="14.8696644"><ele>420.25</ele><time>2026-04-12T11:08:55.972Z</time></trkpt><trkpt lat="40.7495533" lon="14.8697784"><ele>415.0</ele><time>2026-04-12T11:08:56.977Z</time></trkpt><trkpt lat="40.7494815" lon="14.8698914"><ele>415.00000000000006</ele><time>2026-04-12T11:08:57.968Z</time></trkpt><trkpt lat="40.749427" lon="14.8699931"><ele>415.0</ele><time>2026-04-12T11:08:58.973Z</time></trkpt><trkpt lat="40.7493602" lon="14.8700744"><ele>415.0</ele><time>2026-04-12T11:08:59.976Z</time></trkpt><trkpt lat="40.7492887" lon="14.8701044"><ele>415.0</ele><time>2026-04-12T11:09:00.983Z</time></trkpt><trkpt lat="40.7492142" lon="14.8700877"><ele>415.00000000000006</ele><time>2026-04-12T11:09:02.971Z</time></trkpt><trkpt lat="40.7493105" lon="14.8700404"><ele>415.0</ele><time>2026-04-12T11:09:05.969Z</time></trkpt><trkpt lat="40.749369" lon="14.8699224"><ele>415.00000000000006</ele><time>2026-04-12T11:09:07.975Z</time></trkpt><trkpt lat="40.7493945" lon="14.869809"><ele>415.0</ele><time>2026-04-12T11:09:08.97Z</time></trkpt><trkpt lat="40.7493941" lon="14.8696922"><ele>415.0</ele><time>2026-04-12T11:09:09.972Z</time></trkpt><trkpt lat="40.7493689" lon="14.8695795"><ele>415.0</ele><time>2026-04-12T11:09:10.978Z</time></trkpt><trkpt lat="40.7493502" lon="14.8694738"><ele>415.00000000000006</ele><time>2026-04-12T11:09:11.973Z</time></trkpt><trkpt lat="40.7493555" lon="14.8693692"><ele>415.0</ele><time>2026-04-12T11:09:12.976Z</time></trkpt><trkpt lat="40.7493675" lon="14.8692569"><ele>420.25</ele><time>2026-04-12T11:09:13.976Z</time></trkpt><trkpt lat="40.7493729" lon="14.8691176"><ele>425.5</ele><time>2026-04-12T11:09:14.955Z</time></trkpt><trkpt lat="40.7493762" lon="14.8689705"><ele>430.75</ele><time>2026-04-12T11:09:15.964Z</time></trkpt><trkpt lat="40.7493866" lon="14.8688205"><ele>436.0</ele><time>2026-04-12T11:09:16.97Z</time></trkpt><trkpt lat="40.7494066" lon="14.868662"><ele>436.0</ele><time>2026-04-12T11:09:17.972Z</time></trkpt><trkpt lat="40.7494123" lon="14.8685083"><ele>436.0</ele><time>2026-04-12T11:09:18.969Z</time></trkpt><trkpt lat="40.7493937" lon="14.868372"><ele>436.0</ele><time>2026-04-12T11:09:19.969Z</time></trkpt><trkpt lat="40.7493737" lon="14.8682342"><ele>436.0</ele><time>2026-04-12T11:09:20.976Z</time></trkpt><trkpt lat="40.7493566" lon="14.8680979"><ele>436.0</ele><time>2026-04-12T11:09:21.978Z</time></trkpt><trkpt lat="40.7493389" lon="14.8679511"><ele>442.0</ele><time>2026-04-12T11:09:22.967Z</time></trkpt><trkpt lat="40.7493226" lon="14.867801"><ele>448.0</ele><time>2026-04-12T11:09:23.976Z</time></trkpt><trkpt lat="40.7493012" lon="14.8676586"><ele>454.0</ele><time>2026-04-12T11:09:24.972Z</time></trkpt><trkpt lat="40.7492762" lon="14.8675247"><ele>460.0</ele><time>2026-04-12T11:09:25.972Z</time></trkpt><trkpt lat="40.7492536" lon="14.8673868"><ele>466.0</ele><time>2026-04-12T11:09:26.972Z</time></trkpt><trkpt lat="40.749229" lon="14.867246"><ele>467.4</ele><time>2026-04-12T11:09:27.974Z</time></trkpt><trkpt lat="40.7492101" lon="14.867101"><ele>468.8</ele><time>2026-04-12T11:09:28.973Z</time></trkpt><trkpt lat="40.7492045" lon="14.8669535"><ele>470.19999999999993</ele><time>2026-04-12T11:09:29.982Z</time></trkpt><trkpt lat="40.7492007" lon="14.8668087"><ele>471.59999999999997</ele><time>2026-04-12T11:09:30.975Z</time></trkpt><trkpt lat="40.7491997" lon="14.8666647"><ele>473.0</ele><time>2026-04-12T11:09:31.978Z</time></trkpt><trkpt lat="40.7492002" lon="14.8665151"><ele>474.2</ele><time>2026-04-12T11:09:32.979Z</time></trkpt><trkpt lat="40.7492059" lon="14.8663661"><ele>475.4</ele><time>2026-04-12T11:09:33.98Z</time></trkpt><trkpt lat="40.7492121" lon="14.8662308"><ele>476.59999999999997</ele><time>2026-04-12T11:09:34.976Z</time></trkpt><trkpt lat="40.7492194" lon="14.8661097"><ele>477.79999999999995</ele><time>2026-04-12T11:09:35.984Z</time></trkpt><trkpt lat="40.7492246" lon="14.8660233"><ele>479.0</ele><time>2026-04-12T11:09:36.963Z</time></trkpt><trkpt lat="40.7492448" lon="14.8659036"><ele>480.49999999999994</ele><time>2026-04-12T11:09:49.969Z</time></trkpt><trkpt lat="40.7492418" lon="14.8657554"><ele>482.0</ele><time>2026-04-12T11:09:51.969Z</time></trkpt><trkpt lat="40.7492445" lon="14.8656565"><ele>483.5</ele><time>2026-04-12T11:09:52.986Z</time></trkpt><trkpt lat="40.7492487" lon="14.8655709"><ele>485.0</ele><time>2026-04-12T11:09:53.984Z</time></trkpt><trkpt lat="40.7492561" lon="14.8654717"><ele>486.49999999999994</ele><time>2026-04-12T11:09:55.952Z</time></trkpt><trkpt lat="40.7492408" lon="14.8653501"><ele>488.0</ele><time>2026-04-12T11:10:00.944Z</time></trkpt><trkpt lat="40.749194" lon="14.8652546"><ele>488.0</ele><time>2026-04-12T11:10:02.95Z</time></trkpt><trkpt lat="40.7491653" lon="14.8651565"><ele>487.99999999999994</ele><time>2026-04-12T11:10:04.966Z</time></trkpt><trkpt lat="40.7491757" lon="14.8650076"><ele>487.99999999999994</ele><time>2026-04-12T11:10:06.976Z</time></trkpt><trkpt lat="40.7492067" lon="14.8648809"><ele>488.0</ele><time>2026-04-12T11:10:08.974Z</time></trkpt><trkpt lat="40.7492192" lon="14.864728"><ele>488.0</ele><time>2026-04-12T11:10:10.97Z</time></trkpt><trkpt lat="40.7492091" lon="14.8646213"><ele>490.4</ele><time>2026-04-12T11:10:12.972Z</time></trkpt><trkpt lat="40.7491306" lon="14.8645566"><ele>492.79999999999995</ele><time>2026-04-12T11:10:15.974Z</time></trkpt><trkpt lat="40.7490201" lon="14.864532"><ele>495.2</ele><time>2026-04-12T11:10:17.98Z</time></trkpt><trkpt lat="40.7489082" lon="14.8644983"><ele>497.6</ele><time>2026-04-12T11:10:19.965Z</time></trkpt><trkpt lat="40.7488464" lon="14.8644283"><ele>500.0</ele><time>2026-04-12T11:10:21.981Z</time></trkpt><trkpt lat="40.74884" lon="14.8643363"><ele>499.99999999999994</ele><time>2026-04-12T11:10:24.954Z</time></trkpt><trkpt lat="40.7489114" lon="14.8643312"><ele>500.0</ele><time>2026-04-12T11:10:26.95Z</time></trkpt><trkpt lat="40.7490005" lon="14.8643118"><ele>500.0</ele><time>2026-04-12T11:10:29.978Z</time></trkpt><trkpt lat="40.7490709" lon="14.8642668"><ele>500.0</ele><time>2026-04-12T11:10:32.971Z</time></trkpt><trkpt lat="40.7490673" lon="14.8641614"><ele>499.99999999999994</ele><time>2026-04-12T11:10:35.971Z</time></trkpt><trkpt lat="40.7490106" lon="14.8640742"><ele>500.0</ele><time>2026-04-12T11:10:38.982Z</time></trkpt><trkpt lat="40.7489594" lon="14.8639921"><ele>502.49999999999994</ele><time>2026-04-12T11:10:39.974Z</time></trkpt><trkpt lat="40.7489432" lon="14.86386"><ele>505.0</ele><time>2026-04-12T11:10:41.974Z</time></trkpt><trkpt lat="40.7489681" lon="14.8637714"><ele>507.5</ele><time>2026-04-12T11:10:42.972Z</time></trkpt><trkpt lat="40.7490583" lon="14.8636942"><ele>510.0</ele><time>2026-04-12T11:10:44.975Z</time></trkpt><trkpt lat="40.7491324" lon="14.8636239"><ele>512.5</ele><time>2026-04-12T11:10:46.967Z</time></trkpt><trkpt lat="40.7491452" lon="14.8635411"><ele>515.0</ele><time>2026-04-12T11:10:48.971Z</time></trkpt><trkpt lat="40.749125" lon="14.8634458"><ele>517.8333333333333</ele><time>2026-04-12T11:10:49.972Z</time></trkpt><trkpt lat="40.7490938" lon="14.8633604"><ele>520.6666666666666</ele><time>2026-04-12T11:10:50.977Z</time></trkpt><trkpt lat="40.7490426" lon="14.8632953"><ele>523.5</ele><time>2026-04-12T11:10:51.977Z</time></trkpt><trkpt lat="40.7489539" lon="14.8632357"><ele>526.3333333333334</ele><time>2026-04-12T11:10:53.977Z</time></trkpt><trkpt lat="40.7489816" lon="14.8631531"><ele>529.1666666666667</ele><time>2026-04-12T11:10:56.96Z</time></trkpt><trkpt lat="40.7490757" lon="14.8631562"><ele>532.0</ele><time>2026-04-12T11:10:58.977Z</time></trkpt><trkpt lat="40.7491345" lon="14.8630719"><ele>532.0</ele><time>2026-04-12T11:11:00.977Z</time></trkpt><trkpt lat="40.7491655" lon="14.862999"><ele>532.0</ele><time>2026-04-12T11:11:01.981Z</time></trkpt><trkpt lat="40.7491883" lon="14.8628126"><ele>532.0</ele><time>2026-04-12T11:11:03.966Z</time></trkpt><trkpt lat="40.7492004" lon="14.8627035"><ele>532.0</ele><time>2026-04-12T11:11:04.968Z</time></trkpt><trkpt lat="40.7492069" lon="14.8626045"><ele>532.0</ele><time>2026-04-12T11:11:05.98Z</time></trkpt><trkpt lat="40.7491994" lon="14.8624964"><ele>532.0</ele><time>2026-04-12T11:11:06.974Z</time></trkpt><trkpt lat="40.7491994" lon="14.862353"><ele>534.6666666666667</ele><time>2026-04-12T11:11:08.961Z</time></trkpt><trkpt lat="40.74921" lon="14.8622389"><ele>537.3333333333334</ele><time>2026-04-12T11:11:10.973Z</time></trkpt><trkpt lat="40.7491606" lon="14.8621645"><ele>540.0</ele><time>2026-04-12T11:11:13.973Z</time></trkpt><trkpt lat="40.7490926" lon="14.8622322"><ele>542.6666666666666</ele><time>2026-04-12T11:11:15.975Z</time></trkpt><trkpt lat="40.7490572" lon="14.86232"><ele>545.3333333333333</ele><time>2026-04-12T11:11:17.978Z</time></trkpt><trkpt lat="40.7490291" lon="14.8624319"><ele>548.0</ele><time>2026-04-12T11:11:19.976Z</time></trkpt><trkpt lat="40.7490364" lon="14.8623372"><ele>548.0000000000001</ele><time>2026-04-12T11:11:23.973Z</time></trkpt><trkpt lat="40.7490632" lon="14.8622616"><ele>548.0</ele><time>2026-04-12T11:11:24.971Z</time></trkpt><trkpt lat="40.7490988" lon="14.8621683"><ele>548.0</ele><time>2026-04-12T11:11:25.957Z</time></trkpt><trkpt lat="40.7491402" lon="14.8620867"><ele>548.0</ele><time>2026-04-12T11:11:26.973Z</time></trkpt><trkpt lat="40.7491841" lon="14.8620099"><ele>548.0</ele><time>2026-04-12T11:11:27.975Z</time></trkpt><trkpt lat="40.7492335" lon="14.8619431"><ele>548.0000000000001</ele><time>2026-04-12T11:11:28.986Z</time></trkpt><trkpt lat="40.749276" lon="14.8618807"><ele>548.0</ele><time>2026-04-12T11:11:29.989Z</time></trkpt><trkpt lat="40.7492833" lon="14.8617892"><ele>551.1666666666666</ele><time>2026-04-12T11:11:30.969Z</time></trkpt><trkpt lat="40.7492962" lon="14.8616973"><ele>554.3333333333333</ele><time>2026-04-12T11:11:31.98Z</time></trkpt><trkpt lat="40.7493111" lon="14.8616129"><ele>557.5</ele><time>2026-04-12T11:11:32.984Z</time></trkpt><trkpt lat="40.7492991" lon="14.8614562"><ele>560.6666666666666</ele><time>2026-04-12T11:11:34.98Z</time></trkpt><trkpt lat="40.7492747" lon="14.8613792"><ele>563.8333333333334</ele><time>2026-04-12T11:11:35.971Z</time></trkpt><trkpt lat="40.749213" lon="14.8612464"><ele>567.0</ele><time>2026-04-12T11:11:37.975Z</time></trkpt><trkpt lat="40.7491704" lon="14.8611686"><ele>567.0</ele><time>2026-04-12T11:11:39.969Z</time></trkpt><trkpt lat="40.7491505" lon="14.8610747"><ele>567.0</ele><time>2026-04-12T11:11:41.975Z</time></trkpt><trkpt lat="40.7491474" lon="14.8609545"><ele>567.0</ele><time>2026-04-12T11:11:43.977Z</time></trkpt><trkpt lat="40.7492283" lon="14.8608332"><ele>567.0</ele><time>2026-04-12T11:11:45.969Z</time></trkpt><trkpt lat="40.7492955" lon="14.8608075"><ele>567.0</ele><time>2026-04-12T11:11:46.966Z</time></trkpt><trkpt lat="40.7493561" lon="14.8607791"><ele>567.0</ele><time>2026-04-12T11:11:47.969Z</time></trkpt><trkpt lat="40.7494147" lon="14.8607265"><ele>566.5</ele><time>2026-04-12T11:11:49.986Z</time></trkpt><trkpt lat="40.7494187" lon="14.8606292"><ele>566.0</ele><time>2026-04-12T11:11:51.979Z</time></trkpt><trkpt lat="40.7493717" lon="14.8605656"><ele>565.5</ele><time>2026-04-12T11:11:53.973Z</time></trkpt><trkpt lat="40.7492766" lon="14.8605091"><ele>565.0</ele><time>2026-04-12T11:11:55.957Z</time></trkpt><trkpt lat="40.7492038" lon="14.8604948"><ele>564.5</ele><time>2026-04-12T11:11:56.944Z</time></trkpt><trkpt lat="40.749126" lon="14.8604682"><ele>564.0</ele><time>2026-04-12T11:11:57.978Z</time></trkpt><trkpt lat="40.7490628" lon="14.8604508"><ele>568.25</ele><time>2026-04-12T11:11:58.977Z</time></trkpt><trkpt lat="40.7489415" lon="14.8604266"><ele>572.5</ele><time>2026-04-12T11:12:00.97Z</time></trkpt><trkpt lat="40.7490312" lon="14.8603485"><ele>576.75</ele><time>2026-04-12T11:12:04.972Z</time></trkpt><trkpt lat="40.7491463" lon="14.8602746"><ele>581.0</ele><time>2026-04-12T11:12:06.988Z</time></trkpt><trkpt lat="40.7492384" lon="14.8601586"><ele>582.0</ele><time>2026-04-12T11:12:08.974Z</time></trkpt><trkpt lat="40.7492749" lon="14.860072"><ele>583.0</ele><time>2026-04-12T11:12:09.98Z</time></trkpt><trkpt lat="40.7493136" lon="14.8599905"><ele>584.0</ele><time>2026-04-12T11:12:10.975Z</time></trkpt><trkpt lat="40.7493696" lon="14.8599205"><ele>585.0</ele><time>2026-04-12T11:12:11.986Z</time></trkpt><trkpt lat="40.7494393" lon="14.8598645"><ele>586.0</ele><time>2026-04-12T11:12:12.964Z</time></trkpt><trkpt lat="40.74951" lon="14.8598302"><ele>587.0</ele><time>2026-04-12T11:12:13.969Z</time></trkpt><trkpt lat="40.7495825" lon="14.8597318"><ele>587.0</ele><time>2026-04-12T11:12:15.979Z</time></trkpt><trkpt lat="40.7494932" lon="14.8597011"><ele>587.0</ele><time>2026-04-12T11:12:19.99Z</time></trkpt><trkpt lat="40.7494126" lon="14.8597162"><ele>587.0</ele><time>2026-04-12T11:12:20.981Z</time></trkpt><trkpt lat="40.7493266" lon="14.8597294"><ele>587.0</ele><time>2026-04-12T11:12:21.974Z</time></trkpt><trkpt lat="40.7492522" lon="14.8597234"><ele>587.0</ele><time>2026-04-12T11:12:22.974Z</time></trkpt><trkpt lat="40.7491746" lon="14.859706"><ele>587.0</ele><time>2026-04-12T11:12:23.975Z</time></trkpt><trkpt lat="40.7490976" lon="14.8596546"><ele>589.6666666666666</ele><time>2026-04-12T11:12:24.975Z</time></trkpt><trkpt lat="40.7490098" lon="14.8596192"><ele>592.3333333333333</ele><time>2026-04-12T11:12:25.974Z</time></trkpt><trkpt lat="40.7489408" lon="14.8595968"><ele>595.0</ele><time>2026-04-12T11:12:26.982Z</time></trkpt><trkpt lat="40.7488642" lon="14.8595332"><ele>597.6666666666666</ele><time>2026-04-12T11:12:29.019Z</time></trkpt><trkpt lat="40.7489201" lon="14.8594817"><ele>600.3333333333334</ele><time>2026-04-12T11:12:31.967Z</time></trkpt><trkpt lat="40.749023" lon="14.8594782"><ele>603.0</ele><time>2026-04-12T11:12:34.967Z</time></trkpt><trkpt lat="40.7491397" lon="14.8594563"><ele>603.0</ele><time>2026-04-12T11:12:36.946Z</time></trkpt><trkpt lat="40.7492059" lon="14.8594374"><ele>603.0</ele><time>2026-04-12T11:12:37.968Z</time></trkpt><trkpt lat="40.749269" lon="14.8593178"><ele>603.0</ele><time>2026-04-12T11:12:39.966Z</time></trkpt><trkpt lat="40.7492797" lon="14.8591818"><ele>603.0</ele><time>2026-04-12T11:12:41.975Z</time></trkpt><trkpt lat="40.7492608" lon="14.8590318"><ele>603.0</ele><time>2026-04-12T11:12:43.973Z</time></trkpt><trkpt lat="40.7491945" lon="14.8589344"><ele>607.1999999999999</ele><time>2026-04-12T11:12:46.005Z</time></trkpt><trkpt lat="40.7491355" lon="14.8587932"><ele>611.4</ele><time>2026-04-12T11:12:47.968Z</time></trkpt><trkpt lat="40.7490704" lon="14.8586778"><ele>615.5999999999999</ele><time>2026-04-12T11:12:49.968Z</time></trkpt><trkpt lat="40.7490494" lon="14.8585679"><ele>619.8</ele><time>2026-04-12T11:12:51.962Z</time></trkpt><trkpt lat="40.7490809" lon="14.8584916"><ele>624.0</ele><time>2026-04-12T11:12:57.975Z</time></trkpt><trkpt lat="40.7490459" lon="14.8583622"><ele>626.1666666666666</ele><time>2026-04-12T11:13:00.954Z</time></trkpt><trkpt lat="40.7489752" lon="14.8582407"><ele>628.3333333333334</ele><time>2026-04-12T11:13:02.971Z</time></trkpt><trkpt lat="40.7489337" lon="14.8581666"><ele>630.5</ele><time>2026-04-12T11:13:03.981Z</time></trkpt><trkpt lat="40.748889" lon="14.8580902"><ele>632.6666666666667</ele><time>2026-04-12T11:13:04.987Z</time></trkpt><trkpt lat="40.7488395" lon="14.8580134"><ele>634.8333333333334</ele><time>2026-04-12T11:13:05.975Z</time></trkpt><trkpt lat="40.7487904" lon="14.857941"><ele>637.0</ele><time>2026-04-12T11:13:06.989Z</time></trkpt><trkpt lat="40.74872" lon="14.8578784"><ele>637.0</ele><time>2026-04-12T11:13:07.98Z</time></trkpt><trkpt lat="40.7486242" lon="14.8578187"><ele>637.0</ele><time>2026-04-12T11:13:08.957Z</time></trkpt><trkpt lat="40.7485239" lon="14.857759"><ele>637.0</ele><time>2026-04-12T11:13:09.978Z</time></trkpt><trkpt lat="40.7484152" lon="14.8576876"><ele>637.0</ele><time>2026-04-12T11:13:10.974Z</time></trkpt><trkpt lat="40.7483108" lon="14.8575943"><ele>641.25</ele><time>2026-04-12T11:13:11.982Z</time></trkpt><trkpt lat="40.7482063" lon="14.8574871"><ele>645.5</ele><time>2026-04-12T11:13:12.984Z</time></trkpt><trkpt lat="40.748117" lon="14.8573985"><ele>649.75</ele><time>2026-04-12T11:13:14.037Z</time></trkpt><trkpt lat="40.7480228" lon="14.8573498"><ele>654.0</ele><time>2026-04-12T11:13:14.962Z</time></trkpt><trkpt lat="40.7479177" lon="14.8573167"><ele>654.0</ele><time>2026-04-12T11:13:15.972Z</time></trkpt><trkpt lat="40.7478389" lon="14.8572746"><ele>654.0</ele><time>2026-04-12T11:13:17.004Z</time></trkpt><trkpt lat="40.7477553" lon="14.8572216"><ele>654.0</ele><time>2026-04-12T11:13:17.968Z</time></trkpt><trkpt lat="40.7476755" lon="14.8571856"><ele>654.0</ele><time>2026-04-12T11:13:18.98Z</time></trkpt><trkpt lat="40.747627" lon="14.8571132"><ele>654.0</ele><time>2026-04-12T11:13:21.974Z</time></trkpt><trkpt lat="40.7476426" lon="14.8570149"><ele>654.0</ele><time>2026-04-12T11:13:24.044Z</time></trkpt><trkpt lat="40.7476367" lon="14.8568501"><ele>657.8333333333334</ele><time>2026-04-12T11:13:25.973Z</time></trkpt><trkpt lat="40.7476421" lon="14.8567555"><ele>661.6666666666666</ele><time>2026-04-12T11:13:26.98Z</time></trkpt><trkpt lat="40.747651" lon="14.8566474"><ele>665.5</ele><time>2026-04-12T11:13:27.97Z</time></trkpt><trkpt lat="40.7476405" lon="14.8565296"><ele>669.3333333333333</ele><time>2026-04-12T11:13:28.981Z</time></trkpt><trkpt lat="40.7476221" lon="14.856418"><ele>673.1666666666666</ele><time>2026-04-12T11:13:29.962Z</time></trkpt><trkpt lat="40.7476084" lon="14.8563269"><ele>677.0</ele><time>2026-04-12T11:13:30.972Z</time></trkpt><trkpt lat="40.7476078" lon="14.8562278"><ele>677.0</ele><time>2026-04-12T11:13:31.978Z</time></trkpt><trkpt lat="40.7476182" lon="14.8561126"><ele>677.0</ele><time>2026-04-12T11:13:32.977Z</time></trkpt><trkpt lat="40.7476396" lon="14.8559907"><ele>677.0</ele><time>2026-04-12T11:13:34.024Z</time></trkpt><trkpt lat="40.7476744" lon="14.8558639"><ele>677.0</ele><time>2026-04-12T11:13:34.973Z</time></trkpt><trkpt lat="40.7477168" lon="14.8557536"><ele>677.0</ele><time>2026-04-12T11:13:35.961Z</time></trkpt><trkpt lat="40.7477585" lon="14.8556583"><ele>676.8</ele><time>2026-04-12T11:13:36.978Z</time></trkpt><trkpt lat="40.7477893" lon="14.8555586"><ele>676.6</ele><time>2026-04-12T11:13:37.976Z</time></trkpt><trkpt lat="40.7478058" lon="14.8554376"><ele>676.4</ele><time>2026-04-12T11:13:38.98Z</time></trkpt><trkpt lat="40.7477918" lon="14.8553115"><ele>676.1999999999999</ele><time>2026-04-12T11:13:39.968Z</time></trkpt><trkpt lat="40.7477461" lon="14.8551813"><ele>676.0</ele><time>2026-04-12T11:13:41.054Z</time></trkpt><trkpt lat="40.7476968" lon="14.8550555"><ele>680.5999999999999</ele><time>2026-04-12T11:13:42.04Z</time></trkpt><trkpt lat="40.7476384" lon="14.8549209"><ele>685.2</ele><time>2026-04-12T11:13:43.033Z</time></trkpt><trkpt lat="40.7475875" lon="14.8547865"><ele>689.8</ele><time>2026-04-12T11:13:44.05Z</time></trkpt><trkpt lat="40.7475377" lon="14.8546653"><ele>694.4000000000001</ele><time>2026-04-12T11:13:44.962Z</time></trkpt><trkpt lat="40.7474729" lon="14.8545494"><ele>699.0</ele><time>2026-04-12T11:13:45.969Z</time></trkpt><trkpt lat="40.7473849" lon="14.8544344"><ele>699.0</ele><time>2026-04-12T11:13:46.982Z</time></trkpt><trkpt lat="40.7472776" lon="14.8543267"><ele>699.0</ele><time>2026-04-12T11:13:48.049Z</time></trkpt><trkpt lat="40.747193" lon="14.8542554"><ele>699.0</ele><time>2026-04-12T11:13:49.032Z</time></trkpt><trkpt lat="40.7471489" lon="14.8541553"><ele>699.0</ele><time>2026-04-12T11:13:51.045Z</time></trkpt><trkpt lat="40.74719" lon="14.8540586"><ele>699.0</ele><time>2026-04-12T11:13:52.985Z</time></trkpt><trkpt lat="40.7472511" lon="14.8539832"><ele>700.4000000000001</ele><time>2026-04-12T11:13:53.962Z</time></trkpt><trkpt lat="40.7473393" lon="14.8538909"><ele>701.8</ele><time>2026-04-12T11:13:55.975Z</time></trkpt><trkpt lat="40.7474508" lon="14.8538639"><ele>703.2</ele><time>2026-04-12T11:13:57.963Z</time></trkpt><trkpt lat="40.7475236" lon="14.853868"><ele>704.5999999999999</ele><time>2026-04-12T11:13:58.959Z</time></trkpt><trkpt lat="40.7476107" lon="14.8538674"><ele>706.0</ele><time>2026-04-12T11:13:59.971Z</time></trkpt><trkpt lat="40.7476939" lon="14.8538854"><ele>702.8</ele><time>2026-04-12T11:14:00.977Z</time></trkpt><trkpt lat="40.7477744" lon="14.8538932"><ele>699.5999999999999</ele><time>2026-04-12T11:14:01.97Z</time></trkpt><trkpt lat="40.7478561" lon="14.8538652"><ele>696.4</ele><time>2026-04-12T11:14:02.977Z</time></trkpt><trkpt lat="40.7479366" lon="14.8537939"><ele>693.2</ele><time>2026-04-12T11:14:04.034Z</time></trkpt><trkpt lat="40.7480243" lon="14.8537056"><ele>690.0</ele><time>2026-04-12T11:14:04.968Z</time></trkpt><trkpt lat="40.7481015" lon="14.8536254"><ele>690.0</ele><time>2026-04-12T11:14:05.967Z</time></trkpt><trkpt lat="40.7481673" lon="14.8535387"><ele>690.0</ele><time>2026-04-12T11:14:06.959Z</time></trkpt><trkpt lat="40.7482141" lon="14.8534249"><ele>690.0</ele><time>2026-04-12T11:14:07.963Z</time></trkpt><trkpt lat="40.748254" lon="14.8533079"><ele>690.0</ele><time>2026-04-12T11:14:08.972Z</time></trkpt><trkpt lat="40.7482834" lon="14.8531925"><ele>690.0</ele><time>2026-04-12T11:14:09.968Z</time></trkpt><trkpt lat="40.748298" lon="14.8530762"><ele>694.8</ele><time>2026-04-12T11:14:10.971Z</time></trkpt><trkpt lat="40.7482902" lon="14.8529687"><ele>699.6</ele><time>2026-04-12T11:14:11.956Z</time></trkpt><trkpt lat="40.7482696" lon="14.852855"><ele>704.4000000000001</ele><time>2026-04-12T11:14:13.05Z</time></trkpt><trkpt lat="40.7482479" lon="14.8527411"><ele>709.2</ele><time>2026-04-12T11:14:14.018Z</time></trkpt><trkpt lat="40.7482311" lon="14.8526092"><ele>714.0</ele><time>2026-04-12T11:14:14.968Z</time></trkpt><trkpt lat="40.7482234" lon="14.852473"><ele>714.0</ele><time>2026-04-12T11:14:15.973Z</time></trkpt><trkpt lat="40.7482168" lon="14.852365"><ele>714.0</ele><time>2026-04-12T11:14:16.984Z</time></trkpt><trkpt lat="40.7481776" lon="14.852276"><ele>714.0</ele><time>2026-04-12T11:14:19.973Z</time></trkpt><trkpt lat="40.7481343" lon="14.8524049"><ele>714.0</ele><time>2026-04-12T11:14:24.034Z</time></trkpt><trkpt lat="40.7481349" lon="14.8525877"><ele>714.0</ele><time>2026-04-12T11:14:25.969Z</time></trkpt><trkpt lat="40.7481276" lon="14.8526939"><ele>714.0</ele><time>2026-04-12T11:14:26.958Z</time></trkpt><trkpt lat="40.7481176" lon="14.8527986"><ele>714.0</ele><time>2026-04-12T11:14:27.97Z</time></trkpt><trkpt lat="40.7480901" lon="14.8528892"><ele>714.0</ele><time>2026-04-12T11:14:28.972Z</time></trkpt><trkpt lat="40.7480301" lon="14.852972"><ele>714.0</ele><time>2026-04-12T11:14:29.971Z</time></trkpt><trkpt lat="40.7479663" lon="14.8530379"><ele>714.0</ele><time>2026-04-12T11:14:30.978Z</time></trkpt><trkpt lat="40.7478892" lon="14.8530928"><ele>714.0</ele><time>2026-04-12T11:14:31.999Z</time></trkpt><trkpt lat="40.747801" lon="14.8531421"><ele>714.0</ele><time>2026-04-12T11:14:32.961Z</time></trkpt><trkpt lat="40.7477163" lon="14.8531828"><ele>714.0</ele><time>2026-04-12T11:14:34.042Z</time></trkpt><trkpt lat="40.7476403" lon="14.8532197"><ele>714.0</ele><time>2026-04-12T11:14:34.964Z</time></trkpt><trkpt lat="40.7475698" lon="14.8532306"><ele>714.0</ele><time>2026-04-12T11:14:35.979Z</time></trkpt><trkpt lat="40.7475022" lon="14.8532325"><ele>714.0</ele><time>2026-04-12T11:14:36.973Z</time></trkpt><trkpt lat="40.7474365" lon="14.8532187"><ele>714.0</ele><time>2026-04-12T11:14:37.978Z</time></trkpt><trkpt lat="40.7473429" lon="14.8531928"><ele>717.6666666666666</ele><time>2026-04-12T11:14:38.982Z</time></trkpt><trkpt lat="40.7472504" lon="14.8531752"><ele>721.3333333333334</ele><time>2026-04-12T11:14:39.965Z</time></trkpt><trkpt lat="40.7471753" lon="14.85317"><ele>725.0</ele><time>2026-04-12T11:14:40.973Z</time></trkpt><trkpt lat="40.7471071" lon="14.8531744"><ele>728.6666666666667</ele><time>2026-04-12T11:14:41.989Z</time></trkpt><trkpt lat="40.7470191" lon="14.8532654"><ele>732.3333333333334</ele><time>2026-04-12T11:14:43.95Z</time></trkpt><trkpt lat="40.7469314" lon="14.8533285"><ele>736.0</ele><time>2026-04-12T11:14:45.954Z</time></trkpt><trkpt lat="40.7468337" lon="14.8533595"><ele>734.5999999999999</ele><time>2026-04-12T11:14:46.952Z</time></trkpt><trkpt lat="40.7467567" lon="14.853371"><ele>733.2</ele><time>2026-04-12T11:14:48.022Z</time></trkpt><trkpt lat="40.7466373" lon="14.8534243"><ele>731.8</ele><time>2026-04-12T11:14:49.966Z</time></trkpt><trkpt lat="40.7465533" lon="14.8534877"><ele>730.4000000000001</ele><time>2026-04-12T11:14:50.971Z</time></trkpt><trkpt lat="40.7464904" lon="14.8535704"><ele>729.0</ele><time>2026-04-12T11:14:51.968Z</time></trkpt><trkpt lat="40.7464207" lon="14.8536798"><ele>729.0</ele><time>2026-04-12T11:14:52.983Z</time></trkpt><trkpt lat="40.7463509" lon="14.8538012"><ele>729.0</ele><time>2026-04-12T11:14:53.968Z</time></trkpt><trkpt lat="40.7463159" lon="14.853913"><ele>729.0</ele><time>2026-04-12T11:14:54.979Z</time></trkpt><trkpt lat="40.7462751" lon="14.8540579"><ele>729.0</ele><time>2026-04-12T11:14:55.992Z</time></trkpt><trkpt lat="40.7462493" lon="14.8541661"><ele>729.0</ele><time>2026-04-12T11:14:56.965Z</time></trkpt><trkpt lat="40.7461965" lon="14.8542479"><ele>729.0</ele><time>2026-04-12T11:14:58.965Z</time></trkpt><trkpt lat="40.7461318" lon="14.8542469"><ele>729.0</ele><time>2026-04-12T11:14:59.967Z</time></trkpt><trkpt lat="40.7460559" lon="14.8542213"><ele>729.0</ele><time>2026-04-12T11:15:00.983Z</time></trkpt><trkpt lat="40.7459746" lon="14.8541918"><ele>729.0</ele><time>2026-04-12T11:15:01.992Z</time></trkpt><trkpt lat="40.7458822" lon="14.8541547"><ele>729.0</ele><time>2026-04-12T11:15:03.049Z</time></trkpt><trkpt lat="40.7457857" lon="14.8540887"><ele>729.0</ele><time>2026-04-12T11:15:03.953Z</time></trkpt><trkpt lat="40.7457011" lon="14.8540332"><ele>729.0</ele><time>2026-04-12T11:15:04.963Z</time></trkpt><trkpt lat="40.7456157" lon="14.8540147"><ele>729.0</ele><time>2026-04-12T11:15:05.979Z</time></trkpt><trkpt lat="40.7455049" lon="14.8540297"><ele>729.0</ele><time>2026-04-12T11:15:07.033Z</time></trkpt><trkpt lat="40.7453896" lon="14.8540676"><ele>729.0</ele><time>2026-04-12T11:15:08.026Z</time></trkpt><trkpt lat="40.7452945" lon="14.8541346"><ele>729.0</ele><time>2026-04-12T11:15:09.963Z</time></trkpt><trkpt lat="40.7453161" lon="14.8543053"><ele>724.2</ele><time>2026-04-12T11:15:11.981Z</time></trkpt><trkpt lat="40.7452781" lon="14.8544392"><ele>719.4000000000001</ele><time>2026-04-12T11:15:14.052Z</time></trkpt><trkpt lat="40.7452163" lon="14.8544765"><ele>714.6</ele><time>2026-04-12T11:15:14.954Z</time></trkpt><trkpt lat="40.7450807" lon="14.8545033"><ele>709.8</ele><time>2026-04-12T11:15:17.072Z</time></trkpt><trkpt lat="40.7450061" lon="14.8544919"><ele>705.0</ele><time>2026-04-12T11:15:18.046Z</time></trkpt><trkpt lat="40.7449331" lon="14.8544809"><ele>705.0</ele><time>2026-04-12T11:15:19.033Z</time></trkpt><trkpt lat="40.744855" lon="14.8545415"><ele>705.0</ele><time>2026-04-12T11:15:20.974Z</time></trkpt><trkpt lat="40.7448041" lon="14.854604"><ele>705.0</ele><time>2026-04-12T11:15:21.971Z</time></trkpt><trkpt lat="40.7447271" lon="14.8546899"><ele>705.0</ele><time>2026-04-12T11:15:23.046Z</time></trkpt><trkpt lat="40.7446265" lon="14.8547851"><ele>705.0</ele><time>2026-04-12T11:15:24.038Z</time></trkpt><trkpt lat="40.744539" lon="14.854875"><ele>705.0</ele><time>2026-04-12T11:15:24.979Z</time></trkpt><trkpt lat="40.7444522" lon="14.8549858"><ele>705.0</ele><time>2026-04-12T11:15:25.973Z</time></trkpt><trkpt lat="40.7443625" lon="14.8550736"><ele>705.0</ele><time>2026-04-12T11:15:26.967Z</time></trkpt><trkpt lat="40.7442831" lon="14.8551442"><ele>705.0</ele><time>2026-04-12T11:15:27.977Z</time></trkpt><trkpt lat="40.7442126" lon="14.8551863"><ele>705.0</ele><time>2026-04-12T11:15:28.972Z</time></trkpt><trkpt lat="40.7441172" lon="14.8552202"><ele>708.25</ele><time>2026-04-12T11:15:30.969Z</time></trkpt><trkpt lat="40.7441444" lon="14.8553418"><ele>711.5</ele><time>2026-04-12T11:15:33.977Z</time></trkpt><trkpt lat="40.7441767" lon="14.855463"><ele>714.75</ele><time>2026-04-12T11:15:35.978Z</time></trkpt><trkpt lat="40.7442224" lon="14.8556254"><ele>718.0</ele><time>2026-04-12T11:15:38.045Z</time></trkpt><trkpt lat="40.7442086" lon="14.8558253"><ele>718.0</ele><time>2026-04-12T11:15:39.97Z</time></trkpt><trkpt lat="40.7441937" lon="14.8559529"><ele>718.0</ele><time>2026-04-12T11:15:40.982Z</time></trkpt><trkpt lat="40.7441813" lon="14.8560918"><ele>718.0</ele><time>2026-04-12T11:15:41.983Z</time></trkpt><trkpt lat="40.7441105" lon="14.8561672"><ele>718.0</ele><time>2026-04-12T11:15:43.98Z</time></trkpt><trkpt lat="40.7440479" lon="14.8561438"><ele>718.0</ele><time>2026-04-12T11:15:44.973Z</time></trkpt><trkpt lat="40.7439292" lon="14.8561162"><ele>717.5999999999999</ele><time>2026-04-12T11:15:46.042Z</time></trkpt><trkpt lat="40.7438414" lon="14.8560575"><ele>717.1999999999999</ele><time>2026-04-12T11:15:46.994Z</time></trkpt><trkpt lat="40.7437536" lon="14.8560053"><ele>716.8</ele><time>2026-04-12T11:15:47.966Z</time></trkpt><trkpt lat="40.7436471" lon="14.8559712"><ele>716.4</ele><time>2026-04-12T11:15:48.978Z</time></trkpt><trkpt lat="40.7435614" lon="14.8559698"><ele>716.0</ele><time>2026-04-12T11:15:49.974Z</time></trkpt><trkpt lat="40.7435064" lon="14.8560137"><ele>716.0000000000001</ele><time>2026-04-12T11:15:50.976Z</time></trkpt><trkpt lat="40.7434798" lon="14.8560959"><ele>716.0</ele><time>2026-04-12T11:15:51.978Z</time></trkpt><trkpt lat="40.7434674" lon="14.8561854"><ele>716.0</ele><time>2026-04-12T11:15:52.978Z</time></trkpt><trkpt lat="40.7434438" lon="14.8562759"><ele>716.0</ele><time>2026-04-12T11:15:53.979Z</time></trkpt><trkpt lat="40.7434079" lon="14.8563646"><ele>716.0</ele><time>2026-04-12T11:15:54.971Z</time></trkpt><trkpt lat="40.7433668" lon="14.8564414"><ele>716.0000000000001</ele><time>2026-04-12T11:15:55.981Z</time></trkpt><trkpt lat="40.7433201" lon="14.856511"><ele>716.0</ele><time>2026-04-12T11:15:57.041Z</time></trkpt><trkpt lat="40.7432799" lon="14.8565968"><ele>716.0</ele><time>2026-04-12T11:15:58.004Z</time></trkpt><trkpt lat="40.7432383" lon="14.8566695"><ele>716.0</ele><time>2026-04-12T11:15:58.966Z</time></trkpt><trkpt lat="40.7432044" lon="14.8567402"><ele>716.0</ele><time>2026-04-12T11:15:59.971Z</time></trkpt><trkpt lat="40.7431508" lon="14.856888"><ele>716.0</ele><time>2026-04-12T11:16:01.977Z</time></trkpt><trkpt lat="40.7431026" lon="14.8569965"><ele>716.0</ele><time>2026-04-12T11:16:02.982Z</time></trkpt><trkpt lat="40.743052" lon="14.8571156"><ele>711.4</ele><time>2026-04-12T11:16:04.048Z</time></trkpt><trkpt lat="40.7429949" lon="14.8572411"><ele>706.8</ele><time>2026-04-12T11:16:04.97Z</time></trkpt><trkpt lat="40.7429429" lon="14.8573703"><ele>702.1999999999999</ele><time>2026-04-12T11:16:05.979Z</time></trkpt><trkpt lat="40.7429093" lon="14.8574795"><ele>697.5999999999999</ele><time>2026-04-12T11:16:06.97Z</time></trkpt><trkpt lat="40.7428897" lon="14.8575687"><ele>693.0</ele><time>2026-04-12T11:16:08.055Z</time></trkpt><trkpt lat="40.7429191" lon="14.8576895"><ele>690.0</ele><time>2026-04-12T11:16:09.974Z</time></trkpt><trkpt lat="40.7429649" lon="14.8578166"><ele>687.0</ele><time>2026-04-12T11:16:11.994Z</time></trkpt><trkpt lat="40.7429514" lon="14.8579718"><ele>684.0</ele><time>2026-04-12T11:16:13.986Z</time></trkpt><trkpt lat="40.7428847" lon="14.8580272"><ele>681.0</ele><time>2026-04-12T11:16:16.05Z</time></trkpt><trkpt lat="40.7428017" lon="14.8580268"><ele>678.0</ele><time>2026-04-12T11:16:17.039Z</time></trkpt><trkpt lat="40.7426961" lon="14.8580337"><ele>684.5999999999999</ele><time>2026-04-12T11:16:18.035Z</time></trkpt><trkpt lat="40.7425935" lon="14.858073"><ele>691.1999999999999</ele><time>2026-04-12T11:16:18.969Z</time></trkpt><trkpt lat="40.7424855" lon="14.858113"><ele>697.8</ele><time>2026-04-12T11:16:19.972Z</time></trkpt><trkpt lat="40.7424029" lon="14.8581232"><ele>704.4</ele><time>2026-04-12T11:16:20.978Z</time></trkpt><trkpt lat="40.7423091" lon="14.858126"><ele>711.0</ele><time>2026-04-12T11:16:22.972Z</time></trkpt><trkpt lat="40.7422809" lon="14.8582144"><ele>711.0</ele><time>2026-04-12T11:16:24.985Z</time></trkpt><trkpt lat="40.7423289" lon="14.8583398"><ele>711.0</ele><time>2026-04-12T11:16:27.066Z</time></trkpt><trkpt lat="40.7423929" lon="14.858414"><ele>711.0</ele><time>2026-04-12T11:16:27.969Z</time></trkpt><trkpt lat="40.7424682" lon="14.8584692"><ele>711.0</ele><time>2026-04-12T11:16:28.977Z</time></trkpt><trkpt lat="40.7425407" lon="14.8585324"><ele>711.0</ele><time>2026-04-12T11:16:29.972Z</time></trkpt><trkpt lat="40.7426022" lon="14.8586003"><ele>711.0</ele><time>2026-04-12T11:16:30.987Z</time></trkpt><trkpt lat="40.7426548" lon="14.8586719"><ele>711.7142857142858</ele><time>2026-04-12T11:16:31.976Z</time></trkpt><trkpt lat="40.7427136" lon="14.8587462"><ele>712.4285714285714</ele><time>2026-04-12T11:16:33.031Z</time></trkpt><trkpt lat="40.7427657" lon="14.8588236"><ele>713.1428571428571</ele><time>2026-04-12T11:16:34.039Z</time></trkpt><trkpt lat="40.7428077" lon="14.8588934"><ele>713.8571428571429</ele><time>2026-04-12T11:16:34.968Z</time></trkpt><trkpt lat="40.7428417" lon="14.8589644"><ele>714.5714285714286</ele><time>2026-04-12T11:16:35.974Z</time></trkpt><trkpt lat="40.7428824" lon="14.8590447"><ele>715.2857142857143</ele><time>2026-04-12T11:16:37.061Z</time></trkpt><trkpt lat="40.7429405" lon="14.8591192"><ele>716.0</ele><time>2026-04-12T11:16:38.047Z</time></trkpt><trkpt lat="40.7429913" lon="14.8591923"><ele>709.6666666666666</ele><time>2026-04-12T11:16:39.045Z</time></trkpt><trkpt lat="40.7430416" lon="14.8592518"><ele>703.3333333333333</ele><time>2026-04-12T11:16:39.97Z</time></trkpt><trkpt lat="40.7430863" lon="14.8593166"><ele>697.0</ele><time>2026-04-12T11:16:40.979Z</time></trkpt><trkpt lat="40.7431361" lon="14.859402"><ele>690.6666666666666</ele><time>2026-04-12T11:16:41.991Z</time></trkpt><trkpt lat="40.7431862" lon="14.8594976"><ele>684.3333333333334</ele><time>2026-04-12T11:16:43.016Z</time></trkpt><trkpt lat="40.7432434" lon="14.8596053"><ele>678.0</ele><time>2026-04-12T11:16:44.022Z</time></trkpt><trkpt lat="40.7432976" lon="14.8597035"><ele>678.0</ele><time>2026-04-12T11:16:44.963Z</time></trkpt><trkpt lat="40.7433344" lon="14.8597871"><ele>678.0</ele><time>2026-04-12T11:16:45.974Z</time></trkpt><trkpt lat="40.7433667" lon="14.8598738"><ele>678.0</ele><time>2026-04-12T11:16:47.076Z</time></trkpt><trkpt lat="40.7433538" lon="14.8599673"><ele>678.0</ele><time>2026-04-12T11:16:48.036Z</time></trkpt><trkpt lat="40.7433268" lon="14.86009"><ele>678.0</ele><time>2026-04-12T11:16:49.048Z</time></trkpt><trkpt lat="40.7432887" lon="14.8602257"><ele>678.0</ele><time>2026-04-12T11:16:49.981Z</time></trkpt><trkpt lat="40.7432454" lon="14.8603508"><ele>676.8</ele><time>2026-04-12T11:16:50.975Z</time></trkpt><trkpt lat="40.7432174" lon="14.8604778"><ele>675.5999999999999</ele><time>2026-04-12T11:16:51.991Z</time></trkpt><trkpt lat="40.7431889" lon="14.8605895"><ele>674.4000000000001</ele><time>2026-04-12T11:16:53.041Z</time></trkpt><trkpt lat="40.743147" lon="14.8606932"><ele>673.2</ele><time>2026-04-12T11:16:54.035Z</time></trkpt><trkpt lat="40.7431002" lon="14.8608045"><ele>672.0</ele><time>2026-04-12T11:16:54.972Z</time></trkpt><trkpt lat="40.7430646" lon="14.8609059"><ele>669.6666666666666</ele><time>2026-04-12T11:16:55.977Z</time></trkpt><trkpt lat="40.7430351" lon="14.8609946"><ele>667.3333333333334</ele><time>2026-04-12T11:16:58.969Z</time></trkpt><trkpt lat="40.742909" lon="14.8610324"><ele>665.0</ele><time>2026-04-12T11:17:00.963Z</time></trkpt><trkpt lat="40.7428219" lon="14.8610559"><ele>662.6666666666667</ele><time>2026-04-12T11:17:01.968Z</time></trkpt><trkpt lat="40.7427453" lon="14.8610596"><ele>660.3333333333334</ele><time>2026-04-12T11:17:02.974Z</time></trkpt><trkpt lat="40.7426737" lon="14.8610364"><ele>658.0</ele><time>2026-04-12T11:17:03.975Z</time></trkpt><trkpt lat="40.7425887" lon="14.8610011"><ele>658.0</ele><time>2026-04-12T11:17:04.975Z</time></trkpt><trkpt lat="40.7425068" lon="14.8609573"><ele>658.0</ele><time>2026-04-12T11:17:05.979Z</time></trkpt><trkpt lat="40.7424251" lon="14.8609066"><ele>658.0</ele><time>2026-04-12T11:17:06.986Z</time></trkpt><trkpt lat="40.7423355" lon="14.8608474"><ele>658.0</ele><time>2026-04-12T11:17:07.98Z</time></trkpt><trkpt lat="40.7422415" lon="14.8607852"><ele>658.0</ele><time>2026-04-12T11:17:08.973Z</time></trkpt><trkpt lat="40.742154" lon="14.8607259"><ele>662.0</ele><time>2026-04-12T11:17:09.973Z</time></trkpt><trkpt lat="40.7420725" lon="14.8606495"><ele>666.0</ele><time>2026-04-12T11:17:10.98Z</time></trkpt><trkpt lat="40.7419956" lon="14.8605777"><ele>670.0</ele><time>2026-04-12T11:17:12.056Z</time></trkpt><trkpt lat="40.7419154" lon="14.8604984"><ele>674.0</ele><time>2026-04-12T11:17:12.967Z</time></trkpt><trkpt lat="40.7418318" lon="14.8604464"><ele>678.0</ele><time>2026-04-12T11:17:13.973Z</time></trkpt><trkpt lat="40.7417611" lon="14.8604299"><ele>680.8333333333334</ele><time>2026-04-12T11:17:14.982Z</time></trkpt><trkpt lat="40.7416974" lon="14.8604333"><ele>683.6666666666666</ele><time>2026-04-12T11:17:15.964Z</time></trkpt><trkpt lat="40.741636" lon="14.8604934"><ele>686.5</ele><time>2026-04-12T11:17:18.036Z</time></trkpt><trkpt lat="40.7416064" lon="14.8605672"><ele>689.3333333333333</ele><time>2026-04-12T11:17:19.974Z</time></trkpt><trkpt lat="40.7416725" lon="14.8606361"><ele>692.1666666666666</ele><time>2026-04-12T11:17:21.955Z</time></trkpt><trkpt lat="40.7417137" lon="14.860773"><ele>695.0</ele><time>2026-04-12T11:17:24.046Z</time></trkpt><trkpt lat="40.741731" lon="14.8608567"><ele>693.25</ele><time>2026-04-12T11:17:24.98Z</time></trkpt><trkpt lat="40.741775" lon="14.8610217"><ele>691.5</ele><time>2026-04-12T11:17:25.984Z</time></trkpt><trkpt lat="40.7417889" lon="14.8611553"><ele>689.75</ele><time>2026-04-12T11:17:26.961Z</time></trkpt><trkpt lat="40.7417943" lon="14.8613043"><ele>688.0</ele><time>2026-04-12T11:17:27.98Z</time></trkpt><trkpt lat="40.7417805" lon="14.8615497"><ele>688.0</ele><time>2026-04-12T11:17:28.953Z</time></trkpt><trkpt lat="40.7417637" lon="14.8617052"><ele>688.0</ele><time>2026-04-12T11:17:29.963Z</time></trkpt><trkpt lat="40.7418059" lon="14.8618329"><ele>688.0</ele><time>2026-04-12T11:17:30.969Z</time></trkpt><trkpt lat="40.7418365" lon="14.8619707"><ele>688.0</ele><time>2026-04-12T11:17:33.036Z</time></trkpt><trkpt lat="40.7417573" lon="14.8620886"><ele>684.75</ele><time>2026-04-12T11:17:34.976Z</time></trkpt><trkpt lat="40.7416358" lon="14.8621823"><ele>681.5</ele><time>2026-04-12T11:17:35.974Z</time></trkpt><trkpt lat="40.7415194" lon="14.8622483"><ele>678.25</ele><time>2026-04-12T11:17:36.978Z</time></trkpt><trkpt lat="40.7414155" lon="14.8622973"><ele>675.0</ele><time>2026-04-12T11:17:37.965Z</time></trkpt><trkpt lat="40.7413031" lon="14.8623334"><ele>675.0</ele><time>2026-04-12T11:17:39.06Z</time></trkpt><trkpt lat="40.7412249" lon="14.8623362"><ele>675.0</ele><time>2026-04-12T11:17:39.966Z</time></trkpt><trkpt lat="40.7411511" lon="14.8623306"><ele>675.0</ele><time>2026-04-12T11:17:40.975Z</time></trkpt><trkpt lat="40.7410863" lon="14.8623124"><ele>675.0</ele><time>2026-04-12T11:17:42.972Z</time></trkpt><trkpt lat="40.7410656" lon="14.8624277"><ele>675.0</ele><time>2026-04-12T11:17:51.973Z</time></trkpt><trkpt lat="40.7410428" lon="14.8625364"><ele>675.0</ele><time>2026-04-12T11:17:52.992Z</time></trkpt><trkpt lat="40.7411996" lon="14.8629924"><ele>676.0</ele><time>2026-04-12T11:17:53.975Z</time></trkpt><trkpt lat="40.7412912" lon="14.8633874"><ele>677.0</ele><time>2026-04-12T11:17:54.976Z</time></trkpt><trkpt lat="40.7412847" lon="14.8635719"><ele>676.2</ele><time>2026-04-12T11:17:55.975Z</time></trkpt><trkpt lat="40.741221" lon="14.8636543"><ele>675.4000000000001</ele><time>2026-04-12T11:17:56.972Z</time></trkpt><trkpt lat="40.7411334" lon="14.863684"><ele>674.5999999999999</ele><time>2026-04-12T11:17:57.975Z</time></trkpt><trkpt lat="40.7410408" lon="14.8637054"><ele>673.8</ele><time>2026-04-12T11:17:58.988Z</time></trkpt><trkpt lat="40.7409401" lon="14.8637151"><ele>673.0</ele><time>2026-04-12T11:17:59.961Z</time></trkpt><trkpt lat="40.7408302" lon="14.8637199"><ele>676.5</ele><time>2026-04-12T11:18:00.975Z</time></trkpt><trkpt lat="40.7407389" lon="14.8637301"><ele>680.0</ele><time>2026-04-12T11:18:01.983Z</time></trkpt><trkpt lat="40.7406464" lon="14.8637446"><ele>683.5</ele><time>2026-04-12T11:18:02.984Z</time></trkpt><trkpt lat="40.7405331" lon="14.8637659"><ele>687.0</ele><time>2026-04-12T11:18:04.058Z</time></trkpt><trkpt lat="40.7404567" lon="14.8637877"><ele>690.5</ele><time>2026-04-12T11:18:04.972Z</time></trkpt><trkpt lat="40.7403924" lon="14.8638015"><ele>694.0</ele><time>2026-04-12T11:18:05.961Z</time></trkpt><trkpt lat="40.7403265" lon="14.863928"><ele>694.0</ele><time>2026-04-12T11:18:07.955Z</time></trkpt><trkpt lat="40.7403391" lon="14.8640675"><ele>694.0</ele><time>2026-04-12T11:18:09.979Z</time></trkpt><trkpt lat="40.7403536" lon="14.8642191"><ele>694.0</ele><time>2026-04-12T11:18:11.98Z</time></trkpt><trkpt lat="40.7403186" lon="14.864331"><ele>694.0</ele><time>2026-04-12T11:18:12.975Z</time></trkpt><trkpt lat="40.7402949" lon="14.8644438"><ele>694.0</ele><time>2026-04-12T11:18:13.971Z</time></trkpt><trkpt lat="40.7402576" lon="14.8645313"><ele>694.4000000000001</ele><time>2026-04-12T11:18:14.975Z</time></trkpt><trkpt lat="40.7401913" lon="14.8645869"><ele>694.8</ele><time>2026-04-12T11:18:16.976Z</time></trkpt><trkpt lat="40.7400839" lon="14.8646634"><ele>695.2</ele><time>2026-04-12T11:18:18.978Z</time></trkpt><trkpt lat="40.7400226" lon="14.8647011"><ele>695.5999999999999</ele><time>2026-04-12T11:18:19.983Z</time></trkpt><trkpt lat="40.7399187" lon="14.8647485"><ele>696.0</ele><time>2026-04-12T11:18:21.987Z</time></trkpt><trkpt lat="40.73982" lon="14.8647637"><ele>696.0</ele><time>2026-04-12T11:18:22.971Z</time></trkpt><trkpt lat="40.7397317" lon="14.8647936"><ele>696.0</ele><time>2026-04-12T11:18:23.967Z</time></trkpt><trkpt lat="40.7396508" lon="14.8648072"><ele>696.0</ele><time>2026-04-12T11:18:24.979Z</time></trkpt><trkpt lat="40.7395517" lon="14.8648365"><ele>696.0</ele><time>2026-04-12T11:18:26.983Z</time></trkpt><trkpt lat="40.7395078" lon="14.8649211"><ele>696.0</ele><time>2026-04-12T11:18:33.972Z</time></trkpt><trkpt lat="40.7394013" lon="14.8649648"><ele>690.8571428571429</ele><time>2026-04-12T11:18:35.973Z</time></trkpt><trkpt lat="40.7393272" lon="14.8649542"><ele>685.7142857142858</ele><time>2026-04-12T11:18:37.045Z</time></trkpt><trkpt lat="40.7392546" lon="14.8649488"><ele>680.5714285714287</ele><time>2026-04-12T11:18:38.041Z</time></trkpt><trkpt lat="40.7391868" lon="14.8649404"><ele>675.4285714285714</ele><time>2026-04-12T11:18:39.034Z</time></trkpt><trkpt lat="40.7391102" lon="14.8649455"><ele>670.2857142857143</ele><time>2026-04-12T11:18:39.972Z</time></trkpt><trkpt lat="40.7390388" lon="14.8649542"><ele>665.1428571428572</ele><time>2026-04-12T11:18:40.976Z</time></trkpt><trkpt lat="40.7389669" lon="14.8649661"><ele>660.0</ele><time>2026-04-12T11:18:41.981Z</time></trkpt><trkpt lat="40.7389009" lon="14.8649775"><ele>660.0</ele><time>2026-04-12T11:18:43.051Z</time></trkpt><trkpt lat="40.7388203" lon="14.8649695"><ele>660.0</ele><time>2026-04-12T11:18:44.973Z</time></trkpt><trkpt lat="40.738785" lon="14.8648881"><ele>660.0</ele><time>2026-04-12T11:18:49.968Z</time></trkpt><trkpt lat="40.7387583" lon="14.8649723"><ele>660.0</ele><time>2026-04-12T11:18:52.974Z</time></trkpt><trkpt lat="40.7387355" lon="14.8650985"><ele>660.0</ele><time>2026-04-12T11:18:54.985Z</time></trkpt><trkpt lat="40.7386561" lon="14.865208"><ele>660.0</ele><time>2026-04-12T11:18:57.014Z</time></trkpt><trkpt lat="40.7385931" lon="14.8652725"><ele>655.1666666666666</ele><time>2026-04-12T11:18:57.981Z</time></trkpt><trkpt lat="40.7385256" lon="14.8653267"><ele>650.3333333333334</ele><time>2026-04-12T11:18:58.976Z</time></trkpt><trkpt lat="40.7384758" lon="14.8654294"><ele>645.5</ele><time>2026-04-12T11:19:00.965Z</time></trkpt><trkpt lat="40.7384594" lon="14.8655377"><ele>640.6666666666667</ele><time>2026-04-12T11:19:01.982Z</time></trkpt><trkpt lat="40.7384397" lon="14.8656203"><ele>635.8333333333334</ele><time>2026-04-12T11:19:02.979Z</time></trkpt><trkpt lat="40.7383999" lon="14.8656847"><ele>631.0</ele><time>2026-04-12T11:19:03.973Z</time></trkpt><trkpt lat="40.7383524" lon="14.8657604"><ele>631.0</ele><time>2026-04-12T11:19:04.977Z</time></trkpt><trkpt lat="40.7383053" lon="14.8658397"><ele>631.0</ele><time>2026-04-12T11:19:05.967Z</time></trkpt><trkpt lat="40.7382538" lon="14.8659179"><ele>631.0</ele><time>2026-04-12T11:19:06.971Z</time></trkpt><trkpt lat="40.7382065" lon="14.865989"><ele>631.0</ele><time>2026-04-12T11:19:07.966Z</time></trkpt><trkpt lat="40.7381391" lon="14.8660749"><ele>631.0</ele><time>2026-04-12T11:19:09.951Z</time></trkpt><trkpt lat="40.738019" lon="14.8662332"><ele>630.6</ele><time>2026-04-12T11:19:11.974Z</time></trkpt><trkpt lat="40.7379236" lon="14.8662943"><ele>630.2</ele><time>2026-04-12T11:19:12.975Z</time></trkpt><trkpt lat="40.7378363" lon="14.8663476"><ele>629.8</ele><time>2026-04-12T11:19:13.963Z</time></trkpt><trkpt lat="40.7377444" lon="14.8663899"><ele>629.4</ele><time>2026-04-12T11:19:14.976Z</time></trkpt><trkpt lat="40.7376367" lon="14.8664105"><ele>629.0</ele><time>2026-04-12T11:19:15.966Z</time></trkpt><trkpt lat="40.7374245" lon="14.8664438"><ele>629.0</ele><time>2026-04-12T11:19:16.969Z</time></trkpt><trkpt lat="40.7372994" lon="14.8664669"><ele>629.0</ele><time>2026-04-12T11:19:17.975Z</time></trkpt><trkpt lat="40.7372161" lon="14.8664979"><ele>629.0</ele><time>2026-04-12T11:19:18.981Z</time></trkpt><trkpt lat="40.7371511" lon="14.8665262"><ele>629.0</ele><time>2026-04-12T11:19:19.981Z</time></trkpt><trkpt lat="40.7370748" lon="14.8666273"><ele>629.0</ele><time>2026-04-12T11:19:21.978Z</time></trkpt><trkpt lat="40.7370245" lon="14.8666884"><ele>632.6</ele><time>2026-04-12T11:19:23.977Z</time></trkpt><trkpt lat="40.736978" lon="14.8668801"><ele>636.2</ele><time>2026-04-12T11:19:25.985Z</time></trkpt><trkpt lat="40.7369517" lon="14.8670032"><ele>639.8000000000001</ele><time>2026-04-12T11:19:26.977Z</time></trkpt><trkpt lat="40.7369151" lon="14.8671068"><ele>643.4</ele><time>2026-04-12T11:19:27.971Z</time></trkpt><trkpt lat="40.7368466" lon="14.8672138"><ele>647.0</ele><time>2026-04-12T11:19:28.972Z</time></trkpt><trkpt lat="40.736771" lon="14.8673106"><ele>647.0</ele><time>2026-04-12T11:19:29.976Z</time></trkpt><trkpt lat="40.7367197" lon="14.8673877"><ele>647.0</ele><time>2026-04-12T11:19:30.981Z</time></trkpt><trkpt lat="40.7366916" lon="14.8674816"><ele>647.0</ele><time>2026-04-12T11:19:31.979Z</time></trkpt><trkpt lat="40.736681" lon="14.8675752"><ele>647.0</ele><time>2026-04-12T11:19:32.975Z</time></trkpt><trkpt lat="40.7366741" lon="14.8676622"><ele>647.0</ele><time>2026-04-12T11:19:33.98Z</time></trkpt><trkpt lat="40.7366336" lon="14.8677363"><ele>647.0</ele><time>2026-04-12T11:19:35.972Z</time></trkpt><trkpt lat="40.7365786" lon="14.8678344"><ele>643.6</ele><time>2026-04-12T11:19:38.969Z</time></trkpt><trkpt lat="40.7365706" lon="14.8680141"><ele>640.2</ele><time>2026-04-12T11:19:40.968Z</time></trkpt><trkpt lat="40.7365545" lon="14.8681409"><ele>636.8</ele><time>2026-04-12T11:19:41.975Z</time></trkpt><trkpt lat="40.7365568" lon="14.8682487"><ele>633.4</ele><time>2026-04-12T11:19:42.983Z</time></trkpt><trkpt lat="40.7365628" lon="14.8683529"><ele>630.0</ele><time>2026-04-12T11:19:43.957Z</time></trkpt><trkpt lat="40.7365662" lon="14.868456"><ele>627.4</ele><time>2026-04-12T11:19:44.972Z</time></trkpt><trkpt lat="40.7365697" lon="14.8685706"><ele>624.8</ele><time>2026-04-12T11:19:45.967Z</time></trkpt><trkpt lat="40.7365654" lon="14.8686831"><ele>622.2</ele><time>2026-04-12T11:19:46.973Z</time></trkpt><trkpt lat="40.7365362" lon="14.8687701"><ele>619.6</ele><time>2026-04-12T11:19:47.977Z</time></trkpt><trkpt lat="40.7364708" lon="14.8688663"><ele>617.0</ele><time>2026-04-12T11:19:48.974Z</time></trkpt><trkpt lat="40.7363659" lon="14.8689552"><ele>617.0</ele><time>2026-04-12T11:19:49.957Z</time></trkpt><trkpt lat="40.7362546" lon="14.869016"><ele>617.0</ele><time>2026-04-12T11:19:50.973Z</time></trkpt><trkpt lat="40.7361493" lon="14.8690468"><ele>617.0</ele><time>2026-04-12T11:19:51.97Z</time></trkpt><trkpt lat="40.7360679" lon="14.8690406"><ele>617.0</ele><time>2026-04-12T11:19:52.973Z</time></trkpt><trkpt lat="40.7359622" lon="14.8691289"><ele>617.0</ele><time>2026-04-12T11:19:55.98Z</time></trkpt><trkpt lat="40.7359148" lon="14.8691915"><ele>615.4</ele><time>2026-04-12T11:19:56.97Z</time></trkpt><trkpt lat="40.7358496" lon="14.8692708"><ele>613.8000000000001</ele><time>2026-04-12T11:19:57.97Z</time></trkpt><trkpt lat="40.7357822" lon="14.8693229"><ele>612.2</ele><time>2026-04-12T11:19:59.975Z</time></trkpt><trkpt lat="40.7357554" lon="14.8694358"><ele>610.6</ele><time>2026-04-12T11:20:01.98Z</time></trkpt><trkpt lat="40.7356749" lon="14.8695652"><ele>609.0</ele><time>2026-04-12T11:20:03.982Z</time></trkpt><trkpt lat="40.7356241" lon="14.8696674"><ele>609.0</ele><time>2026-04-12T11:20:04.991Z</time></trkpt><trkpt lat="40.7355615" lon="14.8697813"><ele>609.0</ele><time>2026-04-12T11:20:06.967Z</time></trkpt><trkpt lat="40.7354626" lon="14.8699036"><ele>609.0</ele><time>2026-04-12T11:20:08.979Z</time></trkpt><trkpt lat="40.7354058" lon="14.869991"><ele>609.0</ele><time>2026-04-12T11:20:09.987Z</time></trkpt><trkpt lat="40.7353514" lon="14.8700602"><ele>609.0</ele><time>2026-04-12T11:20:10.982Z</time></trkpt><trkpt lat="40.73528" lon="14.8701464"><ele>617.3333333333334</ele><time>2026-04-12T11:20:11.965Z</time></trkpt><trkpt lat="40.7351858" lon="14.8702633"><ele>625.6666666666667</ele><time>2026-04-12T11:20:12.977Z</time></trkpt><trkpt lat="40.7350535" lon="14.8704558"><ele>634.0</ele><time>2026-04-12T11:20:13.974Z</time></trkpt><trkpt lat="40.7349101" lon="14.8706515"><ele>634.0</ele><time>2026-04-12T11:20:14.979Z</time></trkpt><trkpt lat="40.7347809" lon="14.8707758"><ele>634.0</ele><time>2026-04-12T11:20:15.964Z</time></trkpt><trkpt lat="40.73465" lon="14.870825"><ele>634.0</ele><time>2026-04-12T11:20:16.975Z</time></trkpt><trkpt lat="40.734555" lon="14.8708397"><ele>634.0</ele><time>2026-04-12T11:20:17.955Z</time></trkpt><trkpt lat="40.7344721" lon="14.8708368"><ele>634.0</ele><time>2026-04-12T11:20:18.98Z</time></trkpt><trkpt lat="40.7344093" lon="14.8707979"><ele>634.0</ele><time>2026-04-12T11:20:19.954Z</time></trkpt><trkpt lat="40.7343426" lon="14.8707455"><ele>634.0</ele><time>2026-04-12T11:20:20.987Z</time></trkpt><trkpt lat="40.7342837" lon="14.8706914"><ele>634.0</ele><time>2026-04-12T11:20:21.973Z</time></trkpt><trkpt lat="40.734186" lon="14.8706154"><ele>634.0</ele><time>2026-04-12T11:20:23.972Z</time></trkpt><trkpt lat="40.7341166" lon="14.8705267"><ele>634.0</ele><time>2026-04-12T11:20:25.973Z</time></trkpt><trkpt lat="40.7340884" lon="14.8703463"><ele>634.6</ele><time>2026-04-12T11:20:27.968Z</time></trkpt><trkpt lat="40.7340627" lon="14.8702414"><ele>635.2</ele><time>2026-04-12T11:20:28.974Z</time></trkpt><trkpt lat="40.734037" lon="14.8701447"><ele>635.8000000000001</ele><time>2026-04-12T11:20:29.985Z</time></trkpt><trkpt lat="40.733987" lon="14.8700255"><ele>636.4</ele><time>2026-04-12T11:20:31.981Z</time></trkpt><trkpt lat="40.7338752" lon="14.8699903"><ele>637.0</ele><time>2026-04-12T11:20:33.981Z</time></trkpt><trkpt lat="40.733748" lon="14.8699989"><ele>637.0</ele><time>2026-04-12T11:20:35.971Z</time></trkpt><trkpt lat="40.7336359" lon="14.8700643"><ele>637.0</ele><time>2026-04-12T11:20:37.973Z</time></trkpt><trkpt lat="40.7335824" lon="14.8701196"><ele>637.0</ele><time>2026-04-12T11:20:38.971Z</time></trkpt><trkpt lat="40.7334717" lon="14.8701339"><ele>637.0</ele><time>2026-04-12T11:20:40.979Z</time></trkpt><trkpt lat="40.7334167" lon="14.8700875"><ele>637.0</ele><time>2026-04-12T11:20:41.979Z</time></trkpt><trkpt lat="40.733344" lon="14.8700653"><ele>637.0</ele><time>2026-04-12T11:20:42.984Z</time></trkpt><trkpt lat="40.7332097" lon="14.8701688"><ele>635.0</ele><time>2026-04-12T11:20:45.968Z</time></trkpt><trkpt lat="40.7331778" lon="14.8702457"><ele>633.0</ele><time>2026-04-12T11:20:46.976Z</time></trkpt><trkpt lat="40.7331399" lon="14.8703379"><ele>631.0</ele><time>2026-04-12T11:20:48.039Z</time></trkpt><trkpt lat="40.7330365" lon="14.8704461"><ele>629.0</ele><time>2026-04-12T11:20:49.972Z</time></trkpt><trkpt lat="40.7329624" lon="14.8705181"><ele>627.0</ele><time>2026-04-12T11:20:50.975Z</time></trkpt><trkpt lat="40.7329071" lon="14.8706033"><ele>627.0</ele><time>2026-04-12T11:20:51.983Z</time></trkpt><trkpt lat="40.7328515" lon="14.8706972"><ele>627.0</ele><time>2026-04-12T11:20:52.98Z</time></trkpt><trkpt lat="40.7327962" lon="14.8707849"><ele>627.0</ele><time>2026-04-12T11:20:54.043Z</time></trkpt><trkpt lat="40.7327564" lon="14.8708841"><ele>627.0</ele><time>2026-04-12T11:20:54.984Z</time></trkpt><trkpt lat="40.7326893" lon="14.8709524"><ele>627.0</ele><time>2026-04-12T11:20:55.972Z</time></trkpt><trkpt lat="40.7325985" lon="14.8709955"><ele>627.0</ele><time>2026-04-12T11:20:57.032Z</time></trkpt><trkpt lat="40.7324988" lon="14.8710512"><ele>628.0</ele><time>2026-04-12T11:20:58.028Z</time></trkpt><trkpt lat="40.7324104" lon="14.8710946"><ele>629.0</ele><time>2026-04-12T11:20:58.98Z</time></trkpt><trkpt lat="40.7323172" lon="14.8711248"><ele>630.0</ele><time>2026-04-12T11:20:59.969Z</time></trkpt><trkpt lat="40.7322235" lon="14.8711549"><ele>631.0</ele><time>2026-04-12T11:21:00.975Z</time></trkpt><trkpt lat="40.7321269" lon="14.8711926"><ele>632.0</ele><time>2026-04-12T11:21:01.986Z</time></trkpt><trkpt lat="40.7320265" lon="14.8711952"><ele>632.0</ele><time>2026-04-12T11:21:02.979Z</time></trkpt><trkpt lat="40.7319297" lon="14.8711802"><ele>632.0</ele><time>2026-04-12T11:21:04.05Z</time></trkpt><trkpt lat="40.7318366" lon="14.8711728"><ele>632.0</ele><time>2026-04-12T11:21:04.973Z</time></trkpt><trkpt lat="40.7317604" lon="14.871183"><ele>632.0</ele><time>2026-04-12T11:21:06.049Z</time></trkpt><trkpt lat="40.7317011" lon="14.8712152"><ele>632.0</ele><time>2026-04-12T11:21:07.037Z</time></trkpt><trkpt lat="40.7316522" lon="14.8712853"><ele>632.0</ele><time>2026-04-12T11:21:08.045Z</time></trkpt><trkpt lat="40.7316057" lon="14.8713845"><ele>632.0</ele><time>2026-04-12T11:21:09.04Z</time></trkpt><trkpt lat="40.7315661" lon="14.8715086"><ele>632.0</ele><time>2026-04-12T11:21:09.964Z</time></trkpt><trkpt lat="40.7315247" lon="14.8716233"><ele>632.0</ele><time>2026-04-12T11:21:10.979Z</time></trkpt><trkpt lat="40.7314683" lon="14.871728"><ele>632.0</ele><time>2026-04-12T11:21:11.986Z</time></trkpt><trkpt lat="40.7314117" lon="14.8718331"><ele>632.0</ele><time>2026-04-12T11:21:13.005Z</time></trkpt><trkpt lat="40.7313578" lon="14.8719443"><ele>632.0</ele><time>2026-04-12T11:21:13.966Z</time></trkpt><trkpt lat="40.7312981" lon="14.8720456"><ele>632.0</ele><time>2026-04-12T11:21:14.978Z</time></trkpt><trkpt lat="40.7312458" lon="14.8721357"><ele>632.0</ele><time>2026-04-12T11:21:15.981Z</time></trkpt><trkpt lat="40.7312057" lon="14.8722001"><ele>632.0</ele><time>2026-04-12T11:21:16.961Z</time></trkpt><trkpt lat="40.7311525" lon="14.8722511"><ele>632.0</ele><time>2026-04-12T11:21:20.986Z</time></trkpt><trkpt lat="40.7310991" lon="14.8721124"><ele>632.0</ele><time>2026-04-12T11:21:23.034Z</time></trkpt><trkpt lat="40.7310681" lon="14.8719927"><ele>631.1428571428572</ele><time>2026-04-12T11:21:23.98Z</time></trkpt><trkpt lat="40.7310352" lon="14.8718966"><ele>630.2857142857143</ele><time>2026-04-12T11:21:24.972Z</time></trkpt><trkpt lat="40.7310068" lon="14.8718098"><ele>629.4285714285714</ele><time>2026-04-12T11:21:25.981Z</time></trkpt><trkpt lat="40.7310024" lon="14.8717211"><ele>628.5714285714287</ele><time>2026-04-12T11:21:26.974Z</time></trkpt><trkpt lat="40.7310292" lon="14.8716354"><ele>627.7142857142858</ele><time>2026-04-12T11:21:27.978Z</time></trkpt><trkpt lat="40.7310523" lon="14.8715296"><ele>626.8571428571429</ele><time>2026-04-12T11:21:28.991Z</time></trkpt><trkpt lat="40.7310639" lon="14.8714479"><ele>626.0</ele><time>2026-04-12T11:21:29.99Z</time></trkpt><trkpt lat="40.7310561" lon="14.8713625"><ele>626.0</ele><time>2026-04-12T11:21:31.04Z</time></trkpt><trkpt lat="40.7310524" lon="14.8712087"><ele>626.0</ele><time>2026-04-12T11:21:33.038Z</time></trkpt><trkpt lat="40.7310663" lon="14.8711148"><ele>626.0</ele><time>2026-04-12T11:21:34.045Z</time></trkpt><trkpt lat="40.7310885" lon="14.8710087"><ele>626.0</ele><time>2026-04-12T11:21:34.977Z</time></trkpt><trkpt lat="40.731123" lon="14.8708824"><ele>626.0</ele><time>2026-04-12T11:21:35.975Z</time></trkpt><trkpt lat="40.731152" lon="14.8707853"><ele>625.6666666666666</ele><time>2026-04-12T11:21:36.984Z</time></trkpt><trkpt lat="40.7311806" lon="14.8706683"><ele>625.3333333333333</ele><time>2026-04-12T11:21:38.042Z</time></trkpt><trkpt lat="40.7311883" lon="14.8705673"><ele>625.0</ele><time>2026-04-12T11:21:39.049Z</time></trkpt><trkpt lat="40.7312094" lon="14.8704772"><ele>624.6666666666666</ele><time>2026-04-12T11:21:39.971Z</time></trkpt><trkpt lat="40.7312885" lon="14.8703705"><ele>624.3333333333334</ele><time>2026-04-12T11:21:41.981Z</time></trkpt><trkpt lat="40.731196" lon="14.8703502"><ele>624.0</ele><time>2026-04-12T11:21:45.974Z</time></trkpt><trkpt lat="40.7311046" lon="14.8703827"><ele>616.75</ele><time>2026-04-12T11:21:46.969Z</time></trkpt><trkpt lat="40.7309845" lon="14.8704363"><ele>609.5</ele><time>2026-04-12T11:21:47.967Z</time></trkpt><trkpt lat="40.7308748" lon="14.8704996"><ele>602.25</ele><time>2026-04-12T11:21:48.976Z</time></trkpt><trkpt lat="40.730773" lon="14.8705727"><ele>595.0</ele><time>2026-04-12T11:21:49.972Z</time></trkpt><trkpt lat="40.7306758" lon="14.8706355"><ele>595.0</ele><time>2026-04-12T11:21:50.973Z</time></trkpt><trkpt lat="40.7305643" lon="14.8706768"><ele>595.0</ele><time>2026-04-12T11:21:51.976Z</time></trkpt><trkpt lat="40.7304381" lon="14.8707036"><ele>595.0</ele><time>2026-04-12T11:21:52.989Z</time></trkpt><trkpt lat="40.7303238" lon="14.8707393"><ele>595.0</ele><time>2026-04-12T11:21:53.974Z</time></trkpt><trkpt lat="40.7301974" lon="14.8708134"><ele>594.0</ele><time>2026-04-12T11:21:54.977Z</time></trkpt><trkpt lat="40.7300799" lon="14.8708897"><ele>593.0</ele><time>2026-04-12T11:21:55.968Z</time></trkpt><trkpt lat="40.7299696" lon="14.870959"><ele>592.0</ele><time>2026-04-12T11:21:56.971Z</time></trkpt><trkpt lat="40.7298425" lon="14.871028"><ele>591.0</ele><time>2026-04-12T11:21:57.974Z</time></trkpt><trkpt lat="40.7297201" lon="14.8710951"><ele>585.75</ele><time>2026-04-12T11:21:58.972Z</time></trkpt><trkpt lat="40.7296059" lon="14.8711645"><ele>580.5</ele><time>2026-04-12T11:21:59.974Z</time></trkpt><trkpt lat="40.7294977" lon="14.8712408"><ele>575.25</ele><time>2026-04-12T11:22:00.973Z</time></trkpt><trkpt lat="40.7293982" lon="14.8713122"><ele>570.0</ele><time>2026-04-12T11:22:01.962Z</time></trkpt><trkpt lat="40.7293055" lon="14.8713858"><ele>568.5</ele><time>2026-04-12T11:22:02.964Z</time></trkpt><trkpt lat="40.7292074" lon="14.8714697"><ele>567.0</ele><time>2026-04-12T11:22:04.057Z</time></trkpt><trkpt lat="40.7291218" lon="14.8715701"><ele>565.5</ele><time>2026-04-12T11:22:04.96Z</time></trkpt><trkpt lat="40.7290369" lon="14.8716666"><ele>564.0</ele><time>2026-04-12T11:22:05.967Z</time></trkpt><trkpt lat="40.72895" lon="14.8717784"><ele>560.5</ele><time>2026-04-12T11:22:06.992Z</time></trkpt><trkpt lat="40.7288536" lon="14.8718825"><ele>557.0</ele><time>2026-04-12T11:22:08.038Z</time></trkpt><trkpt lat="40.7287597" lon="14.8719787"><ele>553.5</ele><time>2026-04-12T11:22:09.044Z</time></trkpt><trkpt lat="40.7286662" lon="14.872078"><ele>550.0</ele><time>2026-04-12T11:22:09.964Z</time></trkpt><trkpt lat="40.7285719" lon="14.8721693"><ele>550.4</ele><time>2026-04-12T11:22:10.972Z</time></trkpt><trkpt lat="40.7284827" lon="14.8722623"><ele>550.8</ele><time>2026-04-12T11:22:11.981Z</time></trkpt><trkpt lat="40.7283994" lon="14.8723571"><ele>551.2</ele><time>2026-04-12T11:22:13.032Z</time></trkpt><trkpt lat="40.7283187" lon="14.8724527"><ele>551.6</ele><time>2026-04-12T11:22:14.035Z</time></trkpt><trkpt lat="40.7282468" lon="14.8725534"><ele>552.0</ele><time>2026-04-12T11:22:14.974Z</time></trkpt><trkpt lat="40.7281818" lon="14.8726617"><ele>547.4</ele><time>2026-04-12T11:22:15.981Z</time></trkpt><trkpt lat="40.7281174" lon="14.8727634"><ele>542.8000000000001</ele><time>2026-04-12T11:22:17.004Z</time></trkpt><trkpt lat="40.7280535" lon="14.8728625"><ele>538.2</ele><time>2026-04-12T11:22:18.035Z</time></trkpt><trkpt lat="40.7279895" lon="14.8729615"><ele>533.6</ele><time>2026-04-12T11:22:19.029Z</time></trkpt><trkpt lat="40.7279249" lon="14.8730665"><ele>529.0</ele><time>2026-04-12T11:22:19.969Z</time></trkpt><trkpt lat="40.7278673" lon="14.8731615"><ele>529.0</ele><time>2026-04-12T11:22:20.971Z</time></trkpt><trkpt lat="40.7278061" lon="14.8732639"><ele>529.0</ele><time>2026-04-12T11:22:22.07Z</time></trkpt><trkpt lat="40.7277548" lon="14.8733575"><ele>529.0</ele><time>2026-04-12T11:22:23.028Z</time></trkpt><trkpt lat="40.7276853" lon="14.8734523"><ele>529.0</ele><time>2026-04-12T11:22:24.045Z</time></trkpt><trkpt lat="40.7276225" lon="14.8735449"><ele>529.0</ele><time>2026-04-12T11:22:24.973Z</time></trkpt><trkpt lat="40.7275521" lon="14.8736261"><ele>523.8</ele><time>2026-04-12T11:22:25.96Z</time></trkpt><trkpt lat="40.7274718" lon="14.8737181"><ele>518.5999999999999</ele><time>2026-04-12T11:22:26.968Z</time></trkpt><trkpt lat="40.7273847" lon="14.8737986"><ele>513.4</ele><time>2026-04-12T11:22:28.065Z</time></trkpt><trkpt lat="40.7272861" lon="14.8738883"><ele>508.2</ele><time>2026-04-12T11:22:28.972Z</time></trkpt><trkpt lat="40.7271931" lon="14.8739743"><ele>503.0</ele><time>2026-04-12T11:22:29.969Z</time></trkpt><trkpt lat="40.7271073" lon="14.8740418"><ele>502.99999999999994</ele><time>2026-04-12T11:22:30.951Z</time></trkpt><trkpt lat="40.7270366" lon="14.8740929"><ele>503.0</ele><time>2026-04-12T11:22:31.955Z</time></trkpt><trkpt lat="40.7269262" lon="14.8741142"><ele>503.0</ele><time>2026-04-12T11:22:33.965Z</time></trkpt><trkpt lat="40.7268624" lon="14.8741033"><ele>503.0</ele><time>2026-04-12T11:22:35.031Z</time></trkpt><trkpt lat="40.7267964" lon="14.8740848"><ele>502.99999999999994</ele><time>2026-04-12T11:22:36.942Z</time></trkpt><trkpt lat="40.7266893" lon="14.8740189"><ele>503.0</ele><time>2026-04-12T11:22:38.962Z</time></trkpt><trkpt lat="40.7266176" lon="14.8740008"><ele>502.66666666666663</ele><time>2026-04-12T11:22:39.951Z</time></trkpt><trkpt lat="40.7265521" lon="14.8740219"><ele>502.3333333333333</ele><time>2026-04-12T11:22:40.954Z</time></trkpt><trkpt lat="40.7265214" lon="14.8741158"><ele>502.0</ele><time>2026-04-12T11:22:42.955Z</time></trkpt><trkpt lat="40.7265434" lon="14.8742083"><ele>501.66666666666663</ele><time>2026-04-12T11:22:44.974Z</time></trkpt><trkpt lat="40.7266024" lon="14.8743159"><ele>501.3333333333333</ele><time>2026-04-12T11:22:46.944Z</time></trkpt><trkpt lat="40.7266772" lon="14.8743933"><ele>501.0</ele><time>2026-04-12T11:22:48.969Z</time></trkpt><trkpt lat="40.7267285" lon="14.8744948"><ele>496.0</ele><time>2026-04-12T11:22:50.946Z</time></trkpt><trkpt lat="40.726702" lon="14.8746075"><ele>491.0</ele><time>2026-04-12T11:22:52.962Z</time></trkpt><trkpt lat="40.7266492" lon="14.8746594"><ele>486.0</ele><time>2026-04-12T11:22:53.961Z</time></trkpt><trkpt lat="40.7265379" lon="14.8747049"><ele>481.0</ele><time>2026-04-12T11:22:55.973Z</time></trkpt><trkpt lat="40.7264025" lon="14.8746903"><ele>476.0</ele><time>2026-04-12T11:22:57.976Z</time></trkpt><trkpt lat="40.7263241" lon="14.8746619"><ele>476.0</ele><time>2026-04-12T11:22:58.969Z</time></trkpt><trkpt lat="40.7262412" lon="14.8745926"><ele>476.0</ele><time>2026-04-12T11:22:59.968Z</time></trkpt><trkpt lat="40.7261741" lon="14.8745001"><ele>476.0</ele><time>2026-04-12T11:23:00.969Z</time></trkpt><trkpt lat="40.726112" lon="14.8743806"><ele>476.0</ele><time>2026-04-12T11:23:01.973Z</time></trkpt><trkpt lat="40.7260599" lon="14.8742675"><ele>476.0</ele><time>2026-04-12T11:23:02.966Z</time></trkpt><trkpt lat="40.7260124" lon="14.8741458"><ele>473.4</ele><time>2026-04-12T11:23:03.967Z</time></trkpt><trkpt lat="40.7259717" lon="14.874022"><ele>470.8</ele><time>2026-04-12T11:23:04.966Z</time></trkpt><trkpt lat="40.725937" lon="14.8738919"><ele>468.19999999999993</ele><time>2026-04-12T11:23:05.969Z</time></trkpt><trkpt lat="40.7259012" lon="14.8737481"><ele>465.59999999999997</ele><time>2026-04-12T11:23:06.967Z</time></trkpt><trkpt lat="40.7258714" lon="14.8735962"><ele>463.0</ele><time>2026-04-12T11:23:07.977Z</time></trkpt><trkpt lat="40.7258462" lon="14.8734542"><ele>464.0</ele><time>2026-04-12T11:23:08.946Z</time></trkpt><trkpt lat="40.7258125" lon="14.8733168"><ele>464.99999999999994</ele><time>2026-04-12T11:23:09.975Z</time></trkpt><trkpt lat="40.7257816" lon="14.8731886"><ele>465.99999999999994</ele><time>2026-04-12T11:23:10.955Z</time></trkpt><trkpt lat="40.7257588" lon="14.8730595"><ele>467.0</ele><time>2026-04-12T11:23:11.958Z</time></trkpt><trkpt lat="40.7257331" lon="14.8729383"><ele>468.0</ele><time>2026-04-12T11:23:12.966Z</time></trkpt><trkpt lat="40.7257121" lon="14.8728134"><ele>468.0</ele><time>2026-04-12T11:23:13.956Z</time></trkpt><trkpt lat="40.7257017" lon="14.8726929"><ele>468.0</ele><time>2026-04-12T11:23:14.959Z</time></trkpt><trkpt lat="40.7256898" lon="14.8725761"><ele>468.0</ele><time>2026-04-12T11:23:15.974Z</time></trkpt><trkpt lat="40.725683" lon="14.8724653"><ele>468.0</ele><time>2026-04-12T11:23:16.957Z</time></trkpt><trkpt lat="40.7256725" lon="14.8723623"><ele>468.0</ele><time>2026-04-12T11:23:17.96Z</time></trkpt><trkpt lat="40.7256551" lon="14.8722641"><ele>468.0</ele><time>2026-04-12T11:23:18.967Z</time></trkpt><trkpt lat="40.725636" lon="14.8721823"><ele>467.5</ele><time>2026-04-12T11:23:19.953Z</time></trkpt><trkpt lat="40.7256211" lon="14.8721007"><ele>467.0</ele><time>2026-04-12T11:23:20.969Z</time></trkpt><trkpt lat="40.7256033" lon="14.8720156"><ele>466.5</ele><time>2026-04-12T11:23:21.966Z</time></trkpt><trkpt lat="40.725533" lon="14.8719578"><ele>466.0</ele><time>2026-04-12T11:23:23.95Z</time></trkpt><trkpt lat="40.7254754" lon="14.8718653"><ele>465.5</ele><time>2026-04-12T11:23:25.977Z</time></trkpt><trkpt lat="40.7254173" lon="14.8716918"><ele>465.0</ele><time>2026-04-12T11:23:27.949Z</time></trkpt><trkpt lat="40.7253875" lon="14.8715794"><ele>464.0</ele><time>2026-04-12T11:23:28.968Z</time></trkpt><trkpt lat="40.7253583" lon="14.8714635"><ele>463.0</ele><time>2026-04-12T11:23:29.945Z</time></trkpt><trkpt lat="40.7253289" lon="14.8713635"><ele>462.0</ele><time>2026-04-12T11:23:30.964Z</time></trkpt><trkpt lat="40.7253049" lon="14.8712503"><ele>461.0</ele><time>2026-04-12T11:23:31.948Z</time></trkpt><trkpt lat="40.7252789" lon="14.8711294"><ele>460.0</ele><time>2026-04-12T11:23:32.963Z</time></trkpt><trkpt lat="40.7252164" lon="14.8710701"><ele>459.0</ele><time>2026-04-12T11:23:33.949Z</time></trkpt><trkpt lat="40.7251142" lon="14.871049"><ele>454.5</ele><time>2026-04-12T11:23:34.969Z</time></trkpt><trkpt lat="40.7249895" lon="14.8710258"><ele>450.0</ele><time>2026-04-12T11:23:35.952Z</time></trkpt><trkpt lat="40.7248703" lon="14.8709725"><ele>445.5</ele><time>2026-04-12T11:23:36.96Z</time></trkpt><trkpt lat="40.7247646" lon="14.8709357"><ele>441.0</ele><time>2026-04-12T11:23:37.973Z</time></trkpt><trkpt lat="40.724667" lon="14.8708958"><ele>441.0</ele><time>2026-04-12T11:23:38.959Z</time></trkpt><trkpt lat="40.7245763" lon="14.8708633"><ele>441.0</ele><time>2026-04-12T11:23:39.961Z</time></trkpt><trkpt lat="40.7244854" lon="14.8708621"><ele>441.0</ele><time>2026-04-12T11:23:40.944Z</time></trkpt><trkpt lat="40.7243968" lon="14.8708668"><ele>441.0</ele><time>2026-04-12T11:23:41.953Z</time></trkpt><trkpt lat="40.7243036" lon="14.8708721"><ele>441.0</ele><time>2026-04-12T11:23:42.951Z</time></trkpt><trkpt lat="40.7242019" lon="14.8708715"><ele>439.5</ele><time>2026-04-12T11:23:43.95Z</time></trkpt><trkpt lat="40.7241212" lon="14.8708648"><ele>438.0</ele><time>2026-04-12T11:23:44.949Z</time></trkpt><trkpt lat="40.7240373" lon="14.870845"><ele>436.5</ele><time>2026-04-12T11:23:45.965Z</time></trkpt><trkpt lat="40.7239569" lon="14.8708274"><ele>435.0</ele><time>2026-04-12T11:23:46.978Z</time></trkpt><trkpt lat="40.7238816" lon="14.8707792"><ele>433.5</ele><time>2026-04-12T11:23:47.956Z</time></trkpt><trkpt lat="40.7237881" lon="14.8707186"><ele>432.0</ele><time>2026-04-12T11:23:48.963Z</time></trkpt><trkpt lat="40.7237059" lon="14.8706564"><ele>432.0</ele><time>2026-04-12T11:23:49.971Z</time></trkpt><trkpt lat="40.7236292" lon="14.8705908"><ele>432.0</ele><time>2026-04-12T11:23:50.97Z</time></trkpt><trkpt lat="40.7235582" lon="14.8705304"><ele>432.0</ele><time>2026-04-12T11:23:51.968Z</time></trkpt><trkpt lat="40.7235043" lon="14.8704768"><ele>432.0</ele><time>2026-04-12T11:23:52.971Z</time></trkpt><trkpt lat="40.7233956" lon="14.8704711"><ele>432.0</ele><time>2026-04-12T11:23:54.98Z</time></trkpt><trkpt lat="40.7233142" lon="14.8705382"><ele>432.0</ele><time>2026-04-12T11:23:56.968Z</time></trkpt><trkpt lat="40.7232576" lon="14.8705804"><ele>429.6666666666667</ele><time>2026-04-12T11:23:58.974Z</time></trkpt><trkpt lat="40.7231515" lon="14.8705712"><ele>427.33333333333337</ele><time>2026-04-12T11:24:00.967Z</time></trkpt><trkpt lat="40.7230933" lon="14.8706319"><ele>425.0</ele><time>2026-04-12T11:24:02.974Z</time></trkpt><trkpt lat="40.7230582" lon="14.8707392"><ele>422.6666666666667</ele><time>2026-04-12T11:24:04.969Z</time></trkpt><trkpt lat="40.7230016" lon="14.8707787"><ele>420.33333333333337</ele><time>2026-04-12T11:24:05.973Z</time></trkpt><trkpt lat="40.7229284" lon="14.8708404"><ele>418.0</ele><time>2026-04-12T11:24:06.969Z</time></trkpt><trkpt lat="40.7228615" lon="14.8709053"><ele>415.79999999999995</ele><time>2026-04-12T11:24:07.972Z</time></trkpt><trkpt lat="40.722794" lon="14.8709993"><ele>413.6</ele><time>2026-04-12T11:24:08.971Z</time></trkpt><trkpt lat="40.7227326" lon="14.8710824"><ele>411.4</ele><time>2026-04-12T11:24:09.963Z</time></trkpt><trkpt lat="40.7226839" lon="14.8711458"><ele>409.20000000000005</ele><time>2026-04-12T11:24:10.972Z</time></trkpt><trkpt lat="40.7226235" lon="14.871249"><ele>407.0</ele><time>2026-04-12T11:24:12.981Z</time></trkpt><trkpt lat="40.7224869" lon="14.8712823"><ele>405.8</ele><time>2026-04-12T11:24:16.973Z</time></trkpt><trkpt lat="40.7223982" lon="14.8712356"><ele>404.6</ele><time>2026-04-12T11:24:17.962Z</time></trkpt><trkpt lat="40.7222904" lon="14.8712078"><ele>403.40000000000003</ele><time>2026-04-12T11:24:18.973Z</time></trkpt><trkpt lat="40.7221839" lon="14.8711977"><ele>402.20000000000005</ele><time>2026-04-12T11:24:19.971Z</time></trkpt><trkpt lat="40.7220662" lon="14.8711763"><ele>401.0</ele><time>2026-04-12T11:24:20.95Z</time></trkpt><trkpt lat="40.7219548" lon="14.8711442"><ele>398.6</ele><time>2026-04-12T11:24:21.971Z</time></trkpt><trkpt lat="40.7218365" lon="14.8711327"><ele>396.20000000000005</ele><time>2026-04-12T11:24:22.951Z</time></trkpt><trkpt lat="40.7217188" lon="14.8711351"><ele>393.79999999999995</ele><time>2026-04-12T11:24:23.98Z</time></trkpt><trkpt lat="40.7216096" lon="14.8711452"><ele>391.4</ele><time>2026-04-12T11:24:24.963Z</time></trkpt><trkpt lat="40.7215169" lon="14.8711546"><ele>389.0</ele><time>2026-04-12T11:24:25.967Z</time></trkpt><trkpt lat="40.7214222" lon="14.8711502"><ele>388.99999999999994</ele><time>2026-04-12T11:24:26.958Z</time></trkpt><trkpt lat="40.7213181" lon="14.8711422"><ele>389.0</ele><time>2026-04-12T11:24:27.973Z</time></trkpt><trkpt lat="40.7212291" lon="14.8710978"><ele>389.0</ele><time>2026-04-12T11:24:28.979Z</time></trkpt><trkpt lat="40.7211788" lon="14.8710467"><ele>389.0</ele><time>2026-04-12T11:24:29.974Z</time></trkpt><trkpt lat="40.7210953" lon="14.8710165"><ele>388.99999999999994</ele><time>2026-04-12T11:24:31.969Z</time></trkpt><trkpt lat="40.7210534" lon="14.8711303"><ele>389.0</ele><time>2026-04-12T11:24:34.978Z</time></trkpt><trkpt lat="40.7210666" lon="14.8712263"><ele>389.0</ele><time>2026-04-12T11:24:35.964Z</time></trkpt><trkpt lat="40.721072" lon="14.871355"><ele>389.0</ele><time>2026-04-12T11:24:36.968Z</time></trkpt><trkpt lat="40.7210959" lon="14.8715069"><ele>389.0</ele><time>2026-04-12T11:24:37.948Z</time></trkpt><trkpt lat="40.7211293" lon="14.8716644"><ele>389.0</ele><time>2026-04-12T11:24:38.976Z</time></trkpt><trkpt lat="40.7211549" lon="14.8718163"><ele>387.6</ele><time>2026-04-12T11:24:39.958Z</time></trkpt><trkpt lat="40.7211979" lon="14.8719728"><ele>386.2</ele><time>2026-04-12T11:24:41.035Z</time></trkpt><trkpt lat="40.7212512" lon="14.8720893"><ele>384.8</ele><time>2026-04-12T11:24:42.038Z</time></trkpt><trkpt lat="40.7213138" lon="14.8721929"><ele>383.40000000000003</ele><time>2026-04-12T11:24:43.034Z</time></trkpt><trkpt lat="40.7213722" lon="14.8722903"><ele>382.0</ele><time>2026-04-12T11:24:43.963Z</time></trkpt><trkpt lat="40.7214196" lon="14.8723911"><ele>382.0</ele><time>2026-04-12T11:24:44.969Z</time></trkpt><trkpt lat="40.7214585" lon="14.8725102"><ele>382.0</ele><time>2026-04-12T11:24:45.972Z</time></trkpt><trkpt lat="40.7214874" lon="14.8726453"><ele>382.0</ele><time>2026-04-12T11:24:46.97Z</time></trkpt><trkpt lat="40.7215002" lon="14.8727801"><ele>382.0</ele><time>2026-04-12T11:24:47.968Z</time></trkpt><trkpt lat="40.7214975" lon="14.8729088"><ele>382.0</ele><time>2026-04-12T11:24:48.974Z</time></trkpt><trkpt lat="40.7214915" lon="14.8730472"><ele>380.3333333333333</ele><time>2026-04-12T11:24:49.978Z</time></trkpt><trkpt lat="40.7214836" lon="14.8731753"><ele>378.66666666666663</ele><time>2026-04-12T11:24:50.978Z</time></trkpt><trkpt lat="40.7214744" lon="14.8732996"><ele>377.0</ele><time>2026-04-12T11:24:51.98Z</time></trkpt><trkpt lat="40.7214868" lon="14.8734244"><ele>375.3333333333333</ele><time>2026-04-12T11:24:52.973Z</time></trkpt><trkpt lat="40.7215149" lon="14.8735352"><ele>373.6666666666667</ele><time>2026-04-12T11:24:53.97Z</time></trkpt><trkpt lat="40.7215348" lon="14.8736253"><ele>372.0</ele><time>2026-04-12T11:24:54.973Z</time></trkpt><trkpt lat="40.7214909" lon="14.873744"><ele>370.40000000000003</ele><time>2026-04-12T11:24:56.982Z</time></trkpt><trkpt lat="40.7214052" lon="14.8737546"><ele>368.8</ele><time>2026-04-12T11:24:58.081Z</time></trkpt><trkpt lat="40.7213205" lon="14.8737844"><ele>367.2</ele><time>2026-04-12T11:24:58.983Z</time></trkpt><trkpt lat="40.7212243" lon="14.8738171"><ele>365.6</ele><time>2026-04-12T11:24:59.959Z</time></trkpt><trkpt lat="40.7211303" lon="14.8738491"><ele>364.0</ele><time>2026-04-12T11:25:00.976Z</time></trkpt><trkpt lat="40.7210434" lon="14.87389"><ele>361.8333333333333</ele><time>2026-04-12T11:25:01.961Z</time></trkpt><trkpt lat="40.7209544" lon="14.8739098"><ele>359.66666666666663</ele><time>2026-04-12T11:25:02.978Z</time></trkpt><trkpt lat="40.7208764" lon="14.8739254"><ele>357.5</ele><time>2026-04-12T11:25:03.975Z</time></trkpt><trkpt lat="40.720812" lon="14.8739443"><ele>355.3333333333333</ele><time>2026-04-12T11:25:04.954Z</time></trkpt><trkpt lat="40.7207202" lon="14.8739636"><ele>353.1666666666667</ele><time>2026-04-12T11:25:06.967Z</time></trkpt><trkpt lat="40.7206488" lon="14.8739451"><ele>351.0</ele><time>2026-04-12T11:25:08.955Z</time></trkpt><trkpt lat="40.7206086" lon="14.8738178"><ele>351.00000000000006</ele><time>2026-04-12T11:25:11.047Z</time></trkpt><trkpt lat="40.7205957" lon="14.873721"><ele>351.0</ele><time>2026-04-12T11:25:12.052Z</time></trkpt><trkpt lat="40.7205845" lon="14.8736347"><ele>351.0</ele><time>2026-04-12T11:25:12.959Z</time></trkpt><trkpt lat="40.7206163" lon="14.8735288"><ele>351.0</ele><time>2026-04-12T11:25:14.976Z</time></trkpt><trkpt lat="40.7206755" lon="14.8735586"><ele>351.0</ele><time>2026-04-12T11:25:20.959Z</time></trkpt><trkpt lat="40.7207454" lon="14.873576"><ele>351.00000000000006</ele><time>2026-04-12T11:26:06.965Z</time></trkpt><trkpt lat="40.7208096" lon="14.8736043"><ele>351.0</ele><time>2026-04-12T11:26:30.962Z</time></trkpt><trkpt lat="40.720748" lon="14.8737012"><ele>351.0</ele><time>2026-04-12T11:27:00.956Z</time></trkpt><trkpt lat="40.7206841" lon="14.8737412"><ele>351.0</ele><time>2026-04-12T11:27:01.944Z</time></trkpt><trkpt lat="40.7206187" lon="14.8737738"><ele>351.0</ele><time>2026-04-12T11:27:02.955Z</time></trkpt><trkpt lat="40.7205547" lon="14.8738033"><ele>351.0</ele><time>2026-04-12T11:27:04.963Z</time></trkpt><trkpt lat="40.7206167" lon="14.8737471"><ele>351.0</ele><time>2026-04-12T11:27:07.957Z</time></trkpt><trkpt lat="40.7206766" lon="14.8737155"><ele>351.0</ele><time>2026-04-12T11:27:12.944Z</time></trkpt></trkseg></trk></gpx>